<?xml version="1.0" encoding="UTF-8" standalone="no" ?>
<gpx xmlns="http://www.topografix.com/GPX/1/1" xmlns:xsi="http://www.w3.org/2001/XMLSchema-instance" xsi:schemaLocation="http://www.topografix.com/GPX/1/1 http://www.topografix.com/GPX/1/1/gpx.xsd" version="1.1" creator="VisuGPX - https://www.visugpx.com">
  <metadata>
    <name>Tour de la Moselle J2</name>
    <desc><![CDATA[Tour de la Moselle, jour 2]]></desc>
  </metadata>
  <wpt lat="48.72223" lon="7.21259">
    <ele>248.3</ele>
    <name><![CDATA[Pause à 09/08 09:00]]></name>
  </wpt>
  <wpt lat="48.7241" lon="7.19014">
    <ele>258.9</ele>
    <name><![CDATA[Pause à 09/08 09:12]]></name>
  </wpt>
  <wpt lat="48.71811" lon="7.16309">
    <ele>301.9</ele>
    <name><![CDATA[Pause à 09/08 09:30]]></name>
  </wpt>
  <wpt lat="48.71728" lon="7.15984">
    <ele>330.8</ele>
    <name><![CDATA[Pause à 09/08 09:37]]></name>
  </wpt>
  <wpt lat="48.71676" lon="7.15986">
    <ele>332.8</ele>
    <name><![CDATA[Pause à 09/08 09:40]]></name>
  </wpt>
  <wpt lat="48.72373" lon="7.13339">
    <ele>291.9</ele>
    <name><![CDATA[Pause à 09/08 09:56]]></name>
  </wpt>
  <wpt lat="48.71555" lon="7.10959">
    <ele>269.4</ele>
    <name><![CDATA[Pause à 09/08 10:10]]></name>
  </wpt>
  <wpt lat="48.7068" lon="7.0782">
    <ele>267.3</ele>
    <name><![CDATA[Pause à 09/08 10:28]]></name>
  </wpt>
  <wpt lat="48.71176" lon="6.9996">
    <ele>272.3</ele>
    <name><![CDATA[Pause à 09/08 11:34]]></name>
  </wpt>
  <wpt lat="48.69983" lon="6.99286">
    <ele>260</ele>
    <name><![CDATA[Pause à 09/08 11:47]]></name>
  </wpt>
  <wpt lat="48.69498" lon="6.9672">
    <ele>272</ele>
    <name><![CDATA[Pause à 09/08 12:10]]></name>
  </wpt>
  <wpt lat="48.69951" lon="6.9095">
    <ele>267.2</ele>
    <name><![CDATA[Pause à 09/08 13:56]]></name>
  </wpt>
  <wpt lat="48.74188" lon="6.94232">
    <ele>265.1</ele>
    <name><![CDATA[Pause à 09/08 14:40]]></name>
  </wpt>
  <wpt lat="48.74202" lon="6.94315">
    <ele>268.6</ele>
    <name><![CDATA[Pause à 09/08 14:45]]></name>
  </wpt>
  <wpt lat="48.75688" lon="6.95541">
    <ele>268.1</ele>
    <name><![CDATA[Pause à 09/08 15:09]]></name>
  </wpt>
  <wpt lat="48.75661" lon="6.95595">
    <ele>269.2</ele>
    <name><![CDATA[Pause à 09/08 15:12]]></name>
  </wpt>
  <wpt lat="48.75609" lon="6.95201">
    <ele>261.1</ele>
    <name><![CDATA[Pause à 09/08 15:19]]></name>
  </wpt>
  <trk>
    <name><![CDATA[J2]]></name>
    <extensions>
      <line xmlns="http://www.topografix.com/GPX/gpx_style/0/2">
        <color>0000FF</color>
        <width>4</width>
      </line>
    </extensions>
    <trkseg>
      <trkpt lat="48.72038" lon="7.22729">
        <ele>223</ele>
        <time>2020-08-09T06:49:23Z</time>
      </trkpt>
      <trkpt lat="48.72035" lon="7.22735">
        <ele>222</ele>
        <time>2020-08-09T06:49:39Z</time>
      </trkpt>
      <trkpt lat="48.72031" lon="7.22739">
        <ele>222</ele>
        <time>2020-08-09T06:50:12Z</time>
      </trkpt>
      <trkpt lat="48.72028" lon="7.22734">
        <ele>221</ele>
        <time>2020-08-09T06:50:25Z</time>
      </trkpt>
      <trkpt lat="48.72025" lon="7.22724">
        <ele>222</ele>
        <time>2020-08-09T06:50:28Z</time>
      </trkpt>
      <trkpt lat="48.72022" lon="7.22718">
        <ele>222</ele>
        <time>2020-08-09T06:50:31Z</time>
      </trkpt>
      <trkpt lat="48.72019" lon="7.22712">
        <ele>222</ele>
        <time>2020-08-09T06:50:33Z</time>
      </trkpt>
      <trkpt lat="48.72016" lon="7.22705">
        <ele>222</ele>
        <time>2020-08-09T06:50:35Z</time>
      </trkpt>
      <trkpt lat="48.72012" lon="7.22699">
        <ele>222</ele>
        <time>2020-08-09T06:50:37Z</time>
      </trkpt>
      <trkpt lat="48.72006" lon="7.22699">
        <ele>222</ele>
        <time>2020-08-09T06:50:39Z</time>
      </trkpt>
      <trkpt lat="48.72002" lon="7.22705">
        <ele>222</ele>
        <time>2020-08-09T06:50:41Z</time>
      </trkpt>
      <trkpt lat="48.71998" lon="7.22711">
        <ele>222</ele>
        <time>2020-08-09T06:50:43Z</time>
      </trkpt>
      <trkpt lat="48.71993" lon="7.22716">
        <ele>222</ele>
        <time>2020-08-09T06:50:45Z</time>
      </trkpt>
      <trkpt lat="48.71988" lon="7.22722">
        <ele>223</ele>
        <time>2020-08-09T06:50:47Z</time>
      </trkpt>
      <trkpt lat="48.71982" lon="7.22723">
        <ele>224</ele>
        <time>2020-08-09T06:50:49Z</time>
      </trkpt>
      <trkpt lat="48.71977" lon="7.22719">
        <ele>225</ele>
        <time>2020-08-09T06:50:51Z</time>
      </trkpt>
      <trkpt lat="48.71973" lon="7.22711">
        <ele>225</ele>
        <time>2020-08-09T06:50:53Z</time>
      </trkpt>
      <trkpt lat="48.7197" lon="7.22703">
        <ele>224</ele>
        <time>2020-08-09T06:50:55Z</time>
      </trkpt>
      <trkpt lat="48.71967" lon="7.22694">
        <ele>224</ele>
        <time>2020-08-09T06:50:57Z</time>
      </trkpt>
      <trkpt lat="48.71964" lon="7.22686">
        <ele>223</ele>
        <time>2020-08-09T06:50:59Z</time>
      </trkpt>
      <trkpt lat="48.71965" lon="7.22677">
        <ele>222</ele>
        <time>2020-08-09T06:51:01Z</time>
      </trkpt>
      <trkpt lat="48.71961" lon="7.2267">
        <ele>222</ele>
        <time>2020-08-09T06:51:04Z</time>
      </trkpt>
      <trkpt lat="48.71956" lon="7.22665">
        <ele>222</ele>
        <time>2020-08-09T06:51:07Z</time>
      </trkpt>
      <trkpt lat="48.71952" lon="7.2266">
        <ele>222</ele>
        <time>2020-08-09T06:51:09Z</time>
      </trkpt>
      <trkpt lat="48.7195" lon="7.2265">
        <ele>222</ele>
        <time>2020-08-09T06:51:11Z</time>
      </trkpt>
      <trkpt lat="48.71946" lon="7.22642">
        <ele>222</ele>
        <time>2020-08-09T06:51:13Z</time>
      </trkpt>
      <trkpt lat="48.71943" lon="7.22635">
        <ele>222</ele>
        <time>2020-08-09T06:51:15Z</time>
      </trkpt>
      <trkpt lat="48.71939" lon="7.22629">
        <ele>222</ele>
        <time>2020-08-09T06:51:17Z</time>
      </trkpt>
      <trkpt lat="48.71933" lon="7.22629">
        <ele>223</ele>
        <time>2020-08-09T06:51:19Z</time>
      </trkpt>
      <trkpt lat="48.71929" lon="7.22631">
        <ele>223</ele>
        <time>2020-08-09T06:51:23Z</time>
      </trkpt>
      <trkpt lat="48.71924" lon="7.22635">
        <ele>223</ele>
        <time>2020-08-09T06:51:28Z</time>
      </trkpt>
      <trkpt lat="48.71918" lon="7.22636">
        <ele>224</ele>
        <time>2020-08-09T06:51:35Z</time>
      </trkpt>
      <trkpt lat="48.71915" lon="7.2263">
        <ele>224</ele>
        <time>2020-08-09T06:51:38Z</time>
      </trkpt>
      <trkpt lat="48.71911" lon="7.22622">
        <ele>225</ele>
        <time>2020-08-09T06:51:41Z</time>
      </trkpt>
      <trkpt lat="48.71907" lon="7.22615">
        <ele>227</ele>
        <time>2020-08-09T06:51:43Z</time>
      </trkpt>
      <trkpt lat="48.71903" lon="7.22608">
        <ele>227</ele>
        <time>2020-08-09T06:51:45Z</time>
      </trkpt>
      <trkpt lat="48.71899" lon="7.226">
        <ele>227</ele>
        <time>2020-08-09T06:51:47Z</time>
      </trkpt>
      <trkpt lat="48.71895" lon="7.22593">
        <ele>226</ele>
        <time>2020-08-09T06:51:49Z</time>
      </trkpt>
      <trkpt lat="48.71892" lon="7.22585">
        <ele>226</ele>
        <time>2020-08-09T06:51:51Z</time>
      </trkpt>
      <trkpt lat="48.71888" lon="7.22576">
        <ele>225</ele>
        <time>2020-08-09T06:51:53Z</time>
      </trkpt>
      <trkpt lat="48.71885" lon="7.2257">
        <ele>225</ele>
        <time>2020-08-09T06:51:55Z</time>
      </trkpt>
      <trkpt lat="48.71882" lon="7.22561">
        <ele>225</ele>
        <time>2020-08-09T06:51:57Z</time>
      </trkpt>
      <trkpt lat="48.71879" lon="7.22553">
        <ele>226</ele>
        <time>2020-08-09T06:51:59Z</time>
      </trkpt>
      <trkpt lat="48.71876" lon="7.22546">
        <ele>226</ele>
        <time>2020-08-09T06:52:01Z</time>
      </trkpt>
      <trkpt lat="48.71873" lon="7.22538">
        <ele>226</ele>
        <time>2020-08-09T06:52:03Z</time>
      </trkpt>
      <trkpt lat="48.71869" lon="7.22531">
        <ele>226</ele>
        <time>2020-08-09T06:52:05Z</time>
      </trkpt>
      <trkpt lat="48.71866" lon="7.22526">
        <ele>227</ele>
        <time>2020-08-09T06:52:07Z</time>
      </trkpt>
      <trkpt lat="48.71864" lon="7.22517">
        <ele>227</ele>
        <time>2020-08-09T06:52:09Z</time>
      </trkpt>
      <trkpt lat="48.71861" lon="7.22508">
        <ele>227</ele>
        <time>2020-08-09T06:52:11Z</time>
      </trkpt>
      <trkpt lat="48.71858" lon="7.22499">
        <ele>228</ele>
        <time>2020-08-09T06:52:13Z</time>
      </trkpt>
      <trkpt lat="48.71856" lon="7.2249">
        <ele>228</ele>
        <time>2020-08-09T06:52:15Z</time>
      </trkpt>
      <trkpt lat="48.71853" lon="7.22482">
        <ele>229</ele>
        <time>2020-08-09T06:52:17Z</time>
      </trkpt>
      <trkpt lat="48.71853" lon="7.22473">
        <ele>229</ele>
        <time>2020-08-09T06:52:19Z</time>
      </trkpt>
      <trkpt lat="48.71855" lon="7.22465">
        <ele>229</ele>
        <time>2020-08-09T06:52:21Z</time>
      </trkpt>
      <trkpt lat="48.71858" lon="7.22458">
        <ele>228</ele>
        <time>2020-08-09T06:52:23Z</time>
      </trkpt>
      <trkpt lat="48.71862" lon="7.22452">
        <ele>227</ele>
        <time>2020-08-09T06:52:25Z</time>
      </trkpt>
      <trkpt lat="48.71866" lon="7.22445">
        <ele>226</ele>
        <time>2020-08-09T06:52:27Z</time>
      </trkpt>
      <trkpt lat="48.71871" lon="7.22439">
        <ele>226</ele>
        <time>2020-08-09T06:52:29Z</time>
      </trkpt>
      <trkpt lat="48.71878" lon="7.2243">
        <ele>226</ele>
        <time>2020-08-09T06:52:33Z</time>
      </trkpt>
      <trkpt lat="48.71882" lon="7.22424">
        <ele>226</ele>
        <time>2020-08-09T06:52:35Z</time>
      </trkpt>
      <trkpt lat="48.71886" lon="7.22419">
        <ele>226</ele>
        <time>2020-08-09T06:52:37Z</time>
      </trkpt>
      <trkpt lat="48.7189" lon="7.22415">
        <ele>226</ele>
        <time>2020-08-09T06:52:38Z</time>
      </trkpt>
      <trkpt lat="48.71896" lon="7.22407">
        <ele>227</ele>
        <time>2020-08-09T06:52:40Z</time>
      </trkpt>
      <trkpt lat="48.719" lon="7.224">
        <ele>227</ele>
        <time>2020-08-09T06:52:42Z</time>
      </trkpt>
      <trkpt lat="48.71905" lon="7.22393">
        <ele>227</ele>
        <time>2020-08-09T06:52:44Z</time>
      </trkpt>
      <trkpt lat="48.7191" lon="7.22385">
        <ele>227</ele>
        <time>2020-08-09T06:52:46Z</time>
      </trkpt>
      <trkpt lat="48.71914" lon="7.22378">
        <ele>227</ele>
        <time>2020-08-09T06:52:48Z</time>
      </trkpt>
      <trkpt lat="48.71919" lon="7.22369">
        <ele>227</ele>
        <time>2020-08-09T06:52:50Z</time>
      </trkpt>
      <trkpt lat="48.71923" lon="7.2236">
        <ele>227</ele>
        <time>2020-08-09T06:52:52Z</time>
      </trkpt>
      <trkpt lat="48.71925" lon="7.22349">
        <ele>226</ele>
        <time>2020-08-09T06:52:54Z</time>
      </trkpt>
      <trkpt lat="48.71928" lon="7.22337">
        <ele>226</ele>
        <time>2020-08-09T06:52:56Z</time>
      </trkpt>
      <trkpt lat="48.71929" lon="7.2233">
        <ele>226</ele>
        <time>2020-08-09T06:52:57Z</time>
      </trkpt>
      <trkpt lat="48.7193" lon="7.22316">
        <ele>226</ele>
        <time>2020-08-09T06:52:59Z</time>
      </trkpt>
      <trkpt lat="48.71931" lon="7.22302">
        <ele>226</ele>
        <time>2020-08-09T06:53:01Z</time>
      </trkpt>
      <trkpt lat="48.71932" lon="7.22294">
        <ele>225</ele>
        <time>2020-08-09T06:53:02Z</time>
      </trkpt>
      <trkpt lat="48.71933" lon="7.22286">
        <ele>225</ele>
        <time>2020-08-09T06:53:03Z</time>
      </trkpt>
      <trkpt lat="48.71933" lon="7.22277">
        <ele>225</ele>
        <time>2020-08-09T06:53:04Z</time>
      </trkpt>
      <trkpt lat="48.71934" lon="7.22268">
        <ele>225</ele>
        <time>2020-08-09T06:53:05Z</time>
      </trkpt>
      <trkpt lat="48.71936" lon="7.22259">
        <ele>225</ele>
        <time>2020-08-09T06:53:06Z</time>
      </trkpt>
      <trkpt lat="48.71938" lon="7.22249">
        <ele>225</ele>
        <time>2020-08-09T06:53:07Z</time>
      </trkpt>
      <trkpt lat="48.7194" lon="7.22241">
        <ele>225</ele>
        <time>2020-08-09T06:53:08Z</time>
      </trkpt>
      <trkpt lat="48.71942" lon="7.22231">
        <ele>225</ele>
        <time>2020-08-09T06:53:09Z</time>
      </trkpt>
      <trkpt lat="48.71944" lon="7.22222">
        <ele>225</ele>
        <time>2020-08-09T06:53:10Z</time>
      </trkpt>
      <trkpt lat="48.71947" lon="7.22214">
        <ele>225</ele>
        <time>2020-08-09T06:53:11Z</time>
      </trkpt>
      <trkpt lat="48.7195" lon="7.22205">
        <ele>225</ele>
        <time>2020-08-09T06:53:12Z</time>
      </trkpt>
      <trkpt lat="48.71952" lon="7.22197">
        <ele>225</ele>
        <time>2020-08-09T06:53:13Z</time>
      </trkpt>
      <trkpt lat="48.71954" lon="7.2219">
        <ele>225</ele>
        <time>2020-08-09T06:53:14Z</time>
      </trkpt>
      <trkpt lat="48.71956" lon="7.22181">
        <ele>225</ele>
        <time>2020-08-09T06:53:15Z</time>
      </trkpt>
      <trkpt lat="48.71958" lon="7.22174">
        <ele>225</ele>
        <time>2020-08-09T06:53:16Z</time>
      </trkpt>
      <trkpt lat="48.71959" lon="7.22168">
        <ele>225</ele>
        <time>2020-08-09T06:53:17Z</time>
      </trkpt>
      <trkpt lat="48.71962" lon="7.22156">
        <ele>226</ele>
        <time>2020-08-09T06:53:19Z</time>
      </trkpt>
      <trkpt lat="48.71965" lon="7.22145">
        <ele>226</ele>
        <time>2020-08-09T06:53:21Z</time>
      </trkpt>
      <trkpt lat="48.71968" lon="7.22137">
        <ele>226</ele>
        <time>2020-08-09T06:53:23Z</time>
      </trkpt>
      <trkpt lat="48.7197" lon="7.22129">
        <ele>225</ele>
        <time>2020-08-09T06:53:25Z</time>
      </trkpt>
      <trkpt lat="48.71971" lon="7.22122">
        <ele>225</ele>
        <time>2020-08-09T06:53:27Z</time>
      </trkpt>
      <trkpt lat="48.71967" lon="7.22126">
        <ele>226</ele>
        <time>2020-08-09T06:53:32Z</time>
      </trkpt>
      <trkpt lat="48.71967" lon="7.22135">
        <ele>226</ele>
        <time>2020-08-09T06:53:34Z</time>
      </trkpt>
      <trkpt lat="48.71968" lon="7.22141">
        <ele>226</ele>
        <time>2020-08-09T06:53:36Z</time>
      </trkpt>
      <trkpt lat="48.71974" lon="7.22144">
        <ele>225</ele>
        <time>2020-08-09T06:53:38Z</time>
      </trkpt>
      <trkpt lat="48.71979" lon="7.22146">
        <ele>226</ele>
        <time>2020-08-09T06:53:42Z</time>
      </trkpt>
      <trkpt lat="48.71982" lon="7.22137">
        <ele>226</ele>
        <time>2020-08-09T06:53:46Z</time>
      </trkpt>
      <trkpt lat="48.71982" lon="7.2213">
        <ele>225</ele>
        <time>2020-08-09T06:53:48Z</time>
      </trkpt>
      <trkpt lat="48.71985" lon="7.22124">
        <ele>226</ele>
        <time>2020-08-09T06:53:50Z</time>
      </trkpt>
      <trkpt lat="48.71991" lon="7.22121">
        <ele>227</ele>
        <time>2020-08-09T06:53:53Z</time>
      </trkpt>
      <trkpt lat="48.71996" lon="7.22117">
        <ele>231</ele>
        <time>2020-08-09T06:53:56Z</time>
      </trkpt>
      <trkpt lat="48.71998" lon="7.22108">
        <ele>232</ele>
        <time>2020-08-09T06:53:59Z</time>
      </trkpt>
      <trkpt lat="48.71998" lon="7.22101">
        <ele>231</ele>
        <time>2020-08-09T06:54:01Z</time>
      </trkpt>
      <trkpt lat="48.71998" lon="7.22093">
        <ele>231</ele>
        <time>2020-08-09T06:54:03Z</time>
      </trkpt>
      <trkpt lat="48.71997" lon="7.22086">
        <ele>231</ele>
        <time>2020-08-09T06:54:05Z</time>
      </trkpt>
      <trkpt lat="48.71997" lon="7.22078">
        <ele>231</ele>
        <time>2020-08-09T06:54:07Z</time>
      </trkpt>
      <trkpt lat="48.71997" lon="7.22071">
        <ele>231</ele>
        <time>2020-08-09T06:54:09Z</time>
      </trkpt>
      <trkpt lat="48.71997" lon="7.22063">
        <ele>230</ele>
        <time>2020-08-09T06:54:11Z</time>
      </trkpt>
      <trkpt lat="48.71998" lon="7.22055">
        <ele>230</ele>
        <time>2020-08-09T06:54:13Z</time>
      </trkpt>
      <trkpt lat="48.71997" lon="7.22045">
        <ele>229</ele>
        <time>2020-08-09T06:54:16Z</time>
      </trkpt>
      <trkpt lat="48.71996" lon="7.22037">
        <ele>229</ele>
        <time>2020-08-09T06:54:19Z</time>
      </trkpt>
      <trkpt lat="48.71999" lon="7.22031">
        <ele>230</ele>
        <time>2020-08-09T06:54:22Z</time>
      </trkpt>
      <trkpt lat="48.72001" lon="7.2202">
        <ele>231</ele>
        <time>2020-08-09T06:54:25Z</time>
      </trkpt>
      <trkpt lat="48.72001" lon="7.22011">
        <ele>232</ele>
        <time>2020-08-09T06:54:27Z</time>
      </trkpt>
      <trkpt lat="48.72" lon="7.22003">
        <ele>231</ele>
        <time>2020-08-09T06:54:29Z</time>
      </trkpt>
      <trkpt lat="48.71999" lon="7.21994">
        <ele>230</ele>
        <time>2020-08-09T06:54:31Z</time>
      </trkpt>
      <trkpt lat="48.71998" lon="7.21985">
        <ele>228</ele>
        <time>2020-08-09T06:54:33Z</time>
      </trkpt>
      <trkpt lat="48.72" lon="7.21978">
        <ele>228</ele>
        <time>2020-08-09T06:54:35Z</time>
      </trkpt>
      <trkpt lat="48.72001" lon="7.2197">
        <ele>228</ele>
        <time>2020-08-09T06:54:37Z</time>
      </trkpt>
      <trkpt lat="48.72001" lon="7.21962">
        <ele>228</ele>
        <time>2020-08-09T06:54:40Z</time>
      </trkpt>
      <trkpt lat="48.71997" lon="7.21958">
        <ele>227</ele>
        <time>2020-08-09T06:54:42Z</time>
      </trkpt>
      <trkpt lat="48.71998" lon="7.2195">
        <ele>227</ele>
        <time>2020-08-09T06:54:44Z</time>
      </trkpt>
      <trkpt lat="48.71999" lon="7.21942">
        <ele>227</ele>
        <time>2020-08-09T06:54:46Z</time>
      </trkpt>
      <trkpt lat="48.71999" lon="7.21934">
        <ele>227</ele>
        <time>2020-08-09T06:54:48Z</time>
      </trkpt>
      <trkpt lat="48.71999" lon="7.21925">
        <ele>227</ele>
        <time>2020-08-09T06:54:50Z</time>
      </trkpt>
      <trkpt lat="48.72001" lon="7.21915">
        <ele>228</ele>
        <time>2020-08-09T06:54:52Z</time>
      </trkpt>
      <trkpt lat="48.72004" lon="7.21904">
        <ele>228</ele>
        <time>2020-08-09T06:54:54Z</time>
      </trkpt>
      <trkpt lat="48.72005" lon="7.21895">
        <ele>228</ele>
        <time>2020-08-09T06:54:56Z</time>
      </trkpt>
      <trkpt lat="48.72006" lon="7.21886">
        <ele>229</ele>
        <time>2020-08-09T06:54:58Z</time>
      </trkpt>
      <trkpt lat="48.72007" lon="7.21878">
        <ele>229</ele>
        <time>2020-08-09T06:55:00Z</time>
      </trkpt>
      <trkpt lat="48.72008" lon="7.2187">
        <ele>230</ele>
        <time>2020-08-09T06:55:02Z</time>
      </trkpt>
      <trkpt lat="48.7201" lon="7.21862">
        <ele>231</ele>
        <time>2020-08-09T06:55:04Z</time>
      </trkpt>
      <trkpt lat="48.72012" lon="7.21856">
        <ele>232</ele>
        <time>2020-08-09T06:55:06Z</time>
      </trkpt>
      <trkpt lat="48.72014" lon="7.21846">
        <ele>231</ele>
        <time>2020-08-09T06:55:09Z</time>
      </trkpt>
      <trkpt lat="48.72015" lon="7.21836">
        <ele>230</ele>
        <time>2020-08-09T06:55:12Z</time>
      </trkpt>
      <trkpt lat="48.72016" lon="7.21829">
        <ele>229</ele>
        <time>2020-08-09T06:55:14Z</time>
      </trkpt>
      <trkpt lat="48.72017" lon="7.21821">
        <ele>229</ele>
        <time>2020-08-09T06:55:16Z</time>
      </trkpt>
      <trkpt lat="48.72018" lon="7.21813">
        <ele>230</ele>
        <time>2020-08-09T06:55:18Z</time>
      </trkpt>
      <trkpt lat="48.72019" lon="7.21805">
        <ele>230</ele>
        <time>2020-08-09T06:55:20Z</time>
      </trkpt>
      <trkpt lat="48.7202" lon="7.21798">
        <ele>230</ele>
        <time>2020-08-09T06:55:22Z</time>
      </trkpt>
      <trkpt lat="48.72021" lon="7.2179">
        <ele>230</ele>
        <time>2020-08-09T06:55:24Z</time>
      </trkpt>
      <trkpt lat="48.72023" lon="7.21783">
        <ele>230</ele>
        <time>2020-08-09T06:55:26Z</time>
      </trkpt>
      <trkpt lat="48.72024" lon="7.21776">
        <ele>230</ele>
        <time>2020-08-09T06:55:28Z</time>
      </trkpt>
      <trkpt lat="48.72025" lon="7.21767">
        <ele>229</ele>
        <time>2020-08-09T06:55:31Z</time>
      </trkpt>
      <trkpt lat="48.72024" lon="7.2176">
        <ele>229</ele>
        <time>2020-08-09T06:55:34Z</time>
      </trkpt>
      <trkpt lat="48.72025" lon="7.21751">
        <ele>229</ele>
        <time>2020-08-09T06:55:37Z</time>
      </trkpt>
      <trkpt lat="48.7202" lon="7.21747">
        <ele>230</ele>
        <time>2020-08-09T06:55:41Z</time>
      </trkpt>
      <trkpt lat="48.72019" lon="7.21739">
        <ele>230</ele>
        <time>2020-08-09T06:55:44Z</time>
      </trkpt>
      <trkpt lat="48.7202" lon="7.2173">
        <ele>230</ele>
        <time>2020-08-09T06:55:47Z</time>
      </trkpt>
      <trkpt lat="48.72022" lon="7.2172">
        <ele>230</ele>
        <time>2020-08-09T06:55:50Z</time>
      </trkpt>
      <trkpt lat="48.72023" lon="7.21714">
        <ele>230</ele>
        <time>2020-08-09T06:55:52Z</time>
      </trkpt>
      <trkpt lat="48.72025" lon="7.21707">
        <ele>230</ele>
        <time>2020-08-09T06:55:54Z</time>
      </trkpt>
      <trkpt lat="48.72026" lon="7.217">
        <ele>230</ele>
        <time>2020-08-09T06:55:56Z</time>
      </trkpt>
      <trkpt lat="48.72028" lon="7.2169">
        <ele>230</ele>
        <time>2020-08-09T06:55:59Z</time>
      </trkpt>
      <trkpt lat="48.72028" lon="7.21683">
        <ele>230</ele>
        <time>2020-08-09T06:56:01Z</time>
      </trkpt>
      <trkpt lat="48.72028" lon="7.21673">
        <ele>230</ele>
        <time>2020-08-09T06:56:04Z</time>
      </trkpt>
      <trkpt lat="48.7203" lon="7.21664">
        <ele>230</ele>
        <time>2020-08-09T06:56:07Z</time>
      </trkpt>
      <trkpt lat="48.72031" lon="7.21655">
        <ele>230</ele>
        <time>2020-08-09T06:56:10Z</time>
      </trkpt>
      <trkpt lat="48.72032" lon="7.21647">
        <ele>230</ele>
        <time>2020-08-09T06:56:13Z</time>
      </trkpt>
      <trkpt lat="48.72034" lon="7.2164">
        <ele>230</ele>
        <time>2020-08-09T06:56:16Z</time>
      </trkpt>
      <trkpt lat="48.72034" lon="7.21632">
        <ele>231</ele>
        <time>2020-08-09T06:56:19Z</time>
      </trkpt>
      <trkpt lat="48.72036" lon="7.21624">
        <ele>231</ele>
        <time>2020-08-09T06:56:23Z</time>
      </trkpt>
      <trkpt lat="48.72037" lon="7.21615">
        <ele>231</ele>
        <time>2020-08-09T06:56:27Z</time>
      </trkpt>
      <trkpt lat="48.72038" lon="7.21608">
        <ele>231</ele>
        <time>2020-08-09T06:56:30Z</time>
      </trkpt>
      <trkpt lat="48.72039" lon="7.21601">
        <ele>231</ele>
        <time>2020-08-09T06:56:33Z</time>
      </trkpt>
      <trkpt lat="48.72041" lon="7.21592">
        <ele>230</ele>
        <time>2020-08-09T06:56:36Z</time>
      </trkpt>
      <trkpt lat="48.72042" lon="7.21585">
        <ele>230</ele>
        <time>2020-08-09T06:56:38Z</time>
      </trkpt>
      <trkpt lat="48.72043" lon="7.21574">
        <ele>230</ele>
        <time>2020-08-09T06:56:41Z</time>
      </trkpt>
      <trkpt lat="48.72044" lon="7.21567">
        <ele>231</ele>
        <time>2020-08-09T06:56:43Z</time>
      </trkpt>
      <trkpt lat="48.72045" lon="7.21559">
        <ele>232</ele>
        <time>2020-08-09T06:56:45Z</time>
      </trkpt>
      <trkpt lat="48.72047" lon="7.21552">
        <ele>233</ele>
        <time>2020-08-09T06:56:47Z</time>
      </trkpt>
      <trkpt lat="48.72049" lon="7.21546">
        <ele>233</ele>
        <time>2020-08-09T06:56:49Z</time>
      </trkpt>
      <trkpt lat="48.72053" lon="7.2154">
        <ele>233</ele>
        <time>2020-08-09T06:56:51Z</time>
      </trkpt>
      <trkpt lat="48.72057" lon="7.21535">
        <ele>233</ele>
        <time>2020-08-09T06:56:53Z</time>
      </trkpt>
      <trkpt lat="48.72062" lon="7.21531">
        <ele>233</ele>
        <time>2020-08-09T06:56:55Z</time>
      </trkpt>
      <trkpt lat="48.72065" lon="7.21527">
        <ele>233</ele>
        <time>2020-08-09T06:56:57Z</time>
      </trkpt>
      <trkpt lat="48.7207" lon="7.21519">
        <ele>233</ele>
        <time>2020-08-09T06:56:59Z</time>
      </trkpt>
      <trkpt lat="48.72074" lon="7.21513">
        <ele>233</ele>
        <time>2020-08-09T06:57:01Z</time>
      </trkpt>
      <trkpt lat="48.72079" lon="7.21507">
        <ele>233</ele>
        <time>2020-08-09T06:57:03Z</time>
      </trkpt>
      <trkpt lat="48.72084" lon="7.21503">
        <ele>233</ele>
        <time>2020-08-09T06:57:05Z</time>
      </trkpt>
      <trkpt lat="48.72089" lon="7.21502">
        <ele>233</ele>
        <time>2020-08-09T06:57:07Z</time>
      </trkpt>
      <trkpt lat="48.72096" lon="7.215">
        <ele>233</ele>
        <time>2020-08-09T06:57:10Z</time>
      </trkpt>
      <trkpt lat="48.72101" lon="7.21498">
        <ele>233</ele>
        <time>2020-08-09T06:57:12Z</time>
      </trkpt>
      <trkpt lat="48.72105" lon="7.21494">
        <ele>236</ele>
        <time>2020-08-09T06:57:14Z</time>
      </trkpt>
      <trkpt lat="48.7211" lon="7.21487">
        <ele>238</ele>
        <time>2020-08-09T06:57:17Z</time>
      </trkpt>
      <trkpt lat="48.72117" lon="7.21474">
        <ele>238</ele>
        <time>2020-08-09T06:57:21Z</time>
      </trkpt>
      <trkpt lat="48.72121" lon="7.21466">
        <ele>238</ele>
        <time>2020-08-09T06:57:23Z</time>
      </trkpt>
      <trkpt lat="48.72129" lon="7.21464">
        <ele>236</ele>
        <time>2020-08-09T06:57:25Z</time>
      </trkpt>
      <trkpt lat="48.72133" lon="7.21459">
        <ele>235</ele>
        <time>2020-08-09T06:57:27Z</time>
      </trkpt>
      <trkpt lat="48.72138" lon="7.21456">
        <ele>234</ele>
        <time>2020-08-09T06:57:29Z</time>
      </trkpt>
      <trkpt lat="48.72143" lon="7.21444">
        <ele>234</ele>
        <time>2020-08-09T06:57:31Z</time>
      </trkpt>
      <trkpt lat="48.72146" lon="7.21436">
        <ele>234</ele>
        <time>2020-08-09T06:57:33Z</time>
      </trkpt>
      <trkpt lat="48.72149" lon="7.21427">
        <ele>234</ele>
        <time>2020-08-09T06:57:35Z</time>
      </trkpt>
      <trkpt lat="48.72152" lon="7.21417">
        <ele>235</ele>
        <time>2020-08-09T06:57:37Z</time>
      </trkpt>
      <trkpt lat="48.72155" lon="7.21407">
        <ele>235</ele>
        <time>2020-08-09T06:57:39Z</time>
      </trkpt>
      <trkpt lat="48.72158" lon="7.21397">
        <ele>235</ele>
        <time>2020-08-09T06:57:41Z</time>
      </trkpt>
      <trkpt lat="48.72161" lon="7.21387">
        <ele>234</ele>
        <time>2020-08-09T06:57:43Z</time>
      </trkpt>
      <trkpt lat="48.72164" lon="7.21376">
        <ele>235</ele>
        <time>2020-08-09T06:57:45Z</time>
      </trkpt>
      <trkpt lat="48.72168" lon="7.21366">
        <ele>235</ele>
        <time>2020-08-09T06:57:47Z</time>
      </trkpt>
      <trkpt lat="48.72172" lon="7.21357">
        <ele>235</ele>
        <time>2020-08-09T06:57:49Z</time>
      </trkpt>
      <trkpt lat="48.72176" lon="7.21346">
        <ele>235</ele>
        <time>2020-08-09T06:57:51Z</time>
      </trkpt>
      <trkpt lat="48.72181" lon="7.21338">
        <ele>235</ele>
        <time>2020-08-09T06:57:53Z</time>
      </trkpt>
      <trkpt lat="48.72185" lon="7.21328">
        <ele>235</ele>
        <time>2020-08-09T06:57:55Z</time>
      </trkpt>
      <trkpt lat="48.72189" lon="7.21319">
        <ele>235</ele>
        <time>2020-08-09T06:57:57Z</time>
      </trkpt>
      <trkpt lat="48.72195" lon="7.21309">
        <ele>233</ele>
        <time>2020-08-09T06:57:59Z</time>
      </trkpt>
      <trkpt lat="48.72199" lon="7.21297">
        <ele>234</ele>
        <time>2020-08-09T06:58:01Z</time>
      </trkpt>
      <trkpt lat="48.72204" lon="7.21289">
        <ele>236</ele>
        <time>2020-08-09T06:58:03Z</time>
      </trkpt>
      <trkpt lat="48.72209" lon="7.21282">
        <ele>237</ele>
        <time>2020-08-09T06:58:05Z</time>
      </trkpt>
      <trkpt lat="48.72215" lon="7.21276">
        <ele>237</ele>
        <time>2020-08-09T06:58:07Z</time>
      </trkpt>
      <trkpt lat="48.72219" lon="7.21267">
        <ele>236</ele>
        <time>2020-08-09T06:58:09Z</time>
      </trkpt>
      <trkpt lat="48.72223" lon="7.21259">
        <ele>235</ele>
        <time>2020-08-09T06:58:11Z</time>
      </trkpt>
      <trkpt lat="48.72225" lon="7.21253">
        <ele>235</ele>
        <time>2020-08-09T06:58:15Z</time>
      </trkpt>
      <trkpt lat="48.72233" lon="7.21246">
        <ele>234</ele>
        <time>2020-08-09T06:58:40Z</time>
      </trkpt>
      <trkpt lat="48.72237" lon="7.21238">
        <ele>234</ele>
        <time>2020-08-09T06:58:43Z</time>
      </trkpt>
      <trkpt lat="48.7224" lon="7.21232">
        <ele>234</ele>
        <time>2020-08-09T06:58:46Z</time>
      </trkpt>
      <trkpt lat="48.72245" lon="7.21228">
        <ele>235</ele>
        <time>2020-08-09T06:58:49Z</time>
      </trkpt>
      <trkpt lat="48.7225" lon="7.21224">
        <ele>235</ele>
        <time>2020-08-09T06:59:54Z</time>
      </trkpt>
      <trkpt lat="48.72253" lon="7.21218">
        <ele>235</ele>
        <time>2020-08-09T07:00:10Z</time>
      </trkpt>
      <trkpt lat="48.72263" lon="7.21205">
        <ele>234</ele>
        <time>2020-08-09T07:00:16Z</time>
      </trkpt>
      <trkpt lat="48.72268" lon="7.21197">
        <ele>234</ele>
        <time>2020-08-09T07:00:18Z</time>
      </trkpt>
      <trkpt lat="48.72273" lon="7.21187">
        <ele>234</ele>
        <time>2020-08-09T07:00:20Z</time>
      </trkpt>
      <trkpt lat="48.72278" lon="7.21178">
        <ele>235</ele>
        <time>2020-08-09T07:00:22Z</time>
      </trkpt>
      <trkpt lat="48.7228" lon="7.21172">
        <ele>235</ele>
        <time>2020-08-09T07:00:23Z</time>
      </trkpt>
      <trkpt lat="48.72285" lon="7.21162">
        <ele>235</ele>
        <time>2020-08-09T07:00:25Z</time>
      </trkpt>
      <trkpt lat="48.72288" lon="7.21156">
        <ele>235</ele>
        <time>2020-08-09T07:00:26Z</time>
      </trkpt>
      <trkpt lat="48.72292" lon="7.21145">
        <ele>235</ele>
        <time>2020-08-09T07:00:28Z</time>
      </trkpt>
      <trkpt lat="48.72297" lon="7.21133">
        <ele>235</ele>
        <time>2020-08-09T07:00:30Z</time>
      </trkpt>
      <trkpt lat="48.72298" lon="7.21126">
        <ele>235</ele>
        <time>2020-08-09T07:00:31Z</time>
      </trkpt>
      <trkpt lat="48.72301" lon="7.21119">
        <ele>235</ele>
        <time>2020-08-09T07:00:32Z</time>
      </trkpt>
      <trkpt lat="48.72302" lon="7.21113">
        <ele>235</ele>
        <time>2020-08-09T07:00:33Z</time>
      </trkpt>
      <trkpt lat="48.72304" lon="7.21106">
        <ele>236</ele>
        <time>2020-08-09T07:00:34Z</time>
      </trkpt>
      <trkpt lat="48.72308" lon="7.21093">
        <ele>235</ele>
        <time>2020-08-09T07:00:36Z</time>
      </trkpt>
      <trkpt lat="48.7231" lon="7.21086">
        <ele>235</ele>
        <time>2020-08-09T07:00:37Z</time>
      </trkpt>
      <trkpt lat="48.72311" lon="7.2108">
        <ele>235</ele>
        <time>2020-08-09T07:00:38Z</time>
      </trkpt>
      <trkpt lat="48.72313" lon="7.21066">
        <ele>235</ele>
        <time>2020-08-09T07:00:40Z</time>
      </trkpt>
      <trkpt lat="48.72314" lon="7.21059">
        <ele>235</ele>
        <time>2020-08-09T07:00:41Z</time>
      </trkpt>
      <trkpt lat="48.72314" lon="7.21052">
        <ele>235</ele>
        <time>2020-08-09T07:00:42Z</time>
      </trkpt>
      <trkpt lat="48.72315" lon="7.21045">
        <ele>235</ele>
        <time>2020-08-09T07:00:43Z</time>
      </trkpt>
      <trkpt lat="48.72315" lon="7.21037">
        <ele>235</ele>
        <time>2020-08-09T07:00:44Z</time>
      </trkpt>
      <trkpt lat="48.72315" lon="7.2103">
        <ele>235</ele>
        <time>2020-08-09T07:00:45Z</time>
      </trkpt>
      <trkpt lat="48.72316" lon="7.21022">
        <ele>235</ele>
        <time>2020-08-09T07:00:46Z</time>
      </trkpt>
      <trkpt lat="48.72316" lon="7.21015">
        <ele>235</ele>
        <time>2020-08-09T07:00:47Z</time>
      </trkpt>
      <trkpt lat="48.72317" lon="7.21007">
        <ele>235</ele>
        <time>2020-08-09T07:00:48Z</time>
      </trkpt>
      <trkpt lat="48.72317" lon="7.21">
        <ele>235</ele>
        <time>2020-08-09T07:00:49Z</time>
      </trkpt>
      <trkpt lat="48.72318" lon="7.20994">
        <ele>235</ele>
        <time>2020-08-09T07:00:50Z</time>
      </trkpt>
      <trkpt lat="48.72319" lon="7.20987">
        <ele>235</ele>
        <time>2020-08-09T07:00:51Z</time>
      </trkpt>
      <trkpt lat="48.7232" lon="7.20974">
        <ele>236</ele>
        <time>2020-08-09T07:00:53Z</time>
      </trkpt>
      <trkpt lat="48.72321" lon="7.20965">
        <ele>237</ele>
        <time>2020-08-09T07:00:55Z</time>
      </trkpt>
      <trkpt lat="48.72321" lon="7.20957">
        <ele>237</ele>
        <time>2020-08-09T07:00:57Z</time>
      </trkpt>
      <trkpt lat="48.72322" lon="7.20948">
        <ele>238</ele>
        <time>2020-08-09T07:00:59Z</time>
      </trkpt>
      <trkpt lat="48.72324" lon="7.2094">
        <ele>238</ele>
        <time>2020-08-09T07:01:01Z</time>
      </trkpt>
      <trkpt lat="48.72325" lon="7.2093">
        <ele>238</ele>
        <time>2020-08-09T07:01:03Z</time>
      </trkpt>
      <trkpt lat="48.72326" lon="7.2092">
        <ele>238</ele>
        <time>2020-08-09T07:01:05Z</time>
      </trkpt>
      <trkpt lat="48.72327" lon="7.20911">
        <ele>238</ele>
        <time>2020-08-09T07:01:07Z</time>
      </trkpt>
      <trkpt lat="48.72327" lon="7.20902">
        <ele>238</ele>
        <time>2020-08-09T07:01:09Z</time>
      </trkpt>
      <trkpt lat="48.72328" lon="7.20894">
        <ele>238</ele>
        <time>2020-08-09T07:01:11Z</time>
      </trkpt>
      <trkpt lat="48.72329" lon="7.20884">
        <ele>238</ele>
        <time>2020-08-09T07:01:13Z</time>
      </trkpt>
      <trkpt lat="48.72329" lon="7.20873">
        <ele>238</ele>
        <time>2020-08-09T07:01:15Z</time>
      </trkpt>
      <trkpt lat="48.72331" lon="7.20862">
        <ele>238</ele>
        <time>2020-08-09T07:01:17Z</time>
      </trkpt>
      <trkpt lat="48.72331" lon="7.2085">
        <ele>238</ele>
        <time>2020-08-09T07:01:19Z</time>
      </trkpt>
      <trkpt lat="48.72332" lon="7.20838">
        <ele>238</ele>
        <time>2020-08-09T07:01:21Z</time>
      </trkpt>
      <trkpt lat="48.72334" lon="7.20828">
        <ele>238</ele>
        <time>2020-08-09T07:01:23Z</time>
      </trkpt>
      <trkpt lat="48.72335" lon="7.20817">
        <ele>239</ele>
        <time>2020-08-09T07:01:25Z</time>
      </trkpt>
      <trkpt lat="48.72337" lon="7.20806">
        <ele>239</ele>
        <time>2020-08-09T07:01:27Z</time>
      </trkpt>
      <trkpt lat="48.7234" lon="7.20794">
        <ele>239</ele>
        <time>2020-08-09T07:01:29Z</time>
      </trkpt>
      <trkpt lat="48.72342" lon="7.20783">
        <ele>239</ele>
        <time>2020-08-09T07:01:31Z</time>
      </trkpt>
      <trkpt lat="48.72344" lon="7.20772">
        <ele>239</ele>
        <time>2020-08-09T07:01:33Z</time>
      </trkpt>
      <trkpt lat="48.72347" lon="7.20761">
        <ele>239</ele>
        <time>2020-08-09T07:01:35Z</time>
      </trkpt>
      <trkpt lat="48.7235" lon="7.20752">
        <ele>239</ele>
        <time>2020-08-09T07:01:37Z</time>
      </trkpt>
      <trkpt lat="48.72353" lon="7.20744">
        <ele>239</ele>
        <time>2020-08-09T07:01:39Z</time>
      </trkpt>
      <trkpt lat="48.72355" lon="7.20737">
        <ele>238</ele>
        <time>2020-08-09T07:01:41Z</time>
      </trkpt>
      <trkpt lat="48.72359" lon="7.20723">
        <ele>239</ele>
        <time>2020-08-09T07:02:22Z</time>
      </trkpt>
      <trkpt lat="48.7236" lon="7.20716">
        <ele>239</ele>
        <time>2020-08-09T07:02:26Z</time>
      </trkpt>
      <trkpt lat="48.7236" lon="7.20708">
        <ele>240</ele>
        <time>2020-08-09T07:02:35Z</time>
      </trkpt>
      <trkpt lat="48.72365" lon="7.20702">
        <ele>239</ele>
        <time>2020-08-09T07:02:39Z</time>
      </trkpt>
      <trkpt lat="48.72368" lon="7.20696">
        <ele>240</ele>
        <time>2020-08-09T07:02:41Z</time>
      </trkpt>
      <trkpt lat="48.7237" lon="7.2069">
        <ele>240</ele>
        <time>2020-08-09T07:02:43Z</time>
      </trkpt>
      <trkpt lat="48.72372" lon="7.20683">
        <ele>240</ele>
        <time>2020-08-09T07:02:45Z</time>
      </trkpt>
      <trkpt lat="48.72376" lon="7.20676">
        <ele>241</ele>
        <time>2020-08-09T07:02:47Z</time>
      </trkpt>
      <trkpt lat="48.72379" lon="7.20668">
        <ele>240</ele>
        <time>2020-08-09T07:02:49Z</time>
      </trkpt>
      <trkpt lat="48.72382" lon="7.20661">
        <ele>240</ele>
        <time>2020-08-09T07:02:51Z</time>
      </trkpt>
      <trkpt lat="48.72384" lon="7.20653">
        <ele>240</ele>
        <time>2020-08-09T07:02:53Z</time>
      </trkpt>
      <trkpt lat="48.72387" lon="7.20646">
        <ele>240</ele>
        <time>2020-08-09T07:02:55Z</time>
      </trkpt>
      <trkpt lat="48.7239" lon="7.2064">
        <ele>240</ele>
        <time>2020-08-09T07:02:57Z</time>
      </trkpt>
      <trkpt lat="48.72392" lon="7.20634">
        <ele>240</ele>
        <time>2020-08-09T07:02:59Z</time>
      </trkpt>
      <trkpt lat="48.72395" lon="7.20626">
        <ele>240</ele>
        <time>2020-08-09T07:03:01Z</time>
      </trkpt>
      <trkpt lat="48.72398" lon="7.20616">
        <ele>240</ele>
        <time>2020-08-09T07:03:03Z</time>
      </trkpt>
      <trkpt lat="48.72401" lon="7.20606">
        <ele>240</ele>
        <time>2020-08-09T07:03:05Z</time>
      </trkpt>
      <trkpt lat="48.72405" lon="7.20595">
        <ele>240</ele>
        <time>2020-08-09T07:03:07Z</time>
      </trkpt>
      <trkpt lat="48.72408" lon="7.20583">
        <ele>240</ele>
        <time>2020-08-09T07:03:09Z</time>
      </trkpt>
      <trkpt lat="48.72411" lon="7.20571">
        <ele>240</ele>
        <time>2020-08-09T07:03:11Z</time>
      </trkpt>
      <trkpt lat="48.72413" lon="7.20559">
        <ele>241</ele>
        <time>2020-08-09T07:03:13Z</time>
      </trkpt>
      <trkpt lat="48.72416" lon="7.20548">
        <ele>240</ele>
        <time>2020-08-09T07:03:15Z</time>
      </trkpt>
      <trkpt lat="48.72421" lon="7.20536">
        <ele>241</ele>
        <time>2020-08-09T07:03:17Z</time>
      </trkpt>
      <trkpt lat="48.72422" lon="7.20529">
        <ele>241</ele>
        <time>2020-08-09T07:03:18Z</time>
      </trkpt>
      <trkpt lat="48.72425" lon="7.20517">
        <ele>240</ele>
        <time>2020-08-09T07:03:20Z</time>
      </trkpt>
      <trkpt lat="48.72428" lon="7.20505">
        <ele>240</ele>
        <time>2020-08-09T07:03:22Z</time>
      </trkpt>
      <trkpt lat="48.7243" lon="7.20492">
        <ele>240</ele>
        <time>2020-08-09T07:03:24Z</time>
      </trkpt>
      <trkpt lat="48.72432" lon="7.20481">
        <ele>240</ele>
        <time>2020-08-09T07:03:26Z</time>
      </trkpt>
      <trkpt lat="48.72435" lon="7.20469">
        <ele>240</ele>
        <time>2020-08-09T07:03:28Z</time>
      </trkpt>
      <trkpt lat="48.72438" lon="7.20458">
        <ele>240</ele>
        <time>2020-08-09T07:03:30Z</time>
      </trkpt>
      <trkpt lat="48.7244" lon="7.20446">
        <ele>240</ele>
        <time>2020-08-09T07:03:32Z</time>
      </trkpt>
      <trkpt lat="48.72443" lon="7.20435">
        <ele>240</ele>
        <time>2020-08-09T07:03:34Z</time>
      </trkpt>
      <trkpt lat="48.72444" lon="7.20425">
        <ele>241</ele>
        <time>2020-08-09T07:03:36Z</time>
      </trkpt>
      <trkpt lat="48.72446" lon="7.20414">
        <ele>241</ele>
        <time>2020-08-09T07:03:38Z</time>
      </trkpt>
      <trkpt lat="48.72449" lon="7.20404">
        <ele>241</ele>
        <time>2020-08-09T07:03:40Z</time>
      </trkpt>
      <trkpt lat="48.72451" lon="7.20396">
        <ele>240</ele>
        <time>2020-08-09T07:03:42Z</time>
      </trkpt>
      <trkpt lat="48.72454" lon="7.20391">
        <ele>240</ele>
        <time>2020-08-09T07:03:51Z</time>
      </trkpt>
      <trkpt lat="48.72456" lon="7.20384">
        <ele>240</ele>
        <time>2020-08-09T07:03:57Z</time>
      </trkpt>
      <trkpt lat="48.72453" lon="7.20391">
        <ele>240</ele>
        <time>2020-08-09T07:04:00Z</time>
      </trkpt>
      <trkpt lat="48.72451" lon="7.20383">
        <ele>241</ele>
        <time>2020-08-09T07:04:18Z</time>
      </trkpt>
      <trkpt lat="48.72451" lon="7.20376">
        <ele>241</ele>
        <time>2020-08-09T07:04:21Z</time>
      </trkpt>
      <trkpt lat="48.72452" lon="7.20366">
        <ele>242</ele>
        <time>2020-08-09T07:04:24Z</time>
      </trkpt>
      <trkpt lat="48.72451" lon="7.20357">
        <ele>242</ele>
        <time>2020-08-09T07:04:27Z</time>
      </trkpt>
      <trkpt lat="48.72451" lon="7.2035">
        <ele>242</ele>
        <time>2020-08-09T07:04:29Z</time>
      </trkpt>
      <trkpt lat="48.72452" lon="7.20343">
        <ele>243</ele>
        <time>2020-08-09T07:04:31Z</time>
      </trkpt>
      <trkpt lat="48.72451" lon="7.20335">
        <ele>243</ele>
        <time>2020-08-09T07:04:33Z</time>
      </trkpt>
      <trkpt lat="48.72452" lon="7.20327">
        <ele>243</ele>
        <time>2020-08-09T07:04:35Z</time>
      </trkpt>
      <trkpt lat="48.72453" lon="7.20318">
        <ele>243</ele>
        <time>2020-08-09T07:04:37Z</time>
      </trkpt>
      <trkpt lat="48.72453" lon="7.2031">
        <ele>243</ele>
        <time>2020-08-09T07:04:39Z</time>
      </trkpt>
      <trkpt lat="48.72453" lon="7.20298">
        <ele>244</ele>
        <time>2020-08-09T07:04:41Z</time>
      </trkpt>
      <trkpt lat="48.72452" lon="7.2029">
        <ele>244</ele>
        <time>2020-08-09T07:04:43Z</time>
      </trkpt>
      <trkpt lat="48.72453" lon="7.20278">
        <ele>244</ele>
        <time>2020-08-09T07:04:45Z</time>
      </trkpt>
      <trkpt lat="48.72451" lon="7.20265">
        <ele>244</ele>
        <time>2020-08-09T07:04:47Z</time>
      </trkpt>
      <trkpt lat="48.72451" lon="7.20258">
        <ele>243</ele>
        <time>2020-08-09T07:04:48Z</time>
      </trkpt>
      <trkpt lat="48.72451" lon="7.20245">
        <ele>243</ele>
        <time>2020-08-09T07:04:50Z</time>
      </trkpt>
      <trkpt lat="48.72451" lon="7.20237">
        <ele>243</ele>
        <time>2020-08-09T07:04:51Z</time>
      </trkpt>
      <trkpt lat="48.72452" lon="7.20229">
        <ele>243</ele>
        <time>2020-08-09T07:04:52Z</time>
      </trkpt>
      <trkpt lat="48.72453" lon="7.20215">
        <ele>244</ele>
        <time>2020-08-09T07:04:54Z</time>
      </trkpt>
      <trkpt lat="48.72453" lon="7.20203">
        <ele>244</ele>
        <time>2020-08-09T07:04:56Z</time>
      </trkpt>
      <trkpt lat="48.72453" lon="7.20195">
        <ele>244</ele>
        <time>2020-08-09T07:04:57Z</time>
      </trkpt>
      <trkpt lat="48.72453" lon="7.20187">
        <ele>245</ele>
        <time>2020-08-09T07:04:58Z</time>
      </trkpt>
      <trkpt lat="48.72453" lon="7.20179">
        <ele>245</ele>
        <time>2020-08-09T07:04:59Z</time>
      </trkpt>
      <trkpt lat="48.72452" lon="7.20173">
        <ele>246</ele>
        <time>2020-08-09T07:05:00Z</time>
      </trkpt>
      <trkpt lat="48.72463" lon="7.20075">
        <ele>249</ele>
        <time>2020-08-09T07:06:22Z</time>
      </trkpt>
      <trkpt lat="48.72459" lon="7.20067">
        <ele>248</ele>
        <time>2020-08-09T07:06:24Z</time>
      </trkpt>
      <trkpt lat="48.72458" lon="7.20058">
        <ele>248</ele>
        <time>2020-08-09T07:06:25Z</time>
      </trkpt>
      <trkpt lat="48.72459" lon="7.20048">
        <ele>248</ele>
        <time>2020-08-09T07:06:27Z</time>
      </trkpt>
      <trkpt lat="48.72465" lon="7.2004">
        <ele>247</ele>
        <time>2020-08-09T07:06:29Z</time>
      </trkpt>
      <trkpt lat="48.72466" lon="7.20027">
        <ele>246</ele>
        <time>2020-08-09T07:06:31Z</time>
      </trkpt>
      <trkpt lat="48.72468" lon="7.20017">
        <ele>246</ele>
        <time>2020-08-09T07:06:33Z</time>
      </trkpt>
      <trkpt lat="48.7247" lon="7.20005">
        <ele>245</ele>
        <time>2020-08-09T07:06:35Z</time>
      </trkpt>
      <trkpt lat="48.72471" lon="7.19995">
        <ele>245</ele>
        <time>2020-08-09T07:06:37Z</time>
      </trkpt>
      <trkpt lat="48.72472" lon="7.19983">
        <ele>245</ele>
        <time>2020-08-09T07:06:39Z</time>
      </trkpt>
      <trkpt lat="48.72474" lon="7.1997">
        <ele>245</ele>
        <time>2020-08-09T07:06:41Z</time>
      </trkpt>
      <trkpt lat="48.72475" lon="7.19958">
        <ele>245</ele>
        <time>2020-08-09T07:06:43Z</time>
      </trkpt>
      <trkpt lat="48.72478" lon="7.19945">
        <ele>245</ele>
        <time>2020-08-09T07:06:45Z</time>
      </trkpt>
      <trkpt lat="48.7248" lon="7.19933">
        <ele>245</ele>
        <time>2020-08-09T07:06:47Z</time>
      </trkpt>
      <trkpt lat="48.72481" lon="7.1992">
        <ele>245</ele>
        <time>2020-08-09T07:06:49Z</time>
      </trkpt>
      <trkpt lat="48.72482" lon="7.19907">
        <ele>245</ele>
        <time>2020-08-09T07:06:51Z</time>
      </trkpt>
      <trkpt lat="48.72483" lon="7.19894">
        <ele>245</ele>
        <time>2020-08-09T07:06:53Z</time>
      </trkpt>
      <trkpt lat="48.72484" lon="7.19881">
        <ele>245</ele>
        <time>2020-08-09T07:06:55Z</time>
      </trkpt>
      <trkpt lat="48.72484" lon="7.19874">
        <ele>245</ele>
        <time>2020-08-09T07:06:56Z</time>
      </trkpt>
      <trkpt lat="48.72484" lon="7.19867">
        <ele>245</ele>
        <time>2020-08-09T07:06:57Z</time>
      </trkpt>
      <trkpt lat="48.72483" lon="7.19854">
        <ele>245</ele>
        <time>2020-08-09T07:06:59Z</time>
      </trkpt>
      <trkpt lat="48.72481" lon="7.19844">
        <ele>246</ele>
        <time>2020-08-09T07:07:01Z</time>
      </trkpt>
      <trkpt lat="48.72479" lon="7.19835">
        <ele>246</ele>
        <time>2020-08-09T07:07:03Z</time>
      </trkpt>
      <trkpt lat="48.72479" lon="7.19827">
        <ele>246</ele>
        <time>2020-08-09T07:07:05Z</time>
      </trkpt>
      <trkpt lat="48.72478" lon="7.19818">
        <ele>246</ele>
        <time>2020-08-09T07:07:07Z</time>
      </trkpt>
      <trkpt lat="48.72476" lon="7.19809">
        <ele>247</ele>
        <time>2020-08-09T07:07:09Z</time>
      </trkpt>
      <trkpt lat="48.72474" lon="7.198">
        <ele>247</ele>
        <time>2020-08-09T07:07:11Z</time>
      </trkpt>
      <trkpt lat="48.72472" lon="7.1979">
        <ele>247</ele>
        <time>2020-08-09T07:07:13Z</time>
      </trkpt>
      <trkpt lat="48.72469" lon="7.19779">
        <ele>247</ele>
        <time>2020-08-09T07:07:15Z</time>
      </trkpt>
      <trkpt lat="48.72467" lon="7.19769">
        <ele>247</ele>
        <time>2020-08-09T07:07:17Z</time>
      </trkpt>
      <trkpt lat="48.72463" lon="7.19758">
        <ele>247</ele>
        <time>2020-08-09T07:07:19Z</time>
      </trkpt>
      <trkpt lat="48.72461" lon="7.19748">
        <ele>246</ele>
        <time>2020-08-09T07:07:21Z</time>
      </trkpt>
      <trkpt lat="48.72458" lon="7.19737">
        <ele>246</ele>
        <time>2020-08-09T07:07:23Z</time>
      </trkpt>
      <trkpt lat="48.72454" lon="7.19725">
        <ele>246</ele>
        <time>2020-08-09T07:07:25Z</time>
      </trkpt>
      <trkpt lat="48.72451" lon="7.19714">
        <ele>247</ele>
        <time>2020-08-09T07:07:27Z</time>
      </trkpt>
      <trkpt lat="48.72448" lon="7.19703">
        <ele>247</ele>
        <time>2020-08-09T07:07:29Z</time>
      </trkpt>
      <trkpt lat="48.72445" lon="7.19691">
        <ele>247</ele>
        <time>2020-08-09T07:07:31Z</time>
      </trkpt>
      <trkpt lat="48.72442" lon="7.19679">
        <ele>247</ele>
        <time>2020-08-09T07:07:33Z</time>
      </trkpt>
      <trkpt lat="48.72438" lon="7.19668">
        <ele>248</ele>
        <time>2020-08-09T07:07:35Z</time>
      </trkpt>
      <trkpt lat="48.72436" lon="7.19657">
        <ele>248</ele>
        <time>2020-08-09T07:07:37Z</time>
      </trkpt>
      <trkpt lat="48.72433" lon="7.19648">
        <ele>250</ele>
        <time>2020-08-09T07:07:39Z</time>
      </trkpt>
      <trkpt lat="48.72431" lon="7.1964">
        <ele>251</ele>
        <time>2020-08-09T07:07:41Z</time>
      </trkpt>
      <trkpt lat="48.72429" lon="7.19632">
        <ele>251</ele>
        <time>2020-08-09T07:07:43Z</time>
      </trkpt>
      <trkpt lat="48.72427" lon="7.19625">
        <ele>251</ele>
        <time>2020-08-09T07:07:45Z</time>
      </trkpt>
      <trkpt lat="48.72426" lon="7.19618">
        <ele>250</ele>
        <time>2020-08-09T07:07:47Z</time>
      </trkpt>
      <trkpt lat="48.72424" lon="7.19609">
        <ele>250</ele>
        <time>2020-08-09T07:07:49Z</time>
      </trkpt>
      <trkpt lat="48.7242" lon="7.196">
        <ele>250</ele>
        <time>2020-08-09T07:07:51Z</time>
      </trkpt>
      <trkpt lat="48.72418" lon="7.1959">
        <ele>250</ele>
        <time>2020-08-09T07:07:53Z</time>
      </trkpt>
      <trkpt lat="48.72416" lon="7.1958">
        <ele>250</ele>
        <time>2020-08-09T07:07:55Z</time>
      </trkpt>
      <trkpt lat="48.72413" lon="7.19569">
        <ele>249</ele>
        <time>2020-08-09T07:07:57Z</time>
      </trkpt>
      <trkpt lat="48.72409" lon="7.19559">
        <ele>249</ele>
        <time>2020-08-09T07:07:59Z</time>
      </trkpt>
      <trkpt lat="48.72407" lon="7.19549">
        <ele>249</ele>
        <time>2020-08-09T07:08:01Z</time>
      </trkpt>
      <trkpt lat="48.72404" lon="7.19538">
        <ele>249</ele>
        <time>2020-08-09T07:08:03Z</time>
      </trkpt>
      <trkpt lat="48.72402" lon="7.19531">
        <ele>249</ele>
        <time>2020-08-09T07:08:04Z</time>
      </trkpt>
      <trkpt lat="48.724" lon="7.1952">
        <ele>249</ele>
        <time>2020-08-09T07:08:06Z</time>
      </trkpt>
      <trkpt lat="48.72398" lon="7.19507">
        <ele>249</ele>
        <time>2020-08-09T07:08:08Z</time>
      </trkpt>
      <trkpt lat="48.72397" lon="7.19496">
        <ele>249</ele>
        <time>2020-08-09T07:08:10Z</time>
      </trkpt>
      <trkpt lat="48.72398" lon="7.19484">
        <ele>249</ele>
        <time>2020-08-09T07:08:12Z</time>
      </trkpt>
      <trkpt lat="48.72397" lon="7.19472">
        <ele>249</ele>
        <time>2020-08-09T07:08:14Z</time>
      </trkpt>
      <trkpt lat="48.72394" lon="7.19459">
        <ele>248</ele>
        <time>2020-08-09T07:08:16Z</time>
      </trkpt>
      <trkpt lat="48.72393" lon="7.19448">
        <ele>248</ele>
        <time>2020-08-09T07:08:18Z</time>
      </trkpt>
      <trkpt lat="48.72392" lon="7.19438">
        <ele>248</ele>
        <time>2020-08-09T07:08:20Z</time>
      </trkpt>
      <trkpt lat="48.72391" lon="7.19427">
        <ele>248</ele>
        <time>2020-08-09T07:08:22Z</time>
      </trkpt>
      <trkpt lat="48.72389" lon="7.19416">
        <ele>249</ele>
        <time>2020-08-09T07:08:24Z</time>
      </trkpt>
      <trkpt lat="48.72388" lon="7.19404">
        <ele>249</ele>
        <time>2020-08-09T07:08:26Z</time>
      </trkpt>
      <trkpt lat="48.72387" lon="7.19396">
        <ele>250</ele>
        <time>2020-08-09T07:08:27Z</time>
      </trkpt>
      <trkpt lat="48.72385" lon="7.19384">
        <ele>250</ele>
        <time>2020-08-09T07:08:29Z</time>
      </trkpt>
      <trkpt lat="48.72385" lon="7.19371">
        <ele>250</ele>
        <time>2020-08-09T07:08:31Z</time>
      </trkpt>
      <trkpt lat="48.72385" lon="7.19361">
        <ele>250</ele>
        <time>2020-08-09T07:08:33Z</time>
      </trkpt>
      <trkpt lat="48.72384" lon="7.19352">
        <ele>251</ele>
        <time>2020-08-09T07:08:35Z</time>
      </trkpt>
      <trkpt lat="48.72384" lon="7.19344">
        <ele>251</ele>
        <time>2020-08-09T07:08:37Z</time>
      </trkpt>
      <trkpt lat="48.72384" lon="7.19337">
        <ele>251</ele>
        <time>2020-08-09T07:08:39Z</time>
      </trkpt>
      <trkpt lat="48.72384" lon="7.1933">
        <ele>251</ele>
        <time>2020-08-09T07:08:41Z</time>
      </trkpt>
      <trkpt lat="48.72384" lon="7.19321">
        <ele>252</ele>
        <time>2020-08-09T07:08:43Z</time>
      </trkpt>
      <trkpt lat="48.72385" lon="7.19313">
        <ele>252</ele>
        <time>2020-08-09T07:08:45Z</time>
      </trkpt>
      <trkpt lat="48.72385" lon="7.19304">
        <ele>252</ele>
        <time>2020-08-09T07:08:47Z</time>
      </trkpt>
      <trkpt lat="48.72385" lon="7.19295">
        <ele>251</ele>
        <time>2020-08-09T07:08:49Z</time>
      </trkpt>
      <trkpt lat="48.72386" lon="7.19284">
        <ele>252</ele>
        <time>2020-08-09T07:08:51Z</time>
      </trkpt>
      <trkpt lat="48.72386" lon="7.19273">
        <ele>252</ele>
        <time>2020-08-09T07:08:53Z</time>
      </trkpt>
      <trkpt lat="48.72386" lon="7.19262">
        <ele>251</ele>
        <time>2020-08-09T07:08:55Z</time>
      </trkpt>
      <trkpt lat="48.72386" lon="7.19249">
        <ele>251</ele>
        <time>2020-08-09T07:08:57Z</time>
      </trkpt>
      <trkpt lat="48.72387" lon="7.19238">
        <ele>251</ele>
        <time>2020-08-09T07:08:59Z</time>
      </trkpt>
      <trkpt lat="48.72386" lon="7.19226">
        <ele>251</ele>
        <time>2020-08-09T07:09:01Z</time>
      </trkpt>
      <trkpt lat="48.72386" lon="7.19215">
        <ele>251</ele>
        <time>2020-08-09T07:09:03Z</time>
      </trkpt>
      <trkpt lat="48.72386" lon="7.19204">
        <ele>251</ele>
        <time>2020-08-09T07:09:05Z</time>
      </trkpt>
      <trkpt lat="48.72387" lon="7.19193">
        <ele>251</ele>
        <time>2020-08-09T07:09:07Z</time>
      </trkpt>
      <trkpt lat="48.72386" lon="7.19181">
        <ele>251</ele>
        <time>2020-08-09T07:09:09Z</time>
      </trkpt>
      <trkpt lat="48.72387" lon="7.19172">
        <ele>252</ele>
        <time>2020-08-09T07:09:11Z</time>
      </trkpt>
      <trkpt lat="48.72387" lon="7.1916">
        <ele>252</ele>
        <time>2020-08-09T07:10:00Z</time>
      </trkpt>
      <trkpt lat="48.72388" lon="7.19149">
        <ele>252</ele>
        <time>2020-08-09T07:10:02Z</time>
      </trkpt>
      <trkpt lat="48.72389" lon="7.19137">
        <ele>252</ele>
        <time>2020-08-09T07:10:04Z</time>
      </trkpt>
      <trkpt lat="48.72391" lon="7.19126">
        <ele>252</ele>
        <time>2020-08-09T07:10:06Z</time>
      </trkpt>
      <trkpt lat="48.72392" lon="7.19115">
        <ele>252</ele>
        <time>2020-08-09T07:10:08Z</time>
      </trkpt>
      <trkpt lat="48.72393" lon="7.19104">
        <ele>252</ele>
        <time>2020-08-09T07:10:10Z</time>
      </trkpt>
      <trkpt lat="48.72395" lon="7.19093">
        <ele>252</ele>
        <time>2020-08-09T07:10:12Z</time>
      </trkpt>
      <trkpt lat="48.72396" lon="7.19084">
        <ele>252</ele>
        <time>2020-08-09T07:10:14Z</time>
      </trkpt>
      <trkpt lat="48.72398" lon="7.19076">
        <ele>252</ele>
        <time>2020-08-09T07:10:16Z</time>
      </trkpt>
      <trkpt lat="48.72399" lon="7.19069">
        <ele>252</ele>
        <time>2020-08-09T07:10:18Z</time>
      </trkpt>
      <trkpt lat="48.72401" lon="7.1906">
        <ele>252</ele>
        <time>2020-08-09T07:10:21Z</time>
      </trkpt>
      <trkpt lat="48.72403" lon="7.19053">
        <ele>252</ele>
        <time>2020-08-09T07:10:23Z</time>
      </trkpt>
      <trkpt lat="48.72406" lon="7.19047">
        <ele>252</ele>
        <time>2020-08-09T07:10:25Z</time>
      </trkpt>
      <trkpt lat="48.72407" lon="7.19038">
        <ele>253</ele>
        <time>2020-08-09T07:10:27Z</time>
      </trkpt>
      <trkpt lat="48.72408" lon="7.19029">
        <ele>253</ele>
        <time>2020-08-09T07:10:29Z</time>
      </trkpt>
      <trkpt lat="48.72409" lon="7.19021">
        <ele>253</ele>
        <time>2020-08-09T07:10:31Z</time>
      </trkpt>
      <trkpt lat="48.7241" lon="7.19014">
        <ele>253</ele>
        <time>2020-08-09T07:10:33Z</time>
      </trkpt>
      <trkpt lat="48.72412" lon="7.19005">
        <ele>254</ele>
        <time>2020-08-09T07:10:36Z</time>
      </trkpt>
      <trkpt lat="48.72413" lon="7.18998">
        <ele>254</ele>
        <time>2020-08-09T07:10:39Z</time>
      </trkpt>
      <trkpt lat="48.72416" lon="7.18991">
        <ele>254</ele>
        <time>2020-08-09T07:10:43Z</time>
      </trkpt>
      <trkpt lat="48.72422" lon="7.18947">
        <ele>255</ele>
        <time>2020-08-09T07:14:18Z</time>
      </trkpt>
      <trkpt lat="48.72424" lon="7.18938">
        <ele>255</ele>
        <time>2020-08-09T07:14:20Z</time>
      </trkpt>
      <trkpt lat="48.72426" lon="7.1893">
        <ele>254</ele>
        <time>2020-08-09T07:14:22Z</time>
      </trkpt>
      <trkpt lat="48.72427" lon="7.18918">
        <ele>254</ele>
        <time>2020-08-09T07:14:24Z</time>
      </trkpt>
      <trkpt lat="48.72429" lon="7.18908">
        <ele>255</ele>
        <time>2020-08-09T07:14:26Z</time>
      </trkpt>
      <trkpt lat="48.72431" lon="7.18896">
        <ele>255</ele>
        <time>2020-08-09T07:14:28Z</time>
      </trkpt>
      <trkpt lat="48.72433" lon="7.18885">
        <ele>254</ele>
        <time>2020-08-09T07:14:30Z</time>
      </trkpt>
      <trkpt lat="48.72435" lon="7.18874">
        <ele>255</ele>
        <time>2020-08-09T07:14:32Z</time>
      </trkpt>
      <trkpt lat="48.72437" lon="7.18863">
        <ele>255</ele>
        <time>2020-08-09T07:14:34Z</time>
      </trkpt>
      <trkpt lat="48.72439" lon="7.18852">
        <ele>255</ele>
        <time>2020-08-09T07:14:36Z</time>
      </trkpt>
      <trkpt lat="48.72441" lon="7.1884">
        <ele>255</ele>
        <time>2020-08-09T07:14:38Z</time>
      </trkpt>
      <trkpt lat="48.72443" lon="7.18828">
        <ele>255</ele>
        <time>2020-08-09T07:14:40Z</time>
      </trkpt>
      <trkpt lat="48.72445" lon="7.18816">
        <ele>255</ele>
        <time>2020-08-09T07:14:42Z</time>
      </trkpt>
      <trkpt lat="48.72448" lon="7.18803">
        <ele>255</ele>
        <time>2020-08-09T07:14:44Z</time>
      </trkpt>
      <trkpt lat="48.72451" lon="7.18791">
        <ele>255</ele>
        <time>2020-08-09T07:14:46Z</time>
      </trkpt>
      <trkpt lat="48.72453" lon="7.18785">
        <ele>255</ele>
        <time>2020-08-09T07:14:47Z</time>
      </trkpt>
      <trkpt lat="48.72456" lon="7.18773">
        <ele>255</ele>
        <time>2020-08-09T07:14:49Z</time>
      </trkpt>
      <trkpt lat="48.7246" lon="7.18762">
        <ele>255</ele>
        <time>2020-08-09T07:14:51Z</time>
      </trkpt>
      <trkpt lat="48.72465" lon="7.18751">
        <ele>255</ele>
        <time>2020-08-09T07:14:53Z</time>
      </trkpt>
      <trkpt lat="48.7247" lon="7.18741">
        <ele>255</ele>
        <time>2020-08-09T07:14:55Z</time>
      </trkpt>
      <trkpt lat="48.72475" lon="7.1873">
        <ele>255</ele>
        <time>2020-08-09T07:14:57Z</time>
      </trkpt>
      <trkpt lat="48.72479" lon="7.18726">
        <ele>255</ele>
        <time>2020-08-09T07:14:58Z</time>
      </trkpt>
      <trkpt lat="48.72484" lon="7.18718">
        <ele>255</ele>
        <time>2020-08-09T07:15:00Z</time>
      </trkpt>
      <trkpt lat="48.72488" lon="7.18711">
        <ele>255</ele>
        <time>2020-08-09T07:15:02Z</time>
      </trkpt>
      <trkpt lat="48.72493" lon="7.18706">
        <ele>256</ele>
        <time>2020-08-09T07:15:05Z</time>
      </trkpt>
      <trkpt lat="48.72497" lon="7.18701">
        <ele>256</ele>
        <time>2020-08-09T07:15:07Z</time>
      </trkpt>
      <trkpt lat="48.72501" lon="7.18696">
        <ele>257</ele>
        <time>2020-08-09T07:15:09Z</time>
      </trkpt>
      <trkpt lat="48.72504" lon="7.18688">
        <ele>257</ele>
        <time>2020-08-09T07:15:11Z</time>
      </trkpt>
      <trkpt lat="48.72509" lon="7.18683">
        <ele>257</ele>
        <time>2020-08-09T07:15:13Z</time>
      </trkpt>
      <trkpt lat="48.72514" lon="7.18674">
        <ele>257</ele>
        <time>2020-08-09T07:15:15Z</time>
      </trkpt>
      <trkpt lat="48.72518" lon="7.18666">
        <ele>257</ele>
        <time>2020-08-09T07:15:17Z</time>
      </trkpt>
      <trkpt lat="48.72523" lon="7.18658">
        <ele>258</ele>
        <time>2020-08-09T07:15:19Z</time>
      </trkpt>
      <trkpt lat="48.72525" lon="7.18649">
        <ele>258</ele>
        <time>2020-08-09T07:15:21Z</time>
      </trkpt>
      <trkpt lat="48.72527" lon="7.18642">
        <ele>258</ele>
        <time>2020-08-09T07:15:23Z</time>
      </trkpt>
      <trkpt lat="48.7253" lon="7.18635">
        <ele>258</ele>
        <time>2020-08-09T07:15:25Z</time>
      </trkpt>
      <trkpt lat="48.72532" lon="7.18627">
        <ele>258</ele>
        <time>2020-08-09T07:15:27Z</time>
      </trkpt>
      <trkpt lat="48.72533" lon="7.18618">
        <ele>258</ele>
        <time>2020-08-09T07:15:29Z</time>
      </trkpt>
      <trkpt lat="48.72536" lon="7.18609">
        <ele>258</ele>
        <time>2020-08-09T07:15:31Z</time>
      </trkpt>
      <trkpt lat="48.72536" lon="7.186">
        <ele>258</ele>
        <time>2020-08-09T07:15:33Z</time>
      </trkpt>
      <trkpt lat="48.72537" lon="7.18591">
        <ele>258</ele>
        <time>2020-08-09T07:15:35Z</time>
      </trkpt>
      <trkpt lat="48.72538" lon="7.18583">
        <ele>259</ele>
        <time>2020-08-09T07:15:37Z</time>
      </trkpt>
      <trkpt lat="48.72539" lon="7.18573">
        <ele>260</ele>
        <time>2020-08-09T07:15:40Z</time>
      </trkpt>
      <trkpt lat="48.72538" lon="7.18566">
        <ele>260</ele>
        <time>2020-08-09T07:15:42Z</time>
      </trkpt>
      <trkpt lat="48.72538" lon="7.18559">
        <ele>260</ele>
        <time>2020-08-09T07:15:44Z</time>
      </trkpt>
      <trkpt lat="48.72538" lon="7.18549">
        <ele>260</ele>
        <time>2020-08-09T07:15:47Z</time>
      </trkpt>
      <trkpt lat="48.72537" lon="7.18541">
        <ele>260</ele>
        <time>2020-08-09T07:15:49Z</time>
      </trkpt>
      <trkpt lat="48.72535" lon="7.18534">
        <ele>260</ele>
        <time>2020-08-09T07:15:51Z</time>
      </trkpt>
      <trkpt lat="48.72531" lon="7.18527">
        <ele>260</ele>
        <time>2020-08-09T07:15:53Z</time>
      </trkpt>
      <trkpt lat="48.72527" lon="7.18519">
        <ele>260</ele>
        <time>2020-08-09T07:15:55Z</time>
      </trkpt>
      <trkpt lat="48.72524" lon="7.18511">
        <ele>260</ele>
        <time>2020-08-09T07:15:57Z</time>
      </trkpt>
      <trkpt lat="48.72521" lon="7.18503">
        <ele>260</ele>
        <time>2020-08-09T07:15:59Z</time>
      </trkpt>
      <trkpt lat="48.72518" lon="7.18494">
        <ele>261</ele>
        <time>2020-08-09T07:16:01Z</time>
      </trkpt>
      <trkpt lat="48.72516" lon="7.18485">
        <ele>261</ele>
        <time>2020-08-09T07:16:03Z</time>
      </trkpt>
      <trkpt lat="48.72514" lon="7.18477">
        <ele>261</ele>
        <time>2020-08-09T07:16:05Z</time>
      </trkpt>
      <trkpt lat="48.72511" lon="7.18469">
        <ele>261</ele>
        <time>2020-08-09T07:16:07Z</time>
      </trkpt>
      <trkpt lat="48.7251" lon="7.18461">
        <ele>261</ele>
        <time>2020-08-09T07:16:09Z</time>
      </trkpt>
      <trkpt lat="48.72508" lon="7.18454">
        <ele>261</ele>
        <time>2020-08-09T07:16:11Z</time>
      </trkpt>
      <trkpt lat="48.72506" lon="7.18445">
        <ele>261</ele>
        <time>2020-08-09T07:16:13Z</time>
      </trkpt>
      <trkpt lat="48.72506" lon="7.18437">
        <ele>262</ele>
        <time>2020-08-09T07:16:15Z</time>
      </trkpt>
      <trkpt lat="48.72507" lon="7.18429">
        <ele>262</ele>
        <time>2020-08-09T07:16:17Z</time>
      </trkpt>
      <trkpt lat="48.72508" lon="7.18421">
        <ele>263</ele>
        <time>2020-08-09T07:16:19Z</time>
      </trkpt>
      <trkpt lat="48.72509" lon="7.18414">
        <ele>263</ele>
        <time>2020-08-09T07:16:21Z</time>
      </trkpt>
      <trkpt lat="48.7251" lon="7.18406">
        <ele>262</ele>
        <time>2020-08-09T07:16:23Z</time>
      </trkpt>
      <trkpt lat="48.72509" lon="7.18399">
        <ele>262</ele>
        <time>2020-08-09T07:16:25Z</time>
      </trkpt>
      <trkpt lat="48.72508" lon="7.18391">
        <ele>262</ele>
        <time>2020-08-09T07:16:27Z</time>
      </trkpt>
      <trkpt lat="48.72505" lon="7.18383">
        <ele>263</ele>
        <time>2020-08-09T07:16:29Z</time>
      </trkpt>
      <trkpt lat="48.72503" lon="7.18375">
        <ele>263</ele>
        <time>2020-08-09T07:16:31Z</time>
      </trkpt>
      <trkpt lat="48.72501" lon="7.18367">
        <ele>263</ele>
        <time>2020-08-09T07:16:33Z</time>
      </trkpt>
      <trkpt lat="48.72499" lon="7.18359">
        <ele>263</ele>
        <time>2020-08-09T07:16:35Z</time>
      </trkpt>
      <trkpt lat="48.72498" lon="7.18352">
        <ele>263</ele>
        <time>2020-08-09T07:16:37Z</time>
      </trkpt>
      <trkpt lat="48.72496" lon="7.18345">
        <ele>263</ele>
        <time>2020-08-09T07:16:39Z</time>
      </trkpt>
      <trkpt lat="48.72493" lon="7.18338">
        <ele>263</ele>
        <time>2020-08-09T07:16:41Z</time>
      </trkpt>
      <trkpt lat="48.7249" lon="7.18329">
        <ele>263</ele>
        <time>2020-08-09T07:16:43Z</time>
      </trkpt>
      <trkpt lat="48.72488" lon="7.1832">
        <ele>263</ele>
        <time>2020-08-09T07:16:45Z</time>
      </trkpt>
      <trkpt lat="48.72487" lon="7.18311">
        <ele>263</ele>
        <time>2020-08-09T07:16:47Z</time>
      </trkpt>
      <trkpt lat="48.72485" lon="7.18301">
        <ele>262</ele>
        <time>2020-08-09T07:16:49Z</time>
      </trkpt>
      <trkpt lat="48.72483" lon="7.18294">
        <ele>262</ele>
        <time>2020-08-09T07:16:51Z</time>
      </trkpt>
      <trkpt lat="48.72482" lon="7.18286">
        <ele>263</ele>
        <time>2020-08-09T07:16:53Z</time>
      </trkpt>
      <trkpt lat="48.7248" lon="7.18278">
        <ele>262</ele>
        <time>2020-08-09T07:16:55Z</time>
      </trkpt>
      <trkpt lat="48.72477" lon="7.1827">
        <ele>262</ele>
        <time>2020-08-09T07:16:57Z</time>
      </trkpt>
      <trkpt lat="48.72474" lon="7.18263">
        <ele>262</ele>
        <time>2020-08-09T07:16:59Z</time>
      </trkpt>
      <trkpt lat="48.72473" lon="7.18255">
        <ele>262</ele>
        <time>2020-08-09T07:17:01Z</time>
      </trkpt>
      <trkpt lat="48.72471" lon="7.18248">
        <ele>262</ele>
        <time>2020-08-09T07:17:03Z</time>
      </trkpt>
      <trkpt lat="48.72469" lon="7.18242">
        <ele>262</ele>
        <time>2020-08-09T07:17:05Z</time>
      </trkpt>
      <trkpt lat="48.72464" lon="7.18228">
        <ele>263</ele>
        <time>2020-08-09T07:17:10Z</time>
      </trkpt>
      <trkpt lat="48.72462" lon="7.1822">
        <ele>263</ele>
        <time>2020-08-09T07:17:16Z</time>
      </trkpt>
      <trkpt lat="48.72461" lon="7.18213">
        <ele>263</ele>
        <time>2020-08-09T07:17:18Z</time>
      </trkpt>
      <trkpt lat="48.72458" lon="7.18206">
        <ele>263</ele>
        <time>2020-08-09T07:17:20Z</time>
      </trkpt>
      <trkpt lat="48.72456" lon="7.18196">
        <ele>263</ele>
        <time>2020-08-09T07:17:22Z</time>
      </trkpt>
      <trkpt lat="48.72455" lon="7.18187">
        <ele>263</ele>
        <time>2020-08-09T07:17:24Z</time>
      </trkpt>
      <trkpt lat="48.72453" lon="7.18177">
        <ele>263</ele>
        <time>2020-08-09T07:17:26Z</time>
      </trkpt>
      <trkpt lat="48.7245" lon="7.18167">
        <ele>263</ele>
        <time>2020-08-09T07:17:28Z</time>
      </trkpt>
      <trkpt lat="48.72448" lon="7.18157">
        <ele>263</ele>
        <time>2020-08-09T07:17:30Z</time>
      </trkpt>
      <trkpt lat="48.72446" lon="7.18148">
        <ele>263</ele>
        <time>2020-08-09T07:17:32Z</time>
      </trkpt>
      <trkpt lat="48.72444" lon="7.1814">
        <ele>263</ele>
        <time>2020-08-09T07:17:34Z</time>
      </trkpt>
      <trkpt lat="48.72442" lon="7.18132">
        <ele>263</ele>
        <time>2020-08-09T07:17:36Z</time>
      </trkpt>
      <trkpt lat="48.7244" lon="7.18125">
        <ele>263</ele>
        <time>2020-08-09T07:17:38Z</time>
      </trkpt>
      <trkpt lat="48.72438" lon="7.18118">
        <ele>263</ele>
        <time>2020-08-09T07:17:40Z</time>
      </trkpt>
      <trkpt lat="48.72438" lon="7.18111">
        <ele>263</ele>
        <time>2020-08-09T07:17:42Z</time>
      </trkpt>
      <trkpt lat="48.72442" lon="7.18122">
        <ele>263</ele>
        <time>2020-08-09T07:18:37Z</time>
      </trkpt>
      <trkpt lat="48.72446" lon="7.18129">
        <ele>263</ele>
        <time>2020-08-09T07:18:39Z</time>
      </trkpt>
      <trkpt lat="48.72447" lon="7.18137">
        <ele>263</ele>
        <time>2020-08-09T07:18:41Z</time>
      </trkpt>
      <trkpt lat="48.72449" lon="7.18146">
        <ele>263</ele>
        <time>2020-08-09T07:18:43Z</time>
      </trkpt>
      <trkpt lat="48.72451" lon="7.18157">
        <ele>263</ele>
        <time>2020-08-09T07:18:45Z</time>
      </trkpt>
      <trkpt lat="48.72452" lon="7.18166">
        <ele>263</ele>
        <time>2020-08-09T07:18:47Z</time>
      </trkpt>
      <trkpt lat="48.72455" lon="7.18174">
        <ele>263</ele>
        <time>2020-08-09T07:18:49Z</time>
      </trkpt>
      <trkpt lat="48.72458" lon="7.18183">
        <ele>263</ele>
        <time>2020-08-09T07:18:51Z</time>
      </trkpt>
      <trkpt lat="48.7246" lon="7.18192">
        <ele>263</ele>
        <time>2020-08-09T07:18:53Z</time>
      </trkpt>
      <trkpt lat="48.72461" lon="7.18199">
        <ele>262</ele>
        <time>2020-08-09T07:18:55Z</time>
      </trkpt>
      <trkpt lat="48.72456" lon="7.18205">
        <ele>263</ele>
        <time>2020-08-09T07:18:57Z</time>
      </trkpt>
      <trkpt lat="48.72451" lon="7.18205">
        <ele>263</ele>
        <time>2020-08-09T07:18:59Z</time>
      </trkpt>
      <trkpt lat="48.72446" lon="7.18203">
        <ele>264</ele>
        <time>2020-08-09T07:19:01Z</time>
      </trkpt>
      <trkpt lat="48.72441" lon="7.182">
        <ele>263</ele>
        <time>2020-08-09T07:19:03Z</time>
      </trkpt>
      <trkpt lat="48.72435" lon="7.1819">
        <ele>263</ele>
        <time>2020-08-09T07:19:07Z</time>
      </trkpt>
      <trkpt lat="48.72435" lon="7.18182">
        <ele>263</ele>
        <time>2020-08-09T07:19:09Z</time>
      </trkpt>
      <trkpt lat="48.72434" lon="7.18174">
        <ele>263</ele>
        <time>2020-08-09T07:19:11Z</time>
      </trkpt>
      <trkpt lat="48.72433" lon="7.18167">
        <ele>263</ele>
        <time>2020-08-09T07:19:13Z</time>
      </trkpt>
      <trkpt lat="48.72432" lon="7.18159">
        <ele>263</ele>
        <time>2020-08-09T07:19:15Z</time>
      </trkpt>
      <trkpt lat="48.72431" lon="7.18151">
        <ele>263</ele>
        <time>2020-08-09T07:19:17Z</time>
      </trkpt>
      <trkpt lat="48.72431" lon="7.18144">
        <ele>263</ele>
        <time>2020-08-09T07:19:19Z</time>
      </trkpt>
      <trkpt lat="48.7243" lon="7.18135">
        <ele>263</ele>
        <time>2020-08-09T07:19:21Z</time>
      </trkpt>
      <trkpt lat="48.72429" lon="7.18127">
        <ele>263</ele>
        <time>2020-08-09T07:19:23Z</time>
      </trkpt>
      <trkpt lat="48.72429" lon="7.1812">
        <ele>264</ele>
        <time>2020-08-09T07:19:25Z</time>
      </trkpt>
      <trkpt lat="48.72429" lon="7.18112">
        <ele>264</ele>
        <time>2020-08-09T07:19:27Z</time>
      </trkpt>
      <trkpt lat="48.72428" lon="7.18105">
        <ele>264</ele>
        <time>2020-08-09T07:19:29Z</time>
      </trkpt>
      <trkpt lat="48.72427" lon="7.18098">
        <ele>265</ele>
        <time>2020-08-09T07:19:31Z</time>
      </trkpt>
      <trkpt lat="48.72424" lon="7.1809">
        <ele>265</ele>
        <time>2020-08-09T07:19:33Z</time>
      </trkpt>
      <trkpt lat="48.72422" lon="7.18083">
        <ele>265</ele>
        <time>2020-08-09T07:19:35Z</time>
      </trkpt>
      <trkpt lat="48.72421" lon="7.18077">
        <ele>266</ele>
        <time>2020-08-09T07:19:37Z</time>
      </trkpt>
      <trkpt lat="48.72418" lon="7.18071">
        <ele>267</ele>
        <time>2020-08-09T07:19:39Z</time>
      </trkpt>
      <trkpt lat="48.72416" lon="7.18064">
        <ele>267</ele>
        <time>2020-08-09T07:19:41Z</time>
      </trkpt>
      <trkpt lat="48.72413" lon="7.18059">
        <ele>268</ele>
        <time>2020-08-09T07:19:43Z</time>
      </trkpt>
      <trkpt lat="48.7241" lon="7.18053">
        <ele>268</ele>
        <time>2020-08-09T07:19:45Z</time>
      </trkpt>
      <trkpt lat="48.72407" lon="7.18045">
        <ele>269</ele>
        <time>2020-08-09T07:19:48Z</time>
      </trkpt>
      <trkpt lat="48.72403" lon="7.18037">
        <ele>270</ele>
        <time>2020-08-09T07:19:51Z</time>
      </trkpt>
      <trkpt lat="48.724" lon="7.18032">
        <ele>271</ele>
        <time>2020-08-09T07:19:53Z</time>
      </trkpt>
      <trkpt lat="48.72396" lon="7.18026">
        <ele>271</ele>
        <time>2020-08-09T07:19:55Z</time>
      </trkpt>
      <trkpt lat="48.72392" lon="7.18019">
        <ele>271</ele>
        <time>2020-08-09T07:19:58Z</time>
      </trkpt>
      <trkpt lat="48.72388" lon="7.18013">
        <ele>271</ele>
        <time>2020-08-09T07:20:00Z</time>
      </trkpt>
      <trkpt lat="48.72385" lon="7.18007">
        <ele>271</ele>
        <time>2020-08-09T07:20:02Z</time>
      </trkpt>
      <trkpt lat="48.72382" lon="7.18002">
        <ele>271</ele>
        <time>2020-08-09T07:20:04Z</time>
      </trkpt>
      <trkpt lat="48.72379" lon="7.17996">
        <ele>271</ele>
        <time>2020-08-09T07:20:06Z</time>
      </trkpt>
      <trkpt lat="48.72376" lon="7.1799">
        <ele>271</ele>
        <time>2020-08-09T07:20:08Z</time>
      </trkpt>
      <trkpt lat="48.72373" lon="7.17984">
        <ele>271</ele>
        <time>2020-08-09T07:20:10Z</time>
      </trkpt>
      <trkpt lat="48.72369" lon="7.17978">
        <ele>271</ele>
        <time>2020-08-09T07:20:12Z</time>
      </trkpt>
      <trkpt lat="48.72366" lon="7.17972">
        <ele>271</ele>
        <time>2020-08-09T07:20:14Z</time>
      </trkpt>
      <trkpt lat="48.72362" lon="7.17965">
        <ele>271</ele>
        <time>2020-08-09T07:20:16Z</time>
      </trkpt>
      <trkpt lat="48.72359" lon="7.17959">
        <ele>272</ele>
        <time>2020-08-09T07:20:18Z</time>
      </trkpt>
      <trkpt lat="48.72356" lon="7.17953">
        <ele>272</ele>
        <time>2020-08-09T07:20:20Z</time>
      </trkpt>
      <trkpt lat="48.72353" lon="7.17946">
        <ele>272</ele>
        <time>2020-08-09T07:20:22Z</time>
      </trkpt>
      <trkpt lat="48.72348" lon="7.17938">
        <ele>272</ele>
        <time>2020-08-09T07:20:24Z</time>
      </trkpt>
      <trkpt lat="48.72344" lon="7.1793">
        <ele>272</ele>
        <time>2020-08-09T07:20:26Z</time>
      </trkpt>
      <trkpt lat="48.7234" lon="7.1792">
        <ele>272</ele>
        <time>2020-08-09T07:20:28Z</time>
      </trkpt>
      <trkpt lat="48.72336" lon="7.17911">
        <ele>272</ele>
        <time>2020-08-09T07:20:30Z</time>
      </trkpt>
      <trkpt lat="48.72332" lon="7.179">
        <ele>272</ele>
        <time>2020-08-09T07:20:32Z</time>
      </trkpt>
      <trkpt lat="48.72329" lon="7.17889">
        <ele>271</ele>
        <time>2020-08-09T07:20:34Z</time>
      </trkpt>
      <trkpt lat="48.72326" lon="7.17877">
        <ele>271</ele>
        <time>2020-08-09T07:20:36Z</time>
      </trkpt>
      <trkpt lat="48.72324" lon="7.17865">
        <ele>271</ele>
        <time>2020-08-09T07:20:38Z</time>
      </trkpt>
      <trkpt lat="48.72322" lon="7.17852">
        <ele>271</ele>
        <time>2020-08-09T07:20:40Z</time>
      </trkpt>
      <trkpt lat="48.72321" lon="7.17845">
        <ele>271</ele>
        <time>2020-08-09T07:20:41Z</time>
      </trkpt>
      <trkpt lat="48.7232" lon="7.17832">
        <ele>271</ele>
        <time>2020-08-09T07:20:43Z</time>
      </trkpt>
      <trkpt lat="48.72319" lon="7.17825">
        <ele>272</ele>
        <time>2020-08-09T07:20:44Z</time>
      </trkpt>
      <trkpt lat="48.72319" lon="7.17818">
        <ele>272</ele>
        <time>2020-08-09T07:20:45Z</time>
      </trkpt>
      <trkpt lat="48.7232" lon="7.1781">
        <ele>271</ele>
        <time>2020-08-09T07:20:46Z</time>
      </trkpt>
      <trkpt lat="48.72319" lon="7.17803">
        <ele>272</ele>
        <time>2020-08-09T07:20:47Z</time>
      </trkpt>
      <trkpt lat="48.72319" lon="7.17797">
        <ele>272</ele>
        <time>2020-08-09T07:20:48Z</time>
      </trkpt>
      <trkpt lat="48.72319" lon="7.17784">
        <ele>271</ele>
        <time>2020-08-09T07:20:50Z</time>
      </trkpt>
      <trkpt lat="48.72318" lon="7.17771">
        <ele>271</ele>
        <time>2020-08-09T07:20:52Z</time>
      </trkpt>
      <trkpt lat="48.72316" lon="7.17759">
        <ele>271</ele>
        <time>2020-08-09T07:20:54Z</time>
      </trkpt>
      <trkpt lat="48.72316" lon="7.17749">
        <ele>272</ele>
        <time>2020-08-09T07:20:56Z</time>
      </trkpt>
      <trkpt lat="48.72315" lon="7.17739">
        <ele>273</ele>
        <time>2020-08-09T07:20:58Z</time>
      </trkpt>
      <trkpt lat="48.72315" lon="7.1773">
        <ele>273</ele>
        <time>2020-08-09T07:21:00Z</time>
      </trkpt>
      <trkpt lat="48.72315" lon="7.17721">
        <ele>274</ele>
        <time>2020-08-09T07:21:02Z</time>
      </trkpt>
      <trkpt lat="48.72315" lon="7.17713">
        <ele>275</ele>
        <time>2020-08-09T07:21:04Z</time>
      </trkpt>
      <trkpt lat="48.72317" lon="7.17705">
        <ele>273</ele>
        <time>2020-08-09T07:21:06Z</time>
      </trkpt>
      <trkpt lat="48.72318" lon="7.17696">
        <ele>272</ele>
        <time>2020-08-09T07:21:08Z</time>
      </trkpt>
      <trkpt lat="48.72321" lon="7.17691">
        <ele>271</ele>
        <time>2020-08-09T07:21:11Z</time>
      </trkpt>
      <trkpt lat="48.72326" lon="7.17692">
        <ele>269</ele>
        <time>2020-08-09T07:21:15Z</time>
      </trkpt>
      <trkpt lat="48.72326" lon="7.17685">
        <ele>270</ele>
        <time>2020-08-09T07:21:34Z</time>
      </trkpt>
      <trkpt lat="48.72327" lon="7.17677">
        <ele>270</ele>
        <time>2020-08-09T07:21:38Z</time>
      </trkpt>
      <trkpt lat="48.72327" lon="7.17669">
        <ele>270</ele>
        <time>2020-08-09T07:21:41Z</time>
      </trkpt>
      <trkpt lat="48.72327" lon="7.17662">
        <ele>270</ele>
        <time>2020-08-09T07:21:43Z</time>
      </trkpt>
      <trkpt lat="48.72327" lon="7.17654">
        <ele>270</ele>
        <time>2020-08-09T07:21:45Z</time>
      </trkpt>
      <trkpt lat="48.72327" lon="7.17645">
        <ele>270</ele>
        <time>2020-08-09T07:21:47Z</time>
      </trkpt>
      <trkpt lat="48.72328" lon="7.17636">
        <ele>270</ele>
        <time>2020-08-09T07:21:49Z</time>
      </trkpt>
      <trkpt lat="48.72327" lon="7.17626">
        <ele>271</ele>
        <time>2020-08-09T07:21:51Z</time>
      </trkpt>
      <trkpt lat="48.72326" lon="7.17617">
        <ele>271</ele>
        <time>2020-08-09T07:21:53Z</time>
      </trkpt>
      <trkpt lat="48.72325" lon="7.17609">
        <ele>272</ele>
        <time>2020-08-09T07:21:55Z</time>
      </trkpt>
      <trkpt lat="48.72325" lon="7.176">
        <ele>273</ele>
        <time>2020-08-09T07:21:57Z</time>
      </trkpt>
      <trkpt lat="48.72324" lon="7.17593">
        <ele>273</ele>
        <time>2020-08-09T07:21:59Z</time>
      </trkpt>
      <trkpt lat="48.72324" lon="7.17586">
        <ele>274</ele>
        <time>2020-08-09T07:22:01Z</time>
      </trkpt>
      <trkpt lat="48.72324" lon="7.17576">
        <ele>277</ele>
        <time>2020-08-09T07:22:04Z</time>
      </trkpt>
      <trkpt lat="48.72323" lon="7.17567">
        <ele>281</ele>
        <time>2020-08-09T07:22:07Z</time>
      </trkpt>
      <trkpt lat="48.72322" lon="7.17557">
        <ele>284</ele>
        <time>2020-08-09T07:22:11Z</time>
      </trkpt>
      <trkpt lat="48.72322" lon="7.1755">
        <ele>285</ele>
        <time>2020-08-09T07:22:14Z</time>
      </trkpt>
      <trkpt lat="48.72321" lon="7.17543">
        <ele>286</ele>
        <time>2020-08-09T07:22:16Z</time>
      </trkpt>
      <trkpt lat="48.72319" lon="7.17533">
        <ele>288</ele>
        <time>2020-08-09T07:22:20Z</time>
      </trkpt>
      <trkpt lat="48.72319" lon="7.17524">
        <ele>289</ele>
        <time>2020-08-09T07:22:23Z</time>
      </trkpt>
      <trkpt lat="48.72317" lon="7.17516">
        <ele>290</ele>
        <time>2020-08-09T07:22:26Z</time>
      </trkpt>
      <trkpt lat="48.72316" lon="7.17507">
        <ele>291</ele>
        <time>2020-08-09T07:22:30Z</time>
      </trkpt>
      <trkpt lat="48.72317" lon="7.17499">
        <ele>291</ele>
        <time>2020-08-09T07:22:33Z</time>
      </trkpt>
      <trkpt lat="48.72318" lon="7.17492">
        <ele>290</ele>
        <time>2020-08-09T07:22:35Z</time>
      </trkpt>
      <trkpt lat="48.72319" lon="7.17484">
        <ele>290</ele>
        <time>2020-08-09T07:22:38Z</time>
      </trkpt>
      <trkpt lat="48.72318" lon="7.17476">
        <ele>290</ele>
        <time>2020-08-09T07:22:41Z</time>
      </trkpt>
      <trkpt lat="48.72316" lon="7.17467">
        <ele>290</ele>
        <time>2020-08-09T07:22:45Z</time>
      </trkpt>
      <trkpt lat="48.72313" lon="7.17458">
        <ele>289</ele>
        <time>2020-08-09T07:22:48Z</time>
      </trkpt>
      <trkpt lat="48.72311" lon="7.1745">
        <ele>288</ele>
        <time>2020-08-09T07:22:51Z</time>
      </trkpt>
      <trkpt lat="48.72311" lon="7.17441">
        <ele>287</ele>
        <time>2020-08-09T07:22:54Z</time>
      </trkpt>
      <trkpt lat="48.7231" lon="7.17433">
        <ele>286</ele>
        <time>2020-08-09T07:22:57Z</time>
      </trkpt>
      <trkpt lat="48.72309" lon="7.17424">
        <ele>286</ele>
        <time>2020-08-09T07:23:00Z</time>
      </trkpt>
      <trkpt lat="48.72309" lon="7.17417">
        <ele>286</ele>
        <time>2020-08-09T07:23:02Z</time>
      </trkpt>
      <trkpt lat="48.72308" lon="7.17409">
        <ele>286</ele>
        <time>2020-08-09T07:23:05Z</time>
      </trkpt>
      <trkpt lat="48.72308" lon="7.17402">
        <ele>287</ele>
        <time>2020-08-09T07:23:08Z</time>
      </trkpt>
      <trkpt lat="48.72307" lon="7.17393">
        <ele>287</ele>
        <time>2020-08-09T07:23:11Z</time>
      </trkpt>
      <trkpt lat="48.72306" lon="7.17386">
        <ele>286</ele>
        <time>2020-08-09T07:23:14Z</time>
      </trkpt>
      <trkpt lat="48.72305" lon="7.17377">
        <ele>285</ele>
        <time>2020-08-09T07:23:17Z</time>
      </trkpt>
      <trkpt lat="48.72304" lon="7.1737">
        <ele>285</ele>
        <time>2020-08-09T07:23:19Z</time>
      </trkpt>
      <trkpt lat="48.72303" lon="7.17362">
        <ele>285</ele>
        <time>2020-08-09T07:23:21Z</time>
      </trkpt>
      <trkpt lat="48.72303" lon="7.17355">
        <ele>284</ele>
        <time>2020-08-09T07:23:23Z</time>
      </trkpt>
      <trkpt lat="48.72303" lon="7.17347">
        <ele>284</ele>
        <time>2020-08-09T07:23:25Z</time>
      </trkpt>
      <trkpt lat="48.72303" lon="7.17339">
        <ele>285</ele>
        <time>2020-08-09T07:23:27Z</time>
      </trkpt>
      <trkpt lat="48.72303" lon="7.17331">
        <ele>285</ele>
        <time>2020-08-09T07:23:29Z</time>
      </trkpt>
      <trkpt lat="48.72303" lon="7.17322">
        <ele>286</ele>
        <time>2020-08-09T07:23:31Z</time>
      </trkpt>
      <trkpt lat="48.72302" lon="7.17314">
        <ele>286</ele>
        <time>2020-08-09T07:23:33Z</time>
      </trkpt>
      <trkpt lat="48.72301" lon="7.17304">
        <ele>287</ele>
        <time>2020-08-09T07:23:35Z</time>
      </trkpt>
      <trkpt lat="48.723" lon="7.17294">
        <ele>287</ele>
        <time>2020-08-09T07:23:37Z</time>
      </trkpt>
      <trkpt lat="48.723" lon="7.17285">
        <ele>288</ele>
        <time>2020-08-09T07:23:39Z</time>
      </trkpt>
      <trkpt lat="48.72298" lon="7.17275">
        <ele>287</ele>
        <time>2020-08-09T07:23:41Z</time>
      </trkpt>
      <trkpt lat="48.72297" lon="7.17266">
        <ele>286</ele>
        <time>2020-08-09T07:23:43Z</time>
      </trkpt>
      <trkpt lat="48.72296" lon="7.17257">
        <ele>286</ele>
        <time>2020-08-09T07:23:45Z</time>
      </trkpt>
      <trkpt lat="48.72294" lon="7.17248">
        <ele>285</ele>
        <time>2020-08-09T07:23:47Z</time>
      </trkpt>
      <trkpt lat="48.72293" lon="7.17237">
        <ele>285</ele>
        <time>2020-08-09T07:23:49Z</time>
      </trkpt>
      <trkpt lat="48.7229" lon="7.17227">
        <ele>284</ele>
        <time>2020-08-09T07:23:51Z</time>
      </trkpt>
      <trkpt lat="48.72288" lon="7.17217">
        <ele>284</ele>
        <time>2020-08-09T07:23:53Z</time>
      </trkpt>
      <trkpt lat="48.72286" lon="7.17208">
        <ele>284</ele>
        <time>2020-08-09T07:23:55Z</time>
      </trkpt>
      <trkpt lat="48.72284" lon="7.17198">
        <ele>283</ele>
        <time>2020-08-09T07:23:57Z</time>
      </trkpt>
      <trkpt lat="48.72283" lon="7.17188">
        <ele>283</ele>
        <time>2020-08-09T07:23:59Z</time>
      </trkpt>
      <trkpt lat="48.7228" lon="7.17177">
        <ele>283</ele>
        <time>2020-08-09T07:24:01Z</time>
      </trkpt>
      <trkpt lat="48.72277" lon="7.17165">
        <ele>283</ele>
        <time>2020-08-09T07:24:03Z</time>
      </trkpt>
      <trkpt lat="48.72274" lon="7.17153">
        <ele>283</ele>
        <time>2020-08-09T07:24:05Z</time>
      </trkpt>
      <trkpt lat="48.72271" lon="7.17141">
        <ele>283</ele>
        <time>2020-08-09T07:24:07Z</time>
      </trkpt>
      <trkpt lat="48.72268" lon="7.17129">
        <ele>283</ele>
        <time>2020-08-09T07:24:09Z</time>
      </trkpt>
      <trkpt lat="48.72265" lon="7.17116">
        <ele>283</ele>
        <time>2020-08-09T07:24:11Z</time>
      </trkpt>
      <trkpt lat="48.72263" lon="7.17109">
        <ele>283</ele>
        <time>2020-08-09T07:24:12Z</time>
      </trkpt>
      <trkpt lat="48.72262" lon="7.17101">
        <ele>283</ele>
        <time>2020-08-09T07:24:13Z</time>
      </trkpt>
      <trkpt lat="48.7226" lon="7.17094">
        <ele>283</ele>
        <time>2020-08-09T07:24:14Z</time>
      </trkpt>
      <trkpt lat="48.72258" lon="7.17087">
        <ele>283</ele>
        <time>2020-08-09T07:24:15Z</time>
      </trkpt>
      <trkpt lat="48.72257" lon="7.1708">
        <ele>283</ele>
        <time>2020-08-09T07:24:16Z</time>
      </trkpt>
      <trkpt lat="48.72255" lon="7.17073">
        <ele>283</ele>
        <time>2020-08-09T07:24:17Z</time>
      </trkpt>
      <trkpt lat="48.72253" lon="7.17066">
        <ele>284</ele>
        <time>2020-08-09T07:24:18Z</time>
      </trkpt>
      <trkpt lat="48.72252" lon="7.1706">
        <ele>284</ele>
        <time>2020-08-09T07:24:19Z</time>
      </trkpt>
      <trkpt lat="48.72249" lon="7.17047">
        <ele>284</ele>
        <time>2020-08-09T07:24:21Z</time>
      </trkpt>
      <trkpt lat="48.72246" lon="7.17034">
        <ele>284</ele>
        <time>2020-08-09T07:24:23Z</time>
      </trkpt>
      <trkpt lat="48.72242" lon="7.17021">
        <ele>284</ele>
        <time>2020-08-09T07:24:25Z</time>
      </trkpt>
      <trkpt lat="48.7224" lon="7.17009">
        <ele>285</ele>
        <time>2020-08-09T07:24:27Z</time>
      </trkpt>
      <trkpt lat="48.72237" lon="7.16996">
        <ele>285</ele>
        <time>2020-08-09T07:24:29Z</time>
      </trkpt>
      <trkpt lat="48.72234" lon="7.16984">
        <ele>285</ele>
        <time>2020-08-09T07:24:31Z</time>
      </trkpt>
      <trkpt lat="48.72231" lon="7.16972">
        <ele>285</ele>
        <time>2020-08-09T07:24:33Z</time>
      </trkpt>
      <trkpt lat="48.72229" lon="7.1696">
        <ele>285</ele>
        <time>2020-08-09T07:24:35Z</time>
      </trkpt>
      <trkpt lat="48.72227" lon="7.16948">
        <ele>285</ele>
        <time>2020-08-09T07:24:37Z</time>
      </trkpt>
      <trkpt lat="48.72225" lon="7.16936">
        <ele>285</ele>
        <time>2020-08-09T07:24:39Z</time>
      </trkpt>
      <trkpt lat="48.72222" lon="7.16924">
        <ele>285</ele>
        <time>2020-08-09T07:24:41Z</time>
      </trkpt>
      <trkpt lat="48.7222" lon="7.16912">
        <ele>285</ele>
        <time>2020-08-09T07:24:43Z</time>
      </trkpt>
      <trkpt lat="48.72217" lon="7.16899">
        <ele>286</ele>
        <time>2020-08-09T07:24:45Z</time>
      </trkpt>
      <trkpt lat="48.72216" lon="7.16892">
        <ele>285</ele>
        <time>2020-08-09T07:24:46Z</time>
      </trkpt>
      <trkpt lat="48.72214" lon="7.16879">
        <ele>286</ele>
        <time>2020-08-09T07:24:48Z</time>
      </trkpt>
      <trkpt lat="48.72213" lon="7.16872">
        <ele>286</ele>
        <time>2020-08-09T07:24:49Z</time>
      </trkpt>
      <trkpt lat="48.72211" lon="7.1686">
        <ele>285</ele>
        <time>2020-08-09T07:24:51Z</time>
      </trkpt>
      <trkpt lat="48.72209" lon="7.16847">
        <ele>285</ele>
        <time>2020-08-09T07:24:53Z</time>
      </trkpt>
      <trkpt lat="48.72207" lon="7.16841">
        <ele>285</ele>
        <time>2020-08-09T07:24:54Z</time>
      </trkpt>
      <trkpt lat="48.72203" lon="7.16828">
        <ele>285</ele>
        <time>2020-08-09T07:24:56Z</time>
      </trkpt>
      <trkpt lat="48.72202" lon="7.16821">
        <ele>285</ele>
        <time>2020-08-09T07:24:57Z</time>
      </trkpt>
      <trkpt lat="48.722" lon="7.16815">
        <ele>285</ele>
        <time>2020-08-09T07:24:58Z</time>
      </trkpt>
      <trkpt lat="48.72195" lon="7.16803">
        <ele>285</ele>
        <time>2020-08-09T07:25:00Z</time>
      </trkpt>
      <trkpt lat="48.72192" lon="7.16798">
        <ele>285</ele>
        <time>2020-08-09T07:25:01Z</time>
      </trkpt>
      <trkpt lat="48.72187" lon="7.16794">
        <ele>285</ele>
        <time>2020-08-09T07:25:02Z</time>
      </trkpt>
      <trkpt lat="48.72183" lon="7.16791">
        <ele>285</ele>
        <time>2020-08-09T07:25:03Z</time>
      </trkpt>
      <trkpt lat="48.72178" lon="7.16788">
        <ele>285</ele>
        <time>2020-08-09T07:25:04Z</time>
      </trkpt>
      <trkpt lat="48.72173" lon="7.16785">
        <ele>285</ele>
        <time>2020-08-09T07:25:05Z</time>
      </trkpt>
      <trkpt lat="48.72168" lon="7.16782">
        <ele>285</ele>
        <time>2020-08-09T07:25:06Z</time>
      </trkpt>
      <trkpt lat="48.72163" lon="7.16779">
        <ele>285</ele>
        <time>2020-08-09T07:25:07Z</time>
      </trkpt>
      <trkpt lat="48.72159" lon="7.16777">
        <ele>285</ele>
        <time>2020-08-09T07:25:08Z</time>
      </trkpt>
      <trkpt lat="48.72154" lon="7.16773">
        <ele>285</ele>
        <time>2020-08-09T07:25:09Z</time>
      </trkpt>
      <trkpt lat="48.72149" lon="7.1677">
        <ele>285</ele>
        <time>2020-08-09T07:25:10Z</time>
      </trkpt>
      <trkpt lat="48.72145" lon="7.16767">
        <ele>285</ele>
        <time>2020-08-09T07:25:11Z</time>
      </trkpt>
      <trkpt lat="48.7214" lon="7.16764">
        <ele>286</ele>
        <time>2020-08-09T07:25:12Z</time>
      </trkpt>
      <trkpt lat="48.72136" lon="7.16761">
        <ele>286</ele>
        <time>2020-08-09T07:25:13Z</time>
      </trkpt>
      <trkpt lat="48.72132" lon="7.16757">
        <ele>286</ele>
        <time>2020-08-09T07:25:14Z</time>
      </trkpt>
      <trkpt lat="48.72125" lon="7.1675">
        <ele>286</ele>
        <time>2020-08-09T07:25:16Z</time>
      </trkpt>
      <trkpt lat="48.7212" lon="7.16742">
        <ele>286</ele>
        <time>2020-08-09T07:25:18Z</time>
      </trkpt>
      <trkpt lat="48.72115" lon="7.16733">
        <ele>287</ele>
        <time>2020-08-09T07:25:20Z</time>
      </trkpt>
      <trkpt lat="48.7211" lon="7.16725">
        <ele>287</ele>
        <time>2020-08-09T07:25:22Z</time>
      </trkpt>
      <trkpt lat="48.72105" lon="7.16718">
        <ele>288</ele>
        <time>2020-08-09T07:25:24Z</time>
      </trkpt>
      <trkpt lat="48.72101" lon="7.16711">
        <ele>289</ele>
        <time>2020-08-09T07:25:26Z</time>
      </trkpt>
      <trkpt lat="48.72096" lon="7.16705">
        <ele>290</ele>
        <time>2020-08-09T07:25:28Z</time>
      </trkpt>
      <trkpt lat="48.72092" lon="7.16699">
        <ele>291</ele>
        <time>2020-08-09T07:25:30Z</time>
      </trkpt>
      <trkpt lat="48.72088" lon="7.16692">
        <ele>291</ele>
        <time>2020-08-09T07:25:32Z</time>
      </trkpt>
      <trkpt lat="48.72084" lon="7.16685">
        <ele>291</ele>
        <time>2020-08-09T07:25:34Z</time>
      </trkpt>
      <trkpt lat="48.72081" lon="7.16678">
        <ele>292</ele>
        <time>2020-08-09T07:25:36Z</time>
      </trkpt>
      <trkpt lat="48.72076" lon="7.16673">
        <ele>292</ele>
        <time>2020-08-09T07:25:38Z</time>
      </trkpt>
      <trkpt lat="48.72073" lon="7.16666">
        <ele>292</ele>
        <time>2020-08-09T07:25:40Z</time>
      </trkpt>
      <trkpt lat="48.72069" lon="7.16661">
        <ele>292</ele>
        <time>2020-08-09T07:25:42Z</time>
      </trkpt>
      <trkpt lat="48.72066" lon="7.16656">
        <ele>293</ele>
        <time>2020-08-09T07:25:44Z</time>
      </trkpt>
      <trkpt lat="48.72063" lon="7.1665">
        <ele>293</ele>
        <time>2020-08-09T07:25:46Z</time>
      </trkpt>
      <trkpt lat="48.72059" lon="7.16642">
        <ele>293</ele>
        <time>2020-08-09T07:25:49Z</time>
      </trkpt>
      <trkpt lat="48.72056" lon="7.16636">
        <ele>292</ele>
        <time>2020-08-09T07:25:51Z</time>
      </trkpt>
      <trkpt lat="48.72052" lon="7.16631">
        <ele>291</ele>
        <time>2020-08-09T07:25:53Z</time>
      </trkpt>
      <trkpt lat="48.72049" lon="7.16626">
        <ele>291</ele>
        <time>2020-08-09T07:25:55Z</time>
      </trkpt>
      <trkpt lat="48.72045" lon="7.1662">
        <ele>291</ele>
        <time>2020-08-09T07:25:57Z</time>
      </trkpt>
      <trkpt lat="48.72043" lon="7.16612">
        <ele>292</ele>
        <time>2020-08-09T07:25:59Z</time>
      </trkpt>
      <trkpt lat="48.72039" lon="7.16605">
        <ele>292</ele>
        <time>2020-08-09T07:26:01Z</time>
      </trkpt>
      <trkpt lat="48.72036" lon="7.16599">
        <ele>293</ele>
        <time>2020-08-09T07:26:03Z</time>
      </trkpt>
      <trkpt lat="48.72034" lon="7.16592">
        <ele>293</ele>
        <time>2020-08-09T07:26:05Z</time>
      </trkpt>
      <trkpt lat="48.72031" lon="7.16584">
        <ele>294</ele>
        <time>2020-08-09T07:26:08Z</time>
      </trkpt>
      <trkpt lat="48.72026" lon="7.16587">
        <ele>294</ele>
        <time>2020-08-09T07:26:11Z</time>
      </trkpt>
      <trkpt lat="48.72025" lon="7.16595">
        <ele>294</ele>
        <time>2020-08-09T07:26:13Z</time>
      </trkpt>
      <trkpt lat="48.72021" lon="7.16602">
        <ele>293</ele>
        <time>2020-08-09T07:26:15Z</time>
      </trkpt>
      <trkpt lat="48.72015" lon="7.16606">
        <ele>294</ele>
        <time>2020-08-09T07:26:17Z</time>
      </trkpt>
      <trkpt lat="48.7201" lon="7.16609">
        <ele>294</ele>
        <time>2020-08-09T07:26:19Z</time>
      </trkpt>
      <trkpt lat="48.72006" lon="7.16612">
        <ele>294</ele>
        <time>2020-08-09T07:26:21Z</time>
      </trkpt>
      <trkpt lat="48.72" lon="7.16612">
        <ele>294</ele>
        <time>2020-08-09T07:26:23Z</time>
      </trkpt>
      <trkpt lat="48.71994" lon="7.1661">
        <ele>294</ele>
        <time>2020-08-09T07:26:25Z</time>
      </trkpt>
      <trkpt lat="48.71989" lon="7.16605">
        <ele>294</ele>
        <time>2020-08-09T07:26:27Z</time>
      </trkpt>
      <trkpt lat="48.71984" lon="7.16599">
        <ele>294</ele>
        <time>2020-08-09T07:26:29Z</time>
      </trkpt>
      <trkpt lat="48.7198" lon="7.16593">
        <ele>295</ele>
        <time>2020-08-09T07:26:31Z</time>
      </trkpt>
      <trkpt lat="48.71975" lon="7.16588">
        <ele>295</ele>
        <time>2020-08-09T07:26:33Z</time>
      </trkpt>
      <trkpt lat="48.7197" lon="7.16583">
        <ele>295</ele>
        <time>2020-08-09T07:26:35Z</time>
      </trkpt>
      <trkpt lat="48.71965" lon="7.16577">
        <ele>295</ele>
        <time>2020-08-09T07:26:37Z</time>
      </trkpt>
      <trkpt lat="48.7196" lon="7.16572">
        <ele>296</ele>
        <time>2020-08-09T07:26:39Z</time>
      </trkpt>
      <trkpt lat="48.71956" lon="7.16567">
        <ele>296</ele>
        <time>2020-08-09T07:26:41Z</time>
      </trkpt>
      <trkpt lat="48.71951" lon="7.16561">
        <ele>296</ele>
        <time>2020-08-09T07:26:43Z</time>
      </trkpt>
      <trkpt lat="48.71947" lon="7.16556">
        <ele>296</ele>
        <time>2020-08-09T07:26:45Z</time>
      </trkpt>
      <trkpt lat="48.71942" lon="7.16551">
        <ele>296</ele>
        <time>2020-08-09T07:26:47Z</time>
      </trkpt>
      <trkpt lat="48.71938" lon="7.16545">
        <ele>296</ele>
        <time>2020-08-09T07:26:49Z</time>
      </trkpt>
      <trkpt lat="48.71932" lon="7.16541">
        <ele>297</ele>
        <time>2020-08-09T07:26:51Z</time>
      </trkpt>
      <trkpt lat="48.71927" lon="7.16537">
        <ele>297</ele>
        <time>2020-08-09T07:26:53Z</time>
      </trkpt>
      <trkpt lat="48.71922" lon="7.16532">
        <ele>296</ele>
        <time>2020-08-09T07:26:55Z</time>
      </trkpt>
      <trkpt lat="48.71916" lon="7.16527">
        <ele>296</ele>
        <time>2020-08-09T07:26:57Z</time>
      </trkpt>
      <trkpt lat="48.71911" lon="7.16522">
        <ele>296</ele>
        <time>2020-08-09T07:26:59Z</time>
      </trkpt>
      <trkpt lat="48.71905" lon="7.16517">
        <ele>296</ele>
        <time>2020-08-09T07:27:01Z</time>
      </trkpt>
      <trkpt lat="48.719" lon="7.16513">
        <ele>296</ele>
        <time>2020-08-09T07:27:03Z</time>
      </trkpt>
      <trkpt lat="48.71894" lon="7.16509">
        <ele>296</ele>
        <time>2020-08-09T07:27:05Z</time>
      </trkpt>
      <trkpt lat="48.71888" lon="7.16505">
        <ele>296</ele>
        <time>2020-08-09T07:27:07Z</time>
      </trkpt>
      <trkpt lat="48.71883" lon="7.16501">
        <ele>296</ele>
        <time>2020-08-09T07:27:09Z</time>
      </trkpt>
      <trkpt lat="48.71877" lon="7.16496">
        <ele>297</ele>
        <time>2020-08-09T07:27:11Z</time>
      </trkpt>
      <trkpt lat="48.71871" lon="7.16492">
        <ele>297</ele>
        <time>2020-08-09T07:27:13Z</time>
      </trkpt>
      <trkpt lat="48.71866" lon="7.16486">
        <ele>298</ele>
        <time>2020-08-09T07:27:15Z</time>
      </trkpt>
      <trkpt lat="48.71861" lon="7.16483">
        <ele>298</ele>
        <time>2020-08-09T07:27:17Z</time>
      </trkpt>
      <trkpt lat="48.71855" lon="7.16479">
        <ele>299</ele>
        <time>2020-08-09T07:27:19Z</time>
      </trkpt>
      <trkpt lat="48.71849" lon="7.16474">
        <ele>299</ele>
        <time>2020-08-09T07:27:21Z</time>
      </trkpt>
      <trkpt lat="48.71845" lon="7.1647">
        <ele>299</ele>
        <time>2020-08-09T07:27:23Z</time>
      </trkpt>
      <trkpt lat="48.71839" lon="7.16466">
        <ele>299</ele>
        <time>2020-08-09T07:27:25Z</time>
      </trkpt>
      <trkpt lat="48.71834" lon="7.16462">
        <ele>299</ele>
        <time>2020-08-09T07:27:27Z</time>
      </trkpt>
      <trkpt lat="48.71829" lon="7.16456">
        <ele>298</ele>
        <time>2020-08-09T07:27:29Z</time>
      </trkpt>
      <trkpt lat="48.71824" lon="7.16452">
        <ele>298</ele>
        <time>2020-08-09T07:27:31Z</time>
      </trkpt>
      <trkpt lat="48.71819" lon="7.16447">
        <ele>298</ele>
        <time>2020-08-09T07:27:33Z</time>
      </trkpt>
      <trkpt lat="48.71813" lon="7.16443">
        <ele>299</ele>
        <time>2020-08-09T07:27:35Z</time>
      </trkpt>
      <trkpt lat="48.71808" lon="7.16438">
        <ele>299</ele>
        <time>2020-08-09T07:27:37Z</time>
      </trkpt>
      <trkpt lat="48.71803" lon="7.16434">
        <ele>299</ele>
        <time>2020-08-09T07:27:39Z</time>
      </trkpt>
      <trkpt lat="48.71798" lon="7.16429">
        <ele>298</ele>
        <time>2020-08-09T07:27:41Z</time>
      </trkpt>
      <trkpt lat="48.71794" lon="7.16424">
        <ele>298</ele>
        <time>2020-08-09T07:27:43Z</time>
      </trkpt>
      <trkpt lat="48.7179" lon="7.16418">
        <ele>298</ele>
        <time>2020-08-09T07:27:45Z</time>
      </trkpt>
      <trkpt lat="48.71787" lon="7.16412">
        <ele>298</ele>
        <time>2020-08-09T07:27:47Z</time>
      </trkpt>
      <trkpt lat="48.71784" lon="7.16404">
        <ele>297</ele>
        <time>2020-08-09T07:27:49Z</time>
      </trkpt>
      <trkpt lat="48.71785" lon="7.16393">
        <ele>297</ele>
        <time>2020-08-09T07:27:51Z</time>
      </trkpt>
      <trkpt lat="48.7179" lon="7.16383">
        <ele>297</ele>
        <time>2020-08-09T07:27:53Z</time>
      </trkpt>
      <trkpt lat="48.71795" lon="7.16375">
        <ele>298</ele>
        <time>2020-08-09T07:27:55Z</time>
      </trkpt>
      <trkpt lat="48.71799" lon="7.16367">
        <ele>299</ele>
        <time>2020-08-09T07:27:57Z</time>
      </trkpt>
      <trkpt lat="48.71805" lon="7.16361">
        <ele>299</ele>
        <time>2020-08-09T07:27:59Z</time>
      </trkpt>
      <trkpt lat="48.71811" lon="7.16355">
        <ele>300</ele>
        <time>2020-08-09T07:28:01Z</time>
      </trkpt>
      <trkpt lat="48.71816" lon="7.1635">
        <ele>300</ele>
        <time>2020-08-09T07:28:03Z</time>
      </trkpt>
      <trkpt lat="48.71821" lon="7.16343">
        <ele>300</ele>
        <time>2020-08-09T07:28:05Z</time>
      </trkpt>
      <trkpt lat="48.71825" lon="7.16336">
        <ele>300</ele>
        <time>2020-08-09T07:28:07Z</time>
      </trkpt>
      <trkpt lat="48.71827" lon="7.16327">
        <ele>300</ele>
        <time>2020-08-09T07:28:09Z</time>
      </trkpt>
      <trkpt lat="48.71825" lon="7.16319">
        <ele>300</ele>
        <time>2020-08-09T07:28:11Z</time>
      </trkpt>
      <trkpt lat="48.7182" lon="7.16315">
        <ele>300</ele>
        <time>2020-08-09T07:28:13Z</time>
      </trkpt>
      <trkpt lat="48.71816" lon="7.16311">
        <ele>300</ele>
        <time>2020-08-09T07:28:15Z</time>
      </trkpt>
      <trkpt lat="48.71811" lon="7.16309">
        <ele>300</ele>
        <time>2020-08-09T07:28:17Z</time>
      </trkpt>
      <trkpt lat="48.71806" lon="7.16306">
        <ele>300</ele>
        <time>2020-08-09T07:28:19Z</time>
      </trkpt>
      <trkpt lat="48.71801" lon="7.16305">
        <ele>300</ele>
        <time>2020-08-09T07:28:21Z</time>
      </trkpt>
      <trkpt lat="48.71796" lon="7.16302">
        <ele>301</ele>
        <time>2020-08-09T07:28:23Z</time>
      </trkpt>
      <trkpt lat="48.7179" lon="7.163">
        <ele>301</ele>
        <time>2020-08-09T07:28:25Z</time>
      </trkpt>
      <trkpt lat="48.71785" lon="7.16296">
        <ele>301</ele>
        <time>2020-08-09T07:28:28Z</time>
      </trkpt>
      <trkpt lat="48.7178" lon="7.16291">
        <ele>301</ele>
        <time>2020-08-09T07:28:31Z</time>
      </trkpt>
      <trkpt lat="48.71778" lon="7.16299">
        <ele>301</ele>
        <time>2020-08-09T07:28:34Z</time>
      </trkpt>
      <trkpt lat="48.71787" lon="7.16303">
        <ele>301</ele>
        <time>2020-08-09T07:28:38Z</time>
      </trkpt>
      <trkpt lat="48.71792" lon="7.16304">
        <ele>301</ele>
        <time>2020-08-09T07:28:41Z</time>
      </trkpt>
      <trkpt lat="48.71797" lon="7.16305">
        <ele>301</ele>
        <time>2020-08-09T07:28:43Z</time>
      </trkpt>
      <trkpt lat="48.71802" lon="7.16307">
        <ele>300</ele>
        <time>2020-08-09T07:28:45Z</time>
      </trkpt>
      <trkpt lat="48.71807" lon="7.16311">
        <ele>300</ele>
        <time>2020-08-09T07:28:47Z</time>
      </trkpt>
      <trkpt lat="48.71811" lon="7.16314">
        <ele>300</ele>
        <time>2020-08-09T07:28:49Z</time>
      </trkpt>
      <trkpt lat="48.71816" lon="7.16318">
        <ele>300</ele>
        <time>2020-08-09T07:28:51Z</time>
      </trkpt>
      <trkpt lat="48.71792" lon="7.16245">
        <ele>306</ele>
        <time>2020-08-09T07:31:10Z</time>
      </trkpt>
      <trkpt lat="48.71795" lon="7.16236">
        <ele>306</ele>
        <time>2020-08-09T07:31:13Z</time>
      </trkpt>
      <trkpt lat="48.71796" lon="7.16227">
        <ele>306</ele>
        <time>2020-08-09T07:31:16Z</time>
      </trkpt>
      <trkpt lat="48.71798" lon="7.16218">
        <ele>307</ele>
        <time>2020-08-09T07:31:19Z</time>
      </trkpt>
      <trkpt lat="48.718" lon="7.1621">
        <ele>308</ele>
        <time>2020-08-09T07:31:22Z</time>
      </trkpt>
      <trkpt lat="48.718" lon="7.16202">
        <ele>309</ele>
        <time>2020-08-09T07:31:25Z</time>
      </trkpt>
      <trkpt lat="48.718" lon="7.16192">
        <ele>313</ele>
        <time>2020-08-09T07:31:28Z</time>
      </trkpt>
      <trkpt lat="48.71799" lon="7.16183">
        <ele>315</ele>
        <time>2020-08-09T07:31:31Z</time>
      </trkpt>
      <trkpt lat="48.718" lon="7.16175">
        <ele>316</ele>
        <time>2020-08-09T07:31:34Z</time>
      </trkpt>
      <trkpt lat="48.71801" lon="7.16167">
        <ele>317</ele>
        <time>2020-08-09T07:31:37Z</time>
      </trkpt>
      <trkpt lat="48.71802" lon="7.1616">
        <ele>317</ele>
        <time>2020-08-09T07:31:40Z</time>
      </trkpt>
      <trkpt lat="48.71803" lon="7.16154">
        <ele>317</ele>
        <time>2020-08-09T07:31:43Z</time>
      </trkpt>
      <trkpt lat="48.71804" lon="7.16146">
        <ele>318</ele>
        <time>2020-08-09T07:31:53Z</time>
      </trkpt>
      <trkpt lat="48.71805" lon="7.16139">
        <ele>319</ele>
        <time>2020-08-09T07:31:59Z</time>
      </trkpt>
      <trkpt lat="48.71806" lon="7.16131">
        <ele>320</ele>
        <time>2020-08-09T07:32:04Z</time>
      </trkpt>
      <trkpt lat="48.71806" lon="7.16124">
        <ele>321</ele>
        <time>2020-08-09T07:32:09Z</time>
      </trkpt>
      <trkpt lat="48.71806" lon="7.16116">
        <ele>322</ele>
        <time>2020-08-09T07:32:16Z</time>
      </trkpt>
      <trkpt lat="48.71808" lon="7.16109">
        <ele>322</ele>
        <time>2020-08-09T07:32:22Z</time>
      </trkpt>
      <trkpt lat="48.71809" lon="7.16101">
        <ele>322</ele>
        <time>2020-08-09T07:32:28Z</time>
      </trkpt>
      <trkpt lat="48.71809" lon="7.16094">
        <ele>323</ele>
        <time>2020-08-09T07:32:35Z</time>
      </trkpt>
      <trkpt lat="48.71811" lon="7.16087">
        <ele>323</ele>
        <time>2020-08-09T07:32:42Z</time>
      </trkpt>
      <trkpt lat="48.71811" lon="7.16079">
        <ele>323</ele>
        <time>2020-08-09T07:32:49Z</time>
      </trkpt>
      <trkpt lat="48.71812" lon="7.16071">
        <ele>324</ele>
        <time>2020-08-09T07:32:57Z</time>
      </trkpt>
      <trkpt lat="48.71811" lon="7.16064">
        <ele>324</ele>
        <time>2020-08-09T07:33:03Z</time>
      </trkpt>
      <trkpt lat="48.7181" lon="7.16057">
        <ele>324</ele>
        <time>2020-08-09T07:33:19Z</time>
      </trkpt>
      <trkpt lat="48.71811" lon="7.1605">
        <ele>324</ele>
        <time>2020-08-09T07:33:24Z</time>
      </trkpt>
      <trkpt lat="48.7181" lon="7.16043">
        <ele>325</ele>
        <time>2020-08-09T07:33:29Z</time>
      </trkpt>
      <trkpt lat="48.71807" lon="7.16038">
        <ele>325</ele>
        <time>2020-08-09T07:33:34Z</time>
      </trkpt>
      <trkpt lat="48.71805" lon="7.16031">
        <ele>325</ele>
        <time>2020-08-09T07:33:40Z</time>
      </trkpt>
      <trkpt lat="48.71807" lon="7.16024">
        <ele>325</ele>
        <time>2020-08-09T07:33:45Z</time>
      </trkpt>
      <trkpt lat="48.71806" lon="7.16016">
        <ele>326</ele>
        <time>2020-08-09T07:33:51Z</time>
      </trkpt>
      <trkpt lat="48.71806" lon="7.16009">
        <ele>326</ele>
        <time>2020-08-09T07:33:55Z</time>
      </trkpt>
      <trkpt lat="48.71807" lon="7.16002">
        <ele>326</ele>
        <time>2020-08-09T07:34:00Z</time>
      </trkpt>
      <trkpt lat="48.71806" lon="7.15995">
        <ele>327</ele>
        <time>2020-08-09T07:34:06Z</time>
      </trkpt>
      <trkpt lat="48.71805" lon="7.15988">
        <ele>327</ele>
        <time>2020-08-09T07:34:12Z</time>
      </trkpt>
      <trkpt lat="48.71802" lon="7.15982">
        <ele>327</ele>
        <time>2020-08-09T07:34:18Z</time>
      </trkpt>
      <trkpt lat="48.71798" lon="7.15978">
        <ele>327</ele>
        <time>2020-08-09T07:34:24Z</time>
      </trkpt>
      <trkpt lat="48.71793" lon="7.15978">
        <ele>328</ele>
        <time>2020-08-09T07:34:29Z</time>
      </trkpt>
      <trkpt lat="48.71788" lon="7.15979">
        <ele>328</ele>
        <time>2020-08-09T07:34:33Z</time>
      </trkpt>
      <trkpt lat="48.71783" lon="7.15981">
        <ele>328</ele>
        <time>2020-08-09T07:34:37Z</time>
      </trkpt>
      <trkpt lat="48.71779" lon="7.15982">
        <ele>328</ele>
        <time>2020-08-09T07:34:41Z</time>
      </trkpt>
      <trkpt lat="48.71774" lon="7.15982">
        <ele>328</ele>
        <time>2020-08-09T07:34:45Z</time>
      </trkpt>
      <trkpt lat="48.71769" lon="7.1598">
        <ele>328</ele>
        <time>2020-08-09T07:34:51Z</time>
      </trkpt>
      <trkpt lat="48.71764" lon="7.1598">
        <ele>328</ele>
        <time>2020-08-09T07:34:56Z</time>
      </trkpt>
      <trkpt lat="48.71758" lon="7.15983">
        <ele>328</ele>
        <time>2020-08-09T07:35:00Z</time>
      </trkpt>
      <trkpt lat="48.71754" lon="7.15983">
        <ele>328</ele>
        <time>2020-08-09T07:35:03Z</time>
      </trkpt>
      <trkpt lat="48.71748" lon="7.15982">
        <ele>329</ele>
        <time>2020-08-09T07:35:07Z</time>
      </trkpt>
      <trkpt lat="48.71743" lon="7.15983">
        <ele>329</ele>
        <time>2020-08-09T07:35:11Z</time>
      </trkpt>
      <trkpt lat="48.71739" lon="7.15982">
        <ele>329</ele>
        <time>2020-08-09T07:35:15Z</time>
      </trkpt>
      <trkpt lat="48.71734" lon="7.15982">
        <ele>330</ele>
        <time>2020-08-09T07:35:19Z</time>
      </trkpt>
      <trkpt lat="48.71728" lon="7.15984">
        <ele>330</ele>
        <time>2020-08-09T07:35:22Z</time>
      </trkpt>
      <trkpt lat="48.71723" lon="7.15983">
        <ele>331</ele>
        <time>2020-08-09T07:35:28Z</time>
      </trkpt>
      <trkpt lat="48.71719" lon="7.15985">
        <ele>331</ele>
        <time>2020-08-09T07:35:32Z</time>
      </trkpt>
      <trkpt lat="48.71714" lon="7.15987">
        <ele>332</ele>
        <time>2020-08-09T07:35:36Z</time>
      </trkpt>
      <trkpt lat="48.71709" lon="7.15988">
        <ele>332</ele>
        <time>2020-08-09T07:35:40Z</time>
      </trkpt>
      <trkpt lat="48.71704" lon="7.15988">
        <ele>333</ele>
        <time>2020-08-09T07:35:45Z</time>
      </trkpt>
      <trkpt lat="48.71699" lon="7.15988">
        <ele>333</ele>
        <time>2020-08-09T07:35:51Z</time>
      </trkpt>
      <trkpt lat="48.71694" lon="7.15988">
        <ele>334</ele>
        <time>2020-08-09T07:35:56Z</time>
      </trkpt>
      <trkpt lat="48.71689" lon="7.1599">
        <ele>334</ele>
        <time>2020-08-09T07:36:01Z</time>
      </trkpt>
      <trkpt lat="48.71683" lon="7.15992">
        <ele>335</ele>
        <time>2020-08-09T07:36:06Z</time>
      </trkpt>
      <trkpt lat="48.71678" lon="7.1599">
        <ele>335</ele>
        <time>2020-08-09T07:36:11Z</time>
      </trkpt>
      <trkpt lat="48.71674" lon="7.15986">
        <ele>336</ele>
        <time>2020-08-09T07:36:21Z</time>
      </trkpt>
      <trkpt lat="48.71679" lon="7.15989">
        <ele>335</ele>
        <time>2020-08-09T07:38:06Z</time>
      </trkpt>
      <trkpt lat="48.71675" lon="7.15986">
        <ele>336</ele>
        <time>2020-08-09T07:39:05Z</time>
      </trkpt>
      <trkpt lat="48.71669" lon="7.15917">
        <ele>338</ele>
        <time>2020-08-09T07:44:34Z</time>
      </trkpt>
      <trkpt lat="48.71669" lon="7.1591">
        <ele>338</ele>
        <time>2020-08-09T07:44:36Z</time>
      </trkpt>
      <trkpt lat="48.71668" lon="7.15902">
        <ele>338</ele>
        <time>2020-08-09T07:44:38Z</time>
      </trkpt>
      <trkpt lat="48.71668" lon="7.15894">
        <ele>337</ele>
        <time>2020-08-09T07:44:40Z</time>
      </trkpt>
      <trkpt lat="48.71668" lon="7.15887">
        <ele>337</ele>
        <time>2020-08-09T07:44:42Z</time>
      </trkpt>
      <trkpt lat="48.71668" lon="7.15879">
        <ele>337</ele>
        <time>2020-08-09T07:44:44Z</time>
      </trkpt>
      <trkpt lat="48.71668" lon="7.15871">
        <ele>337</ele>
        <time>2020-08-09T07:44:46Z</time>
      </trkpt>
      <trkpt lat="48.71668" lon="7.15862">
        <ele>338</ele>
        <time>2020-08-09T07:44:48Z</time>
      </trkpt>
      <trkpt lat="48.71668" lon="7.15853">
        <ele>338</ele>
        <time>2020-08-09T07:44:50Z</time>
      </trkpt>
      <trkpt lat="48.71669" lon="7.15844">
        <ele>338</ele>
        <time>2020-08-09T07:44:52Z</time>
      </trkpt>
      <trkpt lat="48.71669" lon="7.15836">
        <ele>338</ele>
        <time>2020-08-09T07:44:54Z</time>
      </trkpt>
      <trkpt lat="48.71668" lon="7.15827">
        <ele>338</ele>
        <time>2020-08-09T07:44:56Z</time>
      </trkpt>
      <trkpt lat="48.71669" lon="7.15819">
        <ele>338</ele>
        <time>2020-08-09T07:44:58Z</time>
      </trkpt>
      <trkpt lat="48.71669" lon="7.15811">
        <ele>339</ele>
        <time>2020-08-09T07:45:00Z</time>
      </trkpt>
      <trkpt lat="48.71669" lon="7.15801">
        <ele>339</ele>
        <time>2020-08-09T07:45:02Z</time>
      </trkpt>
      <trkpt lat="48.71669" lon="7.15792">
        <ele>338</ele>
        <time>2020-08-09T07:45:04Z</time>
      </trkpt>
      <trkpt lat="48.71667" lon="7.15783">
        <ele>338</ele>
        <time>2020-08-09T07:45:06Z</time>
      </trkpt>
      <trkpt lat="48.71666" lon="7.15774">
        <ele>339</ele>
        <time>2020-08-09T07:45:08Z</time>
      </trkpt>
      <trkpt lat="48.71666" lon="7.15765">
        <ele>339</ele>
        <time>2020-08-09T07:45:10Z</time>
      </trkpt>
      <trkpt lat="48.71664" lon="7.15756">
        <ele>340</ele>
        <time>2020-08-09T07:45:12Z</time>
      </trkpt>
      <trkpt lat="48.71664" lon="7.15747">
        <ele>340</ele>
        <time>2020-08-09T07:45:14Z</time>
      </trkpt>
      <trkpt lat="48.71663" lon="7.1574">
        <ele>340</ele>
        <time>2020-08-09T07:45:16Z</time>
      </trkpt>
      <trkpt lat="48.71662" lon="7.15733">
        <ele>340</ele>
        <time>2020-08-09T07:45:18Z</time>
      </trkpt>
      <trkpt lat="48.71661" lon="7.15725">
        <ele>340</ele>
        <time>2020-08-09T07:45:20Z</time>
      </trkpt>
      <trkpt lat="48.71661" lon="7.15718">
        <ele>340</ele>
        <time>2020-08-09T07:45:22Z</time>
      </trkpt>
      <trkpt lat="48.71661" lon="7.15711">
        <ele>340</ele>
        <time>2020-08-09T07:45:24Z</time>
      </trkpt>
      <trkpt lat="48.71661" lon="7.15703">
        <ele>340</ele>
        <time>2020-08-09T07:45:26Z</time>
      </trkpt>
      <trkpt lat="48.71661" lon="7.15694">
        <ele>340</ele>
        <time>2020-08-09T07:45:29Z</time>
      </trkpt>
      <trkpt lat="48.71662" lon="7.15687">
        <ele>340</ele>
        <time>2020-08-09T07:45:31Z</time>
      </trkpt>
      <trkpt lat="48.71662" lon="7.15678">
        <ele>340</ele>
        <time>2020-08-09T07:45:34Z</time>
      </trkpt>
      <trkpt lat="48.71662" lon="7.15669">
        <ele>340</ele>
        <time>2020-08-09T07:45:37Z</time>
      </trkpt>
      <trkpt lat="48.71664" lon="7.1566">
        <ele>340</ele>
        <time>2020-08-09T07:45:40Z</time>
      </trkpt>
      <trkpt lat="48.71665" lon="7.15653">
        <ele>340</ele>
        <time>2020-08-09T07:45:42Z</time>
      </trkpt>
      <trkpt lat="48.71666" lon="7.15646">
        <ele>340</ele>
        <time>2020-08-09T07:45:44Z</time>
      </trkpt>
      <trkpt lat="48.71667" lon="7.15638">
        <ele>340</ele>
        <time>2020-08-09T07:45:46Z</time>
      </trkpt>
      <trkpt lat="48.71667" lon="7.1563">
        <ele>340</ele>
        <time>2020-08-09T07:45:48Z</time>
      </trkpt>
      <trkpt lat="48.71669" lon="7.15621">
        <ele>340</ele>
        <time>2020-08-09T07:45:51Z</time>
      </trkpt>
      <trkpt lat="48.71672" lon="7.15608">
        <ele>340</ele>
        <time>2020-08-09T07:45:55Z</time>
      </trkpt>
      <trkpt lat="48.71673" lon="7.15601">
        <ele>340</ele>
        <time>2020-08-09T07:45:57Z</time>
      </trkpt>
      <trkpt lat="48.71674" lon="7.15594">
        <ele>340</ele>
        <time>2020-08-09T07:45:59Z</time>
      </trkpt>
      <trkpt lat="48.71676" lon="7.15588">
        <ele>340</ele>
        <time>2020-08-09T07:46:01Z</time>
      </trkpt>
      <trkpt lat="48.71679" lon="7.15581">
        <ele>341</ele>
        <time>2020-08-09T07:46:03Z</time>
      </trkpt>
      <trkpt lat="48.71681" lon="7.15575">
        <ele>341</ele>
        <time>2020-08-09T07:46:05Z</time>
      </trkpt>
      <trkpt lat="48.71682" lon="7.15568">
        <ele>341</ele>
        <time>2020-08-09T07:46:07Z</time>
      </trkpt>
      <trkpt lat="48.71685" lon="7.15562">
        <ele>341</ele>
        <time>2020-08-09T07:46:09Z</time>
      </trkpt>
      <trkpt lat="48.71688" lon="7.15554">
        <ele>341</ele>
        <time>2020-08-09T07:46:12Z</time>
      </trkpt>
      <trkpt lat="48.71691" lon="7.15547">
        <ele>341</ele>
        <time>2020-08-09T07:46:15Z</time>
      </trkpt>
      <trkpt lat="48.71694" lon="7.15539">
        <ele>341</ele>
        <time>2020-08-09T07:46:18Z</time>
      </trkpt>
      <trkpt lat="48.71697" lon="7.15533">
        <ele>341</ele>
        <time>2020-08-09T07:46:20Z</time>
      </trkpt>
      <trkpt lat="48.71701" lon="7.15524">
        <ele>341</ele>
        <time>2020-08-09T07:46:23Z</time>
      </trkpt>
      <trkpt lat="48.71703" lon="7.15515">
        <ele>342</ele>
        <time>2020-08-09T07:46:26Z</time>
      </trkpt>
      <trkpt lat="48.71706" lon="7.15508">
        <ele>342</ele>
        <time>2020-08-09T07:46:29Z</time>
      </trkpt>
      <trkpt lat="48.71709" lon="7.15501">
        <ele>343</ele>
        <time>2020-08-09T07:46:33Z</time>
      </trkpt>
      <trkpt lat="48.71712" lon="7.15494">
        <ele>343</ele>
        <time>2020-08-09T07:46:37Z</time>
      </trkpt>
      <trkpt lat="48.71717" lon="7.15481">
        <ele>343</ele>
        <time>2020-08-09T07:46:43Z</time>
      </trkpt>
      <trkpt lat="48.7172" lon="7.15473">
        <ele>344</ele>
        <time>2020-08-09T07:46:46Z</time>
      </trkpt>
      <trkpt lat="48.71723" lon="7.15468">
        <ele>344</ele>
        <time>2020-08-09T07:46:48Z</time>
      </trkpt>
      <trkpt lat="48.71726" lon="7.15462">
        <ele>344</ele>
        <time>2020-08-09T07:46:50Z</time>
      </trkpt>
      <trkpt lat="48.71729" lon="7.15454">
        <ele>344</ele>
        <time>2020-08-09T07:46:53Z</time>
      </trkpt>
      <trkpt lat="48.71732" lon="7.15447">
        <ele>344</ele>
        <time>2020-08-09T07:46:57Z</time>
      </trkpt>
      <trkpt lat="48.71736" lon="7.15439">
        <ele>345</ele>
        <time>2020-08-09T07:47:00Z</time>
      </trkpt>
      <trkpt lat="48.71738" lon="7.15431">
        <ele>345</ele>
        <time>2020-08-09T07:47:03Z</time>
      </trkpt>
      <trkpt lat="48.71742" lon="7.15424">
        <ele>345</ele>
        <time>2020-08-09T07:47:06Z</time>
      </trkpt>
      <trkpt lat="48.71746" lon="7.15418">
        <ele>345</ele>
        <time>2020-08-09T07:47:08Z</time>
      </trkpt>
      <trkpt lat="48.71748" lon="7.15412">
        <ele>345</ele>
        <time>2020-08-09T07:47:10Z</time>
      </trkpt>
      <trkpt lat="48.71751" lon="7.15406">
        <ele>346</ele>
        <time>2020-08-09T07:47:12Z</time>
      </trkpt>
      <trkpt lat="48.71755" lon="7.15394">
        <ele>345</ele>
        <time>2020-08-09T07:47:16Z</time>
      </trkpt>
      <trkpt lat="48.71759" lon="7.15386">
        <ele>346</ele>
        <time>2020-08-09T07:47:19Z</time>
      </trkpt>
      <trkpt lat="48.71761" lon="7.15381">
        <ele>346</ele>
        <time>2020-08-09T07:47:21Z</time>
      </trkpt>
      <trkpt lat="48.71765" lon="7.15372">
        <ele>346</ele>
        <time>2020-08-09T07:47:24Z</time>
      </trkpt>
      <trkpt lat="48.71767" lon="7.15365">
        <ele>346</ele>
        <time>2020-08-09T07:47:26Z</time>
      </trkpt>
      <trkpt lat="48.7177" lon="7.15357">
        <ele>346</ele>
        <time>2020-08-09T07:47:29Z</time>
      </trkpt>
      <trkpt lat="48.71773" lon="7.15349">
        <ele>346</ele>
        <time>2020-08-09T07:47:32Z</time>
      </trkpt>
      <trkpt lat="48.71777" lon="7.1534">
        <ele>346</ele>
        <time>2020-08-09T07:47:35Z</time>
      </trkpt>
      <trkpt lat="48.71779" lon="7.15334">
        <ele>346</ele>
        <time>2020-08-09T07:47:38Z</time>
      </trkpt>
      <trkpt lat="48.71783" lon="7.15328">
        <ele>346</ele>
        <time>2020-08-09T07:47:41Z</time>
      </trkpt>
      <trkpt lat="48.71785" lon="7.1532">
        <ele>346</ele>
        <time>2020-08-09T07:47:44Z</time>
      </trkpt>
      <trkpt lat="48.71788" lon="7.15311">
        <ele>346</ele>
        <time>2020-08-09T07:47:47Z</time>
      </trkpt>
      <trkpt lat="48.7179" lon="7.15305">
        <ele>347</ele>
        <time>2020-08-09T07:47:49Z</time>
      </trkpt>
      <trkpt lat="48.71795" lon="7.15298">
        <ele>347</ele>
        <time>2020-08-09T07:47:52Z</time>
      </trkpt>
      <trkpt lat="48.71799" lon="7.15295">
        <ele>348</ele>
        <time>2020-08-09T07:47:54Z</time>
      </trkpt>
      <trkpt lat="48.71804" lon="7.15291">
        <ele>348</ele>
        <time>2020-08-09T07:47:57Z</time>
      </trkpt>
      <trkpt lat="48.71809" lon="7.15285">
        <ele>348</ele>
        <time>2020-08-09T07:48:00Z</time>
      </trkpt>
      <trkpt lat="48.71814" lon="7.15283">
        <ele>348</ele>
        <time>2020-08-09T07:48:02Z</time>
      </trkpt>
      <trkpt lat="48.71819" lon="7.15278">
        <ele>348</ele>
        <time>2020-08-09T07:48:04Z</time>
      </trkpt>
      <trkpt lat="48.71824" lon="7.15272">
        <ele>348</ele>
        <time>2020-08-09T07:48:06Z</time>
      </trkpt>
      <trkpt lat="48.71828" lon="7.15268">
        <ele>348</ele>
        <time>2020-08-09T07:48:08Z</time>
      </trkpt>
      <trkpt lat="48.71832" lon="7.15264">
        <ele>348</ele>
        <time>2020-08-09T07:48:10Z</time>
      </trkpt>
      <trkpt lat="48.71837" lon="7.1526">
        <ele>348</ele>
        <time>2020-08-09T07:48:12Z</time>
      </trkpt>
      <trkpt lat="48.71841" lon="7.15254">
        <ele>348</ele>
        <time>2020-08-09T07:48:14Z</time>
      </trkpt>
      <trkpt lat="48.71847" lon="7.1525">
        <ele>348</ele>
        <time>2020-08-09T07:48:16Z</time>
      </trkpt>
      <trkpt lat="48.71852" lon="7.15244">
        <ele>348</ele>
        <time>2020-08-09T07:48:18Z</time>
      </trkpt>
      <trkpt lat="48.71858" lon="7.15238">
        <ele>347</ele>
        <time>2020-08-09T07:48:20Z</time>
      </trkpt>
      <trkpt lat="48.71864" lon="7.15231">
        <ele>347</ele>
        <time>2020-08-09T07:48:22Z</time>
      </trkpt>
      <trkpt lat="48.71871" lon="7.15225">
        <ele>347</ele>
        <time>2020-08-09T07:48:24Z</time>
      </trkpt>
      <trkpt lat="48.71877" lon="7.15217">
        <ele>347</ele>
        <time>2020-08-09T07:48:26Z</time>
      </trkpt>
      <trkpt lat="48.71884" lon="7.15209">
        <ele>346</ele>
        <time>2020-08-09T07:48:28Z</time>
      </trkpt>
      <trkpt lat="48.71888" lon="7.15204">
        <ele>345</ele>
        <time>2020-08-09T07:48:29Z</time>
      </trkpt>
      <trkpt lat="48.71892" lon="7.152">
        <ele>345</ele>
        <time>2020-08-09T07:48:30Z</time>
      </trkpt>
      <trkpt lat="48.71896" lon="7.15193">
        <ele>345</ele>
        <time>2020-08-09T07:48:31Z</time>
      </trkpt>
      <trkpt lat="48.71901" lon="7.15188">
        <ele>345</ele>
        <time>2020-08-09T07:48:32Z</time>
      </trkpt>
      <trkpt lat="48.71905" lon="7.15182">
        <ele>345</ele>
        <time>2020-08-09T07:48:33Z</time>
      </trkpt>
      <trkpt lat="48.7191" lon="7.15178">
        <ele>345</ele>
        <time>2020-08-09T07:48:34Z</time>
      </trkpt>
      <trkpt lat="48.71915" lon="7.15174">
        <ele>345</ele>
        <time>2020-08-09T07:48:35Z</time>
      </trkpt>
      <trkpt lat="48.71919" lon="7.1517">
        <ele>345</ele>
        <time>2020-08-09T07:48:36Z</time>
      </trkpt>
      <trkpt lat="48.71924" lon="7.15166">
        <ele>345</ele>
        <time>2020-08-09T07:48:37Z</time>
      </trkpt>
      <trkpt lat="48.7193" lon="7.15164">
        <ele>345</ele>
        <time>2020-08-09T07:48:38Z</time>
      </trkpt>
      <trkpt lat="48.71935" lon="7.15161">
        <ele>344</ele>
        <time>2020-08-09T07:48:39Z</time>
      </trkpt>
      <trkpt lat="48.7194" lon="7.15157">
        <ele>344</ele>
        <time>2020-08-09T07:48:40Z</time>
      </trkpt>
      <trkpt lat="48.71945" lon="7.15154">
        <ele>344</ele>
        <time>2020-08-09T07:48:41Z</time>
      </trkpt>
      <trkpt lat="48.7195" lon="7.1515">
        <ele>344</ele>
        <time>2020-08-09T07:48:42Z</time>
      </trkpt>
      <trkpt lat="48.71956" lon="7.15147">
        <ele>344</ele>
        <time>2020-08-09T07:48:43Z</time>
      </trkpt>
      <trkpt lat="48.71961" lon="7.15145">
        <ele>344</ele>
        <time>2020-08-09T07:48:44Z</time>
      </trkpt>
      <trkpt lat="48.71966" lon="7.15142">
        <ele>344</ele>
        <time>2020-08-09T07:48:45Z</time>
      </trkpt>
      <trkpt lat="48.71972" lon="7.15138">
        <ele>343</ele>
        <time>2020-08-09T07:48:46Z</time>
      </trkpt>
      <trkpt lat="48.71977" lon="7.15135">
        <ele>343</ele>
        <time>2020-08-09T07:48:47Z</time>
      </trkpt>
      <trkpt lat="48.71982" lon="7.15132">
        <ele>342</ele>
        <time>2020-08-09T07:48:48Z</time>
      </trkpt>
      <trkpt lat="48.71988" lon="7.15129">
        <ele>342</ele>
        <time>2020-08-09T07:48:49Z</time>
      </trkpt>
      <trkpt lat="48.71994" lon="7.15125">
        <ele>342</ele>
        <time>2020-08-09T07:48:50Z</time>
      </trkpt>
      <trkpt lat="48.72" lon="7.15122">
        <ele>342</ele>
        <time>2020-08-09T07:48:51Z</time>
      </trkpt>
      <trkpt lat="48.72006" lon="7.15118">
        <ele>342</ele>
        <time>2020-08-09T07:48:52Z</time>
      </trkpt>
      <trkpt lat="48.72011" lon="7.15115">
        <ele>341</ele>
        <time>2020-08-09T07:48:53Z</time>
      </trkpt>
      <trkpt lat="48.72017" lon="7.15112">
        <ele>341</ele>
        <time>2020-08-09T07:48:54Z</time>
      </trkpt>
      <trkpt lat="48.72023" lon="7.15109">
        <ele>341</ele>
        <time>2020-08-09T07:48:55Z</time>
      </trkpt>
      <trkpt lat="48.72029" lon="7.15107">
        <ele>341</ele>
        <time>2020-08-09T07:48:56Z</time>
      </trkpt>
      <trkpt lat="48.72035" lon="7.15105">
        <ele>341</ele>
        <time>2020-08-09T07:48:57Z</time>
      </trkpt>
      <trkpt lat="48.72041" lon="7.15101">
        <ele>341</ele>
        <time>2020-08-09T07:48:58Z</time>
      </trkpt>
      <trkpt lat="48.72047" lon="7.15098">
        <ele>341</ele>
        <time>2020-08-09T07:48:59Z</time>
      </trkpt>
      <trkpt lat="48.72053" lon="7.15094">
        <ele>341</ele>
        <time>2020-08-09T07:49:00Z</time>
      </trkpt>
      <trkpt lat="48.72058" lon="7.15092">
        <ele>341</ele>
        <time>2020-08-09T07:49:01Z</time>
      </trkpt>
      <trkpt lat="48.72063" lon="7.15089">
        <ele>341</ele>
        <time>2020-08-09T07:49:02Z</time>
      </trkpt>
      <trkpt lat="48.72069" lon="7.15086">
        <ele>341</ele>
        <time>2020-08-09T07:49:03Z</time>
      </trkpt>
      <trkpt lat="48.72075" lon="7.15084">
        <ele>341</ele>
        <time>2020-08-09T07:49:04Z</time>
      </trkpt>
      <trkpt lat="48.72082" lon="7.1508">
        <ele>340</ele>
        <time>2020-08-09T07:49:05Z</time>
      </trkpt>
      <trkpt lat="48.72087" lon="7.15077">
        <ele>340</ele>
        <time>2020-08-09T07:49:06Z</time>
      </trkpt>
      <trkpt lat="48.72092" lon="7.15074">
        <ele>339</ele>
        <time>2020-08-09T07:49:07Z</time>
      </trkpt>
      <trkpt lat="48.72099" lon="7.15069">
        <ele>338</ele>
        <time>2020-08-09T07:49:08Z</time>
      </trkpt>
      <trkpt lat="48.72104" lon="7.15066">
        <ele>337</ele>
        <time>2020-08-09T07:49:09Z</time>
      </trkpt>
      <trkpt lat="48.72109" lon="7.15066">
        <ele>336</ele>
        <time>2020-08-09T07:49:10Z</time>
      </trkpt>
      <trkpt lat="48.72118" lon="7.15069">
        <ele>336</ele>
        <time>2020-08-09T07:49:12Z</time>
      </trkpt>
      <trkpt lat="48.72123" lon="7.1508">
        <ele>337</ele>
        <time>2020-08-09T07:49:14Z</time>
      </trkpt>
      <trkpt lat="48.72123" lon="7.15087">
        <ele>338</ele>
        <time>2020-08-09T07:49:15Z</time>
      </trkpt>
      <trkpt lat="48.72123" lon="7.15094">
        <ele>339</ele>
        <time>2020-08-09T07:49:16Z</time>
      </trkpt>
      <trkpt lat="48.72126" lon="7.15105">
        <ele>339</ele>
        <time>2020-08-09T07:49:18Z</time>
      </trkpt>
      <trkpt lat="48.72126" lon="7.15116">
        <ele>339</ele>
        <time>2020-08-09T07:49:20Z</time>
      </trkpt>
      <trkpt lat="48.72126" lon="7.15126">
        <ele>338</ele>
        <time>2020-08-09T07:49:22Z</time>
      </trkpt>
      <trkpt lat="48.72126" lon="7.15134">
        <ele>337</ele>
        <time>2020-08-09T07:49:24Z</time>
      </trkpt>
      <trkpt lat="48.72127" lon="7.15145">
        <ele>336</ele>
        <time>2020-08-09T07:49:26Z</time>
      </trkpt>
      <trkpt lat="48.72129" lon="7.15153">
        <ele>335</ele>
        <time>2020-08-09T07:49:28Z</time>
      </trkpt>
      <trkpt lat="48.72136" lon="7.15152">
        <ele>334</ele>
        <time>2020-08-09T07:49:31Z</time>
      </trkpt>
      <trkpt lat="48.72144" lon="7.15144">
        <ele>333</ele>
        <time>2020-08-09T07:49:33Z</time>
      </trkpt>
      <trkpt lat="48.72149" lon="7.1514">
        <ele>332</ele>
        <time>2020-08-09T07:49:34Z</time>
      </trkpt>
      <trkpt lat="48.72154" lon="7.15137">
        <ele>332</ele>
        <time>2020-08-09T07:49:35Z</time>
      </trkpt>
      <trkpt lat="48.7216" lon="7.15132">
        <ele>332</ele>
        <time>2020-08-09T07:49:36Z</time>
      </trkpt>
      <trkpt lat="48.72165" lon="7.15127">
        <ele>331</ele>
        <time>2020-08-09T07:49:37Z</time>
      </trkpt>
      <trkpt lat="48.72171" lon="7.15122">
        <ele>330</ele>
        <time>2020-08-09T07:49:38Z</time>
      </trkpt>
      <trkpt lat="48.72177" lon="7.15118">
        <ele>330</ele>
        <time>2020-08-09T07:49:39Z</time>
      </trkpt>
      <trkpt lat="48.72183" lon="7.15114">
        <ele>329</ele>
        <time>2020-08-09T07:49:40Z</time>
      </trkpt>
      <trkpt lat="48.7219" lon="7.15108">
        <ele>328</ele>
        <time>2020-08-09T07:49:41Z</time>
      </trkpt>
      <trkpt lat="48.72197" lon="7.15104">
        <ele>327</ele>
        <time>2020-08-09T07:49:42Z</time>
      </trkpt>
      <trkpt lat="48.72203" lon="7.15098">
        <ele>326</ele>
        <time>2020-08-09T07:49:43Z</time>
      </trkpt>
      <trkpt lat="48.72211" lon="7.15092">
        <ele>325</ele>
        <time>2020-08-09T07:49:44Z</time>
      </trkpt>
      <trkpt lat="48.72217" lon="7.15086">
        <ele>324</ele>
        <time>2020-08-09T07:49:45Z</time>
      </trkpt>
      <trkpt lat="48.72224" lon="7.1508">
        <ele>323</ele>
        <time>2020-08-09T07:49:46Z</time>
      </trkpt>
      <trkpt lat="48.72231" lon="7.15073">
        <ele>321</ele>
        <time>2020-08-09T07:49:47Z</time>
      </trkpt>
      <trkpt lat="48.72239" lon="7.15067">
        <ele>320</ele>
        <time>2020-08-09T07:49:48Z</time>
      </trkpt>
      <trkpt lat="48.72245" lon="7.1506">
        <ele>319</ele>
        <time>2020-08-09T07:49:49Z</time>
      </trkpt>
      <trkpt lat="48.72251" lon="7.15053">
        <ele>319</ele>
        <time>2020-08-09T07:49:50Z</time>
      </trkpt>
      <trkpt lat="48.72258" lon="7.15046">
        <ele>318</ele>
        <time>2020-08-09T07:49:51Z</time>
      </trkpt>
      <trkpt lat="48.72264" lon="7.1504">
        <ele>318</ele>
        <time>2020-08-09T07:49:52Z</time>
      </trkpt>
      <trkpt lat="48.72271" lon="7.15032">
        <ele>317</ele>
        <time>2020-08-09T07:49:53Z</time>
      </trkpt>
      <trkpt lat="48.72278" lon="7.15024">
        <ele>317</ele>
        <time>2020-08-09T07:49:54Z</time>
      </trkpt>
      <trkpt lat="48.72284" lon="7.15016">
        <ele>316</ele>
        <time>2020-08-09T07:49:55Z</time>
      </trkpt>
      <trkpt lat="48.7229" lon="7.1501">
        <ele>316</ele>
        <time>2020-08-09T07:49:56Z</time>
      </trkpt>
      <trkpt lat="48.72296" lon="7.15003">
        <ele>315</ele>
        <time>2020-08-09T07:49:57Z</time>
      </trkpt>
      <trkpt lat="48.72301" lon="7.14997">
        <ele>315</ele>
        <time>2020-08-09T07:49:58Z</time>
      </trkpt>
      <trkpt lat="48.72308" lon="7.14989">
        <ele>314</ele>
        <time>2020-08-09T07:49:59Z</time>
      </trkpt>
      <trkpt lat="48.72313" lon="7.14981">
        <ele>314</ele>
        <time>2020-08-09T07:50:00Z</time>
      </trkpt>
      <trkpt lat="48.7232" lon="7.14975">
        <ele>313</ele>
        <time>2020-08-09T07:50:01Z</time>
      </trkpt>
      <trkpt lat="48.72326" lon="7.14967">
        <ele>312</ele>
        <time>2020-08-09T07:50:02Z</time>
      </trkpt>
      <trkpt lat="48.72334" lon="7.1496">
        <ele>311</ele>
        <time>2020-08-09T07:50:03Z</time>
      </trkpt>
      <trkpt lat="48.72342" lon="7.14953">
        <ele>310</ele>
        <time>2020-08-09T07:50:04Z</time>
      </trkpt>
      <trkpt lat="48.72348" lon="7.14946">
        <ele>310</ele>
        <time>2020-08-09T07:50:05Z</time>
      </trkpt>
      <trkpt lat="48.72355" lon="7.14939">
        <ele>309</ele>
        <time>2020-08-09T07:50:06Z</time>
      </trkpt>
      <trkpt lat="48.72361" lon="7.14932">
        <ele>308</ele>
        <time>2020-08-09T07:50:07Z</time>
      </trkpt>
      <trkpt lat="48.72368" lon="7.14925">
        <ele>308</ele>
        <time>2020-08-09T07:50:08Z</time>
      </trkpt>
      <trkpt lat="48.72375" lon="7.14918">
        <ele>307</ele>
        <time>2020-08-09T07:50:09Z</time>
      </trkpt>
      <trkpt lat="48.72382" lon="7.14911">
        <ele>307</ele>
        <time>2020-08-09T07:50:10Z</time>
      </trkpt>
      <trkpt lat="48.72389" lon="7.14905">
        <ele>306</ele>
        <time>2020-08-09T07:50:11Z</time>
      </trkpt>
      <trkpt lat="48.72395" lon="7.14898">
        <ele>306</ele>
        <time>2020-08-09T07:50:12Z</time>
      </trkpt>
      <trkpt lat="48.72401" lon="7.1489">
        <ele>305</ele>
        <time>2020-08-09T07:50:13Z</time>
      </trkpt>
      <trkpt lat="48.72407" lon="7.14882">
        <ele>305</ele>
        <time>2020-08-09T07:50:14Z</time>
      </trkpt>
      <trkpt lat="48.72413" lon="7.14874">
        <ele>304</ele>
        <time>2020-08-09T07:50:15Z</time>
      </trkpt>
      <trkpt lat="48.7242" lon="7.14867">
        <ele>304</ele>
        <time>2020-08-09T07:50:16Z</time>
      </trkpt>
      <trkpt lat="48.72426" lon="7.14859">
        <ele>304</ele>
        <time>2020-08-09T07:50:17Z</time>
      </trkpt>
      <trkpt lat="48.72432" lon="7.14852">
        <ele>303</ele>
        <time>2020-08-09T07:50:18Z</time>
      </trkpt>
      <trkpt lat="48.72438" lon="7.14846">
        <ele>303</ele>
        <time>2020-08-09T07:50:19Z</time>
      </trkpt>
      <trkpt lat="48.72443" lon="7.1484">
        <ele>302</ele>
        <time>2020-08-09T07:50:20Z</time>
      </trkpt>
      <trkpt lat="48.72448" lon="7.14834">
        <ele>301</ele>
        <time>2020-08-09T07:50:21Z</time>
      </trkpt>
      <trkpt lat="48.72452" lon="7.14829">
        <ele>300</ele>
        <time>2020-08-09T07:50:22Z</time>
      </trkpt>
      <trkpt lat="48.72457" lon="7.14824">
        <ele>300</ele>
        <time>2020-08-09T07:50:23Z</time>
      </trkpt>
      <trkpt lat="48.72461" lon="7.14819">
        <ele>299</ele>
        <time>2020-08-09T07:50:24Z</time>
      </trkpt>
      <trkpt lat="48.72464" lon="7.14814">
        <ele>299</ele>
        <time>2020-08-09T07:50:25Z</time>
      </trkpt>
      <trkpt lat="48.72471" lon="7.14806">
        <ele>299</ele>
        <time>2020-08-09T07:50:27Z</time>
      </trkpt>
      <trkpt lat="48.72478" lon="7.14797">
        <ele>299</ele>
        <time>2020-08-09T07:50:29Z</time>
      </trkpt>
      <trkpt lat="48.72483" lon="7.14791">
        <ele>299</ele>
        <time>2020-08-09T07:50:31Z</time>
      </trkpt>
      <trkpt lat="48.72488" lon="7.14787">
        <ele>299</ele>
        <time>2020-08-09T07:50:34Z</time>
      </trkpt>
      <trkpt lat="48.72493" lon="7.14783">
        <ele>299</ele>
        <time>2020-08-09T07:50:36Z</time>
      </trkpt>
      <trkpt lat="48.72495" lon="7.14774">
        <ele>298</ele>
        <time>2020-08-09T07:50:38Z</time>
      </trkpt>
      <trkpt lat="48.72494" lon="7.14763">
        <ele>298</ele>
        <time>2020-08-09T07:50:40Z</time>
      </trkpt>
      <trkpt lat="48.72495" lon="7.14753">
        <ele>297</ele>
        <time>2020-08-09T07:50:42Z</time>
      </trkpt>
      <trkpt lat="48.72495" lon="7.14742">
        <ele>297</ele>
        <time>2020-08-09T07:50:44Z</time>
      </trkpt>
      <trkpt lat="48.72497" lon="7.1473">
        <ele>297</ele>
        <time>2020-08-09T07:50:46Z</time>
      </trkpt>
      <trkpt lat="48.72497" lon="7.14717">
        <ele>297</ele>
        <time>2020-08-09T07:50:48Z</time>
      </trkpt>
      <trkpt lat="48.72498" lon="7.1471">
        <ele>297</ele>
        <time>2020-08-09T07:50:49Z</time>
      </trkpt>
      <trkpt lat="48.72498" lon="7.14703">
        <ele>297</ele>
        <time>2020-08-09T07:50:50Z</time>
      </trkpt>
      <trkpt lat="48.72499" lon="7.14689">
        <ele>297</ele>
        <time>2020-08-09T07:50:52Z</time>
      </trkpt>
      <trkpt lat="48.725" lon="7.14682">
        <ele>297</ele>
        <time>2020-08-09T07:50:53Z</time>
      </trkpt>
      <trkpt lat="48.725" lon="7.14675">
        <ele>297</ele>
        <time>2020-08-09T07:50:54Z</time>
      </trkpt>
      <trkpt lat="48.72501" lon="7.14667">
        <ele>296</ele>
        <time>2020-08-09T07:50:55Z</time>
      </trkpt>
      <trkpt lat="48.72501" lon="7.14659">
        <ele>296</ele>
        <time>2020-08-09T07:50:56Z</time>
      </trkpt>
      <trkpt lat="48.72501" lon="7.14651">
        <ele>296</ele>
        <time>2020-08-09T07:50:57Z</time>
      </trkpt>
      <trkpt lat="48.72502" lon="7.14642">
        <ele>296</ele>
        <time>2020-08-09T07:50:58Z</time>
      </trkpt>
      <trkpt lat="48.72503" lon="7.14634">
        <ele>295</ele>
        <time>2020-08-09T07:50:59Z</time>
      </trkpt>
      <trkpt lat="48.72504" lon="7.14624">
        <ele>295</ele>
        <time>2020-08-09T07:51:00Z</time>
      </trkpt>
      <trkpt lat="48.72504" lon="7.14615">
        <ele>295</ele>
        <time>2020-08-09T07:51:01Z</time>
      </trkpt>
      <trkpt lat="48.72505" lon="7.14606">
        <ele>295</ele>
        <time>2020-08-09T07:51:02Z</time>
      </trkpt>
      <trkpt lat="48.72506" lon="7.14596">
        <ele>294</ele>
        <time>2020-08-09T07:51:03Z</time>
      </trkpt>
      <trkpt lat="48.72506" lon="7.14587">
        <ele>294</ele>
        <time>2020-08-09T07:51:04Z</time>
      </trkpt>
      <trkpt lat="48.72508" lon="7.14577">
        <ele>294</ele>
        <time>2020-08-09T07:51:05Z</time>
      </trkpt>
      <trkpt lat="48.72508" lon="7.14568">
        <ele>293</ele>
        <time>2020-08-09T07:51:06Z</time>
      </trkpt>
      <trkpt lat="48.72508" lon="7.14559">
        <ele>293</ele>
        <time>2020-08-09T07:51:07Z</time>
      </trkpt>
      <trkpt lat="48.72507" lon="7.14549">
        <ele>293</ele>
        <time>2020-08-09T07:51:08Z</time>
      </trkpt>
      <trkpt lat="48.72506" lon="7.14541">
        <ele>293</ele>
        <time>2020-08-09T07:51:09Z</time>
      </trkpt>
      <trkpt lat="48.72504" lon="7.14534">
        <ele>293</ele>
        <time>2020-08-09T07:51:10Z</time>
      </trkpt>
      <trkpt lat="48.72501" lon="7.14526">
        <ele>293</ele>
        <time>2020-08-09T07:51:11Z</time>
      </trkpt>
      <trkpt lat="48.72498" lon="7.14519">
        <ele>292</ele>
        <time>2020-08-09T07:51:12Z</time>
      </trkpt>
      <trkpt lat="48.72495" lon="7.14512">
        <ele>292</ele>
        <time>2020-08-09T07:51:13Z</time>
      </trkpt>
      <trkpt lat="48.72492" lon="7.14505">
        <ele>292</ele>
        <time>2020-08-09T07:51:14Z</time>
      </trkpt>
      <trkpt lat="48.72488" lon="7.14499">
        <ele>292</ele>
        <time>2020-08-09T07:51:15Z</time>
      </trkpt>
      <trkpt lat="48.72485" lon="7.14493">
        <ele>292</ele>
        <time>2020-08-09T07:51:16Z</time>
      </trkpt>
      <trkpt lat="48.72482" lon="7.14486">
        <ele>291</ele>
        <time>2020-08-09T07:51:17Z</time>
      </trkpt>
      <trkpt lat="48.72479" lon="7.1448">
        <ele>291</ele>
        <time>2020-08-09T07:51:18Z</time>
      </trkpt>
      <trkpt lat="48.72476" lon="7.14475">
        <ele>291</ele>
        <time>2020-08-09T07:51:19Z</time>
      </trkpt>
      <trkpt lat="48.72471" lon="7.14464">
        <ele>291</ele>
        <time>2020-08-09T07:51:21Z</time>
      </trkpt>
      <trkpt lat="48.72468" lon="7.14459">
        <ele>291</ele>
        <time>2020-08-09T07:51:22Z</time>
      </trkpt>
      <trkpt lat="48.72465" lon="7.14453">
        <ele>291</ele>
        <time>2020-08-09T07:51:23Z</time>
      </trkpt>
      <trkpt lat="48.7246" lon="7.14443">
        <ele>291</ele>
        <time>2020-08-09T07:51:25Z</time>
      </trkpt>
      <trkpt lat="48.72455" lon="7.14433">
        <ele>290</ele>
        <time>2020-08-09T07:51:27Z</time>
      </trkpt>
      <trkpt lat="48.7245" lon="7.14423">
        <ele>289</ele>
        <time>2020-08-09T07:51:29Z</time>
      </trkpt>
      <trkpt lat="48.72444" lon="7.14413">
        <ele>289</ele>
        <time>2020-08-09T07:51:31Z</time>
      </trkpt>
      <trkpt lat="48.72438" lon="7.14403">
        <ele>288</ele>
        <time>2020-08-09T07:51:33Z</time>
      </trkpt>
      <trkpt lat="48.72433" lon="7.14391">
        <ele>288</ele>
        <time>2020-08-09T07:51:35Z</time>
      </trkpt>
      <trkpt lat="48.7243" lon="7.14386">
        <ele>288</ele>
        <time>2020-08-09T07:51:36Z</time>
      </trkpt>
      <trkpt lat="48.72427" lon="7.1438">
        <ele>288</ele>
        <time>2020-08-09T07:51:37Z</time>
      </trkpt>
      <trkpt lat="48.72424" lon="7.14375">
        <ele>287</ele>
        <time>2020-08-09T07:51:38Z</time>
      </trkpt>
      <trkpt lat="48.72421" lon="7.14369">
        <ele>287</ele>
        <time>2020-08-09T07:51:39Z</time>
      </trkpt>
      <trkpt lat="48.72417" lon="7.14364">
        <ele>287</ele>
        <time>2020-08-09T07:51:40Z</time>
      </trkpt>
      <trkpt lat="48.72412" lon="7.14354">
        <ele>287</ele>
        <time>2020-08-09T07:51:42Z</time>
      </trkpt>
      <trkpt lat="48.72409" lon="7.14348">
        <ele>287</ele>
        <time>2020-08-09T07:51:43Z</time>
      </trkpt>
      <trkpt lat="48.72407" lon="7.14341">
        <ele>287</ele>
        <time>2020-08-09T07:51:44Z</time>
      </trkpt>
      <trkpt lat="48.72405" lon="7.14335">
        <ele>287</ele>
        <time>2020-08-09T07:51:45Z</time>
      </trkpt>
      <trkpt lat="48.72403" lon="7.14327">
        <ele>286</ele>
        <time>2020-08-09T07:51:46Z</time>
      </trkpt>
      <trkpt lat="48.72403" lon="7.1432">
        <ele>286</ele>
        <time>2020-08-09T07:51:47Z</time>
      </trkpt>
      <trkpt lat="48.72404" lon="7.14313">
        <ele>286</ele>
        <time>2020-08-09T07:51:48Z</time>
      </trkpt>
      <trkpt lat="48.72408" lon="7.143">
        <ele>286</ele>
        <time>2020-08-09T07:51:50Z</time>
      </trkpt>
      <trkpt lat="48.72411" lon="7.14294">
        <ele>286</ele>
        <time>2020-08-09T07:51:51Z</time>
      </trkpt>
      <trkpt lat="48.72413" lon="7.14288">
        <ele>286</ele>
        <time>2020-08-09T07:51:52Z</time>
      </trkpt>
      <trkpt lat="48.72419" lon="7.14278">
        <ele>286</ele>
        <time>2020-08-09T07:51:54Z</time>
      </trkpt>
      <trkpt lat="48.72422" lon="7.14272">
        <ele>286</ele>
        <time>2020-08-09T07:51:55Z</time>
      </trkpt>
      <trkpt lat="48.72426" lon="7.14267">
        <ele>286</ele>
        <time>2020-08-09T07:51:56Z</time>
      </trkpt>
      <trkpt lat="48.72429" lon="7.14262">
        <ele>286</ele>
        <time>2020-08-09T07:51:57Z</time>
      </trkpt>
      <trkpt lat="48.72432" lon="7.14256">
        <ele>286</ele>
        <time>2020-08-09T07:51:58Z</time>
      </trkpt>
      <trkpt lat="48.72435" lon="7.1425">
        <ele>286</ele>
        <time>2020-08-09T07:51:59Z</time>
      </trkpt>
      <trkpt lat="48.72438" lon="7.14245">
        <ele>286</ele>
        <time>2020-08-09T07:52:00Z</time>
      </trkpt>
      <trkpt lat="48.72442" lon="7.14239">
        <ele>286</ele>
        <time>2020-08-09T07:52:01Z</time>
      </trkpt>
      <trkpt lat="48.72445" lon="7.14233">
        <ele>286</ele>
        <time>2020-08-09T07:52:02Z</time>
      </trkpt>
      <trkpt lat="48.72447" lon="7.14227">
        <ele>286</ele>
        <time>2020-08-09T07:52:03Z</time>
      </trkpt>
      <trkpt lat="48.7245" lon="7.14222">
        <ele>286</ele>
        <time>2020-08-09T07:52:04Z</time>
      </trkpt>
      <trkpt lat="48.72453" lon="7.14216">
        <ele>286</ele>
        <time>2020-08-09T07:52:05Z</time>
      </trkpt>
      <trkpt lat="48.72455" lon="7.1421">
        <ele>287</ele>
        <time>2020-08-09T07:52:06Z</time>
      </trkpt>
      <trkpt lat="48.72458" lon="7.14204">
        <ele>287</ele>
        <time>2020-08-09T07:52:07Z</time>
      </trkpt>
      <trkpt lat="48.7246" lon="7.14198">
        <ele>287</ele>
        <time>2020-08-09T07:52:08Z</time>
      </trkpt>
      <trkpt lat="48.72465" lon="7.14187">
        <ele>287</ele>
        <time>2020-08-09T07:52:10Z</time>
      </trkpt>
      <trkpt lat="48.72468" lon="7.14175">
        <ele>286</ele>
        <time>2020-08-09T07:52:12Z</time>
      </trkpt>
      <trkpt lat="48.72473" lon="7.14164">
        <ele>286</ele>
        <time>2020-08-09T07:52:14Z</time>
      </trkpt>
      <trkpt lat="48.72476" lon="7.14151">
        <ele>285</ele>
        <time>2020-08-09T07:52:16Z</time>
      </trkpt>
      <trkpt lat="48.72478" lon="7.14144">
        <ele>285</ele>
        <time>2020-08-09T07:52:17Z</time>
      </trkpt>
      <trkpt lat="48.7248" lon="7.14131">
        <ele>284</ele>
        <time>2020-08-09T07:52:19Z</time>
      </trkpt>
      <trkpt lat="48.72483" lon="7.14117">
        <ele>283</ele>
        <time>2020-08-09T07:52:21Z</time>
      </trkpt>
      <trkpt lat="48.72483" lon="7.14109">
        <ele>283</ele>
        <time>2020-08-09T07:52:22Z</time>
      </trkpt>
      <trkpt lat="48.72483" lon="7.14102">
        <ele>282</ele>
        <time>2020-08-09T07:52:23Z</time>
      </trkpt>
      <trkpt lat="48.72482" lon="7.14094">
        <ele>282</ele>
        <time>2020-08-09T07:52:24Z</time>
      </trkpt>
      <trkpt lat="48.72482" lon="7.14086">
        <ele>282</ele>
        <time>2020-08-09T07:52:25Z</time>
      </trkpt>
      <trkpt lat="48.72481" lon="7.14078">
        <ele>282</ele>
        <time>2020-08-09T07:52:26Z</time>
      </trkpt>
      <trkpt lat="48.72481" lon="7.1407">
        <ele>281</ele>
        <time>2020-08-09T07:52:27Z</time>
      </trkpt>
      <trkpt lat="48.7248" lon="7.14062">
        <ele>281</ele>
        <time>2020-08-09T07:52:28Z</time>
      </trkpt>
      <trkpt lat="48.7248" lon="7.14054">
        <ele>281</ele>
        <time>2020-08-09T07:52:29Z</time>
      </trkpt>
      <trkpt lat="48.72478" lon="7.14047">
        <ele>281</ele>
        <time>2020-08-09T07:52:30Z</time>
      </trkpt>
      <trkpt lat="48.72476" lon="7.1404">
        <ele>281</ele>
        <time>2020-08-09T07:52:31Z</time>
      </trkpt>
      <trkpt lat="48.72474" lon="7.14033">
        <ele>281</ele>
        <time>2020-08-09T07:52:32Z</time>
      </trkpt>
      <trkpt lat="48.72472" lon="7.14026">
        <ele>281</ele>
        <time>2020-08-09T07:52:33Z</time>
      </trkpt>
      <trkpt lat="48.72469" lon="7.14019">
        <ele>281</ele>
        <time>2020-08-09T07:52:34Z</time>
      </trkpt>
      <trkpt lat="48.72468" lon="7.14012">
        <ele>281</ele>
        <time>2020-08-09T07:52:35Z</time>
      </trkpt>
      <trkpt lat="48.72464" lon="7.14005">
        <ele>281</ele>
        <time>2020-08-09T07:52:36Z</time>
      </trkpt>
      <trkpt lat="48.72462" lon="7.13998">
        <ele>281</ele>
        <time>2020-08-09T07:52:37Z</time>
      </trkpt>
      <trkpt lat="48.72459" lon="7.13991">
        <ele>282</ele>
        <time>2020-08-09T07:52:38Z</time>
      </trkpt>
      <trkpt lat="48.72457" lon="7.13985">
        <ele>282</ele>
        <time>2020-08-09T07:52:39Z</time>
      </trkpt>
      <trkpt lat="48.72454" lon="7.13978">
        <ele>282</ele>
        <time>2020-08-09T07:52:40Z</time>
      </trkpt>
      <trkpt lat="48.7245" lon="7.13965">
        <ele>282</ele>
        <time>2020-08-09T07:52:42Z</time>
      </trkpt>
      <trkpt lat="48.72448" lon="7.13959">
        <ele>282</ele>
        <time>2020-08-09T07:52:43Z</time>
      </trkpt>
      <trkpt lat="48.72445" lon="7.13952">
        <ele>282</ele>
        <time>2020-08-09T07:52:44Z</time>
      </trkpt>
      <trkpt lat="48.72443" lon="7.13945">
        <ele>282</ele>
        <time>2020-08-09T07:52:45Z</time>
      </trkpt>
      <trkpt lat="48.7244" lon="7.13939">
        <ele>282</ele>
        <time>2020-08-09T07:52:46Z</time>
      </trkpt>
      <trkpt lat="48.72438" lon="7.13932">
        <ele>282</ele>
        <time>2020-08-09T07:52:47Z</time>
      </trkpt>
      <trkpt lat="48.72435" lon="7.13926">
        <ele>282</ele>
        <time>2020-08-09T07:52:48Z</time>
      </trkpt>
      <trkpt lat="48.72433" lon="7.13919">
        <ele>282</ele>
        <time>2020-08-09T07:52:49Z</time>
      </trkpt>
      <trkpt lat="48.72431" lon="7.13911">
        <ele>282</ele>
        <time>2020-08-09T07:52:50Z</time>
      </trkpt>
      <trkpt lat="48.72429" lon="7.13904">
        <ele>282</ele>
        <time>2020-08-09T07:52:51Z</time>
      </trkpt>
      <trkpt lat="48.72427" lon="7.13898">
        <ele>282</ele>
        <time>2020-08-09T07:52:52Z</time>
      </trkpt>
      <trkpt lat="48.72426" lon="7.13891">
        <ele>282</ele>
        <time>2020-08-09T07:52:53Z</time>
      </trkpt>
      <trkpt lat="48.72423" lon="7.13884">
        <ele>282</ele>
        <time>2020-08-09T07:52:54Z</time>
      </trkpt>
      <trkpt lat="48.72421" lon="7.13878">
        <ele>282</ele>
        <time>2020-08-09T07:52:55Z</time>
      </trkpt>
      <trkpt lat="48.72419" lon="7.13871">
        <ele>282</ele>
        <time>2020-08-09T07:52:56Z</time>
      </trkpt>
      <trkpt lat="48.72418" lon="7.13864">
        <ele>282</ele>
        <time>2020-08-09T07:52:57Z</time>
      </trkpt>
      <trkpt lat="48.72416" lon="7.13858">
        <ele>282</ele>
        <time>2020-08-09T07:52:58Z</time>
      </trkpt>
      <trkpt lat="48.72412" lon="7.13839">
        <ele>282</ele>
        <time>2020-08-09T07:53:01Z</time>
      </trkpt>
      <trkpt lat="48.72409" lon="7.13833">
        <ele>283</ele>
        <time>2020-08-09T07:53:02Z</time>
      </trkpt>
      <trkpt lat="48.72408" lon="7.13826">
        <ele>283</ele>
        <time>2020-08-09T07:53:03Z</time>
      </trkpt>
      <trkpt lat="48.72402" lon="7.13808">
        <ele>283</ele>
        <time>2020-08-09T07:53:06Z</time>
      </trkpt>
      <trkpt lat="48.72401" lon="7.13801">
        <ele>283</ele>
        <time>2020-08-09T07:53:07Z</time>
      </trkpt>
      <trkpt lat="48.72399" lon="7.13795">
        <ele>283</ele>
        <time>2020-08-09T07:53:08Z</time>
      </trkpt>
      <trkpt lat="48.72397" lon="7.13788">
        <ele>283</ele>
        <time>2020-08-09T07:53:09Z</time>
      </trkpt>
      <trkpt lat="48.72393" lon="7.13776">
        <ele>283</ele>
        <time>2020-08-09T07:53:11Z</time>
      </trkpt>
      <trkpt lat="48.72392" lon="7.13769">
        <ele>283</ele>
        <time>2020-08-09T07:53:12Z</time>
      </trkpt>
      <trkpt lat="48.7239" lon="7.13763">
        <ele>284</ele>
        <time>2020-08-09T07:53:13Z</time>
      </trkpt>
      <trkpt lat="48.72388" lon="7.13756">
        <ele>284</ele>
        <time>2020-08-09T07:53:14Z</time>
      </trkpt>
      <trkpt lat="48.72386" lon="7.1375">
        <ele>284</ele>
        <time>2020-08-09T07:53:15Z</time>
      </trkpt>
      <trkpt lat="48.72383" lon="7.13738">
        <ele>284</ele>
        <time>2020-08-09T07:53:17Z</time>
      </trkpt>
      <trkpt lat="48.72379" lon="7.13725">
        <ele>284</ele>
        <time>2020-08-09T07:53:19Z</time>
      </trkpt>
      <trkpt lat="48.72377" lon="7.13719">
        <ele>284</ele>
        <time>2020-08-09T07:53:20Z</time>
      </trkpt>
      <trkpt lat="48.72376" lon="7.13712">
        <ele>284</ele>
        <time>2020-08-09T07:53:21Z</time>
      </trkpt>
      <trkpt lat="48.72373" lon="7.13699">
        <ele>285</ele>
        <time>2020-08-09T07:53:23Z</time>
      </trkpt>
      <trkpt lat="48.72371" lon="7.13686">
        <ele>284</ele>
        <time>2020-08-09T07:53:25Z</time>
      </trkpt>
      <trkpt lat="48.72369" lon="7.13673">
        <ele>284</ele>
        <time>2020-08-09T07:53:27Z</time>
      </trkpt>
      <trkpt lat="48.72368" lon="7.13666">
        <ele>283</ele>
        <time>2020-08-09T07:53:28Z</time>
      </trkpt>
      <trkpt lat="48.72366" lon="7.13654">
        <ele>283</ele>
        <time>2020-08-09T07:53:30Z</time>
      </trkpt>
      <trkpt lat="48.72364" lon="7.13641">
        <ele>283</ele>
        <time>2020-08-09T07:53:32Z</time>
      </trkpt>
      <trkpt lat="48.72363" lon="7.13628">
        <ele>284</ele>
        <time>2020-08-09T07:53:34Z</time>
      </trkpt>
      <trkpt lat="48.7236" lon="7.13616">
        <ele>284</ele>
        <time>2020-08-09T07:53:36Z</time>
      </trkpt>
      <trkpt lat="48.72358" lon="7.13604">
        <ele>284</ele>
        <time>2020-08-09T07:53:38Z</time>
      </trkpt>
      <trkpt lat="48.72357" lon="7.13592">
        <ele>284</ele>
        <time>2020-08-09T07:53:40Z</time>
      </trkpt>
      <trkpt lat="48.72358" lon="7.1358">
        <ele>284</ele>
        <time>2020-08-09T07:53:42Z</time>
      </trkpt>
      <trkpt lat="48.72358" lon="7.13567">
        <ele>284</ele>
        <time>2020-08-09T07:53:44Z</time>
      </trkpt>
      <trkpt lat="48.7236" lon="7.13555">
        <ele>284</ele>
        <time>2020-08-09T07:53:46Z</time>
      </trkpt>
      <trkpt lat="48.72363" lon="7.13544">
        <ele>284</ele>
        <time>2020-08-09T07:53:48Z</time>
      </trkpt>
      <trkpt lat="48.72363" lon="7.13532">
        <ele>284</ele>
        <time>2020-08-09T07:53:50Z</time>
      </trkpt>
      <trkpt lat="48.72364" lon="7.13521">
        <ele>284</ele>
        <time>2020-08-09T07:53:52Z</time>
      </trkpt>
      <trkpt lat="48.72366" lon="7.13509">
        <ele>284</ele>
        <time>2020-08-09T07:53:54Z</time>
      </trkpt>
      <trkpt lat="48.72367" lon="7.13499">
        <ele>284</ele>
        <time>2020-08-09T07:53:56Z</time>
      </trkpt>
      <trkpt lat="48.72368" lon="7.13487">
        <ele>284</ele>
        <time>2020-08-09T07:53:58Z</time>
      </trkpt>
      <trkpt lat="48.72369" lon="7.13475">
        <ele>284</ele>
        <time>2020-08-09T07:54:00Z</time>
      </trkpt>
      <trkpt lat="48.72369" lon="7.13464">
        <ele>284</ele>
        <time>2020-08-09T07:54:02Z</time>
      </trkpt>
      <trkpt lat="48.72367" lon="7.13454">
        <ele>285</ele>
        <time>2020-08-09T07:54:04Z</time>
      </trkpt>
      <trkpt lat="48.72363" lon="7.13445">
        <ele>286</ele>
        <time>2020-08-09T07:54:06Z</time>
      </trkpt>
      <trkpt lat="48.7236" lon="7.13436">
        <ele>286</ele>
        <time>2020-08-09T07:54:08Z</time>
      </trkpt>
      <trkpt lat="48.72358" lon="7.13426">
        <ele>286</ele>
        <time>2020-08-09T07:54:10Z</time>
      </trkpt>
      <trkpt lat="48.72359" lon="7.13416">
        <ele>285</ele>
        <time>2020-08-09T07:54:12Z</time>
      </trkpt>
      <trkpt lat="48.72359" lon="7.13406">
        <ele>286</ele>
        <time>2020-08-09T07:54:14Z</time>
      </trkpt>
      <trkpt lat="48.7236" lon="7.13396">
        <ele>287</ele>
        <time>2020-08-09T07:54:16Z</time>
      </trkpt>
      <trkpt lat="48.72362" lon="7.13386">
        <ele>287</ele>
        <time>2020-08-09T07:54:18Z</time>
      </trkpt>
      <trkpt lat="48.72363" lon="7.13377">
        <ele>288</ele>
        <time>2020-08-09T07:54:20Z</time>
      </trkpt>
      <trkpt lat="48.72365" lon="7.13368">
        <ele>290</ele>
        <time>2020-08-09T07:54:22Z</time>
      </trkpt>
      <trkpt lat="48.72367" lon="7.1336">
        <ele>291</ele>
        <time>2020-08-09T07:54:24Z</time>
      </trkpt>
      <trkpt lat="48.72368" lon="7.13354">
        <ele>291</ele>
        <time>2020-08-09T07:54:26Z</time>
      </trkpt>
      <trkpt lat="48.72371" lon="7.13345">
        <ele>290</ele>
        <time>2020-08-09T07:54:29Z</time>
      </trkpt>
      <trkpt lat="48.72373" lon="7.13339">
        <ele>290</ele>
        <time>2020-08-09T07:54:35Z</time>
      </trkpt>
      <trkpt lat="48.72379" lon="7.1334">
        <ele>289</ele>
        <time>2020-08-09T07:55:03Z</time>
      </trkpt>
      <trkpt lat="48.72385" lon="7.13338">
        <ele>288</ele>
        <time>2020-08-09T07:55:06Z</time>
      </trkpt>
      <trkpt lat="48.72392" lon="7.13339">
        <ele>286</ele>
        <time>2020-08-09T07:55:10Z</time>
      </trkpt>
      <trkpt lat="48.72396" lon="7.13346">
        <ele>284</ele>
        <time>2020-08-09T07:55:13Z</time>
      </trkpt>
      <trkpt lat="48.724" lon="7.13349">
        <ele>282</ele>
        <time>2020-08-09T07:55:16Z</time>
      </trkpt>
      <trkpt lat="48.72406" lon="7.13347">
        <ele>281</ele>
        <time>2020-08-09T07:55:21Z</time>
      </trkpt>
      <trkpt lat="48.7241" lon="7.13345">
        <ele>281</ele>
        <time>2020-08-09T07:55:51Z</time>
      </trkpt>
      <trkpt lat="48.72405" lon="7.13342">
        <ele>282</ele>
        <time>2020-08-09T07:56:05Z</time>
      </trkpt>
      <trkpt lat="48.72409" lon="7.1334">
        <ele>282</ele>
        <time>2020-08-09T07:56:06Z</time>
      </trkpt>
      <trkpt lat="48.72403" lon="7.13341">
        <ele>283</ele>
        <time>2020-08-09T07:56:08Z</time>
      </trkpt>
      <trkpt lat="48.72398" lon="7.13334">
        <ele>286</ele>
        <time>2020-08-09T07:56:13Z</time>
      </trkpt>
      <trkpt lat="48.72392" lon="7.13335">
        <ele>287</ele>
        <time>2020-08-09T07:56:16Z</time>
      </trkpt>
      <trkpt lat="48.72385" lon="7.1334">
        <ele>288</ele>
        <time>2020-08-09T07:56:18Z</time>
      </trkpt>
      <trkpt lat="48.7238" lon="7.13346">
        <ele>289</ele>
        <time>2020-08-09T07:56:19Z</time>
      </trkpt>
      <trkpt lat="48.72377" lon="7.1334">
        <ele>290</ele>
        <time>2020-08-09T07:56:23Z</time>
      </trkpt>
      <trkpt lat="48.72367" lon="7.13266">
        <ele>292</ele>
        <time>2020-08-09T07:57:23Z</time>
      </trkpt>
      <trkpt lat="48.72364" lon="7.1326">
        <ele>293</ele>
        <time>2020-08-09T07:57:25Z</time>
      </trkpt>
      <trkpt lat="48.72362" lon="7.13254">
        <ele>293</ele>
        <time>2020-08-09T07:57:27Z</time>
      </trkpt>
      <trkpt lat="48.72359" lon="7.13249">
        <ele>293</ele>
        <time>2020-08-09T07:57:29Z</time>
      </trkpt>
      <trkpt lat="48.72356" lon="7.13244">
        <ele>293</ele>
        <time>2020-08-09T07:57:31Z</time>
      </trkpt>
      <trkpt lat="48.72353" lon="7.13235">
        <ele>294</ele>
        <time>2020-08-09T07:57:34Z</time>
      </trkpt>
      <trkpt lat="48.7235" lon="7.13228">
        <ele>294</ele>
        <time>2020-08-09T07:57:37Z</time>
      </trkpt>
      <trkpt lat="48.72346" lon="7.13221">
        <ele>294</ele>
        <time>2020-08-09T07:57:39Z</time>
      </trkpt>
      <trkpt lat="48.72342" lon="7.13215">
        <ele>294</ele>
        <time>2020-08-09T07:57:41Z</time>
      </trkpt>
      <trkpt lat="48.72339" lon="7.13208">
        <ele>295</ele>
        <time>2020-08-09T07:57:43Z</time>
      </trkpt>
      <trkpt lat="48.72336" lon="7.13202">
        <ele>295</ele>
        <time>2020-08-09T07:57:45Z</time>
      </trkpt>
      <trkpt lat="48.72333" lon="7.13195">
        <ele>295</ele>
        <time>2020-08-09T07:57:47Z</time>
      </trkpt>
      <trkpt lat="48.72331" lon="7.13189">
        <ele>295</ele>
        <time>2020-08-09T07:57:49Z</time>
      </trkpt>
      <trkpt lat="48.72327" lon="7.13184">
        <ele>295</ele>
        <time>2020-08-09T07:57:51Z</time>
      </trkpt>
      <trkpt lat="48.72325" lon="7.13178">
        <ele>295</ele>
        <time>2020-08-09T07:57:53Z</time>
      </trkpt>
      <trkpt lat="48.72321" lon="7.13172">
        <ele>295</ele>
        <time>2020-08-09T07:57:55Z</time>
      </trkpt>
      <trkpt lat="48.72317" lon="7.13166">
        <ele>295</ele>
        <time>2020-08-09T07:57:57Z</time>
      </trkpt>
      <trkpt lat="48.72313" lon="7.13157">
        <ele>295</ele>
        <time>2020-08-09T07:57:59Z</time>
      </trkpt>
      <trkpt lat="48.7231" lon="7.13148">
        <ele>296</ele>
        <time>2020-08-09T07:58:01Z</time>
      </trkpt>
      <trkpt lat="48.72306" lon="7.13139">
        <ele>296</ele>
        <time>2020-08-09T07:58:03Z</time>
      </trkpt>
      <trkpt lat="48.72302" lon="7.13131">
        <ele>296</ele>
        <time>2020-08-09T07:58:05Z</time>
      </trkpt>
      <trkpt lat="48.72298" lon="7.13123">
        <ele>296</ele>
        <time>2020-08-09T07:58:07Z</time>
      </trkpt>
      <trkpt lat="48.72295" lon="7.13114">
        <ele>296</ele>
        <time>2020-08-09T07:58:09Z</time>
      </trkpt>
      <trkpt lat="48.72291" lon="7.13106">
        <ele>297</ele>
        <time>2020-08-09T07:58:11Z</time>
      </trkpt>
      <trkpt lat="48.72287" lon="7.13097">
        <ele>297</ele>
        <time>2020-08-09T07:58:13Z</time>
      </trkpt>
      <trkpt lat="48.72283" lon="7.13088">
        <ele>297</ele>
        <time>2020-08-09T07:58:15Z</time>
      </trkpt>
      <trkpt lat="48.72278" lon="7.13079">
        <ele>297</ele>
        <time>2020-08-09T07:58:17Z</time>
      </trkpt>
      <trkpt lat="48.72273" lon="7.13069">
        <ele>297</ele>
        <time>2020-08-09T07:58:19Z</time>
      </trkpt>
      <trkpt lat="48.72269" lon="7.13058">
        <ele>298</ele>
        <time>2020-08-09T07:58:21Z</time>
      </trkpt>
      <trkpt lat="48.72264" lon="7.13047">
        <ele>297</ele>
        <time>2020-08-09T07:58:23Z</time>
      </trkpt>
      <trkpt lat="48.72261" lon="7.13041">
        <ele>297</ele>
        <time>2020-08-09T07:58:24Z</time>
      </trkpt>
      <trkpt lat="48.72256" lon="7.1303">
        <ele>296</ele>
        <time>2020-08-09T07:58:26Z</time>
      </trkpt>
      <trkpt lat="48.72253" lon="7.13023">
        <ele>296</ele>
        <time>2020-08-09T07:58:27Z</time>
      </trkpt>
      <trkpt lat="48.72251" lon="7.13016">
        <ele>296</ele>
        <time>2020-08-09T07:58:28Z</time>
      </trkpt>
      <trkpt lat="48.72248" lon="7.1301">
        <ele>296</ele>
        <time>2020-08-09T07:58:29Z</time>
      </trkpt>
      <trkpt lat="48.72245" lon="7.13004">
        <ele>296</ele>
        <time>2020-08-09T07:58:30Z</time>
      </trkpt>
      <trkpt lat="48.72242" lon="7.12997">
        <ele>296</ele>
        <time>2020-08-09T07:58:31Z</time>
      </trkpt>
      <trkpt lat="48.7224" lon="7.12991">
        <ele>296</ele>
        <time>2020-08-09T07:58:32Z</time>
      </trkpt>
      <trkpt lat="48.72236" lon="7.12984">
        <ele>295</ele>
        <time>2020-08-09T07:58:33Z</time>
      </trkpt>
      <trkpt lat="48.72233" lon="7.12977">
        <ele>294</ele>
        <time>2020-08-09T07:58:34Z</time>
      </trkpt>
      <trkpt lat="48.7223" lon="7.1297">
        <ele>294</ele>
        <time>2020-08-09T07:58:35Z</time>
      </trkpt>
      <trkpt lat="48.72227" lon="7.12962">
        <ele>293</ele>
        <time>2020-08-09T07:58:36Z</time>
      </trkpt>
      <trkpt lat="48.72223" lon="7.12956">
        <ele>293</ele>
        <time>2020-08-09T07:58:37Z</time>
      </trkpt>
      <trkpt lat="48.7222" lon="7.12949">
        <ele>292</ele>
        <time>2020-08-09T07:58:38Z</time>
      </trkpt>
      <trkpt lat="48.72217" lon="7.12941">
        <ele>292</ele>
        <time>2020-08-09T07:58:39Z</time>
      </trkpt>
      <trkpt lat="48.72214" lon="7.12935">
        <ele>291</ele>
        <time>2020-08-09T07:58:40Z</time>
      </trkpt>
      <trkpt lat="48.7221" lon="7.12929">
        <ele>290</ele>
        <time>2020-08-09T07:58:41Z</time>
      </trkpt>
      <trkpt lat="48.72207" lon="7.12923">
        <ele>289</ele>
        <time>2020-08-09T07:58:42Z</time>
      </trkpt>
      <trkpt lat="48.72203" lon="7.12917">
        <ele>288</ele>
        <time>2020-08-09T07:58:43Z</time>
      </trkpt>
      <trkpt lat="48.72199" lon="7.12913">
        <ele>287</ele>
        <time>2020-08-09T07:58:44Z</time>
      </trkpt>
      <trkpt lat="48.72194" lon="7.12909">
        <ele>287</ele>
        <time>2020-08-09T07:58:45Z</time>
      </trkpt>
      <trkpt lat="48.7219" lon="7.12905">
        <ele>287</ele>
        <time>2020-08-09T07:58:46Z</time>
      </trkpt>
      <trkpt lat="48.72186" lon="7.12903">
        <ele>286</ele>
        <time>2020-08-09T07:58:47Z</time>
      </trkpt>
      <trkpt lat="48.72181" lon="7.129">
        <ele>286</ele>
        <time>2020-08-09T07:58:48Z</time>
      </trkpt>
      <trkpt lat="48.72175" lon="7.12897">
        <ele>286</ele>
        <time>2020-08-09T07:58:49Z</time>
      </trkpt>
      <trkpt lat="48.7217" lon="7.12896">
        <ele>286</ele>
        <time>2020-08-09T07:58:50Z</time>
      </trkpt>
      <trkpt lat="48.72163" lon="7.12895">
        <ele>285</ele>
        <time>2020-08-09T07:58:52Z</time>
      </trkpt>
      <trkpt lat="48.72157" lon="7.12896">
        <ele>285</ele>
        <time>2020-08-09T07:58:54Z</time>
      </trkpt>
      <trkpt lat="48.7215" lon="7.12896">
        <ele>285</ele>
        <time>2020-08-09T07:58:56Z</time>
      </trkpt>
      <trkpt lat="48.72144" lon="7.12897">
        <ele>285</ele>
        <time>2020-08-09T07:58:58Z</time>
      </trkpt>
      <trkpt lat="48.72137" lon="7.12898">
        <ele>285</ele>
        <time>2020-08-09T07:59:00Z</time>
      </trkpt>
      <trkpt lat="48.7213" lon="7.12899">
        <ele>285</ele>
        <time>2020-08-09T07:59:02Z</time>
      </trkpt>
      <trkpt lat="48.72122" lon="7.12898">
        <ele>285</ele>
        <time>2020-08-09T07:59:04Z</time>
      </trkpt>
      <trkpt lat="48.72114" lon="7.12896">
        <ele>285</ele>
        <time>2020-08-09T07:59:06Z</time>
      </trkpt>
      <trkpt lat="48.7211" lon="7.12892">
        <ele>285</ele>
        <time>2020-08-09T07:59:07Z</time>
      </trkpt>
      <trkpt lat="48.72106" lon="7.1289">
        <ele>285</ele>
        <time>2020-08-09T07:59:08Z</time>
      </trkpt>
      <trkpt lat="48.72098" lon="7.12881">
        <ele>285</ele>
        <time>2020-08-09T07:59:10Z</time>
      </trkpt>
      <trkpt lat="48.72092" lon="7.12873">
        <ele>285</ele>
        <time>2020-08-09T07:59:12Z</time>
      </trkpt>
      <trkpt lat="48.72088" lon="7.12864">
        <ele>285</ele>
        <time>2020-08-09T07:59:14Z</time>
      </trkpt>
      <trkpt lat="48.72082" lon="7.12855">
        <ele>285</ele>
        <time>2020-08-09T07:59:16Z</time>
      </trkpt>
      <trkpt lat="48.72076" lon="7.12846">
        <ele>285</ele>
        <time>2020-08-09T07:59:18Z</time>
      </trkpt>
      <trkpt lat="48.72072" lon="7.12839">
        <ele>285</ele>
        <time>2020-08-09T07:59:20Z</time>
      </trkpt>
      <trkpt lat="48.72067" lon="7.12829">
        <ele>285</ele>
        <time>2020-08-09T07:59:22Z</time>
      </trkpt>
      <trkpt lat="48.72064" lon="7.12817">
        <ele>286</ele>
        <time>2020-08-09T07:59:24Z</time>
      </trkpt>
      <trkpt lat="48.72062" lon="7.12811">
        <ele>287</ele>
        <time>2020-08-09T07:59:25Z</time>
      </trkpt>
      <trkpt lat="48.7206" lon="7.12799">
        <ele>288</ele>
        <time>2020-08-09T07:59:27Z</time>
      </trkpt>
      <trkpt lat="48.7206" lon="7.12787">
        <ele>289</ele>
        <time>2020-08-09T07:59:29Z</time>
      </trkpt>
      <trkpt lat="48.72059" lon="7.12776">
        <ele>289</ele>
        <time>2020-08-09T07:59:31Z</time>
      </trkpt>
      <trkpt lat="48.72058" lon="7.12764">
        <ele>288</ele>
        <time>2020-08-09T07:59:33Z</time>
      </trkpt>
      <trkpt lat="48.72057" lon="7.12752">
        <ele>286</ele>
        <time>2020-08-09T07:59:35Z</time>
      </trkpt>
      <trkpt lat="48.72054" lon="7.12741">
        <ele>285</ele>
        <time>2020-08-09T07:59:37Z</time>
      </trkpt>
      <trkpt lat="48.72054" lon="7.12734">
        <ele>285</ele>
        <time>2020-08-09T07:59:38Z</time>
      </trkpt>
      <trkpt lat="48.72052" lon="7.12727">
        <ele>284</ele>
        <time>2020-08-09T07:59:39Z</time>
      </trkpt>
      <trkpt lat="48.72051" lon="7.1272">
        <ele>283</ele>
        <time>2020-08-09T07:59:40Z</time>
      </trkpt>
      <trkpt lat="48.7205" lon="7.12713">
        <ele>283</ele>
        <time>2020-08-09T07:59:41Z</time>
      </trkpt>
      <trkpt lat="48.72049" lon="7.12706">
        <ele>283</ele>
        <time>2020-08-09T07:59:42Z</time>
      </trkpt>
      <trkpt lat="48.72049" lon="7.12699">
        <ele>282</ele>
        <time>2020-08-09T07:59:43Z</time>
      </trkpt>
      <trkpt lat="48.72048" lon="7.12693">
        <ele>282</ele>
        <time>2020-08-09T07:59:44Z</time>
      </trkpt>
      <trkpt lat="48.72047" lon="7.12679">
        <ele>281</ele>
        <time>2020-08-09T07:59:46Z</time>
      </trkpt>
      <trkpt lat="48.72046" lon="7.12672">
        <ele>280</ele>
        <time>2020-08-09T07:59:47Z</time>
      </trkpt>
      <trkpt lat="48.72045" lon="7.12665">
        <ele>280</ele>
        <time>2020-08-09T07:59:48Z</time>
      </trkpt>
      <trkpt lat="48.72044" lon="7.12658">
        <ele>280</ele>
        <time>2020-08-09T07:59:49Z</time>
      </trkpt>
      <trkpt lat="48.72043" lon="7.1265">
        <ele>279</ele>
        <time>2020-08-09T07:59:50Z</time>
      </trkpt>
      <trkpt lat="48.72043" lon="7.12643">
        <ele>279</ele>
        <time>2020-08-09T07:59:51Z</time>
      </trkpt>
      <trkpt lat="48.72042" lon="7.12635">
        <ele>279</ele>
        <time>2020-08-09T07:59:52Z</time>
      </trkpt>
      <trkpt lat="48.72041" lon="7.12628">
        <ele>279</ele>
        <time>2020-08-09T07:59:53Z</time>
      </trkpt>
      <trkpt lat="48.72041" lon="7.12621">
        <ele>278</ele>
        <time>2020-08-09T07:59:54Z</time>
      </trkpt>
      <trkpt lat="48.72039" lon="7.12613">
        <ele>278</ele>
        <time>2020-08-09T07:59:55Z</time>
      </trkpt>
      <trkpt lat="48.72038" lon="7.12606">
        <ele>278</ele>
        <time>2020-08-09T07:59:56Z</time>
      </trkpt>
      <trkpt lat="48.72036" lon="7.12599">
        <ele>278</ele>
        <time>2020-08-09T07:59:57Z</time>
      </trkpt>
      <trkpt lat="48.72036" lon="7.12592">
        <ele>277</ele>
        <time>2020-08-09T07:59:58Z</time>
      </trkpt>
      <trkpt lat="48.72034" lon="7.12584">
        <ele>277</ele>
        <time>2020-08-09T07:59:59Z</time>
      </trkpt>
      <trkpt lat="48.72033" lon="7.12576">
        <ele>277</ele>
        <time>2020-08-09T08:00:00Z</time>
      </trkpt>
      <trkpt lat="48.72031" lon="7.12568">
        <ele>277</ele>
        <time>2020-08-09T08:00:01Z</time>
      </trkpt>
      <trkpt lat="48.72029" lon="7.1256">
        <ele>277</ele>
        <time>2020-08-09T08:00:02Z</time>
      </trkpt>
      <trkpt lat="48.72026" lon="7.12553">
        <ele>277</ele>
        <time>2020-08-09T08:00:03Z</time>
      </trkpt>
      <trkpt lat="48.72023" lon="7.12546">
        <ele>277</ele>
        <time>2020-08-09T08:00:04Z</time>
      </trkpt>
      <trkpt lat="48.72022" lon="7.12537">
        <ele>277</ele>
        <time>2020-08-09T08:00:05Z</time>
      </trkpt>
      <trkpt lat="48.7202" lon="7.12529">
        <ele>276</ele>
        <time>2020-08-09T08:00:06Z</time>
      </trkpt>
      <trkpt lat="48.72019" lon="7.12521">
        <ele>276</ele>
        <time>2020-08-09T08:00:07Z</time>
      </trkpt>
      <trkpt lat="48.72018" lon="7.12512">
        <ele>276</ele>
        <time>2020-08-09T08:00:08Z</time>
      </trkpt>
      <trkpt lat="48.72018" lon="7.12504">
        <ele>276</ele>
        <time>2020-08-09T08:00:09Z</time>
      </trkpt>
      <trkpt lat="48.72016" lon="7.12496">
        <ele>276</ele>
        <time>2020-08-09T08:00:10Z</time>
      </trkpt>
      <trkpt lat="48.72012" lon="7.1249">
        <ele>276</ele>
        <time>2020-08-09T08:00:11Z</time>
      </trkpt>
      <trkpt lat="48.72005" lon="7.12489">
        <ele>276</ele>
        <time>2020-08-09T08:00:12Z</time>
      </trkpt>
      <trkpt lat="48.71999" lon="7.12489">
        <ele>276</ele>
        <time>2020-08-09T08:00:13Z</time>
      </trkpt>
      <trkpt lat="48.71995" lon="7.12494">
        <ele>276</ele>
        <time>2020-08-09T08:00:14Z</time>
      </trkpt>
      <trkpt lat="48.71991" lon="7.12499">
        <ele>276</ele>
        <time>2020-08-09T08:00:15Z</time>
      </trkpt>
      <trkpt lat="48.71984" lon="7.12507">
        <ele>277</ele>
        <time>2020-08-09T08:00:17Z</time>
      </trkpt>
      <trkpt lat="48.71979" lon="7.12513">
        <ele>277</ele>
        <time>2020-08-09T08:00:19Z</time>
      </trkpt>
      <trkpt lat="48.71973" lon="7.12518">
        <ele>278</ele>
        <time>2020-08-09T08:00:21Z</time>
      </trkpt>
      <trkpt lat="48.71966" lon="7.1252">
        <ele>278</ele>
        <time>2020-08-09T08:00:23Z</time>
      </trkpt>
      <trkpt lat="48.7196" lon="7.12517">
        <ele>278</ele>
        <time>2020-08-09T08:00:25Z</time>
      </trkpt>
      <trkpt lat="48.71956" lon="7.12509">
        <ele>279</ele>
        <time>2020-08-09T08:00:27Z</time>
      </trkpt>
      <trkpt lat="48.71954" lon="7.12497">
        <ele>280</ele>
        <time>2020-08-09T08:00:29Z</time>
      </trkpt>
      <trkpt lat="48.71954" lon="7.12489">
        <ele>280</ele>
        <time>2020-08-09T08:00:30Z</time>
      </trkpt>
      <trkpt lat="48.71954" lon="7.12482">
        <ele>280</ele>
        <time>2020-08-09T08:00:31Z</time>
      </trkpt>
      <trkpt lat="48.71953" lon="7.12475">
        <ele>280</ele>
        <time>2020-08-09T08:00:32Z</time>
      </trkpt>
      <trkpt lat="48.71952" lon="7.12467">
        <ele>280</ele>
        <time>2020-08-09T08:00:33Z</time>
      </trkpt>
      <trkpt lat="48.71952" lon="7.12459">
        <ele>279</ele>
        <time>2020-08-09T08:00:34Z</time>
      </trkpt>
      <trkpt lat="48.71951" lon="7.12452">
        <ele>279</ele>
        <time>2020-08-09T08:00:35Z</time>
      </trkpt>
      <trkpt lat="48.7195" lon="7.12443">
        <ele>278</ele>
        <time>2020-08-09T08:00:36Z</time>
      </trkpt>
      <trkpt lat="48.71949" lon="7.12435">
        <ele>278</ele>
        <time>2020-08-09T08:00:37Z</time>
      </trkpt>
      <trkpt lat="48.71948" lon="7.12426">
        <ele>278</ele>
        <time>2020-08-09T08:00:38Z</time>
      </trkpt>
      <trkpt lat="48.71947" lon="7.12418">
        <ele>277</ele>
        <time>2020-08-09T08:00:39Z</time>
      </trkpt>
      <trkpt lat="48.71947" lon="7.12408">
        <ele>276</ele>
        <time>2020-08-09T08:00:40Z</time>
      </trkpt>
      <trkpt lat="48.71946" lon="7.12399">
        <ele>276</ele>
        <time>2020-08-09T08:00:41Z</time>
      </trkpt>
      <trkpt lat="48.71944" lon="7.1239">
        <ele>276</ele>
        <time>2020-08-09T08:00:42Z</time>
      </trkpt>
      <trkpt lat="48.71943" lon="7.12381">
        <ele>276</ele>
        <time>2020-08-09T08:00:43Z</time>
      </trkpt>
      <trkpt lat="48.71941" lon="7.12372">
        <ele>276</ele>
        <time>2020-08-09T08:00:44Z</time>
      </trkpt>
      <trkpt lat="48.71939" lon="7.12363">
        <ele>276</ele>
        <time>2020-08-09T08:00:45Z</time>
      </trkpt>
      <trkpt lat="48.71937" lon="7.12354">
        <ele>276</ele>
        <time>2020-08-09T08:00:46Z</time>
      </trkpt>
      <trkpt lat="48.71936" lon="7.12345">
        <ele>276</ele>
        <time>2020-08-09T08:00:47Z</time>
      </trkpt>
      <trkpt lat="48.71934" lon="7.12335">
        <ele>275</ele>
        <time>2020-08-09T08:00:48Z</time>
      </trkpt>
      <trkpt lat="48.71933" lon="7.12326">
        <ele>275</ele>
        <time>2020-08-09T08:00:49Z</time>
      </trkpt>
      <trkpt lat="48.71932" lon="7.12316">
        <ele>275</ele>
        <time>2020-08-09T08:00:50Z</time>
      </trkpt>
      <trkpt lat="48.7193" lon="7.12307">
        <ele>274</ele>
        <time>2020-08-09T08:00:51Z</time>
      </trkpt>
      <trkpt lat="48.71929" lon="7.12298">
        <ele>274</ele>
        <time>2020-08-09T08:00:52Z</time>
      </trkpt>
      <trkpt lat="48.71928" lon="7.12288">
        <ele>274</ele>
        <time>2020-08-09T08:00:53Z</time>
      </trkpt>
      <trkpt lat="48.71927" lon="7.12278">
        <ele>274</ele>
        <time>2020-08-09T08:00:54Z</time>
      </trkpt>
      <trkpt lat="48.71926" lon="7.12269">
        <ele>274</ele>
        <time>2020-08-09T08:00:55Z</time>
      </trkpt>
      <trkpt lat="48.71925" lon="7.1226">
        <ele>274</ele>
        <time>2020-08-09T08:00:56Z</time>
      </trkpt>
      <trkpt lat="48.71925" lon="7.1225">
        <ele>273</ele>
        <time>2020-08-09T08:00:57Z</time>
      </trkpt>
      <trkpt lat="48.71925" lon="7.12241">
        <ele>273</ele>
        <time>2020-08-09T08:00:58Z</time>
      </trkpt>
      <trkpt lat="48.71924" lon="7.12231">
        <ele>273</ele>
        <time>2020-08-09T08:00:59Z</time>
      </trkpt>
      <trkpt lat="48.71924" lon="7.12222">
        <ele>273</ele>
        <time>2020-08-09T08:01:00Z</time>
      </trkpt>
      <trkpt lat="48.71924" lon="7.12212">
        <ele>273</ele>
        <time>2020-08-09T08:01:01Z</time>
      </trkpt>
      <trkpt lat="48.71925" lon="7.12202">
        <ele>273</ele>
        <time>2020-08-09T08:01:02Z</time>
      </trkpt>
      <trkpt lat="48.71925" lon="7.12193">
        <ele>272</ele>
        <time>2020-08-09T08:01:03Z</time>
      </trkpt>
      <trkpt lat="48.71925" lon="7.12183">
        <ele>273</ele>
        <time>2020-08-09T08:01:04Z</time>
      </trkpt>
      <trkpt lat="48.71925" lon="7.12174">
        <ele>273</ele>
        <time>2020-08-09T08:01:05Z</time>
      </trkpt>
      <trkpt lat="48.71924" lon="7.12164">
        <ele>273</ele>
        <time>2020-08-09T08:01:06Z</time>
      </trkpt>
      <trkpt lat="48.71924" lon="7.12156">
        <ele>273</ele>
        <time>2020-08-09T08:01:07Z</time>
      </trkpt>
      <trkpt lat="48.71923" lon="7.12146">
        <ele>273</ele>
        <time>2020-08-09T08:01:08Z</time>
      </trkpt>
      <trkpt lat="48.71922" lon="7.12138">
        <ele>272</ele>
        <time>2020-08-09T08:01:09Z</time>
      </trkpt>
      <trkpt lat="48.71921" lon="7.12129">
        <ele>272</ele>
        <time>2020-08-09T08:01:10Z</time>
      </trkpt>
      <trkpt lat="48.7192" lon="7.1212">
        <ele>272</ele>
        <time>2020-08-09T08:01:11Z</time>
      </trkpt>
      <trkpt lat="48.71919" lon="7.12111">
        <ele>272</ele>
        <time>2020-08-09T08:01:12Z</time>
      </trkpt>
      <trkpt lat="48.71917" lon="7.12102">
        <ele>272</ele>
        <time>2020-08-09T08:01:13Z</time>
      </trkpt>
      <trkpt lat="48.71916" lon="7.12093">
        <ele>272</ele>
        <time>2020-08-09T08:01:14Z</time>
      </trkpt>
      <trkpt lat="48.71915" lon="7.12085">
        <ele>272</ele>
        <time>2020-08-09T08:01:15Z</time>
      </trkpt>
      <trkpt lat="48.71914" lon="7.12076">
        <ele>271</ele>
        <time>2020-08-09T08:01:16Z</time>
      </trkpt>
      <trkpt lat="48.71913" lon="7.12068">
        <ele>271</ele>
        <time>2020-08-09T08:01:17Z</time>
      </trkpt>
      <trkpt lat="48.71912" lon="7.1206">
        <ele>271</ele>
        <time>2020-08-09T08:01:18Z</time>
      </trkpt>
      <trkpt lat="48.71911" lon="7.12052">
        <ele>271</ele>
        <time>2020-08-09T08:01:19Z</time>
      </trkpt>
      <trkpt lat="48.71909" lon="7.12044">
        <ele>270</ele>
        <time>2020-08-09T08:01:20Z</time>
      </trkpt>
      <trkpt lat="48.71908" lon="7.12036">
        <ele>270</ele>
        <time>2020-08-09T08:01:21Z</time>
      </trkpt>
      <trkpt lat="48.71906" lon="7.12027">
        <ele>270</ele>
        <time>2020-08-09T08:01:22Z</time>
      </trkpt>
      <trkpt lat="48.71904" lon="7.12019">
        <ele>270</ele>
        <time>2020-08-09T08:01:23Z</time>
      </trkpt>
      <trkpt lat="48.71903" lon="7.1201">
        <ele>270</ele>
        <time>2020-08-09T08:01:24Z</time>
      </trkpt>
      <trkpt lat="48.71901" lon="7.12002">
        <ele>269</ele>
        <time>2020-08-09T08:01:25Z</time>
      </trkpt>
      <trkpt lat="48.71898" lon="7.11993">
        <ele>269</ele>
        <time>2020-08-09T08:01:26Z</time>
      </trkpt>
      <trkpt lat="48.71895" lon="7.11985">
        <ele>269</ele>
        <time>2020-08-09T08:01:27Z</time>
      </trkpt>
      <trkpt lat="48.71892" lon="7.11976">
        <ele>268</ele>
        <time>2020-08-09T08:01:28Z</time>
      </trkpt>
      <trkpt lat="48.71888" lon="7.11968">
        <ele>268</ele>
        <time>2020-08-09T08:01:29Z</time>
      </trkpt>
      <trkpt lat="48.71883" lon="7.1196">
        <ele>268</ele>
        <time>2020-08-09T08:01:30Z</time>
      </trkpt>
      <trkpt lat="48.71878" lon="7.11954">
        <ele>269</ele>
        <time>2020-08-09T08:01:31Z</time>
      </trkpt>
      <trkpt lat="48.71873" lon="7.11948">
        <ele>269</ele>
        <time>2020-08-09T08:01:32Z</time>
      </trkpt>
      <trkpt lat="48.71867" lon="7.11942">
        <ele>268</ele>
        <time>2020-08-09T08:01:33Z</time>
      </trkpt>
      <trkpt lat="48.71862" lon="7.11937">
        <ele>268</ele>
        <time>2020-08-09T08:01:34Z</time>
      </trkpt>
      <trkpt lat="48.71857" lon="7.11931">
        <ele>267</ele>
        <time>2020-08-09T08:01:35Z</time>
      </trkpt>
      <trkpt lat="48.71852" lon="7.11925">
        <ele>267</ele>
        <time>2020-08-09T08:01:36Z</time>
      </trkpt>
      <trkpt lat="48.71848" lon="7.11918">
        <ele>267</ele>
        <time>2020-08-09T08:01:37Z</time>
      </trkpt>
      <trkpt lat="48.71845" lon="7.1191">
        <ele>267</ele>
        <time>2020-08-09T08:01:38Z</time>
      </trkpt>
      <trkpt lat="48.71841" lon="7.11902">
        <ele>266</ele>
        <time>2020-08-09T08:01:39Z</time>
      </trkpt>
      <trkpt lat="48.71839" lon="7.11893">
        <ele>266</ele>
        <time>2020-08-09T08:01:40Z</time>
      </trkpt>
      <trkpt lat="48.71837" lon="7.11884">
        <ele>266</ele>
        <time>2020-08-09T08:01:41Z</time>
      </trkpt>
      <trkpt lat="48.71837" lon="7.11874">
        <ele>266</ele>
        <time>2020-08-09T08:01:42Z</time>
      </trkpt>
      <trkpt lat="48.71837" lon="7.11865">
        <ele>266</ele>
        <time>2020-08-09T08:01:43Z</time>
      </trkpt>
      <trkpt lat="48.71837" lon="7.11856">
        <ele>266</ele>
        <time>2020-08-09T08:01:44Z</time>
      </trkpt>
      <trkpt lat="48.71837" lon="7.11849">
        <ele>266</ele>
        <time>2020-08-09T08:01:45Z</time>
      </trkpt>
      <trkpt lat="48.71837" lon="7.11842">
        <ele>266</ele>
        <time>2020-08-09T08:01:46Z</time>
      </trkpt>
      <trkpt lat="48.71837" lon="7.1183">
        <ele>266</ele>
        <time>2020-08-09T08:01:48Z</time>
      </trkpt>
      <trkpt lat="48.71835" lon="7.1182">
        <ele>266</ele>
        <time>2020-08-09T08:01:50Z</time>
      </trkpt>
      <trkpt lat="48.71835" lon="7.11814">
        <ele>266</ele>
        <time>2020-08-09T08:01:52Z</time>
      </trkpt>
      <trkpt lat="48.71835" lon="7.11807">
        <ele>266</ele>
        <time>2020-08-09T08:02:21Z</time>
      </trkpt>
      <trkpt lat="48.71838" lon="7.11792">
        <ele>266</ele>
        <time>2020-08-09T08:02:56Z</time>
      </trkpt>
      <trkpt lat="48.71838" lon="7.11782">
        <ele>266</ele>
        <time>2020-08-09T08:02:59Z</time>
      </trkpt>
      <trkpt lat="48.71838" lon="7.11774">
        <ele>266</ele>
        <time>2020-08-09T08:03:01Z</time>
      </trkpt>
      <trkpt lat="48.71838" lon="7.11767">
        <ele>266</ele>
        <time>2020-08-09T08:03:03Z</time>
      </trkpt>
      <trkpt lat="48.71838" lon="7.11759">
        <ele>266</ele>
        <time>2020-08-09T08:03:06Z</time>
      </trkpt>
      <trkpt lat="48.71838" lon="7.11751">
        <ele>266</ele>
        <time>2020-08-09T08:03:09Z</time>
      </trkpt>
      <trkpt lat="48.71838" lon="7.11741">
        <ele>267</ele>
        <time>2020-08-09T08:03:12Z</time>
      </trkpt>
      <trkpt lat="48.71838" lon="7.11734">
        <ele>267</ele>
        <time>2020-08-09T08:03:14Z</time>
      </trkpt>
      <trkpt lat="48.71833" lon="7.11728">
        <ele>268</ele>
        <time>2020-08-09T08:03:17Z</time>
      </trkpt>
      <trkpt lat="48.71829" lon="7.11725">
        <ele>268</ele>
        <time>2020-08-09T08:03:19Z</time>
      </trkpt>
      <trkpt lat="48.71822" lon="7.11723">
        <ele>268</ele>
        <time>2020-08-09T08:03:21Z</time>
      </trkpt>
      <trkpt lat="48.71817" lon="7.11719">
        <ele>268</ele>
        <time>2020-08-09T08:03:23Z</time>
      </trkpt>
      <trkpt lat="48.71811" lon="7.11717">
        <ele>268</ele>
        <time>2020-08-09T08:03:25Z</time>
      </trkpt>
      <trkpt lat="48.71805" lon="7.11713">
        <ele>268</ele>
        <time>2020-08-09T08:03:27Z</time>
      </trkpt>
      <trkpt lat="48.718" lon="7.11708">
        <ele>268</ele>
        <time>2020-08-09T08:03:29Z</time>
      </trkpt>
      <trkpt lat="48.71793" lon="7.11704">
        <ele>268</ele>
        <time>2020-08-09T08:03:31Z</time>
      </trkpt>
      <trkpt lat="48.71788" lon="7.11698">
        <ele>268</ele>
        <time>2020-08-09T08:03:33Z</time>
      </trkpt>
      <trkpt lat="48.71782" lon="7.11693">
        <ele>268</ele>
        <time>2020-08-09T08:03:35Z</time>
      </trkpt>
      <trkpt lat="48.71775" lon="7.11687">
        <ele>268</ele>
        <time>2020-08-09T08:03:37Z</time>
      </trkpt>
      <trkpt lat="48.71769" lon="7.11682">
        <ele>268</ele>
        <time>2020-08-09T08:03:39Z</time>
      </trkpt>
      <trkpt lat="48.71763" lon="7.11676">
        <ele>268</ele>
        <time>2020-08-09T08:03:41Z</time>
      </trkpt>
      <trkpt lat="48.71756" lon="7.11671">
        <ele>268</ele>
        <time>2020-08-09T08:03:43Z</time>
      </trkpt>
      <trkpt lat="48.7175" lon="7.11666">
        <ele>268</ele>
        <time>2020-08-09T08:03:45Z</time>
      </trkpt>
      <trkpt lat="48.71743" lon="7.11662">
        <ele>268</ele>
        <time>2020-08-09T08:03:47Z</time>
      </trkpt>
      <trkpt lat="48.71737" lon="7.11657">
        <ele>268</ele>
        <time>2020-08-09T08:03:49Z</time>
      </trkpt>
      <trkpt lat="48.7173" lon="7.11655">
        <ele>268</ele>
        <time>2020-08-09T08:03:51Z</time>
      </trkpt>
      <trkpt lat="48.71724" lon="7.11651">
        <ele>268</ele>
        <time>2020-08-09T08:03:53Z</time>
      </trkpt>
      <trkpt lat="48.71717" lon="7.11647">
        <ele>268</ele>
        <time>2020-08-09T08:03:55Z</time>
      </trkpt>
      <trkpt lat="48.7171" lon="7.11643">
        <ele>268</ele>
        <time>2020-08-09T08:03:57Z</time>
      </trkpt>
      <trkpt lat="48.71704" lon="7.11639">
        <ele>268</ele>
        <time>2020-08-09T08:03:59Z</time>
      </trkpt>
      <trkpt lat="48.71697" lon="7.11635">
        <ele>268</ele>
        <time>2020-08-09T08:04:01Z</time>
      </trkpt>
      <trkpt lat="48.7169" lon="7.11629">
        <ele>268</ele>
        <time>2020-08-09T08:04:03Z</time>
      </trkpt>
      <trkpt lat="48.71684" lon="7.11625">
        <ele>268</ele>
        <time>2020-08-09T08:04:05Z</time>
      </trkpt>
      <trkpt lat="48.71677" lon="7.1162">
        <ele>268</ele>
        <time>2020-08-09T08:04:07Z</time>
      </trkpt>
      <trkpt lat="48.7167" lon="7.11616">
        <ele>268</ele>
        <time>2020-08-09T08:04:09Z</time>
      </trkpt>
      <trkpt lat="48.71664" lon="7.11612">
        <ele>268</ele>
        <time>2020-08-09T08:04:11Z</time>
      </trkpt>
      <trkpt lat="48.71656" lon="7.11609">
        <ele>268</ele>
        <time>2020-08-09T08:04:13Z</time>
      </trkpt>
      <trkpt lat="48.71649" lon="7.11605">
        <ele>269</ele>
        <time>2020-08-09T08:04:15Z</time>
      </trkpt>
      <trkpt lat="48.71643" lon="7.11601">
        <ele>269</ele>
        <time>2020-08-09T08:04:17Z</time>
      </trkpt>
      <trkpt lat="48.71636" lon="7.11597">
        <ele>269</ele>
        <time>2020-08-09T08:04:19Z</time>
      </trkpt>
      <trkpt lat="48.71629" lon="7.11591">
        <ele>269</ele>
        <time>2020-08-09T08:04:21Z</time>
      </trkpt>
      <trkpt lat="48.71622" lon="7.11585">
        <ele>269</ele>
        <time>2020-08-09T08:04:23Z</time>
      </trkpt>
      <trkpt lat="48.71616" lon="7.11578">
        <ele>270</ele>
        <time>2020-08-09T08:04:25Z</time>
      </trkpt>
      <trkpt lat="48.7161" lon="7.1157">
        <ele>271</ele>
        <time>2020-08-09T08:04:27Z</time>
      </trkpt>
      <trkpt lat="48.71605" lon="7.11562">
        <ele>271</ele>
        <time>2020-08-09T08:04:29Z</time>
      </trkpt>
      <trkpt lat="48.716" lon="7.11554">
        <ele>271</ele>
        <time>2020-08-09T08:04:31Z</time>
      </trkpt>
      <trkpt lat="48.71595" lon="7.11546">
        <ele>271</ele>
        <time>2020-08-09T08:04:33Z</time>
      </trkpt>
      <trkpt lat="48.71592" lon="7.11538">
        <ele>271</ele>
        <time>2020-08-09T08:04:35Z</time>
      </trkpt>
      <trkpt lat="48.71589" lon="7.11532">
        <ele>271</ele>
        <time>2020-08-09T08:04:37Z</time>
      </trkpt>
      <trkpt lat="48.71586" lon="7.11526">
        <ele>271</ele>
        <time>2020-08-09T08:04:39Z</time>
      </trkpt>
      <trkpt lat="48.71583" lon="7.11519">
        <ele>271</ele>
        <time>2020-08-09T08:04:41Z</time>
      </trkpt>
      <trkpt lat="48.71581" lon="7.11513">
        <ele>272</ele>
        <time>2020-08-09T08:04:43Z</time>
      </trkpt>
      <trkpt lat="48.71578" lon="7.11507">
        <ele>272</ele>
        <time>2020-08-09T08:04:45Z</time>
      </trkpt>
      <trkpt lat="48.71575" lon="7.11501">
        <ele>272</ele>
        <time>2020-08-09T08:04:47Z</time>
      </trkpt>
      <trkpt lat="48.71572" lon="7.11495">
        <ele>272</ele>
        <time>2020-08-09T08:04:49Z</time>
      </trkpt>
      <trkpt lat="48.71569" lon="7.11488">
        <ele>272</ele>
        <time>2020-08-09T08:04:51Z</time>
      </trkpt>
      <trkpt lat="48.71567" lon="7.11482">
        <ele>273</ele>
        <time>2020-08-09T08:04:53Z</time>
      </trkpt>
      <trkpt lat="48.71564" lon="7.11475">
        <ele>273</ele>
        <time>2020-08-09T08:04:55Z</time>
      </trkpt>
      <trkpt lat="48.71561" lon="7.11468">
        <ele>273</ele>
        <time>2020-08-09T08:04:57Z</time>
      </trkpt>
      <trkpt lat="48.71559" lon="7.11462">
        <ele>273</ele>
        <time>2020-08-09T08:04:59Z</time>
      </trkpt>
      <trkpt lat="48.71556" lon="7.11457">
        <ele>273</ele>
        <time>2020-08-09T08:05:01Z</time>
      </trkpt>
      <trkpt lat="48.71553" lon="7.11451">
        <ele>273</ele>
        <time>2020-08-09T08:05:03Z</time>
      </trkpt>
      <trkpt lat="48.7155" lon="7.11444">
        <ele>273</ele>
        <time>2020-08-09T08:05:05Z</time>
      </trkpt>
      <trkpt lat="48.71548" lon="7.11438">
        <ele>273</ele>
        <time>2020-08-09T08:05:07Z</time>
      </trkpt>
      <trkpt lat="48.71545" lon="7.11432">
        <ele>273</ele>
        <time>2020-08-09T08:05:09Z</time>
      </trkpt>
      <trkpt lat="48.71542" lon="7.11425">
        <ele>273</ele>
        <time>2020-08-09T08:05:11Z</time>
      </trkpt>
      <trkpt lat="48.7154" lon="7.11419">
        <ele>274</ele>
        <time>2020-08-09T08:05:13Z</time>
      </trkpt>
      <trkpt lat="48.71537" lon="7.11412">
        <ele>274</ele>
        <time>2020-08-09T08:05:15Z</time>
      </trkpt>
      <trkpt lat="48.71535" lon="7.11406">
        <ele>274</ele>
        <time>2020-08-09T08:05:17Z</time>
      </trkpt>
      <trkpt lat="48.71532" lon="7.11399">
        <ele>275</ele>
        <time>2020-08-09T08:05:19Z</time>
      </trkpt>
      <trkpt lat="48.7153" lon="7.11392">
        <ele>275</ele>
        <time>2020-08-09T08:05:21Z</time>
      </trkpt>
      <trkpt lat="48.71527" lon="7.11385">
        <ele>275</ele>
        <time>2020-08-09T08:05:23Z</time>
      </trkpt>
      <trkpt lat="48.71524" lon="7.11378">
        <ele>275</ele>
        <time>2020-08-09T08:05:25Z</time>
      </trkpt>
      <trkpt lat="48.71522" lon="7.11371">
        <ele>275</ele>
        <time>2020-08-09T08:05:27Z</time>
      </trkpt>
      <trkpt lat="48.7152" lon="7.11364">
        <ele>275</ele>
        <time>2020-08-09T08:05:29Z</time>
      </trkpt>
      <trkpt lat="48.71517" lon="7.11355">
        <ele>274</ele>
        <time>2020-08-09T08:05:32Z</time>
      </trkpt>
      <trkpt lat="48.71514" lon="7.11346">
        <ele>274</ele>
        <time>2020-08-09T08:05:35Z</time>
      </trkpt>
      <trkpt lat="48.71512" lon="7.1134">
        <ele>273</ele>
        <time>2020-08-09T08:05:37Z</time>
      </trkpt>
      <trkpt lat="48.71509" lon="7.11333">
        <ele>273</ele>
        <time>2020-08-09T08:05:39Z</time>
      </trkpt>
      <trkpt lat="48.71507" lon="7.11326">
        <ele>274</ele>
        <time>2020-08-09T08:05:41Z</time>
      </trkpt>
      <trkpt lat="48.71506" lon="7.11319">
        <ele>273</ele>
        <time>2020-08-09T08:05:43Z</time>
      </trkpt>
      <trkpt lat="48.71504" lon="7.1131">
        <ele>273</ele>
        <time>2020-08-09T08:05:45Z</time>
      </trkpt>
      <trkpt lat="48.71503" lon="7.11301">
        <ele>273</ele>
        <time>2020-08-09T08:05:47Z</time>
      </trkpt>
      <trkpt lat="48.71502" lon="7.11292">
        <ele>272</ele>
        <time>2020-08-09T08:05:49Z</time>
      </trkpt>
      <trkpt lat="48.71502" lon="7.11282">
        <ele>272</ele>
        <time>2020-08-09T08:05:51Z</time>
      </trkpt>
      <trkpt lat="48.71501" lon="7.11273">
        <ele>272</ele>
        <time>2020-08-09T08:05:53Z</time>
      </trkpt>
      <trkpt lat="48.715" lon="7.11265">
        <ele>272</ele>
        <time>2020-08-09T08:05:55Z</time>
      </trkpt>
      <trkpt lat="48.71501" lon="7.11257">
        <ele>272</ele>
        <time>2020-08-09T08:05:57Z</time>
      </trkpt>
      <trkpt lat="48.71501" lon="7.11248">
        <ele>272</ele>
        <time>2020-08-09T08:06:00Z</time>
      </trkpt>
      <trkpt lat="48.71502" lon="7.1124">
        <ele>272</ele>
        <time>2020-08-09T08:06:02Z</time>
      </trkpt>
      <trkpt lat="48.71502" lon="7.11233">
        <ele>272</ele>
        <time>2020-08-09T08:06:04Z</time>
      </trkpt>
      <trkpt lat="48.71503" lon="7.11225">
        <ele>272</ele>
        <time>2020-08-09T08:06:06Z</time>
      </trkpt>
      <trkpt lat="48.71502" lon="7.11216">
        <ele>272</ele>
        <time>2020-08-09T08:06:08Z</time>
      </trkpt>
      <trkpt lat="48.71502" lon="7.11208">
        <ele>272</ele>
        <time>2020-08-09T08:06:10Z</time>
      </trkpt>
      <trkpt lat="48.71503" lon="7.112">
        <ele>272</ele>
        <time>2020-08-09T08:06:12Z</time>
      </trkpt>
      <trkpt lat="48.71505" lon="7.11191">
        <ele>272</ele>
        <time>2020-08-09T08:06:14Z</time>
      </trkpt>
      <trkpt lat="48.71507" lon="7.11182">
        <ele>272</ele>
        <time>2020-08-09T08:06:16Z</time>
      </trkpt>
      <trkpt lat="48.71509" lon="7.11176">
        <ele>272</ele>
        <time>2020-08-09T08:06:18Z</time>
      </trkpt>
      <trkpt lat="48.71512" lon="7.11168">
        <ele>272</ele>
        <time>2020-08-09T08:06:20Z</time>
      </trkpt>
      <trkpt lat="48.71514" lon="7.11162">
        <ele>272</ele>
        <time>2020-08-09T08:06:22Z</time>
      </trkpt>
      <trkpt lat="48.71516" lon="7.11155">
        <ele>272</ele>
        <time>2020-08-09T08:06:24Z</time>
      </trkpt>
      <trkpt lat="48.71518" lon="7.11148">
        <ele>272</ele>
        <time>2020-08-09T08:06:27Z</time>
      </trkpt>
      <trkpt lat="48.71523" lon="7.11144">
        <ele>272</ele>
        <time>2020-08-09T08:06:31Z</time>
      </trkpt>
      <trkpt lat="48.71526" lon="7.11139">
        <ele>272</ele>
        <time>2020-08-09T08:06:36Z</time>
      </trkpt>
      <trkpt lat="48.71531" lon="7.11134">
        <ele>273</ele>
        <time>2020-08-09T08:06:41Z</time>
      </trkpt>
      <trkpt lat="48.71534" lon="7.11127">
        <ele>273</ele>
        <time>2020-08-09T08:06:44Z</time>
      </trkpt>
      <trkpt lat="48.71537" lon="7.1112">
        <ele>273</ele>
        <time>2020-08-09T08:06:47Z</time>
      </trkpt>
      <trkpt lat="48.7154" lon="7.11114">
        <ele>273</ele>
        <time>2020-08-09T08:06:50Z</time>
      </trkpt>
      <trkpt lat="48.71544" lon="7.11107">
        <ele>273</ele>
        <time>2020-08-09T08:06:54Z</time>
      </trkpt>
      <trkpt lat="48.71545" lon="7.111">
        <ele>273</ele>
        <time>2020-08-09T08:06:57Z</time>
      </trkpt>
      <trkpt lat="48.71545" lon="7.11093">
        <ele>272</ele>
        <time>2020-08-09T08:07:00Z</time>
      </trkpt>
      <trkpt lat="48.71546" lon="7.11085">
        <ele>272</ele>
        <time>2020-08-09T08:07:03Z</time>
      </trkpt>
      <trkpt lat="48.71548" lon="7.11076">
        <ele>272</ele>
        <time>2020-08-09T08:07:06Z</time>
      </trkpt>
      <trkpt lat="48.71549" lon="7.11069">
        <ele>272</ele>
        <time>2020-08-09T08:07:08Z</time>
      </trkpt>
      <trkpt lat="48.71549" lon="7.11061">
        <ele>272</ele>
        <time>2020-08-09T08:07:10Z</time>
      </trkpt>
      <trkpt lat="48.71549" lon="7.11053">
        <ele>272</ele>
        <time>2020-08-09T08:07:12Z</time>
      </trkpt>
      <trkpt lat="48.7155" lon="7.11044">
        <ele>271</ele>
        <time>2020-08-09T08:07:14Z</time>
      </trkpt>
      <trkpt lat="48.7155" lon="7.11035">
        <ele>271</ele>
        <time>2020-08-09T08:07:16Z</time>
      </trkpt>
      <trkpt lat="48.7155" lon="7.11027">
        <ele>271</ele>
        <time>2020-08-09T08:07:18Z</time>
      </trkpt>
      <trkpt lat="48.7155" lon="7.11018">
        <ele>271</ele>
        <time>2020-08-09T08:07:20Z</time>
      </trkpt>
      <trkpt lat="48.7155" lon="7.11009">
        <ele>271</ele>
        <time>2020-08-09T08:07:22Z</time>
      </trkpt>
      <trkpt lat="48.71551" lon="7.11001">
        <ele>272</ele>
        <time>2020-08-09T08:07:24Z</time>
      </trkpt>
      <trkpt lat="48.71552" lon="7.10992">
        <ele>272</ele>
        <time>2020-08-09T08:07:26Z</time>
      </trkpt>
      <trkpt lat="48.71553" lon="7.10982">
        <ele>272</ele>
        <time>2020-08-09T08:07:28Z</time>
      </trkpt>
      <trkpt lat="48.71555" lon="7.10973">
        <ele>271</ele>
        <time>2020-08-09T08:07:30Z</time>
      </trkpt>
      <trkpt lat="48.71557" lon="7.10963">
        <ele>271</ele>
        <time>2020-08-09T08:07:32Z</time>
      </trkpt>
      <trkpt lat="48.71558" lon="7.10954">
        <ele>271</ele>
        <time>2020-08-09T08:07:34Z</time>
      </trkpt>
      <trkpt lat="48.7156" lon="7.10945">
        <ele>271</ele>
        <time>2020-08-09T08:07:36Z</time>
      </trkpt>
      <trkpt lat="48.7156" lon="7.10936">
        <ele>271</ele>
        <time>2020-08-09T08:07:40Z</time>
      </trkpt>
      <trkpt lat="48.71565" lon="7.10932">
        <ele>271</ele>
        <time>2020-08-09T08:07:43Z</time>
      </trkpt>
      <trkpt lat="48.71569" lon="7.10925">
        <ele>271</ele>
        <time>2020-08-09T08:07:46Z</time>
      </trkpt>
      <trkpt lat="48.71567" lon="7.1092">
        <ele>270</ele>
        <time>2020-08-09T08:07:49Z</time>
      </trkpt>
      <trkpt lat="48.71563" lon="7.10925">
        <ele>271</ele>
        <time>2020-08-09T08:07:52Z</time>
      </trkpt>
      <trkpt lat="48.71561" lon="7.10934">
        <ele>271</ele>
        <time>2020-08-09T08:07:54Z</time>
      </trkpt>
      <trkpt lat="48.71559" lon="7.10943">
        <ele>271</ele>
        <time>2020-08-09T08:07:56Z</time>
      </trkpt>
      <trkpt lat="48.71557" lon="7.10952">
        <ele>271</ele>
        <time>2020-08-09T08:07:58Z</time>
      </trkpt>
      <trkpt lat="48.71557" lon="7.1096">
        <ele>271</ele>
        <time>2020-08-09T08:08:00Z</time>
      </trkpt>
      <trkpt lat="48.71555" lon="7.10967">
        <ele>271</ele>
        <time>2020-08-09T08:08:03Z</time>
      </trkpt>
      <trkpt lat="48.71555" lon="7.10959">
        <ele>271</ele>
        <time>2020-08-09T08:08:06Z</time>
      </trkpt>
      <trkpt lat="48.71557" lon="7.10948">
        <ele>271</ele>
        <time>2020-08-09T08:08:55Z</time>
      </trkpt>
      <trkpt lat="48.71559" lon="7.1094">
        <ele>271</ele>
        <time>2020-08-09T08:08:57Z</time>
      </trkpt>
      <trkpt lat="48.71561" lon="7.10933">
        <ele>271</ele>
        <time>2020-08-09T08:08:59Z</time>
      </trkpt>
      <trkpt lat="48.71563" lon="7.10927">
        <ele>271</ele>
        <time>2020-08-09T08:09:01Z</time>
      </trkpt>
      <trkpt lat="48.71564" lon="7.10918">
        <ele>270</ele>
        <time>2020-08-09T08:09:04Z</time>
      </trkpt>
      <trkpt lat="48.71561" lon="7.10912">
        <ele>270</ele>
        <time>2020-08-09T08:09:07Z</time>
      </trkpt>
      <trkpt lat="48.71566" lon="7.10906">
        <ele>270</ele>
        <time>2020-08-09T08:09:41Z</time>
      </trkpt>
      <trkpt lat="48.71571" lon="7.10904">
        <ele>270</ele>
        <time>2020-08-09T08:09:44Z</time>
      </trkpt>
      <trkpt lat="48.71564" lon="7.10892">
        <ele>270</ele>
        <time>2020-08-09T08:11:23Z</time>
      </trkpt>
      <trkpt lat="48.71561" lon="7.1088">
        <ele>270</ele>
        <time>2020-08-09T08:11:49Z</time>
      </trkpt>
      <trkpt lat="48.71561" lon="7.1087">
        <ele>269</ele>
        <time>2020-08-09T08:12:26Z</time>
      </trkpt>
      <trkpt lat="48.7156" lon="7.10861">
        <ele>269</ele>
        <time>2020-08-09T08:12:30Z</time>
      </trkpt>
      <trkpt lat="48.71555" lon="7.1085">
        <ele>269</ele>
        <time>2020-08-09T08:13:05Z</time>
      </trkpt>
      <trkpt lat="48.71557" lon="7.10841">
        <ele>269</ele>
        <time>2020-08-09T08:13:39Z</time>
      </trkpt>
      <trkpt lat="48.71557" lon="7.10833">
        <ele>269</ele>
        <time>2020-08-09T08:13:42Z</time>
      </trkpt>
      <trkpt lat="48.71556" lon="7.10825">
        <ele>268</ele>
        <time>2020-08-09T08:13:44Z</time>
      </trkpt>
      <trkpt lat="48.71552" lon="7.10815">
        <ele>268</ele>
        <time>2020-08-09T08:13:46Z</time>
      </trkpt>
      <trkpt lat="48.71549" lon="7.10806">
        <ele>268</ele>
        <time>2020-08-09T08:13:48Z</time>
      </trkpt>
      <trkpt lat="48.71546" lon="7.10798">
        <ele>268</ele>
        <time>2020-08-09T08:13:50Z</time>
      </trkpt>
      <trkpt lat="48.71543" lon="7.10788">
        <ele>267</ele>
        <time>2020-08-09T08:13:52Z</time>
      </trkpt>
      <trkpt lat="48.7154" lon="7.10777">
        <ele>267</ele>
        <time>2020-08-09T08:13:54Z</time>
      </trkpt>
      <trkpt lat="48.71536" lon="7.10765">
        <ele>267</ele>
        <time>2020-08-09T08:13:56Z</time>
      </trkpt>
      <trkpt lat="48.71533" lon="7.10753">
        <ele>267</ele>
        <time>2020-08-09T08:13:58Z</time>
      </trkpt>
      <trkpt lat="48.71531" lon="7.10747">
        <ele>267</ele>
        <time>2020-08-09T08:13:59Z</time>
      </trkpt>
      <trkpt lat="48.71529" lon="7.1074">
        <ele>267</ele>
        <time>2020-08-09T08:14:00Z</time>
      </trkpt>
      <trkpt lat="48.71528" lon="7.10733">
        <ele>267</ele>
        <time>2020-08-09T08:14:01Z</time>
      </trkpt>
      <trkpt lat="48.71526" lon="7.10727">
        <ele>267</ele>
        <time>2020-08-09T08:14:02Z</time>
      </trkpt>
      <trkpt lat="48.71523" lon="7.10719">
        <ele>266</ele>
        <time>2020-08-09T08:14:03Z</time>
      </trkpt>
      <trkpt lat="48.71521" lon="7.10712">
        <ele>266</ele>
        <time>2020-08-09T08:14:04Z</time>
      </trkpt>
      <trkpt lat="48.71519" lon="7.10705">
        <ele>266</ele>
        <time>2020-08-09T08:14:05Z</time>
      </trkpt>
      <trkpt lat="48.71517" lon="7.10698">
        <ele>266</ele>
        <time>2020-08-09T08:14:06Z</time>
      </trkpt>
      <trkpt lat="48.71515" lon="7.1069">
        <ele>266</ele>
        <time>2020-08-09T08:14:07Z</time>
      </trkpt>
      <trkpt lat="48.71512" lon="7.10678">
        <ele>265</ele>
        <time>2020-08-09T08:14:09Z</time>
      </trkpt>
      <trkpt lat="48.7151" lon="7.10667">
        <ele>265</ele>
        <time>2020-08-09T08:14:11Z</time>
      </trkpt>
      <trkpt lat="48.71509" lon="7.10657">
        <ele>265</ele>
        <time>2020-08-09T08:14:13Z</time>
      </trkpt>
      <trkpt lat="48.71504" lon="7.10653">
        <ele>265</ele>
        <time>2020-08-09T08:14:15Z</time>
      </trkpt>
      <trkpt lat="48.71497" lon="7.10653">
        <ele>265</ele>
        <time>2020-08-09T08:14:17Z</time>
      </trkpt>
      <trkpt lat="48.7149" lon="7.10655">
        <ele>266</ele>
        <time>2020-08-09T08:14:19Z</time>
      </trkpt>
      <trkpt lat="48.71483" lon="7.10657">
        <ele>266</ele>
        <time>2020-08-09T08:14:21Z</time>
      </trkpt>
      <trkpt lat="48.71477" lon="7.1066">
        <ele>266</ele>
        <time>2020-08-09T08:14:23Z</time>
      </trkpt>
      <trkpt lat="48.71471" lon="7.10662">
        <ele>266</ele>
        <time>2020-08-09T08:14:25Z</time>
      </trkpt>
      <trkpt lat="48.71466" lon="7.10665">
        <ele>266</ele>
        <time>2020-08-09T08:14:27Z</time>
      </trkpt>
      <trkpt lat="48.7146" lon="7.10667">
        <ele>266</ele>
        <time>2020-08-09T08:14:29Z</time>
      </trkpt>
      <trkpt lat="48.71453" lon="7.1067">
        <ele>266</ele>
        <time>2020-08-09T08:14:31Z</time>
      </trkpt>
      <trkpt lat="48.71447" lon="7.10673">
        <ele>266</ele>
        <time>2020-08-09T08:14:33Z</time>
      </trkpt>
      <trkpt lat="48.7144" lon="7.10677">
        <ele>266</ele>
        <time>2020-08-09T08:14:35Z</time>
      </trkpt>
      <trkpt lat="48.71433" lon="7.10681">
        <ele>266</ele>
        <time>2020-08-09T08:14:37Z</time>
      </trkpt>
      <trkpt lat="48.71426" lon="7.10685">
        <ele>266</ele>
        <time>2020-08-09T08:14:39Z</time>
      </trkpt>
      <trkpt lat="48.71418" lon="7.1069">
        <ele>266</ele>
        <time>2020-08-09T08:14:41Z</time>
      </trkpt>
      <trkpt lat="48.7141" lon="7.10694">
        <ele>266</ele>
        <time>2020-08-09T08:14:43Z</time>
      </trkpt>
      <trkpt lat="48.71403" lon="7.10699">
        <ele>266</ele>
        <time>2020-08-09T08:14:45Z</time>
      </trkpt>
      <trkpt lat="48.71396" lon="7.10704">
        <ele>265</ele>
        <time>2020-08-09T08:14:47Z</time>
      </trkpt>
      <trkpt lat="48.71388" lon="7.10708">
        <ele>265</ele>
        <time>2020-08-09T08:14:49Z</time>
      </trkpt>
      <trkpt lat="48.71384" lon="7.10711">
        <ele>265</ele>
        <time>2020-08-09T08:14:50Z</time>
      </trkpt>
      <trkpt lat="48.71375" lon="7.10716">
        <ele>265</ele>
        <time>2020-08-09T08:14:52Z</time>
      </trkpt>
      <trkpt lat="48.71363" lon="7.10724">
        <ele>265</ele>
        <time>2020-08-09T08:14:55Z</time>
      </trkpt>
      <trkpt lat="48.71356" lon="7.10728">
        <ele>265</ele>
        <time>2020-08-09T08:14:57Z</time>
      </trkpt>
      <trkpt lat="48.71349" lon="7.10733">
        <ele>265</ele>
        <time>2020-08-09T08:14:59Z</time>
      </trkpt>
      <trkpt lat="48.71343" lon="7.10737">
        <ele>265</ele>
        <time>2020-08-09T08:15:01Z</time>
      </trkpt>
      <trkpt lat="48.71336" lon="7.10741">
        <ele>265</ele>
        <time>2020-08-09T08:15:03Z</time>
      </trkpt>
      <trkpt lat="48.7133" lon="7.10745">
        <ele>266</ele>
        <time>2020-08-09T08:15:05Z</time>
      </trkpt>
      <trkpt lat="48.71324" lon="7.10749">
        <ele>266</ele>
        <time>2020-08-09T08:15:07Z</time>
      </trkpt>
      <trkpt lat="48.71317" lon="7.10753">
        <ele>266</ele>
        <time>2020-08-09T08:15:09Z</time>
      </trkpt>
      <trkpt lat="48.71311" lon="7.10757">
        <ele>266</ele>
        <time>2020-08-09T08:15:11Z</time>
      </trkpt>
      <trkpt lat="48.71305" lon="7.10759">
        <ele>266</ele>
        <time>2020-08-09T08:15:13Z</time>
      </trkpt>
      <trkpt lat="48.71299" lon="7.10761">
        <ele>266</ele>
        <time>2020-08-09T08:15:15Z</time>
      </trkpt>
      <trkpt lat="48.71293" lon="7.10763">
        <ele>266</ele>
        <time>2020-08-09T08:15:17Z</time>
      </trkpt>
      <trkpt lat="48.71288" lon="7.10763">
        <ele>265</ele>
        <time>2020-08-09T08:15:19Z</time>
      </trkpt>
      <trkpt lat="48.71282" lon="7.10762">
        <ele>265</ele>
        <time>2020-08-09T08:15:21Z</time>
      </trkpt>
      <trkpt lat="48.71277" lon="7.10761">
        <ele>265</ele>
        <time>2020-08-09T08:15:23Z</time>
      </trkpt>
      <trkpt lat="48.71271" lon="7.1076">
        <ele>266</ele>
        <time>2020-08-09T08:15:25Z</time>
      </trkpt>
      <trkpt lat="48.71266" lon="7.10758">
        <ele>266</ele>
        <time>2020-08-09T08:15:27Z</time>
      </trkpt>
      <trkpt lat="48.71261" lon="7.10756">
        <ele>266</ele>
        <time>2020-08-09T08:15:29Z</time>
      </trkpt>
      <trkpt lat="48.71256" lon="7.10755">
        <ele>265</ele>
        <time>2020-08-09T08:15:31Z</time>
      </trkpt>
      <trkpt lat="48.71251" lon="7.10754">
        <ele>265</ele>
        <time>2020-08-09T08:15:33Z</time>
      </trkpt>
      <trkpt lat="48.71246" lon="7.10753">
        <ele>265</ele>
        <time>2020-08-09T08:15:35Z</time>
      </trkpt>
      <trkpt lat="48.71241" lon="7.10753">
        <ele>265</ele>
        <time>2020-08-09T08:15:37Z</time>
      </trkpt>
      <trkpt lat="48.71236" lon="7.10754">
        <ele>266</ele>
        <time>2020-08-09T08:15:39Z</time>
      </trkpt>
      <trkpt lat="48.71231" lon="7.10755">
        <ele>266</ele>
        <time>2020-08-09T08:15:41Z</time>
      </trkpt>
      <trkpt lat="48.71226" lon="7.10756">
        <ele>266</ele>
        <time>2020-08-09T08:15:43Z</time>
      </trkpt>
      <trkpt lat="48.71221" lon="7.10757">
        <ele>266</ele>
        <time>2020-08-09T08:15:45Z</time>
      </trkpt>
      <trkpt lat="48.71217" lon="7.10757">
        <ele>266</ele>
        <time>2020-08-09T08:15:47Z</time>
      </trkpt>
      <trkpt lat="48.71211" lon="7.10754">
        <ele>265</ele>
        <time>2020-08-09T08:15:49Z</time>
      </trkpt>
      <trkpt lat="48.71207" lon="7.10746">
        <ele>265</ele>
        <time>2020-08-09T08:15:51Z</time>
      </trkpt>
      <trkpt lat="48.71204" lon="7.10735">
        <ele>265</ele>
        <time>2020-08-09T08:15:53Z</time>
      </trkpt>
      <trkpt lat="48.71201" lon="7.10725">
        <ele>264</ele>
        <time>2020-08-09T08:15:55Z</time>
      </trkpt>
      <trkpt lat="48.71198" lon="7.10715">
        <ele>264</ele>
        <time>2020-08-09T08:15:57Z</time>
      </trkpt>
      <trkpt lat="48.71194" lon="7.10705">
        <ele>263</ele>
        <time>2020-08-09T08:15:59Z</time>
      </trkpt>
      <trkpt lat="48.7119" lon="7.10696">
        <ele>263</ele>
        <time>2020-08-09T08:16:01Z</time>
      </trkpt>
      <trkpt lat="48.71186" lon="7.10689">
        <ele>263</ele>
        <time>2020-08-09T08:16:03Z</time>
      </trkpt>
      <trkpt lat="48.71181" lon="7.10682">
        <ele>263</ele>
        <time>2020-08-09T08:16:05Z</time>
      </trkpt>
      <trkpt lat="48.71176" lon="7.10675">
        <ele>263</ele>
        <time>2020-08-09T08:16:07Z</time>
      </trkpt>
      <trkpt lat="48.7117" lon="7.10668">
        <ele>263</ele>
        <time>2020-08-09T08:16:09Z</time>
      </trkpt>
      <trkpt lat="48.71164" lon="7.10661">
        <ele>263</ele>
        <time>2020-08-09T08:16:11Z</time>
      </trkpt>
      <trkpt lat="48.71157" lon="7.10652">
        <ele>263</ele>
        <time>2020-08-09T08:16:13Z</time>
      </trkpt>
      <trkpt lat="48.71151" lon="7.10643">
        <ele>263</ele>
        <time>2020-08-09T08:16:15Z</time>
      </trkpt>
      <trkpt lat="48.71146" lon="7.10632">
        <ele>263</ele>
        <time>2020-08-09T08:16:17Z</time>
      </trkpt>
      <trkpt lat="48.71144" lon="7.10626">
        <ele>263</ele>
        <time>2020-08-09T08:16:18Z</time>
      </trkpt>
      <trkpt lat="48.71141" lon="7.10619">
        <ele>263</ele>
        <time>2020-08-09T08:16:19Z</time>
      </trkpt>
      <trkpt lat="48.71138" lon="7.10613">
        <ele>263</ele>
        <time>2020-08-09T08:16:20Z</time>
      </trkpt>
      <trkpt lat="48.71134" lon="7.10603">
        <ele>264</ele>
        <time>2020-08-09T08:16:22Z</time>
      </trkpt>
      <trkpt lat="48.7113" lon="7.10594">
        <ele>265</ele>
        <time>2020-08-09T08:16:24Z</time>
      </trkpt>
      <trkpt lat="48.71125" lon="7.10585">
        <ele>264</ele>
        <time>2020-08-09T08:16:26Z</time>
      </trkpt>
      <trkpt lat="48.71121" lon="7.10576">
        <ele>264</ele>
        <time>2020-08-09T08:16:28Z</time>
      </trkpt>
      <trkpt lat="48.71116" lon="7.10566">
        <ele>264</ele>
        <time>2020-08-09T08:16:30Z</time>
      </trkpt>
      <trkpt lat="48.71112" lon="7.10557">
        <ele>264</ele>
        <time>2020-08-09T08:16:32Z</time>
      </trkpt>
      <trkpt lat="48.71108" lon="7.10547">
        <ele>264</ele>
        <time>2020-08-09T08:16:34Z</time>
      </trkpt>
      <trkpt lat="48.71104" lon="7.10538">
        <ele>263</ele>
        <time>2020-08-09T08:16:36Z</time>
      </trkpt>
      <trkpt lat="48.711" lon="7.10528">
        <ele>263</ele>
        <time>2020-08-09T08:16:38Z</time>
      </trkpt>
      <trkpt lat="48.71096" lon="7.10519">
        <ele>263</ele>
        <time>2020-08-09T08:16:40Z</time>
      </trkpt>
      <trkpt lat="48.71092" lon="7.1051">
        <ele>263</ele>
        <time>2020-08-09T08:16:42Z</time>
      </trkpt>
      <trkpt lat="48.71087" lon="7.10502">
        <ele>264</ele>
        <time>2020-08-09T08:16:44Z</time>
      </trkpt>
      <trkpt lat="48.71084" lon="7.10494">
        <ele>264</ele>
        <time>2020-08-09T08:16:46Z</time>
      </trkpt>
      <trkpt lat="48.7108" lon="7.10486">
        <ele>264</ele>
        <time>2020-08-09T08:16:48Z</time>
      </trkpt>
      <trkpt lat="48.71077" lon="7.10479">
        <ele>264</ele>
        <time>2020-08-09T08:16:50Z</time>
      </trkpt>
      <trkpt lat="48.71074" lon="7.10473">
        <ele>264</ele>
        <time>2020-08-09T08:16:52Z</time>
      </trkpt>
      <trkpt lat="48.71071" lon="7.10466">
        <ele>264</ele>
        <time>2020-08-09T08:16:54Z</time>
      </trkpt>
      <trkpt lat="48.71067" lon="7.10458">
        <ele>264</ele>
        <time>2020-08-09T08:16:56Z</time>
      </trkpt>
      <trkpt lat="48.71065" lon="7.10452">
        <ele>264</ele>
        <time>2020-08-09T08:16:58Z</time>
      </trkpt>
      <trkpt lat="48.71062" lon="7.10444">
        <ele>264</ele>
        <time>2020-08-09T08:17:00Z</time>
      </trkpt>
      <trkpt lat="48.7106" lon="7.10437">
        <ele>264</ele>
        <time>2020-08-09T08:17:02Z</time>
      </trkpt>
      <trkpt lat="48.71058" lon="7.10429">
        <ele>263</ele>
        <time>2020-08-09T08:17:04Z</time>
      </trkpt>
      <trkpt lat="48.71056" lon="7.10419">
        <ele>263</ele>
        <time>2020-08-09T08:17:06Z</time>
      </trkpt>
      <trkpt lat="48.71055" lon="7.10408">
        <ele>263</ele>
        <time>2020-08-09T08:17:08Z</time>
      </trkpt>
      <trkpt lat="48.71055" lon="7.10399">
        <ele>263</ele>
        <time>2020-08-09T08:17:10Z</time>
      </trkpt>
      <trkpt lat="48.71057" lon="7.10389">
        <ele>263</ele>
        <time>2020-08-09T08:17:12Z</time>
      </trkpt>
      <trkpt lat="48.71059" lon="7.1038">
        <ele>263</ele>
        <time>2020-08-09T08:17:14Z</time>
      </trkpt>
      <trkpt lat="48.71061" lon="7.10372">
        <ele>264</ele>
        <time>2020-08-09T08:17:16Z</time>
      </trkpt>
      <trkpt lat="48.71064" lon="7.10364">
        <ele>264</ele>
        <time>2020-08-09T08:17:18Z</time>
      </trkpt>
      <trkpt lat="48.71067" lon="7.10357">
        <ele>264</ele>
        <time>2020-08-09T08:17:20Z</time>
      </trkpt>
      <trkpt lat="48.71069" lon="7.10349">
        <ele>264</ele>
        <time>2020-08-09T08:17:22Z</time>
      </trkpt>
      <trkpt lat="48.71072" lon="7.1034">
        <ele>264</ele>
        <time>2020-08-09T08:17:24Z</time>
      </trkpt>
      <trkpt lat="48.71075" lon="7.10332">
        <ele>264</ele>
        <time>2020-08-09T08:17:26Z</time>
      </trkpt>
      <trkpt lat="48.71079" lon="7.10323">
        <ele>264</ele>
        <time>2020-08-09T08:17:28Z</time>
      </trkpt>
      <trkpt lat="48.71082" lon="7.10314">
        <ele>264</ele>
        <time>2020-08-09T08:17:30Z</time>
      </trkpt>
      <trkpt lat="48.71086" lon="7.10305">
        <ele>264</ele>
        <time>2020-08-09T08:17:32Z</time>
      </trkpt>
      <trkpt lat="48.71089" lon="7.10296">
        <ele>264</ele>
        <time>2020-08-09T08:17:34Z</time>
      </trkpt>
      <trkpt lat="48.71092" lon="7.10288">
        <ele>264</ele>
        <time>2020-08-09T08:17:36Z</time>
      </trkpt>
      <trkpt lat="48.71096" lon="7.10278">
        <ele>264</ele>
        <time>2020-08-09T08:17:38Z</time>
      </trkpt>
      <trkpt lat="48.71099" lon="7.10269">
        <ele>264</ele>
        <time>2020-08-09T08:17:40Z</time>
      </trkpt>
      <trkpt lat="48.71103" lon="7.10261">
        <ele>264</ele>
        <time>2020-08-09T08:17:42Z</time>
      </trkpt>
      <trkpt lat="48.71105" lon="7.10251">
        <ele>264</ele>
        <time>2020-08-09T08:17:44Z</time>
      </trkpt>
      <trkpt lat="48.71108" lon="7.10242">
        <ele>265</ele>
        <time>2020-08-09T08:17:46Z</time>
      </trkpt>
      <trkpt lat="48.71111" lon="7.10233">
        <ele>265</ele>
        <time>2020-08-09T08:17:48Z</time>
      </trkpt>
      <trkpt lat="48.71114" lon="7.10224">
        <ele>265</ele>
        <time>2020-08-09T08:17:50Z</time>
      </trkpt>
      <trkpt lat="48.71116" lon="7.10217">
        <ele>265</ele>
        <time>2020-08-09T08:17:52Z</time>
      </trkpt>
      <trkpt lat="48.71118" lon="7.10209">
        <ele>265</ele>
        <time>2020-08-09T08:17:54Z</time>
      </trkpt>
      <trkpt lat="48.7112" lon="7.10201">
        <ele>265</ele>
        <time>2020-08-09T08:17:56Z</time>
      </trkpt>
      <trkpt lat="48.71121" lon="7.10192">
        <ele>265</ele>
        <time>2020-08-09T08:17:58Z</time>
      </trkpt>
      <trkpt lat="48.71122" lon="7.10184">
        <ele>265</ele>
        <time>2020-08-09T08:18:00Z</time>
      </trkpt>
      <trkpt lat="48.71122" lon="7.10175">
        <ele>265</ele>
        <time>2020-08-09T08:18:02Z</time>
      </trkpt>
      <trkpt lat="48.71122" lon="7.10166">
        <ele>266</ele>
        <time>2020-08-09T08:18:04Z</time>
      </trkpt>
      <trkpt lat="48.71121" lon="7.10158">
        <ele>266</ele>
        <time>2020-08-09T08:18:06Z</time>
      </trkpt>
      <trkpt lat="48.71119" lon="7.10149">
        <ele>267</ele>
        <time>2020-08-09T08:18:08Z</time>
      </trkpt>
      <trkpt lat="48.71117" lon="7.10142">
        <ele>267</ele>
        <time>2020-08-09T08:18:10Z</time>
      </trkpt>
      <trkpt lat="48.71115" lon="7.10135">
        <ele>268</ele>
        <time>2020-08-09T08:18:12Z</time>
      </trkpt>
      <trkpt lat="48.71113" lon="7.10129">
        <ele>268</ele>
        <time>2020-08-09T08:18:14Z</time>
      </trkpt>
      <trkpt lat="48.71111" lon="7.10122">
        <ele>268</ele>
        <time>2020-08-09T08:18:16Z</time>
      </trkpt>
      <trkpt lat="48.71109" lon="7.10115">
        <ele>268</ele>
        <time>2020-08-09T08:18:18Z</time>
      </trkpt>
      <trkpt lat="48.71107" lon="7.10109">
        <ele>268</ele>
        <time>2020-08-09T08:18:20Z</time>
      </trkpt>
      <trkpt lat="48.71104" lon="7.10102">
        <ele>268</ele>
        <time>2020-08-09T08:18:22Z</time>
      </trkpt>
      <trkpt lat="48.711" lon="7.10094">
        <ele>268</ele>
        <time>2020-08-09T08:18:24Z</time>
      </trkpt>
      <trkpt lat="48.71097" lon="7.10085">
        <ele>268</ele>
        <time>2020-08-09T08:18:26Z</time>
      </trkpt>
      <trkpt lat="48.71095" lon="7.10075">
        <ele>269</ele>
        <time>2020-08-09T08:18:28Z</time>
      </trkpt>
      <trkpt lat="48.71093" lon="7.10066">
        <ele>269</ele>
        <time>2020-08-09T08:18:30Z</time>
      </trkpt>
      <trkpt lat="48.71091" lon="7.10056">
        <ele>270</ele>
        <time>2020-08-09T08:18:32Z</time>
      </trkpt>
      <trkpt lat="48.71088" lon="7.10047">
        <ele>270</ele>
        <time>2020-08-09T08:18:34Z</time>
      </trkpt>
      <trkpt lat="48.71086" lon="7.10039">
        <ele>271</ele>
        <time>2020-08-09T08:18:36Z</time>
      </trkpt>
      <trkpt lat="48.71084" lon="7.10031">
        <ele>271</ele>
        <time>2020-08-09T08:18:38Z</time>
      </trkpt>
      <trkpt lat="48.71082" lon="7.10024">
        <ele>271</ele>
        <time>2020-08-09T08:18:40Z</time>
      </trkpt>
      <trkpt lat="48.7108" lon="7.10018">
        <ele>271</ele>
        <time>2020-08-09T08:18:42Z</time>
      </trkpt>
      <trkpt lat="48.71077" lon="7.1001">
        <ele>272</ele>
        <time>2020-08-09T08:18:44Z</time>
      </trkpt>
      <trkpt lat="48.71075" lon="7.10004">
        <ele>272</ele>
        <time>2020-08-09T08:18:46Z</time>
      </trkpt>
      <trkpt lat="48.71074" lon="7.09997">
        <ele>272</ele>
        <time>2020-08-09T08:18:48Z</time>
      </trkpt>
      <trkpt lat="48.7107" lon="7.09991">
        <ele>272</ele>
        <time>2020-08-09T08:18:50Z</time>
      </trkpt>
      <trkpt lat="48.71067" lon="7.09983">
        <ele>273</ele>
        <time>2020-08-09T08:18:52Z</time>
      </trkpt>
      <trkpt lat="48.71065" lon="7.09975">
        <ele>273</ele>
        <time>2020-08-09T08:18:54Z</time>
      </trkpt>
      <trkpt lat="48.71063" lon="7.09967">
        <ele>274</ele>
        <time>2020-08-09T08:18:56Z</time>
      </trkpt>
      <trkpt lat="48.71061" lon="7.09959">
        <ele>274</ele>
        <time>2020-08-09T08:18:58Z</time>
      </trkpt>
      <trkpt lat="48.71059" lon="7.09951">
        <ele>274</ele>
        <time>2020-08-09T08:19:00Z</time>
      </trkpt>
      <trkpt lat="48.71058" lon="7.09943">
        <ele>275</ele>
        <time>2020-08-09T08:19:02Z</time>
      </trkpt>
      <trkpt lat="48.71055" lon="7.09937">
        <ele>275</ele>
        <time>2020-08-09T08:19:04Z</time>
      </trkpt>
      <trkpt lat="48.71053" lon="7.0993">
        <ele>275</ele>
        <time>2020-08-09T08:19:06Z</time>
      </trkpt>
      <trkpt lat="48.7105" lon="7.09924">
        <ele>275</ele>
        <time>2020-08-09T08:19:08Z</time>
      </trkpt>
      <trkpt lat="48.71049" lon="7.09916">
        <ele>276</ele>
        <time>2020-08-09T08:19:10Z</time>
      </trkpt>
      <trkpt lat="48.71048" lon="7.09909">
        <ele>276</ele>
        <time>2020-08-09T08:19:12Z</time>
      </trkpt>
      <trkpt lat="48.71045" lon="7.09902">
        <ele>276</ele>
        <time>2020-08-09T08:19:14Z</time>
      </trkpt>
      <trkpt lat="48.71043" lon="7.09895">
        <ele>276</ele>
        <time>2020-08-09T08:19:16Z</time>
      </trkpt>
      <trkpt lat="48.71042" lon="7.09888">
        <ele>275</ele>
        <time>2020-08-09T08:19:18Z</time>
      </trkpt>
      <trkpt lat="48.71039" lon="7.0988">
        <ele>275</ele>
        <time>2020-08-09T08:19:20Z</time>
      </trkpt>
      <trkpt lat="48.71038" lon="7.09872">
        <ele>276</ele>
        <time>2020-08-09T08:19:22Z</time>
      </trkpt>
      <trkpt lat="48.71036" lon="7.09863">
        <ele>276</ele>
        <time>2020-08-09T08:19:24Z</time>
      </trkpt>
      <trkpt lat="48.71034" lon="7.09855">
        <ele>276</ele>
        <time>2020-08-09T08:19:26Z</time>
      </trkpt>
      <trkpt lat="48.71034" lon="7.09847">
        <ele>276</ele>
        <time>2020-08-09T08:19:28Z</time>
      </trkpt>
      <trkpt lat="48.71033" lon="7.09839">
        <ele>276</ele>
        <time>2020-08-09T08:19:30Z</time>
      </trkpt>
      <trkpt lat="48.71032" lon="7.0983">
        <ele>276</ele>
        <time>2020-08-09T08:19:32Z</time>
      </trkpt>
      <trkpt lat="48.71032" lon="7.09822">
        <ele>276</ele>
        <time>2020-08-09T08:19:34Z</time>
      </trkpt>
      <trkpt lat="48.71035" lon="7.09814">
        <ele>276</ele>
        <time>2020-08-09T08:19:36Z</time>
      </trkpt>
      <trkpt lat="48.71037" lon="7.09804">
        <ele>277</ele>
        <time>2020-08-09T08:19:38Z</time>
      </trkpt>
      <trkpt lat="48.71035" lon="7.09795">
        <ele>277</ele>
        <time>2020-08-09T08:19:40Z</time>
      </trkpt>
      <trkpt lat="48.71032" lon="7.09786">
        <ele>276</ele>
        <time>2020-08-09T08:19:42Z</time>
      </trkpt>
      <trkpt lat="48.71026" lon="7.09781">
        <ele>276</ele>
        <time>2020-08-09T08:19:44Z</time>
      </trkpt>
      <trkpt lat="48.71022" lon="7.09773">
        <ele>276</ele>
        <time>2020-08-09T08:19:46Z</time>
      </trkpt>
      <trkpt lat="48.71024" lon="7.09763">
        <ele>276</ele>
        <time>2020-08-09T08:19:48Z</time>
      </trkpt>
      <trkpt lat="48.71026" lon="7.09752">
        <ele>276</ele>
        <time>2020-08-09T08:19:50Z</time>
      </trkpt>
      <trkpt lat="48.71029" lon="7.09741">
        <ele>276</ele>
        <time>2020-08-09T08:19:52Z</time>
      </trkpt>
      <trkpt lat="48.71033" lon="7.0973">
        <ele>276</ele>
        <time>2020-08-09T08:19:54Z</time>
      </trkpt>
      <trkpt lat="48.71034" lon="7.0971">
        <ele>276</ele>
        <time>2020-08-09T08:19:57Z</time>
      </trkpt>
      <trkpt lat="48.7103" lon="7.09697">
        <ele>275</ele>
        <time>2020-08-09T08:19:59Z</time>
      </trkpt>
      <trkpt lat="48.71028" lon="7.0969">
        <ele>275</ele>
        <time>2020-08-09T08:20:00Z</time>
      </trkpt>
      <trkpt lat="48.71026" lon="7.09684">
        <ele>275</ele>
        <time>2020-08-09T08:20:01Z</time>
      </trkpt>
      <trkpt lat="48.71024" lon="7.09677">
        <ele>275</ele>
        <time>2020-08-09T08:20:02Z</time>
      </trkpt>
      <trkpt lat="48.71023" lon="7.0967">
        <ele>275</ele>
        <time>2020-08-09T08:20:03Z</time>
      </trkpt>
      <trkpt lat="48.71021" lon="7.09663">
        <ele>275</ele>
        <time>2020-08-09T08:20:04Z</time>
      </trkpt>
      <trkpt lat="48.7102" lon="7.09656">
        <ele>275</ele>
        <time>2020-08-09T08:20:05Z</time>
      </trkpt>
      <trkpt lat="48.71018" lon="7.09649">
        <ele>275</ele>
        <time>2020-08-09T08:20:06Z</time>
      </trkpt>
      <trkpt lat="48.71017" lon="7.09642">
        <ele>275</ele>
        <time>2020-08-09T08:20:07Z</time>
      </trkpt>
      <trkpt lat="48.71015" lon="7.09635">
        <ele>275</ele>
        <time>2020-08-09T08:20:08Z</time>
      </trkpt>
      <trkpt lat="48.71014" lon="7.09627">
        <ele>274</ele>
        <time>2020-08-09T08:20:09Z</time>
      </trkpt>
      <trkpt lat="48.71012" lon="7.0962">
        <ele>274</ele>
        <time>2020-08-09T08:20:10Z</time>
      </trkpt>
      <trkpt lat="48.71011" lon="7.09613">
        <ele>274</ele>
        <time>2020-08-09T08:20:11Z</time>
      </trkpt>
      <trkpt lat="48.71009" lon="7.09605">
        <ele>274</ele>
        <time>2020-08-09T08:20:12Z</time>
      </trkpt>
      <trkpt lat="48.71007" lon="7.09598">
        <ele>274</ele>
        <time>2020-08-09T08:20:13Z</time>
      </trkpt>
      <trkpt lat="48.71006" lon="7.09591">
        <ele>273</ele>
        <time>2020-08-09T08:20:14Z</time>
      </trkpt>
      <trkpt lat="48.71005" lon="7.09584">
        <ele>273</ele>
        <time>2020-08-09T08:20:15Z</time>
      </trkpt>
      <trkpt lat="48.71004" lon="7.09576">
        <ele>273</ele>
        <time>2020-08-09T08:20:16Z</time>
      </trkpt>
      <trkpt lat="48.71003" lon="7.09569">
        <ele>273</ele>
        <time>2020-08-09T08:20:17Z</time>
      </trkpt>
      <trkpt lat="48.71" lon="7.09556">
        <ele>273</ele>
        <time>2020-08-09T08:20:19Z</time>
      </trkpt>
      <trkpt lat="48.70999" lon="7.09549">
        <ele>273</ele>
        <time>2020-08-09T08:20:20Z</time>
      </trkpt>
      <trkpt lat="48.70997" lon="7.09543">
        <ele>273</ele>
        <time>2020-08-09T08:20:21Z</time>
      </trkpt>
      <trkpt lat="48.70995" lon="7.09531">
        <ele>273</ele>
        <time>2020-08-09T08:20:23Z</time>
      </trkpt>
      <trkpt lat="48.70992" lon="7.09518">
        <ele>273</ele>
        <time>2020-08-09T08:20:25Z</time>
      </trkpt>
      <trkpt lat="48.70989" lon="7.09506">
        <ele>273</ele>
        <time>2020-08-09T08:20:27Z</time>
      </trkpt>
      <trkpt lat="48.70986" lon="7.09494">
        <ele>274</ele>
        <time>2020-08-09T08:20:29Z</time>
      </trkpt>
      <trkpt lat="48.70983" lon="7.09482">
        <ele>273</ele>
        <time>2020-08-09T08:20:31Z</time>
      </trkpt>
      <trkpt lat="48.7098" lon="7.0947">
        <ele>273</ele>
        <time>2020-08-09T08:20:33Z</time>
      </trkpt>
      <trkpt lat="48.70976" lon="7.09458">
        <ele>273</ele>
        <time>2020-08-09T08:20:35Z</time>
      </trkpt>
      <trkpt lat="48.70972" lon="7.09447">
        <ele>274</ele>
        <time>2020-08-09T08:20:37Z</time>
      </trkpt>
      <trkpt lat="48.70967" lon="7.09437">
        <ele>274</ele>
        <time>2020-08-09T08:20:39Z</time>
      </trkpt>
      <trkpt lat="48.70963" lon="7.09426">
        <ele>274</ele>
        <time>2020-08-09T08:20:41Z</time>
      </trkpt>
      <trkpt lat="48.70958" lon="7.09415">
        <ele>273</ele>
        <time>2020-08-09T08:20:43Z</time>
      </trkpt>
      <trkpt lat="48.70954" lon="7.09403">
        <ele>273</ele>
        <time>2020-08-09T08:20:45Z</time>
      </trkpt>
      <trkpt lat="48.7095" lon="7.09391">
        <ele>273</ele>
        <time>2020-08-09T08:20:47Z</time>
      </trkpt>
      <trkpt lat="48.70944" lon="7.09373">
        <ele>274</ele>
        <time>2020-08-09T08:20:50Z</time>
      </trkpt>
      <trkpt lat="48.7094" lon="7.09361">
        <ele>274</ele>
        <time>2020-08-09T08:20:52Z</time>
      </trkpt>
      <trkpt lat="48.70936" lon="7.09349">
        <ele>274</ele>
        <time>2020-08-09T08:20:54Z</time>
      </trkpt>
      <trkpt lat="48.70934" lon="7.09343">
        <ele>274</ele>
        <time>2020-08-09T08:20:55Z</time>
      </trkpt>
      <trkpt lat="48.70931" lon="7.09331">
        <ele>273</ele>
        <time>2020-08-09T08:20:57Z</time>
      </trkpt>
      <trkpt lat="48.70929" lon="7.09325">
        <ele>274</ele>
        <time>2020-08-09T08:20:58Z</time>
      </trkpt>
      <trkpt lat="48.70926" lon="7.09312">
        <ele>274</ele>
        <time>2020-08-09T08:21:00Z</time>
      </trkpt>
      <trkpt lat="48.70924" lon="7.09305">
        <ele>274</ele>
        <time>2020-08-09T08:21:01Z</time>
      </trkpt>
      <trkpt lat="48.70922" lon="7.09298">
        <ele>274</ele>
        <time>2020-08-09T08:21:02Z</time>
      </trkpt>
      <trkpt lat="48.7092" lon="7.09292">
        <ele>273</ele>
        <time>2020-08-09T08:21:03Z</time>
      </trkpt>
      <trkpt lat="48.70918" lon="7.09284">
        <ele>273</ele>
        <time>2020-08-09T08:21:04Z</time>
      </trkpt>
      <trkpt lat="48.70917" lon="7.09278">
        <ele>273</ele>
        <time>2020-08-09T08:21:05Z</time>
      </trkpt>
      <trkpt lat="48.70916" lon="7.09271">
        <ele>273</ele>
        <time>2020-08-09T08:21:06Z</time>
      </trkpt>
      <trkpt lat="48.70914" lon="7.09263">
        <ele>273</ele>
        <time>2020-08-09T08:21:07Z</time>
      </trkpt>
      <trkpt lat="48.70913" lon="7.09256">
        <ele>273</ele>
        <time>2020-08-09T08:21:08Z</time>
      </trkpt>
      <trkpt lat="48.70911" lon="7.09249">
        <ele>273</ele>
        <time>2020-08-09T08:21:09Z</time>
      </trkpt>
      <trkpt lat="48.7091" lon="7.09242">
        <ele>273</ele>
        <time>2020-08-09T08:21:10Z</time>
      </trkpt>
      <trkpt lat="48.70908" lon="7.09235">
        <ele>273</ele>
        <time>2020-08-09T08:21:11Z</time>
      </trkpt>
      <trkpt lat="48.70906" lon="7.09229">
        <ele>273</ele>
        <time>2020-08-09T08:21:12Z</time>
      </trkpt>
      <trkpt lat="48.70903" lon="7.09216">
        <ele>273</ele>
        <time>2020-08-09T08:21:14Z</time>
      </trkpt>
      <trkpt lat="48.70901" lon="7.0921">
        <ele>273</ele>
        <time>2020-08-09T08:21:15Z</time>
      </trkpt>
      <trkpt lat="48.70896" lon="7.09198">
        <ele>273</ele>
        <time>2020-08-09T08:21:17Z</time>
      </trkpt>
      <trkpt lat="48.70893" lon="7.09192">
        <ele>273</ele>
        <time>2020-08-09T08:21:18Z</time>
      </trkpt>
      <trkpt lat="48.7089" lon="7.09186">
        <ele>273</ele>
        <time>2020-08-09T08:21:19Z</time>
      </trkpt>
      <trkpt lat="48.70888" lon="7.0918">
        <ele>273</ele>
        <time>2020-08-09T08:21:20Z</time>
      </trkpt>
      <trkpt lat="48.70885" lon="7.09174">
        <ele>273</ele>
        <time>2020-08-09T08:21:21Z</time>
      </trkpt>
      <trkpt lat="48.70882" lon="7.09168">
        <ele>273</ele>
        <time>2020-08-09T08:21:22Z</time>
      </trkpt>
      <trkpt lat="48.70879" lon="7.09162">
        <ele>274</ele>
        <time>2020-08-09T08:21:23Z</time>
      </trkpt>
      <trkpt lat="48.70877" lon="7.09156">
        <ele>274</ele>
        <time>2020-08-09T08:21:24Z</time>
      </trkpt>
      <trkpt lat="48.70874" lon="7.09151">
        <ele>274</ele>
        <time>2020-08-09T08:21:25Z</time>
      </trkpt>
      <trkpt lat="48.70871" lon="7.09144">
        <ele>274</ele>
        <time>2020-08-09T08:21:26Z</time>
      </trkpt>
      <trkpt lat="48.70868" lon="7.09139">
        <ele>274</ele>
        <time>2020-08-09T08:21:27Z</time>
      </trkpt>
      <trkpt lat="48.70866" lon="7.09132">
        <ele>274</ele>
        <time>2020-08-09T08:21:28Z</time>
      </trkpt>
      <trkpt lat="48.70863" lon="7.09126">
        <ele>273</ele>
        <time>2020-08-09T08:21:29Z</time>
      </trkpt>
      <trkpt lat="48.7086" lon="7.0912">
        <ele>273</ele>
        <time>2020-08-09T08:21:30Z</time>
      </trkpt>
      <trkpt lat="48.70857" lon="7.09114">
        <ele>273</ele>
        <time>2020-08-09T08:21:31Z</time>
      </trkpt>
      <trkpt lat="48.70854" lon="7.09108">
        <ele>273</ele>
        <time>2020-08-09T08:21:32Z</time>
      </trkpt>
      <trkpt lat="48.7085" lon="7.09101">
        <ele>273</ele>
        <time>2020-08-09T08:21:33Z</time>
      </trkpt>
      <trkpt lat="48.70847" lon="7.09095">
        <ele>273</ele>
        <time>2020-08-09T08:21:34Z</time>
      </trkpt>
      <trkpt lat="48.70844" lon="7.09088">
        <ele>272</ele>
        <time>2020-08-09T08:21:35Z</time>
      </trkpt>
      <trkpt lat="48.70841" lon="7.09081">
        <ele>272</ele>
        <time>2020-08-09T08:21:36Z</time>
      </trkpt>
      <trkpt lat="48.70837" lon="7.09074">
        <ele>272</ele>
        <time>2020-08-09T08:21:37Z</time>
      </trkpt>
      <trkpt lat="48.70834" lon="7.09067">
        <ele>272</ele>
        <time>2020-08-09T08:21:38Z</time>
      </trkpt>
      <trkpt lat="48.70831" lon="7.0906">
        <ele>272</ele>
        <time>2020-08-09T08:21:39Z</time>
      </trkpt>
      <trkpt lat="48.70827" lon="7.09052">
        <ele>272</ele>
        <time>2020-08-09T08:21:40Z</time>
      </trkpt>
      <trkpt lat="48.70823" lon="7.09044">
        <ele>271</ele>
        <time>2020-08-09T08:21:41Z</time>
      </trkpt>
      <trkpt lat="48.7082" lon="7.09036">
        <ele>271</ele>
        <time>2020-08-09T08:21:42Z</time>
      </trkpt>
      <trkpt lat="48.70817" lon="7.09027">
        <ele>271</ele>
        <time>2020-08-09T08:21:43Z</time>
      </trkpt>
      <trkpt lat="48.70814" lon="7.09018">
        <ele>271</ele>
        <time>2020-08-09T08:21:44Z</time>
      </trkpt>
      <trkpt lat="48.7081" lon="7.09009">
        <ele>270</ele>
        <time>2020-08-09T08:21:45Z</time>
      </trkpt>
      <trkpt lat="48.70807" lon="7.08999">
        <ele>270</ele>
        <time>2020-08-09T08:21:46Z</time>
      </trkpt>
      <trkpt lat="48.70804" lon="7.0899">
        <ele>270</ele>
        <time>2020-08-09T08:21:47Z</time>
      </trkpt>
      <trkpt lat="48.70802" lon="7.08981">
        <ele>270</ele>
        <time>2020-08-09T08:21:48Z</time>
      </trkpt>
      <trkpt lat="48.70799" lon="7.08971">
        <ele>269</ele>
        <time>2020-08-09T08:21:49Z</time>
      </trkpt>
      <trkpt lat="48.70797" lon="7.08962">
        <ele>269</ele>
        <time>2020-08-09T08:21:50Z</time>
      </trkpt>
      <trkpt lat="48.70794" lon="7.08953">
        <ele>269</ele>
        <time>2020-08-09T08:21:51Z</time>
      </trkpt>
      <trkpt lat="48.70792" lon="7.08946">
        <ele>269</ele>
        <time>2020-08-09T08:21:52Z</time>
      </trkpt>
      <trkpt lat="48.70789" lon="7.08937">
        <ele>269</ele>
        <time>2020-08-09T08:21:53Z</time>
      </trkpt>
      <trkpt lat="48.70787" lon="7.08929">
        <ele>269</ele>
        <time>2020-08-09T08:21:54Z</time>
      </trkpt>
      <trkpt lat="48.70784" lon="7.08921">
        <ele>269</ele>
        <time>2020-08-09T08:21:55Z</time>
      </trkpt>
      <trkpt lat="48.70783" lon="7.08913">
        <ele>269</ele>
        <time>2020-08-09T08:21:56Z</time>
      </trkpt>
      <trkpt lat="48.70781" lon="7.08905">
        <ele>269</ele>
        <time>2020-08-09T08:21:57Z</time>
      </trkpt>
      <trkpt lat="48.70779" lon="7.08897">
        <ele>269</ele>
        <time>2020-08-09T08:21:58Z</time>
      </trkpt>
      <trkpt lat="48.70778" lon="7.08889">
        <ele>269</ele>
        <time>2020-08-09T08:21:59Z</time>
      </trkpt>
      <trkpt lat="48.70776" lon="7.08882">
        <ele>269</ele>
        <time>2020-08-09T08:22:00Z</time>
      </trkpt>
      <trkpt lat="48.70774" lon="7.08874">
        <ele>269</ele>
        <time>2020-08-09T08:22:01Z</time>
      </trkpt>
      <trkpt lat="48.70772" lon="7.08867">
        <ele>269</ele>
        <time>2020-08-09T08:22:02Z</time>
      </trkpt>
      <trkpt lat="48.7077" lon="7.08859">
        <ele>269</ele>
        <time>2020-08-09T08:22:03Z</time>
      </trkpt>
      <trkpt lat="48.70768" lon="7.08852">
        <ele>269</ele>
        <time>2020-08-09T08:22:04Z</time>
      </trkpt>
      <trkpt lat="48.70766" lon="7.08846">
        <ele>269</ele>
        <time>2020-08-09T08:22:05Z</time>
      </trkpt>
      <trkpt lat="48.70764" lon="7.0884">
        <ele>269</ele>
        <time>2020-08-09T08:22:06Z</time>
      </trkpt>
      <trkpt lat="48.70761" lon="7.08828">
        <ele>269</ele>
        <time>2020-08-09T08:22:08Z</time>
      </trkpt>
      <trkpt lat="48.70757" lon="7.08817">
        <ele>270</ele>
        <time>2020-08-09T08:22:10Z</time>
      </trkpt>
      <trkpt lat="48.70753" lon="7.08806">
        <ele>270</ele>
        <time>2020-08-09T08:22:12Z</time>
      </trkpt>
      <trkpt lat="48.70748" lon="7.08794">
        <ele>270</ele>
        <time>2020-08-09T08:22:14Z</time>
      </trkpt>
      <trkpt lat="48.70744" lon="7.08783">
        <ele>270</ele>
        <time>2020-08-09T08:22:16Z</time>
      </trkpt>
      <trkpt lat="48.7074" lon="7.08772">
        <ele>269</ele>
        <time>2020-08-09T08:22:18Z</time>
      </trkpt>
      <trkpt lat="48.70738" lon="7.08765">
        <ele>269</ele>
        <time>2020-08-09T08:22:19Z</time>
      </trkpt>
      <trkpt lat="48.70734" lon="7.08753">
        <ele>270</ele>
        <time>2020-08-09T08:22:21Z</time>
      </trkpt>
      <trkpt lat="48.70731" lon="7.08739">
        <ele>269</ele>
        <time>2020-08-09T08:22:23Z</time>
      </trkpt>
      <trkpt lat="48.70728" lon="7.08732">
        <ele>269</ele>
        <time>2020-08-09T08:22:24Z</time>
      </trkpt>
      <trkpt lat="48.70726" lon="7.08725">
        <ele>269</ele>
        <time>2020-08-09T08:22:25Z</time>
      </trkpt>
      <trkpt lat="48.70725" lon="7.08717">
        <ele>269</ele>
        <time>2020-08-09T08:22:26Z</time>
      </trkpt>
      <trkpt lat="48.70722" lon="7.08711">
        <ele>269</ele>
        <time>2020-08-09T08:22:27Z</time>
      </trkpt>
      <trkpt lat="48.7072" lon="7.08704">
        <ele>269</ele>
        <time>2020-08-09T08:22:28Z</time>
      </trkpt>
      <trkpt lat="48.70717" lon="7.08697">
        <ele>269</ele>
        <time>2020-08-09T08:22:29Z</time>
      </trkpt>
      <trkpt lat="48.70715" lon="7.0869">
        <ele>268</ele>
        <time>2020-08-09T08:22:30Z</time>
      </trkpt>
      <trkpt lat="48.70712" lon="7.08683">
        <ele>268</ele>
        <time>2020-08-09T08:22:31Z</time>
      </trkpt>
      <trkpt lat="48.70709" lon="7.08677">
        <ele>268</ele>
        <time>2020-08-09T08:22:32Z</time>
      </trkpt>
      <trkpt lat="48.70706" lon="7.08671">
        <ele>268</ele>
        <time>2020-08-09T08:22:33Z</time>
      </trkpt>
      <trkpt lat="48.70703" lon="7.08665">
        <ele>268</ele>
        <time>2020-08-09T08:22:34Z</time>
      </trkpt>
      <trkpt lat="48.70699" lon="7.08659">
        <ele>267</ele>
        <time>2020-08-09T08:22:35Z</time>
      </trkpt>
      <trkpt lat="48.70695" lon="7.08654">
        <ele>267</ele>
        <time>2020-08-09T08:22:36Z</time>
      </trkpt>
      <trkpt lat="48.70691" lon="7.08648">
        <ele>267</ele>
        <time>2020-08-09T08:22:37Z</time>
      </trkpt>
      <trkpt lat="48.70687" lon="7.08643">
        <ele>267</ele>
        <time>2020-08-09T08:22:38Z</time>
      </trkpt>
      <trkpt lat="48.70683" lon="7.08637">
        <ele>267</ele>
        <time>2020-08-09T08:22:39Z</time>
      </trkpt>
      <trkpt lat="48.70679" lon="7.08631">
        <ele>267</ele>
        <time>2020-08-09T08:22:40Z</time>
      </trkpt>
      <trkpt lat="48.70675" lon="7.08625">
        <ele>267</ele>
        <time>2020-08-09T08:22:41Z</time>
      </trkpt>
      <trkpt lat="48.70672" lon="7.08619">
        <ele>267</ele>
        <time>2020-08-09T08:22:42Z</time>
      </trkpt>
      <trkpt lat="48.70667" lon="7.08613">
        <ele>267</ele>
        <time>2020-08-09T08:22:43Z</time>
      </trkpt>
      <trkpt lat="48.70664" lon="7.08608">
        <ele>267</ele>
        <time>2020-08-09T08:22:44Z</time>
      </trkpt>
      <trkpt lat="48.7066" lon="7.08602">
        <ele>267</ele>
        <time>2020-08-09T08:22:45Z</time>
      </trkpt>
      <trkpt lat="48.70656" lon="7.08597">
        <ele>267</ele>
        <time>2020-08-09T08:22:46Z</time>
      </trkpt>
      <trkpt lat="48.70653" lon="7.08591">
        <ele>267</ele>
        <time>2020-08-09T08:22:47Z</time>
      </trkpt>
      <trkpt lat="48.70649" lon="7.08585">
        <ele>267</ele>
        <time>2020-08-09T08:22:48Z</time>
      </trkpt>
      <trkpt lat="48.70647" lon="7.08579">
        <ele>267</ele>
        <time>2020-08-09T08:22:49Z</time>
      </trkpt>
      <trkpt lat="48.70644" lon="7.08572">
        <ele>267</ele>
        <time>2020-08-09T08:22:50Z</time>
      </trkpt>
      <trkpt lat="48.70641" lon="7.08567">
        <ele>267</ele>
        <time>2020-08-09T08:22:51Z</time>
      </trkpt>
      <trkpt lat="48.70637" lon="7.08561">
        <ele>268</ele>
        <time>2020-08-09T08:22:52Z</time>
      </trkpt>
      <trkpt lat="48.70634" lon="7.08555">
        <ele>268</ele>
        <time>2020-08-09T08:22:53Z</time>
      </trkpt>
      <trkpt lat="48.70631" lon="7.08548">
        <ele>268</ele>
        <time>2020-08-09T08:22:54Z</time>
      </trkpt>
      <trkpt lat="48.70629" lon="7.08542">
        <ele>268</ele>
        <time>2020-08-09T08:22:55Z</time>
      </trkpt>
      <trkpt lat="48.70626" lon="7.08536">
        <ele>269</ele>
        <time>2020-08-09T08:22:56Z</time>
      </trkpt>
      <trkpt lat="48.70623" lon="7.0853">
        <ele>269</ele>
        <time>2020-08-09T08:22:57Z</time>
      </trkpt>
      <trkpt lat="48.70621" lon="7.08524">
        <ele>269</ele>
        <time>2020-08-09T08:22:58Z</time>
      </trkpt>
      <trkpt lat="48.70617" lon="7.08512">
        <ele>269</ele>
        <time>2020-08-09T08:23:00Z</time>
      </trkpt>
      <trkpt lat="48.70614" lon="7.085">
        <ele>269</ele>
        <time>2020-08-09T08:23:02Z</time>
      </trkpt>
      <trkpt lat="48.7061" lon="7.08489">
        <ele>270</ele>
        <time>2020-08-09T08:23:04Z</time>
      </trkpt>
      <trkpt lat="48.70607" lon="7.08479">
        <ele>270</ele>
        <time>2020-08-09T08:23:06Z</time>
      </trkpt>
      <trkpt lat="48.70603" lon="7.08469">
        <ele>271</ele>
        <time>2020-08-09T08:23:08Z</time>
      </trkpt>
      <trkpt lat="48.70601" lon="7.0846">
        <ele>271</ele>
        <time>2020-08-09T08:23:10Z</time>
      </trkpt>
      <trkpt lat="48.70597" lon="7.08451">
        <ele>272</ele>
        <time>2020-08-09T08:23:12Z</time>
      </trkpt>
      <trkpt lat="48.70595" lon="7.08442">
        <ele>272</ele>
        <time>2020-08-09T08:23:14Z</time>
      </trkpt>
      <trkpt lat="48.70592" lon="7.08434">
        <ele>272</ele>
        <time>2020-08-09T08:23:16Z</time>
      </trkpt>
      <trkpt lat="48.7059" lon="7.08426">
        <ele>272</ele>
        <time>2020-08-09T08:23:18Z</time>
      </trkpt>
      <trkpt lat="48.70587" lon="7.08419">
        <ele>272</ele>
        <time>2020-08-09T08:23:20Z</time>
      </trkpt>
      <trkpt lat="48.70585" lon="7.08412">
        <ele>272</ele>
        <time>2020-08-09T08:23:22Z</time>
      </trkpt>
      <trkpt lat="48.70583" lon="7.08405">
        <ele>273</ele>
        <time>2020-08-09T08:23:24Z</time>
      </trkpt>
      <trkpt lat="48.7058" lon="7.08398">
        <ele>273</ele>
        <time>2020-08-09T08:23:26Z</time>
      </trkpt>
      <trkpt lat="48.70578" lon="7.08391">
        <ele>274</ele>
        <time>2020-08-09T08:23:28Z</time>
      </trkpt>
      <trkpt lat="48.70575" lon="7.08384">
        <ele>274</ele>
        <time>2020-08-09T08:23:30Z</time>
      </trkpt>
      <trkpt lat="48.70573" lon="7.08377">
        <ele>274</ele>
        <time>2020-08-09T08:23:32Z</time>
      </trkpt>
      <trkpt lat="48.7057" lon="7.08369">
        <ele>274</ele>
        <time>2020-08-09T08:23:34Z</time>
      </trkpt>
      <trkpt lat="48.70567" lon="7.0836">
        <ele>274</ele>
        <time>2020-08-09T08:23:36Z</time>
      </trkpt>
      <trkpt lat="48.70564" lon="7.08352">
        <ele>275</ele>
        <time>2020-08-09T08:23:38Z</time>
      </trkpt>
      <trkpt lat="48.70561" lon="7.08344">
        <ele>275</ele>
        <time>2020-08-09T08:23:40Z</time>
      </trkpt>
      <trkpt lat="48.70557" lon="7.08336">
        <ele>275</ele>
        <time>2020-08-09T08:23:42Z</time>
      </trkpt>
      <trkpt lat="48.70553" lon="7.08328">
        <ele>275</ele>
        <time>2020-08-09T08:23:44Z</time>
      </trkpt>
      <trkpt lat="48.70549" lon="7.08321">
        <ele>275</ele>
        <time>2020-08-09T08:23:46Z</time>
      </trkpt>
      <trkpt lat="48.70545" lon="7.08314">
        <ele>276</ele>
        <time>2020-08-09T08:23:48Z</time>
      </trkpt>
      <trkpt lat="48.70541" lon="7.08308">
        <ele>276</ele>
        <time>2020-08-09T08:23:50Z</time>
      </trkpt>
      <trkpt lat="48.70538" lon="7.08302">
        <ele>276</ele>
        <time>2020-08-09T08:23:52Z</time>
      </trkpt>
      <trkpt lat="48.70534" lon="7.08297">
        <ele>277</ele>
        <time>2020-08-09T08:23:54Z</time>
      </trkpt>
      <trkpt lat="48.7053" lon="7.08292">
        <ele>277</ele>
        <time>2020-08-09T08:23:56Z</time>
      </trkpt>
      <trkpt lat="48.70527" lon="7.08287">
        <ele>277</ele>
        <time>2020-08-09T08:23:58Z</time>
      </trkpt>
      <trkpt lat="48.70524" lon="7.08281">
        <ele>278</ele>
        <time>2020-08-09T08:24:00Z</time>
      </trkpt>
      <trkpt lat="48.7052" lon="7.08276">
        <ele>278</ele>
        <time>2020-08-09T08:24:02Z</time>
      </trkpt>
      <trkpt lat="48.70516" lon="7.08271">
        <ele>278</ele>
        <time>2020-08-09T08:24:04Z</time>
      </trkpt>
      <trkpt lat="48.70512" lon="7.08266">
        <ele>278</ele>
        <time>2020-08-09T08:24:06Z</time>
      </trkpt>
      <trkpt lat="48.70509" lon="7.08261">
        <ele>278</ele>
        <time>2020-08-09T08:24:08Z</time>
      </trkpt>
      <trkpt lat="48.70505" lon="7.08255">
        <ele>278</ele>
        <time>2020-08-09T08:24:10Z</time>
      </trkpt>
      <trkpt lat="48.70501" lon="7.08249">
        <ele>278</ele>
        <time>2020-08-09T08:24:12Z</time>
      </trkpt>
      <trkpt lat="48.70497" lon="7.08243">
        <ele>279</ele>
        <time>2020-08-09T08:24:14Z</time>
      </trkpt>
      <trkpt lat="48.70493" lon="7.08238">
        <ele>279</ele>
        <time>2020-08-09T08:24:16Z</time>
      </trkpt>
      <trkpt lat="48.7049" lon="7.08233">
        <ele>279</ele>
        <time>2020-08-09T08:24:18Z</time>
      </trkpt>
      <trkpt lat="48.70485" lon="7.08228">
        <ele>279</ele>
        <time>2020-08-09T08:24:20Z</time>
      </trkpt>
      <trkpt lat="48.70481" lon="7.08222">
        <ele>279</ele>
        <time>2020-08-09T08:24:22Z</time>
      </trkpt>
      <trkpt lat="48.70478" lon="7.08217">
        <ele>280</ele>
        <time>2020-08-09T08:24:24Z</time>
      </trkpt>
      <trkpt lat="48.70474" lon="7.08212">
        <ele>280</ele>
        <time>2020-08-09T08:24:26Z</time>
      </trkpt>
      <trkpt lat="48.7047" lon="7.08207">
        <ele>280</ele>
        <time>2020-08-09T08:24:28Z</time>
      </trkpt>
      <trkpt lat="48.70467" lon="7.08201">
        <ele>280</ele>
        <time>2020-08-09T08:24:30Z</time>
      </trkpt>
      <trkpt lat="48.70463" lon="7.08194">
        <ele>281</ele>
        <time>2020-08-09T08:24:32Z</time>
      </trkpt>
      <trkpt lat="48.7046" lon="7.0819">
        <ele>281</ele>
        <time>2020-08-09T08:24:34Z</time>
      </trkpt>
      <trkpt lat="48.70456" lon="7.08184">
        <ele>281</ele>
        <time>2020-08-09T08:24:36Z</time>
      </trkpt>
      <trkpt lat="48.70452" lon="7.08177">
        <ele>282</ele>
        <time>2020-08-09T08:24:39Z</time>
      </trkpt>
      <trkpt lat="48.70448" lon="7.08171">
        <ele>282</ele>
        <time>2020-08-09T08:24:41Z</time>
      </trkpt>
      <trkpt lat="48.70445" lon="7.08166">
        <ele>282</ele>
        <time>2020-08-09T08:24:43Z</time>
      </trkpt>
      <trkpt lat="48.70442" lon="7.0816">
        <ele>282</ele>
        <time>2020-08-09T08:24:45Z</time>
      </trkpt>
      <trkpt lat="48.70439" lon="7.08154">
        <ele>282</ele>
        <time>2020-08-09T08:24:47Z</time>
      </trkpt>
      <trkpt lat="48.70435" lon="7.08148">
        <ele>282</ele>
        <time>2020-08-09T08:24:49Z</time>
      </trkpt>
      <trkpt lat="48.70432" lon="7.08142">
        <ele>282</ele>
        <time>2020-08-09T08:24:51Z</time>
      </trkpt>
      <trkpt lat="48.70429" lon="7.08136">
        <ele>282</ele>
        <time>2020-08-09T08:24:53Z</time>
      </trkpt>
      <trkpt lat="48.70425" lon="7.08129">
        <ele>282</ele>
        <time>2020-08-09T08:24:55Z</time>
      </trkpt>
      <trkpt lat="48.70422" lon="7.08122">
        <ele>283</ele>
        <time>2020-08-09T08:24:57Z</time>
      </trkpt>
      <trkpt lat="48.70419" lon="7.08115">
        <ele>283</ele>
        <time>2020-08-09T08:24:59Z</time>
      </trkpt>
      <trkpt lat="48.70417" lon="7.08106">
        <ele>283</ele>
        <time>2020-08-09T08:25:01Z</time>
      </trkpt>
      <trkpt lat="48.70417" lon="7.08095">
        <ele>283</ele>
        <time>2020-08-09T08:25:03Z</time>
      </trkpt>
      <trkpt lat="48.70416" lon="7.08083">
        <ele>283</ele>
        <time>2020-08-09T08:25:05Z</time>
      </trkpt>
      <trkpt lat="48.70415" lon="7.08069">
        <ele>282</ele>
        <time>2020-08-09T08:25:07Z</time>
      </trkpt>
      <trkpt lat="48.70415" lon="7.08055">
        <ele>282</ele>
        <time>2020-08-09T08:25:09Z</time>
      </trkpt>
      <trkpt lat="48.70414" lon="7.08047">
        <ele>281</ele>
        <time>2020-08-09T08:25:10Z</time>
      </trkpt>
      <trkpt lat="48.70414" lon="7.0804">
        <ele>281</ele>
        <time>2020-08-09T08:25:11Z</time>
      </trkpt>
      <trkpt lat="48.70413" lon="7.08032">
        <ele>281</ele>
        <time>2020-08-09T08:25:12Z</time>
      </trkpt>
      <trkpt lat="48.70413" lon="7.08024">
        <ele>281</ele>
        <time>2020-08-09T08:25:13Z</time>
      </trkpt>
      <trkpt lat="48.70412" lon="7.08015">
        <ele>281</ele>
        <time>2020-08-09T08:25:14Z</time>
      </trkpt>
      <trkpt lat="48.70412" lon="7.08008">
        <ele>280</ele>
        <time>2020-08-09T08:25:15Z</time>
      </trkpt>
      <trkpt lat="48.70412" lon="7.07999">
        <ele>280</ele>
        <time>2020-08-09T08:25:16Z</time>
      </trkpt>
      <trkpt lat="48.70412" lon="7.0799">
        <ele>280</ele>
        <time>2020-08-09T08:25:17Z</time>
      </trkpt>
      <trkpt lat="48.70412" lon="7.07982">
        <ele>280</ele>
        <time>2020-08-09T08:25:18Z</time>
      </trkpt>
      <trkpt lat="48.70412" lon="7.07969">
        <ele>280</ele>
        <time>2020-08-09T08:25:20Z</time>
      </trkpt>
      <trkpt lat="48.70413" lon="7.07957">
        <ele>280</ele>
        <time>2020-08-09T08:25:22Z</time>
      </trkpt>
      <trkpt lat="48.70414" lon="7.07944">
        <ele>279</ele>
        <time>2020-08-09T08:25:24Z</time>
      </trkpt>
      <trkpt lat="48.70415" lon="7.07932">
        <ele>278</ele>
        <time>2020-08-09T08:25:26Z</time>
      </trkpt>
      <trkpt lat="48.70414" lon="7.07919">
        <ele>278</ele>
        <time>2020-08-09T08:25:28Z</time>
      </trkpt>
      <trkpt lat="48.70414" lon="7.07911">
        <ele>278</ele>
        <time>2020-08-09T08:25:29Z</time>
      </trkpt>
      <trkpt lat="48.70415" lon="7.07904">
        <ele>278</ele>
        <time>2020-08-09T08:25:30Z</time>
      </trkpt>
      <trkpt lat="48.70416" lon="7.07897">
        <ele>278</ele>
        <time>2020-08-09T08:25:31Z</time>
      </trkpt>
      <trkpt lat="48.70416" lon="7.07889">
        <ele>278</ele>
        <time>2020-08-09T08:25:32Z</time>
      </trkpt>
      <trkpt lat="48.70416" lon="7.07882">
        <ele>278</ele>
        <time>2020-08-09T08:25:33Z</time>
      </trkpt>
      <trkpt lat="48.70416" lon="7.07873">
        <ele>278</ele>
        <time>2020-08-09T08:25:34Z</time>
      </trkpt>
      <trkpt lat="48.70416" lon="7.07865">
        <ele>278</ele>
        <time>2020-08-09T08:25:35Z</time>
      </trkpt>
      <trkpt lat="48.70417" lon="7.07857">
        <ele>278</ele>
        <time>2020-08-09T08:25:36Z</time>
      </trkpt>
      <trkpt lat="48.70417" lon="7.07848">
        <ele>277</ele>
        <time>2020-08-09T08:25:37Z</time>
      </trkpt>
      <trkpt lat="48.70417" lon="7.07838">
        <ele>277</ele>
        <time>2020-08-09T08:25:38Z</time>
      </trkpt>
      <trkpt lat="48.70417" lon="7.07829">
        <ele>276</ele>
        <time>2020-08-09T08:25:39Z</time>
      </trkpt>
      <trkpt lat="48.70418" lon="7.0782">
        <ele>276</ele>
        <time>2020-08-09T08:25:40Z</time>
      </trkpt>
      <trkpt lat="48.70419" lon="7.0781">
        <ele>276</ele>
        <time>2020-08-09T08:25:41Z</time>
      </trkpt>
      <trkpt lat="48.70419" lon="7.078">
        <ele>276</ele>
        <time>2020-08-09T08:25:42Z</time>
      </trkpt>
      <trkpt lat="48.70419" lon="7.0779">
        <ele>275</ele>
        <time>2020-08-09T08:25:43Z</time>
      </trkpt>
      <trkpt lat="48.70419" lon="7.0778">
        <ele>275</ele>
        <time>2020-08-09T08:25:44Z</time>
      </trkpt>
      <trkpt lat="48.7042" lon="7.07771">
        <ele>274</ele>
        <time>2020-08-09T08:25:45Z</time>
      </trkpt>
      <trkpt lat="48.70419" lon="7.07762">
        <ele>274</ele>
        <time>2020-08-09T08:25:46Z</time>
      </trkpt>
      <trkpt lat="48.70419" lon="7.07754">
        <ele>274</ele>
        <time>2020-08-09T08:25:47Z</time>
      </trkpt>
      <trkpt lat="48.7042" lon="7.07745">
        <ele>274</ele>
        <time>2020-08-09T08:25:48Z</time>
      </trkpt>
      <trkpt lat="48.7042" lon="7.07738">
        <ele>274</ele>
        <time>2020-08-09T08:25:49Z</time>
      </trkpt>
      <trkpt lat="48.70421" lon="7.0773">
        <ele>274</ele>
        <time>2020-08-09T08:25:50Z</time>
      </trkpt>
      <trkpt lat="48.70422" lon="7.07724">
        <ele>273</ele>
        <time>2020-08-09T08:25:51Z</time>
      </trkpt>
      <trkpt lat="48.70423" lon="7.07717">
        <ele>273</ele>
        <time>2020-08-09T08:25:52Z</time>
      </trkpt>
      <trkpt lat="48.70426" lon="7.07712">
        <ele>273</ele>
        <time>2020-08-09T08:25:53Z</time>
      </trkpt>
      <trkpt lat="48.7043" lon="7.07709">
        <ele>273</ele>
        <time>2020-08-09T08:25:54Z</time>
      </trkpt>
      <trkpt lat="48.70435" lon="7.07708">
        <ele>273</ele>
        <time>2020-08-09T08:25:55Z</time>
      </trkpt>
      <trkpt lat="48.7044" lon="7.07708">
        <ele>274</ele>
        <time>2020-08-09T08:25:56Z</time>
      </trkpt>
      <trkpt lat="48.70445" lon="7.07708">
        <ele>274</ele>
        <time>2020-08-09T08:25:57Z</time>
      </trkpt>
      <trkpt lat="48.7045" lon="7.07708">
        <ele>274</ele>
        <time>2020-08-09T08:25:58Z</time>
      </trkpt>
      <trkpt lat="48.70454" lon="7.07709">
        <ele>273</ele>
        <time>2020-08-09T08:25:59Z</time>
      </trkpt>
      <trkpt lat="48.70459" lon="7.0771">
        <ele>273</ele>
        <time>2020-08-09T08:26:00Z</time>
      </trkpt>
      <trkpt lat="48.70464" lon="7.07711">
        <ele>272</ele>
        <time>2020-08-09T08:26:01Z</time>
      </trkpt>
      <trkpt lat="48.70469" lon="7.07712">
        <ele>271</ele>
        <time>2020-08-09T08:26:02Z</time>
      </trkpt>
      <trkpt lat="48.70474" lon="7.07714">
        <ele>271</ele>
        <time>2020-08-09T08:26:03Z</time>
      </trkpt>
      <trkpt lat="48.70479" lon="7.07716">
        <ele>271</ele>
        <time>2020-08-09T08:26:04Z</time>
      </trkpt>
      <trkpt lat="48.70485" lon="7.07717">
        <ele>271</ele>
        <time>2020-08-09T08:26:05Z</time>
      </trkpt>
      <trkpt lat="48.7049" lon="7.07719">
        <ele>271</ele>
        <time>2020-08-09T08:26:06Z</time>
      </trkpt>
      <trkpt lat="48.70495" lon="7.07721">
        <ele>271</ele>
        <time>2020-08-09T08:26:07Z</time>
      </trkpt>
      <trkpt lat="48.705" lon="7.07722">
        <ele>271</ele>
        <time>2020-08-09T08:26:08Z</time>
      </trkpt>
      <trkpt lat="48.70506" lon="7.07724">
        <ele>270</ele>
        <time>2020-08-09T08:26:09Z</time>
      </trkpt>
      <trkpt lat="48.70512" lon="7.07726">
        <ele>270</ele>
        <time>2020-08-09T08:26:10Z</time>
      </trkpt>
      <trkpt lat="48.70517" lon="7.07728">
        <ele>270</ele>
        <time>2020-08-09T08:26:11Z</time>
      </trkpt>
      <trkpt lat="48.70522" lon="7.0773">
        <ele>270</ele>
        <time>2020-08-09T08:26:12Z</time>
      </trkpt>
      <trkpt lat="48.70528" lon="7.07732">
        <ele>269</ele>
        <time>2020-08-09T08:26:13Z</time>
      </trkpt>
      <trkpt lat="48.70534" lon="7.07733">
        <ele>269</ele>
        <time>2020-08-09T08:26:14Z</time>
      </trkpt>
      <trkpt lat="48.7054" lon="7.07736">
        <ele>270</ele>
        <time>2020-08-09T08:26:15Z</time>
      </trkpt>
      <trkpt lat="48.70545" lon="7.07737">
        <ele>270</ele>
        <time>2020-08-09T08:26:16Z</time>
      </trkpt>
      <trkpt lat="48.70551" lon="7.07739">
        <ele>270</ele>
        <time>2020-08-09T08:26:17Z</time>
      </trkpt>
      <trkpt lat="48.70557" lon="7.07741">
        <ele>270</ele>
        <time>2020-08-09T08:26:18Z</time>
      </trkpt>
      <trkpt lat="48.70562" lon="7.07744">
        <ele>270</ele>
        <time>2020-08-09T08:26:19Z</time>
      </trkpt>
      <trkpt lat="48.70567" lon="7.07747">
        <ele>269</ele>
        <time>2020-08-09T08:26:20Z</time>
      </trkpt>
      <trkpt lat="48.70572" lon="7.07749">
        <ele>269</ele>
        <time>2020-08-09T08:26:21Z</time>
      </trkpt>
      <trkpt lat="48.70578" lon="7.07752">
        <ele>269</ele>
        <time>2020-08-09T08:26:22Z</time>
      </trkpt>
      <trkpt lat="48.70583" lon="7.07755">
        <ele>268</ele>
        <time>2020-08-09T08:26:23Z</time>
      </trkpt>
      <trkpt lat="48.70588" lon="7.07758">
        <ele>268</ele>
        <time>2020-08-09T08:26:24Z</time>
      </trkpt>
      <trkpt lat="48.70593" lon="7.0776">
        <ele>268</ele>
        <time>2020-08-09T08:26:25Z</time>
      </trkpt>
      <trkpt lat="48.70598" lon="7.07764">
        <ele>268</ele>
        <time>2020-08-09T08:26:26Z</time>
      </trkpt>
      <trkpt lat="48.70603" lon="7.07767">
        <ele>268</ele>
        <time>2020-08-09T08:26:27Z</time>
      </trkpt>
      <trkpt lat="48.70608" lon="7.0777">
        <ele>268</ele>
        <time>2020-08-09T08:26:28Z</time>
      </trkpt>
      <trkpt lat="48.70612" lon="7.07772">
        <ele>268</ele>
        <time>2020-08-09T08:26:29Z</time>
      </trkpt>
      <trkpt lat="48.70621" lon="7.07777">
        <ele>268</ele>
        <time>2020-08-09T08:26:31Z</time>
      </trkpt>
      <trkpt lat="48.70628" lon="7.07781">
        <ele>268</ele>
        <time>2020-08-09T08:26:33Z</time>
      </trkpt>
      <trkpt lat="48.70635" lon="7.07785">
        <ele>268</ele>
        <time>2020-08-09T08:26:35Z</time>
      </trkpt>
      <trkpt lat="48.70642" lon="7.0779">
        <ele>268</ele>
        <time>2020-08-09T08:26:37Z</time>
      </trkpt>
      <trkpt lat="48.70649" lon="7.07794">
        <ele>269</ele>
        <time>2020-08-09T08:26:39Z</time>
      </trkpt>
      <trkpt lat="48.70655" lon="7.07798">
        <ele>269</ele>
        <time>2020-08-09T08:26:41Z</time>
      </trkpt>
      <trkpt lat="48.7066" lon="7.07803">
        <ele>269</ele>
        <time>2020-08-09T08:26:43Z</time>
      </trkpt>
      <trkpt lat="48.70664" lon="7.07809">
        <ele>269</ele>
        <time>2020-08-09T08:26:45Z</time>
      </trkpt>
      <trkpt lat="48.70668" lon="7.07813">
        <ele>268</ele>
        <time>2020-08-09T08:26:47Z</time>
      </trkpt>
      <trkpt lat="48.70674" lon="7.07818">
        <ele>268</ele>
        <time>2020-08-09T08:26:49Z</time>
      </trkpt>
      <trkpt lat="48.7068" lon="7.0782">
        <ele>268</ele>
        <time>2020-08-09T08:26:51Z</time>
      </trkpt>
      <trkpt lat="48.70685" lon="7.07819">
        <ele>267</ele>
        <time>2020-08-09T08:26:53Z</time>
      </trkpt>
      <trkpt lat="48.70688" lon="7.07812">
        <ele>267</ele>
        <time>2020-08-09T08:26:55Z</time>
      </trkpt>
      <trkpt lat="48.70689" lon="7.07804">
        <ele>267</ele>
        <time>2020-08-09T08:26:57Z</time>
      </trkpt>
      <trkpt lat="48.70689" lon="7.07795">
        <ele>267</ele>
        <time>2020-08-09T08:27:00Z</time>
      </trkpt>
      <trkpt lat="48.70689" lon="7.07787">
        <ele>267</ele>
        <time>2020-08-09T08:27:03Z</time>
      </trkpt>
      <trkpt lat="48.70704" lon="7.07748">
        <ele>267</ele>
        <time>2020-08-09T08:51:59Z</time>
      </trkpt>
      <trkpt lat="48.70698" lon="7.07757">
        <ele>267</ele>
        <time>2020-08-09T08:52:02Z</time>
      </trkpt>
      <trkpt lat="48.70696" lon="7.07764">
        <ele>267</ele>
        <time>2020-08-09T08:52:03Z</time>
      </trkpt>
      <trkpt lat="48.70692" lon="7.07772">
        <ele>267</ele>
        <time>2020-08-09T08:52:06Z</time>
      </trkpt>
      <trkpt lat="48.70693" lon="7.07783">
        <ele>267</ele>
        <time>2020-08-09T08:53:12Z</time>
      </trkpt>
      <trkpt lat="48.7069" lon="7.07789">
        <ele>267</ele>
        <time>2020-08-09T08:53:15Z</time>
      </trkpt>
      <trkpt lat="48.70688" lon="7.07799">
        <ele>267</ele>
        <time>2020-08-09T08:53:18Z</time>
      </trkpt>
      <trkpt lat="48.70687" lon="7.07806">
        <ele>267</ele>
        <time>2020-08-09T08:53:20Z</time>
      </trkpt>
      <trkpt lat="48.70685" lon="7.07814">
        <ele>267</ele>
        <time>2020-08-09T08:53:22Z</time>
      </trkpt>
      <trkpt lat="48.7068" lon="7.07817">
        <ele>268</ele>
        <time>2020-08-09T08:53:24Z</time>
      </trkpt>
      <trkpt lat="48.70675" lon="7.07817">
        <ele>268</ele>
        <time>2020-08-09T08:53:26Z</time>
      </trkpt>
      <trkpt lat="48.7067" lon="7.07815">
        <ele>268</ele>
        <time>2020-08-09T08:53:28Z</time>
      </trkpt>
      <trkpt lat="48.70666" lon="7.07811">
        <ele>268</ele>
        <time>2020-08-09T08:53:30Z</time>
      </trkpt>
      <trkpt lat="48.70662" lon="7.07806">
        <ele>269</ele>
        <time>2020-08-09T08:53:32Z</time>
      </trkpt>
      <trkpt lat="48.70662" lon="7.07799">
        <ele>269</ele>
        <time>2020-08-09T08:53:35Z</time>
      </trkpt>
      <trkpt lat="48.70668" lon="7.078">
        <ele>268</ele>
        <time>2020-08-09T08:53:37Z</time>
      </trkpt>
      <trkpt lat="48.70674" lon="7.07799">
        <ele>268</ele>
        <time>2020-08-09T08:53:39Z</time>
      </trkpt>
      <trkpt lat="48.7068" lon="7.07791">
        <ele>267</ele>
        <time>2020-08-09T08:53:41Z</time>
      </trkpt>
      <trkpt lat="48.70682" lon="7.07779">
        <ele>267</ele>
        <time>2020-08-09T08:53:43Z</time>
      </trkpt>
      <trkpt lat="48.70682" lon="7.07772">
        <ele>267</ele>
        <time>2020-08-09T08:53:44Z</time>
      </trkpt>
      <trkpt lat="48.70682" lon="7.07765">
        <ele>267</ele>
        <time>2020-08-09T08:53:45Z</time>
      </trkpt>
      <trkpt lat="48.70682" lon="7.07757">
        <ele>267</ele>
        <time>2020-08-09T08:53:46Z</time>
      </trkpt>
      <trkpt lat="48.70681" lon="7.07751">
        <ele>266</ele>
        <time>2020-08-09T08:53:47Z</time>
      </trkpt>
      <trkpt lat="48.70681" lon="7.07743">
        <ele>266</ele>
        <time>2020-08-09T08:53:48Z</time>
      </trkpt>
      <trkpt lat="48.70681" lon="7.07735">
        <ele>266</ele>
        <time>2020-08-09T08:53:49Z</time>
      </trkpt>
      <trkpt lat="48.70681" lon="7.07726">
        <ele>266</ele>
        <time>2020-08-09T08:53:50Z</time>
      </trkpt>
      <trkpt lat="48.7068" lon="7.07717">
        <ele>265</ele>
        <time>2020-08-09T08:53:51Z</time>
      </trkpt>
      <trkpt lat="48.70681" lon="7.07709">
        <ele>265</ele>
        <time>2020-08-09T08:53:52Z</time>
      </trkpt>
      <trkpt lat="48.70681" lon="7.07699">
        <ele>265</ele>
        <time>2020-08-09T08:53:53Z</time>
      </trkpt>
      <trkpt lat="48.70681" lon="7.0769">
        <ele>265</ele>
        <time>2020-08-09T08:53:54Z</time>
      </trkpt>
      <trkpt lat="48.70681" lon="7.07681">
        <ele>265</ele>
        <time>2020-08-09T08:53:55Z</time>
      </trkpt>
      <trkpt lat="48.70682" lon="7.07671">
        <ele>265</ele>
        <time>2020-08-09T08:53:56Z</time>
      </trkpt>
      <trkpt lat="48.70684" lon="7.07661">
        <ele>264</ele>
        <time>2020-08-09T08:53:57Z</time>
      </trkpt>
      <trkpt lat="48.70685" lon="7.0765">
        <ele>264</ele>
        <time>2020-08-09T08:53:58Z</time>
      </trkpt>
      <trkpt lat="48.70687" lon="7.0764">
        <ele>264</ele>
        <time>2020-08-09T08:53:59Z</time>
      </trkpt>
      <trkpt lat="48.70688" lon="7.07629">
        <ele>263</ele>
        <time>2020-08-09T08:54:00Z</time>
      </trkpt>
      <trkpt lat="48.70691" lon="7.07618">
        <ele>263</ele>
        <time>2020-08-09T08:54:01Z</time>
      </trkpt>
      <trkpt lat="48.70693" lon="7.07607">
        <ele>263</ele>
        <time>2020-08-09T08:54:02Z</time>
      </trkpt>
      <trkpt lat="48.70696" lon="7.07597">
        <ele>262</ele>
        <time>2020-08-09T08:54:03Z</time>
      </trkpt>
      <trkpt lat="48.70698" lon="7.07585">
        <ele>262</ele>
        <time>2020-08-09T08:54:04Z</time>
      </trkpt>
      <trkpt lat="48.707" lon="7.07575">
        <ele>262</ele>
        <time>2020-08-09T08:54:05Z</time>
      </trkpt>
      <trkpt lat="48.70702" lon="7.07563">
        <ele>262</ele>
        <time>2020-08-09T08:54:06Z</time>
      </trkpt>
      <trkpt lat="48.70705" lon="7.07553">
        <ele>262</ele>
        <time>2020-08-09T08:54:07Z</time>
      </trkpt>
      <trkpt lat="48.70707" lon="7.07542">
        <ele>262</ele>
        <time>2020-08-09T08:54:08Z</time>
      </trkpt>
      <trkpt lat="48.70709" lon="7.07531">
        <ele>262</ele>
        <time>2020-08-09T08:54:09Z</time>
      </trkpt>
      <trkpt lat="48.70711" lon="7.0752">
        <ele>261</ele>
        <time>2020-08-09T08:54:10Z</time>
      </trkpt>
      <trkpt lat="48.70714" lon="7.0751">
        <ele>262</ele>
        <time>2020-08-09T08:54:11Z</time>
      </trkpt>
      <trkpt lat="48.70716" lon="7.075">
        <ele>262</ele>
        <time>2020-08-09T08:54:12Z</time>
      </trkpt>
      <trkpt lat="48.70718" lon="7.0749">
        <ele>262</ele>
        <time>2020-08-09T08:54:13Z</time>
      </trkpt>
      <trkpt lat="48.70721" lon="7.07481">
        <ele>262</ele>
        <time>2020-08-09T08:54:14Z</time>
      </trkpt>
      <trkpt lat="48.70723" lon="7.07471">
        <ele>262</ele>
        <time>2020-08-09T08:54:15Z</time>
      </trkpt>
      <trkpt lat="48.70725" lon="7.07462">
        <ele>262</ele>
        <time>2020-08-09T08:54:16Z</time>
      </trkpt>
      <trkpt lat="48.70727" lon="7.07453">
        <ele>261</ele>
        <time>2020-08-09T08:54:17Z</time>
      </trkpt>
      <trkpt lat="48.70729" lon="7.07445">
        <ele>261</ele>
        <time>2020-08-09T08:54:18Z</time>
      </trkpt>
      <trkpt lat="48.70731" lon="7.07438">
        <ele>261</ele>
        <time>2020-08-09T08:54:19Z</time>
      </trkpt>
      <trkpt lat="48.70733" lon="7.0743">
        <ele>262</ele>
        <time>2020-08-09T08:54:20Z</time>
      </trkpt>
      <trkpt lat="48.70735" lon="7.07422">
        <ele>262</ele>
        <time>2020-08-09T08:54:21Z</time>
      </trkpt>
      <trkpt lat="48.70737" lon="7.07415">
        <ele>263</ele>
        <time>2020-08-09T08:54:22Z</time>
      </trkpt>
      <trkpt lat="48.70738" lon="7.07408">
        <ele>263</ele>
        <time>2020-08-09T08:54:23Z</time>
      </trkpt>
      <trkpt lat="48.70741" lon="7.07396">
        <ele>263</ele>
        <time>2020-08-09T08:54:25Z</time>
      </trkpt>
      <trkpt lat="48.70744" lon="7.07385">
        <ele>263</ele>
        <time>2020-08-09T08:54:27Z</time>
      </trkpt>
      <trkpt lat="48.70747" lon="7.07374">
        <ele>263</ele>
        <time>2020-08-09T08:54:29Z</time>
      </trkpt>
      <trkpt lat="48.7075" lon="7.07364">
        <ele>263</ele>
        <time>2020-08-09T08:54:31Z</time>
      </trkpt>
      <trkpt lat="48.70752" lon="7.07355">
        <ele>263</ele>
        <time>2020-08-09T08:54:33Z</time>
      </trkpt>
      <trkpt lat="48.70755" lon="7.07346">
        <ele>264</ele>
        <time>2020-08-09T08:54:35Z</time>
      </trkpt>
      <trkpt lat="48.70757" lon="7.07337">
        <ele>265</ele>
        <time>2020-08-09T08:54:37Z</time>
      </trkpt>
      <trkpt lat="48.70758" lon="7.07329">
        <ele>265</ele>
        <time>2020-08-09T08:54:39Z</time>
      </trkpt>
      <trkpt lat="48.70759" lon="7.07321">
        <ele>266</ele>
        <time>2020-08-09T08:54:41Z</time>
      </trkpt>
      <trkpt lat="48.7076" lon="7.07314">
        <ele>266</ele>
        <time>2020-08-09T08:54:43Z</time>
      </trkpt>
      <trkpt lat="48.70761" lon="7.07306">
        <ele>266</ele>
        <time>2020-08-09T08:54:45Z</time>
      </trkpt>
      <trkpt lat="48.70761" lon="7.07299">
        <ele>266</ele>
        <time>2020-08-09T08:54:47Z</time>
      </trkpt>
      <trkpt lat="48.70762" lon="7.07291">
        <ele>266</ele>
        <time>2020-08-09T08:54:49Z</time>
      </trkpt>
      <trkpt lat="48.70762" lon="7.07284">
        <ele>266</ele>
        <time>2020-08-09T08:54:51Z</time>
      </trkpt>
      <trkpt lat="48.70762" lon="7.07277">
        <ele>266</ele>
        <time>2020-08-09T08:54:53Z</time>
      </trkpt>
      <trkpt lat="48.70762" lon="7.0727">
        <ele>267</ele>
        <time>2020-08-09T08:54:55Z</time>
      </trkpt>
      <trkpt lat="48.70761" lon="7.0726">
        <ele>267</ele>
        <time>2020-08-09T08:54:58Z</time>
      </trkpt>
      <trkpt lat="48.70763" lon="7.07253">
        <ele>267</ele>
        <time>2020-08-09T08:55:01Z</time>
      </trkpt>
      <trkpt lat="48.70759" lon="7.07241">
        <ele>268</ele>
        <time>2020-08-09T08:56:11Z</time>
      </trkpt>
      <trkpt lat="48.70758" lon="7.07234">
        <ele>268</ele>
        <time>2020-08-09T08:56:13Z</time>
      </trkpt>
      <trkpt lat="48.70757" lon="7.07227">
        <ele>268</ele>
        <time>2020-08-09T08:56:15Z</time>
      </trkpt>
      <trkpt lat="48.70755" lon="7.0722">
        <ele>268</ele>
        <time>2020-08-09T08:56:17Z</time>
      </trkpt>
      <trkpt lat="48.70754" lon="7.07213">
        <ele>268</ele>
        <time>2020-08-09T08:56:19Z</time>
      </trkpt>
      <trkpt lat="48.70751" lon="7.07206">
        <ele>268</ele>
        <time>2020-08-09T08:56:21Z</time>
      </trkpt>
      <trkpt lat="48.7075" lon="7.07199">
        <ele>268</ele>
        <time>2020-08-09T08:56:23Z</time>
      </trkpt>
      <trkpt lat="48.70747" lon="7.07192">
        <ele>268</ele>
        <time>2020-08-09T08:56:25Z</time>
      </trkpt>
      <trkpt lat="48.70744" lon="7.07186">
        <ele>268</ele>
        <time>2020-08-09T08:56:27Z</time>
      </trkpt>
      <trkpt lat="48.70742" lon="7.07179">
        <ele>268</ele>
        <time>2020-08-09T08:56:29Z</time>
      </trkpt>
      <trkpt lat="48.70739" lon="7.07172">
        <ele>269</ele>
        <time>2020-08-09T08:56:31Z</time>
      </trkpt>
      <trkpt lat="48.70736" lon="7.07165">
        <ele>269</ele>
        <time>2020-08-09T08:56:33Z</time>
      </trkpt>
      <trkpt lat="48.70732" lon="7.07157">
        <ele>269</ele>
        <time>2020-08-09T08:56:35Z</time>
      </trkpt>
      <trkpt lat="48.70728" lon="7.07147">
        <ele>268</ele>
        <time>2020-08-09T08:56:37Z</time>
      </trkpt>
      <trkpt lat="48.70725" lon="7.07142">
        <ele>268</ele>
        <time>2020-08-09T08:56:38Z</time>
      </trkpt>
      <trkpt lat="48.70722" lon="7.07136">
        <ele>268</ele>
        <time>2020-08-09T08:56:39Z</time>
      </trkpt>
      <trkpt lat="48.70718" lon="7.07129">
        <ele>267</ele>
        <time>2020-08-09T08:56:40Z</time>
      </trkpt>
      <trkpt lat="48.70715" lon="7.07122">
        <ele>267</ele>
        <time>2020-08-09T08:56:41Z</time>
      </trkpt>
      <trkpt lat="48.70711" lon="7.07115">
        <ele>268</ele>
        <time>2020-08-09T08:56:42Z</time>
      </trkpt>
      <trkpt lat="48.70707" lon="7.07108">
        <ele>267</ele>
        <time>2020-08-09T08:56:43Z</time>
      </trkpt>
      <trkpt lat="48.70703" lon="7.071">
        <ele>267</ele>
        <time>2020-08-09T08:56:44Z</time>
      </trkpt>
      <trkpt lat="48.70699" lon="7.07094">
        <ele>267</ele>
        <time>2020-08-09T08:56:45Z</time>
      </trkpt>
      <trkpt lat="48.70695" lon="7.07088">
        <ele>266</ele>
        <time>2020-08-09T08:56:46Z</time>
      </trkpt>
      <trkpt lat="48.70691" lon="7.0708">
        <ele>266</ele>
        <time>2020-08-09T08:56:47Z</time>
      </trkpt>
      <trkpt lat="48.70688" lon="7.07074">
        <ele>266</ele>
        <time>2020-08-09T08:56:48Z</time>
      </trkpt>
      <trkpt lat="48.70684" lon="7.07069">
        <ele>266</ele>
        <time>2020-08-09T08:56:49Z</time>
      </trkpt>
      <trkpt lat="48.70681" lon="7.07065">
        <ele>266</ele>
        <time>2020-08-09T08:56:50Z</time>
      </trkpt>
      <trkpt lat="48.70675" lon="7.07057">
        <ele>266</ele>
        <time>2020-08-09T08:56:52Z</time>
      </trkpt>
      <trkpt lat="48.70669" lon="7.07048">
        <ele>266</ele>
        <time>2020-08-09T08:56:54Z</time>
      </trkpt>
      <trkpt lat="48.70662" lon="7.07041">
        <ele>266</ele>
        <time>2020-08-09T08:56:56Z</time>
      </trkpt>
      <trkpt lat="48.70654" lon="7.07034">
        <ele>266</ele>
        <time>2020-08-09T08:56:58Z</time>
      </trkpt>
      <trkpt lat="48.7065" lon="7.07031">
        <ele>266</ele>
        <time>2020-08-09T08:56:59Z</time>
      </trkpt>
      <trkpt lat="48.70645" lon="7.07028">
        <ele>265</ele>
        <time>2020-08-09T08:57:00Z</time>
      </trkpt>
      <trkpt lat="48.7064" lon="7.07026">
        <ele>265</ele>
        <time>2020-08-09T08:57:01Z</time>
      </trkpt>
      <trkpt lat="48.70635" lon="7.07023">
        <ele>265</ele>
        <time>2020-08-09T08:57:02Z</time>
      </trkpt>
      <trkpt lat="48.70629" lon="7.0702">
        <ele>264</ele>
        <time>2020-08-09T08:57:03Z</time>
      </trkpt>
      <trkpt lat="48.70623" lon="7.07018">
        <ele>264</ele>
        <time>2020-08-09T08:57:04Z</time>
      </trkpt>
      <trkpt lat="48.70617" lon="7.07014">
        <ele>264</ele>
        <time>2020-08-09T08:57:05Z</time>
      </trkpt>
      <trkpt lat="48.70612" lon="7.07011">
        <ele>264</ele>
        <time>2020-08-09T08:57:06Z</time>
      </trkpt>
      <trkpt lat="48.70606" lon="7.07008">
        <ele>264</ele>
        <time>2020-08-09T08:57:07Z</time>
      </trkpt>
      <trkpt lat="48.706" lon="7.07005">
        <ele>264</ele>
        <time>2020-08-09T08:57:08Z</time>
      </trkpt>
      <trkpt lat="48.70594" lon="7.07003">
        <ele>263</ele>
        <time>2020-08-09T08:57:09Z</time>
      </trkpt>
      <trkpt lat="48.70588" lon="7.07">
        <ele>263</ele>
        <time>2020-08-09T08:57:10Z</time>
      </trkpt>
      <trkpt lat="48.70583" lon="7.06998">
        <ele>263</ele>
        <time>2020-08-09T08:57:11Z</time>
      </trkpt>
      <trkpt lat="48.70578" lon="7.06996">
        <ele>263</ele>
        <time>2020-08-09T08:57:12Z</time>
      </trkpt>
      <trkpt lat="48.70573" lon="7.06993">
        <ele>263</ele>
        <time>2020-08-09T08:57:13Z</time>
      </trkpt>
      <trkpt lat="48.70568" lon="7.0699">
        <ele>263</ele>
        <time>2020-08-09T08:57:14Z</time>
      </trkpt>
      <trkpt lat="48.70563" lon="7.06988">
        <ele>263</ele>
        <time>2020-08-09T08:57:15Z</time>
      </trkpt>
      <trkpt lat="48.70559" lon="7.06987">
        <ele>263</ele>
        <time>2020-08-09T08:57:16Z</time>
      </trkpt>
      <trkpt lat="48.7055" lon="7.06982">
        <ele>263</ele>
        <time>2020-08-09T08:57:18Z</time>
      </trkpt>
      <trkpt lat="48.70545" lon="7.0698">
        <ele>263</ele>
        <time>2020-08-09T08:57:19Z</time>
      </trkpt>
      <trkpt lat="48.70541" lon="7.06978">
        <ele>263</ele>
        <time>2020-08-09T08:57:20Z</time>
      </trkpt>
      <trkpt lat="48.70536" lon="7.06975">
        <ele>263</ele>
        <time>2020-08-09T08:57:21Z</time>
      </trkpt>
      <trkpt lat="48.70531" lon="7.06972">
        <ele>263</ele>
        <time>2020-08-09T08:57:22Z</time>
      </trkpt>
      <trkpt lat="48.70527" lon="7.0697">
        <ele>263</ele>
        <time>2020-08-09T08:57:23Z</time>
      </trkpt>
      <trkpt lat="48.70522" lon="7.06968">
        <ele>263</ele>
        <time>2020-08-09T08:57:24Z</time>
      </trkpt>
      <trkpt lat="48.70517" lon="7.06965">
        <ele>263</ele>
        <time>2020-08-09T08:57:25Z</time>
      </trkpt>
      <trkpt lat="48.70512" lon="7.06963">
        <ele>263</ele>
        <time>2020-08-09T08:57:26Z</time>
      </trkpt>
      <trkpt lat="48.70508" lon="7.06961">
        <ele>263</ele>
        <time>2020-08-09T08:57:27Z</time>
      </trkpt>
      <trkpt lat="48.70503" lon="7.06959">
        <ele>264</ele>
        <time>2020-08-09T08:57:28Z</time>
      </trkpt>
      <trkpt lat="48.70495" lon="7.06954">
        <ele>264</ele>
        <time>2020-08-09T08:57:30Z</time>
      </trkpt>
      <trkpt lat="48.70488" lon="7.0695">
        <ele>264</ele>
        <time>2020-08-09T08:57:32Z</time>
      </trkpt>
      <trkpt lat="48.7048" lon="7.06948">
        <ele>264</ele>
        <time>2020-08-09T08:57:34Z</time>
      </trkpt>
      <trkpt lat="48.70467" lon="7.06943">
        <ele>264</ele>
        <time>2020-08-09T08:57:37Z</time>
      </trkpt>
      <trkpt lat="48.7046" lon="7.06942">
        <ele>264</ele>
        <time>2020-08-09T08:57:39Z</time>
      </trkpt>
      <trkpt lat="48.70453" lon="7.06939">
        <ele>264</ele>
        <time>2020-08-09T08:57:41Z</time>
      </trkpt>
      <trkpt lat="48.70445" lon="7.06937">
        <ele>264</ele>
        <time>2020-08-09T08:57:43Z</time>
      </trkpt>
      <trkpt lat="48.70436" lon="7.06934">
        <ele>264</ele>
        <time>2020-08-09T08:57:45Z</time>
      </trkpt>
      <trkpt lat="48.70428" lon="7.0693">
        <ele>264</ele>
        <time>2020-08-09T08:57:47Z</time>
      </trkpt>
      <trkpt lat="48.70419" lon="7.06926">
        <ele>264</ele>
        <time>2020-08-09T08:57:49Z</time>
      </trkpt>
      <trkpt lat="48.70415" lon="7.06924">
        <ele>264</ele>
        <time>2020-08-09T08:57:50Z</time>
      </trkpt>
      <trkpt lat="48.70411" lon="7.06921">
        <ele>264</ele>
        <time>2020-08-09T08:57:51Z</time>
      </trkpt>
      <trkpt lat="48.70406" lon="7.06919">
        <ele>264</ele>
        <time>2020-08-09T08:57:52Z</time>
      </trkpt>
      <trkpt lat="48.70398" lon="7.06912">
        <ele>264</ele>
        <time>2020-08-09T08:57:54Z</time>
      </trkpt>
      <trkpt lat="48.70391" lon="7.06905">
        <ele>264</ele>
        <time>2020-08-09T08:57:56Z</time>
      </trkpt>
      <trkpt lat="48.70385" lon="7.06896">
        <ele>265</ele>
        <time>2020-08-09T08:57:58Z</time>
      </trkpt>
      <trkpt lat="48.7038" lon="7.06886">
        <ele>265</ele>
        <time>2020-08-09T08:58:00Z</time>
      </trkpt>
      <trkpt lat="48.70375" lon="7.06876">
        <ele>266</ele>
        <time>2020-08-09T08:58:02Z</time>
      </trkpt>
      <trkpt lat="48.7037" lon="7.06866">
        <ele>266</ele>
        <time>2020-08-09T08:58:04Z</time>
      </trkpt>
      <trkpt lat="48.70366" lon="7.0686">
        <ele>266</ele>
        <time>2020-08-09T08:58:05Z</time>
      </trkpt>
      <trkpt lat="48.70363" lon="7.06855">
        <ele>267</ele>
        <time>2020-08-09T08:58:06Z</time>
      </trkpt>
      <trkpt lat="48.70358" lon="7.06844">
        <ele>267</ele>
        <time>2020-08-09T08:58:08Z</time>
      </trkpt>
      <trkpt lat="48.70355" lon="7.06838">
        <ele>267</ele>
        <time>2020-08-09T08:58:09Z</time>
      </trkpt>
      <trkpt lat="48.7035" lon="7.06828">
        <ele>266</ele>
        <time>2020-08-09T08:58:11Z</time>
      </trkpt>
      <trkpt lat="48.70347" lon="7.06823">
        <ele>265</ele>
        <time>2020-08-09T08:58:12Z</time>
      </trkpt>
      <trkpt lat="48.70343" lon="7.06817">
        <ele>265</ele>
        <time>2020-08-09T08:58:13Z</time>
      </trkpt>
      <trkpt lat="48.7034" lon="7.06811">
        <ele>265</ele>
        <time>2020-08-09T08:58:14Z</time>
      </trkpt>
      <trkpt lat="48.70337" lon="7.06806">
        <ele>264</ele>
        <time>2020-08-09T08:58:15Z</time>
      </trkpt>
      <trkpt lat="48.70334" lon="7.068">
        <ele>264</ele>
        <time>2020-08-09T08:58:16Z</time>
      </trkpt>
      <trkpt lat="48.70331" lon="7.06795">
        <ele>264</ele>
        <time>2020-08-09T08:58:17Z</time>
      </trkpt>
      <trkpt lat="48.70326" lon="7.06784">
        <ele>264</ele>
        <time>2020-08-09T08:58:19Z</time>
      </trkpt>
      <trkpt lat="48.70321" lon="7.06772">
        <ele>264</ele>
        <time>2020-08-09T08:58:21Z</time>
      </trkpt>
      <trkpt lat="48.70319" lon="7.06766">
        <ele>264</ele>
        <time>2020-08-09T08:58:22Z</time>
      </trkpt>
      <trkpt lat="48.70316" lon="7.0676">
        <ele>264</ele>
        <time>2020-08-09T08:58:23Z</time>
      </trkpt>
      <trkpt lat="48.70313" lon="7.06754">
        <ele>264</ele>
        <time>2020-08-09T08:58:24Z</time>
      </trkpt>
      <trkpt lat="48.70311" lon="7.06748">
        <ele>264</ele>
        <time>2020-08-09T08:58:25Z</time>
      </trkpt>
      <trkpt lat="48.70308" lon="7.06742">
        <ele>264</ele>
        <time>2020-08-09T08:58:26Z</time>
      </trkpt>
      <trkpt lat="48.70306" lon="7.06736">
        <ele>264</ele>
        <time>2020-08-09T08:58:27Z</time>
      </trkpt>
      <trkpt lat="48.70303" lon="7.0673">
        <ele>264</ele>
        <time>2020-08-09T08:58:28Z</time>
      </trkpt>
      <trkpt lat="48.70301" lon="7.06724">
        <ele>264</ele>
        <time>2020-08-09T08:58:29Z</time>
      </trkpt>
      <trkpt lat="48.70298" lon="7.06718">
        <ele>264</ele>
        <time>2020-08-09T08:58:30Z</time>
      </trkpt>
      <trkpt lat="48.70293" lon="7.06707">
        <ele>264</ele>
        <time>2020-08-09T08:58:32Z</time>
      </trkpt>
      <trkpt lat="48.70289" lon="7.06696">
        <ele>265</ele>
        <time>2020-08-09T08:58:34Z</time>
      </trkpt>
      <trkpt lat="48.70285" lon="7.06691">
        <ele>265</ele>
        <time>2020-08-09T08:58:35Z</time>
      </trkpt>
      <trkpt lat="48.70283" lon="7.06685">
        <ele>265</ele>
        <time>2020-08-09T08:58:36Z</time>
      </trkpt>
      <trkpt lat="48.70278" lon="7.06674">
        <ele>264</ele>
        <time>2020-08-09T08:58:38Z</time>
      </trkpt>
      <trkpt lat="48.70273" lon="7.06663">
        <ele>265</ele>
        <time>2020-08-09T08:58:40Z</time>
      </trkpt>
      <trkpt lat="48.70271" lon="7.06657">
        <ele>265</ele>
        <time>2020-08-09T08:58:41Z</time>
      </trkpt>
      <trkpt lat="48.70266" lon="7.06645">
        <ele>265</ele>
        <time>2020-08-09T08:58:43Z</time>
      </trkpt>
      <trkpt lat="48.70264" lon="7.06639">
        <ele>265</ele>
        <time>2020-08-09T08:58:44Z</time>
      </trkpt>
      <trkpt lat="48.70262" lon="7.06633">
        <ele>265</ele>
        <time>2020-08-09T08:58:45Z</time>
      </trkpt>
      <trkpt lat="48.70258" lon="7.0662">
        <ele>265</ele>
        <time>2020-08-09T08:58:47Z</time>
      </trkpt>
      <trkpt lat="48.70256" lon="7.06612">
        <ele>265</ele>
        <time>2020-08-09T08:58:48Z</time>
      </trkpt>
      <trkpt lat="48.70255" lon="7.06605">
        <ele>265</ele>
        <time>2020-08-09T08:58:49Z</time>
      </trkpt>
      <trkpt lat="48.70253" lon="7.06598">
        <ele>264</ele>
        <time>2020-08-09T08:58:50Z</time>
      </trkpt>
      <trkpt lat="48.7025" lon="7.06586">
        <ele>264</ele>
        <time>2020-08-09T08:58:52Z</time>
      </trkpt>
      <trkpt lat="48.70248" lon="7.06579">
        <ele>264</ele>
        <time>2020-08-09T08:58:53Z</time>
      </trkpt>
      <trkpt lat="48.70247" lon="7.06571">
        <ele>264</ele>
        <time>2020-08-09T08:58:54Z</time>
      </trkpt>
      <trkpt lat="48.70246" lon="7.06564">
        <ele>265</ele>
        <time>2020-08-09T08:58:55Z</time>
      </trkpt>
      <trkpt lat="48.70244" lon="7.06556">
        <ele>265</ele>
        <time>2020-08-09T08:58:56Z</time>
      </trkpt>
      <trkpt lat="48.70242" lon="7.06548">
        <ele>265</ele>
        <time>2020-08-09T08:58:57Z</time>
      </trkpt>
      <trkpt lat="48.7024" lon="7.06541">
        <ele>265</ele>
        <time>2020-08-09T08:58:58Z</time>
      </trkpt>
      <trkpt lat="48.70239" lon="7.06533">
        <ele>265</ele>
        <time>2020-08-09T08:58:59Z</time>
      </trkpt>
      <trkpt lat="48.70237" lon="7.06527">
        <ele>265</ele>
        <time>2020-08-09T08:59:00Z</time>
      </trkpt>
      <trkpt lat="48.70235" lon="7.06519">
        <ele>265</ele>
        <time>2020-08-09T08:59:01Z</time>
      </trkpt>
      <trkpt lat="48.70234" lon="7.06512">
        <ele>265</ele>
        <time>2020-08-09T08:59:02Z</time>
      </trkpt>
      <trkpt lat="48.70232" lon="7.06505">
        <ele>265</ele>
        <time>2020-08-09T08:59:03Z</time>
      </trkpt>
      <trkpt lat="48.70231" lon="7.06498">
        <ele>265</ele>
        <time>2020-08-09T08:59:04Z</time>
      </trkpt>
      <trkpt lat="48.70229" lon="7.06492">
        <ele>266</ele>
        <time>2020-08-09T08:59:05Z</time>
      </trkpt>
      <trkpt lat="48.70227" lon="7.06485">
        <ele>266</ele>
        <time>2020-08-09T08:59:06Z</time>
      </trkpt>
      <trkpt lat="48.70225" lon="7.06478">
        <ele>265</ele>
        <time>2020-08-09T08:59:07Z</time>
      </trkpt>
      <trkpt lat="48.70223" lon="7.06471">
        <ele>265</ele>
        <time>2020-08-09T08:59:08Z</time>
      </trkpt>
      <trkpt lat="48.70221" lon="7.06465">
        <ele>265</ele>
        <time>2020-08-09T08:59:09Z</time>
      </trkpt>
      <trkpt lat="48.70218" lon="7.06459">
        <ele>265</ele>
        <time>2020-08-09T08:59:10Z</time>
      </trkpt>
      <trkpt lat="48.70214" lon="7.06454">
        <ele>266</ele>
        <time>2020-08-09T08:59:11Z</time>
      </trkpt>
      <trkpt lat="48.7021" lon="7.06449">
        <ele>266</ele>
        <time>2020-08-09T08:59:12Z</time>
      </trkpt>
      <trkpt lat="48.70207" lon="7.06444">
        <ele>266</ele>
        <time>2020-08-09T08:59:13Z</time>
      </trkpt>
      <trkpt lat="48.70202" lon="7.0644">
        <ele>266</ele>
        <time>2020-08-09T08:59:14Z</time>
      </trkpt>
      <trkpt lat="48.70197" lon="7.06437">
        <ele>266</ele>
        <time>2020-08-09T08:59:15Z</time>
      </trkpt>
      <trkpt lat="48.70188" lon="7.06432">
        <ele>265</ele>
        <time>2020-08-09T08:59:17Z</time>
      </trkpt>
      <trkpt lat="48.70184" lon="7.0643">
        <ele>265</ele>
        <time>2020-08-09T08:59:18Z</time>
      </trkpt>
      <trkpt lat="48.70179" lon="7.06429">
        <ele>265</ele>
        <time>2020-08-09T08:59:19Z</time>
      </trkpt>
      <trkpt lat="48.70174" lon="7.06426">
        <ele>264</ele>
        <time>2020-08-09T08:59:20Z</time>
      </trkpt>
      <trkpt lat="48.70169" lon="7.06425">
        <ele>264</ele>
        <time>2020-08-09T08:59:21Z</time>
      </trkpt>
      <trkpt lat="48.70163" lon="7.06423">
        <ele>264</ele>
        <time>2020-08-09T08:59:22Z</time>
      </trkpt>
      <trkpt lat="48.70158" lon="7.06422">
        <ele>264</ele>
        <time>2020-08-09T08:59:23Z</time>
      </trkpt>
      <trkpt lat="48.70153" lon="7.06422">
        <ele>264</ele>
        <time>2020-08-09T08:59:24Z</time>
      </trkpt>
      <trkpt lat="48.70145" lon="7.06421">
        <ele>264</ele>
        <time>2020-08-09T08:59:26Z</time>
      </trkpt>
      <trkpt lat="48.7014" lon="7.06422">
        <ele>264</ele>
        <time>2020-08-09T08:59:27Z</time>
      </trkpt>
      <trkpt lat="48.70132" lon="7.06425">
        <ele>264</ele>
        <time>2020-08-09T08:59:29Z</time>
      </trkpt>
      <trkpt lat="48.70127" lon="7.06426">
        <ele>264</ele>
        <time>2020-08-09T08:59:30Z</time>
      </trkpt>
      <trkpt lat="48.70118" lon="7.06427">
        <ele>265</ele>
        <time>2020-08-09T08:59:32Z</time>
      </trkpt>
      <trkpt lat="48.7011" lon="7.06427">
        <ele>265</ele>
        <time>2020-08-09T08:59:34Z</time>
      </trkpt>
      <trkpt lat="48.70102" lon="7.06425">
        <ele>266</ele>
        <time>2020-08-09T08:59:36Z</time>
      </trkpt>
      <trkpt lat="48.70094" lon="7.06423">
        <ele>266</ele>
        <time>2020-08-09T08:59:38Z</time>
      </trkpt>
      <trkpt lat="48.70087" lon="7.06422">
        <ele>266</ele>
        <time>2020-08-09T08:59:40Z</time>
      </trkpt>
      <trkpt lat="48.70079" lon="7.0642">
        <ele>266</ele>
        <time>2020-08-09T08:59:42Z</time>
      </trkpt>
      <trkpt lat="48.70072" lon="7.06418">
        <ele>266</ele>
        <time>2020-08-09T08:59:44Z</time>
      </trkpt>
      <trkpt lat="48.70065" lon="7.06415">
        <ele>266</ele>
        <time>2020-08-09T08:59:46Z</time>
      </trkpt>
      <trkpt lat="48.70057" lon="7.06414">
        <ele>266</ele>
        <time>2020-08-09T08:59:48Z</time>
      </trkpt>
      <trkpt lat="48.7005" lon="7.06411">
        <ele>266</ele>
        <time>2020-08-09T08:59:50Z</time>
      </trkpt>
      <trkpt lat="48.70042" lon="7.06409">
        <ele>266</ele>
        <time>2020-08-09T08:59:52Z</time>
      </trkpt>
      <trkpt lat="48.70036" lon="7.06406">
        <ele>266</ele>
        <time>2020-08-09T08:59:54Z</time>
      </trkpt>
      <trkpt lat="48.70028" lon="7.06404">
        <ele>266</ele>
        <time>2020-08-09T08:59:56Z</time>
      </trkpt>
      <trkpt lat="48.70021" lon="7.06402">
        <ele>266</ele>
        <time>2020-08-09T08:59:58Z</time>
      </trkpt>
      <trkpt lat="48.70015" lon="7.06399">
        <ele>267</ele>
        <time>2020-08-09T09:00:00Z</time>
      </trkpt>
      <trkpt lat="48.70008" lon="7.06395">
        <ele>267</ele>
        <time>2020-08-09T09:00:02Z</time>
      </trkpt>
      <trkpt lat="48.70001" lon="7.06392">
        <ele>267</ele>
        <time>2020-08-09T09:00:04Z</time>
      </trkpt>
      <trkpt lat="48.69994" lon="7.06388">
        <ele>267</ele>
        <time>2020-08-09T09:00:06Z</time>
      </trkpt>
      <trkpt lat="48.69987" lon="7.06385">
        <ele>267</ele>
        <time>2020-08-09T09:00:08Z</time>
      </trkpt>
      <trkpt lat="48.6998" lon="7.06381">
        <ele>267</ele>
        <time>2020-08-09T09:00:10Z</time>
      </trkpt>
      <trkpt lat="48.69974" lon="7.06377">
        <ele>267</ele>
        <time>2020-08-09T09:00:12Z</time>
      </trkpt>
      <trkpt lat="48.69967" lon="7.06374">
        <ele>268</ele>
        <time>2020-08-09T09:00:14Z</time>
      </trkpt>
      <trkpt lat="48.6996" lon="7.0637">
        <ele>268</ele>
        <time>2020-08-09T09:00:16Z</time>
      </trkpt>
      <trkpt lat="48.69954" lon="7.06366">
        <ele>268</ele>
        <time>2020-08-09T09:00:18Z</time>
      </trkpt>
      <trkpt lat="48.69949" lon="7.06362">
        <ele>268</ele>
        <time>2020-08-09T09:00:20Z</time>
      </trkpt>
      <trkpt lat="48.69942" lon="7.0636">
        <ele>269</ele>
        <time>2020-08-09T09:00:22Z</time>
      </trkpt>
      <trkpt lat="48.69937" lon="7.06359">
        <ele>270</ele>
        <time>2020-08-09T09:00:24Z</time>
      </trkpt>
      <trkpt lat="48.69931" lon="7.06357">
        <ele>270</ele>
        <time>2020-08-09T09:00:26Z</time>
      </trkpt>
      <trkpt lat="48.69926" lon="7.06358">
        <ele>270</ele>
        <time>2020-08-09T09:00:28Z</time>
      </trkpt>
      <trkpt lat="48.6992" lon="7.0636">
        <ele>271</ele>
        <time>2020-08-09T09:00:30Z</time>
      </trkpt>
      <trkpt lat="48.69914" lon="7.06363">
        <ele>271</ele>
        <time>2020-08-09T09:00:32Z</time>
      </trkpt>
      <trkpt lat="48.69908" lon="7.06366">
        <ele>272</ele>
        <time>2020-08-09T09:00:34Z</time>
      </trkpt>
      <trkpt lat="48.69902" lon="7.06369">
        <ele>272</ele>
        <time>2020-08-09T09:00:36Z</time>
      </trkpt>
      <trkpt lat="48.69896" lon="7.06372">
        <ele>272</ele>
        <time>2020-08-09T09:00:38Z</time>
      </trkpt>
      <trkpt lat="48.6989" lon="7.06376">
        <ele>272</ele>
        <time>2020-08-09T09:00:40Z</time>
      </trkpt>
      <trkpt lat="48.69885" lon="7.06379">
        <ele>272</ele>
        <time>2020-08-09T09:00:42Z</time>
      </trkpt>
      <trkpt lat="48.69878" lon="7.06382">
        <ele>272</ele>
        <time>2020-08-09T09:00:44Z</time>
      </trkpt>
      <trkpt lat="48.69872" lon="7.06385">
        <ele>272</ele>
        <time>2020-08-09T09:00:46Z</time>
      </trkpt>
      <trkpt lat="48.69866" lon="7.06389">
        <ele>272</ele>
        <time>2020-08-09T09:00:48Z</time>
      </trkpt>
      <trkpt lat="48.69861" lon="7.06391">
        <ele>272</ele>
        <time>2020-08-09T09:00:50Z</time>
      </trkpt>
      <trkpt lat="48.69855" lon="7.06396">
        <ele>272</ele>
        <time>2020-08-09T09:00:52Z</time>
      </trkpt>
      <trkpt lat="48.6985" lon="7.06399">
        <ele>272</ele>
        <time>2020-08-09T09:00:54Z</time>
      </trkpt>
      <trkpt lat="48.69845" lon="7.06404">
        <ele>273</ele>
        <time>2020-08-09T09:00:56Z</time>
      </trkpt>
      <trkpt lat="48.6984" lon="7.06408">
        <ele>273</ele>
        <time>2020-08-09T09:00:58Z</time>
      </trkpt>
      <trkpt lat="48.69836" lon="7.06413">
        <ele>273</ele>
        <time>2020-08-09T09:01:00Z</time>
      </trkpt>
      <trkpt lat="48.69831" lon="7.06418">
        <ele>273</ele>
        <time>2020-08-09T09:01:02Z</time>
      </trkpt>
      <trkpt lat="48.69826" lon="7.06424">
        <ele>273</ele>
        <time>2020-08-09T09:01:04Z</time>
      </trkpt>
      <trkpt lat="48.69822" lon="7.06431">
        <ele>273</ele>
        <time>2020-08-09T09:01:06Z</time>
      </trkpt>
      <trkpt lat="48.69816" lon="7.06436">
        <ele>273</ele>
        <time>2020-08-09T09:01:08Z</time>
      </trkpt>
      <trkpt lat="48.69811" lon="7.06442">
        <ele>273</ele>
        <time>2020-08-09T09:01:10Z</time>
      </trkpt>
      <trkpt lat="48.69807" lon="7.06448">
        <ele>274</ele>
        <time>2020-08-09T09:01:12Z</time>
      </trkpt>
      <trkpt lat="48.69802" lon="7.06454">
        <ele>274</ele>
        <time>2020-08-09T09:01:14Z</time>
      </trkpt>
      <trkpt lat="48.69797" lon="7.06461">
        <ele>274</ele>
        <time>2020-08-09T09:01:16Z</time>
      </trkpt>
      <trkpt lat="48.69791" lon="7.06466">
        <ele>274</ele>
        <time>2020-08-09T09:01:18Z</time>
      </trkpt>
      <trkpt lat="48.69785" lon="7.0647">
        <ele>274</ele>
        <time>2020-08-09T09:01:20Z</time>
      </trkpt>
      <trkpt lat="48.6978" lon="7.06475">
        <ele>274</ele>
        <time>2020-08-09T09:01:22Z</time>
      </trkpt>
      <trkpt lat="48.69775" lon="7.06477">
        <ele>273</ele>
        <time>2020-08-09T09:01:24Z</time>
      </trkpt>
      <trkpt lat="48.69769" lon="7.06479">
        <ele>273</ele>
        <time>2020-08-09T09:01:26Z</time>
      </trkpt>
      <trkpt lat="48.69763" lon="7.0648">
        <ele>273</ele>
        <time>2020-08-09T09:01:28Z</time>
      </trkpt>
      <trkpt lat="48.69758" lon="7.06482">
        <ele>274</ele>
        <time>2020-08-09T09:01:30Z</time>
      </trkpt>
      <trkpt lat="48.69752" lon="7.06484">
        <ele>274</ele>
        <time>2020-08-09T09:01:32Z</time>
      </trkpt>
      <trkpt lat="48.69746" lon="7.06485">
        <ele>275</ele>
        <time>2020-08-09T09:01:34Z</time>
      </trkpt>
      <trkpt lat="48.6974" lon="7.06485">
        <ele>275</ele>
        <time>2020-08-09T09:01:36Z</time>
      </trkpt>
      <trkpt lat="48.69733" lon="7.06483">
        <ele>274</ele>
        <time>2020-08-09T09:01:38Z</time>
      </trkpt>
      <trkpt lat="48.69728" lon="7.06479">
        <ele>273</ele>
        <time>2020-08-09T09:01:40Z</time>
      </trkpt>
      <trkpt lat="48.69723" lon="7.06472">
        <ele>272</ele>
        <time>2020-08-09T09:01:42Z</time>
      </trkpt>
      <trkpt lat="48.69719" lon="7.06466">
        <ele>272</ele>
        <time>2020-08-09T09:01:44Z</time>
      </trkpt>
      <trkpt lat="48.69715" lon="7.06459">
        <ele>272</ele>
        <time>2020-08-09T09:01:46Z</time>
      </trkpt>
      <trkpt lat="48.69711" lon="7.06452">
        <ele>272</ele>
        <time>2020-08-09T09:01:48Z</time>
      </trkpt>
      <trkpt lat="48.69708" lon="7.06445">
        <ele>272</ele>
        <time>2020-08-09T09:01:50Z</time>
      </trkpt>
      <trkpt lat="48.69705" lon="7.06437">
        <ele>272</ele>
        <time>2020-08-09T09:01:52Z</time>
      </trkpt>
      <trkpt lat="48.69701" lon="7.06429">
        <ele>272</ele>
        <time>2020-08-09T09:01:54Z</time>
      </trkpt>
      <trkpt lat="48.69698" lon="7.06421">
        <ele>272</ele>
        <time>2020-08-09T09:01:56Z</time>
      </trkpt>
      <trkpt lat="48.69695" lon="7.06413">
        <ele>272</ele>
        <time>2020-08-09T09:01:58Z</time>
      </trkpt>
      <trkpt lat="48.69691" lon="7.06404">
        <ele>272</ele>
        <time>2020-08-09T09:02:00Z</time>
      </trkpt>
      <trkpt lat="48.69687" lon="7.06395">
        <ele>273</ele>
        <time>2020-08-09T09:02:02Z</time>
      </trkpt>
      <trkpt lat="48.69684" lon="7.06386">
        <ele>273</ele>
        <time>2020-08-09T09:02:04Z</time>
      </trkpt>
      <trkpt lat="48.69681" lon="7.06377">
        <ele>273</ele>
        <time>2020-08-09T09:02:06Z</time>
      </trkpt>
      <trkpt lat="48.69678" lon="7.06368">
        <ele>273</ele>
        <time>2020-08-09T09:02:08Z</time>
      </trkpt>
      <trkpt lat="48.69675" lon="7.0636">
        <ele>273</ele>
        <time>2020-08-09T09:02:10Z</time>
      </trkpt>
      <trkpt lat="48.69672" lon="7.06351">
        <ele>273</ele>
        <time>2020-08-09T09:02:12Z</time>
      </trkpt>
      <trkpt lat="48.69669" lon="7.06342">
        <ele>274</ele>
        <time>2020-08-09T09:02:14Z</time>
      </trkpt>
      <trkpt lat="48.69666" lon="7.06334">
        <ele>274</ele>
        <time>2020-08-09T09:02:16Z</time>
      </trkpt>
      <trkpt lat="48.69664" lon="7.06325">
        <ele>274</ele>
        <time>2020-08-09T09:02:18Z</time>
      </trkpt>
      <trkpt lat="48.69661" lon="7.06317">
        <ele>274</ele>
        <time>2020-08-09T09:02:20Z</time>
      </trkpt>
      <trkpt lat="48.69659" lon="7.06308">
        <ele>274</ele>
        <time>2020-08-09T09:02:22Z</time>
      </trkpt>
      <trkpt lat="48.69656" lon="7.06299">
        <ele>275</ele>
        <time>2020-08-09T09:02:24Z</time>
      </trkpt>
      <trkpt lat="48.69653" lon="7.06291">
        <ele>275</ele>
        <time>2020-08-09T09:02:26Z</time>
      </trkpt>
      <trkpt lat="48.69651" lon="7.06282">
        <ele>275</ele>
        <time>2020-08-09T09:02:28Z</time>
      </trkpt>
      <trkpt lat="48.69648" lon="7.06273">
        <ele>275</ele>
        <time>2020-08-09T09:02:30Z</time>
      </trkpt>
      <trkpt lat="48.69645" lon="7.06264">
        <ele>275</ele>
        <time>2020-08-09T09:02:32Z</time>
      </trkpt>
      <trkpt lat="48.69642" lon="7.06254">
        <ele>276</ele>
        <time>2020-08-09T09:02:34Z</time>
      </trkpt>
      <trkpt lat="48.69639" lon="7.06244">
        <ele>276</ele>
        <time>2020-08-09T09:02:36Z</time>
      </trkpt>
      <trkpt lat="48.69636" lon="7.06234">
        <ele>276</ele>
        <time>2020-08-09T09:02:38Z</time>
      </trkpt>
      <trkpt lat="48.69633" lon="7.06225">
        <ele>276</ele>
        <time>2020-08-09T09:02:40Z</time>
      </trkpt>
      <trkpt lat="48.6963" lon="7.06216">
        <ele>277</ele>
        <time>2020-08-09T09:02:42Z</time>
      </trkpt>
      <trkpt lat="48.69628" lon="7.06207">
        <ele>277</ele>
        <time>2020-08-09T09:02:44Z</time>
      </trkpt>
      <trkpt lat="48.69628" lon="7.06198">
        <ele>277</ele>
        <time>2020-08-09T09:02:46Z</time>
      </trkpt>
      <trkpt lat="48.69629" lon="7.06189">
        <ele>277</ele>
        <time>2020-08-09T09:02:48Z</time>
      </trkpt>
      <trkpt lat="48.6963" lon="7.06181">
        <ele>277</ele>
        <time>2020-08-09T09:02:50Z</time>
      </trkpt>
      <trkpt lat="48.69632" lon="7.06173">
        <ele>277</ele>
        <time>2020-08-09T09:02:52Z</time>
      </trkpt>
      <trkpt lat="48.69634" lon="7.06164">
        <ele>277</ele>
        <time>2020-08-09T09:02:54Z</time>
      </trkpt>
      <trkpt lat="48.69637" lon="7.06155">
        <ele>277</ele>
        <time>2020-08-09T09:02:56Z</time>
      </trkpt>
      <trkpt lat="48.6964" lon="7.06146">
        <ele>277</ele>
        <time>2020-08-09T09:02:58Z</time>
      </trkpt>
      <trkpt lat="48.69643" lon="7.06137">
        <ele>277</ele>
        <time>2020-08-09T09:03:00Z</time>
      </trkpt>
      <trkpt lat="48.69645" lon="7.06126">
        <ele>277</ele>
        <time>2020-08-09T09:03:02Z</time>
      </trkpt>
      <trkpt lat="48.69647" lon="7.06116">
        <ele>277</ele>
        <time>2020-08-09T09:03:04Z</time>
      </trkpt>
      <trkpt lat="48.69648" lon="7.06107">
        <ele>277</ele>
        <time>2020-08-09T09:03:06Z</time>
      </trkpt>
      <trkpt lat="48.6965" lon="7.06098">
        <ele>277</ele>
        <time>2020-08-09T09:03:08Z</time>
      </trkpt>
      <trkpt lat="48.69651" lon="7.06087">
        <ele>277</ele>
        <time>2020-08-09T09:03:10Z</time>
      </trkpt>
      <trkpt lat="48.69651" lon="7.06076">
        <ele>277</ele>
        <time>2020-08-09T09:03:12Z</time>
      </trkpt>
      <trkpt lat="48.69652" lon="7.06063">
        <ele>277</ele>
        <time>2020-08-09T09:03:14Z</time>
      </trkpt>
      <trkpt lat="48.69653" lon="7.0605">
        <ele>277</ele>
        <time>2020-08-09T09:03:16Z</time>
      </trkpt>
      <trkpt lat="48.69653" lon="7.06038">
        <ele>276</ele>
        <time>2020-08-09T09:03:18Z</time>
      </trkpt>
      <trkpt lat="48.69653" lon="7.06025">
        <ele>277</ele>
        <time>2020-08-09T09:03:20Z</time>
      </trkpt>
      <trkpt lat="48.69653" lon="7.06013">
        <ele>277</ele>
        <time>2020-08-09T09:03:22Z</time>
      </trkpt>
      <trkpt lat="48.69652" lon="7.06002">
        <ele>277</ele>
        <time>2020-08-09T09:03:24Z</time>
      </trkpt>
      <trkpt lat="48.69651" lon="7.05992">
        <ele>276</ele>
        <time>2020-08-09T09:03:26Z</time>
      </trkpt>
      <trkpt lat="48.69651" lon="7.05981">
        <ele>276</ele>
        <time>2020-08-09T09:03:28Z</time>
      </trkpt>
      <trkpt lat="48.69651" lon="7.0597">
        <ele>276</ele>
        <time>2020-08-09T09:03:30Z</time>
      </trkpt>
      <trkpt lat="48.69651" lon="7.05958">
        <ele>276</ele>
        <time>2020-08-09T09:03:32Z</time>
      </trkpt>
      <trkpt lat="48.6965" lon="7.05945">
        <ele>276</ele>
        <time>2020-08-09T09:03:34Z</time>
      </trkpt>
      <trkpt lat="48.6965" lon="7.05932">
        <ele>276</ele>
        <time>2020-08-09T09:03:36Z</time>
      </trkpt>
      <trkpt lat="48.69651" lon="7.05919">
        <ele>276</ele>
        <time>2020-08-09T09:03:38Z</time>
      </trkpt>
      <trkpt lat="48.6965" lon="7.05912">
        <ele>276</ele>
        <time>2020-08-09T09:03:39Z</time>
      </trkpt>
      <trkpt lat="48.69651" lon="7.05904">
        <ele>276</ele>
        <time>2020-08-09T09:03:40Z</time>
      </trkpt>
      <trkpt lat="48.69651" lon="7.05897">
        <ele>276</ele>
        <time>2020-08-09T09:03:41Z</time>
      </trkpt>
      <trkpt lat="48.69652" lon="7.05889">
        <ele>276</ele>
        <time>2020-08-09T09:03:42Z</time>
      </trkpt>
      <trkpt lat="48.69653" lon="7.05882">
        <ele>276</ele>
        <time>2020-08-09T09:03:43Z</time>
      </trkpt>
      <trkpt lat="48.69654" lon="7.05874">
        <ele>276</ele>
        <time>2020-08-09T09:03:44Z</time>
      </trkpt>
      <trkpt lat="48.69656" lon="7.05867">
        <ele>276</ele>
        <time>2020-08-09T09:03:45Z</time>
      </trkpt>
      <trkpt lat="48.69657" lon="7.05859">
        <ele>276</ele>
        <time>2020-08-09T09:03:46Z</time>
      </trkpt>
      <trkpt lat="48.69658" lon="7.05852">
        <ele>276</ele>
        <time>2020-08-09T09:03:47Z</time>
      </trkpt>
      <trkpt lat="48.69658" lon="7.05844">
        <ele>276</ele>
        <time>2020-08-09T09:03:48Z</time>
      </trkpt>
      <trkpt lat="48.69659" lon="7.05837">
        <ele>276</ele>
        <time>2020-08-09T09:03:49Z</time>
      </trkpt>
      <trkpt lat="48.69659" lon="7.05824">
        <ele>276</ele>
        <time>2020-08-09T09:03:51Z</time>
      </trkpt>
      <trkpt lat="48.6966" lon="7.0581">
        <ele>276</ele>
        <time>2020-08-09T09:03:53Z</time>
      </trkpt>
      <trkpt lat="48.69659" lon="7.05803">
        <ele>276</ele>
        <time>2020-08-09T09:03:54Z</time>
      </trkpt>
      <trkpt lat="48.69658" lon="7.05796">
        <ele>276</ele>
        <time>2020-08-09T09:03:55Z</time>
      </trkpt>
      <trkpt lat="48.69657" lon="7.05782">
        <ele>276</ele>
        <time>2020-08-09T09:03:57Z</time>
      </trkpt>
      <trkpt lat="48.69657" lon="7.05775">
        <ele>276</ele>
        <time>2020-08-09T09:03:58Z</time>
      </trkpt>
      <trkpt lat="48.69657" lon="7.05767">
        <ele>276</ele>
        <time>2020-08-09T09:03:59Z</time>
      </trkpt>
      <trkpt lat="48.69657" lon="7.0576">
        <ele>276</ele>
        <time>2020-08-09T09:04:00Z</time>
      </trkpt>
      <trkpt lat="48.69656" lon="7.05753">
        <ele>276</ele>
        <time>2020-08-09T09:04:01Z</time>
      </trkpt>
      <trkpt lat="48.69656" lon="7.05746">
        <ele>276</ele>
        <time>2020-08-09T09:04:02Z</time>
      </trkpt>
      <trkpt lat="48.69656" lon="7.05739">
        <ele>276</ele>
        <time>2020-08-09T09:04:03Z</time>
      </trkpt>
      <trkpt lat="48.69655" lon="7.05732">
        <ele>276</ele>
        <time>2020-08-09T09:04:04Z</time>
      </trkpt>
      <trkpt lat="48.69654" lon="7.05724">
        <ele>276</ele>
        <time>2020-08-09T09:04:05Z</time>
      </trkpt>
      <trkpt lat="48.69653" lon="7.05711">
        <ele>276</ele>
        <time>2020-08-09T09:04:07Z</time>
      </trkpt>
      <trkpt lat="48.69653" lon="7.05703">
        <ele>276</ele>
        <time>2020-08-09T09:04:08Z</time>
      </trkpt>
      <trkpt lat="48.69651" lon="7.05689">
        <ele>276</ele>
        <time>2020-08-09T09:04:10Z</time>
      </trkpt>
      <trkpt lat="48.6965" lon="7.05682">
        <ele>276</ele>
        <time>2020-08-09T09:04:11Z</time>
      </trkpt>
      <trkpt lat="48.69649" lon="7.05675">
        <ele>276</ele>
        <time>2020-08-09T09:04:12Z</time>
      </trkpt>
      <trkpt lat="48.69647" lon="7.05662">
        <ele>276</ele>
        <time>2020-08-09T09:04:14Z</time>
      </trkpt>
      <trkpt lat="48.69645" lon="7.05655">
        <ele>276</ele>
        <time>2020-08-09T09:04:15Z</time>
      </trkpt>
      <trkpt lat="48.69644" lon="7.05648">
        <ele>277</ele>
        <time>2020-08-09T09:04:16Z</time>
      </trkpt>
      <trkpt lat="48.69643" lon="7.05641">
        <ele>277</ele>
        <time>2020-08-09T09:04:17Z</time>
      </trkpt>
      <trkpt lat="48.69643" lon="7.05634">
        <ele>277</ele>
        <time>2020-08-09T09:04:18Z</time>
      </trkpt>
      <trkpt lat="48.6964" lon="7.05621">
        <ele>277</ele>
        <time>2020-08-09T09:04:20Z</time>
      </trkpt>
      <trkpt lat="48.69638" lon="7.05608">
        <ele>276</ele>
        <time>2020-08-09T09:04:22Z</time>
      </trkpt>
      <trkpt lat="48.69636" lon="7.05595">
        <ele>277</ele>
        <time>2020-08-09T09:04:24Z</time>
      </trkpt>
      <trkpt lat="48.69635" lon="7.05589">
        <ele>277</ele>
        <time>2020-08-09T09:04:25Z</time>
      </trkpt>
      <trkpt lat="48.69633" lon="7.05582">
        <ele>277</ele>
        <time>2020-08-09T09:04:26Z</time>
      </trkpt>
      <trkpt lat="48.6963" lon="7.05571">
        <ele>277</ele>
        <time>2020-08-09T09:04:28Z</time>
      </trkpt>
      <trkpt lat="48.69627" lon="7.05559">
        <ele>277</ele>
        <time>2020-08-09T09:04:30Z</time>
      </trkpt>
      <trkpt lat="48.69624" lon="7.05547">
        <ele>277</ele>
        <time>2020-08-09T09:04:32Z</time>
      </trkpt>
      <trkpt lat="48.69621" lon="7.05536">
        <ele>278</ele>
        <time>2020-08-09T09:04:34Z</time>
      </trkpt>
      <trkpt lat="48.69619" lon="7.05525">
        <ele>278</ele>
        <time>2020-08-09T09:04:36Z</time>
      </trkpt>
      <trkpt lat="48.69616" lon="7.05514">
        <ele>278</ele>
        <time>2020-08-09T09:04:38Z</time>
      </trkpt>
      <trkpt lat="48.69613" lon="7.05503">
        <ele>278</ele>
        <time>2020-08-09T09:04:40Z</time>
      </trkpt>
      <trkpt lat="48.6961" lon="7.05493">
        <ele>278</ele>
        <time>2020-08-09T09:04:42Z</time>
      </trkpt>
      <trkpt lat="48.69607" lon="7.05482">
        <ele>278</ele>
        <time>2020-08-09T09:04:44Z</time>
      </trkpt>
      <trkpt lat="48.69604" lon="7.05472">
        <ele>278</ele>
        <time>2020-08-09T09:04:46Z</time>
      </trkpt>
      <trkpt lat="48.696" lon="7.05463">
        <ele>278</ele>
        <time>2020-08-09T09:04:48Z</time>
      </trkpt>
      <trkpt lat="48.69595" lon="7.05455">
        <ele>278</ele>
        <time>2020-08-09T09:04:50Z</time>
      </trkpt>
      <trkpt lat="48.6959" lon="7.05446">
        <ele>277</ele>
        <time>2020-08-09T09:04:52Z</time>
      </trkpt>
      <trkpt lat="48.69584" lon="7.05436">
        <ele>277</ele>
        <time>2020-08-09T09:04:54Z</time>
      </trkpt>
      <trkpt lat="48.69581" lon="7.05431">
        <ele>277</ele>
        <time>2020-08-09T09:04:55Z</time>
      </trkpt>
      <trkpt lat="48.69578" lon="7.05425">
        <ele>277</ele>
        <time>2020-08-09T09:04:56Z</time>
      </trkpt>
      <trkpt lat="48.69575" lon="7.05419">
        <ele>276</ele>
        <time>2020-08-09T09:04:57Z</time>
      </trkpt>
      <trkpt lat="48.69569" lon="7.05409">
        <ele>276</ele>
        <time>2020-08-09T09:04:59Z</time>
      </trkpt>
      <trkpt lat="48.69565" lon="7.05404">
        <ele>276</ele>
        <time>2020-08-09T09:05:00Z</time>
      </trkpt>
      <trkpt lat="48.69563" lon="7.05398">
        <ele>276</ele>
        <time>2020-08-09T09:05:01Z</time>
      </trkpt>
      <trkpt lat="48.6956" lon="7.05393">
        <ele>276</ele>
        <time>2020-08-09T09:05:02Z</time>
      </trkpt>
      <trkpt lat="48.69556" lon="7.05388">
        <ele>276</ele>
        <time>2020-08-09T09:05:03Z</time>
      </trkpt>
      <trkpt lat="48.69553" lon="7.05383">
        <ele>276</ele>
        <time>2020-08-09T09:05:04Z</time>
      </trkpt>
      <trkpt lat="48.6955" lon="7.05377">
        <ele>276</ele>
        <time>2020-08-09T09:05:05Z</time>
      </trkpt>
      <trkpt lat="48.69547" lon="7.05372">
        <ele>277</ele>
        <time>2020-08-09T09:05:06Z</time>
      </trkpt>
      <trkpt lat="48.69543" lon="7.05367">
        <ele>277</ele>
        <time>2020-08-09T09:05:07Z</time>
      </trkpt>
      <trkpt lat="48.6954" lon="7.05362">
        <ele>277</ele>
        <time>2020-08-09T09:05:08Z</time>
      </trkpt>
      <trkpt lat="48.69536" lon="7.05356">
        <ele>277</ele>
        <time>2020-08-09T09:05:09Z</time>
      </trkpt>
      <trkpt lat="48.69533" lon="7.05351">
        <ele>277</ele>
        <time>2020-08-09T09:05:10Z</time>
      </trkpt>
      <trkpt lat="48.69529" lon="7.05346">
        <ele>277</ele>
        <time>2020-08-09T09:05:11Z</time>
      </trkpt>
      <trkpt lat="48.69526" lon="7.05341">
        <ele>277</ele>
        <time>2020-08-09T09:05:12Z</time>
      </trkpt>
      <trkpt lat="48.69523" lon="7.05336">
        <ele>277</ele>
        <time>2020-08-09T09:05:13Z</time>
      </trkpt>
      <trkpt lat="48.69519" lon="7.05331">
        <ele>277</ele>
        <time>2020-08-09T09:05:14Z</time>
      </trkpt>
      <trkpt lat="48.69515" lon="7.05325">
        <ele>277</ele>
        <time>2020-08-09T09:05:15Z</time>
      </trkpt>
      <trkpt lat="48.69512" lon="7.05319">
        <ele>277</ele>
        <time>2020-08-09T09:05:16Z</time>
      </trkpt>
      <trkpt lat="48.69508" lon="7.05314">
        <ele>277</ele>
        <time>2020-08-09T09:05:17Z</time>
      </trkpt>
      <trkpt lat="48.69505" lon="7.05309">
        <ele>277</ele>
        <time>2020-08-09T09:05:18Z</time>
      </trkpt>
      <trkpt lat="48.69498" lon="7.05298">
        <ele>277</ele>
        <time>2020-08-09T09:05:20Z</time>
      </trkpt>
      <trkpt lat="48.69495" lon="7.05293">
        <ele>276</ele>
        <time>2020-08-09T09:05:21Z</time>
      </trkpt>
      <trkpt lat="48.69492" lon="7.05287">
        <ele>276</ele>
        <time>2020-08-09T09:05:22Z</time>
      </trkpt>
      <trkpt lat="48.69486" lon="7.05277">
        <ele>275</ele>
        <time>2020-08-09T09:05:24Z</time>
      </trkpt>
      <trkpt lat="48.69483" lon="7.05272">
        <ele>275</ele>
        <time>2020-08-09T09:05:25Z</time>
      </trkpt>
      <trkpt lat="48.69479" lon="7.05267">
        <ele>275</ele>
        <time>2020-08-09T09:05:26Z</time>
      </trkpt>
      <trkpt lat="48.69476" lon="7.05261">
        <ele>275</ele>
        <time>2020-08-09T09:05:27Z</time>
      </trkpt>
      <trkpt lat="48.6947" lon="7.05252">
        <ele>275</ele>
        <time>2020-08-09T09:05:29Z</time>
      </trkpt>
      <trkpt lat="48.69466" lon="7.05247">
        <ele>275</ele>
        <time>2020-08-09T09:05:30Z</time>
      </trkpt>
      <trkpt lat="48.69463" lon="7.05241">
        <ele>274</ele>
        <time>2020-08-09T09:05:31Z</time>
      </trkpt>
      <trkpt lat="48.6946" lon="7.05235">
        <ele>274</ele>
        <time>2020-08-09T09:05:32Z</time>
      </trkpt>
      <trkpt lat="48.69457" lon="7.0523">
        <ele>273</ele>
        <time>2020-08-09T09:05:33Z</time>
      </trkpt>
      <trkpt lat="48.69451" lon="7.0522">
        <ele>273</ele>
        <time>2020-08-09T09:05:35Z</time>
      </trkpt>
      <trkpt lat="48.69448" lon="7.05215">
        <ele>273</ele>
        <time>2020-08-09T09:05:36Z</time>
      </trkpt>
      <trkpt lat="48.69442" lon="7.05205">
        <ele>272</ele>
        <time>2020-08-09T09:05:38Z</time>
      </trkpt>
      <trkpt lat="48.69437" lon="7.05197">
        <ele>272</ele>
        <time>2020-08-09T09:05:40Z</time>
      </trkpt>
      <trkpt lat="48.69434" lon="7.0519">
        <ele>272</ele>
        <time>2020-08-09T09:05:42Z</time>
      </trkpt>
      <trkpt lat="48.69431" lon="7.05182">
        <ele>272</ele>
        <time>2020-08-09T09:05:44Z</time>
      </trkpt>
      <trkpt lat="48.69429" lon="7.05173">
        <ele>272</ele>
        <time>2020-08-09T09:05:46Z</time>
      </trkpt>
      <trkpt lat="48.69429" lon="7.05165">
        <ele>272</ele>
        <time>2020-08-09T09:05:48Z</time>
      </trkpt>
      <trkpt lat="48.69426" lon="7.05152">
        <ele>272</ele>
        <time>2020-08-09T09:06:26Z</time>
      </trkpt>
      <trkpt lat="48.69421" lon="7.05158">
        <ele>272</ele>
        <time>2020-08-09T09:06:29Z</time>
      </trkpt>
      <trkpt lat="48.69414" lon="7.05167">
        <ele>273</ele>
        <time>2020-08-09T09:06:33Z</time>
      </trkpt>
      <trkpt lat="48.69409" lon="7.05171">
        <ele>273</ele>
        <time>2020-08-09T09:06:35Z</time>
      </trkpt>
      <trkpt lat="48.69405" lon="7.05175">
        <ele>273</ele>
        <time>2020-08-09T09:06:37Z</time>
      </trkpt>
      <trkpt lat="48.69401" lon="7.05179">
        <ele>273</ele>
        <time>2020-08-09T09:06:39Z</time>
      </trkpt>
      <trkpt lat="48.69396" lon="7.05184">
        <ele>273</ele>
        <time>2020-08-09T09:06:42Z</time>
      </trkpt>
      <trkpt lat="48.69391" lon="7.05179">
        <ele>273</ele>
        <time>2020-08-09T09:06:45Z</time>
      </trkpt>
      <trkpt lat="48.69388" lon="7.05172">
        <ele>273</ele>
        <time>2020-08-09T09:06:47Z</time>
      </trkpt>
      <trkpt lat="48.69384" lon="7.05163">
        <ele>273</ele>
        <time>2020-08-09T09:06:49Z</time>
      </trkpt>
      <trkpt lat="48.69379" lon="7.05155">
        <ele>273</ele>
        <time>2020-08-09T09:06:51Z</time>
      </trkpt>
      <trkpt lat="48.69375" lon="7.05145">
        <ele>273</ele>
        <time>2020-08-09T09:06:53Z</time>
      </trkpt>
      <trkpt lat="48.6937" lon="7.05135">
        <ele>273</ele>
        <time>2020-08-09T09:06:55Z</time>
      </trkpt>
      <trkpt lat="48.69365" lon="7.05125">
        <ele>272</ele>
        <time>2020-08-09T09:06:57Z</time>
      </trkpt>
      <trkpt lat="48.69359" lon="7.05115">
        <ele>272</ele>
        <time>2020-08-09T09:06:59Z</time>
      </trkpt>
      <trkpt lat="48.69355" lon="7.05105">
        <ele>272</ele>
        <time>2020-08-09T09:07:01Z</time>
      </trkpt>
      <trkpt lat="48.6935" lon="7.05096">
        <ele>272</ele>
        <time>2020-08-09T09:07:03Z</time>
      </trkpt>
      <trkpt lat="48.69346" lon="7.05084">
        <ele>272</ele>
        <time>2020-08-09T09:07:05Z</time>
      </trkpt>
      <trkpt lat="48.69342" lon="7.05073">
        <ele>272</ele>
        <time>2020-08-09T09:07:07Z</time>
      </trkpt>
      <trkpt lat="48.69341" lon="7.05066">
        <ele>272</ele>
        <time>2020-08-09T09:07:08Z</time>
      </trkpt>
      <trkpt lat="48.69339" lon="7.0506">
        <ele>272</ele>
        <time>2020-08-09T09:07:09Z</time>
      </trkpt>
      <trkpt lat="48.69338" lon="7.05053">
        <ele>272</ele>
        <time>2020-08-09T09:07:10Z</time>
      </trkpt>
      <trkpt lat="48.69336" lon="7.05046">
        <ele>272</ele>
        <time>2020-08-09T09:07:11Z</time>
      </trkpt>
      <trkpt lat="48.69334" lon="7.0504">
        <ele>272</ele>
        <time>2020-08-09T09:07:12Z</time>
      </trkpt>
      <trkpt lat="48.69333" lon="7.05033">
        <ele>272</ele>
        <time>2020-08-09T09:07:13Z</time>
      </trkpt>
      <trkpt lat="48.69331" lon="7.05019">
        <ele>272</ele>
        <time>2020-08-09T09:07:15Z</time>
      </trkpt>
      <trkpt lat="48.6933" lon="7.05012">
        <ele>272</ele>
        <time>2020-08-09T09:07:16Z</time>
      </trkpt>
      <trkpt lat="48.6933" lon="7.05005">
        <ele>272</ele>
        <time>2020-08-09T09:07:17Z</time>
      </trkpt>
      <trkpt lat="48.69328" lon="7.04992">
        <ele>271</ele>
        <time>2020-08-09T09:07:19Z</time>
      </trkpt>
      <trkpt lat="48.69327" lon="7.0498">
        <ele>271</ele>
        <time>2020-08-09T09:07:21Z</time>
      </trkpt>
      <trkpt lat="48.69326" lon="7.04967">
        <ele>270</ele>
        <time>2020-08-09T09:07:23Z</time>
      </trkpt>
      <trkpt lat="48.69325" lon="7.04956">
        <ele>270</ele>
        <time>2020-08-09T09:07:25Z</time>
      </trkpt>
      <trkpt lat="48.69324" lon="7.04942">
        <ele>270</ele>
        <time>2020-08-09T09:09:04Z</time>
      </trkpt>
      <trkpt lat="48.69324" lon="7.04934">
        <ele>270</ele>
        <time>2020-08-09T09:09:06Z</time>
      </trkpt>
      <trkpt lat="48.69323" lon="7.04926">
        <ele>270</ele>
        <time>2020-08-09T09:09:08Z</time>
      </trkpt>
      <trkpt lat="48.69322" lon="7.04916">
        <ele>270</ele>
        <time>2020-08-09T09:09:10Z</time>
      </trkpt>
      <trkpt lat="48.69321" lon="7.04906">
        <ele>270</ele>
        <time>2020-08-09T09:09:12Z</time>
      </trkpt>
      <trkpt lat="48.6932" lon="7.04895">
        <ele>270</ele>
        <time>2020-08-09T09:09:14Z</time>
      </trkpt>
      <trkpt lat="48.69319" lon="7.04884">
        <ele>270</ele>
        <time>2020-08-09T09:09:16Z</time>
      </trkpt>
      <trkpt lat="48.69318" lon="7.04873">
        <ele>270</ele>
        <time>2020-08-09T09:09:18Z</time>
      </trkpt>
      <trkpt lat="48.69317" lon="7.04864">
        <ele>270</ele>
        <time>2020-08-09T09:09:20Z</time>
      </trkpt>
      <trkpt lat="48.69316" lon="7.04855">
        <ele>270</ele>
        <time>2020-08-09T09:09:22Z</time>
      </trkpt>
      <trkpt lat="48.69316" lon="7.04847">
        <ele>270</ele>
        <time>2020-08-09T09:09:25Z</time>
      </trkpt>
      <trkpt lat="48.69315" lon="7.04838">
        <ele>270</ele>
        <time>2020-08-09T09:09:28Z</time>
      </trkpt>
      <trkpt lat="48.69313" lon="7.0483">
        <ele>270</ele>
        <time>2020-08-09T09:09:31Z</time>
      </trkpt>
      <trkpt lat="48.69313" lon="7.04821">
        <ele>269</ele>
        <time>2020-08-09T09:09:34Z</time>
      </trkpt>
      <trkpt lat="48.69312" lon="7.04811">
        <ele>269</ele>
        <time>2020-08-09T09:09:37Z</time>
      </trkpt>
      <trkpt lat="48.6931" lon="7.04804">
        <ele>269</ele>
        <time>2020-08-09T09:09:39Z</time>
      </trkpt>
      <trkpt lat="48.69308" lon="7.04795">
        <ele>269</ele>
        <time>2020-08-09T09:09:41Z</time>
      </trkpt>
      <trkpt lat="48.69306" lon="7.04785">
        <ele>269</ele>
        <time>2020-08-09T09:09:43Z</time>
      </trkpt>
      <trkpt lat="48.69304" lon="7.04776">
        <ele>270</ele>
        <time>2020-08-09T09:09:45Z</time>
      </trkpt>
      <trkpt lat="48.69301" lon="7.04766">
        <ele>270</ele>
        <time>2020-08-09T09:09:47Z</time>
      </trkpt>
      <trkpt lat="48.69299" lon="7.04755">
        <ele>270</ele>
        <time>2020-08-09T09:09:49Z</time>
      </trkpt>
      <trkpt lat="48.69295" lon="7.04746">
        <ele>270</ele>
        <time>2020-08-09T09:09:51Z</time>
      </trkpt>
      <trkpt lat="48.69292" lon="7.04738">
        <ele>270</ele>
        <time>2020-08-09T09:09:53Z</time>
      </trkpt>
      <trkpt lat="48.6929" lon="7.04732">
        <ele>270</ele>
        <time>2020-08-09T09:09:55Z</time>
      </trkpt>
      <trkpt lat="48.69287" lon="7.04726">
        <ele>270</ele>
        <time>2020-08-09T09:09:59Z</time>
      </trkpt>
      <trkpt lat="48.69284" lon="7.0472">
        <ele>269</ele>
        <time>2020-08-09T09:10:02Z</time>
      </trkpt>
      <trkpt lat="48.69279" lon="7.04713">
        <ele>270</ele>
        <time>2020-08-09T09:10:05Z</time>
      </trkpt>
      <trkpt lat="48.69276" lon="7.04707">
        <ele>270</ele>
        <time>2020-08-09T09:10:07Z</time>
      </trkpt>
      <trkpt lat="48.69272" lon="7.047">
        <ele>270</ele>
        <time>2020-08-09T09:10:09Z</time>
      </trkpt>
      <trkpt lat="48.69268" lon="7.04692">
        <ele>269</ele>
        <time>2020-08-09T09:10:11Z</time>
      </trkpt>
      <trkpt lat="48.69264" lon="7.04684">
        <ele>269</ele>
        <time>2020-08-09T09:10:13Z</time>
      </trkpt>
      <trkpt lat="48.69259" lon="7.04674">
        <ele>269</ele>
        <time>2020-08-09T09:10:15Z</time>
      </trkpt>
      <trkpt lat="48.69254" lon="7.04664">
        <ele>268</ele>
        <time>2020-08-09T09:10:17Z</time>
      </trkpt>
      <trkpt lat="48.69251" lon="7.04659">
        <ele>269</ele>
        <time>2020-08-09T09:10:18Z</time>
      </trkpt>
      <trkpt lat="48.69245" lon="7.04648">
        <ele>269</ele>
        <time>2020-08-09T09:10:20Z</time>
      </trkpt>
      <trkpt lat="48.69242" lon="7.04643">
        <ele>269</ele>
        <time>2020-08-09T09:10:21Z</time>
      </trkpt>
      <trkpt lat="48.69237" lon="7.04632">
        <ele>269</ele>
        <time>2020-08-09T09:10:23Z</time>
      </trkpt>
      <trkpt lat="48.69234" lon="7.04626">
        <ele>269</ele>
        <time>2020-08-09T09:10:24Z</time>
      </trkpt>
      <trkpt lat="48.6923" lon="7.04621">
        <ele>269</ele>
        <time>2020-08-09T09:10:25Z</time>
      </trkpt>
      <trkpt lat="48.69225" lon="7.0461">
        <ele>269</ele>
        <time>2020-08-09T09:10:27Z</time>
      </trkpt>
      <trkpt lat="48.69223" lon="7.04604">
        <ele>269</ele>
        <time>2020-08-09T09:10:28Z</time>
      </trkpt>
      <trkpt lat="48.69217" lon="7.04592">
        <ele>269</ele>
        <time>2020-08-09T09:10:30Z</time>
      </trkpt>
      <trkpt lat="48.69215" lon="7.04587">
        <ele>269</ele>
        <time>2020-08-09T09:10:31Z</time>
      </trkpt>
      <trkpt lat="48.69212" lon="7.0458">
        <ele>269</ele>
        <time>2020-08-09T09:10:32Z</time>
      </trkpt>
      <trkpt lat="48.6921" lon="7.04574">
        <ele>269</ele>
        <time>2020-08-09T09:10:33Z</time>
      </trkpt>
      <trkpt lat="48.69207" lon="7.04568">
        <ele>269</ele>
        <time>2020-08-09T09:10:34Z</time>
      </trkpt>
      <trkpt lat="48.69206" lon="7.04561">
        <ele>268</ele>
        <time>2020-08-09T09:10:35Z</time>
      </trkpt>
      <trkpt lat="48.69204" lon="7.04554">
        <ele>268</ele>
        <time>2020-08-09T09:10:36Z</time>
      </trkpt>
      <trkpt lat="48.69202" lon="7.04546">
        <ele>268</ele>
        <time>2020-08-09T09:10:37Z</time>
      </trkpt>
      <trkpt lat="48.69201" lon="7.04539">
        <ele>268</ele>
        <time>2020-08-09T09:10:38Z</time>
      </trkpt>
      <trkpt lat="48.69199" lon="7.04532">
        <ele>268</ele>
        <time>2020-08-09T09:10:39Z</time>
      </trkpt>
      <trkpt lat="48.69196" lon="7.04519">
        <ele>268</ele>
        <time>2020-08-09T09:10:41Z</time>
      </trkpt>
      <trkpt lat="48.69195" lon="7.04512">
        <ele>268</ele>
        <time>2020-08-09T09:10:42Z</time>
      </trkpt>
      <trkpt lat="48.69193" lon="7.04499">
        <ele>268</ele>
        <time>2020-08-09T09:10:44Z</time>
      </trkpt>
      <trkpt lat="48.69191" lon="7.04492">
        <ele>268</ele>
        <time>2020-08-09T09:10:45Z</time>
      </trkpt>
      <trkpt lat="48.69189" lon="7.04479">
        <ele>268</ele>
        <time>2020-08-09T09:10:47Z</time>
      </trkpt>
      <trkpt lat="48.69188" lon="7.04472">
        <ele>267</ele>
        <time>2020-08-09T09:10:48Z</time>
      </trkpt>
      <trkpt lat="48.69187" lon="7.04465">
        <ele>267</ele>
        <time>2020-08-09T09:10:49Z</time>
      </trkpt>
      <trkpt lat="48.69186" lon="7.04458">
        <ele>267</ele>
        <time>2020-08-09T09:10:50Z</time>
      </trkpt>
      <trkpt lat="48.69184" lon="7.04452">
        <ele>267</ele>
        <time>2020-08-09T09:10:51Z</time>
      </trkpt>
      <trkpt lat="48.69182" lon="7.04445">
        <ele>267</ele>
        <time>2020-08-09T09:10:52Z</time>
      </trkpt>
      <trkpt lat="48.69181" lon="7.04438">
        <ele>267</ele>
        <time>2020-08-09T09:10:53Z</time>
      </trkpt>
      <trkpt lat="48.69179" lon="7.04431">
        <ele>268</ele>
        <time>2020-08-09T09:10:54Z</time>
      </trkpt>
      <trkpt lat="48.69177" lon="7.04417">
        <ele>268</ele>
        <time>2020-08-09T09:10:56Z</time>
      </trkpt>
      <trkpt lat="48.69175" lon="7.0441">
        <ele>268</ele>
        <time>2020-08-09T09:10:57Z</time>
      </trkpt>
      <trkpt lat="48.69174" lon="7.04404">
        <ele>268</ele>
        <time>2020-08-09T09:10:58Z</time>
      </trkpt>
      <trkpt lat="48.69173" lon="7.04397">
        <ele>268</ele>
        <time>2020-08-09T09:10:59Z</time>
      </trkpt>
      <trkpt lat="48.69172" lon="7.0439">
        <ele>268</ele>
        <time>2020-08-09T09:11:00Z</time>
      </trkpt>
      <trkpt lat="48.69172" lon="7.04382">
        <ele>267</ele>
        <time>2020-08-09T09:11:01Z</time>
      </trkpt>
      <trkpt lat="48.69171" lon="7.04376">
        <ele>267</ele>
        <time>2020-08-09T09:11:02Z</time>
      </trkpt>
      <trkpt lat="48.69171" lon="7.04368">
        <ele>267</ele>
        <time>2020-08-09T09:11:03Z</time>
      </trkpt>
      <trkpt lat="48.69171" lon="7.04361">
        <ele>267</ele>
        <time>2020-08-09T09:11:04Z</time>
      </trkpt>
      <trkpt lat="48.69171" lon="7.04354">
        <ele>267</ele>
        <time>2020-08-09T09:11:05Z</time>
      </trkpt>
      <trkpt lat="48.6917" lon="7.04347">
        <ele>267</ele>
        <time>2020-08-09T09:11:06Z</time>
      </trkpt>
      <trkpt lat="48.6917" lon="7.0434">
        <ele>267</ele>
        <time>2020-08-09T09:11:07Z</time>
      </trkpt>
      <trkpt lat="48.6917" lon="7.04332">
        <ele>267</ele>
        <time>2020-08-09T09:11:08Z</time>
      </trkpt>
      <trkpt lat="48.6917" lon="7.04324">
        <ele>267</ele>
        <time>2020-08-09T09:11:09Z</time>
      </trkpt>
      <trkpt lat="48.69169" lon="7.04317">
        <ele>267</ele>
        <time>2020-08-09T09:11:10Z</time>
      </trkpt>
      <trkpt lat="48.69169" lon="7.04309">
        <ele>267</ele>
        <time>2020-08-09T09:11:11Z</time>
      </trkpt>
      <trkpt lat="48.6917" lon="7.04301">
        <ele>267</ele>
        <time>2020-08-09T09:11:12Z</time>
      </trkpt>
      <trkpt lat="48.69171" lon="7.04294">
        <ele>267</ele>
        <time>2020-08-09T09:11:13Z</time>
      </trkpt>
      <trkpt lat="48.69172" lon="7.04286">
        <ele>267</ele>
        <time>2020-08-09T09:11:14Z</time>
      </trkpt>
      <trkpt lat="48.69173" lon="7.04279">
        <ele>267</ele>
        <time>2020-08-09T09:11:15Z</time>
      </trkpt>
      <trkpt lat="48.69174" lon="7.04271">
        <ele>267</ele>
        <time>2020-08-09T09:11:16Z</time>
      </trkpt>
      <trkpt lat="48.69175" lon="7.04263">
        <ele>267</ele>
        <time>2020-08-09T09:11:17Z</time>
      </trkpt>
      <trkpt lat="48.69176" lon="7.04256">
        <ele>267</ele>
        <time>2020-08-09T09:11:18Z</time>
      </trkpt>
      <trkpt lat="48.69177" lon="7.04248">
        <ele>267</ele>
        <time>2020-08-09T09:11:19Z</time>
      </trkpt>
      <trkpt lat="48.69178" lon="7.04241">
        <ele>267</ele>
        <time>2020-08-09T09:11:20Z</time>
      </trkpt>
      <trkpt lat="48.69179" lon="7.04234">
        <ele>267</ele>
        <time>2020-08-09T09:11:21Z</time>
      </trkpt>
      <trkpt lat="48.6918" lon="7.04227">
        <ele>267</ele>
        <time>2020-08-09T09:11:22Z</time>
      </trkpt>
      <trkpt lat="48.69181" lon="7.04219">
        <ele>267</ele>
        <time>2020-08-09T09:11:23Z</time>
      </trkpt>
      <trkpt lat="48.69183" lon="7.04211">
        <ele>267</ele>
        <time>2020-08-09T09:11:24Z</time>
      </trkpt>
      <trkpt lat="48.69184" lon="7.04204">
        <ele>267</ele>
        <time>2020-08-09T09:11:25Z</time>
      </trkpt>
      <trkpt lat="48.69185" lon="7.04197">
        <ele>267</ele>
        <time>2020-08-09T09:11:26Z</time>
      </trkpt>
      <trkpt lat="48.69186" lon="7.0419">
        <ele>267</ele>
        <time>2020-08-09T09:11:27Z</time>
      </trkpt>
      <trkpt lat="48.69188" lon="7.04182">
        <ele>267</ele>
        <time>2020-08-09T09:11:28Z</time>
      </trkpt>
      <trkpt lat="48.69189" lon="7.04175">
        <ele>267</ele>
        <time>2020-08-09T09:11:29Z</time>
      </trkpt>
      <trkpt lat="48.69191" lon="7.04168">
        <ele>267</ele>
        <time>2020-08-09T09:11:30Z</time>
      </trkpt>
      <trkpt lat="48.69192" lon="7.04161">
        <ele>267</ele>
        <time>2020-08-09T09:11:31Z</time>
      </trkpt>
      <trkpt lat="48.69193" lon="7.04153">
        <ele>267</ele>
        <time>2020-08-09T09:11:32Z</time>
      </trkpt>
      <trkpt lat="48.69195" lon="7.04146">
        <ele>267</ele>
        <time>2020-08-09T09:11:33Z</time>
      </trkpt>
      <trkpt lat="48.69197" lon="7.04139">
        <ele>268</ele>
        <time>2020-08-09T09:11:34Z</time>
      </trkpt>
      <trkpt lat="48.69198" lon="7.04132">
        <ele>268</ele>
        <time>2020-08-09T09:11:35Z</time>
      </trkpt>
      <trkpt lat="48.692" lon="7.04124">
        <ele>268</ele>
        <time>2020-08-09T09:11:36Z</time>
      </trkpt>
      <trkpt lat="48.69203" lon="7.04118">
        <ele>267</ele>
        <time>2020-08-09T09:11:37Z</time>
      </trkpt>
      <trkpt lat="48.69204" lon="7.04111">
        <ele>268</ele>
        <time>2020-08-09T09:11:38Z</time>
      </trkpt>
      <trkpt lat="48.69206" lon="7.04104">
        <ele>268</ele>
        <time>2020-08-09T09:11:39Z</time>
      </trkpt>
      <trkpt lat="48.69208" lon="7.04097">
        <ele>268</ele>
        <time>2020-08-09T09:11:40Z</time>
      </trkpt>
      <trkpt lat="48.6921" lon="7.0409">
        <ele>268</ele>
        <time>2020-08-09T09:11:41Z</time>
      </trkpt>
      <trkpt lat="48.69212" lon="7.04083">
        <ele>268</ele>
        <time>2020-08-09T09:11:42Z</time>
      </trkpt>
      <trkpt lat="48.69214" lon="7.04076">
        <ele>268</ele>
        <time>2020-08-09T09:11:43Z</time>
      </trkpt>
      <trkpt lat="48.69215" lon="7.0407">
        <ele>268</ele>
        <time>2020-08-09T09:11:44Z</time>
      </trkpt>
      <trkpt lat="48.69217" lon="7.04064">
        <ele>268</ele>
        <time>2020-08-09T09:11:45Z</time>
      </trkpt>
      <trkpt lat="48.6922" lon="7.04057">
        <ele>268</ele>
        <time>2020-08-09T09:11:46Z</time>
      </trkpt>
      <trkpt lat="48.69221" lon="7.0405">
        <ele>268</ele>
        <time>2020-08-09T09:11:47Z</time>
      </trkpt>
      <trkpt lat="48.69223" lon="7.04043">
        <ele>268</ele>
        <time>2020-08-09T09:11:48Z</time>
      </trkpt>
      <trkpt lat="48.69225" lon="7.04037">
        <ele>268</ele>
        <time>2020-08-09T09:11:49Z</time>
      </trkpt>
      <trkpt lat="48.69229" lon="7.04025">
        <ele>268</ele>
        <time>2020-08-09T09:11:51Z</time>
      </trkpt>
      <trkpt lat="48.69232" lon="7.04013">
        <ele>268</ele>
        <time>2020-08-09T09:11:53Z</time>
      </trkpt>
      <trkpt lat="48.69234" lon="7.04007">
        <ele>269</ele>
        <time>2020-08-09T09:11:54Z</time>
      </trkpt>
      <trkpt lat="48.69237" lon="7.03995">
        <ele>268</ele>
        <time>2020-08-09T09:11:56Z</time>
      </trkpt>
      <trkpt lat="48.6924" lon="7.03985">
        <ele>268</ele>
        <time>2020-08-09T09:11:58Z</time>
      </trkpt>
      <trkpt lat="48.69243" lon="7.03975">
        <ele>268</ele>
        <time>2020-08-09T09:12:00Z</time>
      </trkpt>
      <trkpt lat="48.69246" lon="7.03965">
        <ele>268</ele>
        <time>2020-08-09T09:12:02Z</time>
      </trkpt>
      <trkpt lat="48.69249" lon="7.03958">
        <ele>268</ele>
        <time>2020-08-09T09:12:04Z</time>
      </trkpt>
      <trkpt lat="48.69252" lon="7.03951">
        <ele>268</ele>
        <time>2020-08-09T09:12:06Z</time>
      </trkpt>
      <trkpt lat="48.69257" lon="7.03939">
        <ele>268</ele>
        <time>2020-08-09T09:12:10Z</time>
      </trkpt>
      <trkpt lat="48.6926" lon="7.03932">
        <ele>269</ele>
        <time>2020-08-09T09:12:12Z</time>
      </trkpt>
      <trkpt lat="48.69262" lon="7.03924">
        <ele>269</ele>
        <time>2020-08-09T09:12:14Z</time>
      </trkpt>
      <trkpt lat="48.69266" lon="7.03915">
        <ele>270</ele>
        <time>2020-08-09T09:12:16Z</time>
      </trkpt>
      <trkpt lat="48.69269" lon="7.03907">
        <ele>270</ele>
        <time>2020-08-09T09:12:18Z</time>
      </trkpt>
      <trkpt lat="48.69272" lon="7.03897">
        <ele>270</ele>
        <time>2020-08-09T09:12:20Z</time>
      </trkpt>
      <trkpt lat="48.69275" lon="7.03888">
        <ele>270</ele>
        <time>2020-08-09T09:12:22Z</time>
      </trkpt>
      <trkpt lat="48.69278" lon="7.03879">
        <ele>270</ele>
        <time>2020-08-09T09:12:24Z</time>
      </trkpt>
      <trkpt lat="48.6928" lon="7.03869">
        <ele>270</ele>
        <time>2020-08-09T09:12:26Z</time>
      </trkpt>
      <trkpt lat="48.69282" lon="7.03858">
        <ele>270</ele>
        <time>2020-08-09T09:12:28Z</time>
      </trkpt>
      <trkpt lat="48.69284" lon="7.03848">
        <ele>271</ele>
        <time>2020-08-09T09:12:30Z</time>
      </trkpt>
      <trkpt lat="48.69287" lon="7.03838">
        <ele>271</ele>
        <time>2020-08-09T09:12:32Z</time>
      </trkpt>
      <trkpt lat="48.69289" lon="7.03828">
        <ele>272</ele>
        <time>2020-08-09T09:12:34Z</time>
      </trkpt>
      <trkpt lat="48.69291" lon="7.03818">
        <ele>272</ele>
        <time>2020-08-09T09:12:36Z</time>
      </trkpt>
      <trkpt lat="48.69293" lon="7.03807">
        <ele>272</ele>
        <time>2020-08-09T09:12:38Z</time>
      </trkpt>
      <trkpt lat="48.69295" lon="7.03796">
        <ele>272</ele>
        <time>2020-08-09T09:12:40Z</time>
      </trkpt>
      <trkpt lat="48.69298" lon="7.03785">
        <ele>272</ele>
        <time>2020-08-09T09:12:42Z</time>
      </trkpt>
      <trkpt lat="48.69301" lon="7.03774">
        <ele>272</ele>
        <time>2020-08-09T09:12:44Z</time>
      </trkpt>
      <trkpt lat="48.69302" lon="7.03762">
        <ele>272</ele>
        <time>2020-08-09T09:12:46Z</time>
      </trkpt>
      <trkpt lat="48.69305" lon="7.03751">
        <ele>272</ele>
        <time>2020-08-09T09:12:48Z</time>
      </trkpt>
      <trkpt lat="48.69308" lon="7.03739">
        <ele>272</ele>
        <time>2020-08-09T09:12:50Z</time>
      </trkpt>
      <trkpt lat="48.69311" lon="7.03726">
        <ele>272</ele>
        <time>2020-08-09T09:12:52Z</time>
      </trkpt>
      <trkpt lat="48.69314" lon="7.03714">
        <ele>271</ele>
        <time>2020-08-09T09:12:54Z</time>
      </trkpt>
      <trkpt lat="48.69317" lon="7.03702">
        <ele>271</ele>
        <time>2020-08-09T09:12:56Z</time>
      </trkpt>
      <trkpt lat="48.69319" lon="7.03689">
        <ele>271</ele>
        <time>2020-08-09T09:12:58Z</time>
      </trkpt>
      <trkpt lat="48.69321" lon="7.03683">
        <ele>271</ele>
        <time>2020-08-09T09:12:59Z</time>
      </trkpt>
      <trkpt lat="48.69323" lon="7.0367">
        <ele>271</ele>
        <time>2020-08-09T09:13:01Z</time>
      </trkpt>
      <trkpt lat="48.69326" lon="7.03658">
        <ele>272</ele>
        <time>2020-08-09T09:13:03Z</time>
      </trkpt>
      <trkpt lat="48.69328" lon="7.03652">
        <ele>273</ele>
        <time>2020-08-09T09:13:04Z</time>
      </trkpt>
      <trkpt lat="48.69331" lon="7.03638">
        <ele>273</ele>
        <time>2020-08-09T09:13:06Z</time>
      </trkpt>
      <trkpt lat="48.69332" lon="7.03632">
        <ele>273</ele>
        <time>2020-08-09T09:13:07Z</time>
      </trkpt>
      <trkpt lat="48.69334" lon="7.03625">
        <ele>272</ele>
        <time>2020-08-09T09:13:08Z</time>
      </trkpt>
      <trkpt lat="48.69337" lon="7.03612">
        <ele>271</ele>
        <time>2020-08-09T09:13:10Z</time>
      </trkpt>
      <trkpt lat="48.6934" lon="7.03599">
        <ele>271</ele>
        <time>2020-08-09T09:13:12Z</time>
      </trkpt>
      <trkpt lat="48.69341" lon="7.03593">
        <ele>271</ele>
        <time>2020-08-09T09:13:13Z</time>
      </trkpt>
      <trkpt lat="48.69343" lon="7.03586">
        <ele>271</ele>
        <time>2020-08-09T09:13:14Z</time>
      </trkpt>
      <trkpt lat="48.69346" lon="7.03573">
        <ele>270</ele>
        <time>2020-08-09T09:13:16Z</time>
      </trkpt>
      <trkpt lat="48.69352" lon="7.03554">
        <ele>271</ele>
        <time>2020-08-09T09:13:19Z</time>
      </trkpt>
      <trkpt lat="48.69355" lon="7.03542">
        <ele>270</ele>
        <time>2020-08-09T09:13:21Z</time>
      </trkpt>
      <trkpt lat="48.69357" lon="7.0353">
        <ele>270</ele>
        <time>2020-08-09T09:13:23Z</time>
      </trkpt>
      <trkpt lat="48.6936" lon="7.03517">
        <ele>270</ele>
        <time>2020-08-09T09:13:25Z</time>
      </trkpt>
      <trkpt lat="48.69362" lon="7.0351">
        <ele>270</ele>
        <time>2020-08-09T09:13:26Z</time>
      </trkpt>
      <trkpt lat="48.69364" lon="7.03504">
        <ele>270</ele>
        <time>2020-08-09T09:13:27Z</time>
      </trkpt>
      <trkpt lat="48.69365" lon="7.03497">
        <ele>270</ele>
        <time>2020-08-09T09:13:28Z</time>
      </trkpt>
      <trkpt lat="48.69367" lon="7.03491">
        <ele>270</ele>
        <time>2020-08-09T09:13:29Z</time>
      </trkpt>
      <trkpt lat="48.69369" lon="7.03484">
        <ele>271</ele>
        <time>2020-08-09T09:13:30Z</time>
      </trkpt>
      <trkpt lat="48.69371" lon="7.03478">
        <ele>271</ele>
        <time>2020-08-09T09:13:31Z</time>
      </trkpt>
      <trkpt lat="48.69373" lon="7.03471">
        <ele>270</ele>
        <time>2020-08-09T09:13:32Z</time>
      </trkpt>
      <trkpt lat="48.69375" lon="7.03464">
        <ele>270</ele>
        <time>2020-08-09T09:13:33Z</time>
      </trkpt>
      <trkpt lat="48.69377" lon="7.03458">
        <ele>270</ele>
        <time>2020-08-09T09:13:34Z</time>
      </trkpt>
      <trkpt lat="48.69379" lon="7.03451">
        <ele>270</ele>
        <time>2020-08-09T09:13:35Z</time>
      </trkpt>
      <trkpt lat="48.6938" lon="7.03444">
        <ele>270</ele>
        <time>2020-08-09T09:13:36Z</time>
      </trkpt>
      <trkpt lat="48.69382" lon="7.03437">
        <ele>270</ele>
        <time>2020-08-09T09:13:37Z</time>
      </trkpt>
      <trkpt lat="48.69384" lon="7.0343">
        <ele>270</ele>
        <time>2020-08-09T09:13:38Z</time>
      </trkpt>
      <trkpt lat="48.69386" lon="7.03422">
        <ele>270</ele>
        <time>2020-08-09T09:13:39Z</time>
      </trkpt>
      <trkpt lat="48.69388" lon="7.03415">
        <ele>270</ele>
        <time>2020-08-09T09:13:40Z</time>
      </trkpt>
      <trkpt lat="48.6939" lon="7.03408">
        <ele>269</ele>
        <time>2020-08-09T09:13:41Z</time>
      </trkpt>
      <trkpt lat="48.69392" lon="7.03401">
        <ele>269</ele>
        <time>2020-08-09T09:13:42Z</time>
      </trkpt>
      <trkpt lat="48.69394" lon="7.03394">
        <ele>269</ele>
        <time>2020-08-09T09:13:43Z</time>
      </trkpt>
      <trkpt lat="48.69395" lon="7.03387">
        <ele>269</ele>
        <time>2020-08-09T09:13:44Z</time>
      </trkpt>
      <trkpt lat="48.69397" lon="7.03379">
        <ele>268</ele>
        <time>2020-08-09T09:13:45Z</time>
      </trkpt>
      <trkpt lat="48.69399" lon="7.03372">
        <ele>269</ele>
        <time>2020-08-09T09:13:46Z</time>
      </trkpt>
      <trkpt lat="48.69401" lon="7.03366">
        <ele>269</ele>
        <time>2020-08-09T09:13:47Z</time>
      </trkpt>
      <trkpt lat="48.69403" lon="7.03359">
        <ele>269</ele>
        <time>2020-08-09T09:13:48Z</time>
      </trkpt>
      <trkpt lat="48.69405" lon="7.03352">
        <ele>268</ele>
        <time>2020-08-09T09:13:49Z</time>
      </trkpt>
      <trkpt lat="48.69407" lon="7.03345">
        <ele>268</ele>
        <time>2020-08-09T09:13:50Z</time>
      </trkpt>
      <trkpt lat="48.69411" lon="7.03332">
        <ele>268</ele>
        <time>2020-08-09T09:13:52Z</time>
      </trkpt>
      <trkpt lat="48.69413" lon="7.03325">
        <ele>268</ele>
        <time>2020-08-09T09:13:53Z</time>
      </trkpt>
      <trkpt lat="48.69415" lon="7.03319">
        <ele>268</ele>
        <time>2020-08-09T09:13:54Z</time>
      </trkpt>
      <trkpt lat="48.69418" lon="7.03312">
        <ele>268</ele>
        <time>2020-08-09T09:13:55Z</time>
      </trkpt>
      <trkpt lat="48.6942" lon="7.03305">
        <ele>268</ele>
        <time>2020-08-09T09:13:56Z</time>
      </trkpt>
      <trkpt lat="48.69421" lon="7.03298">
        <ele>268</ele>
        <time>2020-08-09T09:13:57Z</time>
      </trkpt>
      <trkpt lat="48.69423" lon="7.03291">
        <ele>268</ele>
        <time>2020-08-09T09:13:58Z</time>
      </trkpt>
      <trkpt lat="48.69425" lon="7.03284">
        <ele>268</ele>
        <time>2020-08-09T09:13:59Z</time>
      </trkpt>
      <trkpt lat="48.69427" lon="7.03277">
        <ele>267</ele>
        <time>2020-08-09T09:14:00Z</time>
      </trkpt>
      <trkpt lat="48.69429" lon="7.0327">
        <ele>267</ele>
        <time>2020-08-09T09:14:01Z</time>
      </trkpt>
      <trkpt lat="48.69431" lon="7.03263">
        <ele>267</ele>
        <time>2020-08-09T09:14:02Z</time>
      </trkpt>
      <trkpt lat="48.69433" lon="7.03256">
        <ele>267</ele>
        <time>2020-08-09T09:14:03Z</time>
      </trkpt>
      <trkpt lat="48.69435" lon="7.03249">
        <ele>267</ele>
        <time>2020-08-09T09:14:04Z</time>
      </trkpt>
      <trkpt lat="48.69437" lon="7.03242">
        <ele>267</ele>
        <time>2020-08-09T09:14:05Z</time>
      </trkpt>
      <trkpt lat="48.69439" lon="7.03235">
        <ele>267</ele>
        <time>2020-08-09T09:14:06Z</time>
      </trkpt>
      <trkpt lat="48.69441" lon="7.03227">
        <ele>267</ele>
        <time>2020-08-09T09:14:07Z</time>
      </trkpt>
      <trkpt lat="48.69443" lon="7.03219">
        <ele>267</ele>
        <time>2020-08-09T09:14:08Z</time>
      </trkpt>
      <trkpt lat="48.69445" lon="7.03211">
        <ele>266</ele>
        <time>2020-08-09T09:14:09Z</time>
      </trkpt>
      <trkpt lat="48.69448" lon="7.03204">
        <ele>266</ele>
        <time>2020-08-09T09:14:10Z</time>
      </trkpt>
      <trkpt lat="48.6945" lon="7.03196">
        <ele>266</ele>
        <time>2020-08-09T09:14:11Z</time>
      </trkpt>
      <trkpt lat="48.69452" lon="7.03189">
        <ele>266</ele>
        <time>2020-08-09T09:14:12Z</time>
      </trkpt>
      <trkpt lat="48.69455" lon="7.03182">
        <ele>266</ele>
        <time>2020-08-09T09:14:13Z</time>
      </trkpt>
      <trkpt lat="48.69457" lon="7.03175">
        <ele>266</ele>
        <time>2020-08-09T09:14:14Z</time>
      </trkpt>
      <trkpt lat="48.69459" lon="7.03168">
        <ele>266</ele>
        <time>2020-08-09T09:14:15Z</time>
      </trkpt>
      <trkpt lat="48.69461" lon="7.03161">
        <ele>265</ele>
        <time>2020-08-09T09:14:16Z</time>
      </trkpt>
      <trkpt lat="48.69463" lon="7.03153">
        <ele>265</ele>
        <time>2020-08-09T09:14:17Z</time>
      </trkpt>
      <trkpt lat="48.69466" lon="7.03146">
        <ele>265</ele>
        <time>2020-08-09T09:14:18Z</time>
      </trkpt>
      <trkpt lat="48.69468" lon="7.03139">
        <ele>265</ele>
        <time>2020-08-09T09:14:19Z</time>
      </trkpt>
      <trkpt lat="48.6947" lon="7.03131">
        <ele>265</ele>
        <time>2020-08-09T09:14:20Z</time>
      </trkpt>
      <trkpt lat="48.69472" lon="7.03123">
        <ele>265</ele>
        <time>2020-08-09T09:14:21Z</time>
      </trkpt>
      <trkpt lat="48.69474" lon="7.03116">
        <ele>265</ele>
        <time>2020-08-09T09:14:22Z</time>
      </trkpt>
      <trkpt lat="48.69476" lon="7.03108">
        <ele>264</ele>
        <time>2020-08-09T09:14:23Z</time>
      </trkpt>
      <trkpt lat="48.69478" lon="7.031">
        <ele>264</ele>
        <time>2020-08-09T09:14:24Z</time>
      </trkpt>
      <trkpt lat="48.6948" lon="7.03093">
        <ele>264</ele>
        <time>2020-08-09T09:14:25Z</time>
      </trkpt>
      <trkpt lat="48.69483" lon="7.03085">
        <ele>264</ele>
        <time>2020-08-09T09:14:26Z</time>
      </trkpt>
      <trkpt lat="48.69485" lon="7.03077">
        <ele>264</ele>
        <time>2020-08-09T09:14:27Z</time>
      </trkpt>
      <trkpt lat="48.69487" lon="7.03068">
        <ele>264</ele>
        <time>2020-08-09T09:14:28Z</time>
      </trkpt>
      <trkpt lat="48.69489" lon="7.0306">
        <ele>265</ele>
        <time>2020-08-09T09:14:29Z</time>
      </trkpt>
      <trkpt lat="48.69492" lon="7.03053">
        <ele>265</ele>
        <time>2020-08-09T09:14:30Z</time>
      </trkpt>
      <trkpt lat="48.69494" lon="7.03045">
        <ele>265</ele>
        <time>2020-08-09T09:14:31Z</time>
      </trkpt>
      <trkpt lat="48.69496" lon="7.03038">
        <ele>265</ele>
        <time>2020-08-09T09:14:32Z</time>
      </trkpt>
      <trkpt lat="48.69498" lon="7.0303">
        <ele>264</ele>
        <time>2020-08-09T09:14:33Z</time>
      </trkpt>
      <trkpt lat="48.69501" lon="7.03022">
        <ele>264</ele>
        <time>2020-08-09T09:14:34Z</time>
      </trkpt>
      <trkpt lat="48.69503" lon="7.03014">
        <ele>264</ele>
        <time>2020-08-09T09:14:35Z</time>
      </trkpt>
      <trkpt lat="48.69505" lon="7.03005">
        <ele>264</ele>
        <time>2020-08-09T09:14:36Z</time>
      </trkpt>
      <trkpt lat="48.69508" lon="7.02998">
        <ele>264</ele>
        <time>2020-08-09T09:14:37Z</time>
      </trkpt>
      <trkpt lat="48.6951" lon="7.0299">
        <ele>264</ele>
        <time>2020-08-09T09:14:38Z</time>
      </trkpt>
      <trkpt lat="48.69512" lon="7.02982">
        <ele>264</ele>
        <time>2020-08-09T09:14:39Z</time>
      </trkpt>
      <trkpt lat="48.69515" lon="7.02974">
        <ele>264</ele>
        <time>2020-08-09T09:14:40Z</time>
      </trkpt>
      <trkpt lat="48.69517" lon="7.02966">
        <ele>264</ele>
        <time>2020-08-09T09:14:41Z</time>
      </trkpt>
      <trkpt lat="48.69519" lon="7.02959">
        <ele>264</ele>
        <time>2020-08-09T09:14:42Z</time>
      </trkpt>
      <trkpt lat="48.69522" lon="7.02951">
        <ele>264</ele>
        <time>2020-08-09T09:14:43Z</time>
      </trkpt>
      <trkpt lat="48.69524" lon="7.02944">
        <ele>264</ele>
        <time>2020-08-09T09:14:44Z</time>
      </trkpt>
      <trkpt lat="48.69526" lon="7.02937">
        <ele>264</ele>
        <time>2020-08-09T09:14:45Z</time>
      </trkpt>
      <trkpt lat="48.69528" lon="7.02929">
        <ele>264</ele>
        <time>2020-08-09T09:14:46Z</time>
      </trkpt>
      <trkpt lat="48.6953" lon="7.02922">
        <ele>263</ele>
        <time>2020-08-09T09:14:47Z</time>
      </trkpt>
      <trkpt lat="48.69533" lon="7.02915">
        <ele>263</ele>
        <time>2020-08-09T09:14:48Z</time>
      </trkpt>
      <trkpt lat="48.69535" lon="7.02905">
        <ele>263</ele>
        <time>2020-08-09T09:14:49Z</time>
      </trkpt>
      <trkpt lat="48.69537" lon="7.02898">
        <ele>263</ele>
        <time>2020-08-09T09:14:50Z</time>
      </trkpt>
      <trkpt lat="48.69539" lon="7.0289">
        <ele>263</ele>
        <time>2020-08-09T09:14:51Z</time>
      </trkpt>
      <trkpt lat="48.6954" lon="7.02882">
        <ele>263</ele>
        <time>2020-08-09T09:14:52Z</time>
      </trkpt>
      <trkpt lat="48.69544" lon="7.02874">
        <ele>263</ele>
        <time>2020-08-09T09:14:53Z</time>
      </trkpt>
      <trkpt lat="48.69545" lon="7.02867">
        <ele>263</ele>
        <time>2020-08-09T09:14:54Z</time>
      </trkpt>
      <trkpt lat="48.69548" lon="7.0286">
        <ele>263</ele>
        <time>2020-08-09T09:14:55Z</time>
      </trkpt>
      <trkpt lat="48.6955" lon="7.02852">
        <ele>263</ele>
        <time>2020-08-09T09:14:56Z</time>
      </trkpt>
      <trkpt lat="48.69551" lon="7.02845">
        <ele>263</ele>
        <time>2020-08-09T09:14:57Z</time>
      </trkpt>
      <trkpt lat="48.69553" lon="7.02838">
        <ele>263</ele>
        <time>2020-08-09T09:14:58Z</time>
      </trkpt>
      <trkpt lat="48.69555" lon="7.02831">
        <ele>263</ele>
        <time>2020-08-09T09:14:59Z</time>
      </trkpt>
      <trkpt lat="48.69557" lon="7.02823">
        <ele>263</ele>
        <time>2020-08-09T09:15:00Z</time>
      </trkpt>
      <trkpt lat="48.6956" lon="7.02816">
        <ele>263</ele>
        <time>2020-08-09T09:15:01Z</time>
      </trkpt>
      <trkpt lat="48.69561" lon="7.02808">
        <ele>263</ele>
        <time>2020-08-09T09:15:02Z</time>
      </trkpt>
      <trkpt lat="48.69564" lon="7.02802">
        <ele>263</ele>
        <time>2020-08-09T09:15:03Z</time>
      </trkpt>
      <trkpt lat="48.69566" lon="7.02796">
        <ele>263</ele>
        <time>2020-08-09T09:15:04Z</time>
      </trkpt>
      <trkpt lat="48.69568" lon="7.02789">
        <ele>263</ele>
        <time>2020-08-09T09:15:05Z</time>
      </trkpt>
      <trkpt lat="48.69571" lon="7.0278">
        <ele>263</ele>
        <time>2020-08-09T09:15:06Z</time>
      </trkpt>
      <trkpt lat="48.69573" lon="7.02773">
        <ele>263</ele>
        <time>2020-08-09T09:15:07Z</time>
      </trkpt>
      <trkpt lat="48.69575" lon="7.02766">
        <ele>263</ele>
        <time>2020-08-09T09:15:08Z</time>
      </trkpt>
      <trkpt lat="48.69577" lon="7.02759">
        <ele>262</ele>
        <time>2020-08-09T09:15:09Z</time>
      </trkpt>
      <trkpt lat="48.69579" lon="7.02751">
        <ele>262</ele>
        <time>2020-08-09T09:15:10Z</time>
      </trkpt>
      <trkpt lat="48.69581" lon="7.02743">
        <ele>262</ele>
        <time>2020-08-09T09:15:11Z</time>
      </trkpt>
      <trkpt lat="48.69582" lon="7.02736">
        <ele>261</ele>
        <time>2020-08-09T09:15:12Z</time>
      </trkpt>
      <trkpt lat="48.69585" lon="7.02729">
        <ele>261</ele>
        <time>2020-08-09T09:15:13Z</time>
      </trkpt>
      <trkpt lat="48.69588" lon="7.02721">
        <ele>260</ele>
        <time>2020-08-09T09:15:14Z</time>
      </trkpt>
      <trkpt lat="48.6959" lon="7.02713">
        <ele>260</ele>
        <time>2020-08-09T09:15:15Z</time>
      </trkpt>
      <trkpt lat="48.69593" lon="7.02706">
        <ele>260</ele>
        <time>2020-08-09T09:15:16Z</time>
      </trkpt>
      <trkpt lat="48.69596" lon="7.02699">
        <ele>259</ele>
        <time>2020-08-09T09:15:17Z</time>
      </trkpt>
      <trkpt lat="48.69598" lon="7.02691">
        <ele>259</ele>
        <time>2020-08-09T09:15:18Z</time>
      </trkpt>
      <trkpt lat="48.69602" lon="7.02685">
        <ele>259</ele>
        <time>2020-08-09T09:15:19Z</time>
      </trkpt>
      <trkpt lat="48.69605" lon="7.02679">
        <ele>259</ele>
        <time>2020-08-09T09:15:20Z</time>
      </trkpt>
      <trkpt lat="48.69608" lon="7.02672">
        <ele>258</ele>
        <time>2020-08-09T09:15:21Z</time>
      </trkpt>
      <trkpt lat="48.69611" lon="7.02665">
        <ele>258</ele>
        <time>2020-08-09T09:15:22Z</time>
      </trkpt>
      <trkpt lat="48.69615" lon="7.02658">
        <ele>258</ele>
        <time>2020-08-09T09:15:23Z</time>
      </trkpt>
      <trkpt lat="48.69619" lon="7.02653">
        <ele>258</ele>
        <time>2020-08-09T09:15:24Z</time>
      </trkpt>
      <trkpt lat="48.69622" lon="7.02648">
        <ele>258</ele>
        <time>2020-08-09T09:15:25Z</time>
      </trkpt>
      <trkpt lat="48.69626" lon="7.02642">
        <ele>258</ele>
        <time>2020-08-09T09:15:26Z</time>
      </trkpt>
      <trkpt lat="48.69629" lon="7.02635">
        <ele>258</ele>
        <time>2020-08-09T09:15:27Z</time>
      </trkpt>
      <trkpt lat="48.69634" lon="7.02629">
        <ele>258</ele>
        <time>2020-08-09T09:15:28Z</time>
      </trkpt>
      <trkpt lat="48.69638" lon="7.02624">
        <ele>258</ele>
        <time>2020-08-09T09:15:29Z</time>
      </trkpt>
      <trkpt lat="48.69642" lon="7.0262">
        <ele>258</ele>
        <time>2020-08-09T09:15:30Z</time>
      </trkpt>
      <trkpt lat="48.69648" lon="7.02616">
        <ele>258</ele>
        <time>2020-08-09T09:15:31Z</time>
      </trkpt>
      <trkpt lat="48.69653" lon="7.02611">
        <ele>258</ele>
        <time>2020-08-09T09:15:32Z</time>
      </trkpt>
      <trkpt lat="48.69657" lon="7.02607">
        <ele>258</ele>
        <time>2020-08-09T09:15:33Z</time>
      </trkpt>
      <trkpt lat="48.69665" lon="7.02601">
        <ele>258</ele>
        <time>2020-08-09T09:15:35Z</time>
      </trkpt>
      <trkpt lat="48.69673" lon="7.02594">
        <ele>259</ele>
        <time>2020-08-09T09:15:37Z</time>
      </trkpt>
      <trkpt lat="48.69681" lon="7.02587">
        <ele>259</ele>
        <time>2020-08-09T09:15:39Z</time>
      </trkpt>
      <trkpt lat="48.6969" lon="7.02581">
        <ele>259</ele>
        <time>2020-08-09T09:15:41Z</time>
      </trkpt>
      <trkpt lat="48.69694" lon="7.02577">
        <ele>259</ele>
        <time>2020-08-09T09:15:42Z</time>
      </trkpt>
      <trkpt lat="48.697" lon="7.02571">
        <ele>259</ele>
        <time>2020-08-09T09:15:44Z</time>
      </trkpt>
      <trkpt lat="48.69705" lon="7.02566">
        <ele>258</ele>
        <time>2020-08-09T09:15:46Z</time>
      </trkpt>
      <trkpt lat="48.69711" lon="7.02562">
        <ele>258</ele>
        <time>2020-08-09T09:15:48Z</time>
      </trkpt>
      <trkpt lat="48.69714" lon="7.02557">
        <ele>258</ele>
        <time>2020-08-09T09:15:51Z</time>
      </trkpt>
      <trkpt lat="48.69721" lon="7.02554">
        <ele>258</ele>
        <time>2020-08-09T09:17:13Z</time>
      </trkpt>
      <trkpt lat="48.69727" lon="7.02551">
        <ele>258</ele>
        <time>2020-08-09T09:17:16Z</time>
      </trkpt>
      <trkpt lat="48.69732" lon="7.02549">
        <ele>257</ele>
        <time>2020-08-09T09:17:18Z</time>
      </trkpt>
      <trkpt lat="48.69738" lon="7.02546">
        <ele>257</ele>
        <time>2020-08-09T09:17:20Z</time>
      </trkpt>
      <trkpt lat="48.69745" lon="7.02542">
        <ele>257</ele>
        <time>2020-08-09T09:17:22Z</time>
      </trkpt>
      <trkpt lat="48.69752" lon="7.02538">
        <ele>257</ele>
        <time>2020-08-09T09:17:24Z</time>
      </trkpt>
      <trkpt lat="48.69759" lon="7.02535">
        <ele>257</ele>
        <time>2020-08-09T09:17:26Z</time>
      </trkpt>
      <trkpt lat="48.69767" lon="7.02533">
        <ele>257</ele>
        <time>2020-08-09T09:17:28Z</time>
      </trkpt>
      <trkpt lat="48.69775" lon="7.02531">
        <ele>257</ele>
        <time>2020-08-09T09:17:30Z</time>
      </trkpt>
      <trkpt lat="48.69783" lon="7.02528">
        <ele>257</ele>
        <time>2020-08-09T09:17:32Z</time>
      </trkpt>
      <trkpt lat="48.69791" lon="7.02527">
        <ele>257</ele>
        <time>2020-08-09T09:17:34Z</time>
      </trkpt>
      <trkpt lat="48.69799" lon="7.02525">
        <ele>257</ele>
        <time>2020-08-09T09:17:36Z</time>
      </trkpt>
      <trkpt lat="48.69807" lon="7.02521">
        <ele>257</ele>
        <time>2020-08-09T09:17:38Z</time>
      </trkpt>
      <trkpt lat="48.69815" lon="7.02517">
        <ele>257</ele>
        <time>2020-08-09T09:17:40Z</time>
      </trkpt>
      <trkpt lat="48.69823" lon="7.02515">
        <ele>257</ele>
        <time>2020-08-09T09:17:42Z</time>
      </trkpt>
      <trkpt lat="48.69832" lon="7.02513">
        <ele>257</ele>
        <time>2020-08-09T09:17:44Z</time>
      </trkpt>
      <trkpt lat="48.69841" lon="7.02511">
        <ele>257</ele>
        <time>2020-08-09T09:17:46Z</time>
      </trkpt>
      <trkpt lat="48.69845" lon="7.0251">
        <ele>257</ele>
        <time>2020-08-09T09:17:47Z</time>
      </trkpt>
      <trkpt lat="48.6985" lon="7.02509">
        <ele>257</ele>
        <time>2020-08-09T09:17:48Z</time>
      </trkpt>
      <trkpt lat="48.69854" lon="7.02507">
        <ele>257</ele>
        <time>2020-08-09T09:17:49Z</time>
      </trkpt>
      <trkpt lat="48.69859" lon="7.02506">
        <ele>257</ele>
        <time>2020-08-09T09:17:50Z</time>
      </trkpt>
      <trkpt lat="48.69864" lon="7.02506">
        <ele>257</ele>
        <time>2020-08-09T09:17:51Z</time>
      </trkpt>
      <trkpt lat="48.69869" lon="7.02505">
        <ele>257</ele>
        <time>2020-08-09T09:17:52Z</time>
      </trkpt>
      <trkpt lat="48.69874" lon="7.02503">
        <ele>256</ele>
        <time>2020-08-09T09:17:53Z</time>
      </trkpt>
      <trkpt lat="48.69879" lon="7.02502">
        <ele>256</ele>
        <time>2020-08-09T09:17:54Z</time>
      </trkpt>
      <trkpt lat="48.69883" lon="7.02501">
        <ele>257</ele>
        <time>2020-08-09T09:17:55Z</time>
      </trkpt>
      <trkpt lat="48.69889" lon="7.025">
        <ele>257</ele>
        <time>2020-08-09T09:17:56Z</time>
      </trkpt>
      <trkpt lat="48.69893" lon="7.02499">
        <ele>257</ele>
        <time>2020-08-09T09:17:57Z</time>
      </trkpt>
      <trkpt lat="48.69898" lon="7.02498">
        <ele>257</ele>
        <time>2020-08-09T09:17:58Z</time>
      </trkpt>
      <trkpt lat="48.69903" lon="7.02497">
        <ele>256</ele>
        <time>2020-08-09T09:17:59Z</time>
      </trkpt>
      <trkpt lat="48.69908" lon="7.02495">
        <ele>257</ele>
        <time>2020-08-09T09:18:00Z</time>
      </trkpt>
      <trkpt lat="48.69913" lon="7.02494">
        <ele>257</ele>
        <time>2020-08-09T09:18:01Z</time>
      </trkpt>
      <trkpt lat="48.69918" lon="7.02493">
        <ele>257</ele>
        <time>2020-08-09T09:18:02Z</time>
      </trkpt>
      <trkpt lat="48.69923" lon="7.02491">
        <ele>257</ele>
        <time>2020-08-09T09:18:03Z</time>
      </trkpt>
      <trkpt lat="48.69928" lon="7.0249">
        <ele>257</ele>
        <time>2020-08-09T09:18:04Z</time>
      </trkpt>
      <trkpt lat="48.69933" lon="7.02488">
        <ele>257</ele>
        <time>2020-08-09T09:18:05Z</time>
      </trkpt>
      <trkpt lat="48.69938" lon="7.02487">
        <ele>256</ele>
        <time>2020-08-09T09:18:06Z</time>
      </trkpt>
      <trkpt lat="48.69943" lon="7.02486">
        <ele>256</ele>
        <time>2020-08-09T09:18:07Z</time>
      </trkpt>
      <trkpt lat="48.69947" lon="7.02485">
        <ele>256</ele>
        <time>2020-08-09T09:18:08Z</time>
      </trkpt>
      <trkpt lat="48.69952" lon="7.02483">
        <ele>257</ele>
        <time>2020-08-09T09:18:09Z</time>
      </trkpt>
      <trkpt lat="48.69957" lon="7.02482">
        <ele>257</ele>
        <time>2020-08-09T09:18:10Z</time>
      </trkpt>
      <trkpt lat="48.69962" lon="7.0248">
        <ele>257</ele>
        <time>2020-08-09T09:18:11Z</time>
      </trkpt>
      <trkpt lat="48.69967" lon="7.02479">
        <ele>257</ele>
        <time>2020-08-09T09:18:12Z</time>
      </trkpt>
      <trkpt lat="48.69976" lon="7.02476">
        <ele>256</ele>
        <time>2020-08-09T09:18:14Z</time>
      </trkpt>
      <trkpt lat="48.6998" lon="7.02475">
        <ele>256</ele>
        <time>2020-08-09T09:18:15Z</time>
      </trkpt>
      <trkpt lat="48.69986" lon="7.02473">
        <ele>256</ele>
        <time>2020-08-09T09:18:16Z</time>
      </trkpt>
      <trkpt lat="48.6999" lon="7.02471">
        <ele>256</ele>
        <time>2020-08-09T09:18:17Z</time>
      </trkpt>
      <trkpt lat="48.69995" lon="7.0247">
        <ele>257</ele>
        <time>2020-08-09T09:18:18Z</time>
      </trkpt>
      <trkpt lat="48.7" lon="7.0247">
        <ele>257</ele>
        <time>2020-08-09T09:18:19Z</time>
      </trkpt>
      <trkpt lat="48.7001" lon="7.02468">
        <ele>257</ele>
        <time>2020-08-09T09:18:21Z</time>
      </trkpt>
      <trkpt lat="48.70015" lon="7.02466">
        <ele>256</ele>
        <time>2020-08-09T09:18:22Z</time>
      </trkpt>
      <trkpt lat="48.7002" lon="7.02465">
        <ele>256</ele>
        <time>2020-08-09T09:18:23Z</time>
      </trkpt>
      <trkpt lat="48.70029" lon="7.02462">
        <ele>256</ele>
        <time>2020-08-09T09:18:25Z</time>
      </trkpt>
      <trkpt lat="48.70038" lon="7.0246">
        <ele>256</ele>
        <time>2020-08-09T09:18:27Z</time>
      </trkpt>
      <trkpt lat="48.70043" lon="7.02459">
        <ele>256</ele>
        <time>2020-08-09T09:18:28Z</time>
      </trkpt>
      <trkpt lat="48.70047" lon="7.02458">
        <ele>256</ele>
        <time>2020-08-09T09:18:29Z</time>
      </trkpt>
      <trkpt lat="48.70052" lon="7.02457">
        <ele>256</ele>
        <time>2020-08-09T09:18:30Z</time>
      </trkpt>
      <trkpt lat="48.70057" lon="7.02456">
        <ele>256</ele>
        <time>2020-08-09T09:18:31Z</time>
      </trkpt>
      <trkpt lat="48.70062" lon="7.02454">
        <ele>256</ele>
        <time>2020-08-09T09:18:32Z</time>
      </trkpt>
      <trkpt lat="48.70067" lon="7.02453">
        <ele>256</ele>
        <time>2020-08-09T09:18:33Z</time>
      </trkpt>
      <trkpt lat="48.70072" lon="7.02452">
        <ele>256</ele>
        <time>2020-08-09T09:18:34Z</time>
      </trkpt>
      <trkpt lat="48.70077" lon="7.02451">
        <ele>256</ele>
        <time>2020-08-09T09:18:35Z</time>
      </trkpt>
      <trkpt lat="48.70082" lon="7.0245">
        <ele>256</ele>
        <time>2020-08-09T09:18:36Z</time>
      </trkpt>
      <trkpt lat="48.70086" lon="7.02449">
        <ele>256</ele>
        <time>2020-08-09T09:18:37Z</time>
      </trkpt>
      <trkpt lat="48.70091" lon="7.02447">
        <ele>256</ele>
        <time>2020-08-09T09:18:38Z</time>
      </trkpt>
      <trkpt lat="48.70096" lon="7.02445">
        <ele>256</ele>
        <time>2020-08-09T09:18:39Z</time>
      </trkpt>
      <trkpt lat="48.70101" lon="7.02444">
        <ele>257</ele>
        <time>2020-08-09T09:18:40Z</time>
      </trkpt>
      <trkpt lat="48.70105" lon="7.02442">
        <ele>257</ele>
        <time>2020-08-09T09:18:41Z</time>
      </trkpt>
      <trkpt lat="48.7011" lon="7.02441">
        <ele>257</ele>
        <time>2020-08-09T09:18:42Z</time>
      </trkpt>
      <trkpt lat="48.70115" lon="7.0244">
        <ele>257</ele>
        <time>2020-08-09T09:18:43Z</time>
      </trkpt>
      <trkpt lat="48.7012" lon="7.02439">
        <ele>257</ele>
        <time>2020-08-09T09:18:44Z</time>
      </trkpt>
      <trkpt lat="48.70125" lon="7.02437">
        <ele>257</ele>
        <time>2020-08-09T09:18:45Z</time>
      </trkpt>
      <trkpt lat="48.7013" lon="7.02436">
        <ele>257</ele>
        <time>2020-08-09T09:18:46Z</time>
      </trkpt>
      <trkpt lat="48.70135" lon="7.02435">
        <ele>257</ele>
        <time>2020-08-09T09:18:47Z</time>
      </trkpt>
      <trkpt lat="48.70139" lon="7.02434">
        <ele>257</ele>
        <time>2020-08-09T09:18:48Z</time>
      </trkpt>
      <trkpt lat="48.70144" lon="7.02433">
        <ele>257</ele>
        <time>2020-08-09T09:18:49Z</time>
      </trkpt>
      <trkpt lat="48.70149" lon="7.02431">
        <ele>257</ele>
        <time>2020-08-09T09:18:50Z</time>
      </trkpt>
      <trkpt lat="48.70153" lon="7.0243">
        <ele>257</ele>
        <time>2020-08-09T09:18:51Z</time>
      </trkpt>
      <trkpt lat="48.70158" lon="7.02428">
        <ele>257</ele>
        <time>2020-08-09T09:18:52Z</time>
      </trkpt>
      <trkpt lat="48.70163" lon="7.02426">
        <ele>257</ele>
        <time>2020-08-09T09:18:53Z</time>
      </trkpt>
      <trkpt lat="48.70168" lon="7.02424">
        <ele>257</ele>
        <time>2020-08-09T09:18:54Z</time>
      </trkpt>
      <trkpt lat="48.70173" lon="7.02421">
        <ele>257</ele>
        <time>2020-08-09T09:18:55Z</time>
      </trkpt>
      <trkpt lat="48.70178" lon="7.0242">
        <ele>257</ele>
        <time>2020-08-09T09:18:56Z</time>
      </trkpt>
      <trkpt lat="48.70182" lon="7.02418">
        <ele>258</ele>
        <time>2020-08-09T09:18:57Z</time>
      </trkpt>
      <trkpt lat="48.70188" lon="7.02417">
        <ele>258</ele>
        <time>2020-08-09T09:18:58Z</time>
      </trkpt>
      <trkpt lat="48.70192" lon="7.02415">
        <ele>258</ele>
        <time>2020-08-09T09:18:59Z</time>
      </trkpt>
      <trkpt lat="48.70197" lon="7.02414">
        <ele>259</ele>
        <time>2020-08-09T09:19:00Z</time>
      </trkpt>
      <trkpt lat="48.70202" lon="7.02412">
        <ele>259</ele>
        <time>2020-08-09T09:19:01Z</time>
      </trkpt>
      <trkpt lat="48.70207" lon="7.02411">
        <ele>259</ele>
        <time>2020-08-09T09:19:02Z</time>
      </trkpt>
      <trkpt lat="48.70211" lon="7.02409">
        <ele>260</ele>
        <time>2020-08-09T09:19:03Z</time>
      </trkpt>
      <trkpt lat="48.70216" lon="7.02407">
        <ele>260</ele>
        <time>2020-08-09T09:19:04Z</time>
      </trkpt>
      <trkpt lat="48.70221" lon="7.02405">
        <ele>260</ele>
        <time>2020-08-09T09:19:05Z</time>
      </trkpt>
      <trkpt lat="48.70226" lon="7.02403">
        <ele>260</ele>
        <time>2020-08-09T09:19:06Z</time>
      </trkpt>
      <trkpt lat="48.70231" lon="7.02399">
        <ele>259</ele>
        <time>2020-08-09T09:19:07Z</time>
      </trkpt>
      <trkpt lat="48.70235" lon="7.02396">
        <ele>259</ele>
        <time>2020-08-09T09:19:08Z</time>
      </trkpt>
      <trkpt lat="48.7024" lon="7.02393">
        <ele>258</ele>
        <time>2020-08-09T09:19:09Z</time>
      </trkpt>
      <trkpt lat="48.70245" lon="7.02392">
        <ele>258</ele>
        <time>2020-08-09T09:19:10Z</time>
      </trkpt>
      <trkpt lat="48.70249" lon="7.02389">
        <ele>259</ele>
        <time>2020-08-09T09:19:11Z</time>
      </trkpt>
      <trkpt lat="48.70254" lon="7.02387">
        <ele>259</ele>
        <time>2020-08-09T09:19:12Z</time>
      </trkpt>
      <trkpt lat="48.70262" lon="7.02383">
        <ele>259</ele>
        <time>2020-08-09T09:19:14Z</time>
      </trkpt>
      <trkpt lat="48.7027" lon="7.02379">
        <ele>259</ele>
        <time>2020-08-09T09:19:16Z</time>
      </trkpt>
      <trkpt lat="48.70274" lon="7.02376">
        <ele>259</ele>
        <time>2020-08-09T09:19:17Z</time>
      </trkpt>
      <trkpt lat="48.70279" lon="7.02374">
        <ele>260</ele>
        <time>2020-08-09T09:19:18Z</time>
      </trkpt>
      <trkpt lat="48.70284" lon="7.0237">
        <ele>260</ele>
        <time>2020-08-09T09:19:20Z</time>
      </trkpt>
      <trkpt lat="48.70289" lon="7.02367">
        <ele>260</ele>
        <time>2020-08-09T09:19:21Z</time>
      </trkpt>
      <trkpt lat="48.70293" lon="7.02363">
        <ele>260</ele>
        <time>2020-08-09T09:19:22Z</time>
      </trkpt>
      <trkpt lat="48.70298" lon="7.0236">
        <ele>260</ele>
        <time>2020-08-09T09:19:23Z</time>
      </trkpt>
      <trkpt lat="48.70303" lon="7.02359">
        <ele>259</ele>
        <time>2020-08-09T09:19:24Z</time>
      </trkpt>
      <trkpt lat="48.70312" lon="7.0236">
        <ele>257</ele>
        <time>2020-08-09T09:19:26Z</time>
      </trkpt>
      <trkpt lat="48.70318" lon="7.02358">
        <ele>256</ele>
        <time>2020-08-09T09:19:27Z</time>
      </trkpt>
      <trkpt lat="48.70323" lon="7.02356">
        <ele>256</ele>
        <time>2020-08-09T09:19:28Z</time>
      </trkpt>
      <trkpt lat="48.70331" lon="7.02351">
        <ele>255</ele>
        <time>2020-08-09T09:19:30Z</time>
      </trkpt>
      <trkpt lat="48.70343" lon="7.02347">
        <ele>255</ele>
        <time>2020-08-09T09:19:33Z</time>
      </trkpt>
      <trkpt lat="48.70352" lon="7.02344">
        <ele>256</ele>
        <time>2020-08-09T09:19:35Z</time>
      </trkpt>
      <trkpt lat="48.70357" lon="7.02341">
        <ele>256</ele>
        <time>2020-08-09T09:19:36Z</time>
      </trkpt>
      <trkpt lat="48.70369" lon="7.02336">
        <ele>256</ele>
        <time>2020-08-09T09:19:39Z</time>
      </trkpt>
      <trkpt lat="48.70377" lon="7.02333">
        <ele>256</ele>
        <time>2020-08-09T09:19:41Z</time>
      </trkpt>
      <trkpt lat="48.70385" lon="7.0233">
        <ele>256</ele>
        <time>2020-08-09T09:19:43Z</time>
      </trkpt>
      <trkpt lat="48.70392" lon="7.02324">
        <ele>256</ele>
        <time>2020-08-09T09:19:45Z</time>
      </trkpt>
      <trkpt lat="48.70398" lon="7.02323">
        <ele>256</ele>
        <time>2020-08-09T09:19:47Z</time>
      </trkpt>
      <trkpt lat="48.70403" lon="7.02322">
        <ele>256</ele>
        <time>2020-08-09T09:19:49Z</time>
      </trkpt>
      <trkpt lat="48.70412" lon="7.02317">
        <ele>256</ele>
        <time>2020-08-09T09:19:53Z</time>
      </trkpt>
      <trkpt lat="48.70418" lon="7.02314">
        <ele>256</ele>
        <time>2020-08-09T09:19:55Z</time>
      </trkpt>
      <trkpt lat="48.70423" lon="7.02314">
        <ele>256</ele>
        <time>2020-08-09T09:19:57Z</time>
      </trkpt>
      <trkpt lat="48.7043" lon="7.02315">
        <ele>256</ele>
        <time>2020-08-09T09:19:59Z</time>
      </trkpt>
      <trkpt lat="48.70437" lon="7.02311">
        <ele>255</ele>
        <time>2020-08-09T09:20:01Z</time>
      </trkpt>
      <trkpt lat="48.70445" lon="7.02307">
        <ele>255</ele>
        <time>2020-08-09T09:20:03Z</time>
      </trkpt>
      <trkpt lat="48.70452" lon="7.02303">
        <ele>255</ele>
        <time>2020-08-09T09:20:05Z</time>
      </trkpt>
      <trkpt lat="48.70459" lon="7.02298">
        <ele>256</ele>
        <time>2020-08-09T09:20:07Z</time>
      </trkpt>
      <trkpt lat="48.70465" lon="7.02293">
        <ele>256</ele>
        <time>2020-08-09T09:20:09Z</time>
      </trkpt>
      <trkpt lat="48.70471" lon="7.0229">
        <ele>256</ele>
        <time>2020-08-09T09:20:11Z</time>
      </trkpt>
      <trkpt lat="48.70477" lon="7.02288">
        <ele>256</ele>
        <time>2020-08-09T09:20:13Z</time>
      </trkpt>
      <trkpt lat="48.70483" lon="7.02285">
        <ele>257</ele>
        <time>2020-08-09T09:20:15Z</time>
      </trkpt>
      <trkpt lat="48.70489" lon="7.02283">
        <ele>257</ele>
        <time>2020-08-09T09:20:17Z</time>
      </trkpt>
      <trkpt lat="48.70495" lon="7.02279">
        <ele>257</ele>
        <time>2020-08-09T09:20:19Z</time>
      </trkpt>
      <trkpt lat="48.70501" lon="7.02277">
        <ele>257</ele>
        <time>2020-08-09T09:20:21Z</time>
      </trkpt>
      <trkpt lat="48.70508" lon="7.02273">
        <ele>257</ele>
        <time>2020-08-09T09:20:23Z</time>
      </trkpt>
      <trkpt lat="48.70515" lon="7.0227">
        <ele>257</ele>
        <time>2020-08-09T09:20:25Z</time>
      </trkpt>
      <trkpt lat="48.70522" lon="7.02266">
        <ele>257</ele>
        <time>2020-08-09T09:20:27Z</time>
      </trkpt>
      <trkpt lat="48.7053" lon="7.02263">
        <ele>256</ele>
        <time>2020-08-09T09:20:29Z</time>
      </trkpt>
      <trkpt lat="48.70537" lon="7.0226">
        <ele>257</ele>
        <time>2020-08-09T09:20:31Z</time>
      </trkpt>
      <trkpt lat="48.70545" lon="7.02257">
        <ele>257</ele>
        <time>2020-08-09T09:20:33Z</time>
      </trkpt>
      <trkpt lat="48.70552" lon="7.02253">
        <ele>257</ele>
        <time>2020-08-09T09:20:35Z</time>
      </trkpt>
      <trkpt lat="48.70561" lon="7.0225">
        <ele>257</ele>
        <time>2020-08-09T09:20:37Z</time>
      </trkpt>
      <trkpt lat="48.70569" lon="7.02246">
        <ele>257</ele>
        <time>2020-08-09T09:20:39Z</time>
      </trkpt>
      <trkpt lat="48.70577" lon="7.02242">
        <ele>257</ele>
        <time>2020-08-09T09:20:41Z</time>
      </trkpt>
      <trkpt lat="48.70585" lon="7.02239">
        <ele>257</ele>
        <time>2020-08-09T09:20:43Z</time>
      </trkpt>
      <trkpt lat="48.70593" lon="7.02235">
        <ele>258</ele>
        <time>2020-08-09T09:20:45Z</time>
      </trkpt>
      <trkpt lat="48.70601" lon="7.02231">
        <ele>258</ele>
        <time>2020-08-09T09:20:47Z</time>
      </trkpt>
      <trkpt lat="48.70609" lon="7.02227">
        <ele>257</ele>
        <time>2020-08-09T09:20:49Z</time>
      </trkpt>
      <trkpt lat="48.70617" lon="7.02223">
        <ele>257</ele>
        <time>2020-08-09T09:20:51Z</time>
      </trkpt>
      <trkpt lat="48.70622" lon="7.02221">
        <ele>257</ele>
        <time>2020-08-09T09:20:52Z</time>
      </trkpt>
      <trkpt lat="48.70626" lon="7.02219">
        <ele>257</ele>
        <time>2020-08-09T09:20:53Z</time>
      </trkpt>
      <trkpt lat="48.70631" lon="7.02216">
        <ele>257</ele>
        <time>2020-08-09T09:20:54Z</time>
      </trkpt>
      <trkpt lat="48.70639" lon="7.02211">
        <ele>258</ele>
        <time>2020-08-09T09:20:56Z</time>
      </trkpt>
      <trkpt lat="48.70643" lon="7.02209">
        <ele>258</ele>
        <time>2020-08-09T09:20:57Z</time>
      </trkpt>
      <trkpt lat="48.70651" lon="7.02203">
        <ele>257</ele>
        <time>2020-08-09T09:20:59Z</time>
      </trkpt>
      <trkpt lat="48.70659" lon="7.02197">
        <ele>256</ele>
        <time>2020-08-09T09:21:01Z</time>
      </trkpt>
      <trkpt lat="48.70668" lon="7.02192">
        <ele>256</ele>
        <time>2020-08-09T09:21:03Z</time>
      </trkpt>
      <trkpt lat="48.7068" lon="7.02183">
        <ele>255</ele>
        <time>2020-08-09T09:21:06Z</time>
      </trkpt>
      <trkpt lat="48.70688" lon="7.02177">
        <ele>256</ele>
        <time>2020-08-09T09:21:08Z</time>
      </trkpt>
      <trkpt lat="48.70696" lon="7.0217">
        <ele>257</ele>
        <time>2020-08-09T09:21:10Z</time>
      </trkpt>
      <trkpt lat="48.70703" lon="7.02164">
        <ele>259</ele>
        <time>2020-08-09T09:21:12Z</time>
      </trkpt>
      <trkpt lat="48.70711" lon="7.02157">
        <ele>260</ele>
        <time>2020-08-09T09:21:14Z</time>
      </trkpt>
      <trkpt lat="48.70718" lon="7.0215">
        <ele>260</ele>
        <time>2020-08-09T09:21:16Z</time>
      </trkpt>
      <trkpt lat="48.70726" lon="7.02142">
        <ele>260</ele>
        <time>2020-08-09T09:21:18Z</time>
      </trkpt>
      <trkpt lat="48.70734" lon="7.02135">
        <ele>259</ele>
        <time>2020-08-09T09:21:20Z</time>
      </trkpt>
      <trkpt lat="48.70738" lon="7.02131">
        <ele>259</ele>
        <time>2020-08-09T09:21:21Z</time>
      </trkpt>
      <trkpt lat="48.70741" lon="7.02127">
        <ele>259</ele>
        <time>2020-08-09T09:21:22Z</time>
      </trkpt>
      <trkpt lat="48.70748" lon="7.02121">
        <ele>258</ele>
        <time>2020-08-09T09:21:24Z</time>
      </trkpt>
      <trkpt lat="48.70754" lon="7.02115">
        <ele>258</ele>
        <time>2020-08-09T09:21:26Z</time>
      </trkpt>
      <trkpt lat="48.7076" lon="7.02108">
        <ele>257</ele>
        <time>2020-08-09T09:21:28Z</time>
      </trkpt>
      <trkpt lat="48.70766" lon="7.02102">
        <ele>257</ele>
        <time>2020-08-09T09:21:30Z</time>
      </trkpt>
      <trkpt lat="48.70773" lon="7.02097">
        <ele>256</ele>
        <time>2020-08-09T09:21:32Z</time>
      </trkpt>
      <trkpt lat="48.70776" lon="7.02093">
        <ele>256</ele>
        <time>2020-08-09T09:21:34Z</time>
      </trkpt>
      <trkpt lat="48.70782" lon="7.02081">
        <ele>255</ele>
        <time>2020-08-09T09:21:49Z</time>
      </trkpt>
      <trkpt lat="48.70784" lon="7.02075">
        <ele>254</ele>
        <time>2020-08-09T09:21:52Z</time>
      </trkpt>
      <trkpt lat="48.70789" lon="7.02067">
        <ele>254</ele>
        <time>2020-08-09T09:21:55Z</time>
      </trkpt>
      <trkpt lat="48.70792" lon="7.0206">
        <ele>254</ele>
        <time>2020-08-09T09:21:58Z</time>
      </trkpt>
      <trkpt lat="48.70797" lon="7.02056">
        <ele>254</ele>
        <time>2020-08-09T09:22:00Z</time>
      </trkpt>
      <trkpt lat="48.70801" lon="7.02051">
        <ele>254</ele>
        <time>2020-08-09T09:22:02Z</time>
      </trkpt>
      <trkpt lat="48.70806" lon="7.02046">
        <ele>254</ele>
        <time>2020-08-09T09:22:04Z</time>
      </trkpt>
      <trkpt lat="48.7081" lon="7.02042">
        <ele>254</ele>
        <time>2020-08-09T09:22:06Z</time>
      </trkpt>
      <trkpt lat="48.70815" lon="7.02037">
        <ele>254</ele>
        <time>2020-08-09T09:22:08Z</time>
      </trkpt>
      <trkpt lat="48.7082" lon="7.02033">
        <ele>254</ele>
        <time>2020-08-09T09:22:10Z</time>
      </trkpt>
      <trkpt lat="48.70825" lon="7.02028">
        <ele>254</ele>
        <time>2020-08-09T09:22:12Z</time>
      </trkpt>
      <trkpt lat="48.7083" lon="7.02025">
        <ele>254</ele>
        <time>2020-08-09T09:22:14Z</time>
      </trkpt>
      <trkpt lat="48.70836" lon="7.02023">
        <ele>254</ele>
        <time>2020-08-09T09:22:16Z</time>
      </trkpt>
      <trkpt lat="48.70838" lon="7.02016">
        <ele>255</ele>
        <time>2020-08-09T09:22:18Z</time>
      </trkpt>
      <trkpt lat="48.70832" lon="7.02007">
        <ele>255</ele>
        <time>2020-08-09T09:22:34Z</time>
      </trkpt>
      <trkpt lat="48.70831" lon="7.01999">
        <ele>255</ele>
        <time>2020-08-09T09:22:50Z</time>
      </trkpt>
      <trkpt lat="48.70828" lon="7.01993">
        <ele>255</ele>
        <time>2020-08-09T09:22:53Z</time>
      </trkpt>
      <trkpt lat="48.70825" lon="7.01987">
        <ele>255</ele>
        <time>2020-08-09T09:22:55Z</time>
      </trkpt>
      <trkpt lat="48.70822" lon="7.0198">
        <ele>255</ele>
        <time>2020-08-09T09:22:57Z</time>
      </trkpt>
      <trkpt lat="48.70819" lon="7.01972">
        <ele>255</ele>
        <time>2020-08-09T09:22:59Z</time>
      </trkpt>
      <trkpt lat="48.70817" lon="7.01963">
        <ele>256</ele>
        <time>2020-08-09T09:23:01Z</time>
      </trkpt>
      <trkpt lat="48.70815" lon="7.01954">
        <ele>256</ele>
        <time>2020-08-09T09:23:03Z</time>
      </trkpt>
      <trkpt lat="48.70812" lon="7.01946">
        <ele>257</ele>
        <time>2020-08-09T09:23:05Z</time>
      </trkpt>
      <trkpt lat="48.70809" lon="7.01939">
        <ele>257</ele>
        <time>2020-08-09T09:23:07Z</time>
      </trkpt>
      <trkpt lat="48.70805" lon="7.01932">
        <ele>257</ele>
        <time>2020-08-09T09:23:09Z</time>
      </trkpt>
      <trkpt lat="48.70801" lon="7.01926">
        <ele>257</ele>
        <time>2020-08-09T09:23:11Z</time>
      </trkpt>
      <trkpt lat="48.70797" lon="7.0192">
        <ele>257</ele>
        <time>2020-08-09T09:23:13Z</time>
      </trkpt>
      <trkpt lat="48.70793" lon="7.01913">
        <ele>257</ele>
        <time>2020-08-09T09:23:15Z</time>
      </trkpt>
      <trkpt lat="48.7079" lon="7.01908">
        <ele>257</ele>
        <time>2020-08-09T09:23:17Z</time>
      </trkpt>
      <trkpt lat="48.70786" lon="7.01904">
        <ele>257</ele>
        <time>2020-08-09T09:23:19Z</time>
      </trkpt>
      <trkpt lat="48.70781" lon="7.01901">
        <ele>258</ele>
        <time>2020-08-09T09:23:21Z</time>
      </trkpt>
      <trkpt lat="48.70777" lon="7.01897">
        <ele>258</ele>
        <time>2020-08-09T09:23:23Z</time>
      </trkpt>
      <trkpt lat="48.70773" lon="7.01893">
        <ele>259</ele>
        <time>2020-08-09T09:23:25Z</time>
      </trkpt>
      <trkpt lat="48.70766" lon="7.01888">
        <ele>259</ele>
        <time>2020-08-09T09:23:28Z</time>
      </trkpt>
      <trkpt lat="48.70759" lon="7.01879">
        <ele>260</ele>
        <time>2020-08-09T09:23:32Z</time>
      </trkpt>
      <trkpt lat="48.70757" lon="7.01872">
        <ele>260</ele>
        <time>2020-08-09T09:23:34Z</time>
      </trkpt>
      <trkpt lat="48.70756" lon="7.01864">
        <ele>260</ele>
        <time>2020-08-09T09:23:36Z</time>
      </trkpt>
      <trkpt lat="48.70757" lon="7.01857">
        <ele>260</ele>
        <time>2020-08-09T09:23:38Z</time>
      </trkpt>
      <trkpt lat="48.70761" lon="7.01849">
        <ele>261</ele>
        <time>2020-08-09T09:23:41Z</time>
      </trkpt>
      <trkpt lat="48.70765" lon="7.01842">
        <ele>262</ele>
        <time>2020-08-09T09:23:44Z</time>
      </trkpt>
      <trkpt lat="48.70771" lon="7.01838">
        <ele>262</ele>
        <time>2020-08-09T09:23:47Z</time>
      </trkpt>
      <trkpt lat="48.70778" lon="7.01834">
        <ele>262</ele>
        <time>2020-08-09T09:23:50Z</time>
      </trkpt>
      <trkpt lat="48.70784" lon="7.0183">
        <ele>261</ele>
        <time>2020-08-09T09:23:53Z</time>
      </trkpt>
      <trkpt lat="48.70792" lon="7.01824">
        <ele>260</ele>
        <time>2020-08-09T09:23:57Z</time>
      </trkpt>
      <trkpt lat="48.70797" lon="7.01821">
        <ele>259</ele>
        <time>2020-08-09T09:24:00Z</time>
      </trkpt>
      <trkpt lat="48.70804" lon="7.01818">
        <ele>259</ele>
        <time>2020-08-09T09:24:03Z</time>
      </trkpt>
      <trkpt lat="48.70808" lon="7.01812">
        <ele>259</ele>
        <time>2020-08-09T09:24:06Z</time>
      </trkpt>
      <trkpt lat="48.70812" lon="7.01808">
        <ele>258</ele>
        <time>2020-08-09T09:24:08Z</time>
      </trkpt>
      <trkpt lat="48.70819" lon="7.01795">
        <ele>258</ele>
        <time>2020-08-09T09:24:13Z</time>
      </trkpt>
      <trkpt lat="48.70822" lon="7.01787">
        <ele>258</ele>
        <time>2020-08-09T09:24:16Z</time>
      </trkpt>
      <trkpt lat="48.70825" lon="7.01779">
        <ele>258</ele>
        <time>2020-08-09T09:24:19Z</time>
      </trkpt>
      <trkpt lat="48.70827" lon="7.0177">
        <ele>258</ele>
        <time>2020-08-09T09:24:22Z</time>
      </trkpt>
      <trkpt lat="48.70829" lon="7.01761">
        <ele>258</ele>
        <time>2020-08-09T09:24:25Z</time>
      </trkpt>
      <trkpt lat="48.7083" lon="7.01754">
        <ele>258</ele>
        <time>2020-08-09T09:24:28Z</time>
      </trkpt>
      <trkpt lat="48.70831" lon="7.01746">
        <ele>259</ele>
        <time>2020-08-09T09:24:32Z</time>
      </trkpt>
      <trkpt lat="48.70833" lon="7.01736">
        <ele>258</ele>
        <time>2020-08-09T09:24:35Z</time>
      </trkpt>
      <trkpt lat="48.70835" lon="7.01728">
        <ele>258</ele>
        <time>2020-08-09T09:24:37Z</time>
      </trkpt>
      <trkpt lat="48.70837" lon="7.01717">
        <ele>258</ele>
        <time>2020-08-09T09:24:39Z</time>
      </trkpt>
      <trkpt lat="48.70842" lon="7.01705">
        <ele>259</ele>
        <time>2020-08-09T09:24:41Z</time>
      </trkpt>
      <trkpt lat="48.70843" lon="7.01698">
        <ele>259</ele>
        <time>2020-08-09T09:24:42Z</time>
      </trkpt>
      <trkpt lat="48.70845" lon="7.0169">
        <ele>259</ele>
        <time>2020-08-09T09:24:43Z</time>
      </trkpt>
      <trkpt lat="48.70847" lon="7.01683">
        <ele>259</ele>
        <time>2020-08-09T09:24:44Z</time>
      </trkpt>
      <trkpt lat="48.70849" lon="7.01676">
        <ele>258</ele>
        <time>2020-08-09T09:24:45Z</time>
      </trkpt>
      <trkpt lat="48.70851" lon="7.01669">
        <ele>258</ele>
        <time>2020-08-09T09:24:46Z</time>
      </trkpt>
      <trkpt lat="48.70852" lon="7.01661">
        <ele>258</ele>
        <time>2020-08-09T09:24:47Z</time>
      </trkpt>
      <trkpt lat="48.70854" lon="7.01654">
        <ele>258</ele>
        <time>2020-08-09T09:24:48Z</time>
      </trkpt>
      <trkpt lat="48.70856" lon="7.01647">
        <ele>257</ele>
        <time>2020-08-09T09:24:49Z</time>
      </trkpt>
      <trkpt lat="48.70857" lon="7.01639">
        <ele>257</ele>
        <time>2020-08-09T09:24:50Z</time>
      </trkpt>
      <trkpt lat="48.70858" lon="7.01631">
        <ele>257</ele>
        <time>2020-08-09T09:24:51Z</time>
      </trkpt>
      <trkpt lat="48.70859" lon="7.01623">
        <ele>257</ele>
        <time>2020-08-09T09:24:52Z</time>
      </trkpt>
      <trkpt lat="48.7086" lon="7.01615">
        <ele>257</ele>
        <time>2020-08-09T09:24:53Z</time>
      </trkpt>
      <trkpt lat="48.7086" lon="7.01607">
        <ele>257</ele>
        <time>2020-08-09T09:24:54Z</time>
      </trkpt>
      <trkpt lat="48.7086" lon="7.01598">
        <ele>257</ele>
        <time>2020-08-09T09:24:55Z</time>
      </trkpt>
      <trkpt lat="48.7086" lon="7.01589">
        <ele>257</ele>
        <time>2020-08-09T09:24:56Z</time>
      </trkpt>
      <trkpt lat="48.70859" lon="7.01579">
        <ele>257</ele>
        <time>2020-08-09T09:24:57Z</time>
      </trkpt>
      <trkpt lat="48.70858" lon="7.01571">
        <ele>258</ele>
        <time>2020-08-09T09:24:58Z</time>
      </trkpt>
      <trkpt lat="48.70856" lon="7.01562">
        <ele>258</ele>
        <time>2020-08-09T09:24:59Z</time>
      </trkpt>
      <trkpt lat="48.70853" lon="7.01553">
        <ele>258</ele>
        <time>2020-08-09T09:25:00Z</time>
      </trkpt>
      <trkpt lat="48.70851" lon="7.01544">
        <ele>258</ele>
        <time>2020-08-09T09:25:01Z</time>
      </trkpt>
      <trkpt lat="48.70849" lon="7.01536">
        <ele>258</ele>
        <time>2020-08-09T09:25:02Z</time>
      </trkpt>
      <trkpt lat="48.70846" lon="7.01528">
        <ele>259</ele>
        <time>2020-08-09T09:25:03Z</time>
      </trkpt>
      <trkpt lat="48.70844" lon="7.0152">
        <ele>259</ele>
        <time>2020-08-09T09:25:04Z</time>
      </trkpt>
      <trkpt lat="48.70841" lon="7.01511">
        <ele>259</ele>
        <time>2020-08-09T09:25:05Z</time>
      </trkpt>
      <trkpt lat="48.70839" lon="7.01504">
        <ele>259</ele>
        <time>2020-08-09T09:25:06Z</time>
      </trkpt>
      <trkpt lat="48.70837" lon="7.01496">
        <ele>260</ele>
        <time>2020-08-09T09:25:07Z</time>
      </trkpt>
      <trkpt lat="48.70834" lon="7.01488">
        <ele>260</ele>
        <time>2020-08-09T09:25:08Z</time>
      </trkpt>
      <trkpt lat="48.70832" lon="7.01481">
        <ele>260</ele>
        <time>2020-08-09T09:25:09Z</time>
      </trkpt>
      <trkpt lat="48.7083" lon="7.01473">
        <ele>260</ele>
        <time>2020-08-09T09:25:10Z</time>
      </trkpt>
      <trkpt lat="48.70828" lon="7.01465">
        <ele>260</ele>
        <time>2020-08-09T09:25:11Z</time>
      </trkpt>
      <trkpt lat="48.70826" lon="7.01457">
        <ele>260</ele>
        <time>2020-08-09T09:25:12Z</time>
      </trkpt>
      <trkpt lat="48.70823" lon="7.0145">
        <ele>260</ele>
        <time>2020-08-09T09:25:13Z</time>
      </trkpt>
      <trkpt lat="48.7082" lon="7.01441">
        <ele>259</ele>
        <time>2020-08-09T09:25:14Z</time>
      </trkpt>
      <trkpt lat="48.70817" lon="7.01434">
        <ele>259</ele>
        <time>2020-08-09T09:25:15Z</time>
      </trkpt>
      <trkpt lat="48.70815" lon="7.01426">
        <ele>259</ele>
        <time>2020-08-09T09:25:16Z</time>
      </trkpt>
      <trkpt lat="48.70813" lon="7.01419">
        <ele>259</ele>
        <time>2020-08-09T09:25:17Z</time>
      </trkpt>
      <trkpt lat="48.70811" lon="7.01411">
        <ele>259</ele>
        <time>2020-08-09T09:25:18Z</time>
      </trkpt>
      <trkpt lat="48.70808" lon="7.01404">
        <ele>259</ele>
        <time>2020-08-09T09:25:19Z</time>
      </trkpt>
      <trkpt lat="48.70806" lon="7.01397">
        <ele>259</ele>
        <time>2020-08-09T09:25:20Z</time>
      </trkpt>
      <trkpt lat="48.70804" lon="7.0139">
        <ele>259</ele>
        <time>2020-08-09T09:25:21Z</time>
      </trkpt>
      <trkpt lat="48.70802" lon="7.01383">
        <ele>259</ele>
        <time>2020-08-09T09:25:22Z</time>
      </trkpt>
      <trkpt lat="48.70799" lon="7.01376">
        <ele>260</ele>
        <time>2020-08-09T09:25:23Z</time>
      </trkpt>
      <trkpt lat="48.70797" lon="7.01369">
        <ele>260</ele>
        <time>2020-08-09T09:25:24Z</time>
      </trkpt>
      <trkpt lat="48.70795" lon="7.01362">
        <ele>260</ele>
        <time>2020-08-09T09:25:25Z</time>
      </trkpt>
      <trkpt lat="48.70793" lon="7.01354">
        <ele>260</ele>
        <time>2020-08-09T09:25:26Z</time>
      </trkpt>
      <trkpt lat="48.70791" lon="7.01347">
        <ele>260</ele>
        <time>2020-08-09T09:25:27Z</time>
      </trkpt>
      <trkpt lat="48.70789" lon="7.01339">
        <ele>260</ele>
        <time>2020-08-09T09:25:28Z</time>
      </trkpt>
      <trkpt lat="48.70787" lon="7.01331">
        <ele>260</ele>
        <time>2020-08-09T09:25:29Z</time>
      </trkpt>
      <trkpt lat="48.70784" lon="7.01324">
        <ele>260</ele>
        <time>2020-08-09T09:25:30Z</time>
      </trkpt>
      <trkpt lat="48.70783" lon="7.01316">
        <ele>261</ele>
        <time>2020-08-09T09:25:31Z</time>
      </trkpt>
      <trkpt lat="48.7078" lon="7.01309">
        <ele>261</ele>
        <time>2020-08-09T09:25:32Z</time>
      </trkpt>
      <trkpt lat="48.70778" lon="7.01302">
        <ele>262</ele>
        <time>2020-08-09T09:25:33Z</time>
      </trkpt>
      <trkpt lat="48.70776" lon="7.01295">
        <ele>262</ele>
        <time>2020-08-09T09:25:34Z</time>
      </trkpt>
      <trkpt lat="48.70774" lon="7.01288">
        <ele>262</ele>
        <time>2020-08-09T09:25:35Z</time>
      </trkpt>
      <trkpt lat="48.70772" lon="7.0128">
        <ele>261</ele>
        <time>2020-08-09T09:25:36Z</time>
      </trkpt>
      <trkpt lat="48.7077" lon="7.01274">
        <ele>260</ele>
        <time>2020-08-09T09:25:37Z</time>
      </trkpt>
      <trkpt lat="48.70768" lon="7.01267">
        <ele>260</ele>
        <time>2020-08-09T09:25:38Z</time>
      </trkpt>
      <trkpt lat="48.70767" lon="7.0126">
        <ele>259</ele>
        <time>2020-08-09T09:25:39Z</time>
      </trkpt>
      <trkpt lat="48.70766" lon="7.01253">
        <ele>259</ele>
        <time>2020-08-09T09:25:40Z</time>
      </trkpt>
      <trkpt lat="48.70765" lon="7.01246">
        <ele>259</ele>
        <time>2020-08-09T09:25:41Z</time>
      </trkpt>
      <trkpt lat="48.70764" lon="7.01239">
        <ele>259</ele>
        <time>2020-08-09T09:25:42Z</time>
      </trkpt>
      <trkpt lat="48.70763" lon="7.01233">
        <ele>259</ele>
        <time>2020-08-09T09:25:43Z</time>
      </trkpt>
      <trkpt lat="48.70763" lon="7.01225">
        <ele>259</ele>
        <time>2020-08-09T09:25:44Z</time>
      </trkpt>
      <trkpt lat="48.70762" lon="7.01218">
        <ele>259</ele>
        <time>2020-08-09T09:25:45Z</time>
      </trkpt>
      <trkpt lat="48.70761" lon="7.01211">
        <ele>259</ele>
        <time>2020-08-09T09:25:46Z</time>
      </trkpt>
      <trkpt lat="48.70761" lon="7.01203">
        <ele>259</ele>
        <time>2020-08-09T09:25:47Z</time>
      </trkpt>
      <trkpt lat="48.7076" lon="7.01196">
        <ele>259</ele>
        <time>2020-08-09T09:25:48Z</time>
      </trkpt>
      <trkpt lat="48.70759" lon="7.01189">
        <ele>259</ele>
        <time>2020-08-09T09:25:49Z</time>
      </trkpt>
      <trkpt lat="48.70758" lon="7.01181">
        <ele>259</ele>
        <time>2020-08-09T09:25:50Z</time>
      </trkpt>
      <trkpt lat="48.70757" lon="7.01174">
        <ele>259</ele>
        <time>2020-08-09T09:25:51Z</time>
      </trkpt>
      <trkpt lat="48.70756" lon="7.01167">
        <ele>259</ele>
        <time>2020-08-09T09:25:52Z</time>
      </trkpt>
      <trkpt lat="48.70755" lon="7.0116">
        <ele>259</ele>
        <time>2020-08-09T09:25:53Z</time>
      </trkpt>
      <trkpt lat="48.70755" lon="7.01153">
        <ele>259</ele>
        <time>2020-08-09T09:25:54Z</time>
      </trkpt>
      <trkpt lat="48.70754" lon="7.01146">
        <ele>259</ele>
        <time>2020-08-09T09:25:55Z</time>
      </trkpt>
      <trkpt lat="48.70754" lon="7.01138">
        <ele>259</ele>
        <time>2020-08-09T09:25:56Z</time>
      </trkpt>
      <trkpt lat="48.70753" lon="7.01131">
        <ele>259</ele>
        <time>2020-08-09T09:25:57Z</time>
      </trkpt>
      <trkpt lat="48.70753" lon="7.01124">
        <ele>259</ele>
        <time>2020-08-09T09:25:58Z</time>
      </trkpt>
      <trkpt lat="48.70753" lon="7.01117">
        <ele>259</ele>
        <time>2020-08-09T09:25:59Z</time>
      </trkpt>
      <trkpt lat="48.70753" lon="7.0111">
        <ele>259</ele>
        <time>2020-08-09T09:26:00Z</time>
      </trkpt>
      <trkpt lat="48.70752" lon="7.01097">
        <ele>259</ele>
        <time>2020-08-09T09:26:02Z</time>
      </trkpt>
      <trkpt lat="48.70752" lon="7.01084">
        <ele>259</ele>
        <time>2020-08-09T09:26:04Z</time>
      </trkpt>
      <trkpt lat="48.70753" lon="7.01071">
        <ele>260</ele>
        <time>2020-08-09T09:26:06Z</time>
      </trkpt>
      <trkpt lat="48.70753" lon="7.01058">
        <ele>260</ele>
        <time>2020-08-09T09:26:08Z</time>
      </trkpt>
      <trkpt lat="48.70754" lon="7.01046">
        <ele>260</ele>
        <time>2020-08-09T09:26:10Z</time>
      </trkpt>
      <trkpt lat="48.70755" lon="7.01033">
        <ele>261</ele>
        <time>2020-08-09T09:26:12Z</time>
      </trkpt>
      <trkpt lat="48.70756" lon="7.0102">
        <ele>261</ele>
        <time>2020-08-09T09:26:14Z</time>
      </trkpt>
      <trkpt lat="48.70758" lon="7.01008">
        <ele>261</ele>
        <time>2020-08-09T09:26:16Z</time>
      </trkpt>
      <trkpt lat="48.7076" lon="7.00996">
        <ele>261</ele>
        <time>2020-08-09T09:26:18Z</time>
      </trkpt>
      <trkpt lat="48.70761" lon="7.00983">
        <ele>261</ele>
        <time>2020-08-09T09:26:20Z</time>
      </trkpt>
      <trkpt lat="48.70762" lon="7.00971">
        <ele>262</ele>
        <time>2020-08-09T09:26:22Z</time>
      </trkpt>
      <trkpt lat="48.70763" lon="7.0096">
        <ele>262</ele>
        <time>2020-08-09T09:26:24Z</time>
      </trkpt>
      <trkpt lat="48.70764" lon="7.00948">
        <ele>262</ele>
        <time>2020-08-09T09:26:26Z</time>
      </trkpt>
      <trkpt lat="48.70764" lon="7.00936">
        <ele>262</ele>
        <time>2020-08-09T09:26:28Z</time>
      </trkpt>
      <trkpt lat="48.70765" lon="7.00924">
        <ele>262</ele>
        <time>2020-08-09T09:26:30Z</time>
      </trkpt>
      <trkpt lat="48.70767" lon="7.00913">
        <ele>262</ele>
        <time>2020-08-09T09:26:32Z</time>
      </trkpt>
      <trkpt lat="48.70767" lon="7.00901">
        <ele>262</ele>
        <time>2020-08-09T09:26:34Z</time>
      </trkpt>
      <trkpt lat="48.70768" lon="7.00889">
        <ele>262</ele>
        <time>2020-08-09T09:26:36Z</time>
      </trkpt>
      <trkpt lat="48.70769" lon="7.00876">
        <ele>262</ele>
        <time>2020-08-09T09:26:38Z</time>
      </trkpt>
      <trkpt lat="48.70769" lon="7.00864">
        <ele>262</ele>
        <time>2020-08-09T09:26:40Z</time>
      </trkpt>
      <trkpt lat="48.7077" lon="7.00851">
        <ele>262</ele>
        <time>2020-08-09T09:26:42Z</time>
      </trkpt>
      <trkpt lat="48.70771" lon="7.00839">
        <ele>262</ele>
        <time>2020-08-09T09:26:44Z</time>
      </trkpt>
      <trkpt lat="48.70771" lon="7.00826">
        <ele>262</ele>
        <time>2020-08-09T09:26:46Z</time>
      </trkpt>
      <trkpt lat="48.70773" lon="7.00813">
        <ele>262</ele>
        <time>2020-08-09T09:26:48Z</time>
      </trkpt>
      <trkpt lat="48.70774" lon="7.00801">
        <ele>262</ele>
        <time>2020-08-09T09:26:50Z</time>
      </trkpt>
      <trkpt lat="48.70776" lon="7.00788">
        <ele>262</ele>
        <time>2020-08-09T09:26:52Z</time>
      </trkpt>
      <trkpt lat="48.70777" lon="7.00776">
        <ele>262</ele>
        <time>2020-08-09T09:26:54Z</time>
      </trkpt>
      <trkpt lat="48.70778" lon="7.00764">
        <ele>262</ele>
        <time>2020-08-09T09:26:56Z</time>
      </trkpt>
      <trkpt lat="48.70779" lon="7.00751">
        <ele>262</ele>
        <time>2020-08-09T09:26:58Z</time>
      </trkpt>
      <trkpt lat="48.70781" lon="7.00738">
        <ele>263</ele>
        <time>2020-08-09T09:27:00Z</time>
      </trkpt>
      <trkpt lat="48.70783" lon="7.00726">
        <ele>263</ele>
        <time>2020-08-09T09:27:02Z</time>
      </trkpt>
      <trkpt lat="48.70784" lon="7.00713">
        <ele>263</ele>
        <time>2020-08-09T09:27:04Z</time>
      </trkpt>
      <trkpt lat="48.70786" lon="7.007">
        <ele>263</ele>
        <time>2020-08-09T09:27:06Z</time>
      </trkpt>
      <trkpt lat="48.70788" lon="7.00687">
        <ele>263</ele>
        <time>2020-08-09T09:27:08Z</time>
      </trkpt>
      <trkpt lat="48.70789" lon="7.00675">
        <ele>263</ele>
        <time>2020-08-09T09:27:10Z</time>
      </trkpt>
      <trkpt lat="48.70791" lon="7.00663">
        <ele>264</ele>
        <time>2020-08-09T09:27:12Z</time>
      </trkpt>
      <trkpt lat="48.70793" lon="7.00651">
        <ele>264</ele>
        <time>2020-08-09T09:27:14Z</time>
      </trkpt>
      <trkpt lat="48.70795" lon="7.0064">
        <ele>264</ele>
        <time>2020-08-09T09:27:16Z</time>
      </trkpt>
      <trkpt lat="48.70796" lon="7.00627">
        <ele>264</ele>
        <time>2020-08-09T09:27:18Z</time>
      </trkpt>
      <trkpt lat="48.70799" lon="7.00616">
        <ele>264</ele>
        <time>2020-08-09T09:27:20Z</time>
      </trkpt>
      <trkpt lat="48.70802" lon="7.00604">
        <ele>264</ele>
        <time>2020-08-09T09:27:22Z</time>
      </trkpt>
      <trkpt lat="48.70805" lon="7.00592">
        <ele>264</ele>
        <time>2020-08-09T09:27:24Z</time>
      </trkpt>
      <trkpt lat="48.70808" lon="7.0058">
        <ele>265</ele>
        <time>2020-08-09T09:27:26Z</time>
      </trkpt>
      <trkpt lat="48.70812" lon="7.00568">
        <ele>264</ele>
        <time>2020-08-09T09:27:28Z</time>
      </trkpt>
      <trkpt lat="48.70815" lon="7.00557">
        <ele>264</ele>
        <time>2020-08-09T09:27:30Z</time>
      </trkpt>
      <trkpt lat="48.70818" lon="7.00546">
        <ele>264</ele>
        <time>2020-08-09T09:27:32Z</time>
      </trkpt>
      <trkpt lat="48.70821" lon="7.00533">
        <ele>264</ele>
        <time>2020-08-09T09:27:34Z</time>
      </trkpt>
      <trkpt lat="48.70824" lon="7.00523">
        <ele>265</ele>
        <time>2020-08-09T09:27:36Z</time>
      </trkpt>
      <trkpt lat="48.70828" lon="7.00513">
        <ele>265</ele>
        <time>2020-08-09T09:27:38Z</time>
      </trkpt>
      <trkpt lat="48.70832" lon="7.00502">
        <ele>265</ele>
        <time>2020-08-09T09:27:40Z</time>
      </trkpt>
      <trkpt lat="48.70835" lon="7.00493">
        <ele>265</ele>
        <time>2020-08-09T09:27:42Z</time>
      </trkpt>
      <trkpt lat="48.70837" lon="7.00485">
        <ele>265</ele>
        <time>2020-08-09T09:27:44Z</time>
      </trkpt>
      <trkpt lat="48.70834" lon="7.0049">
        <ele>265</ele>
        <time>2020-08-09T09:27:48Z</time>
      </trkpt>
      <trkpt lat="48.70832" lon="7.00497">
        <ele>265</ele>
        <time>2020-08-09T09:27:50Z</time>
      </trkpt>
      <trkpt lat="48.70829" lon="7.00507">
        <ele>265</ele>
        <time>2020-08-09T09:27:52Z</time>
      </trkpt>
      <trkpt lat="48.70826" lon="7.00517">
        <ele>265</ele>
        <time>2020-08-09T09:27:54Z</time>
      </trkpt>
      <trkpt lat="48.70823" lon="7.00528">
        <ele>265</ele>
        <time>2020-08-09T09:27:56Z</time>
      </trkpt>
      <trkpt lat="48.7082" lon="7.00539">
        <ele>264</ele>
        <time>2020-08-09T09:27:58Z</time>
      </trkpt>
      <trkpt lat="48.70816" lon="7.0055">
        <ele>264</ele>
        <time>2020-08-09T09:28:00Z</time>
      </trkpt>
      <trkpt lat="48.70814" lon="7.0056">
        <ele>264</ele>
        <time>2020-08-09T09:28:02Z</time>
      </trkpt>
      <trkpt lat="48.70812" lon="7.0057">
        <ele>264</ele>
        <time>2020-08-09T09:28:04Z</time>
      </trkpt>
      <trkpt lat="48.70809" lon="7.0058">
        <ele>265</ele>
        <time>2020-08-09T09:28:06Z</time>
      </trkpt>
      <trkpt lat="48.70807" lon="7.00588">
        <ele>265</ele>
        <time>2020-08-09T09:28:09Z</time>
      </trkpt>
      <trkpt lat="48.70805" lon="7.00598">
        <ele>264</ele>
        <time>2020-08-09T09:28:12Z</time>
      </trkpt>
      <trkpt lat="48.70802" lon="7.00606">
        <ele>264</ele>
        <time>2020-08-09T09:28:14Z</time>
      </trkpt>
      <trkpt lat="48.708" lon="7.00612">
        <ele>264</ele>
        <time>2020-08-09T09:28:16Z</time>
      </trkpt>
      <trkpt lat="48.70799" lon="7.0062">
        <ele>264</ele>
        <time>2020-08-09T09:28:18Z</time>
      </trkpt>
      <trkpt lat="48.70797" lon="7.00628">
        <ele>264</ele>
        <time>2020-08-09T09:28:20Z</time>
      </trkpt>
      <trkpt lat="48.70796" lon="7.00635">
        <ele>264</ele>
        <time>2020-08-09T09:28:22Z</time>
      </trkpt>
      <trkpt lat="48.70795" lon="7.00642">
        <ele>264</ele>
        <time>2020-08-09T09:28:24Z</time>
      </trkpt>
      <trkpt lat="48.70797" lon="7.00632">
        <ele>264</ele>
        <time>2020-08-09T09:28:51Z</time>
      </trkpt>
      <trkpt lat="48.70797" lon="7.00624">
        <ele>264</ele>
        <time>2020-08-09T09:28:59Z</time>
      </trkpt>
      <trkpt lat="48.708" lon="7.00617">
        <ele>264</ele>
        <time>2020-08-09T09:29:03Z</time>
      </trkpt>
      <trkpt lat="48.70801" lon="7.00609">
        <ele>264</ele>
        <time>2020-08-09T09:29:16Z</time>
      </trkpt>
      <trkpt lat="48.70802" lon="7.00602">
        <ele>264</ele>
        <time>2020-08-09T09:29:19Z</time>
      </trkpt>
      <trkpt lat="48.70804" lon="7.00596">
        <ele>264</ele>
        <time>2020-08-09T09:29:21Z</time>
      </trkpt>
      <trkpt lat="48.70806" lon="7.00589">
        <ele>265</ele>
        <time>2020-08-09T09:29:24Z</time>
      </trkpt>
      <trkpt lat="48.70808" lon="7.00577">
        <ele>265</ele>
        <time>2020-08-09T09:29:59Z</time>
      </trkpt>
      <trkpt lat="48.7081" lon="7.00569">
        <ele>264</ele>
        <time>2020-08-09T09:30:02Z</time>
      </trkpt>
      <trkpt lat="48.70812" lon="7.00562">
        <ele>264</ele>
        <time>2020-08-09T09:30:04Z</time>
      </trkpt>
      <trkpt lat="48.70813" lon="7.00554">
        <ele>264</ele>
        <time>2020-08-09T09:30:06Z</time>
      </trkpt>
      <trkpt lat="48.70815" lon="7.00545">
        <ele>264</ele>
        <time>2020-08-09T09:30:08Z</time>
      </trkpt>
      <trkpt lat="48.70819" lon="7.00537">
        <ele>264</ele>
        <time>2020-08-09T09:30:10Z</time>
      </trkpt>
      <trkpt lat="48.70822" lon="7.00529">
        <ele>265</ele>
        <time>2020-08-09T09:30:12Z</time>
      </trkpt>
      <trkpt lat="48.70825" lon="7.00518">
        <ele>265</ele>
        <time>2020-08-09T09:30:14Z</time>
      </trkpt>
      <trkpt lat="48.70828" lon="7.00509">
        <ele>265</ele>
        <time>2020-08-09T09:30:16Z</time>
      </trkpt>
      <trkpt lat="48.70832" lon="7.00499">
        <ele>265</ele>
        <time>2020-08-09T09:30:18Z</time>
      </trkpt>
      <trkpt lat="48.70834" lon="7.00489">
        <ele>265</ele>
        <time>2020-08-09T09:30:20Z</time>
      </trkpt>
      <trkpt lat="48.70837" lon="7.00479">
        <ele>265</ele>
        <time>2020-08-09T09:30:22Z</time>
      </trkpt>
      <trkpt lat="48.70839" lon="7.00471">
        <ele>266</ele>
        <time>2020-08-09T09:30:24Z</time>
      </trkpt>
      <trkpt lat="48.70841" lon="7.00465">
        <ele>266</ele>
        <time>2020-08-09T09:30:26Z</time>
      </trkpt>
      <trkpt lat="48.70842" lon="7.00457">
        <ele>266</ele>
        <time>2020-08-09T09:30:30Z</time>
      </trkpt>
      <trkpt lat="48.70845" lon="7.00451">
        <ele>266</ele>
        <time>2020-08-09T09:30:34Z</time>
      </trkpt>
      <trkpt lat="48.70846" lon="7.00442">
        <ele>266</ele>
        <time>2020-08-09T09:30:37Z</time>
      </trkpt>
      <trkpt lat="48.70848" lon="7.00435">
        <ele>265</ele>
        <time>2020-08-09T09:30:39Z</time>
      </trkpt>
      <trkpt lat="48.7085" lon="7.00426">
        <ele>265</ele>
        <time>2020-08-09T09:30:41Z</time>
      </trkpt>
      <trkpt lat="48.70852" lon="7.00417">
        <ele>265</ele>
        <time>2020-08-09T09:30:43Z</time>
      </trkpt>
      <trkpt lat="48.70854" lon="7.00408">
        <ele>265</ele>
        <time>2020-08-09T09:30:45Z</time>
      </trkpt>
      <trkpt lat="48.70857" lon="7.00398">
        <ele>265</ele>
        <time>2020-08-09T09:30:47Z</time>
      </trkpt>
      <trkpt lat="48.70859" lon="7.00388">
        <ele>266</ele>
        <time>2020-08-09T09:30:49Z</time>
      </trkpt>
      <trkpt lat="48.70861" lon="7.00378">
        <ele>266</ele>
        <time>2020-08-09T09:30:51Z</time>
      </trkpt>
      <trkpt lat="48.70864" lon="7.00367">
        <ele>266</ele>
        <time>2020-08-09T09:30:53Z</time>
      </trkpt>
      <trkpt lat="48.70867" lon="7.00356">
        <ele>266</ele>
        <time>2020-08-09T09:30:55Z</time>
      </trkpt>
      <trkpt lat="48.7087" lon="7.00346">
        <ele>266</ele>
        <time>2020-08-09T09:30:57Z</time>
      </trkpt>
      <trkpt lat="48.70873" lon="7.00335">
        <ele>266</ele>
        <time>2020-08-09T09:30:59Z</time>
      </trkpt>
      <trkpt lat="48.70876" lon="7.00324">
        <ele>266</ele>
        <time>2020-08-09T09:31:01Z</time>
      </trkpt>
      <trkpt lat="48.70879" lon="7.00313">
        <ele>266</ele>
        <time>2020-08-09T09:31:03Z</time>
      </trkpt>
      <trkpt lat="48.70882" lon="7.00302">
        <ele>265</ele>
        <time>2020-08-09T09:31:05Z</time>
      </trkpt>
      <trkpt lat="48.70887" lon="7.00291">
        <ele>265</ele>
        <time>2020-08-09T09:31:07Z</time>
      </trkpt>
      <trkpt lat="48.70891" lon="7.0028">
        <ele>266</ele>
        <time>2020-08-09T09:31:09Z</time>
      </trkpt>
      <trkpt lat="48.70895" lon="7.00269">
        <ele>266</ele>
        <time>2020-08-09T09:31:11Z</time>
      </trkpt>
      <trkpt lat="48.709" lon="7.00258">
        <ele>266</ele>
        <time>2020-08-09T09:31:13Z</time>
      </trkpt>
      <trkpt lat="48.70904" lon="7.00248">
        <ele>266</ele>
        <time>2020-08-09T09:31:15Z</time>
      </trkpt>
      <trkpt lat="48.70909" lon="7.00238">
        <ele>266</ele>
        <time>2020-08-09T09:31:17Z</time>
      </trkpt>
      <trkpt lat="48.70913" lon="7.00227">
        <ele>266</ele>
        <time>2020-08-09T09:31:19Z</time>
      </trkpt>
      <trkpt lat="48.70918" lon="7.00217">
        <ele>266</ele>
        <time>2020-08-09T09:31:21Z</time>
      </trkpt>
      <trkpt lat="48.70923" lon="7.00207">
        <ele>266</ele>
        <time>2020-08-09T09:31:23Z</time>
      </trkpt>
      <trkpt lat="48.70928" lon="7.00196">
        <ele>266</ele>
        <time>2020-08-09T09:31:25Z</time>
      </trkpt>
      <trkpt lat="48.70932" lon="7.00186">
        <ele>266</ele>
        <time>2020-08-09T09:31:27Z</time>
      </trkpt>
      <trkpt lat="48.70937" lon="7.00176">
        <ele>266</ele>
        <time>2020-08-09T09:31:29Z</time>
      </trkpt>
      <trkpt lat="48.70942" lon="7.00166">
        <ele>266</ele>
        <time>2020-08-09T09:31:31Z</time>
      </trkpt>
      <trkpt lat="48.70947" lon="7.00157">
        <ele>266</ele>
        <time>2020-08-09T09:31:33Z</time>
      </trkpt>
      <trkpt lat="48.70951" lon="7.00148">
        <ele>266</ele>
        <time>2020-08-09T09:31:35Z</time>
      </trkpt>
      <trkpt lat="48.70955" lon="7.0014">
        <ele>267</ele>
        <time>2020-08-09T09:31:37Z</time>
      </trkpt>
      <trkpt lat="48.70959" lon="7.00134">
        <ele>267</ele>
        <time>2020-08-09T09:31:39Z</time>
      </trkpt>
      <trkpt lat="48.70963" lon="7.00127">
        <ele>267</ele>
        <time>2020-08-09T09:31:41Z</time>
      </trkpt>
      <trkpt lat="48.70966" lon="7.0012">
        <ele>267</ele>
        <time>2020-08-09T09:31:43Z</time>
      </trkpt>
      <trkpt lat="48.70971" lon="7.00114">
        <ele>268</ele>
        <time>2020-08-09T09:31:45Z</time>
      </trkpt>
      <trkpt lat="48.70974" lon="7.00106">
        <ele>268</ele>
        <time>2020-08-09T09:31:47Z</time>
      </trkpt>
      <trkpt lat="48.70978" lon="7.00099">
        <ele>267</ele>
        <time>2020-08-09T09:31:49Z</time>
      </trkpt>
      <trkpt lat="48.70982" lon="7.00092">
        <ele>267</ele>
        <time>2020-08-09T09:31:51Z</time>
      </trkpt>
      <trkpt lat="48.70987" lon="7.00085">
        <ele>267</ele>
        <time>2020-08-09T09:31:53Z</time>
      </trkpt>
      <trkpt lat="48.70991" lon="7.00078">
        <ele>268</ele>
        <time>2020-08-09T09:31:55Z</time>
      </trkpt>
      <trkpt lat="48.70997" lon="7.00071">
        <ele>268</ele>
        <time>2020-08-09T09:31:57Z</time>
      </trkpt>
      <trkpt lat="48.71001" lon="7.00064">
        <ele>268</ele>
        <time>2020-08-09T09:31:59Z</time>
      </trkpt>
      <trkpt lat="48.71006" lon="7.00056">
        <ele>268</ele>
        <time>2020-08-09T09:32:01Z</time>
      </trkpt>
      <trkpt lat="48.71011" lon="7.00049">
        <ele>267</ele>
        <time>2020-08-09T09:32:03Z</time>
      </trkpt>
      <trkpt lat="48.71017" lon="7.00041">
        <ele>267</ele>
        <time>2020-08-09T09:32:05Z</time>
      </trkpt>
      <trkpt lat="48.71022" lon="7.00034">
        <ele>268</ele>
        <time>2020-08-09T09:32:07Z</time>
      </trkpt>
      <trkpt lat="48.71028" lon="7.00027">
        <ele>268</ele>
        <time>2020-08-09T09:32:09Z</time>
      </trkpt>
      <trkpt lat="48.71034" lon="7.0002">
        <ele>268</ele>
        <time>2020-08-09T09:32:11Z</time>
      </trkpt>
      <trkpt lat="48.7104" lon="7.00012">
        <ele>268</ele>
        <time>2020-08-09T09:32:13Z</time>
      </trkpt>
      <trkpt lat="48.71045" lon="7.00007">
        <ele>269</ele>
        <time>2020-08-09T09:32:15Z</time>
      </trkpt>
      <trkpt lat="48.71051" lon="7.00001">
        <ele>269</ele>
        <time>2020-08-09T09:32:17Z</time>
      </trkpt>
      <trkpt lat="48.71057" lon="6.99995">
        <ele>269</ele>
        <time>2020-08-09T09:32:19Z</time>
      </trkpt>
      <trkpt lat="48.71064" lon="6.99989">
        <ele>269</ele>
        <time>2020-08-09T09:32:21Z</time>
      </trkpt>
      <trkpt lat="48.7107" lon="6.99983">
        <ele>269</ele>
        <time>2020-08-09T09:32:23Z</time>
      </trkpt>
      <trkpt lat="48.71077" lon="6.99978">
        <ele>270</ele>
        <time>2020-08-09T09:32:25Z</time>
      </trkpt>
      <trkpt lat="48.71083" lon="6.99974">
        <ele>270</ele>
        <time>2020-08-09T09:32:27Z</time>
      </trkpt>
      <trkpt lat="48.7109" lon="6.9997">
        <ele>271</ele>
        <time>2020-08-09T09:32:29Z</time>
      </trkpt>
      <trkpt lat="48.71096" lon="6.99967">
        <ele>271</ele>
        <time>2020-08-09T09:32:31Z</time>
      </trkpt>
      <trkpt lat="48.71103" lon="6.99964">
        <ele>271</ele>
        <time>2020-08-09T09:32:33Z</time>
      </trkpt>
      <trkpt lat="48.7111" lon="6.99962">
        <ele>271</ele>
        <time>2020-08-09T09:32:35Z</time>
      </trkpt>
      <trkpt lat="48.71117" lon="6.99961">
        <ele>271</ele>
        <time>2020-08-09T09:32:37Z</time>
      </trkpt>
      <trkpt lat="48.71124" lon="6.9996">
        <ele>271</ele>
        <time>2020-08-09T09:32:39Z</time>
      </trkpt>
      <trkpt lat="48.71131" lon="6.99959">
        <ele>271</ele>
        <time>2020-08-09T09:32:41Z</time>
      </trkpt>
      <trkpt lat="48.71137" lon="6.99959">
        <ele>271</ele>
        <time>2020-08-09T09:32:43Z</time>
      </trkpt>
      <trkpt lat="48.71144" lon="6.99959">
        <ele>271</ele>
        <time>2020-08-09T09:32:45Z</time>
      </trkpt>
      <trkpt lat="48.7115" lon="6.99958">
        <ele>272</ele>
        <time>2020-08-09T09:32:47Z</time>
      </trkpt>
      <trkpt lat="48.71156" lon="6.99958">
        <ele>272</ele>
        <time>2020-08-09T09:32:49Z</time>
      </trkpt>
      <trkpt lat="48.71161" lon="6.99959">
        <ele>272</ele>
        <time>2020-08-09T09:32:51Z</time>
      </trkpt>
      <trkpt lat="48.71167" lon="6.9996">
        <ele>272</ele>
        <time>2020-08-09T09:32:53Z</time>
      </trkpt>
      <trkpt lat="48.71172" lon="6.99961">
        <ele>273</ele>
        <time>2020-08-09T09:32:55Z</time>
      </trkpt>
      <trkpt lat="48.71176" lon="6.9996">
        <ele>273</ele>
        <time>2020-08-09T09:32:57Z</time>
      </trkpt>
      <trkpt lat="48.71181" lon="6.99961">
        <ele>274</ele>
        <time>2020-08-09T09:32:59Z</time>
      </trkpt>
      <trkpt lat="48.71188" lon="6.99961">
        <ele>274</ele>
        <time>2020-08-09T09:33:02Z</time>
      </trkpt>
      <trkpt lat="48.71193" lon="6.99958">
        <ele>275</ele>
        <time>2020-08-09T09:33:05Z</time>
      </trkpt>
      <trkpt lat="48.71198" lon="6.99955">
        <ele>275</ele>
        <time>2020-08-09T09:33:08Z</time>
      </trkpt>
      <trkpt lat="48.71203" lon="6.99949">
        <ele>275</ele>
        <time>2020-08-09T09:33:11Z</time>
      </trkpt>
      <trkpt lat="48.71207" lon="6.99944">
        <ele>276</ele>
        <time>2020-08-09T09:33:14Z</time>
      </trkpt>
      <trkpt lat="48.7121" lon="6.99939">
        <ele>276</ele>
        <time>2020-08-09T09:33:17Z</time>
      </trkpt>
      <trkpt lat="48.71209" lon="6.99931">
        <ele>275</ele>
        <time>2020-08-09T09:33:22Z</time>
      </trkpt>
      <trkpt lat="48.71205" lon="6.99926">
        <ele>275</ele>
        <time>2020-08-09T09:33:25Z</time>
      </trkpt>
      <trkpt lat="48.71201" lon="6.99921">
        <ele>275</ele>
        <time>2020-08-09T09:33:28Z</time>
      </trkpt>
      <trkpt lat="48.71197" lon="6.99915">
        <ele>275</ele>
        <time>2020-08-09T09:33:31Z</time>
      </trkpt>
      <trkpt lat="48.71193" lon="6.9991">
        <ele>275</ele>
        <time>2020-08-09T09:33:34Z</time>
      </trkpt>
      <trkpt lat="48.71189" lon="6.99904">
        <ele>275</ele>
        <time>2020-08-09T09:33:37Z</time>
      </trkpt>
      <trkpt lat="48.71049" lon="6.99766">
        <ele>274</ele>
        <time>2020-08-09T09:40:36Z</time>
      </trkpt>
      <trkpt lat="48.71045" lon="6.99773">
        <ele>274</ele>
        <time>2020-08-09T09:40:38Z</time>
      </trkpt>
      <trkpt lat="48.71041" lon="6.99779">
        <ele>274</ele>
        <time>2020-08-09T09:40:40Z</time>
      </trkpt>
      <trkpt lat="48.71037" lon="6.99784">
        <ele>275</ele>
        <time>2020-08-09T09:40:42Z</time>
      </trkpt>
      <trkpt lat="48.71033" lon="6.9979">
        <ele>275</ele>
        <time>2020-08-09T09:40:44Z</time>
      </trkpt>
      <trkpt lat="48.71028" lon="6.99796">
        <ele>274</ele>
        <time>2020-08-09T09:40:46Z</time>
      </trkpt>
      <trkpt lat="48.71024" lon="6.99801">
        <ele>274</ele>
        <time>2020-08-09T09:40:48Z</time>
      </trkpt>
      <trkpt lat="48.71019" lon="6.99806">
        <ele>274</ele>
        <time>2020-08-09T09:40:50Z</time>
      </trkpt>
      <trkpt lat="48.71015" lon="6.99811">
        <ele>275</ele>
        <time>2020-08-09T09:40:52Z</time>
      </trkpt>
      <trkpt lat="48.71011" lon="6.99815">
        <ele>275</ele>
        <time>2020-08-09T09:40:54Z</time>
      </trkpt>
      <trkpt lat="48.71006" lon="6.9982">
        <ele>275</ele>
        <time>2020-08-09T09:40:56Z</time>
      </trkpt>
      <trkpt lat="48.71001" lon="6.99825">
        <ele>275</ele>
        <time>2020-08-09T09:40:58Z</time>
      </trkpt>
      <trkpt lat="48.70997" lon="6.99829">
        <ele>276</ele>
        <time>2020-08-09T09:41:00Z</time>
      </trkpt>
      <trkpt lat="48.70992" lon="6.99834">
        <ele>276</ele>
        <time>2020-08-09T09:41:02Z</time>
      </trkpt>
      <trkpt lat="48.70987" lon="6.99839">
        <ele>276</ele>
        <time>2020-08-09T09:41:04Z</time>
      </trkpt>
      <trkpt lat="48.70982" lon="6.99843">
        <ele>276</ele>
        <time>2020-08-09T09:41:06Z</time>
      </trkpt>
      <trkpt lat="48.70977" lon="6.99849">
        <ele>275</ele>
        <time>2020-08-09T09:41:08Z</time>
      </trkpt>
      <trkpt lat="48.70972" lon="6.99854">
        <ele>275</ele>
        <time>2020-08-09T09:41:10Z</time>
      </trkpt>
      <trkpt lat="48.70966" lon="6.99858">
        <ele>275</ele>
        <time>2020-08-09T09:41:12Z</time>
      </trkpt>
      <trkpt lat="48.70961" lon="6.99863">
        <ele>276</ele>
        <time>2020-08-09T09:41:14Z</time>
      </trkpt>
      <trkpt lat="48.70956" lon="6.99867">
        <ele>276</ele>
        <time>2020-08-09T09:41:16Z</time>
      </trkpt>
      <trkpt lat="48.70951" lon="6.99871">
        <ele>276</ele>
        <time>2020-08-09T09:41:18Z</time>
      </trkpt>
      <trkpt lat="48.70947" lon="6.99876">
        <ele>276</ele>
        <time>2020-08-09T09:41:20Z</time>
      </trkpt>
      <trkpt lat="48.70942" lon="6.99879">
        <ele>276</ele>
        <time>2020-08-09T09:41:22Z</time>
      </trkpt>
      <trkpt lat="48.70936" lon="6.99882">
        <ele>276</ele>
        <time>2020-08-09T09:41:24Z</time>
      </trkpt>
      <trkpt lat="48.70931" lon="6.99885">
        <ele>277</ele>
        <time>2020-08-09T09:41:26Z</time>
      </trkpt>
      <trkpt lat="48.70926" lon="6.99888">
        <ele>277</ele>
        <time>2020-08-09T09:41:28Z</time>
      </trkpt>
      <trkpt lat="48.70921" lon="6.9989">
        <ele>277</ele>
        <time>2020-08-09T09:41:30Z</time>
      </trkpt>
      <trkpt lat="48.70915" lon="6.99893">
        <ele>277</ele>
        <time>2020-08-09T09:41:33Z</time>
      </trkpt>
      <trkpt lat="48.7091" lon="6.99896">
        <ele>277</ele>
        <time>2020-08-09T09:41:35Z</time>
      </trkpt>
      <trkpt lat="48.70906" lon="6.99898">
        <ele>277</ele>
        <time>2020-08-09T09:41:37Z</time>
      </trkpt>
      <trkpt lat="48.70901" lon="6.99899">
        <ele>278</ele>
        <time>2020-08-09T09:41:39Z</time>
      </trkpt>
      <trkpt lat="48.70897" lon="6.99901">
        <ele>278</ele>
        <time>2020-08-09T09:41:41Z</time>
      </trkpt>
      <trkpt lat="48.7089" lon="6.99903">
        <ele>279</ele>
        <time>2020-08-09T09:41:44Z</time>
      </trkpt>
      <trkpt lat="48.70885" lon="6.99905">
        <ele>279</ele>
        <time>2020-08-09T09:41:47Z</time>
      </trkpt>
      <trkpt lat="48.70879" lon="6.99908">
        <ele>280</ele>
        <time>2020-08-09T09:41:50Z</time>
      </trkpt>
      <trkpt lat="48.70872" lon="6.99911">
        <ele>281</ele>
        <time>2020-08-09T09:41:53Z</time>
      </trkpt>
      <trkpt lat="48.70867" lon="6.99914">
        <ele>281</ele>
        <time>2020-08-09T09:41:55Z</time>
      </trkpt>
      <trkpt lat="48.70861" lon="6.99917">
        <ele>281</ele>
        <time>2020-08-09T09:41:58Z</time>
      </trkpt>
      <trkpt lat="48.70857" lon="6.99921">
        <ele>281</ele>
        <time>2020-08-09T09:42:00Z</time>
      </trkpt>
      <trkpt lat="48.70852" lon="6.99922">
        <ele>281</ele>
        <time>2020-08-09T09:42:03Z</time>
      </trkpt>
      <trkpt lat="48.70847" lon="6.99925">
        <ele>281</ele>
        <time>2020-08-09T09:42:05Z</time>
      </trkpt>
      <trkpt lat="48.70842" lon="6.9993">
        <ele>281</ele>
        <time>2020-08-09T09:42:08Z</time>
      </trkpt>
      <trkpt lat="48.70836" lon="6.99935">
        <ele>281</ele>
        <time>2020-08-09T09:42:11Z</time>
      </trkpt>
      <trkpt lat="48.70831" lon="6.99941">
        <ele>281</ele>
        <time>2020-08-09T09:42:13Z</time>
      </trkpt>
      <trkpt lat="48.70827" lon="6.99947">
        <ele>280</ele>
        <time>2020-08-09T09:42:15Z</time>
      </trkpt>
      <trkpt lat="48.70823" lon="6.99952">
        <ele>280</ele>
        <time>2020-08-09T09:42:17Z</time>
      </trkpt>
      <trkpt lat="48.70817" lon="6.99957">
        <ele>280</ele>
        <time>2020-08-09T09:42:19Z</time>
      </trkpt>
      <trkpt lat="48.70812" lon="6.9996">
        <ele>280</ele>
        <time>2020-08-09T09:42:21Z</time>
      </trkpt>
      <trkpt lat="48.70808" lon="6.99963">
        <ele>281</ele>
        <time>2020-08-09T09:42:23Z</time>
      </trkpt>
      <trkpt lat="48.70804" lon="6.99967">
        <ele>281</ele>
        <time>2020-08-09T09:42:25Z</time>
      </trkpt>
      <trkpt lat="48.70794" lon="6.99976">
        <ele>281</ele>
        <time>2020-08-09T09:42:30Z</time>
      </trkpt>
      <trkpt lat="48.70788" lon="6.99978">
        <ele>281</ele>
        <time>2020-08-09T09:42:33Z</time>
      </trkpt>
      <trkpt lat="48.70783" lon="6.9998">
        <ele>282</ele>
        <time>2020-08-09T09:42:35Z</time>
      </trkpt>
      <trkpt lat="48.70778" lon="6.99983">
        <ele>282</ele>
        <time>2020-08-09T09:42:37Z</time>
      </trkpt>
      <trkpt lat="48.70771" lon="6.99985">
        <ele>282</ele>
        <time>2020-08-09T09:42:40Z</time>
      </trkpt>
      <trkpt lat="48.70766" lon="6.99986">
        <ele>282</ele>
        <time>2020-08-09T09:42:42Z</time>
      </trkpt>
      <trkpt lat="48.70762" lon="6.99988">
        <ele>283</ele>
        <time>2020-08-09T09:42:44Z</time>
      </trkpt>
      <trkpt lat="48.70755" lon="6.99992">
        <ele>282</ele>
        <time>2020-08-09T09:42:46Z</time>
      </trkpt>
      <trkpt lat="48.70749" lon="6.99991">
        <ele>283</ele>
        <time>2020-08-09T09:42:48Z</time>
      </trkpt>
      <trkpt lat="48.70743" lon="6.99992">
        <ele>283</ele>
        <time>2020-08-09T09:42:50Z</time>
      </trkpt>
      <trkpt lat="48.70738" lon="6.99991">
        <ele>283</ele>
        <time>2020-08-09T09:42:52Z</time>
      </trkpt>
      <trkpt lat="48.70733" lon="6.9999">
        <ele>284</ele>
        <time>2020-08-09T09:42:54Z</time>
      </trkpt>
      <trkpt lat="48.70727" lon="6.99988">
        <ele>284</ele>
        <time>2020-08-09T09:42:56Z</time>
      </trkpt>
      <trkpt lat="48.70722" lon="6.99986">
        <ele>284</ele>
        <time>2020-08-09T09:42:58Z</time>
      </trkpt>
      <trkpt lat="48.70716" lon="6.99984">
        <ele>284</ele>
        <time>2020-08-09T09:43:00Z</time>
      </trkpt>
      <trkpt lat="48.70709" lon="6.99982">
        <ele>284</ele>
        <time>2020-08-09T09:43:02Z</time>
      </trkpt>
      <trkpt lat="48.70703" lon="6.9998">
        <ele>284</ele>
        <time>2020-08-09T09:43:04Z</time>
      </trkpt>
      <trkpt lat="48.70696" lon="6.9998">
        <ele>284</ele>
        <time>2020-08-09T09:43:06Z</time>
      </trkpt>
      <trkpt lat="48.70689" lon="6.99976">
        <ele>284</ele>
        <time>2020-08-09T09:43:08Z</time>
      </trkpt>
      <trkpt lat="48.70682" lon="6.99971">
        <ele>284</ele>
        <time>2020-08-09T09:43:10Z</time>
      </trkpt>
      <trkpt lat="48.70675" lon="6.99967">
        <ele>283</ele>
        <time>2020-08-09T09:43:12Z</time>
      </trkpt>
      <trkpt lat="48.70668" lon="6.99964">
        <ele>283</ele>
        <time>2020-08-09T09:43:14Z</time>
      </trkpt>
      <trkpt lat="48.7066" lon="6.9996">
        <ele>283</ele>
        <time>2020-08-09T09:43:16Z</time>
      </trkpt>
      <trkpt lat="48.70652" lon="6.99955">
        <ele>283</ele>
        <time>2020-08-09T09:43:18Z</time>
      </trkpt>
      <trkpt lat="48.70638" lon="6.99951">
        <ele>283</ele>
        <time>2020-08-09T09:43:21Z</time>
      </trkpt>
      <trkpt lat="48.7063" lon="6.99946">
        <ele>282</ele>
        <time>2020-08-09T09:43:23Z</time>
      </trkpt>
      <trkpt lat="48.70625" lon="6.99944">
        <ele>282</ele>
        <time>2020-08-09T09:43:24Z</time>
      </trkpt>
      <trkpt lat="48.7062" lon="6.99942">
        <ele>282</ele>
        <time>2020-08-09T09:43:25Z</time>
      </trkpt>
      <trkpt lat="48.70616" lon="6.99939">
        <ele>282</ele>
        <time>2020-08-09T09:43:26Z</time>
      </trkpt>
      <trkpt lat="48.70611" lon="6.99936">
        <ele>282</ele>
        <time>2020-08-09T09:43:27Z</time>
      </trkpt>
      <trkpt lat="48.70606" lon="6.99933">
        <ele>282</ele>
        <time>2020-08-09T09:43:28Z</time>
      </trkpt>
      <trkpt lat="48.70601" lon="6.9993">
        <ele>282</ele>
        <time>2020-08-09T09:43:29Z</time>
      </trkpt>
      <trkpt lat="48.70596" lon="6.99927">
        <ele>282</ele>
        <time>2020-08-09T09:43:30Z</time>
      </trkpt>
      <trkpt lat="48.70591" lon="6.99925">
        <ele>282</ele>
        <time>2020-08-09T09:43:31Z</time>
      </trkpt>
      <trkpt lat="48.70586" lon="6.99924">
        <ele>281</ele>
        <time>2020-08-09T09:43:32Z</time>
      </trkpt>
      <trkpt lat="48.70581" lon="6.9992">
        <ele>282</ele>
        <time>2020-08-09T09:43:33Z</time>
      </trkpt>
      <trkpt lat="48.70577" lon="6.99919">
        <ele>283</ele>
        <time>2020-08-09T09:43:34Z</time>
      </trkpt>
      <trkpt lat="48.70572" lon="6.99916">
        <ele>284</ele>
        <time>2020-08-09T09:43:35Z</time>
      </trkpt>
      <trkpt lat="48.70563" lon="6.99916">
        <ele>285</ele>
        <time>2020-08-09T09:43:37Z</time>
      </trkpt>
      <trkpt lat="48.70558" lon="6.99914">
        <ele>285</ele>
        <time>2020-08-09T09:43:38Z</time>
      </trkpt>
      <trkpt lat="48.70553" lon="6.99913">
        <ele>284</ele>
        <time>2020-08-09T09:43:39Z</time>
      </trkpt>
      <trkpt lat="48.70549" lon="6.99904">
        <ele>285</ele>
        <time>2020-08-09T09:43:40Z</time>
      </trkpt>
      <trkpt lat="48.70542" lon="6.99907">
        <ele>282</ele>
        <time>2020-08-09T09:43:41Z</time>
      </trkpt>
      <trkpt lat="48.70538" lon="6.99902">
        <ele>282</ele>
        <time>2020-08-09T09:43:42Z</time>
      </trkpt>
      <trkpt lat="48.70533" lon="6.99901">
        <ele>281</ele>
        <time>2020-08-09T09:43:43Z</time>
      </trkpt>
      <trkpt lat="48.70525" lon="6.99895">
        <ele>281</ele>
        <time>2020-08-09T09:43:45Z</time>
      </trkpt>
      <trkpt lat="48.7052" lon="6.99893">
        <ele>281</ele>
        <time>2020-08-09T09:43:46Z</time>
      </trkpt>
      <trkpt lat="48.70511" lon="6.99889">
        <ele>281</ele>
        <time>2020-08-09T09:43:48Z</time>
      </trkpt>
      <trkpt lat="48.70501" lon="6.99886">
        <ele>281</ele>
        <time>2020-08-09T09:43:50Z</time>
      </trkpt>
      <trkpt lat="48.70497" lon="6.99885">
        <ele>281</ele>
        <time>2020-08-09T09:43:51Z</time>
      </trkpt>
      <trkpt lat="48.70492" lon="6.99881">
        <ele>281</ele>
        <time>2020-08-09T09:43:52Z</time>
      </trkpt>
      <trkpt lat="48.70487" lon="6.99879">
        <ele>281</ele>
        <time>2020-08-09T09:43:53Z</time>
      </trkpt>
      <trkpt lat="48.70483" lon="6.99878">
        <ele>281</ele>
        <time>2020-08-09T09:43:54Z</time>
      </trkpt>
      <trkpt lat="48.70478" lon="6.99875">
        <ele>280</ele>
        <time>2020-08-09T09:43:55Z</time>
      </trkpt>
      <trkpt lat="48.70473" lon="6.99872">
        <ele>280</ele>
        <time>2020-08-09T09:43:56Z</time>
      </trkpt>
      <trkpt lat="48.70464" lon="6.99868">
        <ele>280</ele>
        <time>2020-08-09T09:43:58Z</time>
      </trkpt>
      <trkpt lat="48.7046" lon="6.99865">
        <ele>280</ele>
        <time>2020-08-09T09:43:59Z</time>
      </trkpt>
      <trkpt lat="48.70455" lon="6.99862">
        <ele>279</ele>
        <time>2020-08-09T09:44:00Z</time>
      </trkpt>
      <trkpt lat="48.70449" lon="6.99853">
        <ele>279</ele>
        <time>2020-08-09T09:44:02Z</time>
      </trkpt>
      <trkpt lat="48.70442" lon="6.99847">
        <ele>279</ele>
        <time>2020-08-09T09:44:04Z</time>
      </trkpt>
      <trkpt lat="48.70435" lon="6.9984">
        <ele>279</ele>
        <time>2020-08-09T09:44:06Z</time>
      </trkpt>
      <trkpt lat="48.70431" lon="6.99836">
        <ele>279</ele>
        <time>2020-08-09T09:44:07Z</time>
      </trkpt>
      <trkpt lat="48.70425" lon="6.99827">
        <ele>279</ele>
        <time>2020-08-09T09:44:09Z</time>
      </trkpt>
      <trkpt lat="48.70419" lon="6.99819">
        <ele>279</ele>
        <time>2020-08-09T09:44:11Z</time>
      </trkpt>
      <trkpt lat="48.70413" lon="6.99808">
        <ele>279</ele>
        <time>2020-08-09T09:44:13Z</time>
      </trkpt>
      <trkpt lat="48.70407" lon="6.998">
        <ele>278</ele>
        <time>2020-08-09T09:44:15Z</time>
      </trkpt>
      <trkpt lat="48.70403" lon="6.99793">
        <ele>278</ele>
        <time>2020-08-09T09:44:17Z</time>
      </trkpt>
      <trkpt lat="48.704" lon="6.99787">
        <ele>278</ele>
        <time>2020-08-09T09:44:18Z</time>
      </trkpt>
      <trkpt lat="48.70396" lon="6.99781">
        <ele>278</ele>
        <time>2020-08-09T09:44:19Z</time>
      </trkpt>
      <trkpt lat="48.70391" lon="6.99772">
        <ele>278</ele>
        <time>2020-08-09T09:44:21Z</time>
      </trkpt>
      <trkpt lat="48.70387" lon="6.99767">
        <ele>277</ele>
        <time>2020-08-09T09:44:22Z</time>
      </trkpt>
      <trkpt lat="48.70384" lon="6.99761">
        <ele>277</ele>
        <time>2020-08-09T09:44:23Z</time>
      </trkpt>
      <trkpt lat="48.70382" lon="6.99753">
        <ele>277</ele>
        <time>2020-08-09T09:44:24Z</time>
      </trkpt>
      <trkpt lat="48.70376" lon="6.99743">
        <ele>277</ele>
        <time>2020-08-09T09:44:26Z</time>
      </trkpt>
      <trkpt lat="48.70373" lon="6.99736">
        <ele>277</ele>
        <time>2020-08-09T09:44:27Z</time>
      </trkpt>
      <trkpt lat="48.7037" lon="6.9973">
        <ele>277</ele>
        <time>2020-08-09T09:44:28Z</time>
      </trkpt>
      <trkpt lat="48.70367" lon="6.99722">
        <ele>277</ele>
        <time>2020-08-09T09:44:29Z</time>
      </trkpt>
      <trkpt lat="48.70364" lon="6.99715">
        <ele>277</ele>
        <time>2020-08-09T09:44:30Z</time>
      </trkpt>
      <trkpt lat="48.70361" lon="6.99709">
        <ele>277</ele>
        <time>2020-08-09T09:44:31Z</time>
      </trkpt>
      <trkpt lat="48.70357" lon="6.99702">
        <ele>277</ele>
        <time>2020-08-09T09:44:32Z</time>
      </trkpt>
      <trkpt lat="48.70354" lon="6.99694">
        <ele>277</ele>
        <time>2020-08-09T09:44:33Z</time>
      </trkpt>
      <trkpt lat="48.7035" lon="6.99687">
        <ele>276</ele>
        <time>2020-08-09T09:44:34Z</time>
      </trkpt>
      <trkpt lat="48.70347" lon="6.99679">
        <ele>276</ele>
        <time>2020-08-09T09:44:35Z</time>
      </trkpt>
      <trkpt lat="48.70344" lon="6.99672">
        <ele>276</ele>
        <time>2020-08-09T09:44:36Z</time>
      </trkpt>
      <trkpt lat="48.70341" lon="6.99665">
        <ele>276</ele>
        <time>2020-08-09T09:44:37Z</time>
      </trkpt>
      <trkpt lat="48.70338" lon="6.99659">
        <ele>276</ele>
        <time>2020-08-09T09:44:38Z</time>
      </trkpt>
      <trkpt lat="48.70335" lon="6.9965">
        <ele>276</ele>
        <time>2020-08-09T09:44:39Z</time>
      </trkpt>
      <trkpt lat="48.7033" lon="6.99642">
        <ele>276</ele>
        <time>2020-08-09T09:44:40Z</time>
      </trkpt>
      <trkpt lat="48.70327" lon="6.99635">
        <ele>276</ele>
        <time>2020-08-09T09:44:41Z</time>
      </trkpt>
      <trkpt lat="48.70323" lon="6.99626">
        <ele>275</ele>
        <time>2020-08-09T09:44:42Z</time>
      </trkpt>
      <trkpt lat="48.70319" lon="6.99618">
        <ele>275</ele>
        <time>2020-08-09T09:44:43Z</time>
      </trkpt>
      <trkpt lat="48.70316" lon="6.9961">
        <ele>275</ele>
        <time>2020-08-09T09:44:44Z</time>
      </trkpt>
      <trkpt lat="48.70313" lon="6.99601">
        <ele>275</ele>
        <time>2020-08-09T09:44:45Z</time>
      </trkpt>
      <trkpt lat="48.7031" lon="6.99594">
        <ele>275</ele>
        <time>2020-08-09T09:44:46Z</time>
      </trkpt>
      <trkpt lat="48.70307" lon="6.99586">
        <ele>275</ele>
        <time>2020-08-09T09:44:47Z</time>
      </trkpt>
      <trkpt lat="48.70304" lon="6.99578">
        <ele>275</ele>
        <time>2020-08-09T09:44:48Z</time>
      </trkpt>
      <trkpt lat="48.703" lon="6.99569">
        <ele>275</ele>
        <time>2020-08-09T09:44:49Z</time>
      </trkpt>
      <trkpt lat="48.70297" lon="6.99561">
        <ele>274</ele>
        <time>2020-08-09T09:44:50Z</time>
      </trkpt>
      <trkpt lat="48.70293" lon="6.99553">
        <ele>274</ele>
        <time>2020-08-09T09:44:51Z</time>
      </trkpt>
      <trkpt lat="48.7029" lon="6.99545">
        <ele>275</ele>
        <time>2020-08-09T09:44:52Z</time>
      </trkpt>
      <trkpt lat="48.70287" lon="6.99539">
        <ele>274</ele>
        <time>2020-08-09T09:44:53Z</time>
      </trkpt>
      <trkpt lat="48.70285" lon="6.99531">
        <ele>274</ele>
        <time>2020-08-09T09:44:54Z</time>
      </trkpt>
      <trkpt lat="48.7028" lon="6.99523">
        <ele>274</ele>
        <time>2020-08-09T09:44:55Z</time>
      </trkpt>
      <trkpt lat="48.70277" lon="6.99516">
        <ele>274</ele>
        <time>2020-08-09T09:44:56Z</time>
      </trkpt>
      <trkpt lat="48.70274" lon="6.99508">
        <ele>274</ele>
        <time>2020-08-09T09:44:57Z</time>
      </trkpt>
      <trkpt lat="48.70271" lon="6.995">
        <ele>274</ele>
        <time>2020-08-09T09:44:58Z</time>
      </trkpt>
      <trkpt lat="48.70269" lon="6.99492">
        <ele>274</ele>
        <time>2020-08-09T09:44:59Z</time>
      </trkpt>
      <trkpt lat="48.70265" lon="6.99485">
        <ele>274</ele>
        <time>2020-08-09T09:45:00Z</time>
      </trkpt>
      <trkpt lat="48.70261" lon="6.99477">
        <ele>274</ele>
        <time>2020-08-09T09:45:01Z</time>
      </trkpt>
      <trkpt lat="48.70258" lon="6.9947">
        <ele>274</ele>
        <time>2020-08-09T09:45:02Z</time>
      </trkpt>
      <trkpt lat="48.70255" lon="6.99462">
        <ele>274</ele>
        <time>2020-08-09T09:45:03Z</time>
      </trkpt>
      <trkpt lat="48.70252" lon="6.99455">
        <ele>274</ele>
        <time>2020-08-09T09:45:04Z</time>
      </trkpt>
      <trkpt lat="48.70248" lon="6.99446">
        <ele>274</ele>
        <time>2020-08-09T09:45:05Z</time>
      </trkpt>
      <trkpt lat="48.70245" lon="6.9944">
        <ele>274</ele>
        <time>2020-08-09T09:45:06Z</time>
      </trkpt>
      <trkpt lat="48.70241" lon="6.99434">
        <ele>274</ele>
        <time>2020-08-09T09:45:07Z</time>
      </trkpt>
      <trkpt lat="48.70237" lon="6.99428">
        <ele>273</ele>
        <time>2020-08-09T09:45:08Z</time>
      </trkpt>
      <trkpt lat="48.70232" lon="6.99421">
        <ele>273</ele>
        <time>2020-08-09T09:45:09Z</time>
      </trkpt>
      <trkpt lat="48.70228" lon="6.99415">
        <ele>273</ele>
        <time>2020-08-09T09:45:10Z</time>
      </trkpt>
      <trkpt lat="48.70222" lon="6.9941">
        <ele>273</ele>
        <time>2020-08-09T09:45:11Z</time>
      </trkpt>
      <trkpt lat="48.70216" lon="6.99403">
        <ele>273</ele>
        <time>2020-08-09T09:45:12Z</time>
      </trkpt>
      <trkpt lat="48.7021" lon="6.99398">
        <ele>273</ele>
        <time>2020-08-09T09:45:13Z</time>
      </trkpt>
      <trkpt lat="48.70203" lon="6.99394">
        <ele>273</ele>
        <time>2020-08-09T09:45:14Z</time>
      </trkpt>
      <trkpt lat="48.70198" lon="6.99389">
        <ele>273</ele>
        <time>2020-08-09T09:45:15Z</time>
      </trkpt>
      <trkpt lat="48.70191" lon="6.99386">
        <ele>273</ele>
        <time>2020-08-09T09:45:16Z</time>
      </trkpt>
      <trkpt lat="48.70183" lon="6.99383">
        <ele>273</ele>
        <time>2020-08-09T09:45:17Z</time>
      </trkpt>
      <trkpt lat="48.70176" lon="6.99382">
        <ele>272</ele>
        <time>2020-08-09T09:45:18Z</time>
      </trkpt>
      <trkpt lat="48.70168" lon="6.99379">
        <ele>271</ele>
        <time>2020-08-09T09:45:19Z</time>
      </trkpt>
      <trkpt lat="48.70159" lon="6.99377">
        <ele>270</ele>
        <time>2020-08-09T09:45:20Z</time>
      </trkpt>
      <trkpt lat="48.7015" lon="6.99374">
        <ele>268</ele>
        <time>2020-08-09T09:45:21Z</time>
      </trkpt>
      <trkpt lat="48.70142" lon="6.9937">
        <ele>268</ele>
        <time>2020-08-09T09:45:22Z</time>
      </trkpt>
      <trkpt lat="48.70132" lon="6.99367">
        <ele>267</ele>
        <time>2020-08-09T09:45:23Z</time>
      </trkpt>
      <trkpt lat="48.70124" lon="6.99363">
        <ele>266</ele>
        <time>2020-08-09T09:45:24Z</time>
      </trkpt>
      <trkpt lat="48.70115" lon="6.99358">
        <ele>265</ele>
        <time>2020-08-09T09:45:25Z</time>
      </trkpt>
      <trkpt lat="48.70105" lon="6.99354">
        <ele>265</ele>
        <time>2020-08-09T09:45:26Z</time>
      </trkpt>
      <trkpt lat="48.70096" lon="6.99348">
        <ele>265</ele>
        <time>2020-08-09T09:45:27Z</time>
      </trkpt>
      <trkpt lat="48.70087" lon="6.99344">
        <ele>264</ele>
        <time>2020-08-09T09:45:28Z</time>
      </trkpt>
      <trkpt lat="48.70079" lon="6.99336">
        <ele>264</ele>
        <time>2020-08-09T09:45:29Z</time>
      </trkpt>
      <trkpt lat="48.7007" lon="6.99331">
        <ele>263</ele>
        <time>2020-08-09T09:45:30Z</time>
      </trkpt>
      <trkpt lat="48.70061" lon="6.99327">
        <ele>262</ele>
        <time>2020-08-09T09:45:31Z</time>
      </trkpt>
      <trkpt lat="48.70054" lon="6.99321">
        <ele>262</ele>
        <time>2020-08-09T09:45:32Z</time>
      </trkpt>
      <trkpt lat="48.70046" lon="6.99317">
        <ele>262</ele>
        <time>2020-08-09T09:45:33Z</time>
      </trkpt>
      <trkpt lat="48.7004" lon="6.99311">
        <ele>262</ele>
        <time>2020-08-09T09:45:34Z</time>
      </trkpt>
      <trkpt lat="48.70035" lon="6.99308">
        <ele>262</ele>
        <time>2020-08-09T09:45:35Z</time>
      </trkpt>
      <trkpt lat="48.70029" lon="6.99305">
        <ele>262</ele>
        <time>2020-08-09T09:45:36Z</time>
      </trkpt>
      <trkpt lat="48.70023" lon="6.99304">
        <ele>262</ele>
        <time>2020-08-09T09:45:37Z</time>
      </trkpt>
      <trkpt lat="48.70018" lon="6.99299">
        <ele>262</ele>
        <time>2020-08-09T09:45:38Z</time>
      </trkpt>
      <trkpt lat="48.70012" lon="6.99298">
        <ele>262</ele>
        <time>2020-08-09T09:45:39Z</time>
      </trkpt>
      <trkpt lat="48.70007" lon="6.99297">
        <ele>261</ele>
        <time>2020-08-09T09:45:40Z</time>
      </trkpt>
      <trkpt lat="48.70002" lon="6.99296">
        <ele>261</ele>
        <time>2020-08-09T09:45:41Z</time>
      </trkpt>
      <trkpt lat="48.69996" lon="6.99293">
        <ele>261</ele>
        <time>2020-08-09T09:45:43Z</time>
      </trkpt>
      <trkpt lat="48.69988" lon="6.99289">
        <ele>260</ele>
        <time>2020-08-09T09:45:45Z</time>
      </trkpt>
      <trkpt lat="48.69983" lon="6.99286">
        <ele>260</ele>
        <time>2020-08-09T09:45:47Z</time>
      </trkpt>
      <trkpt lat="48.69978" lon="6.99288">
        <ele>260</ele>
        <time>2020-08-09T09:46:40Z</time>
      </trkpt>
      <trkpt lat="48.69983" lon="6.99284">
        <ele>260</ele>
        <time>2020-08-09T09:47:22Z</time>
      </trkpt>
      <trkpt lat="48.69982" lon="6.9929">
        <ele>260</ele>
        <time>2020-08-09T09:47:35Z</time>
      </trkpt>
      <trkpt lat="48.69936" lon="6.99266">
        <ele>259</ele>
        <time>2020-08-09T09:59:42Z</time>
      </trkpt>
      <trkpt lat="48.69933" lon="6.99258">
        <ele>261</ele>
        <time>2020-08-09T09:59:44Z</time>
      </trkpt>
      <trkpt lat="48.69928" lon="6.99251">
        <ele>261</ele>
        <time>2020-08-09T09:59:46Z</time>
      </trkpt>
      <trkpt lat="48.69922" lon="6.99246">
        <ele>261</ele>
        <time>2020-08-09T09:59:48Z</time>
      </trkpt>
      <trkpt lat="48.69917" lon="6.99239">
        <ele>261</ele>
        <time>2020-08-09T09:59:50Z</time>
      </trkpt>
      <trkpt lat="48.69912" lon="6.99235">
        <ele>261</ele>
        <time>2020-08-09T09:59:52Z</time>
      </trkpt>
      <trkpt lat="48.69907" lon="6.9923">
        <ele>261</ele>
        <time>2020-08-09T09:59:54Z</time>
      </trkpt>
      <trkpt lat="48.69902" lon="6.99226">
        <ele>261</ele>
        <time>2020-08-09T09:59:56Z</time>
      </trkpt>
      <trkpt lat="48.69894" lon="6.99219">
        <ele>261</ele>
        <time>2020-08-09T10:00:00Z</time>
      </trkpt>
      <trkpt lat="48.6989" lon="6.99214">
        <ele>262</ele>
        <time>2020-08-09T10:00:02Z</time>
      </trkpt>
      <trkpt lat="48.69884" lon="6.9921">
        <ele>262</ele>
        <time>2020-08-09T10:00:05Z</time>
      </trkpt>
      <trkpt lat="48.6988" lon="6.99206">
        <ele>262</ele>
        <time>2020-08-09T10:00:07Z</time>
      </trkpt>
      <trkpt lat="48.69875" lon="6.99202">
        <ele>262</ele>
        <time>2020-08-09T10:00:09Z</time>
      </trkpt>
      <trkpt lat="48.6987" lon="6.99198">
        <ele>262</ele>
        <time>2020-08-09T10:00:11Z</time>
      </trkpt>
      <trkpt lat="48.69865" lon="6.99194">
        <ele>262</ele>
        <time>2020-08-09T10:00:13Z</time>
      </trkpt>
      <trkpt lat="48.69862" lon="6.99188">
        <ele>263</ele>
        <time>2020-08-09T10:00:15Z</time>
      </trkpt>
      <trkpt lat="48.69858" lon="6.99181">
        <ele>264</ele>
        <time>2020-08-09T10:00:17Z</time>
      </trkpt>
      <trkpt lat="48.69854" lon="6.99176">
        <ele>264</ele>
        <time>2020-08-09T10:00:19Z</time>
      </trkpt>
      <trkpt lat="48.69851" lon="6.9917">
        <ele>264</ele>
        <time>2020-08-09T10:00:21Z</time>
      </trkpt>
      <trkpt lat="48.69848" lon="6.99165">
        <ele>265</ele>
        <time>2020-08-09T10:00:23Z</time>
      </trkpt>
      <trkpt lat="48.69845" lon="6.99159">
        <ele>266</ele>
        <time>2020-08-09T10:00:25Z</time>
      </trkpt>
      <trkpt lat="48.69841" lon="6.99154">
        <ele>266</ele>
        <time>2020-08-09T10:00:27Z</time>
      </trkpt>
      <trkpt lat="48.69838" lon="6.99148">
        <ele>267</ele>
        <time>2020-08-09T10:00:29Z</time>
      </trkpt>
      <trkpt lat="48.69835" lon="6.99144">
        <ele>267</ele>
        <time>2020-08-09T10:00:31Z</time>
      </trkpt>
      <trkpt lat="48.69832" lon="6.99139">
        <ele>267</ele>
        <time>2020-08-09T10:00:33Z</time>
      </trkpt>
      <trkpt lat="48.69828" lon="6.99132">
        <ele>268</ele>
        <time>2020-08-09T10:00:36Z</time>
      </trkpt>
      <trkpt lat="48.69825" lon="6.99126">
        <ele>268</ele>
        <time>2020-08-09T10:00:38Z</time>
      </trkpt>
      <trkpt lat="48.69822" lon="6.9912">
        <ele>268</ele>
        <time>2020-08-09T10:00:40Z</time>
      </trkpt>
      <trkpt lat="48.69818" lon="6.99113">
        <ele>268</ele>
        <time>2020-08-09T10:00:43Z</time>
      </trkpt>
      <trkpt lat="48.69815" lon="6.99105">
        <ele>269</ele>
        <time>2020-08-09T10:00:46Z</time>
      </trkpt>
      <trkpt lat="48.69812" lon="6.99099">
        <ele>269</ele>
        <time>2020-08-09T10:00:48Z</time>
      </trkpt>
      <trkpt lat="48.69809" lon="6.99093">
        <ele>269</ele>
        <time>2020-08-09T10:00:50Z</time>
      </trkpt>
      <trkpt lat="48.69803" lon="6.9908">
        <ele>269</ele>
        <time>2020-08-09T10:00:55Z</time>
      </trkpt>
      <trkpt lat="48.69798" lon="6.99072">
        <ele>269</ele>
        <time>2020-08-09T10:00:58Z</time>
      </trkpt>
      <trkpt lat="48.69796" lon="6.99066">
        <ele>269</ele>
        <time>2020-08-09T10:01:00Z</time>
      </trkpt>
      <trkpt lat="48.69792" lon="6.99061">
        <ele>269</ele>
        <time>2020-08-09T10:01:02Z</time>
      </trkpt>
      <trkpt lat="48.69787" lon="6.99049">
        <ele>269</ele>
        <time>2020-08-09T10:01:06Z</time>
      </trkpt>
      <trkpt lat="48.69783" lon="6.99042">
        <ele>269</ele>
        <time>2020-08-09T10:01:08Z</time>
      </trkpt>
      <trkpt lat="48.6978" lon="6.99035">
        <ele>269</ele>
        <time>2020-08-09T10:01:10Z</time>
      </trkpt>
      <trkpt lat="48.69776" lon="6.99028">
        <ele>269</ele>
        <time>2020-08-09T10:01:12Z</time>
      </trkpt>
      <trkpt lat="48.69772" lon="6.9902">
        <ele>269</ele>
        <time>2020-08-09T10:01:14Z</time>
      </trkpt>
      <trkpt lat="48.69768" lon="6.99012">
        <ele>269</ele>
        <time>2020-08-09T10:01:16Z</time>
      </trkpt>
      <trkpt lat="48.69762" lon="6.99004">
        <ele>269</ele>
        <time>2020-08-09T10:01:18Z</time>
      </trkpt>
      <trkpt lat="48.69757" lon="6.98995">
        <ele>269</ele>
        <time>2020-08-09T10:01:20Z</time>
      </trkpt>
      <trkpt lat="48.69751" lon="6.98986">
        <ele>269</ele>
        <time>2020-08-09T10:01:22Z</time>
      </trkpt>
      <trkpt lat="48.69748" lon="6.98981">
        <ele>268</ele>
        <time>2020-08-09T10:01:23Z</time>
      </trkpt>
      <trkpt lat="48.69744" lon="6.98976">
        <ele>268</ele>
        <time>2020-08-09T10:01:24Z</time>
      </trkpt>
      <trkpt lat="48.69738" lon="6.98969">
        <ele>267</ele>
        <time>2020-08-09T10:01:26Z</time>
      </trkpt>
      <trkpt lat="48.69733" lon="6.98965">
        <ele>267</ele>
        <time>2020-08-09T10:01:27Z</time>
      </trkpt>
      <trkpt lat="48.69729" lon="6.98959">
        <ele>267</ele>
        <time>2020-08-09T10:01:28Z</time>
      </trkpt>
      <trkpt lat="48.69725" lon="6.98954">
        <ele>267</ele>
        <time>2020-08-09T10:01:29Z</time>
      </trkpt>
      <trkpt lat="48.6972" lon="6.98947">
        <ele>267</ele>
        <time>2020-08-09T10:01:30Z</time>
      </trkpt>
      <trkpt lat="48.69715" lon="6.98941">
        <ele>267</ele>
        <time>2020-08-09T10:01:31Z</time>
      </trkpt>
      <trkpt lat="48.6971" lon="6.98936">
        <ele>266</ele>
        <time>2020-08-09T10:01:32Z</time>
      </trkpt>
      <trkpt lat="48.69704" lon="6.98928">
        <ele>265</ele>
        <time>2020-08-09T10:01:33Z</time>
      </trkpt>
      <trkpt lat="48.69699" lon="6.98923">
        <ele>265</ele>
        <time>2020-08-09T10:01:34Z</time>
      </trkpt>
      <trkpt lat="48.69693" lon="6.98915">
        <ele>264</ele>
        <time>2020-08-09T10:01:35Z</time>
      </trkpt>
      <trkpt lat="48.69687" lon="6.98908">
        <ele>264</ele>
        <time>2020-08-09T10:01:36Z</time>
      </trkpt>
      <trkpt lat="48.69682" lon="6.98898">
        <ele>263</ele>
        <time>2020-08-09T10:01:37Z</time>
      </trkpt>
      <trkpt lat="48.69676" lon="6.98887">
        <ele>262</ele>
        <time>2020-08-09T10:01:38Z</time>
      </trkpt>
      <trkpt lat="48.69671" lon="6.98875">
        <ele>261</ele>
        <time>2020-08-09T10:01:39Z</time>
      </trkpt>
      <trkpt lat="48.69666" lon="6.98862">
        <ele>261</ele>
        <time>2020-08-09T10:01:40Z</time>
      </trkpt>
      <trkpt lat="48.6966" lon="6.98849">
        <ele>260</ele>
        <time>2020-08-09T10:01:41Z</time>
      </trkpt>
      <trkpt lat="48.69655" lon="6.98837">
        <ele>260</ele>
        <time>2020-08-09T10:01:42Z</time>
      </trkpt>
      <trkpt lat="48.69649" lon="6.98823">
        <ele>259</ele>
        <time>2020-08-09T10:01:43Z</time>
      </trkpt>
      <trkpt lat="48.69643" lon="6.98811">
        <ele>259</ele>
        <time>2020-08-09T10:01:44Z</time>
      </trkpt>
      <trkpt lat="48.69635" lon="6.988">
        <ele>258</ele>
        <time>2020-08-09T10:01:45Z</time>
      </trkpt>
      <trkpt lat="48.69627" lon="6.98789">
        <ele>258</ele>
        <time>2020-08-09T10:01:46Z</time>
      </trkpt>
      <trkpt lat="48.69621" lon="6.98778">
        <ele>258</ele>
        <time>2020-08-09T10:01:47Z</time>
      </trkpt>
      <trkpt lat="48.69613" lon="6.98767">
        <ele>258</ele>
        <time>2020-08-09T10:01:48Z</time>
      </trkpt>
      <trkpt lat="48.69606" lon="6.98756">
        <ele>258</ele>
        <time>2020-08-09T10:01:49Z</time>
      </trkpt>
      <trkpt lat="48.696" lon="6.98745">
        <ele>258</ele>
        <time>2020-08-09T10:01:50Z</time>
      </trkpt>
      <trkpt lat="48.69593" lon="6.98735">
        <ele>258</ele>
        <time>2020-08-09T10:01:51Z</time>
      </trkpt>
      <trkpt lat="48.69587" lon="6.98726">
        <ele>257</ele>
        <time>2020-08-09T10:01:52Z</time>
      </trkpt>
      <trkpt lat="48.69583" lon="6.98716">
        <ele>257</ele>
        <time>2020-08-09T10:01:53Z</time>
      </trkpt>
      <trkpt lat="48.69578" lon="6.98705">
        <ele>257</ele>
        <time>2020-08-09T10:01:54Z</time>
      </trkpt>
      <trkpt lat="48.69574" lon="6.98694">
        <ele>257</ele>
        <time>2020-08-09T10:01:55Z</time>
      </trkpt>
      <trkpt lat="48.6957" lon="6.98683">
        <ele>257</ele>
        <time>2020-08-09T10:01:56Z</time>
      </trkpt>
      <trkpt lat="48.69567" lon="6.98672">
        <ele>257</ele>
        <time>2020-08-09T10:01:57Z</time>
      </trkpt>
      <trkpt lat="48.69563" lon="6.98662">
        <ele>257</ele>
        <time>2020-08-09T10:01:58Z</time>
      </trkpt>
      <trkpt lat="48.69559" lon="6.98651">
        <ele>257</ele>
        <time>2020-08-09T10:01:59Z</time>
      </trkpt>
      <trkpt lat="48.69556" lon="6.98641">
        <ele>258</ele>
        <time>2020-08-09T10:02:00Z</time>
      </trkpt>
      <trkpt lat="48.69554" lon="6.98632">
        <ele>258</ele>
        <time>2020-08-09T10:02:01Z</time>
      </trkpt>
      <trkpt lat="48.69552" lon="6.98623">
        <ele>258</ele>
        <time>2020-08-09T10:02:02Z</time>
      </trkpt>
      <trkpt lat="48.6955" lon="6.98613">
        <ele>258</ele>
        <time>2020-08-09T10:02:03Z</time>
      </trkpt>
      <trkpt lat="48.69548" lon="6.98603">
        <ele>258</ele>
        <time>2020-08-09T10:02:04Z</time>
      </trkpt>
      <trkpt lat="48.69547" lon="6.98593">
        <ele>258</ele>
        <time>2020-08-09T10:02:05Z</time>
      </trkpt>
      <trkpt lat="48.69546" lon="6.98584">
        <ele>258</ele>
        <time>2020-08-09T10:02:06Z</time>
      </trkpt>
      <trkpt lat="48.69545" lon="6.98575">
        <ele>258</ele>
        <time>2020-08-09T10:02:07Z</time>
      </trkpt>
      <trkpt lat="48.69544" lon="6.98567">
        <ele>258</ele>
        <time>2020-08-09T10:02:08Z</time>
      </trkpt>
      <trkpt lat="48.69542" lon="6.98557">
        <ele>258</ele>
        <time>2020-08-09T10:02:09Z</time>
      </trkpt>
      <trkpt lat="48.69542" lon="6.98548">
        <ele>258</ele>
        <time>2020-08-09T10:02:10Z</time>
      </trkpt>
      <trkpt lat="48.6954" lon="6.9854">
        <ele>258</ele>
        <time>2020-08-09T10:02:11Z</time>
      </trkpt>
      <trkpt lat="48.69539" lon="6.98531">
        <ele>258</ele>
        <time>2020-08-09T10:02:12Z</time>
      </trkpt>
      <trkpt lat="48.69539" lon="6.98523">
        <ele>258</ele>
        <time>2020-08-09T10:02:13Z</time>
      </trkpt>
      <trkpt lat="48.69538" lon="6.98514">
        <ele>258</ele>
        <time>2020-08-09T10:02:14Z</time>
      </trkpt>
      <trkpt lat="48.69537" lon="6.98507">
        <ele>258</ele>
        <time>2020-08-09T10:02:15Z</time>
      </trkpt>
      <trkpt lat="48.69536" lon="6.98498">
        <ele>258</ele>
        <time>2020-08-09T10:02:16Z</time>
      </trkpt>
      <trkpt lat="48.69536" lon="6.9849">
        <ele>258</ele>
        <time>2020-08-09T10:02:17Z</time>
      </trkpt>
      <trkpt lat="48.69536" lon="6.98481">
        <ele>258</ele>
        <time>2020-08-09T10:02:18Z</time>
      </trkpt>
      <trkpt lat="48.69535" lon="6.98471">
        <ele>258</ele>
        <time>2020-08-09T10:02:19Z</time>
      </trkpt>
      <trkpt lat="48.69535" lon="6.98462">
        <ele>258</ele>
        <time>2020-08-09T10:02:20Z</time>
      </trkpt>
      <trkpt lat="48.69535" lon="6.98453">
        <ele>258</ele>
        <time>2020-08-09T10:02:21Z</time>
      </trkpt>
      <trkpt lat="48.69535" lon="6.98444">
        <ele>258</ele>
        <time>2020-08-09T10:02:22Z</time>
      </trkpt>
      <trkpt lat="48.69537" lon="6.98436">
        <ele>258</ele>
        <time>2020-08-09T10:02:23Z</time>
      </trkpt>
      <trkpt lat="48.69537" lon="6.98427">
        <ele>258</ele>
        <time>2020-08-09T10:02:24Z</time>
      </trkpt>
      <trkpt lat="48.69538" lon="6.98419">
        <ele>258</ele>
        <time>2020-08-09T10:02:25Z</time>
      </trkpt>
      <trkpt lat="48.6954" lon="6.98411">
        <ele>258</ele>
        <time>2020-08-09T10:02:26Z</time>
      </trkpt>
      <trkpt lat="48.69543" lon="6.98403">
        <ele>258</ele>
        <time>2020-08-09T10:02:27Z</time>
      </trkpt>
      <trkpt lat="48.69544" lon="6.98395">
        <ele>258</ele>
        <time>2020-08-09T10:02:28Z</time>
      </trkpt>
      <trkpt lat="48.69546" lon="6.98388">
        <ele>258</ele>
        <time>2020-08-09T10:02:29Z</time>
      </trkpt>
      <trkpt lat="48.69547" lon="6.9838">
        <ele>259</ele>
        <time>2020-08-09T10:02:30Z</time>
      </trkpt>
      <trkpt lat="48.6955" lon="6.98373">
        <ele>259</ele>
        <time>2020-08-09T10:02:31Z</time>
      </trkpt>
      <trkpt lat="48.69552" lon="6.98365">
        <ele>259</ele>
        <time>2020-08-09T10:02:32Z</time>
      </trkpt>
      <trkpt lat="48.69554" lon="6.98357">
        <ele>259</ele>
        <time>2020-08-09T10:02:33Z</time>
      </trkpt>
      <trkpt lat="48.69554" lon="6.98349">
        <ele>259</ele>
        <time>2020-08-09T10:02:34Z</time>
      </trkpt>
      <trkpt lat="48.69555" lon="6.98342">
        <ele>259</ele>
        <time>2020-08-09T10:02:35Z</time>
      </trkpt>
      <trkpt lat="48.69554" lon="6.98335">
        <ele>259</ele>
        <time>2020-08-09T10:02:36Z</time>
      </trkpt>
      <trkpt lat="48.69554" lon="6.98327">
        <ele>259</ele>
        <time>2020-08-09T10:02:37Z</time>
      </trkpt>
      <trkpt lat="48.69555" lon="6.9832">
        <ele>259</ele>
        <time>2020-08-09T10:02:38Z</time>
      </trkpt>
      <trkpt lat="48.69554" lon="6.98307">
        <ele>259</ele>
        <time>2020-08-09T10:02:40Z</time>
      </trkpt>
      <trkpt lat="48.6955" lon="6.98294">
        <ele>260</ele>
        <time>2020-08-09T10:02:42Z</time>
      </trkpt>
      <trkpt lat="48.69548" lon="6.98287">
        <ele>260</ele>
        <time>2020-08-09T10:02:43Z</time>
      </trkpt>
      <trkpt lat="48.69546" lon="6.98281">
        <ele>260</ele>
        <time>2020-08-09T10:02:44Z</time>
      </trkpt>
      <trkpt lat="48.69542" lon="6.98268">
        <ele>260</ele>
        <time>2020-08-09T10:02:46Z</time>
      </trkpt>
      <trkpt lat="48.69539" lon="6.98256">
        <ele>260</ele>
        <time>2020-08-09T10:02:48Z</time>
      </trkpt>
      <trkpt lat="48.69534" lon="6.98244">
        <ele>261</ele>
        <time>2020-08-09T10:02:50Z</time>
      </trkpt>
      <trkpt lat="48.69531" lon="6.98232">
        <ele>261</ele>
        <time>2020-08-09T10:02:52Z</time>
      </trkpt>
      <trkpt lat="48.69528" lon="6.9822">
        <ele>262</ele>
        <time>2020-08-09T10:02:54Z</time>
      </trkpt>
      <trkpt lat="48.69525" lon="6.98211">
        <ele>262</ele>
        <time>2020-08-09T10:02:56Z</time>
      </trkpt>
      <trkpt lat="48.69522" lon="6.982">
        <ele>262</ele>
        <time>2020-08-09T10:02:58Z</time>
      </trkpt>
      <trkpt lat="48.69521" lon="6.98192">
        <ele>263</ele>
        <time>2020-08-09T10:03:00Z</time>
      </trkpt>
      <trkpt lat="48.69518" lon="6.98184">
        <ele>263</ele>
        <time>2020-08-09T10:03:02Z</time>
      </trkpt>
      <trkpt lat="48.69514" lon="6.98175">
        <ele>264</ele>
        <time>2020-08-09T10:03:04Z</time>
      </trkpt>
      <trkpt lat="48.69511" lon="6.98169">
        <ele>264</ele>
        <time>2020-08-09T10:03:06Z</time>
      </trkpt>
      <trkpt lat="48.69507" lon="6.98162">
        <ele>265</ele>
        <time>2020-08-09T10:03:09Z</time>
      </trkpt>
      <trkpt lat="48.69505" lon="6.98155">
        <ele>266</ele>
        <time>2020-08-09T10:03:11Z</time>
      </trkpt>
      <trkpt lat="48.69501" lon="6.98149">
        <ele>266</ele>
        <time>2020-08-09T10:03:13Z</time>
      </trkpt>
      <trkpt lat="48.69499" lon="6.98143">
        <ele>266</ele>
        <time>2020-08-09T10:03:15Z</time>
      </trkpt>
      <trkpt lat="48.69494" lon="6.98137">
        <ele>267</ele>
        <time>2020-08-09T10:03:18Z</time>
      </trkpt>
      <trkpt lat="48.69491" lon="6.98132">
        <ele>267</ele>
        <time>2020-08-09T10:03:21Z</time>
      </trkpt>
      <trkpt lat="48.69487" lon="6.98124">
        <ele>268</ele>
        <time>2020-08-09T10:03:24Z</time>
      </trkpt>
      <trkpt lat="48.69484" lon="6.98117">
        <ele>268</ele>
        <time>2020-08-09T10:03:27Z</time>
      </trkpt>
      <trkpt lat="48.6948" lon="6.98109">
        <ele>269</ele>
        <time>2020-08-09T10:03:30Z</time>
      </trkpt>
      <trkpt lat="48.69476" lon="6.98104">
        <ele>269</ele>
        <time>2020-08-09T10:03:33Z</time>
      </trkpt>
      <trkpt lat="48.69473" lon="6.98098">
        <ele>270</ele>
        <time>2020-08-09T10:03:36Z</time>
      </trkpt>
      <trkpt lat="48.69469" lon="6.98089">
        <ele>270</ele>
        <time>2020-08-09T10:03:39Z</time>
      </trkpt>
      <trkpt lat="48.69466" lon="6.98082">
        <ele>270</ele>
        <time>2020-08-09T10:03:42Z</time>
      </trkpt>
      <trkpt lat="48.69463" lon="6.98075">
        <ele>271</ele>
        <time>2020-08-09T10:03:45Z</time>
      </trkpt>
      <trkpt lat="48.6946" lon="6.98066">
        <ele>271</ele>
        <time>2020-08-09T10:03:49Z</time>
      </trkpt>
      <trkpt lat="48.69457" lon="6.98058">
        <ele>271</ele>
        <time>2020-08-09T10:03:52Z</time>
      </trkpt>
      <trkpt lat="48.69455" lon="6.98051">
        <ele>271</ele>
        <time>2020-08-09T10:03:54Z</time>
      </trkpt>
      <trkpt lat="48.69453" lon="6.98044">
        <ele>271</ele>
        <time>2020-08-09T10:03:56Z</time>
      </trkpt>
      <trkpt lat="48.69449" lon="6.98037">
        <ele>272</ele>
        <time>2020-08-09T10:03:59Z</time>
      </trkpt>
      <trkpt lat="48.69446" lon="6.98031">
        <ele>272</ele>
        <time>2020-08-09T10:04:01Z</time>
      </trkpt>
      <trkpt lat="48.69442" lon="6.98023">
        <ele>272</ele>
        <time>2020-08-09T10:04:04Z</time>
      </trkpt>
      <trkpt lat="48.6944" lon="6.98014">
        <ele>272</ele>
        <time>2020-08-09T10:04:07Z</time>
      </trkpt>
      <trkpt lat="48.69438" lon="6.98007">
        <ele>272</ele>
        <time>2020-08-09T10:04:09Z</time>
      </trkpt>
      <trkpt lat="48.69438" lon="6.97999">
        <ele>272</ele>
        <time>2020-08-09T10:04:11Z</time>
      </trkpt>
      <trkpt lat="48.69437" lon="6.9799">
        <ele>272</ele>
        <time>2020-08-09T10:04:13Z</time>
      </trkpt>
      <trkpt lat="48.69435" lon="6.97983">
        <ele>273</ele>
        <time>2020-08-09T10:04:15Z</time>
      </trkpt>
      <trkpt lat="48.69436" lon="6.97975">
        <ele>273</ele>
        <time>2020-08-09T10:04:17Z</time>
      </trkpt>
      <trkpt lat="48.69436" lon="6.97967">
        <ele>273</ele>
        <time>2020-08-09T10:04:19Z</time>
      </trkpt>
      <trkpt lat="48.69434" lon="6.97958">
        <ele>273</ele>
        <time>2020-08-09T10:04:21Z</time>
      </trkpt>
      <trkpt lat="48.69434" lon="6.9795">
        <ele>273</ele>
        <time>2020-08-09T10:04:23Z</time>
      </trkpt>
      <trkpt lat="48.69435" lon="6.9794">
        <ele>273</ele>
        <time>2020-08-09T10:04:25Z</time>
      </trkpt>
      <trkpt lat="48.69432" lon="6.97932">
        <ele>273</ele>
        <time>2020-08-09T10:04:27Z</time>
      </trkpt>
      <trkpt lat="48.69431" lon="6.97921">
        <ele>273</ele>
        <time>2020-08-09T10:04:29Z</time>
      </trkpt>
      <trkpt lat="48.69432" lon="6.97912">
        <ele>273</ele>
        <time>2020-08-09T10:04:31Z</time>
      </trkpt>
      <trkpt lat="48.69429" lon="6.97902">
        <ele>273</ele>
        <time>2020-08-09T10:04:33Z</time>
      </trkpt>
      <trkpt lat="48.69429" lon="6.97892">
        <ele>273</ele>
        <time>2020-08-09T10:04:35Z</time>
      </trkpt>
      <trkpt lat="48.69428" lon="6.97881">
        <ele>273</ele>
        <time>2020-08-09T10:04:37Z</time>
      </trkpt>
      <trkpt lat="48.69428" lon="6.97872">
        <ele>273</ele>
        <time>2020-08-09T10:04:39Z</time>
      </trkpt>
      <trkpt lat="48.69427" lon="6.97864">
        <ele>273</ele>
        <time>2020-08-09T10:04:41Z</time>
      </trkpt>
      <trkpt lat="48.69426" lon="6.97854">
        <ele>273</ele>
        <time>2020-08-09T10:04:43Z</time>
      </trkpt>
      <trkpt lat="48.69426" lon="6.97843">
        <ele>273</ele>
        <time>2020-08-09T10:04:45Z</time>
      </trkpt>
      <trkpt lat="48.69426" lon="6.97832">
        <ele>273</ele>
        <time>2020-08-09T10:04:47Z</time>
      </trkpt>
      <trkpt lat="48.69425" lon="6.97822">
        <ele>273</ele>
        <time>2020-08-09T10:04:49Z</time>
      </trkpt>
      <trkpt lat="48.69424" lon="6.97811">
        <ele>272</ele>
        <time>2020-08-09T10:04:51Z</time>
      </trkpt>
      <trkpt lat="48.69424" lon="6.97801">
        <ele>272</ele>
        <time>2020-08-09T10:04:53Z</time>
      </trkpt>
      <trkpt lat="48.69423" lon="6.97788">
        <ele>272</ele>
        <time>2020-08-09T10:04:55Z</time>
      </trkpt>
      <trkpt lat="48.69423" lon="6.97775">
        <ele>272</ele>
        <time>2020-08-09T10:04:57Z</time>
      </trkpt>
      <trkpt lat="48.69423" lon="6.97768">
        <ele>272</ele>
        <time>2020-08-09T10:04:58Z</time>
      </trkpt>
      <trkpt lat="48.69422" lon="6.97761">
        <ele>271</ele>
        <time>2020-08-09T10:04:59Z</time>
      </trkpt>
      <trkpt lat="48.69421" lon="6.97753">
        <ele>271</ele>
        <time>2020-08-09T10:05:00Z</time>
      </trkpt>
      <trkpt lat="48.69421" lon="6.97746">
        <ele>271</ele>
        <time>2020-08-09T10:05:01Z</time>
      </trkpt>
      <trkpt lat="48.69421" lon="6.97737">
        <ele>271</ele>
        <time>2020-08-09T10:05:02Z</time>
      </trkpt>
      <trkpt lat="48.6942" lon="6.97729">
        <ele>271</ele>
        <time>2020-08-09T10:05:03Z</time>
      </trkpt>
      <trkpt lat="48.69419" lon="6.97721">
        <ele>271</ele>
        <time>2020-08-09T10:05:04Z</time>
      </trkpt>
      <trkpt lat="48.69418" lon="6.97714">
        <ele>271</ele>
        <time>2020-08-09T10:05:05Z</time>
      </trkpt>
      <trkpt lat="48.69418" lon="6.97705">
        <ele>271</ele>
        <time>2020-08-09T10:05:06Z</time>
      </trkpt>
      <trkpt lat="48.69417" lon="6.97697">
        <ele>270</ele>
        <time>2020-08-09T10:05:07Z</time>
      </trkpt>
      <trkpt lat="48.69417" lon="6.97689">
        <ele>270</ele>
        <time>2020-08-09T10:05:08Z</time>
      </trkpt>
      <trkpt lat="48.69417" lon="6.9768">
        <ele>270</ele>
        <time>2020-08-09T10:05:09Z</time>
      </trkpt>
      <trkpt lat="48.69417" lon="6.97671">
        <ele>270</ele>
        <time>2020-08-09T10:05:10Z</time>
      </trkpt>
      <trkpt lat="48.69417" lon="6.97661">
        <ele>270</ele>
        <time>2020-08-09T10:05:11Z</time>
      </trkpt>
      <trkpt lat="48.69416" lon="6.9765">
        <ele>269</ele>
        <time>2020-08-09T10:05:12Z</time>
      </trkpt>
      <trkpt lat="48.69416" lon="6.97639">
        <ele>268</ele>
        <time>2020-08-09T10:05:13Z</time>
      </trkpt>
      <trkpt lat="48.69416" lon="6.97628">
        <ele>268</ele>
        <time>2020-08-09T10:05:14Z</time>
      </trkpt>
      <trkpt lat="48.69416" lon="6.97616">
        <ele>268</ele>
        <time>2020-08-09T10:05:15Z</time>
      </trkpt>
      <trkpt lat="48.69416" lon="6.97605">
        <ele>268</ele>
        <time>2020-08-09T10:05:16Z</time>
      </trkpt>
      <trkpt lat="48.69418" lon="6.97594">
        <ele>268</ele>
        <time>2020-08-09T10:05:17Z</time>
      </trkpt>
      <trkpt lat="48.69419" lon="6.97582">
        <ele>267</ele>
        <time>2020-08-09T10:05:18Z</time>
      </trkpt>
      <trkpt lat="48.69421" lon="6.97571">
        <ele>267</ele>
        <time>2020-08-09T10:05:19Z</time>
      </trkpt>
      <trkpt lat="48.69424" lon="6.9756">
        <ele>267</ele>
        <time>2020-08-09T10:05:20Z</time>
      </trkpt>
      <trkpt lat="48.69426" lon="6.9755">
        <ele>267</ele>
        <time>2020-08-09T10:05:21Z</time>
      </trkpt>
      <trkpt lat="48.69429" lon="6.97539">
        <ele>267</ele>
        <time>2020-08-09T10:05:22Z</time>
      </trkpt>
      <trkpt lat="48.69432" lon="6.97529">
        <ele>267</ele>
        <time>2020-08-09T10:05:23Z</time>
      </trkpt>
      <trkpt lat="48.69436" lon="6.9752">
        <ele>267</ele>
        <time>2020-08-09T10:05:24Z</time>
      </trkpt>
      <trkpt lat="48.69439" lon="6.97509">
        <ele>267</ele>
        <time>2020-08-09T10:05:25Z</time>
      </trkpt>
      <trkpt lat="48.69442" lon="6.975">
        <ele>266</ele>
        <time>2020-08-09T10:05:26Z</time>
      </trkpt>
      <trkpt lat="48.69445" lon="6.9749">
        <ele>266</ele>
        <time>2020-08-09T10:05:27Z</time>
      </trkpt>
      <trkpt lat="48.69449" lon="6.9748">
        <ele>266</ele>
        <time>2020-08-09T10:05:28Z</time>
      </trkpt>
      <trkpt lat="48.6945" lon="6.97471">
        <ele>266</ele>
        <time>2020-08-09T10:05:29Z</time>
      </trkpt>
      <trkpt lat="48.69452" lon="6.9746">
        <ele>266</ele>
        <time>2020-08-09T10:05:30Z</time>
      </trkpt>
      <trkpt lat="48.69453" lon="6.97452">
        <ele>266</ele>
        <time>2020-08-09T10:05:31Z</time>
      </trkpt>
      <trkpt lat="48.69453" lon="6.97443">
        <ele>266</ele>
        <time>2020-08-09T10:05:32Z</time>
      </trkpt>
      <trkpt lat="48.69454" lon="6.97435">
        <ele>266</ele>
        <time>2020-08-09T10:05:33Z</time>
      </trkpt>
      <trkpt lat="48.69456" lon="6.97425">
        <ele>266</ele>
        <time>2020-08-09T10:05:34Z</time>
      </trkpt>
      <trkpt lat="48.69457" lon="6.97415">
        <ele>266</ele>
        <time>2020-08-09T10:05:35Z</time>
      </trkpt>
      <trkpt lat="48.69458" lon="6.97406">
        <ele>266</ele>
        <time>2020-08-09T10:05:36Z</time>
      </trkpt>
      <trkpt lat="48.69458" lon="6.97397">
        <ele>266</ele>
        <time>2020-08-09T10:05:37Z</time>
      </trkpt>
      <trkpt lat="48.69459" lon="6.97388">
        <ele>266</ele>
        <time>2020-08-09T10:05:38Z</time>
      </trkpt>
      <trkpt lat="48.6946" lon="6.97381">
        <ele>266</ele>
        <time>2020-08-09T10:05:39Z</time>
      </trkpt>
      <trkpt lat="48.69461" lon="6.97372">
        <ele>266</ele>
        <time>2020-08-09T10:05:40Z</time>
      </trkpt>
      <trkpt lat="48.69461" lon="6.97364">
        <ele>266</ele>
        <time>2020-08-09T10:05:41Z</time>
      </trkpt>
      <trkpt lat="48.69461" lon="6.97356">
        <ele>266</ele>
        <time>2020-08-09T10:05:42Z</time>
      </trkpt>
      <trkpt lat="48.69462" lon="6.97348">
        <ele>266</ele>
        <time>2020-08-09T10:05:43Z</time>
      </trkpt>
      <trkpt lat="48.69462" lon="6.9734">
        <ele>265</ele>
        <time>2020-08-09T10:05:44Z</time>
      </trkpt>
      <trkpt lat="48.69463" lon="6.97332">
        <ele>266</ele>
        <time>2020-08-09T10:05:45Z</time>
      </trkpt>
      <trkpt lat="48.69464" lon="6.97322">
        <ele>266</ele>
        <time>2020-08-09T10:05:46Z</time>
      </trkpt>
      <trkpt lat="48.69465" lon="6.97315">
        <ele>266</ele>
        <time>2020-08-09T10:05:47Z</time>
      </trkpt>
      <trkpt lat="48.69468" lon="6.97304">
        <ele>266</ele>
        <time>2020-08-09T10:05:49Z</time>
      </trkpt>
      <trkpt lat="48.69468" lon="6.97297">
        <ele>266</ele>
        <time>2020-08-09T10:05:50Z</time>
      </trkpt>
      <trkpt lat="48.6947" lon="6.9729">
        <ele>266</ele>
        <time>2020-08-09T10:05:51Z</time>
      </trkpt>
      <trkpt lat="48.69471" lon="6.97278">
        <ele>267</ele>
        <time>2020-08-09T10:05:53Z</time>
      </trkpt>
      <trkpt lat="48.69473" lon="6.97265">
        <ele>268</ele>
        <time>2020-08-09T10:05:55Z</time>
      </trkpt>
      <trkpt lat="48.69473" lon="6.97258">
        <ele>268</ele>
        <time>2020-08-09T10:05:56Z</time>
      </trkpt>
      <trkpt lat="48.69476" lon="6.97249">
        <ele>268</ele>
        <time>2020-08-09T10:05:58Z</time>
      </trkpt>
      <trkpt lat="48.69478" lon="6.97237">
        <ele>268</ele>
        <time>2020-08-09T10:06:00Z</time>
      </trkpt>
      <trkpt lat="48.6948" lon="6.97226">
        <ele>268</ele>
        <time>2020-08-09T10:06:02Z</time>
      </trkpt>
      <trkpt lat="48.69483" lon="6.97218">
        <ele>269</ele>
        <time>2020-08-09T10:06:04Z</time>
      </trkpt>
      <trkpt lat="48.69487" lon="6.9721">
        <ele>269</ele>
        <time>2020-08-09T10:06:06Z</time>
      </trkpt>
      <trkpt lat="48.69492" lon="6.97202">
        <ele>269</ele>
        <time>2020-08-09T10:06:08Z</time>
      </trkpt>
      <trkpt lat="48.69495" lon="6.97194">
        <ele>269</ele>
        <time>2020-08-09T10:06:10Z</time>
      </trkpt>
      <trkpt lat="48.695" lon="6.9719">
        <ele>269</ele>
        <time>2020-08-09T10:06:12Z</time>
      </trkpt>
      <trkpt lat="48.69502" lon="6.97182">
        <ele>269</ele>
        <time>2020-08-09T10:06:14Z</time>
      </trkpt>
      <trkpt lat="48.69506" lon="6.97175">
        <ele>270</ele>
        <time>2020-08-09T10:06:16Z</time>
      </trkpt>
      <trkpt lat="48.69512" lon="6.97169">
        <ele>270</ele>
        <time>2020-08-09T10:06:18Z</time>
      </trkpt>
      <trkpt lat="48.69517" lon="6.97162">
        <ele>271</ele>
        <time>2020-08-09T10:06:21Z</time>
      </trkpt>
      <trkpt lat="48.69523" lon="6.97151">
        <ele>271</ele>
        <time>2020-08-09T10:06:25Z</time>
      </trkpt>
      <trkpt lat="48.69527" lon="6.97145">
        <ele>272</ele>
        <time>2020-08-09T10:06:27Z</time>
      </trkpt>
      <trkpt lat="48.6953" lon="6.97137">
        <ele>272</ele>
        <time>2020-08-09T10:06:29Z</time>
      </trkpt>
      <trkpt lat="48.69532" lon="6.9713">
        <ele>272</ele>
        <time>2020-08-09T10:06:31Z</time>
      </trkpt>
      <trkpt lat="48.69535" lon="6.97121">
        <ele>272</ele>
        <time>2020-08-09T10:06:33Z</time>
      </trkpt>
      <trkpt lat="48.69536" lon="6.97113">
        <ele>272</ele>
        <time>2020-08-09T10:06:35Z</time>
      </trkpt>
      <trkpt lat="48.69536" lon="6.97103">
        <ele>271</ele>
        <time>2020-08-09T10:06:37Z</time>
      </trkpt>
      <trkpt lat="48.69536" lon="6.97094">
        <ele>271</ele>
        <time>2020-08-09T10:06:39Z</time>
      </trkpt>
      <trkpt lat="48.69539" lon="6.97084">
        <ele>271</ele>
        <time>2020-08-09T10:06:41Z</time>
      </trkpt>
      <trkpt lat="48.69541" lon="6.97075">
        <ele>271</ele>
        <time>2020-08-09T10:06:43Z</time>
      </trkpt>
      <trkpt lat="48.69542" lon="6.97066">
        <ele>271</ele>
        <time>2020-08-09T10:06:45Z</time>
      </trkpt>
      <trkpt lat="48.69545" lon="6.97058">
        <ele>270</ele>
        <time>2020-08-09T10:06:47Z</time>
      </trkpt>
      <trkpt lat="48.69548" lon="6.97049">
        <ele>270</ele>
        <time>2020-08-09T10:06:50Z</time>
      </trkpt>
      <trkpt lat="48.6955" lon="6.97043">
        <ele>270</ele>
        <time>2020-08-09T10:06:56Z</time>
      </trkpt>
      <trkpt lat="48.6955" lon="6.97035">
        <ele>269</ele>
        <time>2020-08-09T10:07:12Z</time>
      </trkpt>
      <trkpt lat="48.69551" lon="6.97026">
        <ele>269</ele>
        <time>2020-08-09T10:07:15Z</time>
      </trkpt>
      <trkpt lat="48.69548" lon="6.97014">
        <ele>268</ele>
        <time>2020-08-09T10:07:17Z</time>
      </trkpt>
      <trkpt lat="48.69546" lon="6.97008">
        <ele>268</ele>
        <time>2020-08-09T10:07:18Z</time>
      </trkpt>
      <trkpt lat="48.69544" lon="6.97">
        <ele>267</ele>
        <time>2020-08-09T10:07:19Z</time>
      </trkpt>
      <trkpt lat="48.69542" lon="6.96992">
        <ele>267</ele>
        <time>2020-08-09T10:07:20Z</time>
      </trkpt>
      <trkpt lat="48.69539" lon="6.96984">
        <ele>267</ele>
        <time>2020-08-09T10:07:21Z</time>
      </trkpt>
      <trkpt lat="48.69535" lon="6.96976">
        <ele>266</ele>
        <time>2020-08-09T10:07:22Z</time>
      </trkpt>
      <trkpt lat="48.69534" lon="6.96968">
        <ele>266</ele>
        <time>2020-08-09T10:07:23Z</time>
      </trkpt>
      <trkpt lat="48.69532" lon="6.96958">
        <ele>265</ele>
        <time>2020-08-09T10:07:24Z</time>
      </trkpt>
      <trkpt lat="48.6953" lon="6.96948">
        <ele>265</ele>
        <time>2020-08-09T10:07:25Z</time>
      </trkpt>
      <trkpt lat="48.69528" lon="6.96939">
        <ele>265</ele>
        <time>2020-08-09T10:07:26Z</time>
      </trkpt>
      <trkpt lat="48.69526" lon="6.96927">
        <ele>265</ele>
        <time>2020-08-09T10:07:27Z</time>
      </trkpt>
      <trkpt lat="48.69526" lon="6.96917">
        <ele>265</ele>
        <time>2020-08-09T10:07:28Z</time>
      </trkpt>
      <trkpt lat="48.69524" lon="6.96904">
        <ele>265</ele>
        <time>2020-08-09T10:07:29Z</time>
      </trkpt>
      <trkpt lat="48.69523" lon="6.96895">
        <ele>265</ele>
        <time>2020-08-09T10:07:30Z</time>
      </trkpt>
      <trkpt lat="48.69522" lon="6.96886">
        <ele>265</ele>
        <time>2020-08-09T10:07:31Z</time>
      </trkpt>
      <trkpt lat="48.69521" lon="6.96877">
        <ele>265</ele>
        <time>2020-08-09T10:07:32Z</time>
      </trkpt>
      <trkpt lat="48.6952" lon="6.96868">
        <ele>265</ele>
        <time>2020-08-09T10:07:33Z</time>
      </trkpt>
      <trkpt lat="48.69519" lon="6.96859">
        <ele>265</ele>
        <time>2020-08-09T10:07:34Z</time>
      </trkpt>
      <trkpt lat="48.69518" lon="6.9685">
        <ele>265</ele>
        <time>2020-08-09T10:07:35Z</time>
      </trkpt>
      <trkpt lat="48.69517" lon="6.96841">
        <ele>265</ele>
        <time>2020-08-09T10:07:36Z</time>
      </trkpt>
      <trkpt lat="48.69516" lon="6.96833">
        <ele>266</ele>
        <time>2020-08-09T10:07:37Z</time>
      </trkpt>
      <trkpt lat="48.69516" lon="6.96826">
        <ele>266</ele>
        <time>2020-08-09T10:07:38Z</time>
      </trkpt>
      <trkpt lat="48.69515" lon="6.96819">
        <ele>266</ele>
        <time>2020-08-09T10:07:39Z</time>
      </trkpt>
      <trkpt lat="48.69513" lon="6.96812">
        <ele>266</ele>
        <time>2020-08-09T10:07:40Z</time>
      </trkpt>
      <trkpt lat="48.69511" lon="6.96804">
        <ele>266</ele>
        <time>2020-08-09T10:07:41Z</time>
      </trkpt>
      <trkpt lat="48.6951" lon="6.96797">
        <ele>267</ele>
        <time>2020-08-09T10:07:42Z</time>
      </trkpt>
      <trkpt lat="48.6951" lon="6.96787">
        <ele>267</ele>
        <time>2020-08-09T10:07:44Z</time>
      </trkpt>
      <trkpt lat="48.69508" lon="6.96775">
        <ele>267</ele>
        <time>2020-08-09T10:07:46Z</time>
      </trkpt>
      <trkpt lat="48.69507" lon="6.96766">
        <ele>267</ele>
        <time>2020-08-09T10:07:48Z</time>
      </trkpt>
      <trkpt lat="48.69505" lon="6.96757">
        <ele>268</ele>
        <time>2020-08-09T10:07:50Z</time>
      </trkpt>
      <trkpt lat="48.69504" lon="6.96749">
        <ele>268</ele>
        <time>2020-08-09T10:07:52Z</time>
      </trkpt>
      <trkpt lat="48.69503" lon="6.96742">
        <ele>269</ele>
        <time>2020-08-09T10:07:54Z</time>
      </trkpt>
      <trkpt lat="48.69502" lon="6.96735">
        <ele>269</ele>
        <time>2020-08-09T10:07:56Z</time>
      </trkpt>
      <trkpt lat="48.695" lon="6.96727">
        <ele>270</ele>
        <time>2020-08-09T10:07:58Z</time>
      </trkpt>
      <trkpt lat="48.69498" lon="6.9672">
        <ele>270</ele>
        <time>2020-08-09T10:08:00Z</time>
      </trkpt>
      <trkpt lat="48.69497" lon="6.9671">
        <ele>271</ele>
        <time>2020-08-09T10:08:03Z</time>
      </trkpt>
      <trkpt lat="48.69496" lon="6.96702">
        <ele>272</ele>
        <time>2020-08-09T10:08:06Z</time>
      </trkpt>
      <trkpt lat="48.6949" lon="6.96701">
        <ele>272</ele>
        <time>2020-08-09T10:08:11Z</time>
      </trkpt>
      <trkpt lat="48.69489" lon="6.96709">
        <ele>271</ele>
        <time>2020-08-09T10:08:31Z</time>
      </trkpt>
      <trkpt lat="48.69449" lon="6.96706">
        <ele>271</ele>
        <time>2020-08-09T11:26:55Z</time>
      </trkpt>
      <trkpt lat="48.6948" lon="6.96702">
        <ele>272</ele>
        <time>2020-08-09T11:27:00Z</time>
      </trkpt>
      <trkpt lat="48.69471" lon="6.967">
        <ele>272</ele>
        <time>2020-08-09T11:27:03Z</time>
      </trkpt>
      <trkpt lat="48.69465" lon="6.96706">
        <ele>272</ele>
        <time>2020-08-09T11:27:08Z</time>
      </trkpt>
      <trkpt lat="48.69459" lon="6.96704">
        <ele>272</ele>
        <time>2020-08-09T11:27:09Z</time>
      </trkpt>
      <trkpt lat="48.69454" lon="6.96704">
        <ele>272</ele>
        <time>2020-08-09T11:27:13Z</time>
      </trkpt>
      <trkpt lat="48.69449" lon="6.96706">
        <ele>272</ele>
        <time>2020-08-09T11:27:17Z</time>
      </trkpt>
      <trkpt lat="48.69442" lon="6.96713">
        <ele>271</ele>
        <time>2020-08-09T11:27:40Z</time>
      </trkpt>
      <trkpt lat="48.69438" lon="6.96718">
        <ele>271</ele>
        <time>2020-08-09T11:27:42Z</time>
      </trkpt>
      <trkpt lat="48.69433" lon="6.96722">
        <ele>271</ele>
        <time>2020-08-09T11:27:44Z</time>
      </trkpt>
      <trkpt lat="48.69427" lon="6.96721">
        <ele>271</ele>
        <time>2020-08-09T11:27:46Z</time>
      </trkpt>
      <trkpt lat="48.69421" lon="6.96718">
        <ele>271</ele>
        <time>2020-08-09T11:27:48Z</time>
      </trkpt>
      <trkpt lat="48.69415" lon="6.96716">
        <ele>271</ele>
        <time>2020-08-09T11:27:50Z</time>
      </trkpt>
      <trkpt lat="48.69409" lon="6.96712">
        <ele>271</ele>
        <time>2020-08-09T11:27:52Z</time>
      </trkpt>
      <trkpt lat="48.69403" lon="6.9671">
        <ele>271</ele>
        <time>2020-08-09T11:27:54Z</time>
      </trkpt>
      <trkpt lat="48.69398" lon="6.96707">
        <ele>271</ele>
        <time>2020-08-09T11:27:56Z</time>
      </trkpt>
      <trkpt lat="48.69392" lon="6.96704">
        <ele>271</ele>
        <time>2020-08-09T11:27:59Z</time>
      </trkpt>
      <trkpt lat="48.69387" lon="6.967">
        <ele>272</ele>
        <time>2020-08-09T11:28:02Z</time>
      </trkpt>
      <trkpt lat="48.69381" lon="6.96696">
        <ele>272</ele>
        <time>2020-08-09T11:28:05Z</time>
      </trkpt>
      <trkpt lat="48.69376" lon="6.96692">
        <ele>272</ele>
        <time>2020-08-09T11:28:08Z</time>
      </trkpt>
      <trkpt lat="48.69372" lon="6.96686">
        <ele>272</ele>
        <time>2020-08-09T11:28:11Z</time>
      </trkpt>
      <trkpt lat="48.69368" lon="6.96683">
        <ele>272</ele>
        <time>2020-08-09T11:28:14Z</time>
      </trkpt>
      <trkpt lat="48.69363" lon="6.96676">
        <ele>272</ele>
        <time>2020-08-09T11:28:17Z</time>
      </trkpt>
      <trkpt lat="48.69359" lon="6.9667">
        <ele>271</ele>
        <time>2020-08-09T11:28:19Z</time>
      </trkpt>
      <trkpt lat="48.69359" lon="6.96661">
        <ele>272</ele>
        <time>2020-08-09T11:28:19Z</time>
      </trkpt>
      <trkpt lat="48.69355" lon="6.96656">
        <ele>271</ele>
        <time>2020-08-09T11:28:22Z</time>
      </trkpt>
      <trkpt lat="48.6935" lon="6.96651">
        <ele>271</ele>
        <time>2020-08-09T11:28:24Z</time>
      </trkpt>
      <trkpt lat="48.69346" lon="6.96645">
        <ele>271</ele>
        <time>2020-08-09T11:28:26Z</time>
      </trkpt>
      <trkpt lat="48.69339" lon="6.96634">
        <ele>271</ele>
        <time>2020-08-09T11:28:30Z</time>
      </trkpt>
      <trkpt lat="48.69335" lon="6.96629">
        <ele>271</ele>
        <time>2020-08-09T11:28:32Z</time>
      </trkpt>
      <trkpt lat="48.69331" lon="6.96623">
        <ele>271</ele>
        <time>2020-08-09T11:28:35Z</time>
      </trkpt>
      <trkpt lat="48.69328" lon="6.96616">
        <ele>271</ele>
        <time>2020-08-09T11:28:37Z</time>
      </trkpt>
      <trkpt lat="48.69323" lon="6.9661">
        <ele>272</ele>
        <time>2020-08-09T11:28:39Z</time>
      </trkpt>
      <trkpt lat="48.6932" lon="6.96601">
        <ele>272</ele>
        <time>2020-08-09T11:28:41Z</time>
      </trkpt>
      <trkpt lat="48.69317" lon="6.96594">
        <ele>271</ele>
        <time>2020-08-09T11:28:43Z</time>
      </trkpt>
      <trkpt lat="48.69313" lon="6.96587">
        <ele>271</ele>
        <time>2020-08-09T11:28:45Z</time>
      </trkpt>
      <trkpt lat="48.69309" lon="6.96581">
        <ele>271</ele>
        <time>2020-08-09T11:28:47Z</time>
      </trkpt>
      <trkpt lat="48.69307" lon="6.96571">
        <ele>271</ele>
        <time>2020-08-09T11:28:49Z</time>
      </trkpt>
      <trkpt lat="48.69304" lon="6.96562">
        <ele>272</ele>
        <time>2020-08-09T11:28:51Z</time>
      </trkpt>
      <trkpt lat="48.69302" lon="6.96554">
        <ele>272</ele>
        <time>2020-08-09T11:28:53Z</time>
      </trkpt>
      <trkpt lat="48.69298" lon="6.96546">
        <ele>272</ele>
        <time>2020-08-09T11:28:55Z</time>
      </trkpt>
      <trkpt lat="48.69295" lon="6.96536">
        <ele>272</ele>
        <time>2020-08-09T11:28:57Z</time>
      </trkpt>
      <trkpt lat="48.69292" lon="6.96526">
        <ele>272</ele>
        <time>2020-08-09T11:28:59Z</time>
      </trkpt>
      <trkpt lat="48.69288" lon="6.96515">
        <ele>272</ele>
        <time>2020-08-09T11:29:01Z</time>
      </trkpt>
      <trkpt lat="48.69283" lon="6.96503">
        <ele>272</ele>
        <time>2020-08-09T11:29:03Z</time>
      </trkpt>
      <trkpt lat="48.6928" lon="6.96492">
        <ele>271</ele>
        <time>2020-08-09T11:29:05Z</time>
      </trkpt>
      <trkpt lat="48.69276" lon="6.96481">
        <ele>271</ele>
        <time>2020-08-09T11:29:07Z</time>
      </trkpt>
      <trkpt lat="48.69273" lon="6.96469">
        <ele>271</ele>
        <time>2020-08-09T11:29:09Z</time>
      </trkpt>
      <trkpt lat="48.69271" lon="6.96458">
        <ele>271</ele>
        <time>2020-08-09T11:29:11Z</time>
      </trkpt>
      <trkpt lat="48.69269" lon="6.96446">
        <ele>271</ele>
        <time>2020-08-09T11:29:13Z</time>
      </trkpt>
      <trkpt lat="48.69266" lon="6.96435">
        <ele>271</ele>
        <time>2020-08-09T11:29:15Z</time>
      </trkpt>
      <trkpt lat="48.69264" lon="6.96422">
        <ele>271</ele>
        <time>2020-08-09T11:29:17Z</time>
      </trkpt>
      <trkpt lat="48.69262" lon="6.9641">
        <ele>271</ele>
        <time>2020-08-09T11:29:19Z</time>
      </trkpt>
      <trkpt lat="48.6926" lon="6.96399">
        <ele>271</ele>
        <time>2020-08-09T11:29:21Z</time>
      </trkpt>
      <trkpt lat="48.69258" lon="6.96388">
        <ele>271</ele>
        <time>2020-08-09T11:29:23Z</time>
      </trkpt>
      <trkpt lat="48.69256" lon="6.96377">
        <ele>271</ele>
        <time>2020-08-09T11:29:25Z</time>
      </trkpt>
      <trkpt lat="48.69253" lon="6.96366">
        <ele>271</ele>
        <time>2020-08-09T11:29:27Z</time>
      </trkpt>
      <trkpt lat="48.6925" lon="6.96354">
        <ele>271</ele>
        <time>2020-08-09T11:29:29Z</time>
      </trkpt>
      <trkpt lat="48.69245" lon="6.96344">
        <ele>270</ele>
        <time>2020-08-09T11:29:31Z</time>
      </trkpt>
      <trkpt lat="48.69242" lon="6.96339">
        <ele>270</ele>
        <time>2020-08-09T11:29:32Z</time>
      </trkpt>
      <trkpt lat="48.69238" lon="6.96334">
        <ele>270</ele>
        <time>2020-08-09T11:29:33Z</time>
      </trkpt>
      <trkpt lat="48.69234" lon="6.96331">
        <ele>270</ele>
        <time>2020-08-09T11:29:34Z</time>
      </trkpt>
      <trkpt lat="48.69229" lon="6.96328">
        <ele>270</ele>
        <time>2020-08-09T11:29:35Z</time>
      </trkpt>
      <trkpt lat="48.69225" lon="6.96324">
        <ele>270</ele>
        <time>2020-08-09T11:29:36Z</time>
      </trkpt>
      <trkpt lat="48.6922" lon="6.9632">
        <ele>270</ele>
        <time>2020-08-09T11:29:37Z</time>
      </trkpt>
      <trkpt lat="48.69216" lon="6.96318">
        <ele>270</ele>
        <time>2020-08-09T11:29:38Z</time>
      </trkpt>
      <trkpt lat="48.69211" lon="6.96315">
        <ele>269</ele>
        <time>2020-08-09T11:29:39Z</time>
      </trkpt>
      <trkpt lat="48.69206" lon="6.96311">
        <ele>269</ele>
        <time>2020-08-09T11:29:40Z</time>
      </trkpt>
      <trkpt lat="48.692" lon="6.96307">
        <ele>269</ele>
        <time>2020-08-09T11:29:41Z</time>
      </trkpt>
      <trkpt lat="48.69195" lon="6.96303">
        <ele>269</ele>
        <time>2020-08-09T11:29:42Z</time>
      </trkpt>
      <trkpt lat="48.6919" lon="6.96299">
        <ele>269</ele>
        <time>2020-08-09T11:29:43Z</time>
      </trkpt>
      <trkpt lat="48.69185" lon="6.96295">
        <ele>269</ele>
        <time>2020-08-09T11:29:44Z</time>
      </trkpt>
      <trkpt lat="48.69181" lon="6.9629">
        <ele>269</ele>
        <time>2020-08-09T11:29:45Z</time>
      </trkpt>
      <trkpt lat="48.69177" lon="6.96284">
        <ele>269</ele>
        <time>2020-08-09T11:29:46Z</time>
      </trkpt>
      <trkpt lat="48.69172" lon="6.96279">
        <ele>269</ele>
        <time>2020-08-09T11:29:47Z</time>
      </trkpt>
      <trkpt lat="48.69168" lon="6.96273">
        <ele>268</ele>
        <time>2020-08-09T11:29:48Z</time>
      </trkpt>
      <trkpt lat="48.69165" lon="6.96267">
        <ele>268</ele>
        <time>2020-08-09T11:29:49Z</time>
      </trkpt>
      <trkpt lat="48.69163" lon="6.96259">
        <ele>268</ele>
        <time>2020-08-09T11:29:50Z</time>
      </trkpt>
      <trkpt lat="48.69162" lon="6.9625">
        <ele>268</ele>
        <time>2020-08-09T11:29:51Z</time>
      </trkpt>
      <trkpt lat="48.69161" lon="6.96242">
        <ele>268</ele>
        <time>2020-08-09T11:29:52Z</time>
      </trkpt>
      <trkpt lat="48.69161" lon="6.96234">
        <ele>268</ele>
        <time>2020-08-09T11:29:53Z</time>
      </trkpt>
      <trkpt lat="48.69161" lon="6.96227">
        <ele>268</ele>
        <time>2020-08-09T11:29:54Z</time>
      </trkpt>
      <trkpt lat="48.69162" lon="6.9622">
        <ele>268</ele>
        <time>2020-08-09T11:29:55Z</time>
      </trkpt>
      <trkpt lat="48.69161" lon="6.96213">
        <ele>269</ele>
        <time>2020-08-09T11:29:56Z</time>
      </trkpt>
      <trkpt lat="48.6916" lon="6.96206">
        <ele>269</ele>
        <time>2020-08-09T11:29:57Z</time>
      </trkpt>
      <trkpt lat="48.69159" lon="6.96194">
        <ele>269</ele>
        <time>2020-08-09T11:29:59Z</time>
      </trkpt>
      <trkpt lat="48.69158" lon="6.96183">
        <ele>270</ele>
        <time>2020-08-09T11:30:01Z</time>
      </trkpt>
      <trkpt lat="48.69154" lon="6.96173">
        <ele>270</ele>
        <time>2020-08-09T11:30:03Z</time>
      </trkpt>
      <trkpt lat="48.69151" lon="6.96163">
        <ele>270</ele>
        <time>2020-08-09T11:30:05Z</time>
      </trkpt>
      <trkpt lat="48.69148" lon="6.96154">
        <ele>270</ele>
        <time>2020-08-09T11:30:07Z</time>
      </trkpt>
      <trkpt lat="48.69143" lon="6.96145">
        <ele>270</ele>
        <time>2020-08-09T11:30:09Z</time>
      </trkpt>
      <trkpt lat="48.69138" lon="6.96135">
        <ele>270</ele>
        <time>2020-08-09T11:30:11Z</time>
      </trkpt>
      <trkpt lat="48.69133" lon="6.96126">
        <ele>270</ele>
        <time>2020-08-09T11:30:13Z</time>
      </trkpt>
      <trkpt lat="48.69129" lon="6.96121">
        <ele>270</ele>
        <time>2020-08-09T11:30:14Z</time>
      </trkpt>
      <trkpt lat="48.69122" lon="6.96111">
        <ele>270</ele>
        <time>2020-08-09T11:30:16Z</time>
      </trkpt>
      <trkpt lat="48.69119" lon="6.96105">
        <ele>270</ele>
        <time>2020-08-09T11:30:17Z</time>
      </trkpt>
      <trkpt lat="48.69115" lon="6.961">
        <ele>269</ele>
        <time>2020-08-09T11:30:18Z</time>
      </trkpt>
      <trkpt lat="48.69111" lon="6.96095">
        <ele>269</ele>
        <time>2020-08-09T11:30:19Z</time>
      </trkpt>
      <trkpt lat="48.69106" lon="6.96089">
        <ele>269</ele>
        <time>2020-08-09T11:30:20Z</time>
      </trkpt>
      <trkpt lat="48.69102" lon="6.96083">
        <ele>269</ele>
        <time>2020-08-09T11:30:21Z</time>
      </trkpt>
      <trkpt lat="48.69098" lon="6.96077">
        <ele>269</ele>
        <time>2020-08-09T11:30:22Z</time>
      </trkpt>
      <trkpt lat="48.69093" lon="6.96071">
        <ele>269</ele>
        <time>2020-08-09T11:30:23Z</time>
      </trkpt>
      <trkpt lat="48.69088" lon="6.96065">
        <ele>269</ele>
        <time>2020-08-09T11:30:24Z</time>
      </trkpt>
      <trkpt lat="48.69084" lon="6.96058">
        <ele>269</ele>
        <time>2020-08-09T11:30:25Z</time>
      </trkpt>
      <trkpt lat="48.69079" lon="6.96051">
        <ele>269</ele>
        <time>2020-08-09T11:30:26Z</time>
      </trkpt>
      <trkpt lat="48.69075" lon="6.96044">
        <ele>268</ele>
        <time>2020-08-09T11:30:27Z</time>
      </trkpt>
      <trkpt lat="48.6907" lon="6.96037">
        <ele>268</ele>
        <time>2020-08-09T11:30:28Z</time>
      </trkpt>
      <trkpt lat="48.69066" lon="6.9603">
        <ele>268</ele>
        <time>2020-08-09T11:30:29Z</time>
      </trkpt>
      <trkpt lat="48.69063" lon="6.96022">
        <ele>268</ele>
        <time>2020-08-09T11:30:30Z</time>
      </trkpt>
      <trkpt lat="48.69059" lon="6.96015">
        <ele>268</ele>
        <time>2020-08-09T11:30:31Z</time>
      </trkpt>
      <trkpt lat="48.69056" lon="6.96007">
        <ele>268</ele>
        <time>2020-08-09T11:30:32Z</time>
      </trkpt>
      <trkpt lat="48.69053" lon="6.96">
        <ele>268</ele>
        <time>2020-08-09T11:30:33Z</time>
      </trkpt>
      <trkpt lat="48.69051" lon="6.95993">
        <ele>268</ele>
        <time>2020-08-09T11:30:34Z</time>
      </trkpt>
      <trkpt lat="48.69049" lon="6.95985">
        <ele>267</ele>
        <time>2020-08-09T11:30:35Z</time>
      </trkpt>
      <trkpt lat="48.69047" lon="6.95978">
        <ele>267</ele>
        <time>2020-08-09T11:30:36Z</time>
      </trkpt>
      <trkpt lat="48.69045" lon="6.95971">
        <ele>267</ele>
        <time>2020-08-09T11:30:37Z</time>
      </trkpt>
      <trkpt lat="48.69043" lon="6.95964">
        <ele>267</ele>
        <time>2020-08-09T11:30:38Z</time>
      </trkpt>
      <trkpt lat="48.69041" lon="6.95957">
        <ele>267</ele>
        <time>2020-08-09T11:30:39Z</time>
      </trkpt>
      <trkpt lat="48.69039" lon="6.95951">
        <ele>268</ele>
        <time>2020-08-09T11:30:40Z</time>
      </trkpt>
      <trkpt lat="48.69037" lon="6.95944">
        <ele>267</ele>
        <time>2020-08-09T11:30:41Z</time>
      </trkpt>
      <trkpt lat="48.69035" lon="6.95937">
        <ele>268</ele>
        <time>2020-08-09T11:30:42Z</time>
      </trkpt>
      <trkpt lat="48.69031" lon="6.95926">
        <ele>267</ele>
        <time>2020-08-09T11:30:44Z</time>
      </trkpt>
      <trkpt lat="48.69029" lon="6.95919">
        <ele>268</ele>
        <time>2020-08-09T11:30:45Z</time>
      </trkpt>
      <trkpt lat="48.69027" lon="6.95913">
        <ele>267</ele>
        <time>2020-08-09T11:30:46Z</time>
      </trkpt>
      <trkpt lat="48.69025" lon="6.95906">
        <ele>267</ele>
        <time>2020-08-09T11:30:47Z</time>
      </trkpt>
      <trkpt lat="48.69022" lon="6.95899">
        <ele>267</ele>
        <time>2020-08-09T11:30:48Z</time>
      </trkpt>
      <trkpt lat="48.6902" lon="6.95893">
        <ele>267</ele>
        <time>2020-08-09T11:30:49Z</time>
      </trkpt>
      <trkpt lat="48.69018" lon="6.95886">
        <ele>267</ele>
        <time>2020-08-09T11:30:50Z</time>
      </trkpt>
      <trkpt lat="48.69016" lon="6.95879">
        <ele>267</ele>
        <time>2020-08-09T11:30:51Z</time>
      </trkpt>
      <trkpt lat="48.69013" lon="6.95871">
        <ele>267</ele>
        <time>2020-08-09T11:30:52Z</time>
      </trkpt>
      <trkpt lat="48.6901" lon="6.95864">
        <ele>267</ele>
        <time>2020-08-09T11:30:53Z</time>
      </trkpt>
      <trkpt lat="48.69007" lon="6.95857">
        <ele>267</ele>
        <time>2020-08-09T11:30:54Z</time>
      </trkpt>
      <trkpt lat="48.69004" lon="6.95849">
        <ele>267</ele>
        <time>2020-08-09T11:30:55Z</time>
      </trkpt>
      <trkpt lat="48.69002" lon="6.95842">
        <ele>267</ele>
        <time>2020-08-09T11:30:56Z</time>
      </trkpt>
      <trkpt lat="48.68999" lon="6.95834">
        <ele>267</ele>
        <time>2020-08-09T11:30:57Z</time>
      </trkpt>
      <trkpt lat="48.68996" lon="6.95826">
        <ele>267</ele>
        <time>2020-08-09T11:30:58Z</time>
      </trkpt>
      <trkpt lat="48.68994" lon="6.95819">
        <ele>268</ele>
        <time>2020-08-09T11:30:59Z</time>
      </trkpt>
      <trkpt lat="48.68991" lon="6.95811">
        <ele>268</ele>
        <time>2020-08-09T11:31:00Z</time>
      </trkpt>
      <trkpt lat="48.68988" lon="6.95804">
        <ele>267</ele>
        <time>2020-08-09T11:31:01Z</time>
      </trkpt>
      <trkpt lat="48.68984" lon="6.95797">
        <ele>267</ele>
        <time>2020-08-09T11:31:02Z</time>
      </trkpt>
      <trkpt lat="48.68981" lon="6.9579">
        <ele>267</ele>
        <time>2020-08-09T11:31:03Z</time>
      </trkpt>
      <trkpt lat="48.68978" lon="6.95783">
        <ele>267</ele>
        <time>2020-08-09T11:31:04Z</time>
      </trkpt>
      <trkpt lat="48.68975" lon="6.95776">
        <ele>267</ele>
        <time>2020-08-09T11:31:05Z</time>
      </trkpt>
      <trkpt lat="48.68972" lon="6.95769">
        <ele>268</ele>
        <time>2020-08-09T11:31:06Z</time>
      </trkpt>
      <trkpt lat="48.68969" lon="6.95762">
        <ele>268</ele>
        <time>2020-08-09T11:31:07Z</time>
      </trkpt>
      <trkpt lat="48.68966" lon="6.95755">
        <ele>268</ele>
        <time>2020-08-09T11:31:08Z</time>
      </trkpt>
      <trkpt lat="48.68962" lon="6.95747">
        <ele>268</ele>
        <time>2020-08-09T11:31:09Z</time>
      </trkpt>
      <trkpt lat="48.68959" lon="6.95741">
        <ele>268</ele>
        <time>2020-08-09T11:31:10Z</time>
      </trkpt>
      <trkpt lat="48.68956" lon="6.95734">
        <ele>268</ele>
        <time>2020-08-09T11:31:11Z</time>
      </trkpt>
      <trkpt lat="48.68953" lon="6.95727">
        <ele>268</ele>
        <time>2020-08-09T11:31:12Z</time>
      </trkpt>
      <trkpt lat="48.6895" lon="6.9572">
        <ele>267</ele>
        <time>2020-08-09T11:31:13Z</time>
      </trkpt>
      <trkpt lat="48.68948" lon="6.95713">
        <ele>267</ele>
        <time>2020-08-09T11:31:14Z</time>
      </trkpt>
      <trkpt lat="48.68945" lon="6.95706">
        <ele>267</ele>
        <time>2020-08-09T11:31:15Z</time>
      </trkpt>
      <trkpt lat="48.68943" lon="6.95698">
        <ele>267</ele>
        <time>2020-08-09T11:31:16Z</time>
      </trkpt>
      <trkpt lat="48.6894" lon="6.95692">
        <ele>267</ele>
        <time>2020-08-09T11:31:17Z</time>
      </trkpt>
      <trkpt lat="48.68937" lon="6.95685">
        <ele>267</ele>
        <time>2020-08-09T11:31:18Z</time>
      </trkpt>
      <trkpt lat="48.68935" lon="6.95678">
        <ele>267</ele>
        <time>2020-08-09T11:31:19Z</time>
      </trkpt>
      <trkpt lat="48.68932" lon="6.95671">
        <ele>267</ele>
        <time>2020-08-09T11:31:20Z</time>
      </trkpt>
      <trkpt lat="48.6893" lon="6.95665">
        <ele>267</ele>
        <time>2020-08-09T11:31:21Z</time>
      </trkpt>
      <trkpt lat="48.68928" lon="6.95658">
        <ele>267</ele>
        <time>2020-08-09T11:31:22Z</time>
      </trkpt>
      <trkpt lat="48.68926" lon="6.95651">
        <ele>267</ele>
        <time>2020-08-09T11:31:23Z</time>
      </trkpt>
      <trkpt lat="48.68922" lon="6.95645">
        <ele>267</ele>
        <time>2020-08-09T11:31:24Z</time>
      </trkpt>
      <trkpt lat="48.68921" lon="6.95637">
        <ele>267</ele>
        <time>2020-08-09T11:31:25Z</time>
      </trkpt>
      <trkpt lat="48.68918" lon="6.9563">
        <ele>267</ele>
        <time>2020-08-09T11:31:26Z</time>
      </trkpt>
      <trkpt lat="48.68915" lon="6.9562">
        <ele>267</ele>
        <time>2020-08-09T11:31:28Z</time>
      </trkpt>
      <trkpt lat="48.68913" lon="6.95613">
        <ele>267</ele>
        <time>2020-08-09T11:31:29Z</time>
      </trkpt>
      <trkpt lat="48.68908" lon="6.95601">
        <ele>267</ele>
        <time>2020-08-09T11:31:31Z</time>
      </trkpt>
      <trkpt lat="48.68905" lon="6.9559">
        <ele>268</ele>
        <time>2020-08-09T11:31:33Z</time>
      </trkpt>
      <trkpt lat="48.68902" lon="6.95584">
        <ele>268</ele>
        <time>2020-08-09T11:31:34Z</time>
      </trkpt>
      <trkpt lat="48.689" lon="6.95576">
        <ele>268</ele>
        <time>2020-08-09T11:31:35Z</time>
      </trkpt>
      <trkpt lat="48.68896" lon="6.95565">
        <ele>268</ele>
        <time>2020-08-09T11:31:37Z</time>
      </trkpt>
      <trkpt lat="48.68894" lon="6.95559">
        <ele>268</ele>
        <time>2020-08-09T11:31:38Z</time>
      </trkpt>
      <trkpt lat="48.68889" lon="6.95548">
        <ele>268</ele>
        <time>2020-08-09T11:31:40Z</time>
      </trkpt>
      <trkpt lat="48.68885" lon="6.95543">
        <ele>268</ele>
        <time>2020-08-09T11:31:41Z</time>
      </trkpt>
      <trkpt lat="48.68881" lon="6.9553">
        <ele>268</ele>
        <time>2020-08-09T11:31:43Z</time>
      </trkpt>
      <trkpt lat="48.68878" lon="6.95524">
        <ele>268</ele>
        <time>2020-08-09T11:31:44Z</time>
      </trkpt>
      <trkpt lat="48.68875" lon="6.95519">
        <ele>268</ele>
        <time>2020-08-09T11:31:45Z</time>
      </trkpt>
      <trkpt lat="48.68871" lon="6.95513">
        <ele>268</ele>
        <time>2020-08-09T11:31:46Z</time>
      </trkpt>
      <trkpt lat="48.68867" lon="6.95507">
        <ele>268</ele>
        <time>2020-08-09T11:31:47Z</time>
      </trkpt>
      <trkpt lat="48.68863" lon="6.95501">
        <ele>268</ele>
        <time>2020-08-09T11:31:48Z</time>
      </trkpt>
      <trkpt lat="48.6886" lon="6.95495">
        <ele>268</ele>
        <time>2020-08-09T11:31:49Z</time>
      </trkpt>
      <trkpt lat="48.68855" lon="6.9549">
        <ele>267</ele>
        <time>2020-08-09T11:31:50Z</time>
      </trkpt>
      <trkpt lat="48.6885" lon="6.95487">
        <ele>267</ele>
        <time>2020-08-09T11:31:51Z</time>
      </trkpt>
      <trkpt lat="48.68845" lon="6.9548">
        <ele>267</ele>
        <time>2020-08-09T11:31:52Z</time>
      </trkpt>
      <trkpt lat="48.68842" lon="6.95475">
        <ele>267</ele>
        <time>2020-08-09T11:31:53Z</time>
      </trkpt>
      <trkpt lat="48.68838" lon="6.9547">
        <ele>267</ele>
        <time>2020-08-09T11:31:54Z</time>
      </trkpt>
      <trkpt lat="48.68833" lon="6.95466">
        <ele>267</ele>
        <time>2020-08-09T11:31:55Z</time>
      </trkpt>
      <trkpt lat="48.68829" lon="6.95462">
        <ele>267</ele>
        <time>2020-08-09T11:31:56Z</time>
      </trkpt>
      <trkpt lat="48.68824" lon="6.95458">
        <ele>267</ele>
        <time>2020-08-09T11:31:57Z</time>
      </trkpt>
      <trkpt lat="48.68819" lon="6.95454">
        <ele>266</ele>
        <time>2020-08-09T11:31:58Z</time>
      </trkpt>
      <trkpt lat="48.68815" lon="6.9545">
        <ele>266</ele>
        <time>2020-08-09T11:31:59Z</time>
      </trkpt>
      <trkpt lat="48.68811" lon="6.95445">
        <ele>266</ele>
        <time>2020-08-09T11:32:00Z</time>
      </trkpt>
      <trkpt lat="48.68807" lon="6.9544">
        <ele>266</ele>
        <time>2020-08-09T11:32:01Z</time>
      </trkpt>
      <trkpt lat="48.68804" lon="6.95434">
        <ele>267</ele>
        <time>2020-08-09T11:32:02Z</time>
      </trkpt>
      <trkpt lat="48.68799" lon="6.95427">
        <ele>267</ele>
        <time>2020-08-09T11:32:03Z</time>
      </trkpt>
      <trkpt lat="48.68795" lon="6.95422">
        <ele>266</ele>
        <time>2020-08-09T11:32:04Z</time>
      </trkpt>
      <trkpt lat="48.68791" lon="6.95416">
        <ele>266</ele>
        <time>2020-08-09T11:32:05Z</time>
      </trkpt>
      <trkpt lat="48.68788" lon="6.9541">
        <ele>266</ele>
        <time>2020-08-09T11:32:06Z</time>
      </trkpt>
      <trkpt lat="48.68786" lon="6.95404">
        <ele>266</ele>
        <time>2020-08-09T11:32:07Z</time>
      </trkpt>
      <trkpt lat="48.6878" lon="6.95392">
        <ele>266</ele>
        <time>2020-08-09T11:32:09Z</time>
      </trkpt>
      <trkpt lat="48.68777" lon="6.95386">
        <ele>266</ele>
        <time>2020-08-09T11:32:10Z</time>
      </trkpt>
      <trkpt lat="48.68774" lon="6.9538">
        <ele>266</ele>
        <time>2020-08-09T11:32:11Z</time>
      </trkpt>
      <trkpt lat="48.68773" lon="6.95374">
        <ele>266</ele>
        <time>2020-08-09T11:32:12Z</time>
      </trkpt>
      <trkpt lat="48.6877" lon="6.95368">
        <ele>266</ele>
        <time>2020-08-09T11:32:13Z</time>
      </trkpt>
      <trkpt lat="48.68767" lon="6.95356">
        <ele>267</ele>
        <time>2020-08-09T11:32:15Z</time>
      </trkpt>
      <trkpt lat="48.68764" lon="6.95345">
        <ele>267</ele>
        <time>2020-08-09T11:32:17Z</time>
      </trkpt>
      <trkpt lat="48.68762" lon="6.95332">
        <ele>267</ele>
        <time>2020-08-09T11:32:19Z</time>
      </trkpt>
      <trkpt lat="48.68759" lon="6.9532">
        <ele>267</ele>
        <time>2020-08-09T11:32:21Z</time>
      </trkpt>
      <trkpt lat="48.68755" lon="6.95308">
        <ele>268</ele>
        <time>2020-08-09T11:32:23Z</time>
      </trkpt>
      <trkpt lat="48.68752" lon="6.95297">
        <ele>268</ele>
        <time>2020-08-09T11:32:25Z</time>
      </trkpt>
      <trkpt lat="48.6875" lon="6.95287">
        <ele>268</ele>
        <time>2020-08-09T11:32:27Z</time>
      </trkpt>
      <trkpt lat="48.68745" lon="6.95276">
        <ele>268</ele>
        <time>2020-08-09T11:32:29Z</time>
      </trkpt>
      <trkpt lat="48.68741" lon="6.95267">
        <ele>269</ele>
        <time>2020-08-09T11:32:31Z</time>
      </trkpt>
      <trkpt lat="48.68739" lon="6.95259">
        <ele>269</ele>
        <time>2020-08-09T11:32:33Z</time>
      </trkpt>
      <trkpt lat="48.68737" lon="6.95251">
        <ele>269</ele>
        <time>2020-08-09T11:32:35Z</time>
      </trkpt>
      <trkpt lat="48.68733" lon="6.95242">
        <ele>269</ele>
        <time>2020-08-09T11:32:37Z</time>
      </trkpt>
      <trkpt lat="48.6873" lon="6.95234">
        <ele>269</ele>
        <time>2020-08-09T11:32:39Z</time>
      </trkpt>
      <trkpt lat="48.68729" lon="6.95226">
        <ele>270</ele>
        <time>2020-08-09T11:32:41Z</time>
      </trkpt>
      <trkpt lat="48.68726" lon="6.9522">
        <ele>270</ele>
        <time>2020-08-09T11:32:43Z</time>
      </trkpt>
      <trkpt lat="48.68722" lon="6.95214">
        <ele>270</ele>
        <time>2020-08-09T11:32:45Z</time>
      </trkpt>
      <trkpt lat="48.68717" lon="6.95206">
        <ele>269</ele>
        <time>2020-08-09T11:32:47Z</time>
      </trkpt>
      <trkpt lat="48.68712" lon="6.95198">
        <ele>269</ele>
        <time>2020-08-09T11:32:49Z</time>
      </trkpt>
      <trkpt lat="48.68706" lon="6.95191">
        <ele>269</ele>
        <time>2020-08-09T11:32:51Z</time>
      </trkpt>
      <trkpt lat="48.68702" lon="6.95187">
        <ele>269</ele>
        <time>2020-08-09T11:32:52Z</time>
      </trkpt>
      <trkpt lat="48.68697" lon="6.95177">
        <ele>269</ele>
        <time>2020-08-09T11:32:54Z</time>
      </trkpt>
      <trkpt lat="48.68694" lon="6.95171">
        <ele>269</ele>
        <time>2020-08-09T11:32:55Z</time>
      </trkpt>
      <trkpt lat="48.68689" lon="6.9516">
        <ele>269</ele>
        <time>2020-08-09T11:32:57Z</time>
      </trkpt>
      <trkpt lat="48.68685" lon="6.95156">
        <ele>268</ele>
        <time>2020-08-09T11:32:58Z</time>
      </trkpt>
      <trkpt lat="48.68679" lon="6.95147">
        <ele>269</ele>
        <time>2020-08-09T11:33:00Z</time>
      </trkpt>
      <trkpt lat="48.68676" lon="6.95142">
        <ele>269</ele>
        <time>2020-08-09T11:33:01Z</time>
      </trkpt>
      <trkpt lat="48.68671" lon="6.95131">
        <ele>269</ele>
        <time>2020-08-09T11:33:03Z</time>
      </trkpt>
      <trkpt lat="48.68667" lon="6.95126">
        <ele>269</ele>
        <time>2020-08-09T11:33:04Z</time>
      </trkpt>
      <trkpt lat="48.68662" lon="6.95116">
        <ele>269</ele>
        <time>2020-08-09T11:33:06Z</time>
      </trkpt>
      <trkpt lat="48.68657" lon="6.95106">
        <ele>268</ele>
        <time>2020-08-09T11:33:08Z</time>
      </trkpt>
      <trkpt lat="48.68652" lon="6.95097">
        <ele>267</ele>
        <time>2020-08-09T11:33:10Z</time>
      </trkpt>
      <trkpt lat="48.68648" lon="6.95091">
        <ele>267</ele>
        <time>2020-08-09T11:33:12Z</time>
      </trkpt>
      <trkpt lat="48.68642" lon="6.95081">
        <ele>267</ele>
        <time>2020-08-09T11:33:14Z</time>
      </trkpt>
      <trkpt lat="48.68639" lon="6.95075">
        <ele>267</ele>
        <time>2020-08-09T11:33:15Z</time>
      </trkpt>
      <trkpt lat="48.68634" lon="6.95066">
        <ele>266</ele>
        <time>2020-08-09T11:33:17Z</time>
      </trkpt>
      <trkpt lat="48.68626" lon="6.95068">
        <ele>266</ele>
        <time>2020-08-09T11:33:19Z</time>
      </trkpt>
      <trkpt lat="48.68619" lon="6.95074">
        <ele>266</ele>
        <time>2020-08-09T11:33:21Z</time>
      </trkpt>
      <trkpt lat="48.68615" lon="6.95077">
        <ele>266</ele>
        <time>2020-08-09T11:33:22Z</time>
      </trkpt>
      <trkpt lat="48.68607" lon="6.95082">
        <ele>267</ele>
        <time>2020-08-09T11:33:24Z</time>
      </trkpt>
      <trkpt lat="48.68599" lon="6.95087">
        <ele>267</ele>
        <time>2020-08-09T11:33:26Z</time>
      </trkpt>
      <trkpt lat="48.68589" lon="6.95092">
        <ele>266</ele>
        <time>2020-08-09T11:33:28Z</time>
      </trkpt>
      <trkpt lat="48.68585" lon="6.95098">
        <ele>265</ele>
        <time>2020-08-09T11:33:29Z</time>
      </trkpt>
      <trkpt lat="48.68581" lon="6.95107">
        <ele>264</ele>
        <time>2020-08-09T11:33:31Z</time>
      </trkpt>
      <trkpt lat="48.68584" lon="6.95119">
        <ele>264</ele>
        <time>2020-08-09T11:33:33Z</time>
      </trkpt>
      <trkpt lat="48.68587" lon="6.95131">
        <ele>264</ele>
        <time>2020-08-09T11:33:35Z</time>
      </trkpt>
      <trkpt lat="48.68591" lon="6.95143">
        <ele>264</ele>
        <time>2020-08-09T11:33:37Z</time>
      </trkpt>
      <trkpt lat="48.68595" lon="6.95155">
        <ele>264</ele>
        <time>2020-08-09T11:33:39Z</time>
      </trkpt>
      <trkpt lat="48.68597" lon="6.95168">
        <ele>264</ele>
        <time>2020-08-09T11:33:41Z</time>
      </trkpt>
      <trkpt lat="48.68601" lon="6.95181">
        <ele>265</ele>
        <time>2020-08-09T11:33:43Z</time>
      </trkpt>
      <trkpt lat="48.68604" lon="6.95193">
        <ele>265</ele>
        <time>2020-08-09T11:33:45Z</time>
      </trkpt>
      <trkpt lat="48.68605" lon="6.95205">
        <ele>265</ele>
        <time>2020-08-09T11:33:47Z</time>
      </trkpt>
      <trkpt lat="48.68604" lon="6.95217">
        <ele>265</ele>
        <time>2020-08-09T11:33:49Z</time>
      </trkpt>
      <trkpt lat="48.686" lon="6.95227">
        <ele>265</ele>
        <time>2020-08-09T11:33:51Z</time>
      </trkpt>
      <trkpt lat="48.68594" lon="6.95235">
        <ele>265</ele>
        <time>2020-08-09T11:33:53Z</time>
      </trkpt>
      <trkpt lat="48.68589" lon="6.95239">
        <ele>265</ele>
        <time>2020-08-09T11:33:55Z</time>
      </trkpt>
      <trkpt lat="48.68583" lon="6.95243">
        <ele>265</ele>
        <time>2020-08-09T11:33:57Z</time>
      </trkpt>
      <trkpt lat="48.68578" lon="6.95248">
        <ele>264</ele>
        <time>2020-08-09T11:33:59Z</time>
      </trkpt>
      <trkpt lat="48.68573" lon="6.95253">
        <ele>264</ele>
        <time>2020-08-09T11:34:01Z</time>
      </trkpt>
      <trkpt lat="48.68569" lon="6.95257">
        <ele>264</ele>
        <time>2020-08-09T11:34:03Z</time>
      </trkpt>
      <trkpt lat="48.68565" lon="6.9526">
        <ele>264</ele>
        <time>2020-08-09T11:34:05Z</time>
      </trkpt>
      <trkpt lat="48.6856" lon="6.95263">
        <ele>264</ele>
        <time>2020-08-09T11:34:07Z</time>
      </trkpt>
      <trkpt lat="48.68556" lon="6.95266">
        <ele>264</ele>
        <time>2020-08-09T11:34:09Z</time>
      </trkpt>
      <trkpt lat="48.6855" lon="6.95272">
        <ele>264</ele>
        <time>2020-08-09T11:34:12Z</time>
      </trkpt>
      <trkpt lat="48.68545" lon="6.95276">
        <ele>265</ele>
        <time>2020-08-09T11:34:15Z</time>
      </trkpt>
      <trkpt lat="48.68539" lon="6.95281">
        <ele>265</ele>
        <time>2020-08-09T11:34:18Z</time>
      </trkpt>
      <trkpt lat="48.68534" lon="6.95285">
        <ele>266</ele>
        <time>2020-08-09T11:34:21Z</time>
      </trkpt>
      <trkpt lat="48.68529" lon="6.9529">
        <ele>266</ele>
        <time>2020-08-09T11:34:25Z</time>
      </trkpt>
      <trkpt lat="48.68524" lon="6.95295">
        <ele>267</ele>
        <time>2020-08-09T11:34:28Z</time>
      </trkpt>
      <trkpt lat="48.6852" lon="6.953">
        <ele>267</ele>
        <time>2020-08-09T11:34:31Z</time>
      </trkpt>
      <trkpt lat="48.68523" lon="6.95305">
        <ele>267</ele>
        <time>2020-08-09T11:34:51Z</time>
      </trkpt>
      <trkpt lat="48.68523" lon="6.95298">
        <ele>267</ele>
        <time>2020-08-09T11:34:54Z</time>
      </trkpt>
      <trkpt lat="48.68517" lon="6.95298">
        <ele>267</ele>
        <time>2020-08-09T11:35:04Z</time>
      </trkpt>
      <trkpt lat="48.68513" lon="6.95301">
        <ele>268</ele>
        <time>2020-08-09T11:35:06Z</time>
      </trkpt>
      <trkpt lat="48.68505" lon="6.95307">
        <ele>268</ele>
        <time>2020-08-09T11:35:08Z</time>
      </trkpt>
      <trkpt lat="48.68495" lon="6.95311">
        <ele>268</ele>
        <time>2020-08-09T11:35:10Z</time>
      </trkpt>
      <trkpt lat="48.6849" lon="6.9531">
        <ele>267</ele>
        <time>2020-08-09T11:35:11Z</time>
      </trkpt>
      <trkpt lat="48.68485" lon="6.95307">
        <ele>267</ele>
        <time>2020-08-09T11:35:12Z</time>
      </trkpt>
      <trkpt lat="48.68481" lon="6.95303">
        <ele>267</ele>
        <time>2020-08-09T11:35:13Z</time>
      </trkpt>
      <trkpt lat="48.68476" lon="6.953">
        <ele>267</ele>
        <time>2020-08-09T11:35:14Z</time>
      </trkpt>
      <trkpt lat="48.68473" lon="6.95295">
        <ele>267</ele>
        <time>2020-08-09T11:35:15Z</time>
      </trkpt>
      <trkpt lat="48.68464" lon="6.9528">
        <ele>267</ele>
        <time>2020-08-09T11:35:18Z</time>
      </trkpt>
      <trkpt lat="48.68459" lon="6.95276">
        <ele>267</ele>
        <time>2020-08-09T11:35:19Z</time>
      </trkpt>
      <trkpt lat="48.68455" lon="6.95266">
        <ele>266</ele>
        <time>2020-08-09T11:35:21Z</time>
      </trkpt>
      <trkpt lat="48.68448" lon="6.9526">
        <ele>266</ele>
        <time>2020-08-09T11:35:23Z</time>
      </trkpt>
      <trkpt lat="48.6844" lon="6.95254">
        <ele>266</ele>
        <time>2020-08-09T11:35:25Z</time>
      </trkpt>
      <trkpt lat="48.68431" lon="6.95241">
        <ele>266</ele>
        <time>2020-08-09T11:35:28Z</time>
      </trkpt>
      <trkpt lat="48.68425" lon="6.95233">
        <ele>266</ele>
        <time>2020-08-09T11:35:30Z</time>
      </trkpt>
      <trkpt lat="48.68419" lon="6.95224">
        <ele>266</ele>
        <time>2020-08-09T11:35:32Z</time>
      </trkpt>
      <trkpt lat="48.68412" lon="6.95216">
        <ele>266</ele>
        <time>2020-08-09T11:35:34Z</time>
      </trkpt>
      <trkpt lat="48.68406" lon="6.95208">
        <ele>266</ele>
        <time>2020-08-09T11:35:36Z</time>
      </trkpt>
      <trkpt lat="48.68399" lon="6.95202">
        <ele>266</ele>
        <time>2020-08-09T11:35:38Z</time>
      </trkpt>
      <trkpt lat="48.68393" lon="6.95195">
        <ele>266</ele>
        <time>2020-08-09T11:35:40Z</time>
      </trkpt>
      <trkpt lat="48.68385" lon="6.95189">
        <ele>266</ele>
        <time>2020-08-09T11:35:42Z</time>
      </trkpt>
      <trkpt lat="48.68378" lon="6.9518">
        <ele>266</ele>
        <time>2020-08-09T11:35:44Z</time>
      </trkpt>
      <trkpt lat="48.68375" lon="6.95176">
        <ele>266</ele>
        <time>2020-08-09T11:35:45Z</time>
      </trkpt>
      <trkpt lat="48.68368" lon="6.95168">
        <ele>266</ele>
        <time>2020-08-09T11:35:47Z</time>
      </trkpt>
      <trkpt lat="48.68362" lon="6.9516">
        <ele>266</ele>
        <time>2020-08-09T11:35:49Z</time>
      </trkpt>
      <trkpt lat="48.68356" lon="6.95151">
        <ele>266</ele>
        <time>2020-08-09T11:35:51Z</time>
      </trkpt>
      <trkpt lat="48.68349" lon="6.95142">
        <ele>266</ele>
        <time>2020-08-09T11:35:53Z</time>
      </trkpt>
      <trkpt lat="48.68342" lon="6.95134">
        <ele>266</ele>
        <time>2020-08-09T11:35:55Z</time>
      </trkpt>
      <trkpt lat="48.68335" lon="6.95125">
        <ele>266</ele>
        <time>2020-08-09T11:35:57Z</time>
      </trkpt>
      <trkpt lat="48.68328" lon="6.95116">
        <ele>266</ele>
        <time>2020-08-09T11:35:59Z</time>
      </trkpt>
      <trkpt lat="48.68325" lon="6.9511">
        <ele>266</ele>
        <time>2020-08-09T11:36:00Z</time>
      </trkpt>
      <trkpt lat="48.68318" lon="6.95104">
        <ele>267</ele>
        <time>2020-08-09T11:36:02Z</time>
      </trkpt>
      <trkpt lat="48.68311" lon="6.95096">
        <ele>267</ele>
        <time>2020-08-09T11:36:04Z</time>
      </trkpt>
      <trkpt lat="48.68307" lon="6.95092">
        <ele>267</ele>
        <time>2020-08-09T11:36:05Z</time>
      </trkpt>
      <trkpt lat="48.68301" lon="6.95084">
        <ele>267</ele>
        <time>2020-08-09T11:36:07Z</time>
      </trkpt>
      <trkpt lat="48.68295" lon="6.95076">
        <ele>267</ele>
        <time>2020-08-09T11:36:09Z</time>
      </trkpt>
      <trkpt lat="48.68289" lon="6.95067">
        <ele>267</ele>
        <time>2020-08-09T11:36:11Z</time>
      </trkpt>
      <trkpt lat="48.68282" lon="6.95059">
        <ele>267</ele>
        <time>2020-08-09T11:36:13Z</time>
      </trkpt>
      <trkpt lat="48.68276" lon="6.9505">
        <ele>267</ele>
        <time>2020-08-09T11:36:15Z</time>
      </trkpt>
      <trkpt lat="48.68271" lon="6.95042">
        <ele>267</ele>
        <time>2020-08-09T11:36:17Z</time>
      </trkpt>
      <trkpt lat="48.68267" lon="6.95038">
        <ele>267</ele>
        <time>2020-08-09T11:36:18Z</time>
      </trkpt>
      <trkpt lat="48.68259" lon="6.95031">
        <ele>267</ele>
        <time>2020-08-09T11:36:20Z</time>
      </trkpt>
      <trkpt lat="48.68253" lon="6.95024">
        <ele>268</ele>
        <time>2020-08-09T11:36:22Z</time>
      </trkpt>
      <trkpt lat="48.68248" lon="6.95017">
        <ele>268</ele>
        <time>2020-08-09T11:36:24Z</time>
      </trkpt>
      <trkpt lat="48.68242" lon="6.95009">
        <ele>268</ele>
        <time>2020-08-09T11:36:26Z</time>
      </trkpt>
      <trkpt lat="48.68237" lon="6.95002">
        <ele>268</ele>
        <time>2020-08-09T11:36:28Z</time>
      </trkpt>
      <trkpt lat="48.68232" lon="6.94993">
        <ele>268</ele>
        <time>2020-08-09T11:36:30Z</time>
      </trkpt>
      <trkpt lat="48.68226" lon="6.94985">
        <ele>268</ele>
        <time>2020-08-09T11:36:32Z</time>
      </trkpt>
      <trkpt lat="48.68219" lon="6.94979">
        <ele>268</ele>
        <time>2020-08-09T11:36:34Z</time>
      </trkpt>
      <trkpt lat="48.68213" lon="6.94971">
        <ele>268</ele>
        <time>2020-08-09T11:36:36Z</time>
      </trkpt>
      <trkpt lat="48.68207" lon="6.94964">
        <ele>268</ele>
        <time>2020-08-09T11:36:38Z</time>
      </trkpt>
      <trkpt lat="48.68201" lon="6.94954">
        <ele>268</ele>
        <time>2020-08-09T11:36:40Z</time>
      </trkpt>
      <trkpt lat="48.68195" lon="6.94947">
        <ele>268</ele>
        <time>2020-08-09T11:36:42Z</time>
      </trkpt>
      <trkpt lat="48.68188" lon="6.94936">
        <ele>268</ele>
        <time>2020-08-09T11:36:44Z</time>
      </trkpt>
      <trkpt lat="48.68185" lon="6.94931">
        <ele>268</ele>
        <time>2020-08-09T11:36:45Z</time>
      </trkpt>
      <trkpt lat="48.6818" lon="6.94923">
        <ele>268</ele>
        <time>2020-08-09T11:36:47Z</time>
      </trkpt>
      <trkpt lat="48.68174" lon="6.94914">
        <ele>268</ele>
        <time>2020-08-09T11:36:49Z</time>
      </trkpt>
      <trkpt lat="48.68169" lon="6.94906">
        <ele>268</ele>
        <time>2020-08-09T11:36:51Z</time>
      </trkpt>
      <trkpt lat="48.68163" lon="6.94896">
        <ele>268</ele>
        <time>2020-08-09T11:36:53Z</time>
      </trkpt>
      <trkpt lat="48.68161" lon="6.9489">
        <ele>268</ele>
        <time>2020-08-09T11:36:54Z</time>
      </trkpt>
      <trkpt lat="48.68157" lon="6.94881">
        <ele>268</ele>
        <time>2020-08-09T11:36:56Z</time>
      </trkpt>
      <trkpt lat="48.68153" lon="6.94868">
        <ele>267</ele>
        <time>2020-08-09T11:36:58Z</time>
      </trkpt>
      <trkpt lat="48.68148" lon="6.94858">
        <ele>267</ele>
        <time>2020-08-09T11:37:00Z</time>
      </trkpt>
      <trkpt lat="48.68144" lon="6.94848">
        <ele>267</ele>
        <time>2020-08-09T11:37:02Z</time>
      </trkpt>
      <trkpt lat="48.6814" lon="6.94836">
        <ele>267</ele>
        <time>2020-08-09T11:37:04Z</time>
      </trkpt>
      <trkpt lat="48.68137" lon="6.94831">
        <ele>268</ele>
        <time>2020-08-09T11:37:05Z</time>
      </trkpt>
      <trkpt lat="48.68134" lon="6.94819">
        <ele>268</ele>
        <time>2020-08-09T11:37:07Z</time>
      </trkpt>
      <trkpt lat="48.68131" lon="6.94812">
        <ele>268</ele>
        <time>2020-08-09T11:37:08Z</time>
      </trkpt>
      <trkpt lat="48.6813" lon="6.94806">
        <ele>268</ele>
        <time>2020-08-09T11:37:09Z</time>
      </trkpt>
      <trkpt lat="48.68127" lon="6.94794">
        <ele>268</ele>
        <time>2020-08-09T11:37:11Z</time>
      </trkpt>
      <trkpt lat="48.68126" lon="6.94787">
        <ele>268</ele>
        <time>2020-08-09T11:37:12Z</time>
      </trkpt>
      <trkpt lat="48.68124" lon="6.9478">
        <ele>268</ele>
        <time>2020-08-09T11:37:13Z</time>
      </trkpt>
      <trkpt lat="48.68122" lon="6.94767">
        <ele>268</ele>
        <time>2020-08-09T11:37:15Z</time>
      </trkpt>
      <trkpt lat="48.6812" lon="6.94754">
        <ele>269</ele>
        <time>2020-08-09T11:37:17Z</time>
      </trkpt>
      <trkpt lat="48.68115" lon="6.94741">
        <ele>269</ele>
        <time>2020-08-09T11:37:19Z</time>
      </trkpt>
      <trkpt lat="48.68113" lon="6.94728">
        <ele>270</ele>
        <time>2020-08-09T11:37:21Z</time>
      </trkpt>
      <trkpt lat="48.68111" lon="6.94714">
        <ele>269</ele>
        <time>2020-08-09T11:37:23Z</time>
      </trkpt>
      <trkpt lat="48.68109" lon="6.94707">
        <ele>269</ele>
        <time>2020-08-09T11:37:24Z</time>
      </trkpt>
      <trkpt lat="48.68108" lon="6.94694">
        <ele>269</ele>
        <time>2020-08-09T11:37:26Z</time>
      </trkpt>
      <trkpt lat="48.68108" lon="6.94687">
        <ele>269</ele>
        <time>2020-08-09T11:37:27Z</time>
      </trkpt>
      <trkpt lat="48.68108" lon="6.94674">
        <ele>268</ele>
        <time>2020-08-09T11:37:29Z</time>
      </trkpt>
      <trkpt lat="48.6811" lon="6.94666">
        <ele>268</ele>
        <time>2020-08-09T11:37:30Z</time>
      </trkpt>
      <trkpt lat="48.6811" lon="6.94658">
        <ele>268</ele>
        <time>2020-08-09T11:37:31Z</time>
      </trkpt>
      <trkpt lat="48.68109" lon="6.94651">
        <ele>268</ele>
        <time>2020-08-09T11:37:32Z</time>
      </trkpt>
      <trkpt lat="48.6811" lon="6.94638">
        <ele>268</ele>
        <time>2020-08-09T11:37:34Z</time>
      </trkpt>
      <trkpt lat="48.6811" lon="6.94631">
        <ele>268</ele>
        <time>2020-08-09T11:37:35Z</time>
      </trkpt>
      <trkpt lat="48.68111" lon="6.94624">
        <ele>268</ele>
        <time>2020-08-09T11:37:36Z</time>
      </trkpt>
      <trkpt lat="48.68112" lon="6.94617">
        <ele>267</ele>
        <time>2020-08-09T11:37:37Z</time>
      </trkpt>
      <trkpt lat="48.68112" lon="6.94609">
        <ele>267</ele>
        <time>2020-08-09T11:37:38Z</time>
      </trkpt>
      <trkpt lat="48.68113" lon="6.94601">
        <ele>267</ele>
        <time>2020-08-09T11:37:39Z</time>
      </trkpt>
      <trkpt lat="48.68113" lon="6.94594">
        <ele>267</ele>
        <time>2020-08-09T11:37:40Z</time>
      </trkpt>
      <trkpt lat="48.68114" lon="6.94587">
        <ele>267</ele>
        <time>2020-08-09T11:37:41Z</time>
      </trkpt>
      <trkpt lat="48.68113" lon="6.94579">
        <ele>267</ele>
        <time>2020-08-09T11:37:42Z</time>
      </trkpt>
      <trkpt lat="48.68113" lon="6.94571">
        <ele>267</ele>
        <time>2020-08-09T11:37:43Z</time>
      </trkpt>
      <trkpt lat="48.68114" lon="6.94564">
        <ele>267</ele>
        <time>2020-08-09T11:37:44Z</time>
      </trkpt>
      <trkpt lat="48.68115" lon="6.94557">
        <ele>267</ele>
        <time>2020-08-09T11:37:45Z</time>
      </trkpt>
      <trkpt lat="48.68116" lon="6.94549">
        <ele>267</ele>
        <time>2020-08-09T11:37:46Z</time>
      </trkpt>
      <trkpt lat="48.68116" lon="6.94535">
        <ele>267</ele>
        <time>2020-08-09T11:37:48Z</time>
      </trkpt>
      <trkpt lat="48.68117" lon="6.94527">
        <ele>267</ele>
        <time>2020-08-09T11:37:49Z</time>
      </trkpt>
      <trkpt lat="48.68116" lon="6.9452">
        <ele>267</ele>
        <time>2020-08-09T11:37:50Z</time>
      </trkpt>
      <trkpt lat="48.68119" lon="6.94514">
        <ele>267</ele>
        <time>2020-08-09T11:37:51Z</time>
      </trkpt>
      <trkpt lat="48.6812" lon="6.94506">
        <ele>266</ele>
        <time>2020-08-09T11:37:52Z</time>
      </trkpt>
      <trkpt lat="48.6812" lon="6.94498">
        <ele>266</ele>
        <time>2020-08-09T11:37:53Z</time>
      </trkpt>
      <trkpt lat="48.68121" lon="6.94486">
        <ele>266</ele>
        <time>2020-08-09T11:37:55Z</time>
      </trkpt>
      <trkpt lat="48.68121" lon="6.94479">
        <ele>266</ele>
        <time>2020-08-09T11:37:56Z</time>
      </trkpt>
      <trkpt lat="48.68122" lon="6.94472">
        <ele>266</ele>
        <time>2020-08-09T11:37:57Z</time>
      </trkpt>
      <trkpt lat="48.68122" lon="6.94465">
        <ele>266</ele>
        <time>2020-08-09T11:37:58Z</time>
      </trkpt>
      <trkpt lat="48.68123" lon="6.94458">
        <ele>266</ele>
        <time>2020-08-09T11:37:59Z</time>
      </trkpt>
      <trkpt lat="48.68123" lon="6.9445">
        <ele>266</ele>
        <time>2020-08-09T11:38:00Z</time>
      </trkpt>
      <trkpt lat="48.68124" lon="6.94443">
        <ele>265</ele>
        <time>2020-08-09T11:38:01Z</time>
      </trkpt>
      <trkpt lat="48.68127" lon="6.94436">
        <ele>265</ele>
        <time>2020-08-09T11:38:02Z</time>
      </trkpt>
      <trkpt lat="48.68127" lon="6.94428">
        <ele>265</ele>
        <time>2020-08-09T11:38:03Z</time>
      </trkpt>
      <trkpt lat="48.68127" lon="6.94421">
        <ele>265</ele>
        <time>2020-08-09T11:38:04Z</time>
      </trkpt>
      <trkpt lat="48.68127" lon="6.94413">
        <ele>266</ele>
        <time>2020-08-09T11:38:05Z</time>
      </trkpt>
      <trkpt lat="48.68129" lon="6.94406">
        <ele>266</ele>
        <time>2020-08-09T11:38:06Z</time>
      </trkpt>
      <trkpt lat="48.68129" lon="6.94399">
        <ele>266</ele>
        <time>2020-08-09T11:38:07Z</time>
      </trkpt>
      <trkpt lat="48.6813" lon="6.94392">
        <ele>266</ele>
        <time>2020-08-09T11:38:08Z</time>
      </trkpt>
      <trkpt lat="48.6813" lon="6.94384">
        <ele>266</ele>
        <time>2020-08-09T11:38:09Z</time>
      </trkpt>
      <trkpt lat="48.68131" lon="6.94376">
        <ele>266</ele>
        <time>2020-08-09T11:38:10Z</time>
      </trkpt>
      <trkpt lat="48.68132" lon="6.94363">
        <ele>266</ele>
        <time>2020-08-09T11:38:12Z</time>
      </trkpt>
      <trkpt lat="48.68133" lon="6.94356">
        <ele>266</ele>
        <time>2020-08-09T11:38:13Z</time>
      </trkpt>
      <trkpt lat="48.68133" lon="6.94349">
        <ele>266</ele>
        <time>2020-08-09T11:38:14Z</time>
      </trkpt>
      <trkpt lat="48.68134" lon="6.94341">
        <ele>266</ele>
        <time>2020-08-09T11:38:15Z</time>
      </trkpt>
      <trkpt lat="48.68133" lon="6.94334">
        <ele>266</ele>
        <time>2020-08-09T11:38:16Z</time>
      </trkpt>
      <trkpt lat="48.68134" lon="6.94326">
        <ele>266</ele>
        <time>2020-08-09T11:38:17Z</time>
      </trkpt>
      <trkpt lat="48.68135" lon="6.94313">
        <ele>266</ele>
        <time>2020-08-09T11:38:19Z</time>
      </trkpt>
      <trkpt lat="48.68134" lon="6.94306">
        <ele>266</ele>
        <time>2020-08-09T11:38:20Z</time>
      </trkpt>
      <trkpt lat="48.68136" lon="6.94294">
        <ele>267</ele>
        <time>2020-08-09T11:38:22Z</time>
      </trkpt>
      <trkpt lat="48.68137" lon="6.94288">
        <ele>267</ele>
        <time>2020-08-09T11:38:23Z</time>
      </trkpt>
      <trkpt lat="48.68137" lon="6.94281">
        <ele>267</ele>
        <time>2020-08-09T11:38:24Z</time>
      </trkpt>
      <trkpt lat="48.68137" lon="6.94273">
        <ele>267</ele>
        <time>2020-08-09T11:38:25Z</time>
      </trkpt>
      <trkpt lat="48.68138" lon="6.94266">
        <ele>266</ele>
        <time>2020-08-09T11:38:26Z</time>
      </trkpt>
      <trkpt lat="48.68138" lon="6.94259">
        <ele>266</ele>
        <time>2020-08-09T11:38:27Z</time>
      </trkpt>
      <trkpt lat="48.6814" lon="6.94246">
        <ele>266</ele>
        <time>2020-08-09T11:38:29Z</time>
      </trkpt>
      <trkpt lat="48.68142" lon="6.94239">
        <ele>266</ele>
        <time>2020-08-09T11:38:30Z</time>
      </trkpt>
      <trkpt lat="48.68142" lon="6.94231">
        <ele>266</ele>
        <time>2020-08-09T11:38:31Z</time>
      </trkpt>
      <trkpt lat="48.68143" lon="6.94224">
        <ele>265</ele>
        <time>2020-08-09T11:38:32Z</time>
      </trkpt>
      <trkpt lat="48.68143" lon="6.94217">
        <ele>266</ele>
        <time>2020-08-09T11:38:33Z</time>
      </trkpt>
      <trkpt lat="48.68143" lon="6.9421">
        <ele>266</ele>
        <time>2020-08-09T11:38:34Z</time>
      </trkpt>
      <trkpt lat="48.68143" lon="6.94203">
        <ele>266</ele>
        <time>2020-08-09T11:38:35Z</time>
      </trkpt>
      <trkpt lat="48.68144" lon="6.94196">
        <ele>266</ele>
        <time>2020-08-09T11:38:36Z</time>
      </trkpt>
      <trkpt lat="48.68145" lon="6.94189">
        <ele>266</ele>
        <time>2020-08-09T11:38:37Z</time>
      </trkpt>
      <trkpt lat="48.68147" lon="6.94176">
        <ele>265</ele>
        <time>2020-08-09T11:38:39Z</time>
      </trkpt>
      <trkpt lat="48.68147" lon="6.94169">
        <ele>265</ele>
        <time>2020-08-09T11:38:40Z</time>
      </trkpt>
      <trkpt lat="48.68148" lon="6.9416">
        <ele>265</ele>
        <time>2020-08-09T11:38:41Z</time>
      </trkpt>
      <trkpt lat="48.68149" lon="6.94153">
        <ele>266</ele>
        <time>2020-08-09T11:38:42Z</time>
      </trkpt>
      <trkpt lat="48.68149" lon="6.94145">
        <ele>266</ele>
        <time>2020-08-09T11:38:43Z</time>
      </trkpt>
      <trkpt lat="48.6815" lon="6.94138">
        <ele>266</ele>
        <time>2020-08-09T11:38:44Z</time>
      </trkpt>
      <trkpt lat="48.6815" lon="6.9413">
        <ele>266</ele>
        <time>2020-08-09T11:38:45Z</time>
      </trkpt>
      <trkpt lat="48.68151" lon="6.94123">
        <ele>266</ele>
        <time>2020-08-09T11:38:46Z</time>
      </trkpt>
      <trkpt lat="48.68151" lon="6.94115">
        <ele>266</ele>
        <time>2020-08-09T11:38:47Z</time>
      </trkpt>
      <trkpt lat="48.68152" lon="6.94108">
        <ele>266</ele>
        <time>2020-08-09T11:38:48Z</time>
      </trkpt>
      <trkpt lat="48.68153" lon="6.94096">
        <ele>266</ele>
        <time>2020-08-09T11:38:50Z</time>
      </trkpt>
      <trkpt lat="48.68154" lon="6.94082">
        <ele>266</ele>
        <time>2020-08-09T11:38:52Z</time>
      </trkpt>
      <trkpt lat="48.68155" lon="6.94075">
        <ele>266</ele>
        <time>2020-08-09T11:38:53Z</time>
      </trkpt>
      <trkpt lat="48.68155" lon="6.94068">
        <ele>266</ele>
        <time>2020-08-09T11:38:54Z</time>
      </trkpt>
      <trkpt lat="48.68155" lon="6.9406">
        <ele>266</ele>
        <time>2020-08-09T11:38:55Z</time>
      </trkpt>
      <trkpt lat="48.68155" lon="6.94053">
        <ele>266</ele>
        <time>2020-08-09T11:38:56Z</time>
      </trkpt>
      <trkpt lat="48.68157" lon="6.9404">
        <ele>266</ele>
        <time>2020-08-09T11:38:58Z</time>
      </trkpt>
      <trkpt lat="48.68158" lon="6.94032">
        <ele>266</ele>
        <time>2020-08-09T11:38:59Z</time>
      </trkpt>
      <trkpt lat="48.6816" lon="6.94019">
        <ele>266</ele>
        <time>2020-08-09T11:39:01Z</time>
      </trkpt>
      <trkpt lat="48.6816" lon="6.94011">
        <ele>266</ele>
        <time>2020-08-09T11:39:02Z</time>
      </trkpt>
      <trkpt lat="48.6816" lon="6.94003">
        <ele>266</ele>
        <time>2020-08-09T11:39:03Z</time>
      </trkpt>
      <trkpt lat="48.68161" lon="6.93996">
        <ele>266</ele>
        <time>2020-08-09T11:39:04Z</time>
      </trkpt>
      <trkpt lat="48.68161" lon="6.93988">
        <ele>266</ele>
        <time>2020-08-09T11:39:05Z</time>
      </trkpt>
      <trkpt lat="48.68162" lon="6.9398">
        <ele>266</ele>
        <time>2020-08-09T11:39:06Z</time>
      </trkpt>
      <trkpt lat="48.68162" lon="6.93972">
        <ele>266</ele>
        <time>2020-08-09T11:39:07Z</time>
      </trkpt>
      <trkpt lat="48.68163" lon="6.93965">
        <ele>266</ele>
        <time>2020-08-09T11:39:08Z</time>
      </trkpt>
      <trkpt lat="48.68163" lon="6.93951">
        <ele>266</ele>
        <time>2020-08-09T11:39:10Z</time>
      </trkpt>
      <trkpt lat="48.68164" lon="6.93937">
        <ele>266</ele>
        <time>2020-08-09T11:39:12Z</time>
      </trkpt>
      <trkpt lat="48.68164" lon="6.9393">
        <ele>266</ele>
        <time>2020-08-09T11:39:13Z</time>
      </trkpt>
      <trkpt lat="48.68165" lon="6.93923">
        <ele>267</ele>
        <time>2020-08-09T11:39:14Z</time>
      </trkpt>
      <trkpt lat="48.68166" lon="6.93916">
        <ele>267</ele>
        <time>2020-08-09T11:39:15Z</time>
      </trkpt>
      <trkpt lat="48.68167" lon="6.93909">
        <ele>267</ele>
        <time>2020-08-09T11:39:16Z</time>
      </trkpt>
      <trkpt lat="48.68167" lon="6.93901">
        <ele>267</ele>
        <time>2020-08-09T11:39:17Z</time>
      </trkpt>
      <trkpt lat="48.68168" lon="6.93894">
        <ele>267</ele>
        <time>2020-08-09T11:39:18Z</time>
      </trkpt>
      <trkpt lat="48.68168" lon="6.93887">
        <ele>267</ele>
        <time>2020-08-09T11:39:19Z</time>
      </trkpt>
      <trkpt lat="48.68169" lon="6.9388">
        <ele>267</ele>
        <time>2020-08-09T11:39:20Z</time>
      </trkpt>
      <trkpt lat="48.68169" lon="6.93872">
        <ele>267</ele>
        <time>2020-08-09T11:39:21Z</time>
      </trkpt>
      <trkpt lat="48.68169" lon="6.93865">
        <ele>267</ele>
        <time>2020-08-09T11:39:22Z</time>
      </trkpt>
      <trkpt lat="48.68171" lon="6.93851">
        <ele>267</ele>
        <time>2020-08-09T11:39:24Z</time>
      </trkpt>
      <trkpt lat="48.68171" lon="6.93844">
        <ele>267</ele>
        <time>2020-08-09T11:39:25Z</time>
      </trkpt>
      <trkpt lat="48.68172" lon="6.93837">
        <ele>267</ele>
        <time>2020-08-09T11:39:26Z</time>
      </trkpt>
      <trkpt lat="48.68172" lon="6.9383">
        <ele>267</ele>
        <time>2020-08-09T11:39:27Z</time>
      </trkpt>
      <trkpt lat="48.68173" lon="6.93823">
        <ele>267</ele>
        <time>2020-08-09T11:39:28Z</time>
      </trkpt>
      <trkpt lat="48.68173" lon="6.93816">
        <ele>267</ele>
        <time>2020-08-09T11:39:29Z</time>
      </trkpt>
      <trkpt lat="48.68174" lon="6.93808">
        <ele>267</ele>
        <time>2020-08-09T11:39:30Z</time>
      </trkpt>
      <trkpt lat="48.68174" lon="6.93801">
        <ele>267</ele>
        <time>2020-08-09T11:39:31Z</time>
      </trkpt>
      <trkpt lat="48.68175" lon="6.93794">
        <ele>267</ele>
        <time>2020-08-09T11:39:32Z</time>
      </trkpt>
      <trkpt lat="48.68176" lon="6.9378">
        <ele>267</ele>
        <time>2020-08-09T11:39:34Z</time>
      </trkpt>
      <trkpt lat="48.68176" lon="6.93773">
        <ele>267</ele>
        <time>2020-08-09T11:39:35Z</time>
      </trkpt>
      <trkpt lat="48.68177" lon="6.93766">
        <ele>267</ele>
        <time>2020-08-09T11:39:36Z</time>
      </trkpt>
      <trkpt lat="48.68179" lon="6.93752">
        <ele>266</ele>
        <time>2020-08-09T11:39:38Z</time>
      </trkpt>
      <trkpt lat="48.68179" lon="6.93745">
        <ele>266</ele>
        <time>2020-08-09T11:39:39Z</time>
      </trkpt>
      <trkpt lat="48.68181" lon="6.93737">
        <ele>266</ele>
        <time>2020-08-09T11:39:40Z</time>
      </trkpt>
      <trkpt lat="48.68181" lon="6.9373">
        <ele>266</ele>
        <time>2020-08-09T11:39:41Z</time>
      </trkpt>
      <trkpt lat="48.68182" lon="6.93722">
        <ele>266</ele>
        <time>2020-08-09T11:39:42Z</time>
      </trkpt>
      <trkpt lat="48.68182" lon="6.93715">
        <ele>266</ele>
        <time>2020-08-09T11:39:43Z</time>
      </trkpt>
      <trkpt lat="48.68183" lon="6.93708">
        <ele>266</ele>
        <time>2020-08-09T11:39:44Z</time>
      </trkpt>
      <trkpt lat="48.68185" lon="6.93694">
        <ele>266</ele>
        <time>2020-08-09T11:39:46Z</time>
      </trkpt>
      <trkpt lat="48.68185" lon="6.93687">
        <ele>267</ele>
        <time>2020-08-09T11:39:47Z</time>
      </trkpt>
      <trkpt lat="48.68186" lon="6.9368">
        <ele>267</ele>
        <time>2020-08-09T11:39:48Z</time>
      </trkpt>
      <trkpt lat="48.68187" lon="6.93673">
        <ele>267</ele>
        <time>2020-08-09T11:39:49Z</time>
      </trkpt>
      <trkpt lat="48.68188" lon="6.93666">
        <ele>266</ele>
        <time>2020-08-09T11:39:50Z</time>
      </trkpt>
      <trkpt lat="48.68189" lon="6.93659">
        <ele>266</ele>
        <time>2020-08-09T11:39:51Z</time>
      </trkpt>
      <trkpt lat="48.6819" lon="6.93652">
        <ele>266</ele>
        <time>2020-08-09T11:39:52Z</time>
      </trkpt>
      <trkpt lat="48.68191" lon="6.93646">
        <ele>266</ele>
        <time>2020-08-09T11:39:53Z</time>
      </trkpt>
      <trkpt lat="48.68192" lon="6.93639">
        <ele>266</ele>
        <time>2020-08-09T11:39:54Z</time>
      </trkpt>
      <trkpt lat="48.68194" lon="6.93632">
        <ele>266</ele>
        <time>2020-08-09T11:39:55Z</time>
      </trkpt>
      <trkpt lat="48.68195" lon="6.93625">
        <ele>266</ele>
        <time>2020-08-09T11:39:56Z</time>
      </trkpt>
      <trkpt lat="48.68196" lon="6.93619">
        <ele>266</ele>
        <time>2020-08-09T11:39:57Z</time>
      </trkpt>
      <trkpt lat="48.68198" lon="6.93609">
        <ele>266</ele>
        <time>2020-08-09T11:39:59Z</time>
      </trkpt>
      <trkpt lat="48.68201" lon="6.93597">
        <ele>266</ele>
        <time>2020-08-09T11:40:01Z</time>
      </trkpt>
      <trkpt lat="48.68205" lon="6.93587">
        <ele>266</ele>
        <time>2020-08-09T11:40:03Z</time>
      </trkpt>
      <trkpt lat="48.68207" lon="6.9358">
        <ele>266</ele>
        <time>2020-08-09T11:40:04Z</time>
      </trkpt>
      <trkpt lat="48.68212" lon="6.93569">
        <ele>266</ele>
        <time>2020-08-09T11:40:06Z</time>
      </trkpt>
      <trkpt lat="48.68217" lon="6.93557">
        <ele>266</ele>
        <time>2020-08-09T11:40:08Z</time>
      </trkpt>
      <trkpt lat="48.68219" lon="6.9355">
        <ele>266</ele>
        <time>2020-08-09T11:40:09Z</time>
      </trkpt>
      <trkpt lat="48.68224" lon="6.93539">
        <ele>266</ele>
        <time>2020-08-09T11:40:11Z</time>
      </trkpt>
      <trkpt lat="48.68227" lon="6.93532">
        <ele>266</ele>
        <time>2020-08-09T11:40:12Z</time>
      </trkpt>
      <trkpt lat="48.68231" lon="6.93521">
        <ele>266</ele>
        <time>2020-08-09T11:40:14Z</time>
      </trkpt>
      <trkpt lat="48.68234" lon="6.93515">
        <ele>266</ele>
        <time>2020-08-09T11:40:15Z</time>
      </trkpt>
      <trkpt lat="48.68237" lon="6.93509">
        <ele>267</ele>
        <time>2020-08-09T11:40:16Z</time>
      </trkpt>
      <trkpt lat="48.68243" lon="6.93499">
        <ele>267</ele>
        <time>2020-08-09T11:40:18Z</time>
      </trkpt>
      <trkpt lat="48.68249" lon="6.93488">
        <ele>267</ele>
        <time>2020-08-09T11:40:20Z</time>
      </trkpt>
      <trkpt lat="48.68255" lon="6.93478">
        <ele>268</ele>
        <time>2020-08-09T11:40:22Z</time>
      </trkpt>
      <trkpt lat="48.68259" lon="6.93471">
        <ele>268</ele>
        <time>2020-08-09T11:40:23Z</time>
      </trkpt>
      <trkpt lat="48.68265" lon="6.93462">
        <ele>268</ele>
        <time>2020-08-09T11:40:25Z</time>
      </trkpt>
      <trkpt lat="48.68269" lon="6.93456">
        <ele>268</ele>
        <time>2020-08-09T11:40:26Z</time>
      </trkpt>
      <trkpt lat="48.68272" lon="6.93451">
        <ele>268</ele>
        <time>2020-08-09T11:40:27Z</time>
      </trkpt>
      <trkpt lat="48.68277" lon="6.93445">
        <ele>269</ele>
        <time>2020-08-09T11:40:28Z</time>
      </trkpt>
      <trkpt lat="48.68283" lon="6.93437">
        <ele>270</ele>
        <time>2020-08-09T11:40:30Z</time>
      </trkpt>
      <trkpt lat="48.6829" lon="6.9343">
        <ele>271</ele>
        <time>2020-08-09T11:40:32Z</time>
      </trkpt>
      <trkpt lat="48.68293" lon="6.93424">
        <ele>271</ele>
        <time>2020-08-09T11:40:33Z</time>
      </trkpt>
      <trkpt lat="48.68296" lon="6.93419">
        <ele>270</ele>
        <time>2020-08-09T11:40:34Z</time>
      </trkpt>
      <trkpt lat="48.683" lon="6.93415">
        <ele>270</ele>
        <time>2020-08-09T11:40:35Z</time>
      </trkpt>
      <trkpt lat="48.68305" lon="6.93405">
        <ele>269</ele>
        <time>2020-08-09T11:40:37Z</time>
      </trkpt>
      <trkpt lat="48.68314" lon="6.93399">
        <ele>268</ele>
        <time>2020-08-09T11:40:39Z</time>
      </trkpt>
      <trkpt lat="48.68321" lon="6.93393">
        <ele>267</ele>
        <time>2020-08-09T11:40:41Z</time>
      </trkpt>
      <trkpt lat="48.68325" lon="6.93389">
        <ele>267</ele>
        <time>2020-08-09T11:40:42Z</time>
      </trkpt>
      <trkpt lat="48.6833" lon="6.93385">
        <ele>267</ele>
        <time>2020-08-09T11:40:43Z</time>
      </trkpt>
      <trkpt lat="48.68334" lon="6.93379">
        <ele>266</ele>
        <time>2020-08-09T11:40:44Z</time>
      </trkpt>
      <trkpt lat="48.68339" lon="6.93374">
        <ele>266</ele>
        <time>2020-08-09T11:40:45Z</time>
      </trkpt>
      <trkpt lat="48.68343" lon="6.9337">
        <ele>266</ele>
        <time>2020-08-09T11:40:46Z</time>
      </trkpt>
      <trkpt lat="48.68348" lon="6.93367">
        <ele>266</ele>
        <time>2020-08-09T11:40:47Z</time>
      </trkpt>
      <trkpt lat="48.68355" lon="6.9336">
        <ele>266</ele>
        <time>2020-08-09T11:40:49Z</time>
      </trkpt>
      <trkpt lat="48.68361" lon="6.93352">
        <ele>267</ele>
        <time>2020-08-09T11:40:51Z</time>
      </trkpt>
      <trkpt lat="48.68366" lon="6.93345">
        <ele>268</ele>
        <time>2020-08-09T11:40:53Z</time>
      </trkpt>
      <trkpt lat="48.68372" lon="6.9334">
        <ele>269</ele>
        <time>2020-08-09T11:40:56Z</time>
      </trkpt>
      <trkpt lat="48.68377" lon="6.93337">
        <ele>269</ele>
        <time>2020-08-09T11:40:58Z</time>
      </trkpt>
      <trkpt lat="48.68382" lon="6.93332">
        <ele>270</ele>
        <time>2020-08-09T11:41:00Z</time>
      </trkpt>
      <trkpt lat="48.68385" lon="6.93328">
        <ele>270</ele>
        <time>2020-08-09T11:41:02Z</time>
      </trkpt>
      <trkpt lat="48.68388" lon="6.93322">
        <ele>270</ele>
        <time>2020-08-09T11:41:04Z</time>
      </trkpt>
      <trkpt lat="48.68391" lon="6.93316">
        <ele>270</ele>
        <time>2020-08-09T11:41:06Z</time>
      </trkpt>
      <trkpt lat="48.68393" lon="6.93307">
        <ele>270</ele>
        <time>2020-08-09T11:41:09Z</time>
      </trkpt>
      <trkpt lat="48.68393" lon="6.933">
        <ele>270</ele>
        <time>2020-08-09T11:41:12Z</time>
      </trkpt>
      <trkpt lat="48.68391" lon="6.93293">
        <ele>270</ele>
        <time>2020-08-09T11:41:15Z</time>
      </trkpt>
      <trkpt lat="48.68387" lon="6.93286">
        <ele>270</ele>
        <time>2020-08-09T11:41:19Z</time>
      </trkpt>
      <trkpt lat="48.68384" lon="6.93278">
        <ele>269</ele>
        <time>2020-08-09T11:41:22Z</time>
      </trkpt>
      <trkpt lat="48.68379" lon="6.9327">
        <ele>270</ele>
        <time>2020-08-09T11:41:25Z</time>
      </trkpt>
      <trkpt lat="48.68378" lon="6.93263">
        <ele>270</ele>
        <time>2020-08-09T11:41:27Z</time>
      </trkpt>
      <trkpt lat="48.68379" lon="6.93255">
        <ele>270</ele>
        <time>2020-08-09T11:41:29Z</time>
      </trkpt>
      <trkpt lat="48.68385" lon="6.93247">
        <ele>269</ele>
        <time>2020-08-09T11:41:31Z</time>
      </trkpt>
      <trkpt lat="48.68389" lon="6.93243">
        <ele>269</ele>
        <time>2020-08-09T11:41:32Z</time>
      </trkpt>
      <trkpt lat="48.68394" lon="6.93239">
        <ele>269</ele>
        <time>2020-08-09T11:41:33Z</time>
      </trkpt>
      <trkpt lat="48.68398" lon="6.93234">
        <ele>269</ele>
        <time>2020-08-09T11:41:34Z</time>
      </trkpt>
      <trkpt lat="48.68403" lon="6.93229">
        <ele>269</ele>
        <time>2020-08-09T11:41:35Z</time>
      </trkpt>
      <trkpt lat="48.68407" lon="6.93223">
        <ele>268</ele>
        <time>2020-08-09T11:41:36Z</time>
      </trkpt>
      <trkpt lat="48.68412" lon="6.93217">
        <ele>268</ele>
        <time>2020-08-09T11:41:37Z</time>
      </trkpt>
      <trkpt lat="48.68417" lon="6.93211">
        <ele>268</ele>
        <time>2020-08-09T11:41:38Z</time>
      </trkpt>
      <trkpt lat="48.68424" lon="6.93206">
        <ele>267</ele>
        <time>2020-08-09T11:41:39Z</time>
      </trkpt>
      <trkpt lat="48.6843" lon="6.93202">
        <ele>267</ele>
        <time>2020-08-09T11:41:40Z</time>
      </trkpt>
      <trkpt lat="48.68436" lon="6.93196">
        <ele>267</ele>
        <time>2020-08-09T11:41:41Z</time>
      </trkpt>
      <trkpt lat="48.68443" lon="6.9319">
        <ele>267</ele>
        <time>2020-08-09T11:41:42Z</time>
      </trkpt>
      <trkpt lat="48.68449" lon="6.93184">
        <ele>268</ele>
        <time>2020-08-09T11:41:43Z</time>
      </trkpt>
      <trkpt lat="48.68454" lon="6.93177">
        <ele>267</ele>
        <time>2020-08-09T11:41:44Z</time>
      </trkpt>
      <trkpt lat="48.68459" lon="6.93168">
        <ele>267</ele>
        <time>2020-08-09T11:41:45Z</time>
      </trkpt>
      <trkpt lat="48.68465" lon="6.93163">
        <ele>266</ele>
        <time>2020-08-09T11:41:46Z</time>
      </trkpt>
      <trkpt lat="48.6847" lon="6.93156">
        <ele>266</ele>
        <time>2020-08-09T11:41:47Z</time>
      </trkpt>
      <trkpt lat="48.68476" lon="6.93149">
        <ele>266</ele>
        <time>2020-08-09T11:41:48Z</time>
      </trkpt>
      <trkpt lat="48.68481" lon="6.93143">
        <ele>266</ele>
        <time>2020-08-09T11:41:49Z</time>
      </trkpt>
      <trkpt lat="48.68486" lon="6.93138">
        <ele>266</ele>
        <time>2020-08-09T11:41:50Z</time>
      </trkpt>
      <trkpt lat="48.68491" lon="6.93132">
        <ele>266</ele>
        <time>2020-08-09T11:41:51Z</time>
      </trkpt>
      <trkpt lat="48.68496" lon="6.93125">
        <ele>266</ele>
        <time>2020-08-09T11:41:52Z</time>
      </trkpt>
      <trkpt lat="48.68501" lon="6.93121">
        <ele>266</ele>
        <time>2020-08-09T11:41:53Z</time>
      </trkpt>
      <trkpt lat="48.68506" lon="6.93115">
        <ele>266</ele>
        <time>2020-08-09T11:41:54Z</time>
      </trkpt>
      <trkpt lat="48.6851" lon="6.93108">
        <ele>266</ele>
        <time>2020-08-09T11:41:55Z</time>
      </trkpt>
      <trkpt lat="48.68515" lon="6.93103">
        <ele>266</ele>
        <time>2020-08-09T11:41:56Z</time>
      </trkpt>
      <trkpt lat="48.6852" lon="6.93098">
        <ele>266</ele>
        <time>2020-08-09T11:41:57Z</time>
      </trkpt>
      <trkpt lat="48.68524" lon="6.93092">
        <ele>266</ele>
        <time>2020-08-09T11:41:58Z</time>
      </trkpt>
      <trkpt lat="48.68528" lon="6.93086">
        <ele>266</ele>
        <time>2020-08-09T11:41:59Z</time>
      </trkpt>
      <trkpt lat="48.68533" lon="6.93081">
        <ele>266</ele>
        <time>2020-08-09T11:42:00Z</time>
      </trkpt>
      <trkpt lat="48.68536" lon="6.93075">
        <ele>266</ele>
        <time>2020-08-09T11:42:01Z</time>
      </trkpt>
      <trkpt lat="48.68541" lon="6.93069">
        <ele>266</ele>
        <time>2020-08-09T11:42:02Z</time>
      </trkpt>
      <trkpt lat="48.68545" lon="6.93064">
        <ele>266</ele>
        <time>2020-08-09T11:42:03Z</time>
      </trkpt>
      <trkpt lat="48.68549" lon="6.93059">
        <ele>266</ele>
        <time>2020-08-09T11:42:04Z</time>
      </trkpt>
      <trkpt lat="48.68554" lon="6.93055">
        <ele>266</ele>
        <time>2020-08-09T11:42:05Z</time>
      </trkpt>
      <trkpt lat="48.68558" lon="6.9305">
        <ele>266</ele>
        <time>2020-08-09T11:42:06Z</time>
      </trkpt>
      <trkpt lat="48.68563" lon="6.93045">
        <ele>265</ele>
        <time>2020-08-09T11:42:07Z</time>
      </trkpt>
      <trkpt lat="48.68567" lon="6.93041">
        <ele>265</ele>
        <time>2020-08-09T11:42:08Z</time>
      </trkpt>
      <trkpt lat="48.68571" lon="6.93036">
        <ele>265</ele>
        <time>2020-08-09T11:42:09Z</time>
      </trkpt>
      <trkpt lat="48.68575" lon="6.93031">
        <ele>265</ele>
        <time>2020-08-09T11:42:10Z</time>
      </trkpt>
      <trkpt lat="48.68579" lon="6.93027">
        <ele>266</ele>
        <time>2020-08-09T11:42:11Z</time>
      </trkpt>
      <trkpt lat="48.68583" lon="6.93021">
        <ele>266</ele>
        <time>2020-08-09T11:42:12Z</time>
      </trkpt>
      <trkpt lat="48.68586" lon="6.93015">
        <ele>266</ele>
        <time>2020-08-09T11:42:13Z</time>
      </trkpt>
      <trkpt lat="48.6859" lon="6.93009">
        <ele>266</ele>
        <time>2020-08-09T11:42:14Z</time>
      </trkpt>
      <trkpt lat="48.68594" lon="6.93003">
        <ele>266</ele>
        <time>2020-08-09T11:42:15Z</time>
      </trkpt>
      <trkpt lat="48.68597" lon="6.92998">
        <ele>266</ele>
        <time>2020-08-09T11:42:16Z</time>
      </trkpt>
      <trkpt lat="48.68601" lon="6.92992">
        <ele>266</ele>
        <time>2020-08-09T11:42:17Z</time>
      </trkpt>
      <trkpt lat="48.68605" lon="6.92987">
        <ele>266</ele>
        <time>2020-08-09T11:42:18Z</time>
      </trkpt>
      <trkpt lat="48.68609" lon="6.92981">
        <ele>265</ele>
        <time>2020-08-09T11:42:19Z</time>
      </trkpt>
      <trkpt lat="48.68613" lon="6.92976">
        <ele>265</ele>
        <time>2020-08-09T11:42:20Z</time>
      </trkpt>
      <trkpt lat="48.68618" lon="6.92971">
        <ele>265</ele>
        <time>2020-08-09T11:42:21Z</time>
      </trkpt>
      <trkpt lat="48.68621" lon="6.92966">
        <ele>265</ele>
        <time>2020-08-09T11:42:22Z</time>
      </trkpt>
      <trkpt lat="48.68629" lon="6.92957">
        <ele>265</ele>
        <time>2020-08-09T11:42:24Z</time>
      </trkpt>
      <trkpt lat="48.68635" lon="6.92949">
        <ele>265</ele>
        <time>2020-08-09T11:42:26Z</time>
      </trkpt>
      <trkpt lat="48.68642" lon="6.92942">
        <ele>265</ele>
        <time>2020-08-09T11:42:28Z</time>
      </trkpt>
      <trkpt lat="48.68646" lon="6.92937">
        <ele>265</ele>
        <time>2020-08-09T11:42:29Z</time>
      </trkpt>
      <trkpt lat="48.68653" lon="6.92929">
        <ele>265</ele>
        <time>2020-08-09T11:42:31Z</time>
      </trkpt>
      <trkpt lat="48.68657" lon="6.92924">
        <ele>265</ele>
        <time>2020-08-09T11:42:32Z</time>
      </trkpt>
      <trkpt lat="48.6866" lon="6.92919">
        <ele>265</ele>
        <time>2020-08-09T11:42:33Z</time>
      </trkpt>
      <trkpt lat="48.68665" lon="6.92914">
        <ele>265</ele>
        <time>2020-08-09T11:42:34Z</time>
      </trkpt>
      <trkpt lat="48.68671" lon="6.92906">
        <ele>265</ele>
        <time>2020-08-09T11:42:36Z</time>
      </trkpt>
      <trkpt lat="48.68676" lon="6.92902">
        <ele>265</ele>
        <time>2020-08-09T11:42:37Z</time>
      </trkpt>
      <trkpt lat="48.68679" lon="6.92896">
        <ele>265</ele>
        <time>2020-08-09T11:42:38Z</time>
      </trkpt>
      <trkpt lat="48.68683" lon="6.92891">
        <ele>265</ele>
        <time>2020-08-09T11:42:39Z</time>
      </trkpt>
      <trkpt lat="48.68687" lon="6.92887">
        <ele>265</ele>
        <time>2020-08-09T11:42:40Z</time>
      </trkpt>
      <trkpt lat="48.68691" lon="6.92882">
        <ele>265</ele>
        <time>2020-08-09T11:42:41Z</time>
      </trkpt>
      <trkpt lat="48.68694" lon="6.92876">
        <ele>265</ele>
        <time>2020-08-09T11:42:42Z</time>
      </trkpt>
      <trkpt lat="48.68697" lon="6.92871">
        <ele>265</ele>
        <time>2020-08-09T11:42:43Z</time>
      </trkpt>
      <trkpt lat="48.68708" lon="6.9286">
        <ele>265</ele>
        <time>2020-08-09T11:42:46Z</time>
      </trkpt>
      <trkpt lat="48.68712" lon="6.92855">
        <ele>266</ele>
        <time>2020-08-09T11:42:47Z</time>
      </trkpt>
      <trkpt lat="48.68715" lon="6.92849">
        <ele>266</ele>
        <time>2020-08-09T11:42:48Z</time>
      </trkpt>
      <trkpt lat="48.6872" lon="6.92845">
        <ele>266</ele>
        <time>2020-08-09T11:42:49Z</time>
      </trkpt>
      <trkpt lat="48.68724" lon="6.9284">
        <ele>266</ele>
        <time>2020-08-09T11:42:50Z</time>
      </trkpt>
      <trkpt lat="48.68728" lon="6.92836">
        <ele>266</ele>
        <time>2020-08-09T11:42:51Z</time>
      </trkpt>
      <trkpt lat="48.6873" lon="6.9283">
        <ele>266</ele>
        <time>2020-08-09T11:42:52Z</time>
      </trkpt>
      <trkpt lat="48.68736" lon="6.9282">
        <ele>267</ele>
        <time>2020-08-09T11:42:54Z</time>
      </trkpt>
      <trkpt lat="48.68739" lon="6.92814">
        <ele>267</ele>
        <time>2020-08-09T11:42:55Z</time>
      </trkpt>
      <trkpt lat="48.68744" lon="6.92806">
        <ele>267</ele>
        <time>2020-08-09T11:42:57Z</time>
      </trkpt>
      <trkpt lat="48.68745" lon="6.92794">
        <ele>267</ele>
        <time>2020-08-09T11:42:59Z</time>
      </trkpt>
      <trkpt lat="48.68742" lon="6.92784">
        <ele>268</ele>
        <time>2020-08-09T11:43:01Z</time>
      </trkpt>
      <trkpt lat="48.68734" lon="6.92783">
        <ele>269</ele>
        <time>2020-08-09T11:43:03Z</time>
      </trkpt>
      <trkpt lat="48.68727" lon="6.92782">
        <ele>270</ele>
        <time>2020-08-09T11:43:05Z</time>
      </trkpt>
      <trkpt lat="48.68722" lon="6.92781">
        <ele>270</ele>
        <time>2020-08-09T11:43:07Z</time>
      </trkpt>
      <trkpt lat="48.68716" lon="6.92779">
        <ele>270</ele>
        <time>2020-08-09T11:43:09Z</time>
      </trkpt>
      <trkpt lat="48.68711" lon="6.92778">
        <ele>270</ele>
        <time>2020-08-09T11:43:11Z</time>
      </trkpt>
      <trkpt lat="48.68706" lon="6.92777">
        <ele>270</ele>
        <time>2020-08-09T11:43:13Z</time>
      </trkpt>
      <trkpt lat="48.68701" lon="6.92778">
        <ele>270</ele>
        <time>2020-08-09T11:43:15Z</time>
      </trkpt>
      <trkpt lat="48.68695" lon="6.92778">
        <ele>270</ele>
        <time>2020-08-09T11:43:17Z</time>
      </trkpt>
      <trkpt lat="48.68689" lon="6.92777">
        <ele>270</ele>
        <time>2020-08-09T11:43:20Z</time>
      </trkpt>
      <trkpt lat="48.68686" lon="6.92772">
        <ele>270</ele>
        <time>2020-08-09T11:43:23Z</time>
      </trkpt>
      <trkpt lat="48.68688" lon="6.92763">
        <ele>270</ele>
        <time>2020-08-09T11:43:26Z</time>
      </trkpt>
      <trkpt lat="48.6869" lon="6.92756">
        <ele>270</ele>
        <time>2020-08-09T11:43:29Z</time>
      </trkpt>
      <trkpt lat="48.68691" lon="6.92749">
        <ele>270</ele>
        <time>2020-08-09T11:43:38Z</time>
      </trkpt>
      <trkpt lat="48.68694" lon="6.92742">
        <ele>270</ele>
        <time>2020-08-09T11:43:42Z</time>
      </trkpt>
      <trkpt lat="48.687" lon="6.92744">
        <ele>270</ele>
        <time>2020-08-09T11:43:44Z</time>
      </trkpt>
      <trkpt lat="48.68706" lon="6.92746">
        <ele>270</ele>
        <time>2020-08-09T11:43:46Z</time>
      </trkpt>
      <trkpt lat="48.68712" lon="6.92748">
        <ele>270</ele>
        <time>2020-08-09T11:43:48Z</time>
      </trkpt>
      <trkpt lat="48.68716" lon="6.92748">
        <ele>270</ele>
        <time>2020-08-09T11:43:50Z</time>
      </trkpt>
      <trkpt lat="48.68722" lon="6.9275">
        <ele>270</ele>
        <time>2020-08-09T11:43:52Z</time>
      </trkpt>
      <trkpt lat="48.68728" lon="6.9275">
        <ele>270</ele>
        <time>2020-08-09T11:43:54Z</time>
      </trkpt>
      <trkpt lat="48.68733" lon="6.9275">
        <ele>270</ele>
        <time>2020-08-09T11:43:56Z</time>
      </trkpt>
      <trkpt lat="48.68738" lon="6.92749">
        <ele>270</ele>
        <time>2020-08-09T11:43:58Z</time>
      </trkpt>
      <trkpt lat="48.68744" lon="6.9275">
        <ele>270</ele>
        <time>2020-08-09T11:44:00Z</time>
      </trkpt>
      <trkpt lat="48.68749" lon="6.92751">
        <ele>270</ele>
        <time>2020-08-09T11:44:02Z</time>
      </trkpt>
      <trkpt lat="48.68755" lon="6.92752">
        <ele>270</ele>
        <time>2020-08-09T11:44:05Z</time>
      </trkpt>
      <trkpt lat="48.68754" lon="6.92741">
        <ele>269</ele>
        <time>2020-08-09T11:45:21Z</time>
      </trkpt>
      <trkpt lat="48.68758" lon="6.92733">
        <ele>269</ele>
        <time>2020-08-09T11:45:23Z</time>
      </trkpt>
      <trkpt lat="48.6876" lon="6.92722">
        <ele>269</ele>
        <time>2020-08-09T11:45:25Z</time>
      </trkpt>
      <trkpt lat="48.68763" lon="6.92711">
        <ele>268</ele>
        <time>2020-08-09T11:45:27Z</time>
      </trkpt>
      <trkpt lat="48.68766" lon="6.92701">
        <ele>268</ele>
        <time>2020-08-09T11:45:29Z</time>
      </trkpt>
      <trkpt lat="48.68769" lon="6.92688">
        <ele>268</ele>
        <time>2020-08-09T11:45:31Z</time>
      </trkpt>
      <trkpt lat="48.68773" lon="6.92677">
        <ele>268</ele>
        <time>2020-08-09T11:45:33Z</time>
      </trkpt>
      <trkpt lat="48.68776" lon="6.92665">
        <ele>268</ele>
        <time>2020-08-09T11:45:35Z</time>
      </trkpt>
      <trkpt lat="48.68779" lon="6.92654">
        <ele>268</ele>
        <time>2020-08-09T11:45:37Z</time>
      </trkpt>
      <trkpt lat="48.68782" lon="6.92642">
        <ele>268</ele>
        <time>2020-08-09T11:45:39Z</time>
      </trkpt>
      <trkpt lat="48.68785" lon="6.92632">
        <ele>268</ele>
        <time>2020-08-09T11:45:41Z</time>
      </trkpt>
      <trkpt lat="48.68789" lon="6.92621">
        <ele>268</ele>
        <time>2020-08-09T11:45:43Z</time>
      </trkpt>
      <trkpt lat="48.68792" lon="6.92609">
        <ele>268</ele>
        <time>2020-08-09T11:47:25Z</time>
      </trkpt>
      <trkpt lat="48.68794" lon="6.92601">
        <ele>268</ele>
        <time>2020-08-09T11:47:27Z</time>
      </trkpt>
      <trkpt lat="48.68796" lon="6.92591">
        <ele>268</ele>
        <time>2020-08-09T11:47:29Z</time>
      </trkpt>
      <trkpt lat="48.68799" lon="6.9258">
        <ele>268</ele>
        <time>2020-08-09T11:47:31Z</time>
      </trkpt>
      <trkpt lat="48.68801" lon="6.92569">
        <ele>268</ele>
        <time>2020-08-09T11:47:33Z</time>
      </trkpt>
      <trkpt lat="48.68803" lon="6.92563">
        <ele>268</ele>
        <time>2020-08-09T11:47:34Z</time>
      </trkpt>
      <trkpt lat="48.68807" lon="6.92551">
        <ele>268</ele>
        <time>2020-08-09T11:47:36Z</time>
      </trkpt>
      <trkpt lat="48.68809" lon="6.92544">
        <ele>268</ele>
        <time>2020-08-09T11:47:37Z</time>
      </trkpt>
      <trkpt lat="48.68811" lon="6.92538">
        <ele>268</ele>
        <time>2020-08-09T11:47:38Z</time>
      </trkpt>
      <trkpt lat="48.68815" lon="6.92526">
        <ele>268</ele>
        <time>2020-08-09T11:47:40Z</time>
      </trkpt>
      <trkpt lat="48.68818" lon="6.92514">
        <ele>268</ele>
        <time>2020-08-09T11:47:42Z</time>
      </trkpt>
      <trkpt lat="48.68819" lon="6.92507">
        <ele>268</ele>
        <time>2020-08-09T11:47:43Z</time>
      </trkpt>
      <trkpt lat="48.68823" lon="6.92495">
        <ele>268</ele>
        <time>2020-08-09T11:47:45Z</time>
      </trkpt>
      <trkpt lat="48.68824" lon="6.92487">
        <ele>268</ele>
        <time>2020-08-09T11:47:46Z</time>
      </trkpt>
      <trkpt lat="48.68826" lon="6.9248">
        <ele>268</ele>
        <time>2020-08-09T11:47:47Z</time>
      </trkpt>
      <trkpt lat="48.68828" lon="6.92474">
        <ele>268</ele>
        <time>2020-08-09T11:47:48Z</time>
      </trkpt>
      <trkpt lat="48.68831" lon="6.92468">
        <ele>268</ele>
        <time>2020-08-09T11:47:49Z</time>
      </trkpt>
      <trkpt lat="48.68834" lon="6.92455">
        <ele>268</ele>
        <time>2020-08-09T11:47:51Z</time>
      </trkpt>
      <trkpt lat="48.68836" lon="6.92449">
        <ele>268</ele>
        <time>2020-08-09T11:47:52Z</time>
      </trkpt>
      <trkpt lat="48.68838" lon="6.92443">
        <ele>268</ele>
        <time>2020-08-09T11:47:53Z</time>
      </trkpt>
      <trkpt lat="48.6884" lon="6.92436">
        <ele>268</ele>
        <time>2020-08-09T11:47:54Z</time>
      </trkpt>
      <trkpt lat="48.68844" lon="6.92421">
        <ele>268</ele>
        <time>2020-08-09T11:47:56Z</time>
      </trkpt>
      <trkpt lat="48.68846" lon="6.92413">
        <ele>268</ele>
        <time>2020-08-09T11:47:57Z</time>
      </trkpt>
      <trkpt lat="48.6885" lon="6.92405">
        <ele>267</ele>
        <time>2020-08-09T11:47:58Z</time>
      </trkpt>
      <trkpt lat="48.68853" lon="6.92399">
        <ele>267</ele>
        <time>2020-08-09T11:47:59Z</time>
      </trkpt>
      <trkpt lat="48.68858" lon="6.92391">
        <ele>267</ele>
        <time>2020-08-09T11:48:00Z</time>
      </trkpt>
      <trkpt lat="48.68861" lon="6.92384">
        <ele>267</ele>
        <time>2020-08-09T11:48:01Z</time>
      </trkpt>
      <trkpt lat="48.68864" lon="6.92374">
        <ele>267</ele>
        <time>2020-08-09T11:48:02Z</time>
      </trkpt>
      <trkpt lat="48.68868" lon="6.92366">
        <ele>267</ele>
        <time>2020-08-09T11:48:03Z</time>
      </trkpt>
      <trkpt lat="48.6887" lon="6.92358">
        <ele>268</ele>
        <time>2020-08-09T11:48:04Z</time>
      </trkpt>
      <trkpt lat="48.68873" lon="6.92349">
        <ele>268</ele>
        <time>2020-08-09T11:48:05Z</time>
      </trkpt>
      <trkpt lat="48.68876" lon="6.92341">
        <ele>268</ele>
        <time>2020-08-09T11:48:06Z</time>
      </trkpt>
      <trkpt lat="48.68879" lon="6.92334">
        <ele>267</ele>
        <time>2020-08-09T11:48:07Z</time>
      </trkpt>
      <trkpt lat="48.68883" lon="6.92327">
        <ele>267</ele>
        <time>2020-08-09T11:48:08Z</time>
      </trkpt>
      <trkpt lat="48.68886" lon="6.92319">
        <ele>267</ele>
        <time>2020-08-09T11:48:09Z</time>
      </trkpt>
      <trkpt lat="48.68889" lon="6.92311">
        <ele>267</ele>
        <time>2020-08-09T11:48:10Z</time>
      </trkpt>
      <trkpt lat="48.68892" lon="6.92306">
        <ele>268</ele>
        <time>2020-08-09T11:48:11Z</time>
      </trkpt>
      <trkpt lat="48.68896" lon="6.92299">
        <ele>268</ele>
        <time>2020-08-09T11:48:12Z</time>
      </trkpt>
      <trkpt lat="48.68899" lon="6.92294">
        <ele>268</ele>
        <time>2020-08-09T11:48:13Z</time>
      </trkpt>
      <trkpt lat="48.68903" lon="6.92287">
        <ele>268</ele>
        <time>2020-08-09T11:48:14Z</time>
      </trkpt>
      <trkpt lat="48.68906" lon="6.92279">
        <ele>268</ele>
        <time>2020-08-09T11:48:15Z</time>
      </trkpt>
      <trkpt lat="48.6891" lon="6.92272">
        <ele>268</ele>
        <time>2020-08-09T11:48:16Z</time>
      </trkpt>
      <trkpt lat="48.68913" lon="6.92266">
        <ele>268</ele>
        <time>2020-08-09T11:48:17Z</time>
      </trkpt>
      <trkpt lat="48.68917" lon="6.9226">
        <ele>268</ele>
        <time>2020-08-09T11:48:18Z</time>
      </trkpt>
      <trkpt lat="48.6892" lon="6.92254">
        <ele>267</ele>
        <time>2020-08-09T11:48:19Z</time>
      </trkpt>
      <trkpt lat="48.68924" lon="6.92246">
        <ele>267</ele>
        <time>2020-08-09T11:48:20Z</time>
      </trkpt>
      <trkpt lat="48.68929" lon="6.92239">
        <ele>267</ele>
        <time>2020-08-09T11:48:21Z</time>
      </trkpt>
      <trkpt lat="48.68932" lon="6.92231">
        <ele>267</ele>
        <time>2020-08-09T11:48:22Z</time>
      </trkpt>
      <trkpt lat="48.68937" lon="6.92224">
        <ele>267</ele>
        <time>2020-08-09T11:48:23Z</time>
      </trkpt>
      <trkpt lat="48.6894" lon="6.92217">
        <ele>268</ele>
        <time>2020-08-09T11:48:24Z</time>
      </trkpt>
      <trkpt lat="48.68943" lon="6.9221">
        <ele>267</ele>
        <time>2020-08-09T11:48:25Z</time>
      </trkpt>
      <trkpt lat="48.68948" lon="6.92203">
        <ele>268</ele>
        <time>2020-08-09T11:48:26Z</time>
      </trkpt>
      <trkpt lat="48.68951" lon="6.92195">
        <ele>268</ele>
        <time>2020-08-09T11:48:27Z</time>
      </trkpt>
      <trkpt lat="48.68956" lon="6.92188">
        <ele>267</ele>
        <time>2020-08-09T11:48:28Z</time>
      </trkpt>
      <trkpt lat="48.68958" lon="6.92181">
        <ele>267</ele>
        <time>2020-08-09T11:48:29Z</time>
      </trkpt>
      <trkpt lat="48.68962" lon="6.92175">
        <ele>267</ele>
        <time>2020-08-09T11:48:30Z</time>
      </trkpt>
      <trkpt lat="48.68964" lon="6.92168">
        <ele>267</ele>
        <time>2020-08-09T11:48:31Z</time>
      </trkpt>
      <trkpt lat="48.68967" lon="6.92161">
        <ele>267</ele>
        <time>2020-08-09T11:48:32Z</time>
      </trkpt>
      <trkpt lat="48.68971" lon="6.92153">
        <ele>267</ele>
        <time>2020-08-09T11:48:33Z</time>
      </trkpt>
      <trkpt lat="48.68975" lon="6.92146">
        <ele>267</ele>
        <time>2020-08-09T11:48:34Z</time>
      </trkpt>
      <trkpt lat="48.68979" lon="6.92139">
        <ele>267</ele>
        <time>2020-08-09T11:48:35Z</time>
      </trkpt>
      <trkpt lat="48.68983" lon="6.92131">
        <ele>268</ele>
        <time>2020-08-09T11:48:36Z</time>
      </trkpt>
      <trkpt lat="48.68988" lon="6.92125">
        <ele>268</ele>
        <time>2020-08-09T11:48:37Z</time>
      </trkpt>
      <trkpt lat="48.68992" lon="6.92118">
        <ele>268</ele>
        <time>2020-08-09T11:48:38Z</time>
      </trkpt>
      <trkpt lat="48.68996" lon="6.9211">
        <ele>268</ele>
        <time>2020-08-09T11:48:39Z</time>
      </trkpt>
      <trkpt lat="48.69" lon="6.92103">
        <ele>268</ele>
        <time>2020-08-09T11:48:40Z</time>
      </trkpt>
      <trkpt lat="48.69004" lon="6.92096">
        <ele>268</ele>
        <time>2020-08-09T11:48:41Z</time>
      </trkpt>
      <trkpt lat="48.69008" lon="6.92088">
        <ele>268</ele>
        <time>2020-08-09T11:48:42Z</time>
      </trkpt>
      <trkpt lat="48.69012" lon="6.92081">
        <ele>267</ele>
        <time>2020-08-09T11:48:43Z</time>
      </trkpt>
      <trkpt lat="48.69016" lon="6.92073">
        <ele>268</ele>
        <time>2020-08-09T11:48:44Z</time>
      </trkpt>
      <trkpt lat="48.69019" lon="6.92065">
        <ele>267</ele>
        <time>2020-08-09T11:48:45Z</time>
      </trkpt>
      <trkpt lat="48.69024" lon="6.92058">
        <ele>267</ele>
        <time>2020-08-09T11:48:46Z</time>
      </trkpt>
      <trkpt lat="48.69027" lon="6.92051">
        <ele>268</ele>
        <time>2020-08-09T11:48:47Z</time>
      </trkpt>
      <trkpt lat="48.69031" lon="6.92044">
        <ele>268</ele>
        <time>2020-08-09T11:48:48Z</time>
      </trkpt>
      <trkpt lat="48.69035" lon="6.92037">
        <ele>269</ele>
        <time>2020-08-09T11:48:49Z</time>
      </trkpt>
      <trkpt lat="48.69037" lon="6.92028">
        <ele>269</ele>
        <time>2020-08-09T11:48:50Z</time>
      </trkpt>
      <trkpt lat="48.69041" lon="6.92021">
        <ele>269</ele>
        <time>2020-08-09T11:48:51Z</time>
      </trkpt>
      <trkpt lat="48.69046" lon="6.92013">
        <ele>269</ele>
        <time>2020-08-09T11:48:52Z</time>
      </trkpt>
      <trkpt lat="48.6905" lon="6.92006">
        <ele>269</ele>
        <time>2020-08-09T11:48:53Z</time>
      </trkpt>
      <trkpt lat="48.69055" lon="6.91998">
        <ele>269</ele>
        <time>2020-08-09T11:48:54Z</time>
      </trkpt>
      <trkpt lat="48.69059" lon="6.9199">
        <ele>269</ele>
        <time>2020-08-09T11:48:55Z</time>
      </trkpt>
      <trkpt lat="48.69063" lon="6.91983">
        <ele>269</ele>
        <time>2020-08-09T11:48:56Z</time>
      </trkpt>
      <trkpt lat="48.69066" lon="6.91976">
        <ele>269</ele>
        <time>2020-08-09T11:48:57Z</time>
      </trkpt>
      <trkpt lat="48.6907" lon="6.91969">
        <ele>269</ele>
        <time>2020-08-09T11:48:58Z</time>
      </trkpt>
      <trkpt lat="48.69074" lon="6.91963">
        <ele>269</ele>
        <time>2020-08-09T11:48:59Z</time>
      </trkpt>
      <trkpt lat="48.69077" lon="6.91954">
        <ele>269</ele>
        <time>2020-08-09T11:49:00Z</time>
      </trkpt>
      <trkpt lat="48.69081" lon="6.91948">
        <ele>268</ele>
        <time>2020-08-09T11:49:01Z</time>
      </trkpt>
      <trkpt lat="48.69085" lon="6.91941">
        <ele>268</ele>
        <time>2020-08-09T11:49:02Z</time>
      </trkpt>
      <trkpt lat="48.69089" lon="6.91934">
        <ele>268</ele>
        <time>2020-08-09T11:49:03Z</time>
      </trkpt>
      <trkpt lat="48.69093" lon="6.91927">
        <ele>268</ele>
        <time>2020-08-09T11:49:04Z</time>
      </trkpt>
      <trkpt lat="48.69096" lon="6.91921">
        <ele>268</ele>
        <time>2020-08-09T11:49:05Z</time>
      </trkpt>
      <trkpt lat="48.691" lon="6.91914">
        <ele>268</ele>
        <time>2020-08-09T11:49:06Z</time>
      </trkpt>
      <trkpt lat="48.69104" lon="6.91907">
        <ele>269</ele>
        <time>2020-08-09T11:49:07Z</time>
      </trkpt>
      <trkpt lat="48.69107" lon="6.91901">
        <ele>269</ele>
        <time>2020-08-09T11:49:08Z</time>
      </trkpt>
      <trkpt lat="48.69111" lon="6.91894">
        <ele>269</ele>
        <time>2020-08-09T11:49:09Z</time>
      </trkpt>
      <trkpt lat="48.69115" lon="6.91888">
        <ele>269</ele>
        <time>2020-08-09T11:49:10Z</time>
      </trkpt>
      <trkpt lat="48.69121" lon="6.91877">
        <ele>269</ele>
        <time>2020-08-09T11:49:12Z</time>
      </trkpt>
      <trkpt lat="48.69124" lon="6.91871">
        <ele>269</ele>
        <time>2020-08-09T11:49:13Z</time>
      </trkpt>
      <trkpt lat="48.69131" lon="6.91858">
        <ele>268</ele>
        <time>2020-08-09T11:49:15Z</time>
      </trkpt>
      <trkpt lat="48.69135" lon="6.91851">
        <ele>267</ele>
        <time>2020-08-09T11:49:16Z</time>
      </trkpt>
      <trkpt lat="48.69138" lon="6.91844">
        <ele>267</ele>
        <time>2020-08-09T11:49:17Z</time>
      </trkpt>
      <trkpt lat="48.69143" lon="6.91837">
        <ele>267</ele>
        <time>2020-08-09T11:49:18Z</time>
      </trkpt>
      <trkpt lat="48.69146" lon="6.9183">
        <ele>267</ele>
        <time>2020-08-09T11:49:19Z</time>
      </trkpt>
      <trkpt lat="48.6915" lon="6.91821">
        <ele>267</ele>
        <time>2020-08-09T11:49:20Z</time>
      </trkpt>
      <trkpt lat="48.69153" lon="6.91815">
        <ele>267</ele>
        <time>2020-08-09T11:49:21Z</time>
      </trkpt>
      <trkpt lat="48.69157" lon="6.91808">
        <ele>267</ele>
        <time>2020-08-09T11:49:22Z</time>
      </trkpt>
      <trkpt lat="48.69161" lon="6.91802">
        <ele>267</ele>
        <time>2020-08-09T11:49:23Z</time>
      </trkpt>
      <trkpt lat="48.69164" lon="6.91796">
        <ele>267</ele>
        <time>2020-08-09T11:49:24Z</time>
      </trkpt>
      <trkpt lat="48.69167" lon="6.91788">
        <ele>268</ele>
        <time>2020-08-09T11:49:25Z</time>
      </trkpt>
      <trkpt lat="48.69171" lon="6.91781">
        <ele>268</ele>
        <time>2020-08-09T11:49:26Z</time>
      </trkpt>
      <trkpt lat="48.69174" lon="6.91775">
        <ele>268</ele>
        <time>2020-08-09T11:49:27Z</time>
      </trkpt>
      <trkpt lat="48.69178" lon="6.91769">
        <ele>268</ele>
        <time>2020-08-09T11:49:28Z</time>
      </trkpt>
      <trkpt lat="48.69182" lon="6.91762">
        <ele>268</ele>
        <time>2020-08-09T11:49:29Z</time>
      </trkpt>
      <trkpt lat="48.69184" lon="6.91755">
        <ele>268</ele>
        <time>2020-08-09T11:49:30Z</time>
      </trkpt>
      <trkpt lat="48.69187" lon="6.91748">
        <ele>268</ele>
        <time>2020-08-09T11:49:31Z</time>
      </trkpt>
      <trkpt lat="48.69191" lon="6.91741">
        <ele>268</ele>
        <time>2020-08-09T11:49:32Z</time>
      </trkpt>
      <trkpt lat="48.69195" lon="6.91734">
        <ele>267</ele>
        <time>2020-08-09T11:49:33Z</time>
      </trkpt>
      <trkpt lat="48.69199" lon="6.91727">
        <ele>267</ele>
        <time>2020-08-09T11:49:34Z</time>
      </trkpt>
      <trkpt lat="48.69202" lon="6.91719">
        <ele>268</ele>
        <time>2020-08-09T11:49:35Z</time>
      </trkpt>
      <trkpt lat="48.69207" lon="6.91712">
        <ele>267</ele>
        <time>2020-08-09T11:49:36Z</time>
      </trkpt>
      <trkpt lat="48.69214" lon="6.91701">
        <ele>267</ele>
        <time>2020-08-09T11:49:38Z</time>
      </trkpt>
      <trkpt lat="48.69218" lon="6.91694">
        <ele>267</ele>
        <time>2020-08-09T11:49:39Z</time>
      </trkpt>
      <trkpt lat="48.69221" lon="6.91688">
        <ele>267</ele>
        <time>2020-08-09T11:49:40Z</time>
      </trkpt>
      <trkpt lat="48.69225" lon="6.91681">
        <ele>267</ele>
        <time>2020-08-09T11:49:41Z</time>
      </trkpt>
      <trkpt lat="48.69228" lon="6.91675">
        <ele>268</ele>
        <time>2020-08-09T11:49:42Z</time>
      </trkpt>
      <trkpt lat="48.69232" lon="6.91668">
        <ele>268</ele>
        <time>2020-08-09T11:49:43Z</time>
      </trkpt>
      <trkpt lat="48.69236" lon="6.91661">
        <ele>268</ele>
        <time>2020-08-09T11:49:44Z</time>
      </trkpt>
      <trkpt lat="48.69239" lon="6.91655">
        <ele>268</ele>
        <time>2020-08-09T11:49:45Z</time>
      </trkpt>
      <trkpt lat="48.69244" lon="6.91648">
        <ele>268</ele>
        <time>2020-08-09T11:49:46Z</time>
      </trkpt>
      <trkpt lat="48.69247" lon="6.91642">
        <ele>268</ele>
        <time>2020-08-09T11:49:47Z</time>
      </trkpt>
      <trkpt lat="48.69251" lon="6.91636">
        <ele>268</ele>
        <time>2020-08-09T11:49:48Z</time>
      </trkpt>
      <trkpt lat="48.69254" lon="6.91629">
        <ele>268</ele>
        <time>2020-08-09T11:49:49Z</time>
      </trkpt>
      <trkpt lat="48.69257" lon="6.91622">
        <ele>269</ele>
        <time>2020-08-09T11:49:50Z</time>
      </trkpt>
      <trkpt lat="48.69262" lon="6.91615">
        <ele>269</ele>
        <time>2020-08-09T11:49:51Z</time>
      </trkpt>
      <trkpt lat="48.69265" lon="6.91608">
        <ele>269</ele>
        <time>2020-08-09T11:49:52Z</time>
      </trkpt>
      <trkpt lat="48.69268" lon="6.91601">
        <ele>269</ele>
        <time>2020-08-09T11:49:53Z</time>
      </trkpt>
      <trkpt lat="48.69272" lon="6.91595">
        <ele>269</ele>
        <time>2020-08-09T11:49:54Z</time>
      </trkpt>
      <trkpt lat="48.69275" lon="6.91588">
        <ele>268</ele>
        <time>2020-08-09T11:49:55Z</time>
      </trkpt>
      <trkpt lat="48.69278" lon="6.9158">
        <ele>268</ele>
        <time>2020-08-09T11:49:56Z</time>
      </trkpt>
      <trkpt lat="48.69282" lon="6.9157">
        <ele>268</ele>
        <time>2020-08-09T11:49:57Z</time>
      </trkpt>
      <trkpt lat="48.69285" lon="6.91564">
        <ele>268</ele>
        <time>2020-08-09T11:49:58Z</time>
      </trkpt>
      <trkpt lat="48.69288" lon="6.91558">
        <ele>268</ele>
        <time>2020-08-09T11:49:59Z</time>
      </trkpt>
      <trkpt lat="48.69291" lon="6.9155">
        <ele>268</ele>
        <time>2020-08-09T11:50:00Z</time>
      </trkpt>
      <trkpt lat="48.69295" lon="6.91543">
        <ele>268</ele>
        <time>2020-08-09T11:50:01Z</time>
      </trkpt>
      <trkpt lat="48.69299" lon="6.91536">
        <ele>268</ele>
        <time>2020-08-09T11:50:02Z</time>
      </trkpt>
      <trkpt lat="48.69302" lon="6.91529">
        <ele>268</ele>
        <time>2020-08-09T11:50:03Z</time>
      </trkpt>
      <trkpt lat="48.69306" lon="6.91523">
        <ele>268</ele>
        <time>2020-08-09T11:50:04Z</time>
      </trkpt>
      <trkpt lat="48.69309" lon="6.91515">
        <ele>269</ele>
        <time>2020-08-09T11:50:05Z</time>
      </trkpt>
      <trkpt lat="48.69312" lon="6.91509">
        <ele>269</ele>
        <time>2020-08-09T11:50:06Z</time>
      </trkpt>
      <trkpt lat="48.69318" lon="6.91498">
        <ele>269</ele>
        <time>2020-08-09T11:50:08Z</time>
      </trkpt>
      <trkpt lat="48.69322" lon="6.91491">
        <ele>268</ele>
        <time>2020-08-09T11:50:09Z</time>
      </trkpt>
      <trkpt lat="48.69326" lon="6.91485">
        <ele>268</ele>
        <time>2020-08-09T11:50:10Z</time>
      </trkpt>
      <trkpt lat="48.6933" lon="6.91479">
        <ele>269</ele>
        <time>2020-08-09T11:50:11Z</time>
      </trkpt>
      <trkpt lat="48.69333" lon="6.91473">
        <ele>269</ele>
        <time>2020-08-09T11:50:12Z</time>
      </trkpt>
      <trkpt lat="48.69337" lon="6.91466">
        <ele>269</ele>
        <time>2020-08-09T11:50:13Z</time>
      </trkpt>
      <trkpt lat="48.69341" lon="6.91459">
        <ele>269</ele>
        <time>2020-08-09T11:50:14Z</time>
      </trkpt>
      <trkpt lat="48.69344" lon="6.91453">
        <ele>269</ele>
        <time>2020-08-09T11:50:15Z</time>
      </trkpt>
      <trkpt lat="48.69349" lon="6.91445">
        <ele>269</ele>
        <time>2020-08-09T11:50:16Z</time>
      </trkpt>
      <trkpt lat="48.69355" lon="6.91436">
        <ele>269</ele>
        <time>2020-08-09T11:50:18Z</time>
      </trkpt>
      <trkpt lat="48.69358" lon="6.91429">
        <ele>269</ele>
        <time>2020-08-09T11:50:19Z</time>
      </trkpt>
      <trkpt lat="48.69362" lon="6.91422">
        <ele>269</ele>
        <time>2020-08-09T11:50:20Z</time>
      </trkpt>
      <trkpt lat="48.69365" lon="6.91415">
        <ele>269</ele>
        <time>2020-08-09T11:50:21Z</time>
      </trkpt>
      <trkpt lat="48.69368" lon="6.91409">
        <ele>269</ele>
        <time>2020-08-09T11:50:22Z</time>
      </trkpt>
      <trkpt lat="48.69372" lon="6.91403">
        <ele>269</ele>
        <time>2020-08-09T11:50:23Z</time>
      </trkpt>
      <trkpt lat="48.69375" lon="6.91396">
        <ele>269</ele>
        <time>2020-08-09T11:50:24Z</time>
      </trkpt>
      <trkpt lat="48.69378" lon="6.91389">
        <ele>269</ele>
        <time>2020-08-09T11:50:25Z</time>
      </trkpt>
      <trkpt lat="48.69382" lon="6.91383">
        <ele>269</ele>
        <time>2020-08-09T11:50:26Z</time>
      </trkpt>
      <trkpt lat="48.69385" lon="6.91378">
        <ele>269</ele>
        <time>2020-08-09T11:50:27Z</time>
      </trkpt>
      <trkpt lat="48.69389" lon="6.9137">
        <ele>269</ele>
        <time>2020-08-09T11:50:28Z</time>
      </trkpt>
      <trkpt lat="48.69395" lon="6.9136">
        <ele>268</ele>
        <time>2020-08-09T11:50:30Z</time>
      </trkpt>
      <trkpt lat="48.69398" lon="6.91353">
        <ele>268</ele>
        <time>2020-08-09T11:50:31Z</time>
      </trkpt>
      <trkpt lat="48.69402" lon="6.91346">
        <ele>268</ele>
        <time>2020-08-09T11:50:32Z</time>
      </trkpt>
      <trkpt lat="48.69405" lon="6.9134">
        <ele>268</ele>
        <time>2020-08-09T11:50:33Z</time>
      </trkpt>
      <trkpt lat="48.69408" lon="6.91331">
        <ele>269</ele>
        <time>2020-08-09T11:50:34Z</time>
      </trkpt>
      <trkpt lat="48.69412" lon="6.91325">
        <ele>269</ele>
        <time>2020-08-09T11:50:35Z</time>
      </trkpt>
      <trkpt lat="48.69415" lon="6.91318">
        <ele>269</ele>
        <time>2020-08-09T11:50:36Z</time>
      </trkpt>
      <trkpt lat="48.69419" lon="6.91312">
        <ele>269</ele>
        <time>2020-08-09T11:50:37Z</time>
      </trkpt>
      <trkpt lat="48.69423" lon="6.91305">
        <ele>269</ele>
        <time>2020-08-09T11:50:38Z</time>
      </trkpt>
      <trkpt lat="48.69426" lon="6.913">
        <ele>269</ele>
        <time>2020-08-09T11:50:39Z</time>
      </trkpt>
      <trkpt lat="48.6943" lon="6.91294">
        <ele>268</ele>
        <time>2020-08-09T11:50:40Z</time>
      </trkpt>
      <trkpt lat="48.69434" lon="6.91287">
        <ele>268</ele>
        <time>2020-08-09T11:50:41Z</time>
      </trkpt>
      <trkpt lat="48.69437" lon="6.9128">
        <ele>268</ele>
        <time>2020-08-09T11:50:42Z</time>
      </trkpt>
      <trkpt lat="48.6944" lon="6.91274">
        <ele>268</ele>
        <time>2020-08-09T11:50:43Z</time>
      </trkpt>
      <trkpt lat="48.69444" lon="6.91268">
        <ele>268</ele>
        <time>2020-08-09T11:50:44Z</time>
      </trkpt>
      <trkpt lat="48.69447" lon="6.91262">
        <ele>268</ele>
        <time>2020-08-09T11:50:45Z</time>
      </trkpt>
      <trkpt lat="48.6945" lon="6.91255">
        <ele>268</ele>
        <time>2020-08-09T11:50:46Z</time>
      </trkpt>
      <trkpt lat="48.69455" lon="6.91248">
        <ele>268</ele>
        <time>2020-08-09T11:50:47Z</time>
      </trkpt>
      <trkpt lat="48.69458" lon="6.91241">
        <ele>268</ele>
        <time>2020-08-09T11:50:48Z</time>
      </trkpt>
      <trkpt lat="48.69463" lon="6.91234">
        <ele>268</ele>
        <time>2020-08-09T11:50:49Z</time>
      </trkpt>
      <trkpt lat="48.69466" lon="6.91228">
        <ele>268</ele>
        <time>2020-08-09T11:50:50Z</time>
      </trkpt>
      <trkpt lat="48.69469" lon="6.91221">
        <ele>269</ele>
        <time>2020-08-09T11:50:51Z</time>
      </trkpt>
      <trkpt lat="48.69474" lon="6.91216">
        <ele>269</ele>
        <time>2020-08-09T11:50:52Z</time>
      </trkpt>
      <trkpt lat="48.69477" lon="6.91209">
        <ele>269</ele>
        <time>2020-08-09T11:50:53Z</time>
      </trkpt>
      <trkpt lat="48.69481" lon="6.91204">
        <ele>269</ele>
        <time>2020-08-09T11:50:54Z</time>
      </trkpt>
      <trkpt lat="48.69488" lon="6.91195">
        <ele>269</ele>
        <time>2020-08-09T11:50:56Z</time>
      </trkpt>
      <trkpt lat="48.69494" lon="6.91186">
        <ele>269</ele>
        <time>2020-08-09T11:50:57Z</time>
      </trkpt>
      <trkpt lat="48.69498" lon="6.9118">
        <ele>269</ele>
        <time>2020-08-09T11:50:58Z</time>
      </trkpt>
      <trkpt lat="48.69502" lon="6.91175">
        <ele>268</ele>
        <time>2020-08-09T11:50:59Z</time>
      </trkpt>
      <trkpt lat="48.69507" lon="6.91169">
        <ele>268</ele>
        <time>2020-08-09T11:51:00Z</time>
      </trkpt>
      <trkpt lat="48.69511" lon="6.91164">
        <ele>268</ele>
        <time>2020-08-09T11:51:01Z</time>
      </trkpt>
      <trkpt lat="48.69516" lon="6.91161">
        <ele>268</ele>
        <time>2020-08-09T11:51:02Z</time>
      </trkpt>
      <trkpt lat="48.6952" lon="6.91156">
        <ele>268</ele>
        <time>2020-08-09T11:51:03Z</time>
      </trkpt>
      <trkpt lat="48.69527" lon="6.9115">
        <ele>269</ele>
        <time>2020-08-09T11:51:05Z</time>
      </trkpt>
      <trkpt lat="48.69532" lon="6.91144">
        <ele>269</ele>
        <time>2020-08-09T11:51:06Z</time>
      </trkpt>
      <trkpt lat="48.69537" lon="6.9114">
        <ele>269</ele>
        <time>2020-08-09T11:51:07Z</time>
      </trkpt>
      <trkpt lat="48.69542" lon="6.91133">
        <ele>269</ele>
        <time>2020-08-09T11:51:08Z</time>
      </trkpt>
      <trkpt lat="48.69547" lon="6.91128">
        <ele>270</ele>
        <time>2020-08-09T11:51:09Z</time>
      </trkpt>
      <trkpt lat="48.69552" lon="6.91125">
        <ele>270</ele>
        <time>2020-08-09T11:51:10Z</time>
      </trkpt>
      <trkpt lat="48.69557" lon="6.91122">
        <ele>270</ele>
        <time>2020-08-09T11:51:11Z</time>
      </trkpt>
      <trkpt lat="48.69563" lon="6.91118">
        <ele>270</ele>
        <time>2020-08-09T11:51:12Z</time>
      </trkpt>
      <trkpt lat="48.69568" lon="6.91115">
        <ele>269</ele>
        <time>2020-08-09T11:51:13Z</time>
      </trkpt>
      <trkpt lat="48.69577" lon="6.91109">
        <ele>269</ele>
        <time>2020-08-09T11:51:15Z</time>
      </trkpt>
      <trkpt lat="48.69581" lon="6.91107">
        <ele>269</ele>
        <time>2020-08-09T11:51:16Z</time>
      </trkpt>
      <trkpt lat="48.69587" lon="6.91105">
        <ele>270</ele>
        <time>2020-08-09T11:51:17Z</time>
      </trkpt>
      <trkpt lat="48.69592" lon="6.91102">
        <ele>270</ele>
        <time>2020-08-09T11:51:18Z</time>
      </trkpt>
      <trkpt lat="48.69597" lon="6.91099">
        <ele>269</ele>
        <time>2020-08-09T11:51:19Z</time>
      </trkpt>
      <trkpt lat="48.69601" lon="6.91097">
        <ele>269</ele>
        <time>2020-08-09T11:51:20Z</time>
      </trkpt>
      <trkpt lat="48.69607" lon="6.91094">
        <ele>269</ele>
        <time>2020-08-09T11:51:21Z</time>
      </trkpt>
      <trkpt lat="48.69612" lon="6.91091">
        <ele>269</ele>
        <time>2020-08-09T11:51:22Z</time>
      </trkpt>
      <trkpt lat="48.69618" lon="6.91089">
        <ele>269</ele>
        <time>2020-08-09T11:51:23Z</time>
      </trkpt>
      <trkpt lat="48.69622" lon="6.91086">
        <ele>268</ele>
        <time>2020-08-09T11:51:24Z</time>
      </trkpt>
      <trkpt lat="48.69628" lon="6.91085">
        <ele>268</ele>
        <time>2020-08-09T11:51:25Z</time>
      </trkpt>
      <trkpt lat="48.69634" lon="6.91082">
        <ele>269</ele>
        <time>2020-08-09T11:51:26Z</time>
      </trkpt>
      <trkpt lat="48.69638" lon="6.91079">
        <ele>269</ele>
        <time>2020-08-09T11:51:27Z</time>
      </trkpt>
      <trkpt lat="48.69644" lon="6.91077">
        <ele>269</ele>
        <time>2020-08-09T11:51:28Z</time>
      </trkpt>
      <trkpt lat="48.6965" lon="6.91074">
        <ele>269</ele>
        <time>2020-08-09T11:51:29Z</time>
      </trkpt>
      <trkpt lat="48.69655" lon="6.91072">
        <ele>269</ele>
        <time>2020-08-09T11:51:30Z</time>
      </trkpt>
      <trkpt lat="48.69661" lon="6.9107">
        <ele>270</ele>
        <time>2020-08-09T11:51:31Z</time>
      </trkpt>
      <trkpt lat="48.69666" lon="6.91068">
        <ele>270</ele>
        <time>2020-08-09T11:51:32Z</time>
      </trkpt>
      <trkpt lat="48.69671" lon="6.91065">
        <ele>270</ele>
        <time>2020-08-09T11:51:33Z</time>
      </trkpt>
      <trkpt lat="48.69675" lon="6.91062">
        <ele>270</ele>
        <time>2020-08-09T11:51:34Z</time>
      </trkpt>
      <trkpt lat="48.6968" lon="6.9106">
        <ele>270</ele>
        <time>2020-08-09T11:51:35Z</time>
      </trkpt>
      <trkpt lat="48.69686" lon="6.91057">
        <ele>269</ele>
        <time>2020-08-09T11:51:36Z</time>
      </trkpt>
      <trkpt lat="48.69691" lon="6.91055">
        <ele>269</ele>
        <time>2020-08-09T11:51:37Z</time>
      </trkpt>
      <trkpt lat="48.69696" lon="6.91053">
        <ele>269</ele>
        <time>2020-08-09T11:51:38Z</time>
      </trkpt>
      <trkpt lat="48.69702" lon="6.91051">
        <ele>269</ele>
        <time>2020-08-09T11:51:39Z</time>
      </trkpt>
      <trkpt lat="48.69707" lon="6.91049">
        <ele>269</ele>
        <time>2020-08-09T11:51:40Z</time>
      </trkpt>
      <trkpt lat="48.69712" lon="6.91047">
        <ele>269</ele>
        <time>2020-08-09T11:51:41Z</time>
      </trkpt>
      <trkpt lat="48.69719" lon="6.91045">
        <ele>269</ele>
        <time>2020-08-09T11:51:42Z</time>
      </trkpt>
      <trkpt lat="48.69724" lon="6.91044">
        <ele>269</ele>
        <time>2020-08-09T11:51:43Z</time>
      </trkpt>
      <trkpt lat="48.69729" lon="6.91041">
        <ele>268</ele>
        <time>2020-08-09T11:51:44Z</time>
      </trkpt>
      <trkpt lat="48.69734" lon="6.91038">
        <ele>268</ele>
        <time>2020-08-09T11:51:45Z</time>
      </trkpt>
      <trkpt lat="48.6974" lon="6.91035">
        <ele>268</ele>
        <time>2020-08-09T11:51:46Z</time>
      </trkpt>
      <trkpt lat="48.69745" lon="6.91033">
        <ele>268</ele>
        <time>2020-08-09T11:51:47Z</time>
      </trkpt>
      <trkpt lat="48.6975" lon="6.91032">
        <ele>268</ele>
        <time>2020-08-09T11:51:48Z</time>
      </trkpt>
      <trkpt lat="48.69755" lon="6.91031">
        <ele>268</ele>
        <time>2020-08-09T11:51:49Z</time>
      </trkpt>
      <trkpt lat="48.69758" lon="6.91036">
        <ele>268</ele>
        <time>2020-08-09T11:52:20Z</time>
      </trkpt>
      <trkpt lat="48.69766" lon="6.91031">
        <ele>268</ele>
        <time>2020-08-09T11:53:36Z</time>
      </trkpt>
      <trkpt lat="48.69772" lon="6.91029">
        <ele>268</ele>
        <time>2020-08-09T11:53:39Z</time>
      </trkpt>
      <trkpt lat="48.69778" lon="6.91025">
        <ele>268</ele>
        <time>2020-08-09T11:53:42Z</time>
      </trkpt>
      <trkpt lat="48.69783" lon="6.91023">
        <ele>269</ele>
        <time>2020-08-09T11:53:44Z</time>
      </trkpt>
      <trkpt lat="48.69789" lon="6.91021">
        <ele>268</ele>
        <time>2020-08-09T11:53:46Z</time>
      </trkpt>
      <trkpt lat="48.69796" lon="6.91018">
        <ele>268</ele>
        <time>2020-08-09T11:53:48Z</time>
      </trkpt>
      <trkpt lat="48.69805" lon="6.91013">
        <ele>268</ele>
        <time>2020-08-09T11:53:50Z</time>
      </trkpt>
      <trkpt lat="48.69813" lon="6.9101">
        <ele>268</ele>
        <time>2020-08-09T11:53:52Z</time>
      </trkpt>
      <trkpt lat="48.69821" lon="6.91007">
        <ele>267</ele>
        <time>2020-08-09T11:53:54Z</time>
      </trkpt>
      <trkpt lat="48.69826" lon="6.91006">
        <ele>267</ele>
        <time>2020-08-09T11:53:55Z</time>
      </trkpt>
      <trkpt lat="48.69835" lon="6.91003">
        <ele>267</ele>
        <time>2020-08-09T11:53:57Z</time>
      </trkpt>
      <trkpt lat="48.69843" lon="6.90999">
        <ele>267</ele>
        <time>2020-08-09T11:53:59Z</time>
      </trkpt>
      <trkpt lat="48.69853" lon="6.90996">
        <ele>266</ele>
        <time>2020-08-09T11:54:01Z</time>
      </trkpt>
      <trkpt lat="48.69861" lon="6.90992">
        <ele>266</ele>
        <time>2020-08-09T11:54:03Z</time>
      </trkpt>
      <trkpt lat="48.69866" lon="6.9099">
        <ele>267</ele>
        <time>2020-08-09T11:54:04Z</time>
      </trkpt>
      <trkpt lat="48.69873" lon="6.90987">
        <ele>267</ele>
        <time>2020-08-09T11:54:06Z</time>
      </trkpt>
      <trkpt lat="48.69878" lon="6.90986">
        <ele>267</ele>
        <time>2020-08-09T11:54:07Z</time>
      </trkpt>
      <trkpt lat="48.69885" lon="6.90983">
        <ele>267</ele>
        <time>2020-08-09T11:54:09Z</time>
      </trkpt>
      <trkpt lat="48.69894" lon="6.90978">
        <ele>267</ele>
        <time>2020-08-09T11:54:11Z</time>
      </trkpt>
      <trkpt lat="48.69901" lon="6.90974">
        <ele>267</ele>
        <time>2020-08-09T11:54:13Z</time>
      </trkpt>
      <trkpt lat="48.69909" lon="6.90969">
        <ele>268</ele>
        <time>2020-08-09T11:54:15Z</time>
      </trkpt>
      <trkpt lat="48.69913" lon="6.90966">
        <ele>268</ele>
        <time>2020-08-09T11:54:17Z</time>
      </trkpt>
      <trkpt lat="48.6992" lon="6.90962">
        <ele>268</ele>
        <time>2020-08-09T11:54:18Z</time>
      </trkpt>
      <trkpt lat="48.69927" lon="6.9096">
        <ele>268</ele>
        <time>2020-08-09T11:54:20Z</time>
      </trkpt>
      <trkpt lat="48.69933" lon="6.90956">
        <ele>267</ele>
        <time>2020-08-09T11:54:23Z</time>
      </trkpt>
      <trkpt lat="48.69938" lon="6.90954">
        <ele>267</ele>
        <time>2020-08-09T11:54:26Z</time>
      </trkpt>
      <trkpt lat="48.69945" lon="6.90952">
        <ele>268</ele>
        <time>2020-08-09T11:54:30Z</time>
      </trkpt>
      <trkpt lat="48.69951" lon="6.9095">
        <ele>268</ele>
        <time>2020-08-09T11:54:33Z</time>
      </trkpt>
      <trkpt lat="48.69945" lon="6.90953">
        <ele>267</ele>
        <time>2020-08-09T11:54:48Z</time>
      </trkpt>
      <trkpt lat="48.6994" lon="6.90952">
        <ele>268</ele>
        <time>2020-08-09T11:54:52Z</time>
      </trkpt>
      <trkpt lat="48.69935" lon="6.90953">
        <ele>267</ele>
        <time>2020-08-09T11:54:56Z</time>
      </trkpt>
      <trkpt lat="48.6993" lon="6.90955">
        <ele>267</ele>
        <time>2020-08-09T11:55:20Z</time>
      </trkpt>
      <trkpt lat="48.70023" lon="6.91039">
        <ele>269</ele>
        <time>2020-08-09T12:17:31Z</time>
      </trkpt>
      <trkpt lat="48.70026" lon="6.91047">
        <ele>269</ele>
        <time>2020-08-09T12:17:33Z</time>
      </trkpt>
      <trkpt lat="48.70028" lon="6.91057">
        <ele>268</ele>
        <time>2020-08-09T12:17:35Z</time>
      </trkpt>
      <trkpt lat="48.70033" lon="6.91068">
        <ele>268</ele>
        <time>2020-08-09T12:17:37Z</time>
      </trkpt>
      <trkpt lat="48.70036" lon="6.91077">
        <ele>268</ele>
        <time>2020-08-09T12:17:39Z</time>
      </trkpt>
      <trkpt lat="48.70041" lon="6.91087">
        <ele>268</ele>
        <time>2020-08-09T12:17:41Z</time>
      </trkpt>
      <trkpt lat="48.70045" lon="6.91096">
        <ele>269</ele>
        <time>2020-08-09T12:17:43Z</time>
      </trkpt>
      <trkpt lat="48.70049" lon="6.91105">
        <ele>269</ele>
        <time>2020-08-09T12:17:45Z</time>
      </trkpt>
      <trkpt lat="48.70054" lon="6.91115">
        <ele>268</ele>
        <time>2020-08-09T12:17:47Z</time>
      </trkpt>
      <trkpt lat="48.7006" lon="6.91124">
        <ele>268</ele>
        <time>2020-08-09T12:17:49Z</time>
      </trkpt>
      <trkpt lat="48.70063" lon="6.91133">
        <ele>269</ele>
        <time>2020-08-09T12:17:51Z</time>
      </trkpt>
      <trkpt lat="48.70069" lon="6.91142">
        <ele>269</ele>
        <time>2020-08-09T12:17:53Z</time>
      </trkpt>
      <trkpt lat="48.70073" lon="6.91151">
        <ele>269</ele>
        <time>2020-08-09T12:17:55Z</time>
      </trkpt>
      <trkpt lat="48.70077" lon="6.91156">
        <ele>269</ele>
        <time>2020-08-09T12:17:56Z</time>
      </trkpt>
      <trkpt lat="48.70083" lon="6.91165">
        <ele>269</ele>
        <time>2020-08-09T12:17:58Z</time>
      </trkpt>
      <trkpt lat="48.70089" lon="6.91174">
        <ele>269</ele>
        <time>2020-08-09T12:18:00Z</time>
      </trkpt>
      <trkpt lat="48.70093" lon="6.91178">
        <ele>269</ele>
        <time>2020-08-09T12:18:01Z</time>
      </trkpt>
      <trkpt lat="48.70096" lon="6.91182">
        <ele>269</ele>
        <time>2020-08-09T12:18:02Z</time>
      </trkpt>
      <trkpt lat="48.70102" lon="6.91192">
        <ele>269</ele>
        <time>2020-08-09T12:18:04Z</time>
      </trkpt>
      <trkpt lat="48.70108" lon="6.91201">
        <ele>269</ele>
        <time>2020-08-09T12:18:06Z</time>
      </trkpt>
      <trkpt lat="48.70112" lon="6.91205">
        <ele>269</ele>
        <time>2020-08-09T12:18:07Z</time>
      </trkpt>
      <trkpt lat="48.70116" lon="6.9121">
        <ele>269</ele>
        <time>2020-08-09T12:18:08Z</time>
      </trkpt>
      <trkpt lat="48.70123" lon="6.91218">
        <ele>269</ele>
        <time>2020-08-09T12:18:10Z</time>
      </trkpt>
      <trkpt lat="48.70127" lon="6.91222">
        <ele>269</ele>
        <time>2020-08-09T12:18:11Z</time>
      </trkpt>
      <trkpt lat="48.70131" lon="6.91227">
        <ele>269</ele>
        <time>2020-08-09T12:18:12Z</time>
      </trkpt>
      <trkpt lat="48.70138" lon="6.91236">
        <ele>270</ele>
        <time>2020-08-09T12:18:14Z</time>
      </trkpt>
      <trkpt lat="48.70145" lon="6.91243">
        <ele>270</ele>
        <time>2020-08-09T12:18:16Z</time>
      </trkpt>
      <trkpt lat="48.70153" lon="6.9125">
        <ele>270</ele>
        <time>2020-08-09T12:18:18Z</time>
      </trkpt>
      <trkpt lat="48.7016" lon="6.91256">
        <ele>270</ele>
        <time>2020-08-09T12:18:20Z</time>
      </trkpt>
      <trkpt lat="48.70172" lon="6.91266">
        <ele>270</ele>
        <time>2020-08-09T12:18:23Z</time>
      </trkpt>
      <trkpt lat="48.70177" lon="6.91269">
        <ele>270</ele>
        <time>2020-08-09T12:18:24Z</time>
      </trkpt>
      <trkpt lat="48.70181" lon="6.91274">
        <ele>270</ele>
        <time>2020-08-09T12:18:25Z</time>
      </trkpt>
      <trkpt lat="48.70186" lon="6.91276">
        <ele>270</ele>
        <time>2020-08-09T12:18:26Z</time>
      </trkpt>
      <trkpt lat="48.7019" lon="6.91281">
        <ele>270</ele>
        <time>2020-08-09T12:18:27Z</time>
      </trkpt>
      <trkpt lat="48.70197" lon="6.91286">
        <ele>270</ele>
        <time>2020-08-09T12:18:29Z</time>
      </trkpt>
      <trkpt lat="48.70202" lon="6.91289">
        <ele>269</ele>
        <time>2020-08-09T12:18:30Z</time>
      </trkpt>
      <trkpt lat="48.7021" lon="6.91295">
        <ele>269</ele>
        <time>2020-08-09T12:18:32Z</time>
      </trkpt>
      <trkpt lat="48.70215" lon="6.91298">
        <ele>269</ele>
        <time>2020-08-09T12:18:33Z</time>
      </trkpt>
      <trkpt lat="48.7022" lon="6.91301">
        <ele>269</ele>
        <time>2020-08-09T12:18:34Z</time>
      </trkpt>
      <trkpt lat="48.70224" lon="6.91305">
        <ele>270</ele>
        <time>2020-08-09T12:18:35Z</time>
      </trkpt>
      <trkpt lat="48.70229" lon="6.91308">
        <ele>271</ele>
        <time>2020-08-09T12:18:36Z</time>
      </trkpt>
      <trkpt lat="48.70237" lon="6.91315">
        <ele>274</ele>
        <time>2020-08-09T12:18:38Z</time>
      </trkpt>
      <trkpt lat="48.70245" lon="6.91322">
        <ele>276</ele>
        <time>2020-08-09T12:18:40Z</time>
      </trkpt>
      <trkpt lat="48.7025" lon="6.91326">
        <ele>276</ele>
        <time>2020-08-09T12:18:41Z</time>
      </trkpt>
      <trkpt lat="48.70257" lon="6.91331">
        <ele>276</ele>
        <time>2020-08-09T12:18:43Z</time>
      </trkpt>
      <trkpt lat="48.70265" lon="6.91337">
        <ele>276</ele>
        <time>2020-08-09T12:18:45Z</time>
      </trkpt>
      <trkpt lat="48.70272" lon="6.91343">
        <ele>276</ele>
        <time>2020-08-09T12:18:47Z</time>
      </trkpt>
      <trkpt lat="48.70276" lon="6.91346">
        <ele>276</ele>
        <time>2020-08-09T12:18:48Z</time>
      </trkpt>
      <trkpt lat="48.70281" lon="6.91349">
        <ele>277</ele>
        <time>2020-08-09T12:18:49Z</time>
      </trkpt>
      <trkpt lat="48.70285" lon="6.91351">
        <ele>276</ele>
        <time>2020-08-09T12:18:50Z</time>
      </trkpt>
      <trkpt lat="48.70289" lon="6.91354">
        <ele>276</ele>
        <time>2020-08-09T12:18:51Z</time>
      </trkpt>
      <trkpt lat="48.70297" lon="6.91359">
        <ele>277</ele>
        <time>2020-08-09T12:18:53Z</time>
      </trkpt>
      <trkpt lat="48.70305" lon="6.91365">
        <ele>279</ele>
        <time>2020-08-09T12:18:55Z</time>
      </trkpt>
      <trkpt lat="48.70313" lon="6.9137">
        <ele>280</ele>
        <time>2020-08-09T12:18:57Z</time>
      </trkpt>
      <trkpt lat="48.70317" lon="6.91373">
        <ele>282</ele>
        <time>2020-08-09T12:18:58Z</time>
      </trkpt>
      <trkpt lat="48.70321" lon="6.91376">
        <ele>282</ele>
        <time>2020-08-09T12:18:59Z</time>
      </trkpt>
      <trkpt lat="48.70329" lon="6.91381">
        <ele>282</ele>
        <time>2020-08-09T12:19:01Z</time>
      </trkpt>
      <trkpt lat="48.70337" lon="6.91386">
        <ele>282</ele>
        <time>2020-08-09T12:19:03Z</time>
      </trkpt>
      <trkpt lat="48.70341" lon="6.91389">
        <ele>281</ele>
        <time>2020-08-09T12:19:04Z</time>
      </trkpt>
      <trkpt lat="48.70345" lon="6.91392">
        <ele>281</ele>
        <time>2020-08-09T12:19:05Z</time>
      </trkpt>
      <trkpt lat="48.7035" lon="6.91395">
        <ele>281</ele>
        <time>2020-08-09T12:19:06Z</time>
      </trkpt>
      <trkpt lat="48.70363" lon="6.91403">
        <ele>280</ele>
        <time>2020-08-09T12:19:09Z</time>
      </trkpt>
      <trkpt lat="48.70371" lon="6.91408">
        <ele>280</ele>
        <time>2020-08-09T12:19:11Z</time>
      </trkpt>
      <trkpt lat="48.70375" lon="6.91411">
        <ele>279</ele>
        <time>2020-08-09T12:19:12Z</time>
      </trkpt>
      <trkpt lat="48.70379" lon="6.91414">
        <ele>280</ele>
        <time>2020-08-09T12:19:13Z</time>
      </trkpt>
      <trkpt lat="48.70391" lon="6.91421">
        <ele>277</ele>
        <time>2020-08-09T12:19:16Z</time>
      </trkpt>
      <trkpt lat="48.70399" lon="6.91427">
        <ele>278</ele>
        <time>2020-08-09T12:19:18Z</time>
      </trkpt>
      <trkpt lat="48.70403" lon="6.9143">
        <ele>277</ele>
        <time>2020-08-09T12:19:19Z</time>
      </trkpt>
      <trkpt lat="48.70411" lon="6.91435">
        <ele>278</ele>
        <time>2020-08-09T12:19:21Z</time>
      </trkpt>
      <trkpt lat="48.70419" lon="6.9144">
        <ele>276</ele>
        <time>2020-08-09T12:19:23Z</time>
      </trkpt>
      <trkpt lat="48.70424" lon="6.91443">
        <ele>276</ele>
        <time>2020-08-09T12:19:24Z</time>
      </trkpt>
      <trkpt lat="48.70432" lon="6.91447">
        <ele>274</ele>
        <time>2020-08-09T12:19:26Z</time>
      </trkpt>
      <trkpt lat="48.70436" lon="6.91451">
        <ele>276</ele>
        <time>2020-08-09T12:19:27Z</time>
      </trkpt>
      <trkpt lat="48.70444" lon="6.91456">
        <ele>275</ele>
        <time>2020-08-09T12:19:29Z</time>
      </trkpt>
      <trkpt lat="48.70452" lon="6.91464">
        <ele>276</ele>
        <time>2020-08-09T12:19:31Z</time>
      </trkpt>
      <trkpt lat="48.70459" lon="6.91468">
        <ele>274</ele>
        <time>2020-08-09T12:19:33Z</time>
      </trkpt>
      <trkpt lat="48.70464" lon="6.91472">
        <ele>275</ele>
        <time>2020-08-09T12:19:34Z</time>
      </trkpt>
      <trkpt lat="48.70468" lon="6.91476">
        <ele>276</ele>
        <time>2020-08-09T12:19:35Z</time>
      </trkpt>
      <trkpt lat="48.70472" lon="6.91479">
        <ele>276</ele>
        <time>2020-08-09T12:19:36Z</time>
      </trkpt>
      <trkpt lat="48.70479" lon="6.91485">
        <ele>277</ele>
        <time>2020-08-09T12:19:38Z</time>
      </trkpt>
      <trkpt lat="48.70483" lon="6.91489">
        <ele>277</ele>
        <time>2020-08-09T12:19:39Z</time>
      </trkpt>
      <trkpt lat="48.70491" lon="6.91494">
        <ele>275</ele>
        <time>2020-08-09T12:19:41Z</time>
      </trkpt>
      <trkpt lat="48.70497" lon="6.91499">
        <ele>275</ele>
        <time>2020-08-09T12:19:43Z</time>
      </trkpt>
      <trkpt lat="48.70501" lon="6.91505">
        <ele>277</ele>
        <time>2020-08-09T12:19:44Z</time>
      </trkpt>
      <trkpt lat="48.70505" lon="6.91509">
        <ele>278</ele>
        <time>2020-08-09T12:19:45Z</time>
      </trkpt>
      <trkpt lat="48.70513" lon="6.91515">
        <ele>277</ele>
        <time>2020-08-09T12:19:47Z</time>
      </trkpt>
      <trkpt lat="48.70517" lon="6.91522">
        <ele>279</ele>
        <time>2020-08-09T12:19:48Z</time>
      </trkpt>
      <trkpt lat="48.70521" lon="6.91526">
        <ele>279</ele>
        <time>2020-08-09T12:19:49Z</time>
      </trkpt>
      <trkpt lat="48.70528" lon="6.91529">
        <ele>279</ele>
        <time>2020-08-09T12:19:51Z</time>
      </trkpt>
      <trkpt lat="48.70533" lon="6.91532">
        <ele>278</ele>
        <time>2020-08-09T12:19:52Z</time>
      </trkpt>
      <trkpt lat="48.70537" lon="6.91535">
        <ele>278</ele>
        <time>2020-08-09T12:19:53Z</time>
      </trkpt>
      <trkpt lat="48.70541" lon="6.91539">
        <ele>278</ele>
        <time>2020-08-09T12:19:54Z</time>
      </trkpt>
      <trkpt lat="48.70546" lon="6.91544">
        <ele>278</ele>
        <time>2020-08-09T12:19:55Z</time>
      </trkpt>
      <trkpt lat="48.7055" lon="6.91548">
        <ele>278</ele>
        <time>2020-08-09T12:19:56Z</time>
      </trkpt>
      <trkpt lat="48.70555" lon="6.9155">
        <ele>277</ele>
        <time>2020-08-09T12:19:57Z</time>
      </trkpt>
      <trkpt lat="48.70559" lon="6.91553">
        <ele>277</ele>
        <time>2020-08-09T12:19:58Z</time>
      </trkpt>
      <trkpt lat="48.70568" lon="6.91558">
        <ele>276</ele>
        <time>2020-08-09T12:20:00Z</time>
      </trkpt>
      <trkpt lat="48.70576" lon="6.91563">
        <ele>276</ele>
        <time>2020-08-09T12:20:02Z</time>
      </trkpt>
      <trkpt lat="48.70585" lon="6.91568">
        <ele>274</ele>
        <time>2020-08-09T12:20:04Z</time>
      </trkpt>
      <trkpt lat="48.70593" lon="6.91569">
        <ele>273</ele>
        <time>2020-08-09T12:20:06Z</time>
      </trkpt>
      <trkpt lat="48.70598" lon="6.91572">
        <ele>272</ele>
        <time>2020-08-09T12:20:07Z</time>
      </trkpt>
      <trkpt lat="48.70602" lon="6.91576">
        <ele>272</ele>
        <time>2020-08-09T12:20:08Z</time>
      </trkpt>
      <trkpt lat="48.70609" lon="6.91589">
        <ele>275</ele>
        <time>2020-08-09T12:20:10Z</time>
      </trkpt>
      <trkpt lat="48.70619" lon="6.91592">
        <ele>274</ele>
        <time>2020-08-09T12:20:12Z</time>
      </trkpt>
      <trkpt lat="48.70628" lon="6.91598">
        <ele>273</ele>
        <time>2020-08-09T12:20:14Z</time>
      </trkpt>
      <trkpt lat="48.70632" lon="6.91601">
        <ele>273</ele>
        <time>2020-08-09T12:20:15Z</time>
      </trkpt>
      <trkpt lat="48.70637" lon="6.91602">
        <ele>272</ele>
        <time>2020-08-09T12:20:16Z</time>
      </trkpt>
      <trkpt lat="48.70641" lon="6.91609">
        <ele>274</ele>
        <time>2020-08-09T12:20:17Z</time>
      </trkpt>
      <trkpt lat="48.70646" lon="6.91612">
        <ele>273</ele>
        <time>2020-08-09T12:20:18Z</time>
      </trkpt>
      <trkpt lat="48.7065" lon="6.91616">
        <ele>274</ele>
        <time>2020-08-09T12:20:19Z</time>
      </trkpt>
      <trkpt lat="48.70654" lon="6.9162">
        <ele>274</ele>
        <time>2020-08-09T12:20:20Z</time>
      </trkpt>
      <trkpt lat="48.70662" lon="6.91625">
        <ele>274</ele>
        <time>2020-08-09T12:20:22Z</time>
      </trkpt>
      <trkpt lat="48.7067" lon="6.91633">
        <ele>274</ele>
        <time>2020-08-09T12:20:24Z</time>
      </trkpt>
      <trkpt lat="48.70673" lon="6.91638">
        <ele>274</ele>
        <time>2020-08-09T12:20:25Z</time>
      </trkpt>
      <trkpt lat="48.70678" lon="6.9164">
        <ele>274</ele>
        <time>2020-08-09T12:20:26Z</time>
      </trkpt>
      <trkpt lat="48.70683" lon="6.91644">
        <ele>274</ele>
        <time>2020-08-09T12:20:27Z</time>
      </trkpt>
      <trkpt lat="48.70688" lon="6.91645">
        <ele>274</ele>
        <time>2020-08-09T12:20:28Z</time>
      </trkpt>
      <trkpt lat="48.70696" lon="6.91649">
        <ele>273</ele>
        <time>2020-08-09T12:20:30Z</time>
      </trkpt>
      <trkpt lat="48.70705" lon="6.91652">
        <ele>272</ele>
        <time>2020-08-09T12:20:32Z</time>
      </trkpt>
      <trkpt lat="48.70717" lon="6.91661">
        <ele>272</ele>
        <time>2020-08-09T12:20:35Z</time>
      </trkpt>
      <trkpt lat="48.70722" lon="6.91665">
        <ele>272</ele>
        <time>2020-08-09T12:20:36Z</time>
      </trkpt>
      <trkpt lat="48.70726" lon="6.91668">
        <ele>272</ele>
        <time>2020-08-09T12:20:37Z</time>
      </trkpt>
      <trkpt lat="48.70731" lon="6.91672">
        <ele>272</ele>
        <time>2020-08-09T12:20:38Z</time>
      </trkpt>
      <trkpt lat="48.70737" lon="6.91675">
        <ele>272</ele>
        <time>2020-08-09T12:20:39Z</time>
      </trkpt>
      <trkpt lat="48.70741" lon="6.91677">
        <ele>271</ele>
        <time>2020-08-09T12:20:40Z</time>
      </trkpt>
      <trkpt lat="48.70746" lon="6.91681">
        <ele>272</ele>
        <time>2020-08-09T12:20:41Z</time>
      </trkpt>
      <trkpt lat="48.70752" lon="6.91684">
        <ele>271</ele>
        <time>2020-08-09T12:20:43Z</time>
      </trkpt>
      <trkpt lat="48.70757" lon="6.91687">
        <ele>270</ele>
        <time>2020-08-09T12:20:44Z</time>
      </trkpt>
      <trkpt lat="48.70765" lon="6.91693">
        <ele>270</ele>
        <time>2020-08-09T12:20:46Z</time>
      </trkpt>
      <trkpt lat="48.70772" lon="6.91699">
        <ele>270</ele>
        <time>2020-08-09T12:20:48Z</time>
      </trkpt>
      <trkpt lat="48.70776" lon="6.91704">
        <ele>270</ele>
        <time>2020-08-09T12:20:49Z</time>
      </trkpt>
      <trkpt lat="48.70785" lon="6.91709">
        <ele>270</ele>
        <time>2020-08-09T12:20:51Z</time>
      </trkpt>
      <trkpt lat="48.70789" lon="6.91712">
        <ele>270</ele>
        <time>2020-08-09T12:20:52Z</time>
      </trkpt>
      <trkpt lat="48.70796" lon="6.91717">
        <ele>270</ele>
        <time>2020-08-09T12:20:54Z</time>
      </trkpt>
      <trkpt lat="48.70801" lon="6.91721">
        <ele>270</ele>
        <time>2020-08-09T12:20:55Z</time>
      </trkpt>
      <trkpt lat="48.7081" lon="6.91728">
        <ele>271</ele>
        <time>2020-08-09T12:20:57Z</time>
      </trkpt>
      <trkpt lat="48.70814" lon="6.91731">
        <ele>271</ele>
        <time>2020-08-09T12:20:58Z</time>
      </trkpt>
      <trkpt lat="48.70822" lon="6.91734">
        <ele>270</ele>
        <time>2020-08-09T12:21:00Z</time>
      </trkpt>
      <trkpt lat="48.70827" lon="6.91737">
        <ele>269</ele>
        <time>2020-08-09T12:21:01Z</time>
      </trkpt>
      <trkpt lat="48.70835" lon="6.91743">
        <ele>270</ele>
        <time>2020-08-09T12:21:03Z</time>
      </trkpt>
      <trkpt lat="48.70839" lon="6.91747">
        <ele>270</ele>
        <time>2020-08-09T12:21:04Z</time>
      </trkpt>
      <trkpt lat="48.70844" lon="6.91751">
        <ele>270</ele>
        <time>2020-08-09T12:21:05Z</time>
      </trkpt>
      <trkpt lat="48.70852" lon="6.91757">
        <ele>270</ele>
        <time>2020-08-09T12:21:07Z</time>
      </trkpt>
      <trkpt lat="48.70856" lon="6.91761">
        <ele>271</ele>
        <time>2020-08-09T12:21:08Z</time>
      </trkpt>
      <trkpt lat="48.7086" lon="6.91765">
        <ele>271</ele>
        <time>2020-08-09T12:21:09Z</time>
      </trkpt>
      <trkpt lat="48.70869" lon="6.91772">
        <ele>271</ele>
        <time>2020-08-09T12:21:11Z</time>
      </trkpt>
      <trkpt lat="48.70874" lon="6.91777">
        <ele>271</ele>
        <time>2020-08-09T12:21:12Z</time>
      </trkpt>
      <trkpt lat="48.70879" lon="6.91779">
        <ele>271</ele>
        <time>2020-08-09T12:21:13Z</time>
      </trkpt>
      <trkpt lat="48.70884" lon="6.91782">
        <ele>271</ele>
        <time>2020-08-09T12:21:14Z</time>
      </trkpt>
      <trkpt lat="48.70892" lon="6.91788">
        <ele>271</ele>
        <time>2020-08-09T12:21:16Z</time>
      </trkpt>
      <trkpt lat="48.70896" lon="6.91791">
        <ele>270</ele>
        <time>2020-08-09T12:21:17Z</time>
      </trkpt>
      <trkpt lat="48.70903" lon="6.91795">
        <ele>270</ele>
        <time>2020-08-09T12:21:19Z</time>
      </trkpt>
      <trkpt lat="48.7091" lon="6.918">
        <ele>270</ele>
        <time>2020-08-09T12:21:21Z</time>
      </trkpt>
      <trkpt lat="48.70917" lon="6.91807">
        <ele>270</ele>
        <time>2020-08-09T12:21:23Z</time>
      </trkpt>
      <trkpt lat="48.70925" lon="6.9181">
        <ele>269</ele>
        <time>2020-08-09T12:21:25Z</time>
      </trkpt>
      <trkpt lat="48.70928" lon="6.91818">
        <ele>270</ele>
        <time>2020-08-09T12:21:26Z</time>
      </trkpt>
      <trkpt lat="48.70933" lon="6.91821">
        <ele>270</ele>
        <time>2020-08-09T12:21:27Z</time>
      </trkpt>
      <trkpt lat="48.70938" lon="6.91823">
        <ele>270</ele>
        <time>2020-08-09T12:21:28Z</time>
      </trkpt>
      <trkpt lat="48.70946" lon="6.91831">
        <ele>270</ele>
        <time>2020-08-09T12:21:30Z</time>
      </trkpt>
      <trkpt lat="48.70953" lon="6.91834">
        <ele>270</ele>
        <time>2020-08-09T12:21:32Z</time>
      </trkpt>
      <trkpt lat="48.70961" lon="6.91837">
        <ele>269</ele>
        <time>2020-08-09T12:21:34Z</time>
      </trkpt>
      <trkpt lat="48.70968" lon="6.91843">
        <ele>269</ele>
        <time>2020-08-09T12:21:36Z</time>
      </trkpt>
      <trkpt lat="48.70972" lon="6.91847">
        <ele>269</ele>
        <time>2020-08-09T12:21:37Z</time>
      </trkpt>
      <trkpt lat="48.7098" lon="6.91853">
        <ele>269</ele>
        <time>2020-08-09T12:21:39Z</time>
      </trkpt>
      <trkpt lat="48.70987" lon="6.91857">
        <ele>269</ele>
        <time>2020-08-09T12:21:41Z</time>
      </trkpt>
      <trkpt lat="48.70992" lon="6.9186">
        <ele>268</ele>
        <time>2020-08-09T12:21:42Z</time>
      </trkpt>
      <trkpt lat="48.70998" lon="6.91866">
        <ele>268</ele>
        <time>2020-08-09T12:21:44Z</time>
      </trkpt>
      <trkpt lat="48.71006" lon="6.91866">
        <ele>268</ele>
        <time>2020-08-09T12:21:46Z</time>
      </trkpt>
      <trkpt lat="48.71009" lon="6.91871">
        <ele>268</ele>
        <time>2020-08-09T12:21:47Z</time>
      </trkpt>
      <trkpt lat="48.71017" lon="6.91877">
        <ele>268</ele>
        <time>2020-08-09T12:21:49Z</time>
      </trkpt>
      <trkpt lat="48.71026" lon="6.91883">
        <ele>268</ele>
        <time>2020-08-09T12:21:51Z</time>
      </trkpt>
      <trkpt lat="48.71031" lon="6.91888">
        <ele>268</ele>
        <time>2020-08-09T12:21:53Z</time>
      </trkpt>
      <trkpt lat="48.71038" lon="6.91895">
        <ele>268</ele>
        <time>2020-08-09T12:21:55Z</time>
      </trkpt>
      <trkpt lat="48.71042" lon="6.919">
        <ele>268</ele>
        <time>2020-08-09T12:21:56Z</time>
      </trkpt>
      <trkpt lat="48.71049" lon="6.91907">
        <ele>268</ele>
        <time>2020-08-09T12:21:58Z</time>
      </trkpt>
      <trkpt lat="48.71057" lon="6.91912">
        <ele>268</ele>
        <time>2020-08-09T12:22:00Z</time>
      </trkpt>
      <trkpt lat="48.71064" lon="6.91915">
        <ele>268</ele>
        <time>2020-08-09T12:22:02Z</time>
      </trkpt>
      <trkpt lat="48.71072" lon="6.91921">
        <ele>268</ele>
        <time>2020-08-09T12:22:04Z</time>
      </trkpt>
      <trkpt lat="48.7108" lon="6.91924">
        <ele>268</ele>
        <time>2020-08-09T12:22:06Z</time>
      </trkpt>
      <trkpt lat="48.71088" lon="6.91929">
        <ele>268</ele>
        <time>2020-08-09T12:22:08Z</time>
      </trkpt>
      <trkpt lat="48.71095" lon="6.91933">
        <ele>268</ele>
        <time>2020-08-09T12:22:10Z</time>
      </trkpt>
      <trkpt lat="48.71106" lon="6.91939">
        <ele>267</ele>
        <time>2020-08-09T12:22:13Z</time>
      </trkpt>
      <trkpt lat="48.71111" lon="6.91941">
        <ele>267</ele>
        <time>2020-08-09T12:22:14Z</time>
      </trkpt>
      <trkpt lat="48.71115" lon="6.91945">
        <ele>267</ele>
        <time>2020-08-09T12:22:15Z</time>
      </trkpt>
      <trkpt lat="48.71119" lon="6.91948">
        <ele>268</ele>
        <time>2020-08-09T12:22:16Z</time>
      </trkpt>
      <trkpt lat="48.71124" lon="6.91952">
        <ele>268</ele>
        <time>2020-08-09T12:22:17Z</time>
      </trkpt>
      <trkpt lat="48.71129" lon="6.91955">
        <ele>268</ele>
        <time>2020-08-09T12:22:18Z</time>
      </trkpt>
      <trkpt lat="48.71133" lon="6.91959">
        <ele>268</ele>
        <time>2020-08-09T12:22:19Z</time>
      </trkpt>
      <trkpt lat="48.71137" lon="6.91965">
        <ele>268</ele>
        <time>2020-08-09T12:22:20Z</time>
      </trkpt>
      <trkpt lat="48.71142" lon="6.91968">
        <ele>268</ele>
        <time>2020-08-09T12:22:21Z</time>
      </trkpt>
      <trkpt lat="48.71148" lon="6.91972">
        <ele>268</ele>
        <time>2020-08-09T12:22:23Z</time>
      </trkpt>
      <trkpt lat="48.71153" lon="6.91975">
        <ele>268</ele>
        <time>2020-08-09T12:22:24Z</time>
      </trkpt>
      <trkpt lat="48.71161" lon="6.9198">
        <ele>268</ele>
        <time>2020-08-09T12:22:26Z</time>
      </trkpt>
      <trkpt lat="48.71166" lon="6.91983">
        <ele>268</ele>
        <time>2020-08-09T12:22:27Z</time>
      </trkpt>
      <trkpt lat="48.7117" lon="6.91985">
        <ele>268</ele>
        <time>2020-08-09T12:22:28Z</time>
      </trkpt>
      <trkpt lat="48.71179" lon="6.91991">
        <ele>268</ele>
        <time>2020-08-09T12:22:30Z</time>
      </trkpt>
      <trkpt lat="48.71183" lon="6.91994">
        <ele>268</ele>
        <time>2020-08-09T12:22:31Z</time>
      </trkpt>
      <trkpt lat="48.71188" lon="6.91997">
        <ele>268</ele>
        <time>2020-08-09T12:22:32Z</time>
      </trkpt>
      <trkpt lat="48.71192" lon="6.92">
        <ele>269</ele>
        <time>2020-08-09T12:22:33Z</time>
      </trkpt>
      <trkpt lat="48.71196" lon="6.92004">
        <ele>269</ele>
        <time>2020-08-09T12:22:34Z</time>
      </trkpt>
      <trkpt lat="48.71204" lon="6.92012">
        <ele>269</ele>
        <time>2020-08-09T12:22:36Z</time>
      </trkpt>
      <trkpt lat="48.71209" lon="6.92015">
        <ele>269</ele>
        <time>2020-08-09T12:22:37Z</time>
      </trkpt>
      <trkpt lat="48.71217" lon="6.9202">
        <ele>269</ele>
        <time>2020-08-09T12:22:39Z</time>
      </trkpt>
      <trkpt lat="48.71225" lon="6.92026">
        <ele>269</ele>
        <time>2020-08-09T12:22:41Z</time>
      </trkpt>
      <trkpt lat="48.71233" lon="6.92032">
        <ele>269</ele>
        <time>2020-08-09T12:22:43Z</time>
      </trkpt>
      <trkpt lat="48.71241" lon="6.92037">
        <ele>269</ele>
        <time>2020-08-09T12:22:45Z</time>
      </trkpt>
      <trkpt lat="48.71246" lon="6.9204">
        <ele>268</ele>
        <time>2020-08-09T12:22:46Z</time>
      </trkpt>
      <trkpt lat="48.7125" lon="6.92043">
        <ele>268</ele>
        <time>2020-08-09T12:22:47Z</time>
      </trkpt>
      <trkpt lat="48.71255" lon="6.92045">
        <ele>268</ele>
        <time>2020-08-09T12:22:48Z</time>
      </trkpt>
      <trkpt lat="48.71261" lon="6.9205">
        <ele>268</ele>
        <time>2020-08-09T12:22:50Z</time>
      </trkpt>
      <trkpt lat="48.71266" lon="6.92054">
        <ele>268</ele>
        <time>2020-08-09T12:22:51Z</time>
      </trkpt>
      <trkpt lat="48.71274" lon="6.9206">
        <ele>268</ele>
        <time>2020-08-09T12:22:53Z</time>
      </trkpt>
      <trkpt lat="48.71278" lon="6.92063">
        <ele>268</ele>
        <time>2020-08-09T12:22:54Z</time>
      </trkpt>
      <trkpt lat="48.71291" lon="6.9207">
        <ele>268</ele>
        <time>2020-08-09T12:22:57Z</time>
      </trkpt>
      <trkpt lat="48.71296" lon="6.92074">
        <ele>268</ele>
        <time>2020-08-09T12:22:58Z</time>
      </trkpt>
      <trkpt lat="48.71304" lon="6.9208">
        <ele>268</ele>
        <time>2020-08-09T12:23:00Z</time>
      </trkpt>
      <trkpt lat="48.71312" lon="6.92086">
        <ele>269</ele>
        <time>2020-08-09T12:23:02Z</time>
      </trkpt>
      <trkpt lat="48.71323" lon="6.92095">
        <ele>269</ele>
        <time>2020-08-09T12:23:05Z</time>
      </trkpt>
      <trkpt lat="48.71328" lon="6.92098">
        <ele>269</ele>
        <time>2020-08-09T12:23:06Z</time>
      </trkpt>
      <trkpt lat="48.71332" lon="6.92103">
        <ele>270</ele>
        <time>2020-08-09T12:23:07Z</time>
      </trkpt>
      <trkpt lat="48.71336" lon="6.92107">
        <ele>270</ele>
        <time>2020-08-09T12:23:08Z</time>
      </trkpt>
      <trkpt lat="48.71341" lon="6.92111">
        <ele>270</ele>
        <time>2020-08-09T12:23:09Z</time>
      </trkpt>
      <trkpt lat="48.71347" lon="6.92113">
        <ele>270</ele>
        <time>2020-08-09T12:23:10Z</time>
      </trkpt>
      <trkpt lat="48.71355" lon="6.92117">
        <ele>270</ele>
        <time>2020-08-09T12:23:12Z</time>
      </trkpt>
      <trkpt lat="48.71361" lon="6.92121">
        <ele>270</ele>
        <time>2020-08-09T12:23:13Z</time>
      </trkpt>
      <trkpt lat="48.71367" lon="6.92124">
        <ele>270</ele>
        <time>2020-08-09T12:23:14Z</time>
      </trkpt>
      <trkpt lat="48.71371" lon="6.92127">
        <ele>270</ele>
        <time>2020-08-09T12:23:15Z</time>
      </trkpt>
      <trkpt lat="48.71379" lon="6.92132">
        <ele>269</ele>
        <time>2020-08-09T12:23:17Z</time>
      </trkpt>
      <trkpt lat="48.71384" lon="6.92135">
        <ele>269</ele>
        <time>2020-08-09T12:23:18Z</time>
      </trkpt>
      <trkpt lat="48.71393" lon="6.92142">
        <ele>269</ele>
        <time>2020-08-09T12:23:20Z</time>
      </trkpt>
      <trkpt lat="48.71397" lon="6.92146">
        <ele>270</ele>
        <time>2020-08-09T12:23:21Z</time>
      </trkpt>
      <trkpt lat="48.71402" lon="6.92151">
        <ele>270</ele>
        <time>2020-08-09T12:23:22Z</time>
      </trkpt>
      <trkpt lat="48.7141" lon="6.92157">
        <ele>270</ele>
        <time>2020-08-09T12:23:24Z</time>
      </trkpt>
      <trkpt lat="48.71414" lon="6.92159">
        <ele>270</ele>
        <time>2020-08-09T12:23:25Z</time>
      </trkpt>
      <trkpt lat="48.71421" lon="6.92163">
        <ele>270</ele>
        <time>2020-08-09T12:23:27Z</time>
      </trkpt>
      <trkpt lat="48.71425" lon="6.92166">
        <ele>270</ele>
        <time>2020-08-09T12:23:28Z</time>
      </trkpt>
      <trkpt lat="48.71432" lon="6.92173">
        <ele>270</ele>
        <time>2020-08-09T12:23:30Z</time>
      </trkpt>
      <trkpt lat="48.71439" lon="6.92181">
        <ele>270</ele>
        <time>2020-08-09T12:23:32Z</time>
      </trkpt>
      <trkpt lat="48.71447" lon="6.92188">
        <ele>270</ele>
        <time>2020-08-09T12:23:34Z</time>
      </trkpt>
      <trkpt lat="48.71455" lon="6.92193">
        <ele>270</ele>
        <time>2020-08-09T12:23:36Z</time>
      </trkpt>
      <trkpt lat="48.71462" lon="6.922">
        <ele>270</ele>
        <time>2020-08-09T12:23:38Z</time>
      </trkpt>
      <trkpt lat="48.71466" lon="6.92202">
        <ele>270</ele>
        <time>2020-08-09T12:23:39Z</time>
      </trkpt>
      <trkpt lat="48.71475" lon="6.92205">
        <ele>270</ele>
        <time>2020-08-09T12:23:41Z</time>
      </trkpt>
      <trkpt lat="48.71482" lon="6.9221">
        <ele>270</ele>
        <time>2020-08-09T12:23:43Z</time>
      </trkpt>
      <trkpt lat="48.71488" lon="6.92217">
        <ele>270</ele>
        <time>2020-08-09T12:23:45Z</time>
      </trkpt>
      <trkpt lat="48.71492" lon="6.92221">
        <ele>270</ele>
        <time>2020-08-09T12:23:46Z</time>
      </trkpt>
      <trkpt lat="48.71497" lon="6.92224">
        <ele>270</ele>
        <time>2020-08-09T12:23:47Z</time>
      </trkpt>
      <trkpt lat="48.71505" lon="6.92229">
        <ele>270</ele>
        <time>2020-08-09T12:23:49Z</time>
      </trkpt>
      <trkpt lat="48.71511" lon="6.92232">
        <ele>270</ele>
        <time>2020-08-09T12:23:51Z</time>
      </trkpt>
      <trkpt lat="48.71518" lon="6.92239">
        <ele>270</ele>
        <time>2020-08-09T12:23:53Z</time>
      </trkpt>
      <trkpt lat="48.71526" lon="6.92244">
        <ele>270</ele>
        <time>2020-08-09T12:23:55Z</time>
      </trkpt>
      <trkpt lat="48.71534" lon="6.92249">
        <ele>271</ele>
        <time>2020-08-09T12:23:57Z</time>
      </trkpt>
      <trkpt lat="48.7154" lon="6.92253">
        <ele>271</ele>
        <time>2020-08-09T12:23:59Z</time>
      </trkpt>
      <trkpt lat="48.71545" lon="6.92258">
        <ele>271</ele>
        <time>2020-08-09T12:24:01Z</time>
      </trkpt>
      <trkpt lat="48.71547" lon="6.92251">
        <ele>271</ele>
        <time>2020-08-09T12:24:21Z</time>
      </trkpt>
      <trkpt lat="48.71554" lon="6.92253">
        <ele>270</ele>
        <time>2020-08-09T12:25:04Z</time>
      </trkpt>
      <trkpt lat="48.7156" lon="6.92258">
        <ele>271</ele>
        <time>2020-08-09T12:25:08Z</time>
      </trkpt>
      <trkpt lat="48.71566" lon="6.92263">
        <ele>270</ele>
        <time>2020-08-09T12:25:10Z</time>
      </trkpt>
      <trkpt lat="48.71573" lon="6.92268">
        <ele>270</ele>
        <time>2020-08-09T12:25:12Z</time>
      </trkpt>
      <trkpt lat="48.71579" lon="6.92272">
        <ele>268</ele>
        <time>2020-08-09T12:25:14Z</time>
      </trkpt>
      <trkpt lat="48.71587" lon="6.92277">
        <ele>267</ele>
        <time>2020-08-09T12:25:16Z</time>
      </trkpt>
      <trkpt lat="48.71592" lon="6.92284">
        <ele>268</ele>
        <time>2020-08-09T12:25:18Z</time>
      </trkpt>
      <trkpt lat="48.71597" lon="6.92286">
        <ele>267</ele>
        <time>2020-08-09T12:25:19Z</time>
      </trkpt>
      <trkpt lat="48.71605" lon="6.92291">
        <ele>268</ele>
        <time>2020-08-09T12:25:21Z</time>
      </trkpt>
      <trkpt lat="48.71611" lon="6.92296">
        <ele>267</ele>
        <time>2020-08-09T12:25:23Z</time>
      </trkpt>
      <trkpt lat="48.71618" lon="6.92302">
        <ele>267</ele>
        <time>2020-08-09T12:25:25Z</time>
      </trkpt>
      <trkpt lat="48.71626" lon="6.92307">
        <ele>266</ele>
        <time>2020-08-09T12:25:27Z</time>
      </trkpt>
      <trkpt lat="48.7163" lon="6.92311">
        <ele>266</ele>
        <time>2020-08-09T12:25:28Z</time>
      </trkpt>
      <trkpt lat="48.71639" lon="6.92316">
        <ele>266</ele>
        <time>2020-08-09T12:25:30Z</time>
      </trkpt>
      <trkpt lat="48.71643" lon="6.9232">
        <ele>267</ele>
        <time>2020-08-09T12:25:31Z</time>
      </trkpt>
      <trkpt lat="48.71647" lon="6.92323">
        <ele>267</ele>
        <time>2020-08-09T12:25:32Z</time>
      </trkpt>
      <trkpt lat="48.71654" lon="6.92329">
        <ele>268</ele>
        <time>2020-08-09T12:25:34Z</time>
      </trkpt>
      <trkpt lat="48.71661" lon="6.92336">
        <ele>269</ele>
        <time>2020-08-09T12:25:36Z</time>
      </trkpt>
      <trkpt lat="48.71668" lon="6.92343">
        <ele>270</ele>
        <time>2020-08-09T12:25:38Z</time>
      </trkpt>
      <trkpt lat="48.71672" lon="6.92347">
        <ele>270</ele>
        <time>2020-08-09T12:25:39Z</time>
      </trkpt>
      <trkpt lat="48.7168" lon="6.92351">
        <ele>270</ele>
        <time>2020-08-09T12:25:41Z</time>
      </trkpt>
      <trkpt lat="48.71684" lon="6.92354">
        <ele>270</ele>
        <time>2020-08-09T12:25:42Z</time>
      </trkpt>
      <trkpt lat="48.71692" lon="6.92358">
        <ele>270</ele>
        <time>2020-08-09T12:25:44Z</time>
      </trkpt>
      <trkpt lat="48.71695" lon="6.92362">
        <ele>271</ele>
        <time>2020-08-09T12:25:45Z</time>
      </trkpt>
      <trkpt lat="48.71703" lon="6.92366">
        <ele>270</ele>
        <time>2020-08-09T12:25:47Z</time>
      </trkpt>
      <trkpt lat="48.71708" lon="6.92368">
        <ele>269</ele>
        <time>2020-08-09T12:25:48Z</time>
      </trkpt>
      <trkpt lat="48.71713" lon="6.92372">
        <ele>269</ele>
        <time>2020-08-09T12:25:49Z</time>
      </trkpt>
      <trkpt lat="48.71722" lon="6.92379">
        <ele>269</ele>
        <time>2020-08-09T12:25:51Z</time>
      </trkpt>
      <trkpt lat="48.71727" lon="6.92381">
        <ele>268</ele>
        <time>2020-08-09T12:25:52Z</time>
      </trkpt>
      <trkpt lat="48.71732" lon="6.92385">
        <ele>268</ele>
        <time>2020-08-09T12:25:53Z</time>
      </trkpt>
      <trkpt lat="48.71737" lon="6.92388">
        <ele>268</ele>
        <time>2020-08-09T12:25:54Z</time>
      </trkpt>
      <trkpt lat="48.71746" lon="6.92391">
        <ele>268</ele>
        <time>2020-08-09T12:25:56Z</time>
      </trkpt>
      <trkpt lat="48.71751" lon="6.92392">
        <ele>268</ele>
        <time>2020-08-09T12:25:57Z</time>
      </trkpt>
      <trkpt lat="48.71757" lon="6.92392">
        <ele>268</ele>
        <time>2020-08-09T12:25:58Z</time>
      </trkpt>
      <trkpt lat="48.71762" lon="6.92393">
        <ele>267</ele>
        <time>2020-08-09T12:25:59Z</time>
      </trkpt>
      <trkpt lat="48.71769" lon="6.92398">
        <ele>267</ele>
        <time>2020-08-09T12:26:01Z</time>
      </trkpt>
      <trkpt lat="48.71775" lon="6.92401">
        <ele>267</ele>
        <time>2020-08-09T12:26:03Z</time>
      </trkpt>
      <trkpt lat="48.7178" lon="6.92404">
        <ele>268</ele>
        <time>2020-08-09T12:26:05Z</time>
      </trkpt>
      <trkpt lat="48.71784" lon="6.92407">
        <ele>268</ele>
        <time>2020-08-09T12:26:08Z</time>
      </trkpt>
      <trkpt lat="48.71792" lon="6.92405">
        <ele>268</ele>
        <time>2020-08-09T12:27:07Z</time>
      </trkpt>
      <trkpt lat="48.71798" lon="6.92405">
        <ele>267</ele>
        <time>2020-08-09T12:27:09Z</time>
      </trkpt>
      <trkpt lat="48.71807" lon="6.92405">
        <ele>269</ele>
        <time>2020-08-09T12:27:11Z</time>
      </trkpt>
      <trkpt lat="48.71812" lon="6.92405">
        <ele>270</ele>
        <time>2020-08-09T12:27:12Z</time>
      </trkpt>
      <trkpt lat="48.71824" lon="6.92409">
        <ele>271</ele>
        <time>2020-08-09T12:27:15Z</time>
      </trkpt>
      <trkpt lat="48.7183" lon="6.92412">
        <ele>271</ele>
        <time>2020-08-09T12:27:17Z</time>
      </trkpt>
      <trkpt lat="48.71836" lon="6.92411">
        <ele>270</ele>
        <time>2020-08-09T12:27:18Z</time>
      </trkpt>
      <trkpt lat="48.7184" lon="6.92415">
        <ele>270</ele>
        <time>2020-08-09T12:27:19Z</time>
      </trkpt>
      <trkpt lat="48.71845" lon="6.92416">
        <ele>270</ele>
        <time>2020-08-09T12:27:20Z</time>
      </trkpt>
      <trkpt lat="48.71853" lon="6.92419">
        <ele>270</ele>
        <time>2020-08-09T12:27:22Z</time>
      </trkpt>
      <trkpt lat="48.71857" lon="6.9242">
        <ele>270</ele>
        <time>2020-08-09T12:27:23Z</time>
      </trkpt>
      <trkpt lat="48.71865" lon="6.92423">
        <ele>270</ele>
        <time>2020-08-09T12:27:25Z</time>
      </trkpt>
      <trkpt lat="48.71874" lon="6.92424">
        <ele>270</ele>
        <time>2020-08-09T12:27:27Z</time>
      </trkpt>
      <trkpt lat="48.71882" lon="6.92424">
        <ele>270</ele>
        <time>2020-08-09T12:27:29Z</time>
      </trkpt>
      <trkpt lat="48.71886" lon="6.92422">
        <ele>270</ele>
        <time>2020-08-09T12:27:30Z</time>
      </trkpt>
      <trkpt lat="48.71895" lon="6.92421">
        <ele>270</ele>
        <time>2020-08-09T12:27:32Z</time>
      </trkpt>
      <trkpt lat="48.71904" lon="6.92419">
        <ele>270</ele>
        <time>2020-08-09T12:27:34Z</time>
      </trkpt>
      <trkpt lat="48.71908" lon="6.92418">
        <ele>270</ele>
        <time>2020-08-09T12:27:35Z</time>
      </trkpt>
      <trkpt lat="48.71913" lon="6.92418">
        <ele>270</ele>
        <time>2020-08-09T12:27:36Z</time>
      </trkpt>
      <trkpt lat="48.71922" lon="6.92417">
        <ele>270</ele>
        <time>2020-08-09T12:27:38Z</time>
      </trkpt>
      <trkpt lat="48.7193" lon="6.92416">
        <ele>270</ele>
        <time>2020-08-09T12:27:40Z</time>
      </trkpt>
      <trkpt lat="48.71935" lon="6.92416">
        <ele>270</ele>
        <time>2020-08-09T12:27:41Z</time>
      </trkpt>
      <trkpt lat="48.71949" lon="6.92411">
        <ele>270</ele>
        <time>2020-08-09T12:27:44Z</time>
      </trkpt>
      <trkpt lat="48.71953" lon="6.92413">
        <ele>270</ele>
        <time>2020-08-09T12:27:45Z</time>
      </trkpt>
      <trkpt lat="48.71961" lon="6.92409">
        <ele>270</ele>
        <time>2020-08-09T12:27:47Z</time>
      </trkpt>
      <trkpt lat="48.71966" lon="6.92409">
        <ele>270</ele>
        <time>2020-08-09T12:27:48Z</time>
      </trkpt>
      <trkpt lat="48.71971" lon="6.92408">
        <ele>270</ele>
        <time>2020-08-09T12:27:49Z</time>
      </trkpt>
      <trkpt lat="48.7198" lon="6.92405">
        <ele>270</ele>
        <time>2020-08-09T12:27:51Z</time>
      </trkpt>
      <trkpt lat="48.71984" lon="6.92402">
        <ele>270</ele>
        <time>2020-08-09T12:27:52Z</time>
      </trkpt>
      <trkpt lat="48.71988" lon="6.92399">
        <ele>270</ele>
        <time>2020-08-09T12:27:53Z</time>
      </trkpt>
      <trkpt lat="48.71993" lon="6.92397">
        <ele>270</ele>
        <time>2020-08-09T12:27:54Z</time>
      </trkpt>
      <trkpt lat="48.71998" lon="6.92397">
        <ele>270</ele>
        <time>2020-08-09T12:27:55Z</time>
      </trkpt>
      <trkpt lat="48.72006" lon="6.92391">
        <ele>269</ele>
        <time>2020-08-09T12:27:57Z</time>
      </trkpt>
      <trkpt lat="48.7201" lon="6.92386">
        <ele>269</ele>
        <time>2020-08-09T12:27:58Z</time>
      </trkpt>
      <trkpt lat="48.72015" lon="6.92384">
        <ele>269</ele>
        <time>2020-08-09T12:27:59Z</time>
      </trkpt>
      <trkpt lat="48.7202" lon="6.92382">
        <ele>269</ele>
        <time>2020-08-09T12:28:00Z</time>
      </trkpt>
      <trkpt lat="48.72028" lon="6.92378">
        <ele>269</ele>
        <time>2020-08-09T12:28:02Z</time>
      </trkpt>
      <trkpt lat="48.72037" lon="6.92375">
        <ele>269</ele>
        <time>2020-08-09T12:28:04Z</time>
      </trkpt>
      <trkpt lat="48.72045" lon="6.92373">
        <ele>270</ele>
        <time>2020-08-09T12:28:06Z</time>
      </trkpt>
      <trkpt lat="48.72054" lon="6.92367">
        <ele>270</ele>
        <time>2020-08-09T12:28:08Z</time>
      </trkpt>
      <trkpt lat="48.72062" lon="6.92361">
        <ele>270</ele>
        <time>2020-08-09T12:28:10Z</time>
      </trkpt>
      <trkpt lat="48.72071" lon="6.92361">
        <ele>270</ele>
        <time>2020-08-09T12:28:12Z</time>
      </trkpt>
      <trkpt lat="48.72076" lon="6.92356">
        <ele>270</ele>
        <time>2020-08-09T12:28:13Z</time>
      </trkpt>
      <trkpt lat="48.72088" lon="6.9235">
        <ele>270</ele>
        <time>2020-08-09T12:28:16Z</time>
      </trkpt>
      <trkpt lat="48.72094" lon="6.92347">
        <ele>270</ele>
        <time>2020-08-09T12:28:17Z</time>
      </trkpt>
      <trkpt lat="48.72101" lon="6.92341">
        <ele>270</ele>
        <time>2020-08-09T12:28:19Z</time>
      </trkpt>
      <trkpt lat="48.72105" lon="6.92338">
        <ele>270</ele>
        <time>2020-08-09T12:28:20Z</time>
      </trkpt>
      <trkpt lat="48.7211" lon="6.9234">
        <ele>270</ele>
        <time>2020-08-09T12:28:21Z</time>
      </trkpt>
      <trkpt lat="48.72114" lon="6.92337">
        <ele>270</ele>
        <time>2020-08-09T12:28:22Z</time>
      </trkpt>
      <trkpt lat="48.72119" lon="6.92336">
        <ele>270</ele>
        <time>2020-08-09T12:28:23Z</time>
      </trkpt>
      <trkpt lat="48.72124" lon="6.92336">
        <ele>270</ele>
        <time>2020-08-09T12:28:24Z</time>
      </trkpt>
      <trkpt lat="48.72128" lon="6.92334">
        <ele>269</ele>
        <time>2020-08-09T12:28:25Z</time>
      </trkpt>
      <trkpt lat="48.72133" lon="6.92331">
        <ele>269</ele>
        <time>2020-08-09T12:28:26Z</time>
      </trkpt>
      <trkpt lat="48.72138" lon="6.92327">
        <ele>269</ele>
        <time>2020-08-09T12:28:27Z</time>
      </trkpt>
      <trkpt lat="48.72142" lon="6.92326">
        <ele>269</ele>
        <time>2020-08-09T12:28:28Z</time>
      </trkpt>
      <trkpt lat="48.72147" lon="6.92324">
        <ele>269</ele>
        <time>2020-08-09T12:28:29Z</time>
      </trkpt>
      <trkpt lat="48.72152" lon="6.92324">
        <ele>269</ele>
        <time>2020-08-09T12:28:30Z</time>
      </trkpt>
      <trkpt lat="48.72156" lon="6.92321">
        <ele>269</ele>
        <time>2020-08-09T12:28:31Z</time>
      </trkpt>
      <trkpt lat="48.72161" lon="6.9232">
        <ele>270</ele>
        <time>2020-08-09T12:28:32Z</time>
      </trkpt>
      <trkpt lat="48.7217" lon="6.92322">
        <ele>270</ele>
        <time>2020-08-09T12:28:34Z</time>
      </trkpt>
      <trkpt lat="48.72175" lon="6.92323">
        <ele>270</ele>
        <time>2020-08-09T12:28:35Z</time>
      </trkpt>
      <trkpt lat="48.72179" lon="6.92324">
        <ele>271</ele>
        <time>2020-08-09T12:28:36Z</time>
      </trkpt>
      <trkpt lat="48.72184" lon="6.92322">
        <ele>271</ele>
        <time>2020-08-09T12:28:37Z</time>
      </trkpt>
      <trkpt lat="48.72189" lon="6.92322">
        <ele>271</ele>
        <time>2020-08-09T12:28:38Z</time>
      </trkpt>
      <trkpt lat="48.72199" lon="6.9232">
        <ele>271</ele>
        <time>2020-08-09T12:28:40Z</time>
      </trkpt>
      <trkpt lat="48.72203" lon="6.9232">
        <ele>271</ele>
        <time>2020-08-09T12:28:41Z</time>
      </trkpt>
      <trkpt lat="48.72212" lon="6.92322">
        <ele>271</ele>
        <time>2020-08-09T12:28:43Z</time>
      </trkpt>
      <trkpt lat="48.72221" lon="6.9232">
        <ele>271</ele>
        <time>2020-08-09T12:28:45Z</time>
      </trkpt>
      <trkpt lat="48.7223" lon="6.92318">
        <ele>272</ele>
        <time>2020-08-09T12:28:47Z</time>
      </trkpt>
      <trkpt lat="48.72235" lon="6.92321">
        <ele>272</ele>
        <time>2020-08-09T12:28:48Z</time>
      </trkpt>
      <trkpt lat="48.72243" lon="6.92319">
        <ele>272</ele>
        <time>2020-08-09T12:28:50Z</time>
      </trkpt>
      <trkpt lat="48.72248" lon="6.92317">
        <ele>272</ele>
        <time>2020-08-09T12:28:51Z</time>
      </trkpt>
      <trkpt lat="48.72252" lon="6.92321">
        <ele>272</ele>
        <time>2020-08-09T12:28:52Z</time>
      </trkpt>
      <trkpt lat="48.72257" lon="6.92323">
        <ele>272</ele>
        <time>2020-08-09T12:28:53Z</time>
      </trkpt>
      <trkpt lat="48.7226" lon="6.92319">
        <ele>272</ele>
        <time>2020-08-09T12:28:54Z</time>
      </trkpt>
      <trkpt lat="48.72265" lon="6.92322">
        <ele>272</ele>
        <time>2020-08-09T12:28:55Z</time>
      </trkpt>
      <trkpt lat="48.72273" lon="6.92322">
        <ele>272</ele>
        <time>2020-08-09T12:28:57Z</time>
      </trkpt>
      <trkpt lat="48.72282" lon="6.92325">
        <ele>273</ele>
        <time>2020-08-09T12:28:59Z</time>
      </trkpt>
      <trkpt lat="48.72288" lon="6.92327">
        <ele>273</ele>
        <time>2020-08-09T12:29:00Z</time>
      </trkpt>
      <trkpt lat="48.72296" lon="6.92329">
        <ele>272</ele>
        <time>2020-08-09T12:29:02Z</time>
      </trkpt>
      <trkpt lat="48.723" lon="6.92332">
        <ele>272</ele>
        <time>2020-08-09T12:29:03Z</time>
      </trkpt>
      <trkpt lat="48.72307" lon="6.92331">
        <ele>272</ele>
        <time>2020-08-09T12:29:04Z</time>
      </trkpt>
      <trkpt lat="48.72316" lon="6.92335">
        <ele>272</ele>
        <time>2020-08-09T12:29:06Z</time>
      </trkpt>
      <trkpt lat="48.7232" lon="6.92339">
        <ele>272</ele>
        <time>2020-08-09T12:29:07Z</time>
      </trkpt>
      <trkpt lat="48.72325" lon="6.92342">
        <ele>272</ele>
        <time>2020-08-09T12:29:08Z</time>
      </trkpt>
      <trkpt lat="48.72331" lon="6.9235">
        <ele>272</ele>
        <time>2020-08-09T12:29:10Z</time>
      </trkpt>
      <trkpt lat="48.72336" lon="6.92354">
        <ele>272</ele>
        <time>2020-08-09T12:29:11Z</time>
      </trkpt>
      <trkpt lat="48.72345" lon="6.92358">
        <ele>272</ele>
        <time>2020-08-09T12:29:13Z</time>
      </trkpt>
      <trkpt lat="48.7235" lon="6.9236">
        <ele>272</ele>
        <time>2020-08-09T12:29:14Z</time>
      </trkpt>
      <trkpt lat="48.72356" lon="6.92363">
        <ele>272</ele>
        <time>2020-08-09T12:29:15Z</time>
      </trkpt>
      <trkpt lat="48.7236" lon="6.92366">
        <ele>273</ele>
        <time>2020-08-09T12:29:16Z</time>
      </trkpt>
      <trkpt lat="48.72364" lon="6.92368">
        <ele>273</ele>
        <time>2020-08-09T12:29:17Z</time>
      </trkpt>
      <trkpt lat="48.72369" lon="6.92371">
        <ele>274</ele>
        <time>2020-08-09T12:29:18Z</time>
      </trkpt>
      <trkpt lat="48.72373" lon="6.92374">
        <ele>274</ele>
        <time>2020-08-09T12:29:19Z</time>
      </trkpt>
      <trkpt lat="48.72381" lon="6.92377">
        <ele>275</ele>
        <time>2020-08-09T12:29:21Z</time>
      </trkpt>
      <trkpt lat="48.72389" lon="6.92383">
        <ele>275</ele>
        <time>2020-08-09T12:29:23Z</time>
      </trkpt>
      <trkpt lat="48.72394" lon="6.92386">
        <ele>275</ele>
        <time>2020-08-09T12:29:24Z</time>
      </trkpt>
      <trkpt lat="48.72398" lon="6.92389">
        <ele>276</ele>
        <time>2020-08-09T12:29:25Z</time>
      </trkpt>
      <trkpt lat="48.72407" lon="6.92395">
        <ele>276</ele>
        <time>2020-08-09T12:29:27Z</time>
      </trkpt>
      <trkpt lat="48.72415" lon="6.924">
        <ele>276</ele>
        <time>2020-08-09T12:29:29Z</time>
      </trkpt>
      <trkpt lat="48.7242" lon="6.92403">
        <ele>276</ele>
        <time>2020-08-09T12:29:30Z</time>
      </trkpt>
      <trkpt lat="48.72427" lon="6.92406">
        <ele>276</ele>
        <time>2020-08-09T12:29:32Z</time>
      </trkpt>
      <trkpt lat="48.72431" lon="6.92408">
        <ele>276</ele>
        <time>2020-08-09T12:29:33Z</time>
      </trkpt>
      <trkpt lat="48.72435" lon="6.9241">
        <ele>276</ele>
        <time>2020-08-09T12:29:34Z</time>
      </trkpt>
      <trkpt lat="48.72443" lon="6.92415">
        <ele>276</ele>
        <time>2020-08-09T12:29:36Z</time>
      </trkpt>
      <trkpt lat="48.72451" lon="6.9242">
        <ele>276</ele>
        <time>2020-08-09T12:29:38Z</time>
      </trkpt>
      <trkpt lat="48.72459" lon="6.92423">
        <ele>276</ele>
        <time>2020-08-09T12:29:40Z</time>
      </trkpt>
      <trkpt lat="48.72467" lon="6.92428">
        <ele>276</ele>
        <time>2020-08-09T12:29:42Z</time>
      </trkpt>
      <trkpt lat="48.72475" lon="6.92433">
        <ele>276</ele>
        <time>2020-08-09T12:29:44Z</time>
      </trkpt>
      <trkpt lat="48.72483" lon="6.9244">
        <ele>276</ele>
        <time>2020-08-09T12:29:46Z</time>
      </trkpt>
      <trkpt lat="48.72487" lon="6.92443">
        <ele>276</ele>
        <time>2020-08-09T12:29:47Z</time>
      </trkpt>
      <trkpt lat="48.72495" lon="6.92447">
        <ele>276</ele>
        <time>2020-08-09T12:29:49Z</time>
      </trkpt>
      <trkpt lat="48.72503" lon="6.92452">
        <ele>276</ele>
        <time>2020-08-09T12:29:51Z</time>
      </trkpt>
      <trkpt lat="48.72511" lon="6.92456">
        <ele>276</ele>
        <time>2020-08-09T12:29:53Z</time>
      </trkpt>
      <trkpt lat="48.72521" lon="6.92468">
        <ele>275</ele>
        <time>2020-08-09T12:29:56Z</time>
      </trkpt>
      <trkpt lat="48.72525" lon="6.92472">
        <ele>275</ele>
        <time>2020-08-09T12:29:57Z</time>
      </trkpt>
      <trkpt lat="48.72529" lon="6.92476">
        <ele>274</ele>
        <time>2020-08-09T12:29:58Z</time>
      </trkpt>
      <trkpt lat="48.72537" lon="6.92484">
        <ele>274</ele>
        <time>2020-08-09T12:30:00Z</time>
      </trkpt>
      <trkpt lat="48.72543" lon="6.9249">
        <ele>273</ele>
        <time>2020-08-09T12:30:02Z</time>
      </trkpt>
      <trkpt lat="48.72549" lon="6.92495">
        <ele>273</ele>
        <time>2020-08-09T12:30:04Z</time>
      </trkpt>
      <trkpt lat="48.72555" lon="6.925">
        <ele>272</ele>
        <time>2020-08-09T12:30:05Z</time>
      </trkpt>
      <trkpt lat="48.72561" lon="6.92509">
        <ele>272</ele>
        <time>2020-08-09T12:30:07Z</time>
      </trkpt>
      <trkpt lat="48.72568" lon="6.92517">
        <ele>271</ele>
        <time>2020-08-09T12:30:09Z</time>
      </trkpt>
      <trkpt lat="48.72574" lon="6.92524">
        <ele>270</ele>
        <time>2020-08-09T12:30:11Z</time>
      </trkpt>
      <trkpt lat="48.72582" lon="6.92531">
        <ele>269</ele>
        <time>2020-08-09T12:30:13Z</time>
      </trkpt>
      <trkpt lat="48.72585" lon="6.92536">
        <ele>269</ele>
        <time>2020-08-09T12:30:14Z</time>
      </trkpt>
      <trkpt lat="48.72592" lon="6.92543">
        <ele>269</ele>
        <time>2020-08-09T12:30:16Z</time>
      </trkpt>
      <trkpt lat="48.72596" lon="6.92547">
        <ele>269</ele>
        <time>2020-08-09T12:30:17Z</time>
      </trkpt>
      <trkpt lat="48.72603" lon="6.92555">
        <ele>268</ele>
        <time>2020-08-09T12:30:19Z</time>
      </trkpt>
      <trkpt lat="48.72609" lon="6.92562">
        <ele>268</ele>
        <time>2020-08-09T12:30:21Z</time>
      </trkpt>
      <trkpt lat="48.72617" lon="6.9257">
        <ele>267</ele>
        <time>2020-08-09T12:30:23Z</time>
      </trkpt>
      <trkpt lat="48.72624" lon="6.92577">
        <ele>267</ele>
        <time>2020-08-09T12:30:25Z</time>
      </trkpt>
      <trkpt lat="48.72634" lon="6.92589">
        <ele>267</ele>
        <time>2020-08-09T12:30:28Z</time>
      </trkpt>
      <trkpt lat="48.72642" lon="6.92597">
        <ele>267</ele>
        <time>2020-08-09T12:30:30Z</time>
      </trkpt>
      <trkpt lat="48.72649" lon="6.92605">
        <ele>267</ele>
        <time>2020-08-09T12:30:32Z</time>
      </trkpt>
      <trkpt lat="48.72656" lon="6.92612">
        <ele>267</ele>
        <time>2020-08-09T12:30:34Z</time>
      </trkpt>
      <trkpt lat="48.72662" lon="6.9262">
        <ele>268</ele>
        <time>2020-08-09T12:30:36Z</time>
      </trkpt>
      <trkpt lat="48.7267" lon="6.92628">
        <ele>267</ele>
        <time>2020-08-09T12:30:38Z</time>
      </trkpt>
      <trkpt lat="48.72677" lon="6.92636">
        <ele>267</ele>
        <time>2020-08-09T12:30:40Z</time>
      </trkpt>
      <trkpt lat="48.72684" lon="6.92644">
        <ele>267</ele>
        <time>2020-08-09T12:30:42Z</time>
      </trkpt>
      <trkpt lat="48.72691" lon="6.92652">
        <ele>267</ele>
        <time>2020-08-09T12:30:44Z</time>
      </trkpt>
      <trkpt lat="48.72695" lon="6.92656">
        <ele>267</ele>
        <time>2020-08-09T12:30:45Z</time>
      </trkpt>
      <trkpt lat="48.72701" lon="6.92663">
        <ele>267</ele>
        <time>2020-08-09T12:30:47Z</time>
      </trkpt>
      <trkpt lat="48.72705" lon="6.92667">
        <ele>267</ele>
        <time>2020-08-09T12:30:48Z</time>
      </trkpt>
      <trkpt lat="48.72712" lon="6.92675">
        <ele>267</ele>
        <time>2020-08-09T12:30:50Z</time>
      </trkpt>
      <trkpt lat="48.72718" lon="6.92683">
        <ele>267</ele>
        <time>2020-08-09T12:30:52Z</time>
      </trkpt>
      <trkpt lat="48.72723" lon="6.92692">
        <ele>267</ele>
        <time>2020-08-09T12:30:54Z</time>
      </trkpt>
      <trkpt lat="48.72727" lon="6.92696">
        <ele>268</ele>
        <time>2020-08-09T12:30:55Z</time>
      </trkpt>
      <trkpt lat="48.72734" lon="6.92705">
        <ele>267</ele>
        <time>2020-08-09T12:30:57Z</time>
      </trkpt>
      <trkpt lat="48.7274" lon="6.92714">
        <ele>266</ele>
        <time>2020-08-09T12:30:59Z</time>
      </trkpt>
      <trkpt lat="48.72746" lon="6.92722">
        <ele>266</ele>
        <time>2020-08-09T12:31:01Z</time>
      </trkpt>
      <trkpt lat="48.72752" lon="6.92729">
        <ele>266</ele>
        <time>2020-08-09T12:31:03Z</time>
      </trkpt>
      <trkpt lat="48.72758" lon="6.92738">
        <ele>266</ele>
        <time>2020-08-09T12:31:05Z</time>
      </trkpt>
      <trkpt lat="48.72764" lon="6.92746">
        <ele>267</ele>
        <time>2020-08-09T12:31:07Z</time>
      </trkpt>
      <trkpt lat="48.7277" lon="6.92755">
        <ele>267</ele>
        <time>2020-08-09T12:31:09Z</time>
      </trkpt>
      <trkpt lat="48.72775" lon="6.92764">
        <ele>266</ele>
        <time>2020-08-09T12:31:11Z</time>
      </trkpt>
      <trkpt lat="48.72781" lon="6.92773">
        <ele>266</ele>
        <time>2020-08-09T12:31:13Z</time>
      </trkpt>
      <trkpt lat="48.72787" lon="6.92782">
        <ele>266</ele>
        <time>2020-08-09T12:31:15Z</time>
      </trkpt>
      <trkpt lat="48.72792" lon="6.92791">
        <ele>266</ele>
        <time>2020-08-09T12:31:17Z</time>
      </trkpt>
      <trkpt lat="48.72797" lon="6.928">
        <ele>266</ele>
        <time>2020-08-09T12:31:19Z</time>
      </trkpt>
      <trkpt lat="48.72803" lon="6.9281">
        <ele>266</ele>
        <time>2020-08-09T12:31:21Z</time>
      </trkpt>
      <trkpt lat="48.72809" lon="6.9282">
        <ele>266</ele>
        <time>2020-08-09T12:31:23Z</time>
      </trkpt>
      <trkpt lat="48.72814" lon="6.9283">
        <ele>266</ele>
        <time>2020-08-09T12:31:25Z</time>
      </trkpt>
      <trkpt lat="48.7282" lon="6.9284">
        <ele>266</ele>
        <time>2020-08-09T12:31:27Z</time>
      </trkpt>
      <trkpt lat="48.72825" lon="6.9285">
        <ele>266</ele>
        <time>2020-08-09T12:31:29Z</time>
      </trkpt>
      <trkpt lat="48.72831" lon="6.9286">
        <ele>266</ele>
        <time>2020-08-09T12:31:31Z</time>
      </trkpt>
      <trkpt lat="48.72836" lon="6.92871">
        <ele>266</ele>
        <time>2020-08-09T12:31:33Z</time>
      </trkpt>
      <trkpt lat="48.72842" lon="6.92881">
        <ele>266</ele>
        <time>2020-08-09T12:31:35Z</time>
      </trkpt>
      <trkpt lat="48.72846" lon="6.92892">
        <ele>266</ele>
        <time>2020-08-09T12:31:37Z</time>
      </trkpt>
      <trkpt lat="48.72852" lon="6.92902">
        <ele>265</ele>
        <time>2020-08-09T12:31:39Z</time>
      </trkpt>
      <trkpt lat="48.72856" lon="6.92912">
        <ele>265</ele>
        <time>2020-08-09T12:31:41Z</time>
      </trkpt>
      <trkpt lat="48.72861" lon="6.92922">
        <ele>265</ele>
        <time>2020-08-09T12:31:43Z</time>
      </trkpt>
      <trkpt lat="48.72865" lon="6.92932">
        <ele>265</ele>
        <time>2020-08-09T12:31:45Z</time>
      </trkpt>
      <trkpt lat="48.7287" lon="6.92942">
        <ele>265</ele>
        <time>2020-08-09T12:31:47Z</time>
      </trkpt>
      <trkpt lat="48.72874" lon="6.92953">
        <ele>265</ele>
        <time>2020-08-09T12:31:49Z</time>
      </trkpt>
      <trkpt lat="48.72879" lon="6.92962">
        <ele>265</ele>
        <time>2020-08-09T12:31:51Z</time>
      </trkpt>
      <trkpt lat="48.72884" lon="6.92972">
        <ele>265</ele>
        <time>2020-08-09T12:31:53Z</time>
      </trkpt>
      <trkpt lat="48.72889" lon="6.92981">
        <ele>265</ele>
        <time>2020-08-09T12:31:55Z</time>
      </trkpt>
      <trkpt lat="48.72892" lon="6.9299">
        <ele>265</ele>
        <time>2020-08-09T12:31:57Z</time>
      </trkpt>
      <trkpt lat="48.72896" lon="6.92999">
        <ele>265</ele>
        <time>2020-08-09T12:31:59Z</time>
      </trkpt>
      <trkpt lat="48.729" lon="6.93008">
        <ele>265</ele>
        <time>2020-08-09T12:32:01Z</time>
      </trkpt>
      <trkpt lat="48.72905" lon="6.93015">
        <ele>265</ele>
        <time>2020-08-09T12:32:03Z</time>
      </trkpt>
      <trkpt lat="48.7291" lon="6.93024">
        <ele>265</ele>
        <time>2020-08-09T12:32:05Z</time>
      </trkpt>
      <trkpt lat="48.72915" lon="6.93034">
        <ele>266</ele>
        <time>2020-08-09T12:32:07Z</time>
      </trkpt>
      <trkpt lat="48.7292" lon="6.93044">
        <ele>266</ele>
        <time>2020-08-09T12:32:09Z</time>
      </trkpt>
      <trkpt lat="48.72925" lon="6.93054">
        <ele>266</ele>
        <time>2020-08-09T12:32:11Z</time>
      </trkpt>
      <trkpt lat="48.7293" lon="6.93065">
        <ele>266</ele>
        <time>2020-08-09T12:32:13Z</time>
      </trkpt>
      <trkpt lat="48.72934" lon="6.93074">
        <ele>267</ele>
        <time>2020-08-09T12:32:15Z</time>
      </trkpt>
      <trkpt lat="48.72937" lon="6.93084">
        <ele>266</ele>
        <time>2020-08-09T12:32:17Z</time>
      </trkpt>
      <trkpt lat="48.72943" lon="6.93094">
        <ele>266</ele>
        <time>2020-08-09T12:32:19Z</time>
      </trkpt>
      <trkpt lat="48.72947" lon="6.93104">
        <ele>266</ele>
        <time>2020-08-09T12:32:21Z</time>
      </trkpt>
      <trkpt lat="48.72952" lon="6.93114">
        <ele>265</ele>
        <time>2020-08-09T12:32:23Z</time>
      </trkpt>
      <trkpt lat="48.72957" lon="6.93125">
        <ele>265</ele>
        <time>2020-08-09T12:32:25Z</time>
      </trkpt>
      <trkpt lat="48.72963" lon="6.93135">
        <ele>265</ele>
        <time>2020-08-09T12:32:27Z</time>
      </trkpt>
      <trkpt lat="48.72968" lon="6.93144">
        <ele>266</ele>
        <time>2020-08-09T12:32:29Z</time>
      </trkpt>
      <trkpt lat="48.72973" lon="6.93155">
        <ele>266</ele>
        <time>2020-08-09T12:32:31Z</time>
      </trkpt>
      <trkpt lat="48.72978" lon="6.93166">
        <ele>266</ele>
        <time>2020-08-09T12:32:33Z</time>
      </trkpt>
      <trkpt lat="48.72981" lon="6.93172">
        <ele>266</ele>
        <time>2020-08-09T12:32:34Z</time>
      </trkpt>
      <trkpt lat="48.72984" lon="6.93178">
        <ele>266</ele>
        <time>2020-08-09T12:32:35Z</time>
      </trkpt>
      <trkpt lat="48.72989" lon="6.93188">
        <ele>267</ele>
        <time>2020-08-09T12:32:37Z</time>
      </trkpt>
      <trkpt lat="48.72994" lon="6.93198">
        <ele>267</ele>
        <time>2020-08-09T12:32:39Z</time>
      </trkpt>
      <trkpt lat="48.72997" lon="6.93208">
        <ele>267</ele>
        <time>2020-08-09T12:32:41Z</time>
      </trkpt>
      <trkpt lat="48.73002" lon="6.93218">
        <ele>267</ele>
        <time>2020-08-09T12:32:43Z</time>
      </trkpt>
      <trkpt lat="48.73006" lon="6.93227">
        <ele>267</ele>
        <time>2020-08-09T12:32:45Z</time>
      </trkpt>
      <trkpt lat="48.7301" lon="6.93235">
        <ele>266</ele>
        <time>2020-08-09T12:32:47Z</time>
      </trkpt>
      <trkpt lat="48.73015" lon="6.93242">
        <ele>266</ele>
        <time>2020-08-09T12:32:49Z</time>
      </trkpt>
      <trkpt lat="48.73019" lon="6.93253">
        <ele>266</ele>
        <time>2020-08-09T12:32:51Z</time>
      </trkpt>
      <trkpt lat="48.73022" lon="6.93258">
        <ele>266</ele>
        <time>2020-08-09T12:32:52Z</time>
      </trkpt>
      <trkpt lat="48.73026" lon="6.93267">
        <ele>266</ele>
        <time>2020-08-09T12:32:54Z</time>
      </trkpt>
      <trkpt lat="48.73031" lon="6.93277">
        <ele>266</ele>
        <time>2020-08-09T12:32:56Z</time>
      </trkpt>
      <trkpt lat="48.73034" lon="6.93283">
        <ele>266</ele>
        <time>2020-08-09T12:32:57Z</time>
      </trkpt>
      <trkpt lat="48.73037" lon="6.93288">
        <ele>266</ele>
        <time>2020-08-09T12:32:58Z</time>
      </trkpt>
      <trkpt lat="48.73043" lon="6.93298">
        <ele>266</ele>
        <time>2020-08-09T12:33:00Z</time>
      </trkpt>
      <trkpt lat="48.73047" lon="6.93308">
        <ele>266</ele>
        <time>2020-08-09T12:33:02Z</time>
      </trkpt>
      <trkpt lat="48.73053" lon="6.93319">
        <ele>266</ele>
        <time>2020-08-09T12:33:04Z</time>
      </trkpt>
      <trkpt lat="48.73054" lon="6.9333">
        <ele>267</ele>
        <time>2020-08-09T12:33:06Z</time>
      </trkpt>
      <trkpt lat="48.73059" lon="6.93341">
        <ele>266</ele>
        <time>2020-08-09T12:33:08Z</time>
      </trkpt>
      <trkpt lat="48.73064" lon="6.93351">
        <ele>266</ele>
        <time>2020-08-09T12:33:10Z</time>
      </trkpt>
      <trkpt lat="48.73068" lon="6.93362">
        <ele>267</ele>
        <time>2020-08-09T12:33:12Z</time>
      </trkpt>
      <trkpt lat="48.73074" lon="6.93373">
        <ele>267</ele>
        <time>2020-08-09T12:33:14Z</time>
      </trkpt>
      <trkpt lat="48.73078" lon="6.93383">
        <ele>267</ele>
        <time>2020-08-09T12:33:16Z</time>
      </trkpt>
      <trkpt lat="48.73084" lon="6.93392">
        <ele>267</ele>
        <time>2020-08-09T12:33:18Z</time>
      </trkpt>
      <trkpt lat="48.73087" lon="6.93403">
        <ele>267</ele>
        <time>2020-08-09T12:33:20Z</time>
      </trkpt>
      <trkpt lat="48.73092" lon="6.93413">
        <ele>267</ele>
        <time>2020-08-09T12:33:22Z</time>
      </trkpt>
      <trkpt lat="48.73097" lon="6.93422">
        <ele>267</ele>
        <time>2020-08-09T12:33:24Z</time>
      </trkpt>
      <trkpt lat="48.73101" lon="6.93432">
        <ele>267</ele>
        <time>2020-08-09T12:33:26Z</time>
      </trkpt>
      <trkpt lat="48.73105" lon="6.93438">
        <ele>267</ele>
        <time>2020-08-09T12:33:27Z</time>
      </trkpt>
      <trkpt lat="48.73109" lon="6.93443">
        <ele>267</ele>
        <time>2020-08-09T12:33:28Z</time>
      </trkpt>
      <trkpt lat="48.73113" lon="6.93448">
        <ele>267</ele>
        <time>2020-08-09T12:33:29Z</time>
      </trkpt>
      <trkpt lat="48.73116" lon="6.93457">
        <ele>267</ele>
        <time>2020-08-09T12:33:31Z</time>
      </trkpt>
      <trkpt lat="48.73123" lon="6.93468">
        <ele>267</ele>
        <time>2020-08-09T12:33:33Z</time>
      </trkpt>
      <trkpt lat="48.73127" lon="6.93473">
        <ele>267</ele>
        <time>2020-08-09T12:33:34Z</time>
      </trkpt>
      <trkpt lat="48.73132" lon="6.93482">
        <ele>267</ele>
        <time>2020-08-09T12:33:36Z</time>
      </trkpt>
      <trkpt lat="48.73138" lon="6.9349">
        <ele>267</ele>
        <time>2020-08-09T12:33:38Z</time>
      </trkpt>
      <trkpt lat="48.73142" lon="6.93496">
        <ele>267</ele>
        <time>2020-08-09T12:33:39Z</time>
      </trkpt>
      <trkpt lat="48.73145" lon="6.93501">
        <ele>267</ele>
        <time>2020-08-09T12:33:40Z</time>
      </trkpt>
      <trkpt lat="48.73148" lon="6.93507">
        <ele>267</ele>
        <time>2020-08-09T12:33:41Z</time>
      </trkpt>
      <trkpt lat="48.73153" lon="6.93516">
        <ele>267</ele>
        <time>2020-08-09T12:33:43Z</time>
      </trkpt>
      <trkpt lat="48.7316" lon="6.93526">
        <ele>267</ele>
        <time>2020-08-09T12:33:45Z</time>
      </trkpt>
      <trkpt lat="48.73163" lon="6.93532">
        <ele>267</ele>
        <time>2020-08-09T12:33:46Z</time>
      </trkpt>
      <trkpt lat="48.73169" lon="6.93542">
        <ele>267</ele>
        <time>2020-08-09T12:33:48Z</time>
      </trkpt>
      <trkpt lat="48.73175" lon="6.93551">
        <ele>266</ele>
        <time>2020-08-09T12:33:50Z</time>
      </trkpt>
      <trkpt lat="48.73178" lon="6.93556">
        <ele>267</ele>
        <time>2020-08-09T12:33:51Z</time>
      </trkpt>
      <trkpt lat="48.73184" lon="6.93568">
        <ele>267</ele>
        <time>2020-08-09T12:33:53Z</time>
      </trkpt>
      <trkpt lat="48.73191" lon="6.93579">
        <ele>267</ele>
        <time>2020-08-09T12:33:55Z</time>
      </trkpt>
      <trkpt lat="48.73196" lon="6.93589">
        <ele>267</ele>
        <time>2020-08-09T12:33:57Z</time>
      </trkpt>
      <trkpt lat="48.732" lon="6.93594">
        <ele>267</ele>
        <time>2020-08-09T12:33:58Z</time>
      </trkpt>
      <trkpt lat="48.73204" lon="6.93599">
        <ele>267</ele>
        <time>2020-08-09T12:33:59Z</time>
      </trkpt>
      <trkpt lat="48.73211" lon="6.93608">
        <ele>267</ele>
        <time>2020-08-09T12:34:01Z</time>
      </trkpt>
      <trkpt lat="48.73216" lon="6.93618">
        <ele>267</ele>
        <time>2020-08-09T12:34:03Z</time>
      </trkpt>
      <trkpt lat="48.73222" lon="6.93629">
        <ele>268</ele>
        <time>2020-08-09T12:34:05Z</time>
      </trkpt>
      <trkpt lat="48.73226" lon="6.93633">
        <ele>268</ele>
        <time>2020-08-09T12:34:06Z</time>
      </trkpt>
      <trkpt lat="48.73229" lon="6.93638">
        <ele>268</ele>
        <time>2020-08-09T12:34:07Z</time>
      </trkpt>
      <trkpt lat="48.73235" lon="6.93648">
        <ele>267</ele>
        <time>2020-08-09T12:34:09Z</time>
      </trkpt>
      <trkpt lat="48.73238" lon="6.93654">
        <ele>267</ele>
        <time>2020-08-09T12:34:10Z</time>
      </trkpt>
      <trkpt lat="48.73244" lon="6.93664">
        <ele>267</ele>
        <time>2020-08-09T12:34:12Z</time>
      </trkpt>
      <trkpt lat="48.73249" lon="6.93674">
        <ele>267</ele>
        <time>2020-08-09T12:34:14Z</time>
      </trkpt>
      <trkpt lat="48.73253" lon="6.93679">
        <ele>267</ele>
        <time>2020-08-09T12:34:15Z</time>
      </trkpt>
      <trkpt lat="48.73256" lon="6.93684">
        <ele>267</ele>
        <time>2020-08-09T12:34:16Z</time>
      </trkpt>
      <trkpt lat="48.73258" lon="6.9369">
        <ele>267</ele>
        <time>2020-08-09T12:34:17Z</time>
      </trkpt>
      <trkpt lat="48.73262" lon="6.937">
        <ele>267</ele>
        <time>2020-08-09T12:34:19Z</time>
      </trkpt>
      <trkpt lat="48.73266" lon="6.93705">
        <ele>267</ele>
        <time>2020-08-09T12:34:20Z</time>
      </trkpt>
      <trkpt lat="48.73271" lon="6.93715">
        <ele>268</ele>
        <time>2020-08-09T12:34:22Z</time>
      </trkpt>
      <trkpt lat="48.73277" lon="6.93725">
        <ele>268</ele>
        <time>2020-08-09T12:34:24Z</time>
      </trkpt>
      <trkpt lat="48.73282" lon="6.93734">
        <ele>268</ele>
        <time>2020-08-09T12:34:26Z</time>
      </trkpt>
      <trkpt lat="48.73287" lon="6.93743">
        <ele>268</ele>
        <time>2020-08-09T12:34:28Z</time>
      </trkpt>
      <trkpt lat="48.73293" lon="6.93752">
        <ele>268</ele>
        <time>2020-08-09T12:34:30Z</time>
      </trkpt>
      <trkpt lat="48.73299" lon="6.93761">
        <ele>268</ele>
        <time>2020-08-09T12:34:32Z</time>
      </trkpt>
      <trkpt lat="48.73308" lon="6.93775">
        <ele>268</ele>
        <time>2020-08-09T12:34:35Z</time>
      </trkpt>
      <trkpt lat="48.73311" lon="6.9378">
        <ele>267</ele>
        <time>2020-08-09T12:34:36Z</time>
      </trkpt>
      <trkpt lat="48.73318" lon="6.93789">
        <ele>267</ele>
        <time>2020-08-09T12:34:38Z</time>
      </trkpt>
      <trkpt lat="48.73324" lon="6.93798">
        <ele>268</ele>
        <time>2020-08-09T12:34:40Z</time>
      </trkpt>
      <trkpt lat="48.7333" lon="6.93808">
        <ele>268</ele>
        <time>2020-08-09T12:34:42Z</time>
      </trkpt>
      <trkpt lat="48.73333" lon="6.93813">
        <ele>268</ele>
        <time>2020-08-09T12:34:43Z</time>
      </trkpt>
      <trkpt lat="48.73339" lon="6.93822">
        <ele>268</ele>
        <time>2020-08-09T12:34:45Z</time>
      </trkpt>
      <trkpt lat="48.73346" lon="6.93831">
        <ele>268</ele>
        <time>2020-08-09T12:34:47Z</time>
      </trkpt>
      <trkpt lat="48.73351" lon="6.93839">
        <ele>267</ele>
        <time>2020-08-09T12:34:49Z</time>
      </trkpt>
      <trkpt lat="48.73359" lon="6.93847">
        <ele>267</ele>
        <time>2020-08-09T12:34:51Z</time>
      </trkpt>
      <trkpt lat="48.73364" lon="6.93856">
        <ele>267</ele>
        <time>2020-08-09T12:34:53Z</time>
      </trkpt>
      <trkpt lat="48.73368" lon="6.9386">
        <ele>267</ele>
        <time>2020-08-09T12:34:54Z</time>
      </trkpt>
      <trkpt lat="48.73371" lon="6.93865">
        <ele>267</ele>
        <time>2020-08-09T12:34:55Z</time>
      </trkpt>
      <trkpt lat="48.73378" lon="6.93874">
        <ele>267</ele>
        <time>2020-08-09T12:34:57Z</time>
      </trkpt>
      <trkpt lat="48.73385" lon="6.93882">
        <ele>267</ele>
        <time>2020-08-09T12:34:59Z</time>
      </trkpt>
      <trkpt lat="48.73389" lon="6.93887">
        <ele>267</ele>
        <time>2020-08-09T12:35:01Z</time>
      </trkpt>
      <trkpt lat="48.73399" lon="6.93895">
        <ele>266</ele>
        <time>2020-08-09T12:35:03Z</time>
      </trkpt>
      <trkpt lat="48.73403" lon="6.939">
        <ele>266</ele>
        <time>2020-08-09T12:35:04Z</time>
      </trkpt>
      <trkpt lat="48.73408" lon="6.93907">
        <ele>266</ele>
        <time>2020-08-09T12:35:06Z</time>
      </trkpt>
      <trkpt lat="48.73416" lon="6.93915">
        <ele>267</ele>
        <time>2020-08-09T12:35:08Z</time>
      </trkpt>
      <trkpt lat="48.7342" lon="6.93919">
        <ele>267</ele>
        <time>2020-08-09T12:35:09Z</time>
      </trkpt>
      <trkpt lat="48.73426" lon="6.93927">
        <ele>267</ele>
        <time>2020-08-09T12:35:11Z</time>
      </trkpt>
      <trkpt lat="48.73433" lon="6.93934">
        <ele>267</ele>
        <time>2020-08-09T12:35:13Z</time>
      </trkpt>
      <trkpt lat="48.73439" lon="6.93939">
        <ele>267</ele>
        <time>2020-08-09T12:35:15Z</time>
      </trkpt>
      <trkpt lat="48.73446" lon="6.93945">
        <ele>267</ele>
        <time>2020-08-09T12:35:17Z</time>
      </trkpt>
      <trkpt lat="48.7345" lon="6.93949">
        <ele>267</ele>
        <time>2020-08-09T12:35:18Z</time>
      </trkpt>
      <trkpt lat="48.73457" lon="6.93955">
        <ele>267</ele>
        <time>2020-08-09T12:35:20Z</time>
      </trkpt>
      <trkpt lat="48.73464" lon="6.9396">
        <ele>267</ele>
        <time>2020-08-09T12:35:22Z</time>
      </trkpt>
      <trkpt lat="48.73472" lon="6.93966">
        <ele>267</ele>
        <time>2020-08-09T12:35:24Z</time>
      </trkpt>
      <trkpt lat="48.73479" lon="6.9397">
        <ele>267</ele>
        <time>2020-08-09T12:35:26Z</time>
      </trkpt>
      <trkpt lat="48.73487" lon="6.93975">
        <ele>267</ele>
        <time>2020-08-09T12:35:28Z</time>
      </trkpt>
      <trkpt lat="48.73495" lon="6.9398">
        <ele>267</ele>
        <time>2020-08-09T12:35:30Z</time>
      </trkpt>
      <trkpt lat="48.73502" lon="6.93985">
        <ele>267</ele>
        <time>2020-08-09T12:35:32Z</time>
      </trkpt>
      <trkpt lat="48.73508" lon="6.93991">
        <ele>268</ele>
        <time>2020-08-09T12:35:34Z</time>
      </trkpt>
      <trkpt lat="48.73516" lon="6.93995">
        <ele>268</ele>
        <time>2020-08-09T12:35:36Z</time>
      </trkpt>
      <trkpt lat="48.73523" lon="6.94001">
        <ele>268</ele>
        <time>2020-08-09T12:35:38Z</time>
      </trkpt>
      <trkpt lat="48.73531" lon="6.94007">
        <ele>268</ele>
        <time>2020-08-09T12:35:40Z</time>
      </trkpt>
      <trkpt lat="48.73538" lon="6.94013">
        <ele>267</ele>
        <time>2020-08-09T12:35:42Z</time>
      </trkpt>
      <trkpt lat="48.73546" lon="6.9402">
        <ele>268</ele>
        <time>2020-08-09T12:35:44Z</time>
      </trkpt>
      <trkpt lat="48.73553" lon="6.94025">
        <ele>268</ele>
        <time>2020-08-09T12:35:46Z</time>
      </trkpt>
      <trkpt lat="48.73561" lon="6.9403">
        <ele>268</ele>
        <time>2020-08-09T12:35:48Z</time>
      </trkpt>
      <trkpt lat="48.73566" lon="6.94032">
        <ele>268</ele>
        <time>2020-08-09T12:35:49Z</time>
      </trkpt>
      <trkpt lat="48.73574" lon="6.94039">
        <ele>268</ele>
        <time>2020-08-09T12:35:51Z</time>
      </trkpt>
      <trkpt lat="48.73582" lon="6.94043">
        <ele>268</ele>
        <time>2020-08-09T12:35:53Z</time>
      </trkpt>
      <trkpt lat="48.7359" lon="6.94047">
        <ele>268</ele>
        <time>2020-08-09T12:35:55Z</time>
      </trkpt>
      <trkpt lat="48.73598" lon="6.94052">
        <ele>267</ele>
        <time>2020-08-09T12:35:57Z</time>
      </trkpt>
      <trkpt lat="48.73606" lon="6.94056">
        <ele>266</ele>
        <time>2020-08-09T12:35:59Z</time>
      </trkpt>
      <trkpt lat="48.73613" lon="6.94061">
        <ele>266</ele>
        <time>2020-08-09T12:36:01Z</time>
      </trkpt>
      <trkpt lat="48.73621" lon="6.94065">
        <ele>266</ele>
        <time>2020-08-09T12:36:03Z</time>
      </trkpt>
      <trkpt lat="48.73628" lon="6.94071">
        <ele>266</ele>
        <time>2020-08-09T12:36:05Z</time>
      </trkpt>
      <trkpt lat="48.73633" lon="6.94074">
        <ele>266</ele>
        <time>2020-08-09T12:36:06Z</time>
      </trkpt>
      <trkpt lat="48.7364" lon="6.94078">
        <ele>265</ele>
        <time>2020-08-09T12:36:08Z</time>
      </trkpt>
      <trkpt lat="48.73647" lon="6.94081">
        <ele>265</ele>
        <time>2020-08-09T12:36:10Z</time>
      </trkpt>
      <trkpt lat="48.73654" lon="6.94085">
        <ele>265</ele>
        <time>2020-08-09T12:36:12Z</time>
      </trkpt>
      <trkpt lat="48.73658" lon="6.94088">
        <ele>265</ele>
        <time>2020-08-09T12:36:13Z</time>
      </trkpt>
      <trkpt lat="48.73665" lon="6.94092">
        <ele>265</ele>
        <time>2020-08-09T12:36:15Z</time>
      </trkpt>
      <trkpt lat="48.73672" lon="6.94096">
        <ele>265</ele>
        <time>2020-08-09T12:36:17Z</time>
      </trkpt>
      <trkpt lat="48.73679" lon="6.941">
        <ele>265</ele>
        <time>2020-08-09T12:36:19Z</time>
      </trkpt>
      <trkpt lat="48.73686" lon="6.94101">
        <ele>265</ele>
        <time>2020-08-09T12:36:21Z</time>
      </trkpt>
      <trkpt lat="48.73694" lon="6.94106">
        <ele>266</ele>
        <time>2020-08-09T12:36:23Z</time>
      </trkpt>
      <trkpt lat="48.737" lon="6.9411">
        <ele>266</ele>
        <time>2020-08-09T12:36:25Z</time>
      </trkpt>
      <trkpt lat="48.73707" lon="6.94113">
        <ele>266</ele>
        <time>2020-08-09T12:36:27Z</time>
      </trkpt>
      <trkpt lat="48.73714" lon="6.94115">
        <ele>266</ele>
        <time>2020-08-09T12:36:29Z</time>
      </trkpt>
      <trkpt lat="48.73721" lon="6.94118">
        <ele>266</ele>
        <time>2020-08-09T12:36:31Z</time>
      </trkpt>
      <trkpt lat="48.73727" lon="6.94121">
        <ele>266</ele>
        <time>2020-08-09T12:36:33Z</time>
      </trkpt>
      <trkpt lat="48.73734" lon="6.94124">
        <ele>266</ele>
        <time>2020-08-09T12:36:35Z</time>
      </trkpt>
      <trkpt lat="48.73742" lon="6.94128">
        <ele>266</ele>
        <time>2020-08-09T12:36:37Z</time>
      </trkpt>
      <trkpt lat="48.73751" lon="6.9413">
        <ele>266</ele>
        <time>2020-08-09T12:36:39Z</time>
      </trkpt>
      <trkpt lat="48.7376" lon="6.94132">
        <ele>266</ele>
        <time>2020-08-09T12:36:41Z</time>
      </trkpt>
      <trkpt lat="48.73768" lon="6.94135">
        <ele>266</ele>
        <time>2020-08-09T12:36:43Z</time>
      </trkpt>
      <trkpt lat="48.73776" lon="6.94138">
        <ele>266</ele>
        <time>2020-08-09T12:36:45Z</time>
      </trkpt>
      <trkpt lat="48.73785" lon="6.94139">
        <ele>266</ele>
        <time>2020-08-09T12:36:47Z</time>
      </trkpt>
      <trkpt lat="48.73795" lon="6.9414">
        <ele>266</ele>
        <time>2020-08-09T12:36:49Z</time>
      </trkpt>
      <trkpt lat="48.73802" lon="6.94142">
        <ele>266</ele>
        <time>2020-08-09T12:36:51Z</time>
      </trkpt>
      <trkpt lat="48.73811" lon="6.94144">
        <ele>266</ele>
        <time>2020-08-09T12:36:53Z</time>
      </trkpt>
      <trkpt lat="48.73816" lon="6.94146">
        <ele>266</ele>
        <time>2020-08-09T12:36:54Z</time>
      </trkpt>
      <trkpt lat="48.73824" lon="6.94148">
        <ele>266</ele>
        <time>2020-08-09T12:36:56Z</time>
      </trkpt>
      <trkpt lat="48.73832" lon="6.94149">
        <ele>266</ele>
        <time>2020-08-09T12:36:58Z</time>
      </trkpt>
      <trkpt lat="48.7384" lon="6.94152">
        <ele>266</ele>
        <time>2020-08-09T12:37:00Z</time>
      </trkpt>
      <trkpt lat="48.73848" lon="6.94154">
        <ele>267</ele>
        <time>2020-08-09T12:37:02Z</time>
      </trkpt>
      <trkpt lat="48.73856" lon="6.94155">
        <ele>267</ele>
        <time>2020-08-09T12:37:04Z</time>
      </trkpt>
      <trkpt lat="48.73864" lon="6.94158">
        <ele>267</ele>
        <time>2020-08-09T12:37:06Z</time>
      </trkpt>
      <trkpt lat="48.73872" lon="6.94159">
        <ele>267</ele>
        <time>2020-08-09T12:37:08Z</time>
      </trkpt>
      <trkpt lat="48.7388" lon="6.94161">
        <ele>267</ele>
        <time>2020-08-09T12:37:10Z</time>
      </trkpt>
      <trkpt lat="48.73888" lon="6.94163">
        <ele>267</ele>
        <time>2020-08-09T12:37:12Z</time>
      </trkpt>
      <trkpt lat="48.73896" lon="6.94165">
        <ele>267</ele>
        <time>2020-08-09T12:37:14Z</time>
      </trkpt>
      <trkpt lat="48.73904" lon="6.94167">
        <ele>267</ele>
        <time>2020-08-09T12:37:16Z</time>
      </trkpt>
      <trkpt lat="48.73912" lon="6.94168">
        <ele>266</ele>
        <time>2020-08-09T12:37:18Z</time>
      </trkpt>
      <trkpt lat="48.73919" lon="6.9417">
        <ele>266</ele>
        <time>2020-08-09T12:37:20Z</time>
      </trkpt>
      <trkpt lat="48.73925" lon="6.94171">
        <ele>266</ele>
        <time>2020-08-09T12:37:22Z</time>
      </trkpt>
      <trkpt lat="48.73931" lon="6.94173">
        <ele>266</ele>
        <time>2020-08-09T12:37:24Z</time>
      </trkpt>
      <trkpt lat="48.73936" lon="6.94174">
        <ele>266</ele>
        <time>2020-08-09T12:37:26Z</time>
      </trkpt>
      <trkpt lat="48.73941" lon="6.94177">
        <ele>266</ele>
        <time>2020-08-09T12:37:28Z</time>
      </trkpt>
      <trkpt lat="48.73946" lon="6.94177">
        <ele>266</ele>
        <time>2020-08-09T12:37:30Z</time>
      </trkpt>
      <trkpt lat="48.73952" lon="6.94178">
        <ele>266</ele>
        <time>2020-08-09T12:37:33Z</time>
      </trkpt>
      <trkpt lat="48.73957" lon="6.94179">
        <ele>266</ele>
        <time>2020-08-09T12:37:36Z</time>
      </trkpt>
      <trkpt lat="48.73962" lon="6.9418">
        <ele>266</ele>
        <time>2020-08-09T12:37:38Z</time>
      </trkpt>
      <trkpt lat="48.73967" lon="6.94181">
        <ele>266</ele>
        <time>2020-08-09T12:37:40Z</time>
      </trkpt>
      <trkpt lat="48.73973" lon="6.94183">
        <ele>266</ele>
        <time>2020-08-09T12:37:42Z</time>
      </trkpt>
      <trkpt lat="48.73978" lon="6.94185">
        <ele>266</ele>
        <time>2020-08-09T12:37:44Z</time>
      </trkpt>
      <trkpt lat="48.73985" lon="6.94186">
        <ele>266</ele>
        <time>2020-08-09T12:37:46Z</time>
      </trkpt>
      <trkpt lat="48.73992" lon="6.94188">
        <ele>266</ele>
        <time>2020-08-09T12:37:48Z</time>
      </trkpt>
      <trkpt lat="48.73998" lon="6.94189">
        <ele>266</ele>
        <time>2020-08-09T12:37:50Z</time>
      </trkpt>
      <trkpt lat="48.74004" lon="6.94192">
        <ele>266</ele>
        <time>2020-08-09T12:37:52Z</time>
      </trkpt>
      <trkpt lat="48.74012" lon="6.94193">
        <ele>266</ele>
        <time>2020-08-09T12:37:54Z</time>
      </trkpt>
      <trkpt lat="48.74019" lon="6.94194">
        <ele>266</ele>
        <time>2020-08-09T12:37:56Z</time>
      </trkpt>
      <trkpt lat="48.74026" lon="6.94195">
        <ele>266</ele>
        <time>2020-08-09T12:37:58Z</time>
      </trkpt>
      <trkpt lat="48.74034" lon="6.94197">
        <ele>266</ele>
        <time>2020-08-09T12:38:00Z</time>
      </trkpt>
      <trkpt lat="48.74042" lon="6.94202">
        <ele>266</ele>
        <time>2020-08-09T12:38:02Z</time>
      </trkpt>
      <trkpt lat="48.74049" lon="6.94204">
        <ele>266</ele>
        <time>2020-08-09T12:38:04Z</time>
      </trkpt>
      <trkpt lat="48.74057" lon="6.94206">
        <ele>266</ele>
        <time>2020-08-09T12:38:06Z</time>
      </trkpt>
      <trkpt lat="48.74065" lon="6.94207">
        <ele>266</ele>
        <time>2020-08-09T12:38:08Z</time>
      </trkpt>
      <trkpt lat="48.74072" lon="6.9421">
        <ele>266</ele>
        <time>2020-08-09T12:38:10Z</time>
      </trkpt>
      <trkpt lat="48.7408" lon="6.94212">
        <ele>266</ele>
        <time>2020-08-09T12:38:12Z</time>
      </trkpt>
      <trkpt lat="48.74088" lon="6.94214">
        <ele>266</ele>
        <time>2020-08-09T12:38:14Z</time>
      </trkpt>
      <trkpt lat="48.74096" lon="6.94216">
        <ele>266</ele>
        <time>2020-08-09T12:38:16Z</time>
      </trkpt>
      <trkpt lat="48.74103" lon="6.94217">
        <ele>267</ele>
        <time>2020-08-09T12:38:18Z</time>
      </trkpt>
      <trkpt lat="48.7411" lon="6.94218">
        <ele>267</ele>
        <time>2020-08-09T12:38:20Z</time>
      </trkpt>
      <trkpt lat="48.74116" lon="6.94219">
        <ele>267</ele>
        <time>2020-08-09T12:38:22Z</time>
      </trkpt>
      <trkpt lat="48.74122" lon="6.94221">
        <ele>267</ele>
        <time>2020-08-09T12:38:24Z</time>
      </trkpt>
      <trkpt lat="48.74127" lon="6.94222">
        <ele>267</ele>
        <time>2020-08-09T12:38:26Z</time>
      </trkpt>
      <trkpt lat="48.74133" lon="6.94222">
        <ele>267</ele>
        <time>2020-08-09T12:38:28Z</time>
      </trkpt>
      <trkpt lat="48.7414" lon="6.94224">
        <ele>266</ele>
        <time>2020-08-09T12:38:30Z</time>
      </trkpt>
      <trkpt lat="48.74147" lon="6.94225">
        <ele>266</ele>
        <time>2020-08-09T12:38:32Z</time>
      </trkpt>
      <trkpt lat="48.74153" lon="6.94226">
        <ele>266</ele>
        <time>2020-08-09T12:38:34Z</time>
      </trkpt>
      <trkpt lat="48.7416" lon="6.94227">
        <ele>266</ele>
        <time>2020-08-09T12:38:36Z</time>
      </trkpt>
      <trkpt lat="48.74167" lon="6.94229">
        <ele>266</ele>
        <time>2020-08-09T12:38:38Z</time>
      </trkpt>
      <trkpt lat="48.74176" lon="6.9423">
        <ele>266</ele>
        <time>2020-08-09T12:38:40Z</time>
      </trkpt>
      <trkpt lat="48.74182" lon="6.94231">
        <ele>266</ele>
        <time>2020-08-09T12:38:42Z</time>
      </trkpt>
      <trkpt lat="48.74188" lon="6.94232">
        <ele>266</ele>
        <time>2020-08-09T12:38:44Z</time>
      </trkpt>
      <trkpt lat="48.74194" lon="6.94233">
        <ele>266</ele>
        <time>2020-08-09T12:38:46Z</time>
      </trkpt>
      <trkpt lat="48.742" lon="6.94235">
        <ele>267</ele>
        <time>2020-08-09T12:38:48Z</time>
      </trkpt>
      <trkpt lat="48.74205" lon="6.94237">
        <ele>267</ele>
        <time>2020-08-09T12:38:50Z</time>
      </trkpt>
      <trkpt lat="48.74211" lon="6.94239">
        <ele>267</ele>
        <time>2020-08-09T12:38:52Z</time>
      </trkpt>
      <trkpt lat="48.74217" lon="6.94242">
        <ele>267</ele>
        <time>2020-08-09T12:38:54Z</time>
      </trkpt>
      <trkpt lat="48.74223" lon="6.94244">
        <ele>267</ele>
        <time>2020-08-09T12:38:56Z</time>
      </trkpt>
      <trkpt lat="48.74228" lon="6.94247">
        <ele>267</ele>
        <time>2020-08-09T12:38:58Z</time>
      </trkpt>
      <trkpt lat="48.74233" lon="6.94249">
        <ele>267</ele>
        <time>2020-08-09T12:39:00Z</time>
      </trkpt>
      <trkpt lat="48.74239" lon="6.94251">
        <ele>267</ele>
        <time>2020-08-09T12:39:03Z</time>
      </trkpt>
      <trkpt lat="48.74236" lon="6.94245">
        <ele>267</ele>
        <time>2020-08-09T12:39:09Z</time>
      </trkpt>
      <trkpt lat="48.74231" lon="6.94244">
        <ele>267</ele>
        <time>2020-08-09T12:39:23Z</time>
      </trkpt>
      <trkpt lat="48.74204" lon="6.94301">
        <ele>267</ele>
        <time>2020-08-09T12:43:42Z</time>
      </trkpt>
      <trkpt lat="48.74204" lon="6.94308">
        <ele>268</ele>
        <time>2020-08-09T12:43:46Z</time>
      </trkpt>
      <trkpt lat="48.74202" lon="6.94315">
        <ele>269</ele>
        <time>2020-08-09T12:43:50Z</time>
      </trkpt>
      <trkpt lat="48.74206" lon="6.94319">
        <ele>270</ele>
        <time>2020-08-09T12:44:08Z</time>
      </trkpt>
      <trkpt lat="48.74203" lon="6.94325">
        <ele>270</ele>
        <time>2020-08-09T12:45:29Z</time>
      </trkpt>
      <trkpt lat="48.7418" lon="6.94424">
        <ele>271</ele>
        <time>2020-08-09T12:53:54Z</time>
      </trkpt>
      <trkpt lat="48.74178" lon="6.94433">
        <ele>272</ele>
        <time>2020-08-09T12:53:56Z</time>
      </trkpt>
      <trkpt lat="48.74176" lon="6.94441">
        <ele>271</ele>
        <time>2020-08-09T12:53:58Z</time>
      </trkpt>
      <trkpt lat="48.74175" lon="6.94449">
        <ele>271</ele>
        <time>2020-08-09T12:54:01Z</time>
      </trkpt>
      <trkpt lat="48.74175" lon="6.94456">
        <ele>271</ele>
        <time>2020-08-09T12:54:03Z</time>
      </trkpt>
      <trkpt lat="48.74173" lon="6.94464">
        <ele>271</ele>
        <time>2020-08-09T12:54:05Z</time>
      </trkpt>
      <trkpt lat="48.74171" lon="6.94471">
        <ele>271</ele>
        <time>2020-08-09T12:54:07Z</time>
      </trkpt>
      <trkpt lat="48.74168" lon="6.94479">
        <ele>271</ele>
        <time>2020-08-09T12:54:09Z</time>
      </trkpt>
      <trkpt lat="48.74166" lon="6.94488">
        <ele>271</ele>
        <time>2020-08-09T12:54:11Z</time>
      </trkpt>
      <trkpt lat="48.74164" lon="6.94496">
        <ele>271</ele>
        <time>2020-08-09T12:54:13Z</time>
      </trkpt>
      <trkpt lat="48.74161" lon="6.94506">
        <ele>271</ele>
        <time>2020-08-09T12:54:15Z</time>
      </trkpt>
      <trkpt lat="48.7416" lon="6.94514">
        <ele>272</ele>
        <time>2020-08-09T12:54:17Z</time>
      </trkpt>
      <trkpt lat="48.74157" lon="6.94522">
        <ele>272</ele>
        <time>2020-08-09T12:54:19Z</time>
      </trkpt>
      <trkpt lat="48.74156" lon="6.9453">
        <ele>274</ele>
        <time>2020-08-09T12:54:21Z</time>
      </trkpt>
      <trkpt lat="48.74152" lon="6.94534">
        <ele>274</ele>
        <time>2020-08-09T12:54:23Z</time>
      </trkpt>
      <trkpt lat="48.74149" lon="6.94539">
        <ele>276</ele>
        <time>2020-08-09T12:54:25Z</time>
      </trkpt>
      <trkpt lat="48.74143" lon="6.94539">
        <ele>276</ele>
        <time>2020-08-09T12:54:27Z</time>
      </trkpt>
      <trkpt lat="48.74137" lon="6.94537">
        <ele>276</ele>
        <time>2020-08-09T12:54:29Z</time>
      </trkpt>
      <trkpt lat="48.74131" lon="6.94537">
        <ele>277</ele>
        <time>2020-08-09T12:54:31Z</time>
      </trkpt>
      <trkpt lat="48.74125" lon="6.94537">
        <ele>277</ele>
        <time>2020-08-09T12:54:33Z</time>
      </trkpt>
      <trkpt lat="48.74119" lon="6.94536">
        <ele>276</ele>
        <time>2020-08-09T12:54:35Z</time>
      </trkpt>
      <trkpt lat="48.74113" lon="6.94534">
        <ele>275</ele>
        <time>2020-08-09T12:54:37Z</time>
      </trkpt>
      <trkpt lat="48.74107" lon="6.94533">
        <ele>275</ele>
        <time>2020-08-09T12:54:39Z</time>
      </trkpt>
      <trkpt lat="48.741" lon="6.94532">
        <ele>274</ele>
        <time>2020-08-09T12:54:41Z</time>
      </trkpt>
      <trkpt lat="48.74095" lon="6.94531">
        <ele>274</ele>
        <time>2020-08-09T12:54:43Z</time>
      </trkpt>
      <trkpt lat="48.7409" lon="6.94534">
        <ele>275</ele>
        <time>2020-08-09T12:54:45Z</time>
      </trkpt>
      <trkpt lat="48.7409" lon="6.94543">
        <ele>277</ele>
        <time>2020-08-09T12:54:48Z</time>
      </trkpt>
      <trkpt lat="48.74091" lon="6.94552">
        <ele>278</ele>
        <time>2020-08-09T12:54:51Z</time>
      </trkpt>
      <trkpt lat="48.74097" lon="6.94559">
        <ele>279</ele>
        <time>2020-08-09T12:54:53Z</time>
      </trkpt>
      <trkpt lat="48.74103" lon="6.94565">
        <ele>279</ele>
        <time>2020-08-09T12:54:55Z</time>
      </trkpt>
      <trkpt lat="48.74107" lon="6.94571">
        <ele>279</ele>
        <time>2020-08-09T12:54:57Z</time>
      </trkpt>
      <trkpt lat="48.74114" lon="6.94578">
        <ele>280</ele>
        <time>2020-08-09T12:54:59Z</time>
      </trkpt>
      <trkpt lat="48.7412" lon="6.94586">
        <ele>280</ele>
        <time>2020-08-09T12:55:01Z</time>
      </trkpt>
      <trkpt lat="48.74129" lon="6.94596">
        <ele>279</ele>
        <time>2020-08-09T12:55:04Z</time>
      </trkpt>
      <trkpt lat="48.74133" lon="6.94603">
        <ele>279</ele>
        <time>2020-08-09T12:55:06Z</time>
      </trkpt>
      <trkpt lat="48.74138" lon="6.94609">
        <ele>278</ele>
        <time>2020-08-09T12:55:08Z</time>
      </trkpt>
      <trkpt lat="48.74144" lon="6.94614">
        <ele>278</ele>
        <time>2020-08-09T12:55:11Z</time>
      </trkpt>
      <trkpt lat="48.74149" lon="6.94619">
        <ele>279</ele>
        <time>2020-08-09T12:55:13Z</time>
      </trkpt>
      <trkpt lat="48.74152" lon="6.94624">
        <ele>279</ele>
        <time>2020-08-09T12:55:15Z</time>
      </trkpt>
      <trkpt lat="48.74156" lon="6.94631">
        <ele>280</ele>
        <time>2020-08-09T12:55:18Z</time>
      </trkpt>
      <trkpt lat="48.7416" lon="6.94634">
        <ele>280</ele>
        <time>2020-08-09T12:55:20Z</time>
      </trkpt>
      <trkpt lat="48.74164" lon="6.94638">
        <ele>280</ele>
        <time>2020-08-09T12:55:22Z</time>
      </trkpt>
      <trkpt lat="48.74168" lon="6.94642">
        <ele>280</ele>
        <time>2020-08-09T12:55:24Z</time>
      </trkpt>
      <trkpt lat="48.74173" lon="6.94648">
        <ele>280</ele>
        <time>2020-08-09T12:55:28Z</time>
      </trkpt>
      <trkpt lat="48.74177" lon="6.94652">
        <ele>280</ele>
        <time>2020-08-09T12:55:30Z</time>
      </trkpt>
      <trkpt lat="48.74178" lon="6.94659">
        <ele>280</ele>
        <time>2020-08-09T12:55:32Z</time>
      </trkpt>
      <trkpt lat="48.74184" lon="6.94664">
        <ele>280</ele>
        <time>2020-08-09T12:55:34Z</time>
      </trkpt>
      <trkpt lat="48.7419" lon="6.94671">
        <ele>280</ele>
        <time>2020-08-09T12:55:36Z</time>
      </trkpt>
      <trkpt lat="48.74197" lon="6.94679">
        <ele>280</ele>
        <time>2020-08-09T12:55:38Z</time>
      </trkpt>
      <trkpt lat="48.74203" lon="6.94686">
        <ele>280</ele>
        <time>2020-08-09T12:55:40Z</time>
      </trkpt>
      <trkpt lat="48.74206" lon="6.94694">
        <ele>280</ele>
        <time>2020-08-09T12:55:42Z</time>
      </trkpt>
      <trkpt lat="48.74213" lon="6.94702">
        <ele>280</ele>
        <time>2020-08-09T12:55:44Z</time>
      </trkpt>
      <trkpt lat="48.74222" lon="6.94709">
        <ele>279</ele>
        <time>2020-08-09T12:55:46Z</time>
      </trkpt>
      <trkpt lat="48.74228" lon="6.94719">
        <ele>279</ele>
        <time>2020-08-09T12:55:48Z</time>
      </trkpt>
      <trkpt lat="48.74233" lon="6.94726">
        <ele>279</ele>
        <time>2020-08-09T12:55:50Z</time>
      </trkpt>
      <trkpt lat="48.74239" lon="6.94732">
        <ele>279</ele>
        <time>2020-08-09T12:55:52Z</time>
      </trkpt>
      <trkpt lat="48.74244" lon="6.94739">
        <ele>279</ele>
        <time>2020-08-09T12:55:54Z</time>
      </trkpt>
      <trkpt lat="48.7425" lon="6.94744">
        <ele>279</ele>
        <time>2020-08-09T12:55:56Z</time>
      </trkpt>
      <trkpt lat="48.74255" lon="6.94751">
        <ele>279</ele>
        <time>2020-08-09T12:55:58Z</time>
      </trkpt>
      <trkpt lat="48.74262" lon="6.94759">
        <ele>278</ele>
        <time>2020-08-09T12:56:00Z</time>
      </trkpt>
      <trkpt lat="48.74266" lon="6.94763">
        <ele>278</ele>
        <time>2020-08-09T12:56:02Z</time>
      </trkpt>
      <trkpt lat="48.74275" lon="6.94768">
        <ele>279</ele>
        <time>2020-08-09T12:56:04Z</time>
      </trkpt>
      <trkpt lat="48.74279" lon="6.94773">
        <ele>281</ele>
        <time>2020-08-09T12:56:05Z</time>
      </trkpt>
      <trkpt lat="48.74285" lon="6.94777">
        <ele>282</ele>
        <time>2020-08-09T12:56:07Z</time>
      </trkpt>
      <trkpt lat="48.7429" lon="6.9478">
        <ele>283</ele>
        <time>2020-08-09T12:56:09Z</time>
      </trkpt>
      <trkpt lat="48.74298" lon="6.94782">
        <ele>284</ele>
        <time>2020-08-09T12:56:11Z</time>
      </trkpt>
      <trkpt lat="48.74305" lon="6.94783">
        <ele>284</ele>
        <time>2020-08-09T12:56:13Z</time>
      </trkpt>
      <trkpt lat="48.74312" lon="6.94788">
        <ele>285</ele>
        <time>2020-08-09T12:56:16Z</time>
      </trkpt>
      <trkpt lat="48.74318" lon="6.94792">
        <ele>285</ele>
        <time>2020-08-09T12:56:18Z</time>
      </trkpt>
      <trkpt lat="48.74323" lon="6.94796">
        <ele>285</ele>
        <time>2020-08-09T12:56:20Z</time>
      </trkpt>
      <trkpt lat="48.74331" lon="6.94799">
        <ele>285</ele>
        <time>2020-08-09T12:56:23Z</time>
      </trkpt>
      <trkpt lat="48.74336" lon="6.94806">
        <ele>285</ele>
        <time>2020-08-09T12:56:25Z</time>
      </trkpt>
      <trkpt lat="48.74342" lon="6.9481">
        <ele>285</ele>
        <time>2020-08-09T12:56:27Z</time>
      </trkpt>
      <trkpt lat="48.74348" lon="6.94813">
        <ele>284</ele>
        <time>2020-08-09T12:56:29Z</time>
      </trkpt>
      <trkpt lat="48.74353" lon="6.94816">
        <ele>284</ele>
        <time>2020-08-09T12:56:30Z</time>
      </trkpt>
      <trkpt lat="48.74361" lon="6.9482">
        <ele>283</ele>
        <time>2020-08-09T12:56:32Z</time>
      </trkpt>
      <trkpt lat="48.74369" lon="6.94823">
        <ele>283</ele>
        <time>2020-08-09T12:56:34Z</time>
      </trkpt>
      <trkpt lat="48.74376" lon="6.94828">
        <ele>282</ele>
        <time>2020-08-09T12:56:36Z</time>
      </trkpt>
      <trkpt lat="48.74381" lon="6.94831">
        <ele>281</ele>
        <time>2020-08-09T12:56:38Z</time>
      </trkpt>
      <trkpt lat="48.74389" lon="6.94835">
        <ele>281</ele>
        <time>2020-08-09T12:56:41Z</time>
      </trkpt>
      <trkpt lat="48.74397" lon="6.94836">
        <ele>282</ele>
        <time>2020-08-09T12:56:43Z</time>
      </trkpt>
      <trkpt lat="48.74402" lon="6.94839">
        <ele>282</ele>
        <time>2020-08-09T12:56:45Z</time>
      </trkpt>
      <trkpt lat="48.74407" lon="6.94843">
        <ele>282</ele>
        <time>2020-08-09T12:56:47Z</time>
      </trkpt>
      <trkpt lat="48.74413" lon="6.94849">
        <ele>282</ele>
        <time>2020-08-09T12:56:49Z</time>
      </trkpt>
      <trkpt lat="48.74419" lon="6.94854">
        <ele>281</ele>
        <time>2020-08-09T12:56:51Z</time>
      </trkpt>
      <trkpt lat="48.74423" lon="6.94859">
        <ele>281</ele>
        <time>2020-08-09T12:56:52Z</time>
      </trkpt>
      <trkpt lat="48.74426" lon="6.94863">
        <ele>281</ele>
        <time>2020-08-09T12:56:53Z</time>
      </trkpt>
      <trkpt lat="48.74432" lon="6.94864">
        <ele>281</ele>
        <time>2020-08-09T12:56:55Z</time>
      </trkpt>
      <trkpt lat="48.74436" lon="6.94867">
        <ele>281</ele>
        <time>2020-08-09T12:56:57Z</time>
      </trkpt>
      <trkpt lat="48.74442" lon="6.9487">
        <ele>281</ele>
        <time>2020-08-09T12:56:59Z</time>
      </trkpt>
      <trkpt lat="48.74446" lon="6.94873">
        <ele>280</ele>
        <time>2020-08-09T12:57:01Z</time>
      </trkpt>
      <trkpt lat="48.7445" lon="6.94879">
        <ele>280</ele>
        <time>2020-08-09T12:57:03Z</time>
      </trkpt>
      <trkpt lat="48.7446" lon="6.94885">
        <ele>279</ele>
        <time>2020-08-09T12:57:05Z</time>
      </trkpt>
      <trkpt lat="48.74467" lon="6.94891">
        <ele>278</ele>
        <time>2020-08-09T12:57:07Z</time>
      </trkpt>
      <trkpt lat="48.74471" lon="6.94898">
        <ele>276</ele>
        <time>2020-08-09T12:57:09Z</time>
      </trkpt>
      <trkpt lat="48.74478" lon="6.94902">
        <ele>275</ele>
        <time>2020-08-09T12:57:11Z</time>
      </trkpt>
      <trkpt lat="48.74483" lon="6.94908">
        <ele>273</ele>
        <time>2020-08-09T12:57:13Z</time>
      </trkpt>
      <trkpt lat="48.74489" lon="6.94913">
        <ele>272</ele>
        <time>2020-08-09T12:57:15Z</time>
      </trkpt>
      <trkpt lat="48.74495" lon="6.94918">
        <ele>272</ele>
        <time>2020-08-09T12:57:17Z</time>
      </trkpt>
      <trkpt lat="48.745" lon="6.94922">
        <ele>273</ele>
        <time>2020-08-09T12:57:19Z</time>
      </trkpt>
      <trkpt lat="48.74506" lon="6.94927">
        <ele>274</ele>
        <time>2020-08-09T12:57:21Z</time>
      </trkpt>
      <trkpt lat="48.74512" lon="6.94932">
        <ele>274</ele>
        <time>2020-08-09T12:57:23Z</time>
      </trkpt>
      <trkpt lat="48.74516" lon="6.94938">
        <ele>274</ele>
        <time>2020-08-09T12:57:25Z</time>
      </trkpt>
      <trkpt lat="48.74522" lon="6.94942">
        <ele>275</ele>
        <time>2020-08-09T12:57:27Z</time>
      </trkpt>
      <trkpt lat="48.74526" lon="6.94946">
        <ele>275</ele>
        <time>2020-08-09T12:57:29Z</time>
      </trkpt>
      <trkpt lat="48.74532" lon="6.94952">
        <ele>275</ele>
        <time>2020-08-09T12:57:32Z</time>
      </trkpt>
      <trkpt lat="48.74537" lon="6.94953">
        <ele>275</ele>
        <time>2020-08-09T12:57:34Z</time>
      </trkpt>
      <trkpt lat="48.74544" lon="6.94957">
        <ele>276</ele>
        <time>2020-08-09T12:57:37Z</time>
      </trkpt>
      <trkpt lat="48.74549" lon="6.9496">
        <ele>275</ele>
        <time>2020-08-09T12:57:39Z</time>
      </trkpt>
      <trkpt lat="48.74553" lon="6.94965">
        <ele>274</ele>
        <time>2020-08-09T12:57:41Z</time>
      </trkpt>
      <trkpt lat="48.74559" lon="6.94967">
        <ele>274</ele>
        <time>2020-08-09T12:57:43Z</time>
      </trkpt>
      <trkpt lat="48.74565" lon="6.9497">
        <ele>274</ele>
        <time>2020-08-09T12:57:45Z</time>
      </trkpt>
      <trkpt lat="48.7457" lon="6.94972">
        <ele>274</ele>
        <time>2020-08-09T12:57:47Z</time>
      </trkpt>
      <trkpt lat="48.74577" lon="6.94974">
        <ele>274</ele>
        <time>2020-08-09T12:57:49Z</time>
      </trkpt>
      <trkpt lat="48.74583" lon="6.94977">
        <ele>274</ele>
        <time>2020-08-09T12:57:52Z</time>
      </trkpt>
      <trkpt lat="48.74589" lon="6.94979">
        <ele>274</ele>
        <time>2020-08-09T12:57:54Z</time>
      </trkpt>
      <trkpt lat="48.74595" lon="6.9498">
        <ele>274</ele>
        <time>2020-08-09T12:57:56Z</time>
      </trkpt>
      <trkpt lat="48.746" lon="6.94984">
        <ele>273</ele>
        <time>2020-08-09T12:57:59Z</time>
      </trkpt>
      <trkpt lat="48.74606" lon="6.94984">
        <ele>273</ele>
        <time>2020-08-09T12:58:01Z</time>
      </trkpt>
      <trkpt lat="48.74613" lon="6.94984">
        <ele>273</ele>
        <time>2020-08-09T12:58:03Z</time>
      </trkpt>
      <trkpt lat="48.74619" lon="6.94985">
        <ele>273</ele>
        <time>2020-08-09T12:58:05Z</time>
      </trkpt>
      <trkpt lat="48.74624" lon="6.94984">
        <ele>273</ele>
        <time>2020-08-09T12:58:07Z</time>
      </trkpt>
      <trkpt lat="48.7463" lon="6.94986">
        <ele>272</ele>
        <time>2020-08-09T12:58:10Z</time>
      </trkpt>
      <trkpt lat="48.74636" lon="6.94985">
        <ele>272</ele>
        <time>2020-08-09T12:58:12Z</time>
      </trkpt>
      <trkpt lat="48.74641" lon="6.94985">
        <ele>271</ele>
        <time>2020-08-09T12:58:14Z</time>
      </trkpt>
      <trkpt lat="48.74648" lon="6.94982">
        <ele>272</ele>
        <time>2020-08-09T12:58:16Z</time>
      </trkpt>
      <trkpt lat="48.74655" lon="6.94981">
        <ele>272</ele>
        <time>2020-08-09T12:58:18Z</time>
      </trkpt>
      <trkpt lat="48.74662" lon="6.94977">
        <ele>273</ele>
        <time>2020-08-09T12:58:20Z</time>
      </trkpt>
      <trkpt lat="48.74669" lon="6.94975">
        <ele>273</ele>
        <time>2020-08-09T12:58:22Z</time>
      </trkpt>
      <trkpt lat="48.74674" lon="6.94972">
        <ele>274</ele>
        <time>2020-08-09T12:58:24Z</time>
      </trkpt>
      <trkpt lat="48.74679" lon="6.94971">
        <ele>274</ele>
        <time>2020-08-09T12:58:26Z</time>
      </trkpt>
      <trkpt lat="48.74685" lon="6.94971">
        <ele>273</ele>
        <time>2020-08-09T12:58:29Z</time>
      </trkpt>
      <trkpt lat="48.7469" lon="6.94967">
        <ele>273</ele>
        <time>2020-08-09T12:58:31Z</time>
      </trkpt>
      <trkpt lat="48.74695" lon="6.94963">
        <ele>273</ele>
        <time>2020-08-09T12:58:33Z</time>
      </trkpt>
      <trkpt lat="48.74701" lon="6.94959">
        <ele>273</ele>
        <time>2020-08-09T12:58:35Z</time>
      </trkpt>
      <trkpt lat="48.74705" lon="6.94953">
        <ele>275</ele>
        <time>2020-08-09T12:58:37Z</time>
      </trkpt>
      <trkpt lat="48.74711" lon="6.94951">
        <ele>274</ele>
        <time>2020-08-09T12:58:39Z</time>
      </trkpt>
      <trkpt lat="48.74716" lon="6.94949">
        <ele>274</ele>
        <time>2020-08-09T12:58:41Z</time>
      </trkpt>
      <trkpt lat="48.74721" lon="6.94947">
        <ele>273</ele>
        <time>2020-08-09T12:58:43Z</time>
      </trkpt>
      <trkpt lat="48.74728" lon="6.94943">
        <ele>274</ele>
        <time>2020-08-09T12:58:45Z</time>
      </trkpt>
      <trkpt lat="48.74733" lon="6.94942">
        <ele>273</ele>
        <time>2020-08-09T12:58:47Z</time>
      </trkpt>
      <trkpt lat="48.7474" lon="6.94941">
        <ele>273</ele>
        <time>2020-08-09T12:58:50Z</time>
      </trkpt>
      <trkpt lat="48.74745" lon="6.9494">
        <ele>272</ele>
        <time>2020-08-09T12:58:52Z</time>
      </trkpt>
      <trkpt lat="48.74751" lon="6.94939">
        <ele>272</ele>
        <time>2020-08-09T12:58:54Z</time>
      </trkpt>
      <trkpt lat="48.74759" lon="6.9494">
        <ele>271</ele>
        <time>2020-08-09T12:58:56Z</time>
      </trkpt>
      <trkpt lat="48.74765" lon="6.94941">
        <ele>271</ele>
        <time>2020-08-09T12:58:58Z</time>
      </trkpt>
      <trkpt lat="48.74772" lon="6.94944">
        <ele>270</ele>
        <time>2020-08-09T12:59:00Z</time>
      </trkpt>
      <trkpt lat="48.74778" lon="6.94946">
        <ele>270</ele>
        <time>2020-08-09T12:59:02Z</time>
      </trkpt>
      <trkpt lat="48.74784" lon="6.9495">
        <ele>270</ele>
        <time>2020-08-09T12:59:04Z</time>
      </trkpt>
      <trkpt lat="48.7479" lon="6.94955">
        <ele>271</ele>
        <time>2020-08-09T12:59:06Z</time>
      </trkpt>
      <trkpt lat="48.74796" lon="6.94962">
        <ele>271</ele>
        <time>2020-08-09T12:59:08Z</time>
      </trkpt>
      <trkpt lat="48.74802" lon="6.94968">
        <ele>270</ele>
        <time>2020-08-09T12:59:10Z</time>
      </trkpt>
      <trkpt lat="48.74809" lon="6.94973">
        <ele>270</ele>
        <time>2020-08-09T12:59:12Z</time>
      </trkpt>
      <trkpt lat="48.74814" lon="6.94976">
        <ele>270</ele>
        <time>2020-08-09T12:59:13Z</time>
      </trkpt>
      <trkpt lat="48.74822" lon="6.94984">
        <ele>269</ele>
        <time>2020-08-09T12:59:15Z</time>
      </trkpt>
      <trkpt lat="48.74825" lon="6.94991">
        <ele>268</ele>
        <time>2020-08-09T12:59:16Z</time>
      </trkpt>
      <trkpt lat="48.7483" lon="6.94993">
        <ele>268</ele>
        <time>2020-08-09T12:59:17Z</time>
      </trkpt>
      <trkpt lat="48.74838" lon="6.94999">
        <ele>268</ele>
        <time>2020-08-09T12:59:19Z</time>
      </trkpt>
      <trkpt lat="48.74843" lon="6.95003">
        <ele>267</ele>
        <time>2020-08-09T12:59:20Z</time>
      </trkpt>
      <trkpt lat="48.74848" lon="6.95005">
        <ele>267</ele>
        <time>2020-08-09T12:59:21Z</time>
      </trkpt>
      <trkpt lat="48.74854" lon="6.95007">
        <ele>266</ele>
        <time>2020-08-09T12:59:22Z</time>
      </trkpt>
      <trkpt lat="48.74859" lon="6.9501">
        <ele>266</ele>
        <time>2020-08-09T12:59:23Z</time>
      </trkpt>
      <trkpt lat="48.74863" lon="6.95012">
        <ele>266</ele>
        <time>2020-08-09T12:59:24Z</time>
      </trkpt>
      <trkpt lat="48.74868" lon="6.95015">
        <ele>265</ele>
        <time>2020-08-09T12:59:25Z</time>
      </trkpt>
      <trkpt lat="48.74876" lon="6.95022">
        <ele>263</ele>
        <time>2020-08-09T12:59:27Z</time>
      </trkpt>
      <trkpt lat="48.74877" lon="6.95035">
        <ele>261</ele>
        <time>2020-08-09T12:59:29Z</time>
      </trkpt>
      <trkpt lat="48.74877" lon="6.95043">
        <ele>261</ele>
        <time>2020-08-09T12:59:30Z</time>
      </trkpt>
      <trkpt lat="48.74876" lon="6.95052">
        <ele>261</ele>
        <time>2020-08-09T12:59:31Z</time>
      </trkpt>
      <trkpt lat="48.74873" lon="6.95062">
        <ele>261</ele>
        <time>2020-08-09T12:59:32Z</time>
      </trkpt>
      <trkpt lat="48.74871" lon="6.95071">
        <ele>260</ele>
        <time>2020-08-09T12:59:33Z</time>
      </trkpt>
      <trkpt lat="48.74868" lon="6.95081">
        <ele>260</ele>
        <time>2020-08-09T12:59:34Z</time>
      </trkpt>
      <trkpt lat="48.74865" lon="6.95091">
        <ele>260</ele>
        <time>2020-08-09T12:59:35Z</time>
      </trkpt>
      <trkpt lat="48.74862" lon="6.95101">
        <ele>260</ele>
        <time>2020-08-09T12:59:36Z</time>
      </trkpt>
      <trkpt lat="48.7486" lon="6.95111">
        <ele>260</ele>
        <time>2020-08-09T12:59:37Z</time>
      </trkpt>
      <trkpt lat="48.74859" lon="6.9512">
        <ele>260</ele>
        <time>2020-08-09T12:59:38Z</time>
      </trkpt>
      <trkpt lat="48.7486" lon="6.95129">
        <ele>260</ele>
        <time>2020-08-09T12:59:39Z</time>
      </trkpt>
      <trkpt lat="48.74862" lon="6.95139">
        <ele>260</ele>
        <time>2020-08-09T12:59:40Z</time>
      </trkpt>
      <trkpt lat="48.74865" lon="6.95146">
        <ele>261</ele>
        <time>2020-08-09T12:59:41Z</time>
      </trkpt>
      <trkpt lat="48.74868" lon="6.95152">
        <ele>261</ele>
        <time>2020-08-09T12:59:42Z</time>
      </trkpt>
      <trkpt lat="48.74871" lon="6.95157">
        <ele>261</ele>
        <time>2020-08-09T12:59:43Z</time>
      </trkpt>
      <trkpt lat="48.74879" lon="6.95167">
        <ele>261</ele>
        <time>2020-08-09T12:59:45Z</time>
      </trkpt>
      <trkpt lat="48.74884" lon="6.9517">
        <ele>261</ele>
        <time>2020-08-09T12:59:46Z</time>
      </trkpt>
      <trkpt lat="48.74888" lon="6.95174">
        <ele>261</ele>
        <time>2020-08-09T12:59:47Z</time>
      </trkpt>
      <trkpt lat="48.74894" lon="6.95178">
        <ele>261</ele>
        <time>2020-08-09T12:59:48Z</time>
      </trkpt>
      <trkpt lat="48.74898" lon="6.95181">
        <ele>261</ele>
        <time>2020-08-09T12:59:49Z</time>
      </trkpt>
      <trkpt lat="48.74906" lon="6.95189">
        <ele>260</ele>
        <time>2020-08-09T12:59:51Z</time>
      </trkpt>
      <trkpt lat="48.7491" lon="6.95195">
        <ele>260</ele>
        <time>2020-08-09T12:59:52Z</time>
      </trkpt>
      <trkpt lat="48.74913" lon="6.952">
        <ele>260</ele>
        <time>2020-08-09T12:59:53Z</time>
      </trkpt>
      <trkpt lat="48.7492" lon="6.95208">
        <ele>260</ele>
        <time>2020-08-09T12:59:55Z</time>
      </trkpt>
      <trkpt lat="48.74928" lon="6.95215">
        <ele>260</ele>
        <time>2020-08-09T12:59:57Z</time>
      </trkpt>
      <trkpt lat="48.74935" lon="6.95221">
        <ele>261</ele>
        <time>2020-08-09T12:59:59Z</time>
      </trkpt>
      <trkpt lat="48.74942" lon="6.95227">
        <ele>262</ele>
        <time>2020-08-09T13:00:01Z</time>
      </trkpt>
      <trkpt lat="48.74948" lon="6.95232">
        <ele>262</ele>
        <time>2020-08-09T13:00:03Z</time>
      </trkpt>
      <trkpt lat="48.74952" lon="6.95237">
        <ele>263</ele>
        <time>2020-08-09T13:00:05Z</time>
      </trkpt>
      <trkpt lat="48.74957" lon="6.95243">
        <ele>263</ele>
        <time>2020-08-09T13:00:07Z</time>
      </trkpt>
      <trkpt lat="48.74963" lon="6.9525">
        <ele>263</ele>
        <time>2020-08-09T13:00:09Z</time>
      </trkpt>
      <trkpt lat="48.74968" lon="6.95257">
        <ele>262</ele>
        <time>2020-08-09T13:00:11Z</time>
      </trkpt>
      <trkpt lat="48.74974" lon="6.95264">
        <ele>262</ele>
        <time>2020-08-09T13:00:13Z</time>
      </trkpt>
      <trkpt lat="48.74981" lon="6.95271">
        <ele>262</ele>
        <time>2020-08-09T13:00:15Z</time>
      </trkpt>
      <trkpt lat="48.74988" lon="6.95279">
        <ele>262</ele>
        <time>2020-08-09T13:00:17Z</time>
      </trkpt>
      <trkpt lat="48.74994" lon="6.95286">
        <ele>262</ele>
        <time>2020-08-09T13:00:19Z</time>
      </trkpt>
      <trkpt lat="48.74999" lon="6.95294">
        <ele>261</ele>
        <time>2020-08-09T13:00:21Z</time>
      </trkpt>
      <trkpt lat="48.75005" lon="6.95301">
        <ele>261</ele>
        <time>2020-08-09T13:00:23Z</time>
      </trkpt>
      <trkpt lat="48.75008" lon="6.9531">
        <ele>261</ele>
        <time>2020-08-09T13:00:25Z</time>
      </trkpt>
      <trkpt lat="48.75011" lon="6.95319">
        <ele>261</ele>
        <time>2020-08-09T13:00:27Z</time>
      </trkpt>
      <trkpt lat="48.75014" lon="6.95329">
        <ele>260</ele>
        <time>2020-08-09T13:00:29Z</time>
      </trkpt>
      <trkpt lat="48.75016" lon="6.95339">
        <ele>260</ele>
        <time>2020-08-09T13:00:31Z</time>
      </trkpt>
      <trkpt lat="48.75017" lon="6.95349">
        <ele>261</ele>
        <time>2020-08-09T13:00:33Z</time>
      </trkpt>
      <trkpt lat="48.75017" lon="6.95359">
        <ele>261</ele>
        <time>2020-08-09T13:00:35Z</time>
      </trkpt>
      <trkpt lat="48.75018" lon="6.95368">
        <ele>262</ele>
        <time>2020-08-09T13:00:37Z</time>
      </trkpt>
      <trkpt lat="48.75022" lon="6.95376">
        <ele>262</ele>
        <time>2020-08-09T13:00:39Z</time>
      </trkpt>
      <trkpt lat="48.75024" lon="6.95383">
        <ele>262</ele>
        <time>2020-08-09T13:00:41Z</time>
      </trkpt>
      <trkpt lat="48.75029" lon="6.95392">
        <ele>261</ele>
        <time>2020-08-09T13:00:43Z</time>
      </trkpt>
      <trkpt lat="48.75036" lon="6.95397">
        <ele>260</ele>
        <time>2020-08-09T13:00:45Z</time>
      </trkpt>
      <trkpt lat="48.75044" lon="6.95397">
        <ele>260</ele>
        <time>2020-08-09T13:00:47Z</time>
      </trkpt>
      <trkpt lat="48.75051" lon="6.95395">
        <ele>259</ele>
        <time>2020-08-09T13:00:49Z</time>
      </trkpt>
      <trkpt lat="48.75057" lon="6.95396">
        <ele>259</ele>
        <time>2020-08-09T13:00:51Z</time>
      </trkpt>
      <trkpt lat="48.75062" lon="6.95395">
        <ele>259</ele>
        <time>2020-08-09T13:00:53Z</time>
      </trkpt>
      <trkpt lat="48.75068" lon="6.95394">
        <ele>259</ele>
        <time>2020-08-09T13:00:55Z</time>
      </trkpt>
      <trkpt lat="48.75075" lon="6.95393">
        <ele>259</ele>
        <time>2020-08-09T13:00:57Z</time>
      </trkpt>
      <trkpt lat="48.75081" lon="6.95395">
        <ele>259</ele>
        <time>2020-08-09T13:00:59Z</time>
      </trkpt>
      <trkpt lat="48.75088" lon="6.95393">
        <ele>259</ele>
        <time>2020-08-09T13:01:01Z</time>
      </trkpt>
      <trkpt lat="48.75095" lon="6.95392">
        <ele>259</ele>
        <time>2020-08-09T13:01:03Z</time>
      </trkpt>
      <trkpt lat="48.75102" lon="6.95391">
        <ele>259</ele>
        <time>2020-08-09T13:01:05Z</time>
      </trkpt>
      <trkpt lat="48.7511" lon="6.9539">
        <ele>259</ele>
        <time>2020-08-09T13:01:07Z</time>
      </trkpt>
      <trkpt lat="48.75118" lon="6.9539">
        <ele>259</ele>
        <time>2020-08-09T13:01:09Z</time>
      </trkpt>
      <trkpt lat="48.75126" lon="6.95388">
        <ele>259</ele>
        <time>2020-08-09T13:01:11Z</time>
      </trkpt>
      <trkpt lat="48.75133" lon="6.95385">
        <ele>259</ele>
        <time>2020-08-09T13:01:13Z</time>
      </trkpt>
      <trkpt lat="48.75141" lon="6.95384">
        <ele>259</ele>
        <time>2020-08-09T13:01:15Z</time>
      </trkpt>
      <trkpt lat="48.75148" lon="6.95383">
        <ele>259</ele>
        <time>2020-08-09T13:01:17Z</time>
      </trkpt>
      <trkpt lat="48.75156" lon="6.95381">
        <ele>259</ele>
        <time>2020-08-09T13:01:19Z</time>
      </trkpt>
      <trkpt lat="48.75163" lon="6.95379">
        <ele>259</ele>
        <time>2020-08-09T13:01:21Z</time>
      </trkpt>
      <trkpt lat="48.7517" lon="6.9538">
        <ele>259</ele>
        <time>2020-08-09T13:01:23Z</time>
      </trkpt>
      <trkpt lat="48.75177" lon="6.95378">
        <ele>259</ele>
        <time>2020-08-09T13:01:25Z</time>
      </trkpt>
      <trkpt lat="48.75184" lon="6.95377">
        <ele>259</ele>
        <time>2020-08-09T13:01:27Z</time>
      </trkpt>
      <trkpt lat="48.75191" lon="6.95378">
        <ele>258</ele>
        <time>2020-08-09T13:01:29Z</time>
      </trkpt>
      <trkpt lat="48.75198" lon="6.95377">
        <ele>258</ele>
        <time>2020-08-09T13:01:31Z</time>
      </trkpt>
      <trkpt lat="48.75207" lon="6.95376">
        <ele>258</ele>
        <time>2020-08-09T13:01:33Z</time>
      </trkpt>
      <trkpt lat="48.75214" lon="6.95372">
        <ele>258</ele>
        <time>2020-08-09T13:01:35Z</time>
      </trkpt>
      <trkpt lat="48.75219" lon="6.95371">
        <ele>258</ele>
        <time>2020-08-09T13:01:37Z</time>
      </trkpt>
      <trkpt lat="48.75226" lon="6.9537">
        <ele>258</ele>
        <time>2020-08-09T13:01:39Z</time>
      </trkpt>
      <trkpt lat="48.75234" lon="6.95369">
        <ele>258</ele>
        <time>2020-08-09T13:01:41Z</time>
      </trkpt>
      <trkpt lat="48.75242" lon="6.95366">
        <ele>259</ele>
        <time>2020-08-09T13:01:43Z</time>
      </trkpt>
      <trkpt lat="48.75249" lon="6.95364">
        <ele>259</ele>
        <time>2020-08-09T13:01:45Z</time>
      </trkpt>
      <trkpt lat="48.75256" lon="6.95362">
        <ele>259</ele>
        <time>2020-08-09T13:01:47Z</time>
      </trkpt>
      <trkpt lat="48.75264" lon="6.95361">
        <ele>259</ele>
        <time>2020-08-09T13:01:49Z</time>
      </trkpt>
      <trkpt lat="48.75271" lon="6.95362">
        <ele>259</ele>
        <time>2020-08-09T13:01:51Z</time>
      </trkpt>
      <trkpt lat="48.75277" lon="6.9536">
        <ele>260</ele>
        <time>2020-08-09T13:01:53Z</time>
      </trkpt>
      <trkpt lat="48.75284" lon="6.95358">
        <ele>260</ele>
        <time>2020-08-09T13:01:55Z</time>
      </trkpt>
      <trkpt lat="48.75291" lon="6.95356">
        <ele>260</ele>
        <time>2020-08-09T13:01:57Z</time>
      </trkpt>
      <trkpt lat="48.75298" lon="6.95356">
        <ele>261</ele>
        <time>2020-08-09T13:01:59Z</time>
      </trkpt>
      <trkpt lat="48.75304" lon="6.95353">
        <ele>261</ele>
        <time>2020-08-09T13:02:01Z</time>
      </trkpt>
      <trkpt lat="48.75309" lon="6.95351">
        <ele>261</ele>
        <time>2020-08-09T13:02:03Z</time>
      </trkpt>
      <trkpt lat="48.75315" lon="6.95349">
        <ele>262</ele>
        <time>2020-08-09T13:02:05Z</time>
      </trkpt>
      <trkpt lat="48.7532" lon="6.95347">
        <ele>261</ele>
        <time>2020-08-09T13:02:07Z</time>
      </trkpt>
      <trkpt lat="48.7533" lon="6.95343">
        <ele>261</ele>
        <time>2020-08-09T13:02:11Z</time>
      </trkpt>
      <trkpt lat="48.75336" lon="6.95345">
        <ele>261</ele>
        <time>2020-08-09T13:02:14Z</time>
      </trkpt>
      <trkpt lat="48.75341" lon="6.95349">
        <ele>260</ele>
        <time>2020-08-09T13:02:17Z</time>
      </trkpt>
      <trkpt lat="48.75345" lon="6.95354">
        <ele>260</ele>
        <time>2020-08-09T13:02:19Z</time>
      </trkpt>
      <trkpt lat="48.75349" lon="6.95359">
        <ele>260</ele>
        <time>2020-08-09T13:02:21Z</time>
      </trkpt>
      <trkpt lat="48.75352" lon="6.95365">
        <ele>260</ele>
        <time>2020-08-09T13:02:23Z</time>
      </trkpt>
      <trkpt lat="48.75356" lon="6.95372">
        <ele>261</ele>
        <time>2020-08-09T13:02:26Z</time>
      </trkpt>
      <trkpt lat="48.7536" lon="6.95377">
        <ele>261</ele>
        <time>2020-08-09T13:02:28Z</time>
      </trkpt>
      <trkpt lat="48.75363" lon="6.95384">
        <ele>261</ele>
        <time>2020-08-09T13:02:30Z</time>
      </trkpt>
      <trkpt lat="48.75366" lon="6.95389">
        <ele>261</ele>
        <time>2020-08-09T13:02:32Z</time>
      </trkpt>
      <trkpt lat="48.75372" lon="6.95396">
        <ele>261</ele>
        <time>2020-08-09T13:02:35Z</time>
      </trkpt>
      <trkpt lat="48.75376" lon="6.954">
        <ele>260</ele>
        <time>2020-08-09T13:02:37Z</time>
      </trkpt>
      <trkpt lat="48.75378" lon="6.95406">
        <ele>260</ele>
        <time>2020-08-09T13:02:39Z</time>
      </trkpt>
      <trkpt lat="48.75383" lon="6.95411">
        <ele>261</ele>
        <time>2020-08-09T13:02:41Z</time>
      </trkpt>
      <trkpt lat="48.75387" lon="6.95416">
        <ele>261</ele>
        <time>2020-08-09T13:02:43Z</time>
      </trkpt>
      <trkpt lat="48.75391" lon="6.9542">
        <ele>262</ele>
        <time>2020-08-09T13:02:45Z</time>
      </trkpt>
      <trkpt lat="48.75397" lon="6.95424">
        <ele>263</ele>
        <time>2020-08-09T13:02:47Z</time>
      </trkpt>
      <trkpt lat="48.75401" lon="6.95427">
        <ele>263</ele>
        <time>2020-08-09T13:02:49Z</time>
      </trkpt>
      <trkpt lat="48.75406" lon="6.95432">
        <ele>263</ele>
        <time>2020-08-09T13:02:51Z</time>
      </trkpt>
      <trkpt lat="48.7541" lon="6.95437">
        <ele>264</ele>
        <time>2020-08-09T13:02:53Z</time>
      </trkpt>
      <trkpt lat="48.75414" lon="6.95443">
        <ele>265</ele>
        <time>2020-08-09T13:02:57Z</time>
      </trkpt>
      <trkpt lat="48.7542" lon="6.95448">
        <ele>265</ele>
        <time>2020-08-09T13:03:00Z</time>
      </trkpt>
      <trkpt lat="48.75425" lon="6.95451">
        <ele>265</ele>
        <time>2020-08-09T13:03:03Z</time>
      </trkpt>
      <trkpt lat="48.75429" lon="6.95455">
        <ele>265</ele>
        <time>2020-08-09T13:03:05Z</time>
      </trkpt>
      <trkpt lat="48.75435" lon="6.95461">
        <ele>265</ele>
        <time>2020-08-09T13:03:08Z</time>
      </trkpt>
      <trkpt lat="48.7544" lon="6.95465">
        <ele>265</ele>
        <time>2020-08-09T13:03:11Z</time>
      </trkpt>
      <trkpt lat="48.75444" lon="6.95471">
        <ele>265</ele>
        <time>2020-08-09T13:03:14Z</time>
      </trkpt>
      <trkpt lat="48.75449" lon="6.95476">
        <ele>265</ele>
        <time>2020-08-09T13:03:16Z</time>
      </trkpt>
      <trkpt lat="48.75456" lon="6.95483">
        <ele>265</ele>
        <time>2020-08-09T13:03:19Z</time>
      </trkpt>
      <trkpt lat="48.7546" lon="6.95486">
        <ele>265</ele>
        <time>2020-08-09T13:03:21Z</time>
      </trkpt>
      <trkpt lat="48.75464" lon="6.9549">
        <ele>266</ele>
        <time>2020-08-09T13:03:24Z</time>
      </trkpt>
      <trkpt lat="48.75468" lon="6.95494">
        <ele>266</ele>
        <time>2020-08-09T13:03:26Z</time>
      </trkpt>
      <trkpt lat="48.75473" lon="6.95501">
        <ele>267</ele>
        <time>2020-08-09T13:03:29Z</time>
      </trkpt>
      <trkpt lat="48.75477" lon="6.95507">
        <ele>267</ele>
        <time>2020-08-09T13:03:31Z</time>
      </trkpt>
      <trkpt lat="48.7548" lon="6.95513">
        <ele>268</ele>
        <time>2020-08-09T13:03:33Z</time>
      </trkpt>
      <trkpt lat="48.75483" lon="6.95518">
        <ele>268</ele>
        <time>2020-08-09T13:03:45Z</time>
      </trkpt>
      <trkpt lat="48.75479" lon="6.95521">
        <ele>268</ele>
        <time>2020-08-09T13:04:30Z</time>
      </trkpt>
      <trkpt lat="48.75479" lon="6.95508">
        <ele>267</ele>
        <time>2020-08-09T13:04:57Z</time>
      </trkpt>
      <trkpt lat="48.75475" lon="6.95503">
        <ele>267</ele>
        <time>2020-08-09T13:04:59Z</time>
      </trkpt>
      <trkpt lat="48.75472" lon="6.95498">
        <ele>266</ele>
        <time>2020-08-09T13:05:01Z</time>
      </trkpt>
      <trkpt lat="48.75468" lon="6.95491">
        <ele>266</ele>
        <time>2020-08-09T13:05:03Z</time>
      </trkpt>
      <trkpt lat="48.75466" lon="6.95484">
        <ele>266</ele>
        <time>2020-08-09T13:05:05Z</time>
      </trkpt>
      <trkpt lat="48.75468" lon="6.95474">
        <ele>267</ele>
        <time>2020-08-09T13:05:08Z</time>
      </trkpt>
      <trkpt lat="48.75471" lon="6.95468">
        <ele>268</ele>
        <time>2020-08-09T13:05:11Z</time>
      </trkpt>
      <trkpt lat="48.75468" lon="6.95463">
        <ele>268</ele>
        <time>2020-08-09T13:05:14Z</time>
      </trkpt>
      <trkpt lat="48.75469" lon="6.95453">
        <ele>268</ele>
        <time>2020-08-09T13:05:17Z</time>
      </trkpt>
      <trkpt lat="48.75471" lon="6.95447">
        <ele>268</ele>
        <time>2020-08-09T13:05:19Z</time>
      </trkpt>
      <trkpt lat="48.75472" lon="6.95437">
        <ele>268</ele>
        <time>2020-08-09T13:05:21Z</time>
      </trkpt>
      <trkpt lat="48.75473" lon="6.9543">
        <ele>268</ele>
        <time>2020-08-09T13:05:23Z</time>
      </trkpt>
      <trkpt lat="48.75473" lon="6.95423">
        <ele>268</ele>
        <time>2020-08-09T13:05:25Z</time>
      </trkpt>
      <trkpt lat="48.75473" lon="6.95414">
        <ele>268</ele>
        <time>2020-08-09T13:05:27Z</time>
      </trkpt>
      <trkpt lat="48.75474" lon="6.95407">
        <ele>268</ele>
        <time>2020-08-09T13:05:29Z</time>
      </trkpt>
      <trkpt lat="48.75477" lon="6.95398">
        <ele>268</ele>
        <time>2020-08-09T13:05:32Z</time>
      </trkpt>
      <trkpt lat="48.75477" lon="6.95388">
        <ele>268</ele>
        <time>2020-08-09T13:05:35Z</time>
      </trkpt>
      <trkpt lat="48.75479" lon="6.9538">
        <ele>268</ele>
        <time>2020-08-09T13:05:37Z</time>
      </trkpt>
      <trkpt lat="48.75485" lon="6.95367">
        <ele>269</ele>
        <time>2020-08-09T13:05:42Z</time>
      </trkpt>
      <trkpt lat="48.75489" lon="6.95365">
        <ele>269</ele>
        <time>2020-08-09T13:05:45Z</time>
      </trkpt>
      <trkpt lat="48.75496" lon="6.95366">
        <ele>269</ele>
        <time>2020-08-09T13:05:48Z</time>
      </trkpt>
      <trkpt lat="48.75503" lon="6.95368">
        <ele>269</ele>
        <time>2020-08-09T13:05:51Z</time>
      </trkpt>
      <trkpt lat="48.75509" lon="6.95368">
        <ele>270</ele>
        <time>2020-08-09T13:05:53Z</time>
      </trkpt>
      <trkpt lat="48.75515" lon="6.95369">
        <ele>270</ele>
        <time>2020-08-09T13:05:55Z</time>
      </trkpt>
      <trkpt lat="48.75521" lon="6.95371">
        <ele>270</ele>
        <time>2020-08-09T13:05:57Z</time>
      </trkpt>
      <trkpt lat="48.75526" lon="6.95374">
        <ele>270</ele>
        <time>2020-08-09T13:05:59Z</time>
      </trkpt>
      <trkpt lat="48.75531" lon="6.95375">
        <ele>270</ele>
        <time>2020-08-09T13:06:02Z</time>
      </trkpt>
      <trkpt lat="48.75536" lon="6.95376">
        <ele>269</ele>
        <time>2020-08-09T13:06:04Z</time>
      </trkpt>
      <trkpt lat="48.75541" lon="6.95384">
        <ele>269</ele>
        <time>2020-08-09T13:06:06Z</time>
      </trkpt>
      <trkpt lat="48.75547" lon="6.95385">
        <ele>269</ele>
        <time>2020-08-09T13:06:08Z</time>
      </trkpt>
      <trkpt lat="48.75552" lon="6.95387">
        <ele>269</ele>
        <time>2020-08-09T13:06:10Z</time>
      </trkpt>
      <trkpt lat="48.75559" lon="6.95388">
        <ele>269</ele>
        <time>2020-08-09T13:06:12Z</time>
      </trkpt>
      <trkpt lat="48.75567" lon="6.95388">
        <ele>269</ele>
        <time>2020-08-09T13:06:14Z</time>
      </trkpt>
      <trkpt lat="48.75573" lon="6.9539">
        <ele>268</ele>
        <time>2020-08-09T13:06:16Z</time>
      </trkpt>
      <trkpt lat="48.7558" lon="6.9539">
        <ele>268</ele>
        <time>2020-08-09T13:06:18Z</time>
      </trkpt>
      <trkpt lat="48.75585" lon="6.9539">
        <ele>267</ele>
        <time>2020-08-09T13:06:20Z</time>
      </trkpt>
      <trkpt lat="48.75591" lon="6.9539">
        <ele>267</ele>
        <time>2020-08-09T13:06:22Z</time>
      </trkpt>
      <trkpt lat="48.75597" lon="6.95389">
        <ele>267</ele>
        <time>2020-08-09T13:06:24Z</time>
      </trkpt>
      <trkpt lat="48.75604" lon="6.95391">
        <ele>267</ele>
        <time>2020-08-09T13:06:26Z</time>
      </trkpt>
      <trkpt lat="48.75611" lon="6.95389">
        <ele>267</ele>
        <time>2020-08-09T13:06:28Z</time>
      </trkpt>
      <trkpt lat="48.75619" lon="6.95389">
        <ele>267</ele>
        <time>2020-08-09T13:06:30Z</time>
      </trkpt>
      <trkpt lat="48.75627" lon="6.9539">
        <ele>267</ele>
        <time>2020-08-09T13:06:32Z</time>
      </trkpt>
      <trkpt lat="48.75634" lon="6.95391">
        <ele>267</ele>
        <time>2020-08-09T13:06:34Z</time>
      </trkpt>
      <trkpt lat="48.75642" lon="6.95392">
        <ele>267</ele>
        <time>2020-08-09T13:06:36Z</time>
      </trkpt>
      <trkpt lat="48.75649" lon="6.95395">
        <ele>267</ele>
        <time>2020-08-09T13:06:38Z</time>
      </trkpt>
      <trkpt lat="48.75657" lon="6.95397">
        <ele>267</ele>
        <time>2020-08-09T13:06:40Z</time>
      </trkpt>
      <trkpt lat="48.75664" lon="6.95399">
        <ele>267</ele>
        <time>2020-08-09T13:06:42Z</time>
      </trkpt>
      <trkpt lat="48.7567" lon="6.95401">
        <ele>267</ele>
        <time>2020-08-09T13:06:44Z</time>
      </trkpt>
      <trkpt lat="48.75678" lon="6.95402">
        <ele>267</ele>
        <time>2020-08-09T13:06:46Z</time>
      </trkpt>
      <trkpt lat="48.75685" lon="6.95404">
        <ele>267</ele>
        <time>2020-08-09T13:06:48Z</time>
      </trkpt>
      <trkpt lat="48.75693" lon="6.95406">
        <ele>267</ele>
        <time>2020-08-09T13:06:50Z</time>
      </trkpt>
      <trkpt lat="48.757" lon="6.95409">
        <ele>267</ele>
        <time>2020-08-09T13:06:52Z</time>
      </trkpt>
      <trkpt lat="48.75707" lon="6.95412">
        <ele>267</ele>
        <time>2020-08-09T13:06:54Z</time>
      </trkpt>
      <trkpt lat="48.75713" lon="6.95415">
        <ele>267</ele>
        <time>2020-08-09T13:06:56Z</time>
      </trkpt>
      <trkpt lat="48.75718" lon="6.9542">
        <ele>268</ele>
        <time>2020-08-09T13:06:58Z</time>
      </trkpt>
      <trkpt lat="48.75722" lon="6.95428">
        <ele>268</ele>
        <time>2020-08-09T13:07:00Z</time>
      </trkpt>
      <trkpt lat="48.75724" lon="6.95436">
        <ele>268</ele>
        <time>2020-08-09T13:07:02Z</time>
      </trkpt>
      <trkpt lat="48.75726" lon="6.95444">
        <ele>269</ele>
        <time>2020-08-09T13:07:04Z</time>
      </trkpt>
      <trkpt lat="48.75726" lon="6.95452">
        <ele>269</ele>
        <time>2020-08-09T13:07:06Z</time>
      </trkpt>
      <trkpt lat="48.75724" lon="6.95461">
        <ele>269</ele>
        <time>2020-08-09T13:07:08Z</time>
      </trkpt>
      <trkpt lat="48.75722" lon="6.9547">
        <ele>270</ele>
        <time>2020-08-09T13:07:10Z</time>
      </trkpt>
      <trkpt lat="48.75721" lon="6.95478">
        <ele>270</ele>
        <time>2020-08-09T13:07:12Z</time>
      </trkpt>
      <trkpt lat="48.7572" lon="6.95485">
        <ele>270</ele>
        <time>2020-08-09T13:07:14Z</time>
      </trkpt>
      <trkpt lat="48.75716" lon="6.95492">
        <ele>270</ele>
        <time>2020-08-09T13:07:16Z</time>
      </trkpt>
      <trkpt lat="48.75711" lon="6.95499">
        <ele>270</ele>
        <time>2020-08-09T13:07:18Z</time>
      </trkpt>
      <trkpt lat="48.75708" lon="6.95508">
        <ele>270</ele>
        <time>2020-08-09T13:07:20Z</time>
      </trkpt>
      <trkpt lat="48.75703" lon="6.95515">
        <ele>270</ele>
        <time>2020-08-09T13:07:22Z</time>
      </trkpt>
      <trkpt lat="48.757" lon="6.95521">
        <ele>269</ele>
        <time>2020-08-09T13:07:24Z</time>
      </trkpt>
      <trkpt lat="48.75695" lon="6.95528">
        <ele>269</ele>
        <time>2020-08-09T13:07:26Z</time>
      </trkpt>
      <trkpt lat="48.75692" lon="6.95533">
        <ele>269</ele>
        <time>2020-08-09T13:07:28Z</time>
      </trkpt>
      <trkpt lat="48.75688" lon="6.95541">
        <ele>269</ele>
        <time>2020-08-09T13:07:30Z</time>
      </trkpt>
      <trkpt lat="48.75687" lon="6.95548">
        <ele>270</ele>
        <time>2020-08-09T13:07:33Z</time>
      </trkpt>
      <trkpt lat="48.75684" lon="6.95557">
        <ele>270</ele>
        <time>2020-08-09T13:07:36Z</time>
      </trkpt>
      <trkpt lat="48.75681" lon="6.95563">
        <ele>270</ele>
        <time>2020-08-09T13:07:38Z</time>
      </trkpt>
      <trkpt lat="48.75685" lon="6.95561">
        <ele>270</ele>
        <time>2020-08-09T13:07:51Z</time>
      </trkpt>
      <trkpt lat="48.75679" lon="6.9556">
        <ele>270</ele>
        <time>2020-08-09T13:08:15Z</time>
      </trkpt>
      <trkpt lat="48.7567" lon="6.95566">
        <ele>270</ele>
        <time>2020-08-09T13:08:20Z</time>
      </trkpt>
      <trkpt lat="48.75668" lon="6.95573">
        <ele>270</ele>
        <time>2020-08-09T13:08:23Z</time>
      </trkpt>
      <trkpt lat="48.75665" lon="6.9558">
        <ele>270</ele>
        <time>2020-08-09T13:08:25Z</time>
      </trkpt>
      <trkpt lat="48.75663" lon="6.95588">
        <ele>271</ele>
        <time>2020-08-09T13:08:27Z</time>
      </trkpt>
      <trkpt lat="48.75663" lon="6.95595">
        <ele>271</ele>
        <time>2020-08-09T13:08:30Z</time>
      </trkpt>
      <trkpt lat="48.75658" lon="6.95596">
        <ele>271</ele>
        <time>2020-08-09T13:08:33Z</time>
      </trkpt>
      <trkpt lat="48.75651" lon="6.95594">
        <ele>271</ele>
        <time>2020-08-09T13:09:46Z</time>
      </trkpt>
      <trkpt lat="48.75661" lon="6.95595">
        <ele>271</ele>
        <time>2020-08-09T13:10:30Z</time>
      </trkpt>
      <trkpt lat="48.75659" lon="6.95587">
        <ele>271</ele>
        <time>2020-08-09T13:11:45Z</time>
      </trkpt>
      <trkpt lat="48.75689" lon="6.95541">
        <ele>269</ele>
        <time>2020-08-09T13:15:34Z</time>
      </trkpt>
      <trkpt lat="48.75692" lon="6.95532">
        <ele>269</ele>
        <time>2020-08-09T13:15:37Z</time>
      </trkpt>
      <trkpt lat="48.75695" lon="6.95526">
        <ele>269</ele>
        <time>2020-08-09T13:15:39Z</time>
      </trkpt>
      <trkpt lat="48.757" lon="6.95521">
        <ele>269</ele>
        <time>2020-08-09T13:15:41Z</time>
      </trkpt>
      <trkpt lat="48.75703" lon="6.95515">
        <ele>270</ele>
        <time>2020-08-09T13:15:43Z</time>
      </trkpt>
      <trkpt lat="48.75707" lon="6.95507">
        <ele>270</ele>
        <time>2020-08-09T13:15:45Z</time>
      </trkpt>
      <trkpt lat="48.75711" lon="6.95501">
        <ele>270</ele>
        <time>2020-08-09T13:15:47Z</time>
      </trkpt>
      <trkpt lat="48.75715" lon="6.95493">
        <ele>270</ele>
        <time>2020-08-09T13:15:49Z</time>
      </trkpt>
      <trkpt lat="48.75719" lon="6.95485">
        <ele>270</ele>
        <time>2020-08-09T13:15:51Z</time>
      </trkpt>
      <trkpt lat="48.75722" lon="6.95477">
        <ele>270</ele>
        <time>2020-08-09T13:15:53Z</time>
      </trkpt>
      <trkpt lat="48.75725" lon="6.95468">
        <ele>270</ele>
        <time>2020-08-09T13:15:55Z</time>
      </trkpt>
      <trkpt lat="48.75726" lon="6.95459">
        <ele>269</ele>
        <time>2020-08-09T13:15:57Z</time>
      </trkpt>
      <trkpt lat="48.75724" lon="6.9545">
        <ele>269</ele>
        <time>2020-08-09T13:15:59Z</time>
      </trkpt>
      <trkpt lat="48.75722" lon="6.9544">
        <ele>269</ele>
        <time>2020-08-09T13:16:01Z</time>
      </trkpt>
      <trkpt lat="48.75719" lon="6.9543">
        <ele>268</ele>
        <time>2020-08-09T13:16:03Z</time>
      </trkpt>
      <trkpt lat="48.75715" lon="6.95419">
        <ele>268</ele>
        <time>2020-08-09T13:16:05Z</time>
      </trkpt>
      <trkpt lat="48.75711" lon="6.95409">
        <ele>267</ele>
        <time>2020-08-09T13:16:07Z</time>
      </trkpt>
      <trkpt lat="48.75707" lon="6.95398">
        <ele>267</ele>
        <time>2020-08-09T13:16:09Z</time>
      </trkpt>
      <trkpt lat="48.75704" lon="6.95387">
        <ele>267</ele>
        <time>2020-08-09T13:16:11Z</time>
      </trkpt>
      <trkpt lat="48.757" lon="6.95376">
        <ele>267</ele>
        <time>2020-08-09T13:16:13Z</time>
      </trkpt>
      <trkpt lat="48.75697" lon="6.95365">
        <ele>267</ele>
        <time>2020-08-09T13:16:15Z</time>
      </trkpt>
      <trkpt lat="48.75695" lon="6.95353">
        <ele>266</ele>
        <time>2020-08-09T13:16:17Z</time>
      </trkpt>
      <trkpt lat="48.75692" lon="6.95343">
        <ele>266</ele>
        <time>2020-08-09T13:16:19Z</time>
      </trkpt>
      <trkpt lat="48.75691" lon="6.95336">
        <ele>267</ele>
        <time>2020-08-09T13:16:21Z</time>
      </trkpt>
      <trkpt lat="48.75691" lon="6.95328">
        <ele>267</ele>
        <time>2020-08-09T13:16:23Z</time>
      </trkpt>
      <trkpt lat="48.7569" lon="6.9532">
        <ele>267</ele>
        <time>2020-08-09T13:16:25Z</time>
      </trkpt>
      <trkpt lat="48.75689" lon="6.9531">
        <ele>267</ele>
        <time>2020-08-09T13:16:27Z</time>
      </trkpt>
      <trkpt lat="48.75685" lon="6.95303">
        <ele>267</ele>
        <time>2020-08-09T13:16:30Z</time>
      </trkpt>
      <trkpt lat="48.75679" lon="6.953">
        <ele>266</ele>
        <time>2020-08-09T13:16:32Z</time>
      </trkpt>
      <trkpt lat="48.75673" lon="6.953">
        <ele>266</ele>
        <time>2020-08-09T13:16:34Z</time>
      </trkpt>
      <trkpt lat="48.75668" lon="6.95296">
        <ele>266</ele>
        <time>2020-08-09T13:16:36Z</time>
      </trkpt>
      <trkpt lat="48.75663" lon="6.95296">
        <ele>265</ele>
        <time>2020-08-09T13:16:38Z</time>
      </trkpt>
      <trkpt lat="48.75658" lon="6.95299">
        <ele>265</ele>
        <time>2020-08-09T13:16:40Z</time>
      </trkpt>
      <trkpt lat="48.75652" lon="6.953">
        <ele>265</ele>
        <time>2020-08-09T13:16:42Z</time>
      </trkpt>
      <trkpt lat="48.75644" lon="6.95301">
        <ele>265</ele>
        <time>2020-08-09T13:16:44Z</time>
      </trkpt>
      <trkpt lat="48.75636" lon="6.95303">
        <ele>265</ele>
        <time>2020-08-09T13:16:46Z</time>
      </trkpt>
      <trkpt lat="48.75629" lon="6.95301">
        <ele>265</ele>
        <time>2020-08-09T13:16:48Z</time>
      </trkpt>
      <trkpt lat="48.75623" lon="6.95302">
        <ele>265</ele>
        <time>2020-08-09T13:16:50Z</time>
      </trkpt>
      <trkpt lat="48.75617" lon="6.95302">
        <ele>265</ele>
        <time>2020-08-09T13:16:52Z</time>
      </trkpt>
      <trkpt lat="48.75611" lon="6.95301">
        <ele>265</ele>
        <time>2020-08-09T13:16:54Z</time>
      </trkpt>
      <trkpt lat="48.75608" lon="6.95292">
        <ele>265</ele>
        <time>2020-08-09T13:16:57Z</time>
      </trkpt>
      <trkpt lat="48.75609" lon="6.95281">
        <ele>264</ele>
        <time>2020-08-09T13:16:59Z</time>
      </trkpt>
      <trkpt lat="48.75609" lon="6.95272">
        <ele>264</ele>
        <time>2020-08-09T13:17:01Z</time>
      </trkpt>
      <trkpt lat="48.7561" lon="6.95263">
        <ele>264</ele>
        <time>2020-08-09T13:17:03Z</time>
      </trkpt>
      <trkpt lat="48.7561" lon="6.95251">
        <ele>264</ele>
        <time>2020-08-09T13:17:05Z</time>
      </trkpt>
      <trkpt lat="48.7561" lon="6.9524">
        <ele>263</ele>
        <time>2020-08-09T13:17:07Z</time>
      </trkpt>
      <trkpt lat="48.7561" lon="6.95229">
        <ele>263</ele>
        <time>2020-08-09T13:17:09Z</time>
      </trkpt>
      <trkpt lat="48.7561" lon="6.9522">
        <ele>263</ele>
        <time>2020-08-09T13:17:11Z</time>
      </trkpt>
      <trkpt lat="48.7561" lon="6.9521">
        <ele>263</ele>
        <time>2020-08-09T13:17:13Z</time>
      </trkpt>
      <trkpt lat="48.75609" lon="6.95201">
        <ele>263</ele>
        <time>2020-08-09T13:17:15Z</time>
      </trkpt>
      <trkpt lat="48.75608" lon="6.95193">
        <ele>262</ele>
        <time>2020-08-09T13:17:17Z</time>
      </trkpt>
      <trkpt lat="48.75608" lon="6.95185">
        <ele>262</ele>
        <time>2020-08-09T13:17:19Z</time>
      </trkpt>
      <trkpt lat="48.75607" lon="6.95175">
        <ele>262</ele>
        <time>2020-08-09T13:17:22Z</time>
      </trkpt>
      <trkpt lat="48.75608" lon="6.95168">
        <ele>262</ele>
        <time>2020-08-09T13:17:24Z</time>
      </trkpt>
      <trkpt lat="48.75607" lon="6.95161">
        <ele>262</ele>
        <time>2020-08-09T13:17:37Z</time>
      </trkpt>
      <trkpt lat="48.75605" lon="6.95152">
        <ele>261</ele>
        <time>2020-08-09T13:17:41Z</time>
      </trkpt>
      <trkpt lat="48.75605" lon="6.95145">
        <ele>261</ele>
        <time>2020-08-09T13:17:43Z</time>
      </trkpt>
      <trkpt lat="48.75607" lon="6.95136">
        <ele>261</ele>
        <time>2020-08-09T13:17:46Z</time>
      </trkpt>
      <trkpt lat="48.7561" lon="6.95132">
        <ele>261</ele>
        <time>2020-08-09T13:17:49Z</time>
      </trkpt>
      <trkpt lat="48.75614" lon="6.95138">
        <ele>262</ele>
        <time>2020-08-09T13:19:38Z</time>
      </trkpt>
      <trkpt lat="48.7562" lon="6.95131">
        <ele>262</ele>
        <time>2020-08-09T13:20:21Z</time>
      </trkpt>
    </trkseg>
  </trk>
</gpx>